<?xml version="1.0" encoding="UTF-8" standalone="no" ?>
<gpx xmlns="http://www.topografix.com/GPX/1/1" xmlns:xsi="http://www.w3.org/2001/XMLSchema-instance" xsi:schemaLocation="http://www.topografix.com/GPX/1/1 http://www.topografix.com/GPX/1/1/gpx.xsd" version="1.1" creator="VisuGPX - https://www.visugpx.com">
  <metadata>
    <name>La ronde des roches</name>
    <desc><![CDATA[La ronde des roches]]></desc>
  </metadata>
  <trk>
    <name><![CDATA[La ronde des roches_1]]></name>
    <trkseg>
      <trkpt lat="49.38863" lon="1.14074">
        <ele>191</ele>
        <time>2016-05-01T06:45:59.000Z</time>
      </trkpt>
      <trkpt lat="49.38862" lon="1.14074">
        <ele>190</ele>
        <time>2016-05-01T06:46:00.000Z</time>
      </trkpt>
      <trkpt lat="49.38862" lon="1.14074">
        <ele>190</ele>
        <time>2016-05-01T06:46:02.000Z</time>
      </trkpt>
      <trkpt lat="49.38862" lon="1.14074">
        <ele>190</ele>
        <time>2016-05-01T06:46:04.000Z</time>
      </trkpt>
      <trkpt lat="49.38856" lon="1.14069">
        <ele>193</ele>
        <time>2016-05-01T06:46:10.000Z</time>
      </trkpt>
      <trkpt lat="49.38856" lon="1.14069">
        <ele>193</ele>
        <time>2016-05-01T06:46:12.000Z</time>
      </trkpt>
      <trkpt lat="49.38856" lon="1.14069">
        <ele>193</ele>
        <time>2016-05-01T06:46:14.000Z</time>
      </trkpt>
      <trkpt lat="49.38856" lon="1.14069">
        <ele>193</ele>
        <time>2016-05-01T06:46:16.000Z</time>
      </trkpt>
      <trkpt lat="49.38856" lon="1.14069">
        <ele>193</ele>
        <time>2016-05-01T06:46:18.000Z</time>
      </trkpt>
      <trkpt lat="49.38841" lon="1.14067">
        <ele>190</ele>
        <time>2016-05-01T06:46:30.000Z</time>
      </trkpt>
      <trkpt lat="49.38835" lon="1.14078">
        <ele>190</ele>
        <time>2016-05-01T06:46:34.000Z</time>
      </trkpt>
      <trkpt lat="49.38835" lon="1.14078">
        <ele>190</ele>
        <time>2016-05-01T06:46:36.000Z</time>
      </trkpt>
      <trkpt lat="49.38829" lon="1.1409">
        <ele>193</ele>
        <time>2016-05-01T06:46:38.000Z</time>
      </trkpt>
      <trkpt lat="49.38829" lon="1.1409">
        <ele>193</ele>
        <time>2016-05-01T06:46:40.000Z</time>
      </trkpt>
      <trkpt lat="49.38821" lon="1.14097">
        <ele>193</ele>
        <time>2016-05-01T06:46:42.000Z</time>
      </trkpt>
      <trkpt lat="49.38821" lon="1.14097">
        <ele>193</ele>
        <time>2016-05-01T06:46:44.000Z</time>
      </trkpt>
      <trkpt lat="49.38821" lon="1.14097">
        <ele>193</ele>
        <time>2016-05-01T06:46:46.000Z</time>
      </trkpt>
      <trkpt lat="49.38821" lon="1.14097">
        <ele>193</ele>
        <time>2016-05-01T06:46:48.000Z</time>
      </trkpt>
      <trkpt lat="49.38805" lon="1.14093">
        <ele>188</ele>
        <time>2016-05-01T06:47:48.000Z</time>
      </trkpt>
      <trkpt lat="49.38799" lon="1.14081">
        <ele>187</ele>
        <time>2016-05-01T06:47:51.000Z</time>
      </trkpt>
      <trkpt lat="49.38794" lon="1.14073">
        <ele>187</ele>
        <time>2016-05-01T06:47:53.000Z</time>
      </trkpt>
      <trkpt lat="49.3879" lon="1.14065">
        <ele>188</ele>
        <time>2016-05-01T06:47:55.000Z</time>
      </trkpt>
      <trkpt lat="49.38785" lon="1.14058">
        <ele>188</ele>
        <time>2016-05-01T06:47:57.000Z</time>
      </trkpt>
      <trkpt lat="49.3878" lon="1.1405">
        <ele>189</ele>
        <time>2016-05-01T06:47:59.000Z</time>
      </trkpt>
      <trkpt lat="49.38776" lon="1.14042">
        <ele>188</ele>
        <time>2016-05-01T06:48:01.000Z</time>
      </trkpt>
      <trkpt lat="49.38771" lon="1.14033">
        <ele>188</ele>
        <time>2016-05-01T06:48:03.000Z</time>
      </trkpt>
      <trkpt lat="49.38766" lon="1.14024">
        <ele>188</ele>
        <time>2016-05-01T06:48:05.000Z</time>
      </trkpt>
      <trkpt lat="49.38761" lon="1.14015">
        <ele>188</ele>
        <time>2016-05-01T06:48:07.000Z</time>
      </trkpt>
      <trkpt lat="49.38755" lon="1.14005">
        <ele>188</ele>
        <time>2016-05-01T06:48:09.000Z</time>
      </trkpt>
      <trkpt lat="49.3875" lon="1.13996">
        <ele>188</ele>
        <time>2016-05-01T06:48:11.000Z</time>
      </trkpt>
      <trkpt lat="49.38746" lon="1.13987">
        <ele>188</ele>
        <time>2016-05-01T06:48:13.000Z</time>
      </trkpt>
      <trkpt lat="49.38741" lon="1.13978">
        <ele>188</ele>
        <time>2016-05-01T06:48:15.000Z</time>
      </trkpt>
      <trkpt lat="49.38736" lon="1.13967">
        <ele>188</ele>
        <time>2016-05-01T06:48:17.000Z</time>
      </trkpt>
      <trkpt lat="49.38733" lon="1.13955">
        <ele>187</ele>
        <time>2016-05-01T06:48:19.000Z</time>
      </trkpt>
      <trkpt lat="49.38729" lon="1.13944">
        <ele>188</ele>
        <time>2016-05-01T06:48:21.000Z</time>
      </trkpt>
      <trkpt lat="49.38727" lon="1.13933">
        <ele>188</ele>
        <time>2016-05-01T06:48:23.000Z</time>
      </trkpt>
      <trkpt lat="49.38724" lon="1.13922">
        <ele>188</ele>
        <time>2016-05-01T06:48:25.000Z</time>
      </trkpt>
      <trkpt lat="49.38721" lon="1.13911">
        <ele>188</ele>
        <time>2016-05-01T06:48:27.000Z</time>
      </trkpt>
      <trkpt lat="49.38717" lon="1.139">
        <ele>188</ele>
        <time>2016-05-01T06:48:29.000Z</time>
      </trkpt>
      <trkpt lat="49.38712" lon="1.1389">
        <ele>188</ele>
        <time>2016-05-01T06:48:31.000Z</time>
      </trkpt>
      <trkpt lat="49.38703" lon="1.13889">
        <ele>189</ele>
        <time>2016-05-01T06:48:33.000Z</time>
      </trkpt>
      <trkpt lat="49.38695" lon="1.13895">
        <ele>190</ele>
        <time>2016-05-01T06:48:35.000Z</time>
      </trkpt>
      <trkpt lat="49.38687" lon="1.13903">
        <ele>190</ele>
        <time>2016-05-01T06:48:37.000Z</time>
      </trkpt>
      <trkpt lat="49.3868" lon="1.13911">
        <ele>191</ele>
        <time>2016-05-01T06:48:39.000Z</time>
      </trkpt>
      <trkpt lat="49.38672" lon="1.13919">
        <ele>192</ele>
        <time>2016-05-01T06:48:41.000Z</time>
      </trkpt>
      <trkpt lat="49.38664" lon="1.13924">
        <ele>192</ele>
        <time>2016-05-01T06:48:43.000Z</time>
      </trkpt>
      <trkpt lat="49.38656" lon="1.13928">
        <ele>192</ele>
        <time>2016-05-01T06:48:45.000Z</time>
      </trkpt>
      <trkpt lat="49.38648" lon="1.13932">
        <ele>192</ele>
        <time>2016-05-01T06:48:47.000Z</time>
      </trkpt>
      <trkpt lat="49.3864" lon="1.13937">
        <ele>191</ele>
        <time>2016-05-01T06:48:49.000Z</time>
      </trkpt>
      <trkpt lat="49.38632" lon="1.13942">
        <ele>192</ele>
        <time>2016-05-01T06:48:51.000Z</time>
      </trkpt>
      <trkpt lat="49.38623" lon="1.13948">
        <ele>192</ele>
        <time>2016-05-01T06:48:53.000Z</time>
      </trkpt>
      <trkpt lat="49.38615" lon="1.13951">
        <ele>192</ele>
        <time>2016-05-01T06:48:55.000Z</time>
      </trkpt>
      <trkpt lat="49.38606" lon="1.13956">
        <ele>192</ele>
        <time>2016-05-01T06:48:57.000Z</time>
      </trkpt>
      <trkpt lat="49.38598" lon="1.13961">
        <ele>192</ele>
        <time>2016-05-01T06:48:59.000Z</time>
      </trkpt>
      <trkpt lat="49.3859" lon="1.13967">
        <ele>192</ele>
        <time>2016-05-01T06:49:01.000Z</time>
      </trkpt>
      <trkpt lat="49.38581" lon="1.13972">
        <ele>192</ele>
        <time>2016-05-01T06:49:03.000Z</time>
      </trkpt>
      <trkpt lat="49.38573" lon="1.13977">
        <ele>193</ele>
        <time>2016-05-01T06:49:05.000Z</time>
      </trkpt>
      <trkpt lat="49.38565" lon="1.13984">
        <ele>194</ele>
        <time>2016-05-01T06:49:07.000Z</time>
      </trkpt>
      <trkpt lat="49.38557" lon="1.1399">
        <ele>194</ele>
        <time>2016-05-01T06:49:09.000Z</time>
      </trkpt>
      <trkpt lat="49.38549" lon="1.13998">
        <ele>194</ele>
        <time>2016-05-01T06:49:11.000Z</time>
      </trkpt>
      <trkpt lat="49.38541" lon="1.14006">
        <ele>192</ele>
        <time>2016-05-01T06:49:13.000Z</time>
      </trkpt>
      <trkpt lat="49.38533" lon="1.14015">
        <ele>192</ele>
        <time>2016-05-01T06:49:15.000Z</time>
      </trkpt>
      <trkpt lat="49.38525" lon="1.14023">
        <ele>192</ele>
        <time>2016-05-01T06:49:17.000Z</time>
      </trkpt>
      <trkpt lat="49.38517" lon="1.14031">
        <ele>192</ele>
        <time>2016-05-01T06:49:19.000Z</time>
      </trkpt>
      <trkpt lat="49.38509" lon="1.14039">
        <ele>191</ele>
        <time>2016-05-01T06:49:21.000Z</time>
      </trkpt>
      <trkpt lat="49.38503" lon="1.14042">
        <ele>190</ele>
        <time>2016-05-01T06:49:23.000Z</time>
      </trkpt>
      <trkpt lat="49.38496" lon="1.14038">
        <ele>190</ele>
        <time>2016-05-01T06:49:25.000Z</time>
      </trkpt>
      <trkpt lat="49.38489" lon="1.14027">
        <ele>190</ele>
        <time>2016-05-01T06:49:27.000Z</time>
      </trkpt>
      <trkpt lat="49.38482" lon="1.14016">
        <ele>190</ele>
        <time>2016-05-01T06:49:29.000Z</time>
      </trkpt>
      <trkpt lat="49.38475" lon="1.14004">
        <ele>189</ele>
        <time>2016-05-01T06:49:31.000Z</time>
      </trkpt>
      <trkpt lat="49.38469" lon="1.13994">
        <ele>190</ele>
        <time>2016-05-01T06:49:33.000Z</time>
      </trkpt>
      <trkpt lat="49.38462" lon="1.13983">
        <ele>189</ele>
        <time>2016-05-01T06:49:35.000Z</time>
      </trkpt>
      <trkpt lat="49.38455" lon="1.13972">
        <ele>189</ele>
        <time>2016-05-01T06:49:37.000Z</time>
      </trkpt>
      <trkpt lat="49.38448" lon="1.13962">
        <ele>189</ele>
        <time>2016-05-01T06:49:39.000Z</time>
      </trkpt>
      <trkpt lat="49.38442" lon="1.13952">
        <ele>189</ele>
        <time>2016-05-01T06:49:41.000Z</time>
      </trkpt>
      <trkpt lat="49.38436" lon="1.13942">
        <ele>189</ele>
        <time>2016-05-01T06:49:43.000Z</time>
      </trkpt>
      <trkpt lat="49.38429" lon="1.13931">
        <ele>189</ele>
        <time>2016-05-01T06:49:45.000Z</time>
      </trkpt>
      <trkpt lat="49.38422" lon="1.13919">
        <ele>188</ele>
        <time>2016-05-01T06:49:47.000Z</time>
      </trkpt>
      <trkpt lat="49.38414" lon="1.13908">
        <ele>188</ele>
        <time>2016-05-01T06:49:49.000Z</time>
      </trkpt>
      <trkpt lat="49.38405" lon="1.13893">
        <ele>188</ele>
        <time>2016-05-01T06:49:51.000Z</time>
      </trkpt>
      <trkpt lat="49.38395" lon="1.13877">
        <ele>187</ele>
        <time>2016-05-01T06:49:53.000Z</time>
      </trkpt>
      <trkpt lat="49.38384" lon="1.13862">
        <ele>187</ele>
        <time>2016-05-01T06:49:55.000Z</time>
      </trkpt>
      <trkpt lat="49.38374" lon="1.13848">
        <ele>186</ele>
        <time>2016-05-01T06:49:57.000Z</time>
      </trkpt>
      <trkpt lat="49.38363" lon="1.13835">
        <ele>185</ele>
        <time>2016-05-01T06:49:59.000Z</time>
      </trkpt>
      <trkpt lat="49.38353" lon="1.13823">
        <ele>185</ele>
        <time>2016-05-01T06:50:01.000Z</time>
      </trkpt>
      <trkpt lat="49.38343" lon="1.13812">
        <ele>184</ele>
        <time>2016-05-01T06:50:03.000Z</time>
      </trkpt>
      <trkpt lat="49.38332" lon="1.13802">
        <ele>184</ele>
        <time>2016-05-01T06:50:05.000Z</time>
      </trkpt>
      <trkpt lat="49.38322" lon="1.13791">
        <ele>184</ele>
        <time>2016-05-01T06:50:07.000Z</time>
      </trkpt>
      <trkpt lat="49.38312" lon="1.1378">
        <ele>184</ele>
        <time>2016-05-01T06:50:09.000Z</time>
      </trkpt>
      <trkpt lat="49.38302" lon="1.13768">
        <ele>184</ele>
        <time>2016-05-01T06:50:11.000Z</time>
      </trkpt>
      <trkpt lat="49.38293" lon="1.13757">
        <ele>183</ele>
        <time>2016-05-01T06:50:13.000Z</time>
      </trkpt>
      <trkpt lat="49.38283" lon="1.13746">
        <ele>183</ele>
        <time>2016-05-01T06:50:15.000Z</time>
      </trkpt>
      <trkpt lat="49.38273" lon="1.13734">
        <ele>183</ele>
        <time>2016-05-01T06:50:17.000Z</time>
      </trkpt>
      <trkpt lat="49.38264" lon="1.13721">
        <ele>183</ele>
        <time>2016-05-01T06:50:19.000Z</time>
      </trkpt>
      <trkpt lat="49.38257" lon="1.13704">
        <ele>182</ele>
        <time>2016-05-01T06:50:21.000Z</time>
      </trkpt>
      <trkpt lat="49.38249" lon="1.13687">
        <ele>182</ele>
        <time>2016-05-01T06:50:23.000Z</time>
      </trkpt>
      <trkpt lat="49.38242" lon="1.13672">
        <ele>182</ele>
        <time>2016-05-01T06:50:25.000Z</time>
      </trkpt>
      <trkpt lat="49.38237" lon="1.13656">
        <ele>183</ele>
        <time>2016-05-01T06:50:27.000Z</time>
      </trkpt>
      <trkpt lat="49.38232" lon="1.13642">
        <ele>183</ele>
        <time>2016-05-01T06:50:29.000Z</time>
      </trkpt>
      <trkpt lat="49.38228" lon="1.13627">
        <ele>183</ele>
        <time>2016-05-01T06:50:31.000Z</time>
      </trkpt>
      <trkpt lat="49.38224" lon="1.13612">
        <ele>183</ele>
        <time>2016-05-01T06:50:33.000Z</time>
      </trkpt>
      <trkpt lat="49.38223" lon="1.13596">
        <ele>182</ele>
        <time>2016-05-01T06:50:35.000Z</time>
      </trkpt>
      <trkpt lat="49.38226" lon="1.13581">
        <ele>183</ele>
        <time>2016-05-01T06:50:37.000Z</time>
      </trkpt>
      <trkpt lat="49.38231" lon="1.13568">
        <ele>184</ele>
        <time>2016-05-01T06:50:39.000Z</time>
      </trkpt>
      <trkpt lat="49.38238" lon="1.13559">
        <ele>185</ele>
        <time>2016-05-01T06:50:41.000Z</time>
      </trkpt>
      <trkpt lat="49.38246" lon="1.1355">
        <ele>185</ele>
        <time>2016-05-01T06:50:43.000Z</time>
      </trkpt>
      <trkpt lat="49.38252" lon="1.13541">
        <ele>186</ele>
        <time>2016-05-01T06:50:45.000Z</time>
      </trkpt>
      <trkpt lat="49.3826" lon="1.13532">
        <ele>188</ele>
        <time>2016-05-01T06:50:47.000Z</time>
      </trkpt>
      <trkpt lat="49.38268" lon="1.13525">
        <ele>188</ele>
        <time>2016-05-01T06:50:49.000Z</time>
      </trkpt>
      <trkpt lat="49.38276" lon="1.13516">
        <ele>188</ele>
        <time>2016-05-01T06:50:51.000Z</time>
      </trkpt>
      <trkpt lat="49.38285" lon="1.13507">
        <ele>188</ele>
        <time>2016-05-01T06:50:53.000Z</time>
      </trkpt>
      <trkpt lat="49.38294" lon="1.13498">
        <ele>188</ele>
        <time>2016-05-01T06:50:55.000Z</time>
      </trkpt>
      <trkpt lat="49.38303" lon="1.13488">
        <ele>188</ele>
        <time>2016-05-01T06:50:57.000Z</time>
      </trkpt>
      <trkpt lat="49.38313" lon="1.13478">
        <ele>188</ele>
        <time>2016-05-01T06:50:59.000Z</time>
      </trkpt>
      <trkpt lat="49.38322" lon="1.13467">
        <ele>187</ele>
        <time>2016-05-01T06:51:01.000Z</time>
      </trkpt>
      <trkpt lat="49.3833" lon="1.13457">
        <ele>187</ele>
        <time>2016-05-01T06:51:03.000Z</time>
      </trkpt>
      <trkpt lat="49.38339" lon="1.13448">
        <ele>187</ele>
        <time>2016-05-01T06:51:05.000Z</time>
      </trkpt>
      <trkpt lat="49.38348" lon="1.13439">
        <ele>187</ele>
        <time>2016-05-01T06:51:07.000Z</time>
      </trkpt>
      <trkpt lat="49.38357" lon="1.13429">
        <ele>187</ele>
        <time>2016-05-01T06:51:09.000Z</time>
      </trkpt>
      <trkpt lat="49.38363" lon="1.1342">
        <ele>187</ele>
        <time>2016-05-01T06:51:11.000Z</time>
      </trkpt>
      <trkpt lat="49.38364" lon="1.13411">
        <ele>188</ele>
        <time>2016-05-01T06:51:13.000Z</time>
      </trkpt>
      <trkpt lat="49.38358" lon="1.13403">
        <ele>185</ele>
        <time>2016-05-01T06:51:15.000Z</time>
      </trkpt>
      <trkpt lat="49.3835" lon="1.13401">
        <ele>184</ele>
        <time>2016-05-01T06:51:17.000Z</time>
      </trkpt>
      <trkpt lat="49.38342" lon="1.134">
        <ele>182</ele>
        <time>2016-05-01T06:51:19.000Z</time>
      </trkpt>
      <trkpt lat="49.38334" lon="1.13401">
        <ele>181</ele>
        <time>2016-05-01T06:51:21.000Z</time>
      </trkpt>
      <trkpt lat="49.38334" lon="1.13401">
        <ele>181</ele>
        <time>2016-05-01T06:51:23.000Z</time>
      </trkpt>
      <trkpt lat="49.3833" lon="1.13394">
        <ele>182</ele>
        <time>2016-05-01T06:51:25.000Z</time>
      </trkpt>
      <trkpt lat="49.3833" lon="1.13381">
        <ele>182</ele>
        <time>2016-05-01T06:51:29.000Z</time>
      </trkpt>
      <trkpt lat="49.3833" lon="1.1337">
        <ele>181</ele>
        <time>2016-05-01T06:51:31.000Z</time>
      </trkpt>
      <trkpt lat="49.38332" lon="1.13356">
        <ele>180</ele>
        <time>2016-05-01T06:51:33.000Z</time>
      </trkpt>
      <trkpt lat="49.38336" lon="1.1334">
        <ele>179</ele>
        <time>2016-05-01T06:51:35.000Z</time>
      </trkpt>
      <trkpt lat="49.38341" lon="1.13319">
        <ele>179</ele>
        <time>2016-05-01T06:51:37.000Z</time>
      </trkpt>
      <trkpt lat="49.38346" lon="1.13298">
        <ele>178</ele>
        <time>2016-05-01T06:51:39.000Z</time>
      </trkpt>
      <trkpt lat="49.38351" lon="1.13277">
        <ele>177</ele>
        <time>2016-05-01T06:51:41.000Z</time>
      </trkpt>
      <trkpt lat="49.38354" lon="1.13261">
        <ele>177</ele>
        <time>2016-05-01T06:51:43.000Z</time>
      </trkpt>
      <trkpt lat="49.38353" lon="1.13249">
        <ele>179</ele>
        <time>2016-05-01T06:51:45.000Z</time>
      </trkpt>
      <trkpt lat="49.38348" lon="1.13238">
        <ele>178</ele>
        <time>2016-05-01T06:51:47.000Z</time>
      </trkpt>
      <trkpt lat="49.38343" lon="1.13224">
        <ele>177</ele>
        <time>2016-05-01T06:51:49.000Z</time>
      </trkpt>
      <trkpt lat="49.38341" lon="1.13208">
        <ele>175</ele>
        <time>2016-05-01T06:51:51.000Z</time>
      </trkpt>
      <trkpt lat="49.38337" lon="1.13195">
        <ele>175</ele>
        <time>2016-05-01T06:51:53.000Z</time>
      </trkpt>
      <trkpt lat="49.38336" lon="1.1318">
        <ele>176</ele>
        <time>2016-05-01T06:51:55.000Z</time>
      </trkpt>
      <trkpt lat="49.38335" lon="1.13163">
        <ele>176</ele>
        <time>2016-05-01T06:51:57.000Z</time>
      </trkpt>
      <trkpt lat="49.38337" lon="1.13148">
        <ele>176</ele>
        <time>2016-05-01T06:51:59.000Z</time>
      </trkpt>
      <trkpt lat="49.3833" lon="1.13146">
        <ele>176</ele>
        <time>2016-05-01T06:52:01.000Z</time>
      </trkpt>
      <trkpt lat="49.3833" lon="1.13146">
        <ele>176</ele>
        <time>2016-05-01T06:52:03.000Z</time>
      </trkpt>
      <trkpt lat="49.38319" lon="1.13148">
        <ele>174</ele>
        <time>2016-05-01T06:52:05.000Z</time>
      </trkpt>
      <trkpt lat="49.38306" lon="1.13162">
        <ele>172</ele>
        <time>2016-05-01T06:52:08.000Z</time>
      </trkpt>
      <trkpt lat="49.383" lon="1.13168">
        <ele>171</ele>
        <time>2016-05-01T06:52:10.000Z</time>
      </trkpt>
      <trkpt lat="49.38294" lon="1.13174">
        <ele>175</ele>
        <time>2016-05-01T06:52:12.000Z</time>
      </trkpt>
      <trkpt lat="49.38287" lon="1.13183">
        <ele>175</ele>
        <time>2016-05-01T06:52:14.000Z</time>
      </trkpt>
      <trkpt lat="49.38276" lon="1.13195">
        <ele>176</ele>
        <time>2016-05-01T06:52:16.000Z</time>
      </trkpt>
      <trkpt lat="49.38261" lon="1.13217">
        <ele>170</ele>
        <time>2016-05-01T06:52:19.000Z</time>
      </trkpt>
      <trkpt lat="49.3825" lon="1.13217">
        <ele>168</ele>
        <time>2016-05-01T06:52:22.000Z</time>
      </trkpt>
      <trkpt lat="49.38244" lon="1.13215">
        <ele>165</ele>
        <time>2016-05-01T06:52:24.000Z</time>
      </trkpt>
      <trkpt lat="49.38244" lon="1.13215">
        <ele>165</ele>
        <time>2016-05-01T06:52:26.000Z</time>
      </trkpt>
      <trkpt lat="49.38248" lon="1.13206">
        <ele>163</ele>
        <time>2016-05-01T06:52:28.000Z</time>
      </trkpt>
      <trkpt lat="49.38253" lon="1.13199">
        <ele>164</ele>
        <time>2016-05-01T06:52:30.000Z</time>
      </trkpt>
      <trkpt lat="49.3825" lon="1.13182">
        <ele>160</ele>
        <time>2016-05-01T06:52:34.000Z</time>
      </trkpt>
      <trkpt lat="49.3821" lon="1.13174">
        <ele>160</ele>
        <time>2016-05-01T06:52:39.000Z</time>
      </trkpt>
      <trkpt lat="49.38215" lon="1.13148">
        <ele>156</ele>
        <time>2016-05-01T06:52:43.000Z</time>
      </trkpt>
      <trkpt lat="49.38217" lon="1.13136">
        <ele>152</ele>
        <time>2016-05-01T06:52:45.000Z</time>
      </trkpt>
      <trkpt lat="49.38198" lon="1.13125">
        <ele>150</ele>
        <time>2016-05-01T06:52:48.000Z</time>
      </trkpt>
      <trkpt lat="49.38191" lon="1.1311">
        <ele>147</ele>
        <time>2016-05-01T06:52:50.000Z</time>
      </trkpt>
      <trkpt lat="49.38188" lon="1.13096">
        <ele>144</ele>
        <time>2016-05-01T06:52:52.000Z</time>
      </trkpt>
      <trkpt lat="49.38186" lon="1.13086">
        <ele>143</ele>
        <time>2016-05-01T06:52:54.000Z</time>
      </trkpt>
      <trkpt lat="49.38185" lon="1.13077">
        <ele>146</ele>
        <time>2016-05-01T06:52:56.000Z</time>
      </trkpt>
      <trkpt lat="49.38186" lon="1.13066">
        <ele>144</ele>
        <time>2016-05-01T06:52:58.000Z</time>
      </trkpt>
      <trkpt lat="49.38186" lon="1.13066">
        <ele>144</ele>
        <time>2016-05-01T06:53:00.000Z</time>
      </trkpt>
      <trkpt lat="49.38185" lon="1.13056">
        <ele>140</ele>
        <time>2016-05-01T06:53:02.000Z</time>
      </trkpt>
      <trkpt lat="49.38185" lon="1.13056">
        <ele>140</ele>
        <time>2016-05-01T06:53:04.000Z</time>
      </trkpt>
      <trkpt lat="49.38186" lon="1.13043">
        <ele>144</ele>
        <time>2016-05-01T06:53:10.000Z</time>
      </trkpt>
      <trkpt lat="49.38189" lon="1.13033">
        <ele>144</ele>
        <time>2016-05-01T06:53:12.000Z</time>
      </trkpt>
      <trkpt lat="49.38192" lon="1.1302">
        <ele>143</ele>
        <time>2016-05-01T06:53:14.000Z</time>
      </trkpt>
      <trkpt lat="49.38192" lon="1.13011">
        <ele>144</ele>
        <time>2016-05-01T06:53:16.000Z</time>
      </trkpt>
      <trkpt lat="49.3819" lon="1.13">
        <ele>142</ele>
        <time>2016-05-01T06:53:18.000Z</time>
      </trkpt>
      <trkpt lat="49.3819" lon="1.12991">
        <ele>141</ele>
        <time>2016-05-01T06:53:20.000Z</time>
      </trkpt>
      <trkpt lat="49.3819" lon="1.12991">
        <ele>141</ele>
        <time>2016-05-01T06:53:22.000Z</time>
      </trkpt>
      <trkpt lat="49.38187" lon="1.12981">
        <ele>141</ele>
        <time>2016-05-01T06:53:24.000Z</time>
      </trkpt>
      <trkpt lat="49.38187" lon="1.12981">
        <ele>141</ele>
        <time>2016-05-01T06:53:26.000Z</time>
      </trkpt>
      <trkpt lat="49.38185" lon="1.12971">
        <ele>141</ele>
        <time>2016-05-01T06:53:28.000Z</time>
      </trkpt>
      <trkpt lat="49.38185" lon="1.12971">
        <ele>141</ele>
        <time>2016-05-01T06:53:30.000Z</time>
      </trkpt>
      <trkpt lat="49.38185" lon="1.12971">
        <ele>141</ele>
        <time>2016-05-01T06:53:32.000Z</time>
      </trkpt>
      <trkpt lat="49.38185" lon="1.12971">
        <ele>141</ele>
        <time>2016-05-01T06:53:34.000Z</time>
      </trkpt>
      <trkpt lat="49.38182" lon="1.12947">
        <ele>149</ele>
        <time>2016-05-01T06:53:44.000Z</time>
      </trkpt>
      <trkpt lat="49.38188" lon="1.12939">
        <ele>146</ele>
        <time>2016-05-01T06:53:48.000Z</time>
      </trkpt>
      <trkpt lat="49.38197" lon="1.12934">
        <ele>143</ele>
        <time>2016-05-01T06:53:52.000Z</time>
      </trkpt>
      <trkpt lat="49.38197" lon="1.12934">
        <ele>143</ele>
        <time>2016-05-01T06:53:54.000Z</time>
      </trkpt>
      <trkpt lat="49.38202" lon="1.12924">
        <ele>148</ele>
        <time>2016-05-01T06:53:56.000Z</time>
      </trkpt>
      <trkpt lat="49.38202" lon="1.12924">
        <ele>148</ele>
        <time>2016-05-01T06:53:58.000Z</time>
      </trkpt>
      <trkpt lat="49.38207" lon="1.12914">
        <ele>147</ele>
        <time>2016-05-01T06:54:00.000Z</time>
      </trkpt>
      <trkpt lat="49.38218" lon="1.12905">
        <ele>144</ele>
        <time>2016-05-01T06:54:04.000Z</time>
      </trkpt>
      <trkpt lat="49.38225" lon="1.12898">
        <ele>145</ele>
        <time>2016-05-01T06:54:06.000Z</time>
      </trkpt>
      <trkpt lat="49.38231" lon="1.12887">
        <ele>142</ele>
        <time>2016-05-01T06:54:08.000Z</time>
      </trkpt>
      <trkpt lat="49.38235" lon="1.12873">
        <ele>141</ele>
        <time>2016-05-01T06:54:10.000Z</time>
      </trkpt>
      <trkpt lat="49.38236" lon="1.1286">
        <ele>140</ele>
        <time>2016-05-01T06:54:12.000Z</time>
      </trkpt>
      <trkpt lat="49.38235" lon="1.12846">
        <ele>139</ele>
        <time>2016-05-01T06:54:14.000Z</time>
      </trkpt>
      <trkpt lat="49.38236" lon="1.12837">
        <ele>139</ele>
        <time>2016-05-01T06:54:16.000Z</time>
      </trkpt>
      <trkpt lat="49.38236" lon="1.12837">
        <ele>139</ele>
        <time>2016-05-01T06:54:19.000Z</time>
      </trkpt>
      <trkpt lat="49.38237" lon="1.12828">
        <ele>138</ele>
        <time>2016-05-01T06:54:21.000Z</time>
      </trkpt>
      <trkpt lat="49.38236" lon="1.12818">
        <ele>138</ele>
        <time>2016-05-01T06:54:27.000Z</time>
      </trkpt>
      <trkpt lat="49.38236" lon="1.12818">
        <ele>138</ele>
        <time>2016-05-01T06:54:29.000Z</time>
      </trkpt>
      <trkpt lat="49.38235" lon="1.12808">
        <ele>143</ele>
        <time>2016-05-01T06:54:33.000Z</time>
      </trkpt>
      <trkpt lat="49.38234" lon="1.12802">
        <ele>143</ele>
        <time>2016-05-01T06:54:39.000Z</time>
      </trkpt>
      <trkpt lat="49.38232" lon="1.12796">
        <ele>143</ele>
        <time>2016-05-01T06:54:41.000Z</time>
      </trkpt>
      <trkpt lat="49.38229" lon="1.12792">
        <ele>142</ele>
        <time>2016-05-01T06:54:43.000Z</time>
      </trkpt>
      <trkpt lat="49.38226" lon="1.12789">
        <ele>143</ele>
        <time>2016-05-01T06:54:45.000Z</time>
      </trkpt>
      <trkpt lat="49.38223" lon="1.12788">
        <ele>144</ele>
        <time>2016-05-01T06:54:47.000Z</time>
      </trkpt>
      <trkpt lat="49.38217" lon="1.12787">
        <ele>145</ele>
        <time>2016-05-01T06:54:49.000Z</time>
      </trkpt>
      <trkpt lat="49.38217" lon="1.12787">
        <ele>145</ele>
        <time>2016-05-01T06:54:51.000Z</time>
      </trkpt>
      <trkpt lat="49.38217" lon="1.12787">
        <ele>145</ele>
        <time>2016-05-01T06:54:53.000Z</time>
      </trkpt>
      <trkpt lat="49.38217" lon="1.12787">
        <ele>145</ele>
        <time>2016-05-01T06:54:55.000Z</time>
      </trkpt>
      <trkpt lat="49.38217" lon="1.12787">
        <ele>145</ele>
        <time>2016-05-01T06:54:57.000Z</time>
      </trkpt>
      <trkpt lat="49.38197" lon="1.12784">
        <ele>151</ele>
        <time>2016-05-01T06:55:19.000Z</time>
      </trkpt>
      <trkpt lat="49.38188" lon="1.12795">
        <ele>152</ele>
        <time>2016-05-01T06:55:23.000Z</time>
      </trkpt>
      <trkpt lat="49.38181" lon="1.12798">
        <ele>151</ele>
        <time>2016-05-01T06:55:25.000Z</time>
      </trkpt>
      <trkpt lat="49.38173" lon="1.12804">
        <ele>150</ele>
        <time>2016-05-01T06:55:27.000Z</time>
      </trkpt>
      <trkpt lat="49.38166" lon="1.12809">
        <ele>149</ele>
        <time>2016-05-01T06:55:29.000Z</time>
      </trkpt>
      <trkpt lat="49.38158" lon="1.12812">
        <ele>149</ele>
        <time>2016-05-01T06:55:31.000Z</time>
      </trkpt>
      <trkpt lat="49.38152" lon="1.12816">
        <ele>149</ele>
        <time>2016-05-01T06:55:33.000Z</time>
      </trkpt>
      <trkpt lat="49.38146" lon="1.12822">
        <ele>150</ele>
        <time>2016-05-01T06:55:35.000Z</time>
      </trkpt>
      <trkpt lat="49.38141" lon="1.12829">
        <ele>150</ele>
        <time>2016-05-01T06:55:37.000Z</time>
      </trkpt>
      <trkpt lat="49.38136" lon="1.12834">
        <ele>151</ele>
        <time>2016-05-01T06:55:39.000Z</time>
      </trkpt>
      <trkpt lat="49.38136" lon="1.12834">
        <ele>151</ele>
        <time>2016-05-01T06:55:41.000Z</time>
      </trkpt>
      <trkpt lat="49.38128" lon="1.12839">
        <ele>152</ele>
        <time>2016-05-01T06:55:43.000Z</time>
      </trkpt>
      <trkpt lat="49.38123" lon="1.12845">
        <ele>151</ele>
        <time>2016-05-01T06:55:45.000Z</time>
      </trkpt>
      <trkpt lat="49.38119" lon="1.12852">
        <ele>150</ele>
        <time>2016-05-01T06:55:47.000Z</time>
      </trkpt>
      <trkpt lat="49.38115" lon="1.12858">
        <ele>151</ele>
        <time>2016-05-01T06:55:49.000Z</time>
      </trkpt>
      <trkpt lat="49.38115" lon="1.12858">
        <ele>151</ele>
        <time>2016-05-01T06:55:51.000Z</time>
      </trkpt>
      <trkpt lat="49.38107" lon="1.12866">
        <ele>153</ele>
        <time>2016-05-01T06:55:53.000Z</time>
      </trkpt>
      <trkpt lat="49.38107" lon="1.12866">
        <ele>153</ele>
        <time>2016-05-01T06:55:55.000Z</time>
      </trkpt>
      <trkpt lat="49.38098" lon="1.12874">
        <ele>150</ele>
        <time>2016-05-01T06:55:57.000Z</time>
      </trkpt>
      <trkpt lat="49.38098" lon="1.12874">
        <ele>150</ele>
        <time>2016-05-01T06:55:59.000Z</time>
      </trkpt>
      <trkpt lat="49.3809" lon="1.12879">
        <ele>153</ele>
        <time>2016-05-01T06:56:01.000Z</time>
      </trkpt>
      <trkpt lat="49.3809" lon="1.12879">
        <ele>153</ele>
        <time>2016-05-01T06:56:03.000Z</time>
      </trkpt>
      <trkpt lat="49.38082" lon="1.12883">
        <ele>155</ele>
        <time>2016-05-01T06:56:05.000Z</time>
      </trkpt>
      <trkpt lat="49.38082" lon="1.12883">
        <ele>155</ele>
        <time>2016-05-01T06:56:07.000Z</time>
      </trkpt>
      <trkpt lat="49.38074" lon="1.12884">
        <ele>158</ele>
        <time>2016-05-01T06:56:09.000Z</time>
      </trkpt>
      <trkpt lat="49.38074" lon="1.12884">
        <ele>158</ele>
        <time>2016-05-01T06:56:11.000Z</time>
      </trkpt>
      <trkpt lat="49.38065" lon="1.12887">
        <ele>158</ele>
        <time>2016-05-01T06:56:13.000Z</time>
      </trkpt>
      <trkpt lat="49.38065" lon="1.12887">
        <ele>158</ele>
        <time>2016-05-01T06:56:15.000Z</time>
      </trkpt>
      <trkpt lat="49.38059" lon="1.12892">
        <ele>161</ele>
        <time>2016-05-01T06:56:17.000Z</time>
      </trkpt>
      <trkpt lat="49.38057" lon="1.12904">
        <ele>164</ele>
        <time>2016-05-01T06:56:21.000Z</time>
      </trkpt>
      <trkpt lat="49.38057" lon="1.12915">
        <ele>164</ele>
        <time>2016-05-01T06:56:25.000Z</time>
      </trkpt>
      <trkpt lat="49.38052" lon="1.12926">
        <ele>153</ele>
        <time>2016-05-01T06:56:29.000Z</time>
      </trkpt>
      <trkpt lat="49.38049" lon="1.12943">
        <ele>162</ele>
        <time>2016-05-01T06:56:33.000Z</time>
      </trkpt>
      <trkpt lat="49.38048" lon="1.12952">
        <ele>164</ele>
        <time>2016-05-01T06:56:35.000Z</time>
      </trkpt>
      <trkpt lat="49.38048" lon="1.12952">
        <ele>164</ele>
        <time>2016-05-01T06:56:37.000Z</time>
      </trkpt>
      <trkpt lat="49.38047" lon="1.12965">
        <ele>167</ele>
        <time>2016-05-01T06:56:39.000Z</time>
      </trkpt>
      <trkpt lat="49.38047" lon="1.12965">
        <ele>167</ele>
        <time>2016-05-01T06:56:41.000Z</time>
      </trkpt>
      <trkpt lat="49.38047" lon="1.12965">
        <ele>167</ele>
        <time>2016-05-01T06:56:43.000Z</time>
      </trkpt>
      <trkpt lat="49.38044" lon="1.12975">
        <ele>171</ele>
        <time>2016-05-01T06:56:45.000Z</time>
      </trkpt>
      <trkpt lat="49.38044" lon="1.12975">
        <ele>171</ele>
        <time>2016-05-01T06:56:47.000Z</time>
      </trkpt>
      <trkpt lat="49.38044" lon="1.12975">
        <ele>171</ele>
        <time>2016-05-01T06:56:49.000Z</time>
      </trkpt>
      <trkpt lat="49.38045" lon="1.12986">
        <ele>172</ele>
        <time>2016-05-01T06:56:51.000Z</time>
      </trkpt>
      <trkpt lat="49.38045" lon="1.12986">
        <ele>172</ele>
        <time>2016-05-01T06:56:53.000Z</time>
      </trkpt>
      <trkpt lat="49.38045" lon="1.12986">
        <ele>172</ele>
        <time>2016-05-01T06:56:55.000Z</time>
      </trkpt>
      <trkpt lat="49.38045" lon="1.12986">
        <ele>172</ele>
        <time>2016-05-01T06:56:57.000Z</time>
      </trkpt>
      <trkpt lat="49.38045" lon="1.12998">
        <ele>173</ele>
        <time>2016-05-01T06:56:59.000Z</time>
      </trkpt>
      <trkpt lat="49.38045" lon="1.12998">
        <ele>173</ele>
        <time>2016-05-01T06:57:03.000Z</time>
      </trkpt>
      <trkpt lat="49.38045" lon="1.13008">
        <ele>175</ele>
        <time>2016-05-01T06:57:05.000Z</time>
      </trkpt>
      <trkpt lat="49.38045" lon="1.13008">
        <ele>175</ele>
        <time>2016-05-01T06:57:07.000Z</time>
      </trkpt>
      <trkpt lat="49.38045" lon="1.13008">
        <ele>175</ele>
        <time>2016-05-01T06:57:09.000Z</time>
      </trkpt>
      <trkpt lat="49.38047" lon="1.13017">
        <ele>174</ele>
        <time>2016-05-01T06:57:11.000Z</time>
      </trkpt>
      <trkpt lat="49.38052" lon="1.13027">
        <ele>160</ele>
        <time>2016-05-01T06:57:15.000Z</time>
      </trkpt>
      <trkpt lat="49.38052" lon="1.13027">
        <ele>160</ele>
        <time>2016-05-01T06:57:17.000Z</time>
      </trkpt>
      <trkpt lat="49.38057" lon="1.13036">
        <ele>159</ele>
        <time>2016-05-01T06:57:19.000Z</time>
      </trkpt>
      <trkpt lat="49.38059" lon="1.13048">
        <ele>166</ele>
        <time>2016-05-01T06:57:25.000Z</time>
      </trkpt>
      <trkpt lat="49.38059" lon="1.13048">
        <ele>166</ele>
        <time>2016-05-01T06:57:27.000Z</time>
      </trkpt>
      <trkpt lat="49.38059" lon="1.13048">
        <ele>166</ele>
        <time>2016-05-01T06:57:29.000Z</time>
      </trkpt>
      <trkpt lat="49.38059" lon="1.13053">
        <ele>171</ele>
        <time>2016-05-01T06:57:31.000Z</time>
      </trkpt>
      <trkpt lat="49.38058" lon="1.13058">
        <ele>174</ele>
        <time>2016-05-01T06:57:35.000Z</time>
      </trkpt>
      <trkpt lat="49.38058" lon="1.13058">
        <ele>174</ele>
        <time>2016-05-01T06:57:37.000Z</time>
      </trkpt>
      <trkpt lat="49.38056" lon="1.13065">
        <ele>174</ele>
        <time>2016-05-01T06:57:41.000Z</time>
      </trkpt>
      <trkpt lat="49.38054" lon="1.13071">
        <ele>176</ele>
        <time>2016-05-01T06:57:43.000Z</time>
      </trkpt>
      <trkpt lat="49.38053" lon="1.13075">
        <ele>175</ele>
        <time>2016-05-01T06:57:45.000Z</time>
      </trkpt>
      <trkpt lat="49.38053" lon="1.13075">
        <ele>175</ele>
        <time>2016-05-01T06:57:47.000Z</time>
      </trkpt>
      <trkpt lat="49.38051" lon="1.1308">
        <ele>176</ele>
        <time>2016-05-01T06:57:49.000Z</time>
      </trkpt>
      <trkpt lat="49.3805" lon="1.13084">
        <ele>177</ele>
        <time>2016-05-01T06:57:51.000Z</time>
      </trkpt>
      <trkpt lat="49.38048" lon="1.13089">
        <ele>180</ele>
        <time>2016-05-01T06:57:55.000Z</time>
      </trkpt>
      <trkpt lat="49.38046" lon="1.13094">
        <ele>180</ele>
        <time>2016-05-01T06:57:57.000Z</time>
      </trkpt>
      <trkpt lat="49.38043" lon="1.131">
        <ele>181</ele>
        <time>2016-05-01T06:57:59.000Z</time>
      </trkpt>
      <trkpt lat="49.3804" lon="1.13105">
        <ele>183</ele>
        <time>2016-05-01T06:58:01.000Z</time>
      </trkpt>
      <trkpt lat="49.38038" lon="1.1311">
        <ele>182</ele>
        <time>2016-05-01T06:58:03.000Z</time>
      </trkpt>
      <trkpt lat="49.38035" lon="1.13121">
        <ele>183</ele>
        <time>2016-05-01T06:58:05.000Z</time>
      </trkpt>
      <trkpt lat="49.38035" lon="1.13121">
        <ele>183</ele>
        <time>2016-05-01T06:58:07.000Z</time>
      </trkpt>
      <trkpt lat="49.38033" lon="1.1313">
        <ele>185</ele>
        <time>2016-05-01T06:58:09.000Z</time>
      </trkpt>
      <trkpt lat="49.38033" lon="1.1313">
        <ele>185</ele>
        <time>2016-05-01T06:58:11.000Z</time>
      </trkpt>
      <trkpt lat="49.38031" lon="1.1314">
        <ele>185</ele>
        <time>2016-05-01T06:58:13.000Z</time>
      </trkpt>
      <trkpt lat="49.38031" lon="1.1314">
        <ele>185</ele>
        <time>2016-05-01T06:58:15.000Z</time>
      </trkpt>
      <trkpt lat="49.38031" lon="1.1314">
        <ele>185</ele>
        <time>2016-05-01T06:58:17.000Z</time>
      </trkpt>
      <trkpt lat="49.38029" lon="1.13149">
        <ele>187</ele>
        <time>2016-05-01T06:58:19.000Z</time>
      </trkpt>
      <trkpt lat="49.38029" lon="1.13149">
        <ele>187</ele>
        <time>2016-05-01T06:58:21.000Z</time>
      </trkpt>
      <trkpt lat="49.38029" lon="1.13161">
        <ele>190</ele>
        <time>2016-05-01T06:58:25.000Z</time>
      </trkpt>
      <trkpt lat="49.38029" lon="1.13176">
        <ele>189</ele>
        <time>2016-05-01T06:58:29.000Z</time>
      </trkpt>
      <trkpt lat="49.38028" lon="1.1319">
        <ele>190</ele>
        <time>2016-05-01T06:58:33.000Z</time>
      </trkpt>
      <trkpt lat="49.38024" lon="1.13197">
        <ele>192</ele>
        <time>2016-05-01T06:58:37.000Z</time>
      </trkpt>
      <trkpt lat="49.38024" lon="1.13197">
        <ele>192</ele>
        <time>2016-05-01T06:58:39.000Z</time>
      </trkpt>
      <trkpt lat="49.38018" lon="1.13201">
        <ele>182</ele>
        <time>2016-05-01T06:58:41.000Z</time>
      </trkpt>
      <trkpt lat="49.38012" lon="1.13205">
        <ele>188</ele>
        <time>2016-05-01T06:58:45.000Z</time>
      </trkpt>
      <trkpt lat="49.38012" lon="1.13205">
        <ele>188</ele>
        <time>2016-05-01T06:58:47.000Z</time>
      </trkpt>
      <trkpt lat="49.38012" lon="1.13205">
        <ele>188</ele>
        <time>2016-05-01T06:58:49.000Z</time>
      </trkpt>
      <trkpt lat="49.38003" lon="1.13207">
        <ele>160</ele>
        <time>2016-05-01T06:58:51.000Z</time>
      </trkpt>
      <trkpt lat="49.37996" lon="1.13204">
        <ele>175</ele>
        <time>2016-05-01T06:58:53.000Z</time>
      </trkpt>
      <trkpt lat="49.37989" lon="1.13204">
        <ele>182</ele>
        <time>2016-05-01T06:58:55.000Z</time>
      </trkpt>
      <trkpt lat="49.37989" lon="1.13204">
        <ele>182</ele>
        <time>2016-05-01T06:58:57.000Z</time>
      </trkpt>
      <trkpt lat="49.37982" lon="1.13203">
        <ele>188</ele>
        <time>2016-05-01T06:58:59.000Z</time>
      </trkpt>
      <trkpt lat="49.37982" lon="1.13203">
        <ele>188</ele>
        <time>2016-05-01T06:59:01.000Z</time>
      </trkpt>
      <trkpt lat="49.37976" lon="1.132">
        <ele>192</ele>
        <time>2016-05-01T06:59:03.000Z</time>
      </trkpt>
      <trkpt lat="49.37967" lon="1.13197">
        <ele>194</ele>
        <time>2016-05-01T06:59:07.000Z</time>
      </trkpt>
      <trkpt lat="49.3796" lon="1.13194">
        <ele>194</ele>
        <time>2016-05-01T06:59:09.000Z</time>
      </trkpt>
      <trkpt lat="49.37952" lon="1.1319">
        <ele>165</ele>
        <time>2016-05-01T06:59:11.000Z</time>
      </trkpt>
      <trkpt lat="49.37932" lon="1.13185">
        <ele>177</ele>
        <time>2016-05-01T06:59:14.000Z</time>
      </trkpt>
      <trkpt lat="49.37919" lon="1.13179">
        <ele>180</ele>
        <time>2016-05-01T06:59:17.000Z</time>
      </trkpt>
      <trkpt lat="49.37919" lon="1.13179">
        <ele>180</ele>
        <time>2016-05-01T06:59:19.000Z</time>
      </trkpt>
      <trkpt lat="49.37914" lon="1.13173">
        <ele>157</ele>
        <time>2016-05-01T06:59:21.000Z</time>
      </trkpt>
      <trkpt lat="49.37914" lon="1.13173">
        <ele>157</ele>
        <time>2016-05-01T06:59:23.000Z</time>
      </trkpt>
      <trkpt lat="49.37909" lon="1.13173">
        <ele>173</ele>
        <time>2016-05-01T06:59:25.000Z</time>
      </trkpt>
      <trkpt lat="49.37909" lon="1.13173">
        <ele>173</ele>
        <time>2016-05-01T06:59:27.000Z</time>
      </trkpt>
      <trkpt lat="49.379" lon="1.13171">
        <ele>182</ele>
        <time>2016-05-01T06:59:31.000Z</time>
      </trkpt>
      <trkpt lat="49.379" lon="1.13171">
        <ele>182</ele>
        <time>2016-05-01T06:59:33.000Z</time>
      </trkpt>
      <trkpt lat="49.37894" lon="1.13172">
        <ele>181</ele>
        <time>2016-05-01T06:59:35.000Z</time>
      </trkpt>
      <trkpt lat="49.37894" lon="1.13172">
        <ele>181</ele>
        <time>2016-05-01T06:59:37.000Z</time>
      </trkpt>
      <trkpt lat="49.37894" lon="1.13172">
        <ele>181</ele>
        <time>2016-05-01T06:59:39.000Z</time>
      </trkpt>
      <trkpt lat="49.37851" lon="1.13162">
        <ele>169</ele>
        <time>2016-05-01T07:00:59.000Z</time>
      </trkpt>
      <trkpt lat="49.37842" lon="1.13154">
        <ele>185</ele>
        <time>2016-05-01T07:01:07.000Z</time>
      </trkpt>
      <trkpt lat="49.37832" lon="1.13154">
        <ele>187</ele>
        <time>2016-05-01T07:01:11.000Z</time>
      </trkpt>
      <trkpt lat="49.37832" lon="1.13154">
        <ele>187</ele>
        <time>2016-05-01T07:01:13.000Z</time>
      </trkpt>
      <trkpt lat="49.37832" lon="1.13154">
        <ele>187</ele>
        <time>2016-05-01T07:01:15.000Z</time>
      </trkpt>
      <trkpt lat="49.37823" lon="1.13145">
        <ele>187</ele>
        <time>2016-05-01T07:01:17.000Z</time>
      </trkpt>
      <trkpt lat="49.37818" lon="1.13137">
        <ele>186</ele>
        <time>2016-05-01T07:01:21.000Z</time>
      </trkpt>
      <trkpt lat="49.37818" lon="1.13137">
        <ele>186</ele>
        <time>2016-05-01T07:01:23.000Z</time>
      </trkpt>
      <trkpt lat="49.37812" lon="1.13131">
        <ele>187</ele>
        <time>2016-05-01T07:01:25.000Z</time>
      </trkpt>
      <trkpt lat="49.378" lon="1.13123">
        <ele>160</ele>
        <time>2016-05-01T07:01:29.000Z</time>
      </trkpt>
      <trkpt lat="49.37792" lon="1.13119">
        <ele>170</ele>
        <time>2016-05-01T07:01:31.000Z</time>
      </trkpt>
      <trkpt lat="49.37784" lon="1.13115">
        <ele>177</ele>
        <time>2016-05-01T07:01:33.000Z</time>
      </trkpt>
      <trkpt lat="49.37778" lon="1.13112">
        <ele>182</ele>
        <time>2016-05-01T07:01:35.000Z</time>
      </trkpt>
      <trkpt lat="49.37771" lon="1.13107">
        <ele>183</ele>
        <time>2016-05-01T07:01:37.000Z</time>
      </trkpt>
      <trkpt lat="49.37771" lon="1.13107">
        <ele>183</ele>
        <time>2016-05-01T07:01:39.000Z</time>
      </trkpt>
      <trkpt lat="49.37759" lon="1.13099">
        <ele>184</ele>
        <time>2016-05-01T07:01:41.000Z</time>
      </trkpt>
      <trkpt lat="49.37753" lon="1.13098">
        <ele>184</ele>
        <time>2016-05-01T07:01:43.000Z</time>
      </trkpt>
      <trkpt lat="49.37746" lon="1.13099">
        <ele>185</ele>
        <time>2016-05-01T07:01:45.000Z</time>
      </trkpt>
      <trkpt lat="49.37736" lon="1.13098">
        <ele>187</ele>
        <time>2016-05-01T07:01:47.000Z</time>
      </trkpt>
      <trkpt lat="49.37726" lon="1.13097">
        <ele>165</ele>
        <time>2016-05-01T07:01:49.000Z</time>
      </trkpt>
      <trkpt lat="49.37717" lon="1.13095">
        <ele>177</ele>
        <time>2016-05-01T07:01:51.000Z</time>
      </trkpt>
      <trkpt lat="49.37709" lon="1.13093">
        <ele>183</ele>
        <time>2016-05-01T07:01:53.000Z</time>
      </trkpt>
      <trkpt lat="49.37701" lon="1.13094">
        <ele>185</ele>
        <time>2016-05-01T07:01:55.000Z</time>
      </trkpt>
      <trkpt lat="49.37693" lon="1.13097">
        <ele>186</ele>
        <time>2016-05-01T07:01:57.000Z</time>
      </trkpt>
      <trkpt lat="49.37684" lon="1.13098">
        <ele>187</ele>
        <time>2016-05-01T07:01:59.000Z</time>
      </trkpt>
      <trkpt lat="49.37684" lon="1.13098">
        <ele>187</ele>
        <time>2016-05-01T07:02:01.000Z</time>
      </trkpt>
      <trkpt lat="49.37673" lon="1.13095">
        <ele>190</ele>
        <time>2016-05-01T07:02:03.000Z</time>
      </trkpt>
      <trkpt lat="49.37665" lon="1.13095">
        <ele>190</ele>
        <time>2016-05-01T07:02:05.000Z</time>
      </trkpt>
      <trkpt lat="49.37657" lon="1.13094">
        <ele>192</ele>
        <time>2016-05-01T07:02:07.000Z</time>
      </trkpt>
      <trkpt lat="49.3765" lon="1.13093">
        <ele>193</ele>
        <time>2016-05-01T07:02:09.000Z</time>
      </trkpt>
      <trkpt lat="49.37644" lon="1.13093">
        <ele>182</ele>
        <time>2016-05-01T07:02:11.000Z</time>
      </trkpt>
      <trkpt lat="49.37637" lon="1.13092">
        <ele>186</ele>
        <time>2016-05-01T07:02:13.000Z</time>
      </trkpt>
      <trkpt lat="49.37628" lon="1.13091">
        <ele>191</ele>
        <time>2016-05-01T07:02:15.000Z</time>
      </trkpt>
      <trkpt lat="49.37598" lon="1.13091">
        <ele>193</ele>
        <time>2016-05-01T07:02:19.000Z</time>
      </trkpt>
      <trkpt lat="49.37587" lon="1.13093">
        <ele>194</ele>
        <time>2016-05-01T07:02:21.000Z</time>
      </trkpt>
      <trkpt lat="49.37566" lon="1.13094">
        <ele>191</ele>
        <time>2016-05-01T07:02:24.000Z</time>
      </trkpt>
      <trkpt lat="49.37551" lon="1.13092">
        <ele>180</ele>
        <time>2016-05-01T07:02:26.000Z</time>
      </trkpt>
      <trkpt lat="49.37542" lon="1.13095">
        <ele>185</ele>
        <time>2016-05-01T07:02:32.000Z</time>
      </trkpt>
      <trkpt lat="49.37549" lon="1.13108">
        <ele>189</ele>
        <time>2016-05-01T07:02:36.000Z</time>
      </trkpt>
      <trkpt lat="49.37554" lon="1.13117">
        <ele>190</ele>
        <time>2016-05-01T07:02:38.000Z</time>
      </trkpt>
      <trkpt lat="49.37554" lon="1.13117">
        <ele>190</ele>
        <time>2016-05-01T07:02:40.000Z</time>
      </trkpt>
      <trkpt lat="49.37558" lon="1.13134">
        <ele>191</ele>
        <time>2016-05-01T07:02:42.000Z</time>
      </trkpt>
      <trkpt lat="49.37563" lon="1.13144">
        <ele>166</ele>
        <time>2016-05-01T07:02:44.000Z</time>
      </trkpt>
      <trkpt lat="49.37568" lon="1.13153">
        <ele>180</ele>
        <time>2016-05-01T07:02:46.000Z</time>
      </trkpt>
      <trkpt lat="49.37574" lon="1.13163">
        <ele>187</ele>
        <time>2016-05-01T07:02:48.000Z</time>
      </trkpt>
      <trkpt lat="49.37579" lon="1.13173">
        <ele>191</ele>
        <time>2016-05-01T07:02:50.000Z</time>
      </trkpt>
      <trkpt lat="49.37583" lon="1.13182">
        <ele>192</ele>
        <time>2016-05-01T07:02:52.000Z</time>
      </trkpt>
      <trkpt lat="49.37585" lon="1.1319">
        <ele>194</ele>
        <time>2016-05-01T07:02:54.000Z</time>
      </trkpt>
      <trkpt lat="49.37589" lon="1.13199">
        <ele>194</ele>
        <time>2016-05-01T07:02:56.000Z</time>
      </trkpt>
      <trkpt lat="49.37594" lon="1.1321">
        <ele>184</ele>
        <time>2016-05-01T07:02:58.000Z</time>
      </trkpt>
      <trkpt lat="49.37598" lon="1.13218">
        <ele>189</ele>
        <time>2016-05-01T07:03:00.000Z</time>
      </trkpt>
      <trkpt lat="49.37604" lon="1.13229">
        <ele>190</ele>
        <time>2016-05-01T07:03:02.000Z</time>
      </trkpt>
      <trkpt lat="49.37609" lon="1.1324">
        <ele>192</ele>
        <time>2016-05-01T07:03:04.000Z</time>
      </trkpt>
      <trkpt lat="49.37612" lon="1.13248">
        <ele>193</ele>
        <time>2016-05-01T07:03:06.000Z</time>
      </trkpt>
      <trkpt lat="49.37616" lon="1.13256">
        <ele>193</ele>
        <time>2016-05-01T07:03:08.000Z</time>
      </trkpt>
      <trkpt lat="49.37623" lon="1.13267">
        <ele>194</ele>
        <time>2016-05-01T07:03:10.000Z</time>
      </trkpt>
      <trkpt lat="49.3763" lon="1.1328">
        <ele>196</ele>
        <time>2016-05-01T07:03:12.000Z</time>
      </trkpt>
      <trkpt lat="49.37637" lon="1.1329">
        <ele>190</ele>
        <time>2016-05-01T07:03:14.000Z</time>
      </trkpt>
      <trkpt lat="49.37643" lon="1.13295">
        <ele>194</ele>
        <time>2016-05-01T07:03:16.000Z</time>
      </trkpt>
      <trkpt lat="49.37647" lon="1.13305">
        <ele>191</ele>
        <time>2016-05-01T07:03:18.000Z</time>
      </trkpt>
      <trkpt lat="49.3765" lon="1.13315">
        <ele>192</ele>
        <time>2016-05-01T07:03:20.000Z</time>
      </trkpt>
      <trkpt lat="49.37654" lon="1.13323">
        <ele>193</ele>
        <time>2016-05-01T07:03:22.000Z</time>
      </trkpt>
      <trkpt lat="49.37663" lon="1.13328">
        <ele>193</ele>
        <time>2016-05-01T07:03:24.000Z</time>
      </trkpt>
      <trkpt lat="49.37671" lon="1.13333">
        <ele>194</ele>
        <time>2016-05-01T07:03:26.000Z</time>
      </trkpt>
      <trkpt lat="49.37679" lon="1.13338">
        <ele>194</ele>
        <time>2016-05-01T07:03:28.000Z</time>
      </trkpt>
      <trkpt lat="49.37688" lon="1.13342">
        <ele>194</ele>
        <time>2016-05-01T07:03:30.000Z</time>
      </trkpt>
      <trkpt lat="49.37698" lon="1.13342">
        <ele>193</ele>
        <time>2016-05-01T07:03:32.000Z</time>
      </trkpt>
      <trkpt lat="49.37708" lon="1.13342">
        <ele>190</ele>
        <time>2016-05-01T07:03:34.000Z</time>
      </trkpt>
      <trkpt lat="49.37718" lon="1.13343">
        <ele>190</ele>
        <time>2016-05-01T07:03:36.000Z</time>
      </trkpt>
      <trkpt lat="49.37725" lon="1.13345">
        <ele>192</ele>
        <time>2016-05-01T07:03:38.000Z</time>
      </trkpt>
      <trkpt lat="49.37733" lon="1.13347">
        <ele>193</ele>
        <time>2016-05-01T07:03:40.000Z</time>
      </trkpt>
      <trkpt lat="49.37742" lon="1.13348">
        <ele>193</ele>
        <time>2016-05-01T07:03:42.000Z</time>
      </trkpt>
      <trkpt lat="49.37752" lon="1.13346">
        <ele>193</ele>
        <time>2016-05-01T07:03:44.000Z</time>
      </trkpt>
      <trkpt lat="49.37761" lon="1.13344">
        <ele>193</ele>
        <time>2016-05-01T07:03:46.000Z</time>
      </trkpt>
      <trkpt lat="49.37771" lon="1.13343">
        <ele>193</ele>
        <time>2016-05-01T07:03:48.000Z</time>
      </trkpt>
      <trkpt lat="49.37777" lon="1.1334">
        <ele>196</ele>
        <time>2016-05-01T07:03:50.000Z</time>
      </trkpt>
      <trkpt lat="49.37786" lon="1.13339">
        <ele>189</ele>
        <time>2016-05-01T07:03:52.000Z</time>
      </trkpt>
      <trkpt lat="49.37795" lon="1.13341">
        <ele>190</ele>
        <time>2016-05-01T07:03:54.000Z</time>
      </trkpt>
      <trkpt lat="49.37803" lon="1.13344">
        <ele>188</ele>
        <time>2016-05-01T07:03:56.000Z</time>
      </trkpt>
      <trkpt lat="49.37814" lon="1.13346">
        <ele>189</ele>
        <time>2016-05-01T07:03:58.000Z</time>
      </trkpt>
      <trkpt lat="49.37823" lon="1.13348">
        <ele>189</ele>
        <time>2016-05-01T07:04:00.000Z</time>
      </trkpt>
      <trkpt lat="49.37831" lon="1.1335">
        <ele>172</ele>
        <time>2016-05-01T07:04:02.000Z</time>
      </trkpt>
      <trkpt lat="49.37839" lon="1.1335">
        <ele>183</ele>
        <time>2016-05-01T07:04:04.000Z</time>
      </trkpt>
      <trkpt lat="49.37846" lon="1.13351">
        <ele>188</ele>
        <time>2016-05-01T07:04:06.000Z</time>
      </trkpt>
      <trkpt lat="49.37853" lon="1.13352">
        <ele>190</ele>
        <time>2016-05-01T07:04:08.000Z</time>
      </trkpt>
      <trkpt lat="49.37853" lon="1.13352">
        <ele>190</ele>
        <time>2016-05-01T07:04:10.000Z</time>
      </trkpt>
      <trkpt lat="49.37864" lon="1.13353">
        <ele>194</ele>
        <time>2016-05-01T07:04:12.000Z</time>
      </trkpt>
      <trkpt lat="49.3787" lon="1.13354">
        <ele>194</ele>
        <time>2016-05-01T07:04:14.000Z</time>
      </trkpt>
      <trkpt lat="49.37876" lon="1.13356">
        <ele>196</ele>
        <time>2016-05-01T07:04:16.000Z</time>
      </trkpt>
      <trkpt lat="49.37882" lon="1.13359">
        <ele>196</ele>
        <time>2016-05-01T07:04:18.000Z</time>
      </trkpt>
      <trkpt lat="49.37888" lon="1.13361">
        <ele>197</ele>
        <time>2016-05-01T07:04:20.000Z</time>
      </trkpt>
      <trkpt lat="49.37888" lon="1.13361">
        <ele>197</ele>
        <time>2016-05-01T07:04:22.000Z</time>
      </trkpt>
      <trkpt lat="49.37898" lon="1.13363">
        <ele>202</ele>
        <time>2016-05-01T07:04:24.000Z</time>
      </trkpt>
      <trkpt lat="49.37904" lon="1.13365">
        <ele>202</ele>
        <time>2016-05-01T07:04:26.000Z</time>
      </trkpt>
      <trkpt lat="49.37904" lon="1.13365">
        <ele>202</ele>
        <time>2016-05-01T07:04:28.000Z</time>
      </trkpt>
      <trkpt lat="49.37914" lon="1.1337">
        <ele>204</ele>
        <time>2016-05-01T07:04:30.000Z</time>
      </trkpt>
      <trkpt lat="49.3792" lon="1.13372">
        <ele>203</ele>
        <time>2016-05-01T07:04:32.000Z</time>
      </trkpt>
      <trkpt lat="49.37928" lon="1.13371">
        <ele>201</ele>
        <time>2016-05-01T07:04:34.000Z</time>
      </trkpt>
      <trkpt lat="49.37934" lon="1.13369">
        <ele>200</ele>
        <time>2016-05-01T07:04:36.000Z</time>
      </trkpt>
      <trkpt lat="49.37934" lon="1.13369">
        <ele>200</ele>
        <time>2016-05-01T07:04:38.000Z</time>
      </trkpt>
      <trkpt lat="49.37946" lon="1.13373">
        <ele>194</ele>
        <time>2016-05-01T07:04:40.000Z</time>
      </trkpt>
      <trkpt lat="49.37952" lon="1.1338">
        <ele>195</ele>
        <time>2016-05-01T07:04:42.000Z</time>
      </trkpt>
      <trkpt lat="49.37958" lon="1.1339">
        <ele>196</ele>
        <time>2016-05-01T07:04:44.000Z</time>
      </trkpt>
      <trkpt lat="49.37964" lon="1.13398">
        <ele>195</ele>
        <time>2016-05-01T07:04:46.000Z</time>
      </trkpt>
      <trkpt lat="49.37967" lon="1.13408">
        <ele>194</ele>
        <time>2016-05-01T07:04:48.000Z</time>
      </trkpt>
      <trkpt lat="49.37962" lon="1.13476">
        <ele>192</ele>
        <time>2016-05-01T07:04:53.000Z</time>
      </trkpt>
      <trkpt lat="49.37954" lon="1.13496">
        <ele>191</ele>
        <time>2016-05-01T07:04:55.000Z</time>
      </trkpt>
      <trkpt lat="49.37959" lon="1.13522">
        <ele>188</ele>
        <time>2016-05-01T07:04:57.000Z</time>
      </trkpt>
      <trkpt lat="49.37968" lon="1.13544">
        <ele>188</ele>
        <time>2016-05-01T07:04:59.000Z</time>
      </trkpt>
      <trkpt lat="49.37977" lon="1.13563">
        <ele>187</ele>
        <time>2016-05-01T07:05:02.000Z</time>
      </trkpt>
      <trkpt lat="49.37973" lon="1.13571">
        <ele>185</ele>
        <time>2016-05-01T07:05:04.000Z</time>
      </trkpt>
      <trkpt lat="49.37974" lon="1.1358">
        <ele>183</ele>
        <time>2016-05-01T07:05:06.000Z</time>
      </trkpt>
      <trkpt lat="49.37972" lon="1.13596">
        <ele>182</ele>
        <time>2016-05-01T07:05:08.000Z</time>
      </trkpt>
      <trkpt lat="49.37987" lon="1.13647">
        <ele>176</ele>
        <time>2016-05-01T07:05:12.000Z</time>
      </trkpt>
      <trkpt lat="49.37976" lon="1.13672">
        <ele>172</ele>
        <time>2016-05-01T07:05:18.000Z</time>
      </trkpt>
      <trkpt lat="49.37955" lon="1.13696">
        <ele>167</ele>
        <time>2016-05-01T07:05:22.000Z</time>
      </trkpt>
      <trkpt lat="49.37942" lon="1.13703">
        <ele>183</ele>
        <time>2016-05-01T07:05:24.000Z</time>
      </trkpt>
      <trkpt lat="49.37933" lon="1.13716">
        <ele>172</ele>
        <time>2016-05-01T07:05:26.000Z</time>
      </trkpt>
      <trkpt lat="49.37923" lon="1.1373">
        <ele>167</ele>
        <time>2016-05-01T07:05:28.000Z</time>
      </trkpt>
      <trkpt lat="49.37915" lon="1.13743">
        <ele>164</ele>
        <time>2016-05-01T07:05:30.000Z</time>
      </trkpt>
      <trkpt lat="49.37906" lon="1.13756">
        <ele>162</ele>
        <time>2016-05-01T07:05:32.000Z</time>
      </trkpt>
      <trkpt lat="49.37901" lon="1.13771">
        <ele>165</ele>
        <time>2016-05-01T07:05:34.000Z</time>
      </trkpt>
      <trkpt lat="49.37896" lon="1.13783">
        <ele>165</ele>
        <time>2016-05-01T07:05:36.000Z</time>
      </trkpt>
      <trkpt lat="49.37891" lon="1.138">
        <ele>162</ele>
        <time>2016-05-01T07:05:38.000Z</time>
      </trkpt>
      <trkpt lat="49.37888" lon="1.13812">
        <ele>159</ele>
        <time>2016-05-01T07:05:40.000Z</time>
      </trkpt>
      <trkpt lat="49.37883" lon="1.1382">
        <ele>153</ele>
        <time>2016-05-01T07:05:42.000Z</time>
      </trkpt>
      <trkpt lat="49.37874" lon="1.13824">
        <ele>149</ele>
        <time>2016-05-01T07:05:44.000Z</time>
      </trkpt>
      <trkpt lat="49.37867" lon="1.13832">
        <ele>144</ele>
        <time>2016-05-01T07:05:46.000Z</time>
      </trkpt>
      <trkpt lat="49.37847" lon="1.1384">
        <ele>144</ele>
        <time>2016-05-01T07:05:49.000Z</time>
      </trkpt>
      <trkpt lat="49.37838" lon="1.13844">
        <ele>142</ele>
        <time>2016-05-01T07:05:51.000Z</time>
      </trkpt>
      <trkpt lat="49.3783" lon="1.13848">
        <ele>140</ele>
        <time>2016-05-01T07:05:53.000Z</time>
      </trkpt>
      <trkpt lat="49.37821" lon="1.13854">
        <ele>135</ele>
        <time>2016-05-01T07:05:55.000Z</time>
      </trkpt>
      <trkpt lat="49.37815" lon="1.13856">
        <ele>136</ele>
        <time>2016-05-01T07:05:57.000Z</time>
      </trkpt>
      <trkpt lat="49.37815" lon="1.13856">
        <ele>136</ele>
        <time>2016-05-01T07:06:00.000Z</time>
      </trkpt>
      <trkpt lat="49.37809" lon="1.13861">
        <ele>138</ele>
        <time>2016-05-01T07:06:02.000Z</time>
      </trkpt>
      <trkpt lat="49.37809" lon="1.13861">
        <ele>138</ele>
        <time>2016-05-01T07:06:04.000Z</time>
      </trkpt>
      <trkpt lat="49.37783" lon="1.1388">
        <ele>120</ele>
        <time>2016-05-01T07:06:08.000Z</time>
      </trkpt>
      <trkpt lat="49.37774" lon="1.13868">
        <ele>118</ele>
        <time>2016-05-01T07:06:10.000Z</time>
      </trkpt>
      <trkpt lat="49.37765" lon="1.13861">
        <ele>117</ele>
        <time>2016-05-01T07:06:12.000Z</time>
      </trkpt>
      <trkpt lat="49.37757" lon="1.13852">
        <ele>116</ele>
        <time>2016-05-01T07:06:14.000Z</time>
      </trkpt>
      <trkpt lat="49.37745" lon="1.13843">
        <ele>114</ele>
        <time>2016-05-01T07:06:16.000Z</time>
      </trkpt>
      <trkpt lat="49.37734" lon="1.13845">
        <ele>113</ele>
        <time>2016-05-01T07:06:18.000Z</time>
      </trkpt>
      <trkpt lat="49.37726" lon="1.13856">
        <ele>112</ele>
        <time>2016-05-01T07:06:20.000Z</time>
      </trkpt>
      <trkpt lat="49.37718" lon="1.13873">
        <ele>112</ele>
        <time>2016-05-01T07:06:22.000Z</time>
      </trkpt>
      <trkpt lat="49.3771" lon="1.13883">
        <ele>110</ele>
        <time>2016-05-01T07:06:25.000Z</time>
      </trkpt>
      <trkpt lat="49.37703" lon="1.13885">
        <ele>109</ele>
        <time>2016-05-01T07:06:27.000Z</time>
      </trkpt>
      <trkpt lat="49.37695" lon="1.13887">
        <ele>108</ele>
        <time>2016-05-01T07:06:29.000Z</time>
      </trkpt>
      <trkpt lat="49.37684" lon="1.13888">
        <ele>106</ele>
        <time>2016-05-01T07:06:31.000Z</time>
      </trkpt>
      <trkpt lat="49.37671" lon="1.13887">
        <ele>105</ele>
        <time>2016-05-01T07:06:33.000Z</time>
      </trkpt>
      <trkpt lat="49.37658" lon="1.13884">
        <ele>103</ele>
        <time>2016-05-01T07:06:35.000Z</time>
      </trkpt>
      <trkpt lat="49.37643" lon="1.13879">
        <ele>102</ele>
        <time>2016-05-01T07:06:37.000Z</time>
      </trkpt>
      <trkpt lat="49.37626" lon="1.13873">
        <ele>100</ele>
        <time>2016-05-01T07:06:39.000Z</time>
      </trkpt>
      <trkpt lat="49.37607" lon="1.13867">
        <ele>98</ele>
        <time>2016-05-01T07:06:41.000Z</time>
      </trkpt>
      <trkpt lat="49.37587" lon="1.13859">
        <ele>96</ele>
        <time>2016-05-01T07:06:43.000Z</time>
      </trkpt>
      <trkpt lat="49.37565" lon="1.13849">
        <ele>94</ele>
        <time>2016-05-01T07:06:45.000Z</time>
      </trkpt>
      <trkpt lat="49.3754" lon="1.13838">
        <ele>92</ele>
        <time>2016-05-01T07:06:48.000Z</time>
      </trkpt>
      <trkpt lat="49.37517" lon="1.1383">
        <ele>91</ele>
        <time>2016-05-01T07:06:50.000Z</time>
      </trkpt>
      <trkpt lat="49.37495" lon="1.1382">
        <ele>88</ele>
        <time>2016-05-01T07:06:52.000Z</time>
      </trkpt>
      <trkpt lat="49.37473" lon="1.13807">
        <ele>87</ele>
        <time>2016-05-01T07:06:54.000Z</time>
      </trkpt>
      <trkpt lat="49.37458" lon="1.13789">
        <ele>87</ele>
        <time>2016-05-01T07:06:56.000Z</time>
      </trkpt>
      <trkpt lat="49.37446" lon="1.13767">
        <ele>85</ele>
        <time>2016-05-01T07:06:59.000Z</time>
      </trkpt>
      <trkpt lat="49.37444" lon="1.13754">
        <ele>84</ele>
        <time>2016-05-01T07:07:03.000Z</time>
      </trkpt>
      <trkpt lat="49.37444" lon="1.13754">
        <ele>84</ele>
        <time>2016-05-01T07:07:05.000Z</time>
      </trkpt>
      <trkpt lat="49.37444" lon="1.13754">
        <ele>84</ele>
        <time>2016-05-01T07:07:07.000Z</time>
      </trkpt>
      <trkpt lat="49.37444" lon="1.13754">
        <ele>84</ele>
        <time>2016-05-01T07:07:09.000Z</time>
      </trkpt>
      <trkpt lat="49.37447" lon="1.13746">
        <ele>84</ele>
        <time>2016-05-01T07:07:13.000Z</time>
      </trkpt>
      <trkpt lat="49.37447" lon="1.13746">
        <ele>84</ele>
        <time>2016-05-01T07:07:15.000Z</time>
      </trkpt>
      <trkpt lat="49.37447" lon="1.13746">
        <ele>84</ele>
        <time>2016-05-01T07:07:17.000Z</time>
      </trkpt>
      <trkpt lat="49.37447" lon="1.13746">
        <ele>84</ele>
        <time>2016-05-01T07:07:19.000Z</time>
      </trkpt>
      <trkpt lat="49.3745" lon="1.13741">
        <ele>91</ele>
        <time>2016-05-01T07:07:31.000Z</time>
      </trkpt>
      <trkpt lat="49.37452" lon="1.13737">
        <ele>91</ele>
        <time>2016-05-01T07:07:33.000Z</time>
      </trkpt>
      <trkpt lat="49.37452" lon="1.13737">
        <ele>91</ele>
        <time>2016-05-01T07:07:35.000Z</time>
      </trkpt>
      <trkpt lat="49.37452" lon="1.13737">
        <ele>91</ele>
        <time>2016-05-01T07:07:37.000Z</time>
      </trkpt>
      <trkpt lat="49.37452" lon="1.13737">
        <ele>91</ele>
        <time>2016-05-01T07:07:39.000Z</time>
      </trkpt>
      <trkpt lat="49.37457" lon="1.13732">
        <ele>98</ele>
        <time>2016-05-01T07:07:43.000Z</time>
      </trkpt>
      <trkpt lat="49.37461" lon="1.13729">
        <ele>101</ele>
        <time>2016-05-01T07:07:49.000Z</time>
      </trkpt>
      <trkpt lat="49.37461" lon="1.13729">
        <ele>101</ele>
        <time>2016-05-01T07:07:51.000Z</time>
      </trkpt>
      <trkpt lat="49.37461" lon="1.13729">
        <ele>101</ele>
        <time>2016-05-01T07:07:53.000Z</time>
      </trkpt>
      <trkpt lat="49.37461" lon="1.13729">
        <ele>101</ele>
        <time>2016-05-01T07:07:55.000Z</time>
      </trkpt>
      <trkpt lat="49.37465" lon="1.13716">
        <ele>98</ele>
        <time>2016-05-01T07:08:05.000Z</time>
      </trkpt>
      <trkpt lat="49.37466" lon="1.13707">
        <ele>99</ele>
        <time>2016-05-01T07:08:07.000Z</time>
      </trkpt>
      <trkpt lat="49.37466" lon="1.137">
        <ele>99</ele>
        <time>2016-05-01T07:08:09.000Z</time>
      </trkpt>
      <trkpt lat="49.37466" lon="1.13694">
        <ele>98</ele>
        <time>2016-05-01T07:08:11.000Z</time>
      </trkpt>
      <trkpt lat="49.37465" lon="1.13689">
        <ele>100</ele>
        <time>2016-05-01T07:08:13.000Z</time>
      </trkpt>
      <trkpt lat="49.37463" lon="1.1368">
        <ele>101</ele>
        <time>2016-05-01T07:08:15.000Z</time>
      </trkpt>
      <trkpt lat="49.37463" lon="1.1368">
        <ele>101</ele>
        <time>2016-05-01T07:08:17.000Z</time>
      </trkpt>
      <trkpt lat="49.37463" lon="1.1368">
        <ele>101</ele>
        <time>2016-05-01T07:08:19.000Z</time>
      </trkpt>
      <trkpt lat="49.37458" lon="1.13671">
        <ele>105</ele>
        <time>2016-05-01T07:08:21.000Z</time>
      </trkpt>
      <trkpt lat="49.37458" lon="1.13671">
        <ele>105</ele>
        <time>2016-05-01T07:08:23.000Z</time>
      </trkpt>
      <trkpt lat="49.37458" lon="1.13671">
        <ele>105</ele>
        <time>2016-05-01T07:08:25.000Z</time>
      </trkpt>
      <trkpt lat="49.37454" lon="1.13661">
        <ele>106</ele>
        <time>2016-05-01T07:08:27.000Z</time>
      </trkpt>
      <trkpt lat="49.37454" lon="1.13661">
        <ele>106</ele>
        <time>2016-05-01T07:08:31.000Z</time>
      </trkpt>
      <trkpt lat="49.3745" lon="1.1365">
        <ele>106</ele>
        <time>2016-05-01T07:08:33.000Z</time>
      </trkpt>
      <trkpt lat="49.37446" lon="1.13641">
        <ele>109</ele>
        <time>2016-05-01T07:08:37.000Z</time>
      </trkpt>
      <trkpt lat="49.37446" lon="1.13641">
        <ele>109</ele>
        <time>2016-05-01T07:08:39.000Z</time>
      </trkpt>
      <trkpt lat="49.37443" lon="1.13632">
        <ele>110</ele>
        <time>2016-05-01T07:08:41.000Z</time>
      </trkpt>
      <trkpt lat="49.37443" lon="1.13632">
        <ele>110</ele>
        <time>2016-05-01T07:08:43.000Z</time>
      </trkpt>
      <trkpt lat="49.3744" lon="1.13623">
        <ele>111</ele>
        <time>2016-05-01T07:08:45.000Z</time>
      </trkpt>
      <trkpt lat="49.3744" lon="1.13623">
        <ele>111</ele>
        <time>2016-05-01T07:08:47.000Z</time>
      </trkpt>
      <trkpt lat="49.37438" lon="1.13614">
        <ele>113</ele>
        <time>2016-05-01T07:08:49.000Z</time>
      </trkpt>
      <trkpt lat="49.37438" lon="1.13614">
        <ele>113</ele>
        <time>2016-05-01T07:08:51.000Z</time>
      </trkpt>
      <trkpt lat="49.37435" lon="1.13605">
        <ele>114</ele>
        <time>2016-05-01T07:08:53.000Z</time>
      </trkpt>
      <trkpt lat="49.37432" lon="1.13596">
        <ele>114</ele>
        <time>2016-05-01T07:08:57.000Z</time>
      </trkpt>
      <trkpt lat="49.37431" lon="1.13587">
        <ele>115</ele>
        <time>2016-05-01T07:09:01.000Z</time>
      </trkpt>
      <trkpt lat="49.37431" lon="1.13587">
        <ele>115</ele>
        <time>2016-05-01T07:09:03.000Z</time>
      </trkpt>
      <trkpt lat="49.37431" lon="1.13587">
        <ele>115</ele>
        <time>2016-05-01T07:09:05.000Z</time>
      </trkpt>
      <trkpt lat="49.37428" lon="1.13574">
        <ele>115</ele>
        <time>2016-05-01T07:09:07.000Z</time>
      </trkpt>
      <trkpt lat="49.37426" lon="1.13564">
        <ele>117</ele>
        <time>2016-05-01T07:09:11.000Z</time>
      </trkpt>
      <trkpt lat="49.37426" lon="1.13564">
        <ele>117</ele>
        <time>2016-05-01T07:09:13.000Z</time>
      </trkpt>
      <trkpt lat="49.37424" lon="1.13555">
        <ele>118</ele>
        <time>2016-05-01T07:09:15.000Z</time>
      </trkpt>
      <trkpt lat="49.37424" lon="1.13555">
        <ele>118</ele>
        <time>2016-05-01T07:09:17.000Z</time>
      </trkpt>
      <trkpt lat="49.37424" lon="1.13555">
        <ele>118</ele>
        <time>2016-05-01T07:09:19.000Z</time>
      </trkpt>
      <trkpt lat="49.37421" lon="1.13543">
        <ele>120</ele>
        <time>2016-05-01T07:09:21.000Z</time>
      </trkpt>
      <trkpt lat="49.37419" lon="1.13534">
        <ele>121</ele>
        <time>2016-05-01T07:09:25.000Z</time>
      </trkpt>
      <trkpt lat="49.37419" lon="1.13534">
        <ele>121</ele>
        <time>2016-05-01T07:09:27.000Z</time>
      </trkpt>
      <trkpt lat="49.37419" lon="1.13534">
        <ele>121</ele>
        <time>2016-05-01T07:09:29.000Z</time>
      </trkpt>
      <trkpt lat="49.37416" lon="1.13522">
        <ele>123</ele>
        <time>2016-05-01T07:09:31.000Z</time>
      </trkpt>
      <trkpt lat="49.37416" lon="1.13522">
        <ele>123</ele>
        <time>2016-05-01T07:09:33.000Z</time>
      </trkpt>
      <trkpt lat="49.37416" lon="1.13522">
        <ele>123</ele>
        <time>2016-05-01T07:09:35.000Z</time>
      </trkpt>
      <trkpt lat="49.37413" lon="1.1351">
        <ele>126</ele>
        <time>2016-05-01T07:09:37.000Z</time>
      </trkpt>
      <trkpt lat="49.37413" lon="1.1351">
        <ele>126</ele>
        <time>2016-05-01T07:09:39.000Z</time>
      </trkpt>
      <trkpt lat="49.37413" lon="1.1351">
        <ele>126</ele>
        <time>2016-05-01T07:09:41.000Z</time>
      </trkpt>
      <trkpt lat="49.37412" lon="1.13499">
        <ele>128</ele>
        <time>2016-05-01T07:09:43.000Z</time>
      </trkpt>
      <trkpt lat="49.37412" lon="1.13499">
        <ele>128</ele>
        <time>2016-05-01T07:09:45.000Z</time>
      </trkpt>
      <trkpt lat="49.37412" lon="1.13499">
        <ele>128</ele>
        <time>2016-05-01T07:09:47.000Z</time>
      </trkpt>
      <trkpt lat="49.37413" lon="1.1349">
        <ele>130</ele>
        <time>2016-05-01T07:09:49.000Z</time>
      </trkpt>
      <trkpt lat="49.37413" lon="1.1349">
        <ele>130</ele>
        <time>2016-05-01T07:09:51.000Z</time>
      </trkpt>
      <trkpt lat="49.37413" lon="1.1349">
        <ele>130</ele>
        <time>2016-05-01T07:09:53.000Z</time>
      </trkpt>
      <trkpt lat="49.37413" lon="1.13484">
        <ele>133</ele>
        <time>2016-05-01T07:09:55.000Z</time>
      </trkpt>
      <trkpt lat="49.37414" lon="1.13479">
        <ele>134</ele>
        <time>2016-05-01T07:09:57.000Z</time>
      </trkpt>
      <trkpt lat="49.37414" lon="1.13479">
        <ele>134</ele>
        <time>2016-05-01T07:09:59.000Z</time>
      </trkpt>
      <trkpt lat="49.37415" lon="1.13473">
        <ele>136</ele>
        <time>2016-05-01T07:10:01.000Z</time>
      </trkpt>
      <trkpt lat="49.37415" lon="1.13469">
        <ele>136</ele>
        <time>2016-05-01T07:10:03.000Z</time>
      </trkpt>
      <trkpt lat="49.37415" lon="1.13464">
        <ele>136</ele>
        <time>2016-05-01T07:10:05.000Z</time>
      </trkpt>
      <trkpt lat="49.37415" lon="1.13464">
        <ele>136</ele>
        <time>2016-05-01T07:10:07.000Z</time>
      </trkpt>
      <trkpt lat="49.37414" lon="1.13459">
        <ele>139</ele>
        <time>2016-05-01T07:10:09.000Z</time>
      </trkpt>
      <trkpt lat="49.37414" lon="1.13459">
        <ele>139</ele>
        <time>2016-05-01T07:10:11.000Z</time>
      </trkpt>
      <trkpt lat="49.37413" lon="1.13455">
        <ele>142</ele>
        <time>2016-05-01T07:10:13.000Z</time>
      </trkpt>
      <trkpt lat="49.37411" lon="1.13449">
        <ele>141</ele>
        <time>2016-05-01T07:10:17.000Z</time>
      </trkpt>
      <trkpt lat="49.37409" lon="1.13444">
        <ele>141</ele>
        <time>2016-05-01T07:10:19.000Z</time>
      </trkpt>
      <trkpt lat="49.37408" lon="1.13439">
        <ele>141</ele>
        <time>2016-05-01T07:10:21.000Z</time>
      </trkpt>
      <trkpt lat="49.37407" lon="1.13434">
        <ele>140</ele>
        <time>2016-05-01T07:10:23.000Z</time>
      </trkpt>
      <trkpt lat="49.37405" lon="1.1343">
        <ele>140</ele>
        <time>2016-05-01T07:10:25.000Z</time>
      </trkpt>
      <trkpt lat="49.37405" lon="1.1343">
        <ele>140</ele>
        <time>2016-05-01T07:10:27.000Z</time>
      </trkpt>
      <trkpt lat="49.37405" lon="1.1343">
        <ele>140</ele>
        <time>2016-05-01T07:10:29.000Z</time>
      </trkpt>
      <trkpt lat="49.37399" lon="1.13406">
        <ele>139</ele>
        <time>2016-05-01T07:12:19.000Z</time>
      </trkpt>
      <trkpt lat="49.37399" lon="1.13406">
        <ele>139</ele>
        <time>2016-05-01T07:12:21.000Z</time>
      </trkpt>
      <trkpt lat="49.37396" lon="1.13399">
        <ele>138</ele>
        <time>2016-05-01T07:12:23.000Z</time>
      </trkpt>
      <trkpt lat="49.37389" lon="1.13387">
        <ele>137</ele>
        <time>2016-05-01T07:12:27.000Z</time>
      </trkpt>
      <trkpt lat="49.37386" lon="1.13376">
        <ele>136</ele>
        <time>2016-05-01T07:12:29.000Z</time>
      </trkpt>
      <trkpt lat="49.37383" lon="1.13364">
        <ele>135</ele>
        <time>2016-05-01T07:12:31.000Z</time>
      </trkpt>
      <trkpt lat="49.37381" lon="1.13352">
        <ele>135</ele>
        <time>2016-05-01T07:12:33.000Z</time>
      </trkpt>
      <trkpt lat="49.37379" lon="1.13343">
        <ele>137</ele>
        <time>2016-05-01T07:12:35.000Z</time>
      </trkpt>
      <trkpt lat="49.37377" lon="1.13334">
        <ele>137</ele>
        <time>2016-05-01T07:12:37.000Z</time>
      </trkpt>
      <trkpt lat="49.37375" lon="1.13323">
        <ele>138</ele>
        <time>2016-05-01T07:12:39.000Z</time>
      </trkpt>
      <trkpt lat="49.37373" lon="1.13313">
        <ele>137</ele>
        <time>2016-05-01T07:12:41.000Z</time>
      </trkpt>
      <trkpt lat="49.37371" lon="1.13302">
        <ele>137</ele>
        <time>2016-05-01T07:12:43.000Z</time>
      </trkpt>
      <trkpt lat="49.37369" lon="1.13292">
        <ele>138</ele>
        <time>2016-05-01T07:12:45.000Z</time>
      </trkpt>
      <trkpt lat="49.37366" lon="1.13281">
        <ele>139</ele>
        <time>2016-05-01T07:12:47.000Z</time>
      </trkpt>
      <trkpt lat="49.37364" lon="1.13272">
        <ele>141</ele>
        <time>2016-05-01T07:12:49.000Z</time>
      </trkpt>
      <trkpt lat="49.37364" lon="1.13272">
        <ele>141</ele>
        <time>2016-05-01T07:12:51.000Z</time>
      </trkpt>
      <trkpt lat="49.37358" lon="1.13258">
        <ele>142</ele>
        <time>2016-05-01T07:12:53.000Z</time>
      </trkpt>
      <trkpt lat="49.37356" lon="1.13249">
        <ele>145</ele>
        <time>2016-05-01T07:12:55.000Z</time>
      </trkpt>
      <trkpt lat="49.37354" lon="1.1324">
        <ele>143</ele>
        <time>2016-05-01T07:12:57.000Z</time>
      </trkpt>
      <trkpt lat="49.37352" lon="1.13227">
        <ele>144</ele>
        <time>2016-05-01T07:12:59.000Z</time>
      </trkpt>
      <trkpt lat="49.37351" lon="1.13214">
        <ele>144</ele>
        <time>2016-05-01T07:13:01.000Z</time>
      </trkpt>
      <trkpt lat="49.37349" lon="1.13201">
        <ele>145</ele>
        <time>2016-05-01T07:13:03.000Z</time>
      </trkpt>
      <trkpt lat="49.37348" lon="1.13189">
        <ele>143</ele>
        <time>2016-05-01T07:13:05.000Z</time>
      </trkpt>
      <trkpt lat="49.37346" lon="1.13177">
        <ele>143</ele>
        <time>2016-05-01T07:13:07.000Z</time>
      </trkpt>
      <trkpt lat="49.37345" lon="1.13165">
        <ele>143</ele>
        <time>2016-05-01T07:13:09.000Z</time>
      </trkpt>
      <trkpt lat="49.37345" lon="1.13154">
        <ele>143</ele>
        <time>2016-05-01T07:13:11.000Z</time>
      </trkpt>
      <trkpt lat="49.37344" lon="1.13144">
        <ele>142</ele>
        <time>2016-05-01T07:13:13.000Z</time>
      </trkpt>
      <trkpt lat="49.37344" lon="1.13144">
        <ele>142</ele>
        <time>2016-05-01T07:13:15.000Z</time>
      </trkpt>
      <trkpt lat="49.37344" lon="1.13128">
        <ele>144</ele>
        <time>2016-05-01T07:13:17.000Z</time>
      </trkpt>
      <trkpt lat="49.37344" lon="1.13128">
        <ele>144</ele>
        <time>2016-05-01T07:13:19.000Z</time>
      </trkpt>
      <trkpt lat="49.37345" lon="1.13116">
        <ele>145</ele>
        <time>2016-05-01T07:13:21.000Z</time>
      </trkpt>
      <trkpt lat="49.37345" lon="1.13116">
        <ele>145</ele>
        <time>2016-05-01T07:13:23.000Z</time>
      </trkpt>
      <trkpt lat="49.37346" lon="1.13104">
        <ele>148</ele>
        <time>2016-05-01T07:13:25.000Z</time>
      </trkpt>
      <trkpt lat="49.37347" lon="1.13094">
        <ele>151</ele>
        <time>2016-05-01T07:13:29.000Z</time>
      </trkpt>
      <trkpt lat="49.37347" lon="1.13094">
        <ele>151</ele>
        <time>2016-05-01T07:13:31.000Z</time>
      </trkpt>
      <trkpt lat="49.37349" lon="1.13083">
        <ele>153</ele>
        <time>2016-05-01T07:13:33.000Z</time>
      </trkpt>
      <trkpt lat="49.3735" lon="1.1307">
        <ele>152</ele>
        <time>2016-05-01T07:13:37.000Z</time>
      </trkpt>
      <trkpt lat="49.37346" lon="1.13057">
        <ele>152</ele>
        <time>2016-05-01T07:13:41.000Z</time>
      </trkpt>
      <trkpt lat="49.37341" lon="1.13046">
        <ele>152</ele>
        <time>2016-05-01T07:13:45.000Z</time>
      </trkpt>
      <trkpt lat="49.37336" lon="1.13033">
        <ele>154</ele>
        <time>2016-05-01T07:13:49.000Z</time>
      </trkpt>
      <trkpt lat="49.37336" lon="1.13033">
        <ele>154</ele>
        <time>2016-05-01T07:13:51.000Z</time>
      </trkpt>
      <trkpt lat="49.37333" lon="1.13021">
        <ele>155</ele>
        <time>2016-05-01T07:13:53.000Z</time>
      </trkpt>
      <trkpt lat="49.37333" lon="1.13021">
        <ele>155</ele>
        <time>2016-05-01T07:13:55.000Z</time>
      </trkpt>
      <trkpt lat="49.37331" lon="1.1301">
        <ele>156</ele>
        <time>2016-05-01T07:13:57.000Z</time>
      </trkpt>
      <trkpt lat="49.37331" lon="1.1301">
        <ele>156</ele>
        <time>2016-05-01T07:13:59.000Z</time>
      </trkpt>
      <trkpt lat="49.37331" lon="1.13">
        <ele>156</ele>
        <time>2016-05-01T07:14:01.000Z</time>
      </trkpt>
      <trkpt lat="49.37331" lon="1.13">
        <ele>156</ele>
        <time>2016-05-01T07:14:03.000Z</time>
      </trkpt>
      <trkpt lat="49.37331" lon="1.13">
        <ele>156</ele>
        <time>2016-05-01T07:14:05.000Z</time>
      </trkpt>
      <trkpt lat="49.37333" lon="1.12989">
        <ele>159</ele>
        <time>2016-05-01T07:14:07.000Z</time>
      </trkpt>
      <trkpt lat="49.37333" lon="1.12989">
        <ele>159</ele>
        <time>2016-05-01T07:14:09.000Z</time>
      </trkpt>
      <trkpt lat="49.37333" lon="1.12989">
        <ele>159</ele>
        <time>2016-05-01T07:14:12.000Z</time>
      </trkpt>
      <trkpt lat="49.3734" lon="1.12981">
        <ele>164</ele>
        <time>2016-05-01T07:14:14.000Z</time>
      </trkpt>
      <trkpt lat="49.37335" lon="1.12974">
        <ele>165</ele>
        <time>2016-05-01T07:14:18.000Z</time>
      </trkpt>
      <trkpt lat="49.37328" lon="1.12968">
        <ele>164</ele>
        <time>2016-05-01T07:14:20.000Z</time>
      </trkpt>
      <trkpt lat="49.37322" lon="1.12954">
        <ele>163</ele>
        <time>2016-05-01T07:14:22.000Z</time>
      </trkpt>
      <trkpt lat="49.37319" lon="1.12945">
        <ele>160</ele>
        <time>2016-05-01T07:14:24.000Z</time>
      </trkpt>
      <trkpt lat="49.37319" lon="1.12945">
        <ele>160</ele>
        <time>2016-05-01T07:14:26.000Z</time>
      </trkpt>
      <trkpt lat="49.37315" lon="1.12936">
        <ele>158</ele>
        <time>2016-05-01T07:14:28.000Z</time>
      </trkpt>
      <trkpt lat="49.37315" lon="1.12936">
        <ele>158</ele>
        <time>2016-05-01T07:14:30.000Z</time>
      </trkpt>
      <trkpt lat="49.37303" lon="1.12936">
        <ele>157</ele>
        <time>2016-05-01T07:15:01.000Z</time>
      </trkpt>
      <trkpt lat="49.37298" lon="1.12933">
        <ele>156</ele>
        <time>2016-05-01T07:15:03.000Z</time>
      </trkpt>
      <trkpt lat="49.37298" lon="1.12933">
        <ele>156</ele>
        <time>2016-05-01T07:15:05.000Z</time>
      </trkpt>
      <trkpt lat="49.37293" lon="1.12925">
        <ele>154</ele>
        <time>2016-05-01T07:15:07.000Z</time>
      </trkpt>
      <trkpt lat="49.37293" lon="1.12925">
        <ele>154</ele>
        <time>2016-05-01T07:15:09.000Z</time>
      </trkpt>
      <trkpt lat="49.37293" lon="1.12925">
        <ele>154</ele>
        <time>2016-05-01T07:15:11.000Z</time>
      </trkpt>
      <trkpt lat="49.37277" lon="1.12923">
        <ele>151</ele>
        <time>2016-05-01T07:17:14.000Z</time>
      </trkpt>
      <trkpt lat="49.37249" lon="1.12908">
        <ele>150</ele>
        <time>2016-05-01T07:17:19.000Z</time>
      </trkpt>
      <trkpt lat="49.37239" lon="1.12901">
        <ele>150</ele>
        <time>2016-05-01T07:17:21.000Z</time>
      </trkpt>
      <trkpt lat="49.37228" lon="1.12891">
        <ele>150</ele>
        <time>2016-05-01T07:17:23.000Z</time>
      </trkpt>
      <trkpt lat="49.37217" lon="1.1288">
        <ele>150</ele>
        <time>2016-05-01T07:17:25.000Z</time>
      </trkpt>
      <trkpt lat="49.37206" lon="1.12868">
        <ele>151</ele>
        <time>2016-05-01T07:17:27.000Z</time>
      </trkpt>
      <trkpt lat="49.37196" lon="1.12858">
        <ele>152</ele>
        <time>2016-05-01T07:17:29.000Z</time>
      </trkpt>
      <trkpt lat="49.37189" lon="1.12852">
        <ele>152</ele>
        <time>2016-05-01T07:17:31.000Z</time>
      </trkpt>
      <trkpt lat="49.37189" lon="1.12852">
        <ele>152</ele>
        <time>2016-05-01T07:17:33.000Z</time>
      </trkpt>
      <trkpt lat="49.37187" lon="1.12843">
        <ele>153</ele>
        <time>2016-05-01T07:17:35.000Z</time>
      </trkpt>
      <trkpt lat="49.37187" lon="1.12843">
        <ele>153</ele>
        <time>2016-05-01T07:17:37.000Z</time>
      </trkpt>
      <trkpt lat="49.37187" lon="1.12843">
        <ele>153</ele>
        <time>2016-05-01T07:17:39.000Z</time>
      </trkpt>
      <trkpt lat="49.37177" lon="1.12851">
        <ele>149</ele>
        <time>2016-05-01T07:17:53.000Z</time>
      </trkpt>
      <trkpt lat="49.37165" lon="1.12849">
        <ele>148</ele>
        <time>2016-05-01T07:17:56.000Z</time>
      </trkpt>
      <trkpt lat="49.37153" lon="1.12846">
        <ele>147</ele>
        <time>2016-05-01T07:17:58.000Z</time>
      </trkpt>
      <trkpt lat="49.37141" lon="1.1284">
        <ele>145</ele>
        <time>2016-05-01T07:18:00.000Z</time>
      </trkpt>
      <trkpt lat="49.37131" lon="1.12837">
        <ele>144</ele>
        <time>2016-05-01T07:18:02.000Z</time>
      </trkpt>
      <trkpt lat="49.37124" lon="1.12841">
        <ele>143</ele>
        <time>2016-05-01T07:18:04.000Z</time>
      </trkpt>
      <trkpt lat="49.37118" lon="1.12846">
        <ele>140</ele>
        <time>2016-05-01T07:18:06.000Z</time>
      </trkpt>
      <trkpt lat="49.37111" lon="1.1285">
        <ele>138</ele>
        <time>2016-05-01T07:18:08.000Z</time>
      </trkpt>
      <trkpt lat="49.37105" lon="1.12853">
        <ele>136</ele>
        <time>2016-05-01T07:18:10.000Z</time>
      </trkpt>
      <trkpt lat="49.37105" lon="1.12853">
        <ele>136</ele>
        <time>2016-05-01T07:18:12.000Z</time>
      </trkpt>
      <trkpt lat="49.37102" lon="1.12863">
        <ele>134</ele>
        <time>2016-05-01T07:18:14.000Z</time>
      </trkpt>
      <trkpt lat="49.37106" lon="1.12871">
        <ele>134</ele>
        <time>2016-05-01T07:18:16.000Z</time>
      </trkpt>
      <trkpt lat="49.37112" lon="1.12878">
        <ele>134</ele>
        <time>2016-05-01T07:18:18.000Z</time>
      </trkpt>
      <trkpt lat="49.37123" lon="1.12884">
        <ele>134</ele>
        <time>2016-05-01T07:18:20.000Z</time>
      </trkpt>
      <trkpt lat="49.3713" lon="1.12891">
        <ele>134</ele>
        <time>2016-05-01T07:18:22.000Z</time>
      </trkpt>
      <trkpt lat="49.37138" lon="1.12898">
        <ele>134</ele>
        <time>2016-05-01T07:18:24.000Z</time>
      </trkpt>
      <trkpt lat="49.37146" lon="1.12905">
        <ele>133</ele>
        <time>2016-05-01T07:18:26.000Z</time>
      </trkpt>
      <trkpt lat="49.37154" lon="1.12912">
        <ele>133</ele>
        <time>2016-05-01T07:18:28.000Z</time>
      </trkpt>
      <trkpt lat="49.37162" lon="1.12919">
        <ele>133</ele>
        <time>2016-05-01T07:18:30.000Z</time>
      </trkpt>
      <trkpt lat="49.3717" lon="1.12925">
        <ele>132</ele>
        <time>2016-05-01T07:18:32.000Z</time>
      </trkpt>
      <trkpt lat="49.37178" lon="1.12933">
        <ele>132</ele>
        <time>2016-05-01T07:18:34.000Z</time>
      </trkpt>
      <trkpt lat="49.37186" lon="1.1294">
        <ele>132</ele>
        <time>2016-05-01T07:18:36.000Z</time>
      </trkpt>
      <trkpt lat="49.37195" lon="1.12946">
        <ele>132</ele>
        <time>2016-05-01T07:18:38.000Z</time>
      </trkpt>
      <trkpt lat="49.37203" lon="1.1295">
        <ele>133</ele>
        <time>2016-05-01T07:18:40.000Z</time>
      </trkpt>
      <trkpt lat="49.37209" lon="1.12954">
        <ele>133</ele>
        <time>2016-05-01T07:18:42.000Z</time>
      </trkpt>
      <trkpt lat="49.37209" lon="1.12954">
        <ele>133</ele>
        <time>2016-05-01T07:18:44.000Z</time>
      </trkpt>
      <trkpt lat="49.37218" lon="1.12959">
        <ele>134</ele>
        <time>2016-05-01T07:18:46.000Z</time>
      </trkpt>
      <trkpt lat="49.37218" lon="1.12959">
        <ele>134</ele>
        <time>2016-05-01T07:18:48.000Z</time>
      </trkpt>
      <trkpt lat="49.37218" lon="1.12959">
        <ele>134</ele>
        <time>2016-05-01T07:18:50.000Z</time>
      </trkpt>
      <trkpt lat="49.37212" lon="1.12964">
        <ele>132</ele>
        <time>2016-05-01T07:19:00.000Z</time>
      </trkpt>
      <trkpt lat="49.37184" lon="1.1296">
        <ele>128</ele>
        <time>2016-05-01T07:19:04.000Z</time>
      </trkpt>
      <trkpt lat="49.3717" lon="1.12954">
        <ele>126</ele>
        <time>2016-05-01T07:19:06.000Z</time>
      </trkpt>
      <trkpt lat="49.37156" lon="1.1295">
        <ele>124</ele>
        <time>2016-05-01T07:19:08.000Z</time>
      </trkpt>
      <trkpt lat="49.37143" lon="1.12946">
        <ele>121</ele>
        <time>2016-05-01T07:19:10.000Z</time>
      </trkpt>
      <trkpt lat="49.37132" lon="1.12946">
        <ele>119</ele>
        <time>2016-05-01T07:19:12.000Z</time>
      </trkpt>
      <trkpt lat="49.37123" lon="1.12948">
        <ele>116</ele>
        <time>2016-05-01T07:19:14.000Z</time>
      </trkpt>
      <trkpt lat="49.37115" lon="1.12949">
        <ele>114</ele>
        <time>2016-05-01T07:19:16.000Z</time>
      </trkpt>
      <trkpt lat="49.37107" lon="1.1295">
        <ele>112</ele>
        <time>2016-05-01T07:19:18.000Z</time>
      </trkpt>
      <trkpt lat="49.37107" lon="1.1295">
        <ele>112</ele>
        <time>2016-05-01T07:19:20.000Z</time>
      </trkpt>
      <trkpt lat="49.371" lon="1.12952">
        <ele>110</ele>
        <time>2016-05-01T07:19:22.000Z</time>
      </trkpt>
      <trkpt lat="49.37091" lon="1.12953">
        <ele>108</ele>
        <time>2016-05-01T07:19:26.000Z</time>
      </trkpt>
      <trkpt lat="49.37091" lon="1.12953">
        <ele>108</ele>
        <time>2016-05-01T07:19:28.000Z</time>
      </trkpt>
      <trkpt lat="49.37091" lon="1.12953">
        <ele>108</ele>
        <time>2016-05-01T07:19:30.000Z</time>
      </trkpt>
      <trkpt lat="49.37083" lon="1.12954">
        <ele>106</ele>
        <time>2016-05-01T07:19:32.000Z</time>
      </trkpt>
      <trkpt lat="49.37072" lon="1.12956">
        <ele>102</ele>
        <time>2016-05-01T07:19:36.000Z</time>
      </trkpt>
      <trkpt lat="49.37064" lon="1.12958">
        <ele>101</ele>
        <time>2016-05-01T07:19:38.000Z</time>
      </trkpt>
      <trkpt lat="49.37058" lon="1.12958">
        <ele>100</ele>
        <time>2016-05-01T07:19:40.000Z</time>
      </trkpt>
      <trkpt lat="49.37058" lon="1.12958">
        <ele>100</ele>
        <time>2016-05-01T07:19:42.000Z</time>
      </trkpt>
      <trkpt lat="49.37052" lon="1.12959">
        <ele>99</ele>
        <time>2016-05-01T07:19:44.000Z</time>
      </trkpt>
      <trkpt lat="49.37052" lon="1.12959">
        <ele>99</ele>
        <time>2016-05-01T07:19:46.000Z</time>
      </trkpt>
      <trkpt lat="49.37052" lon="1.12959">
        <ele>99</ele>
        <time>2016-05-01T07:19:48.000Z</time>
      </trkpt>
      <trkpt lat="49.37038" lon="1.12958">
        <ele>95</ele>
        <time>2016-05-01T07:19:58.000Z</time>
      </trkpt>
      <trkpt lat="49.37032" lon="1.12959">
        <ele>93</ele>
        <time>2016-05-01T07:20:00.000Z</time>
      </trkpt>
      <trkpt lat="49.37025" lon="1.12959">
        <ele>91</ele>
        <time>2016-05-01T07:20:02.000Z</time>
      </trkpt>
      <trkpt lat="49.37019" lon="1.12959">
        <ele>90</ele>
        <time>2016-05-01T07:20:04.000Z</time>
      </trkpt>
      <trkpt lat="49.37013" lon="1.12959">
        <ele>88</ele>
        <time>2016-05-01T07:20:06.000Z</time>
      </trkpt>
      <trkpt lat="49.37006" lon="1.12958">
        <ele>86</ele>
        <time>2016-05-01T07:20:08.000Z</time>
      </trkpt>
      <trkpt lat="49.36998" lon="1.12955">
        <ele>85</ele>
        <time>2016-05-01T07:20:10.000Z</time>
      </trkpt>
      <trkpt lat="49.36998" lon="1.12955">
        <ele>85</ele>
        <time>2016-05-01T07:20:12.000Z</time>
      </trkpt>
      <trkpt lat="49.36988" lon="1.1295">
        <ele>83</ele>
        <time>2016-05-01T07:20:14.000Z</time>
      </trkpt>
      <trkpt lat="49.36981" lon="1.12948">
        <ele>81</ele>
        <time>2016-05-01T07:20:16.000Z</time>
      </trkpt>
      <trkpt lat="49.36974" lon="1.12945">
        <ele>79</ele>
        <time>2016-05-01T07:20:18.000Z</time>
      </trkpt>
      <trkpt lat="49.36967" lon="1.12942">
        <ele>76</ele>
        <time>2016-05-01T07:20:20.000Z</time>
      </trkpt>
      <trkpt lat="49.36962" lon="1.1294">
        <ele>75</ele>
        <time>2016-05-01T07:20:22.000Z</time>
      </trkpt>
      <trkpt lat="49.36962" lon="1.1294">
        <ele>75</ele>
        <time>2016-05-01T07:20:24.000Z</time>
      </trkpt>
      <trkpt lat="49.36953" lon="1.12934">
        <ele>72</ele>
        <time>2016-05-01T07:20:26.000Z</time>
      </trkpt>
      <trkpt lat="49.36953" lon="1.12934">
        <ele>72</ele>
        <time>2016-05-01T07:20:28.000Z</time>
      </trkpt>
      <trkpt lat="49.36953" lon="1.12934">
        <ele>72</ele>
        <time>2016-05-01T07:20:30.000Z</time>
      </trkpt>
      <trkpt lat="49.36953" lon="1.12934">
        <ele>72</ele>
        <time>2016-05-01T07:20:32.000Z</time>
      </trkpt>
      <trkpt lat="49.36933" lon="1.12906">
        <ele>65</ele>
        <time>2016-05-01T07:20:46.000Z</time>
      </trkpt>
      <trkpt lat="49.36917" lon="1.12885">
        <ele>62</ele>
        <time>2016-05-01T07:20:50.000Z</time>
      </trkpt>
      <trkpt lat="49.36911" lon="1.12877">
        <ele>62</ele>
        <time>2016-05-01T07:20:52.000Z</time>
      </trkpt>
      <trkpt lat="49.36911" lon="1.12877">
        <ele>62</ele>
        <time>2016-05-01T07:20:54.000Z</time>
      </trkpt>
      <trkpt lat="49.36903" lon="1.12872">
        <ele>60</ele>
        <time>2016-05-01T07:20:56.000Z</time>
      </trkpt>
      <trkpt lat="49.36897" lon="1.12879">
        <ele>61</ele>
        <time>2016-05-01T07:20:58.000Z</time>
      </trkpt>
      <trkpt lat="49.36893" lon="1.12885">
        <ele>60</ele>
        <time>2016-05-01T07:21:00.000Z</time>
      </trkpt>
      <trkpt lat="49.36888" lon="1.12891">
        <ele>60</ele>
        <time>2016-05-01T07:21:02.000Z</time>
      </trkpt>
      <trkpt lat="49.36883" lon="1.12896">
        <ele>61</ele>
        <time>2016-05-01T07:21:04.000Z</time>
      </trkpt>
      <trkpt lat="49.36877" lon="1.12902">
        <ele>61</ele>
        <time>2016-05-01T07:21:06.000Z</time>
      </trkpt>
      <trkpt lat="49.36871" lon="1.12908">
        <ele>60</ele>
        <time>2016-05-01T07:21:08.000Z</time>
      </trkpt>
      <trkpt lat="49.36871" lon="1.12908">
        <ele>60</ele>
        <time>2016-05-01T07:21:10.000Z</time>
      </trkpt>
      <trkpt lat="49.36865" lon="1.12919">
        <ele>61</ele>
        <time>2016-05-01T07:21:12.000Z</time>
      </trkpt>
      <trkpt lat="49.36865" lon="1.12919">
        <ele>61</ele>
        <time>2016-05-01T07:21:14.000Z</time>
      </trkpt>
      <trkpt lat="49.36869" lon="1.12932">
        <ele>61</ele>
        <time>2016-05-01T07:21:16.000Z</time>
      </trkpt>
      <trkpt lat="49.36869" lon="1.12932">
        <ele>61</ele>
        <time>2016-05-01T07:21:18.000Z</time>
      </trkpt>
      <trkpt lat="49.36871" lon="1.12942">
        <ele>61</ele>
        <time>2016-05-01T07:21:20.000Z</time>
      </trkpt>
      <trkpt lat="49.36871" lon="1.12942">
        <ele>61</ele>
        <time>2016-05-01T07:21:22.000Z</time>
      </trkpt>
      <trkpt lat="49.36871" lon="1.12955">
        <ele>60</ele>
        <time>2016-05-01T07:21:24.000Z</time>
      </trkpt>
      <trkpt lat="49.36869" lon="1.12968">
        <ele>60</ele>
        <time>2016-05-01T07:21:28.000Z</time>
      </trkpt>
      <trkpt lat="49.36869" lon="1.12968">
        <ele>60</ele>
        <time>2016-05-01T07:21:30.000Z</time>
      </trkpt>
      <trkpt lat="49.36864" lon="1.12978">
        <ele>61</ele>
        <time>2016-05-01T07:21:32.000Z</time>
      </trkpt>
      <trkpt lat="49.36856" lon="1.12975">
        <ele>61</ele>
        <time>2016-05-01T07:21:36.000Z</time>
      </trkpt>
      <trkpt lat="49.36847" lon="1.12969">
        <ele>60</ele>
        <time>2016-05-01T07:21:40.000Z</time>
      </trkpt>
      <trkpt lat="49.36847" lon="1.12969">
        <ele>60</ele>
        <time>2016-05-01T07:21:42.000Z</time>
      </trkpt>
      <trkpt lat="49.3684" lon="1.12963">
        <ele>62</ele>
        <time>2016-05-01T07:21:44.000Z</time>
      </trkpt>
      <trkpt lat="49.3684" lon="1.12963">
        <ele>62</ele>
        <time>2016-05-01T07:21:46.000Z</time>
      </trkpt>
      <trkpt lat="49.36833" lon="1.12957">
        <ele>63</ele>
        <time>2016-05-01T07:21:48.000Z</time>
      </trkpt>
      <trkpt lat="49.36825" lon="1.12951">
        <ele>65</ele>
        <time>2016-05-01T07:21:52.000Z</time>
      </trkpt>
      <trkpt lat="49.36818" lon="1.12948">
        <ele>64</ele>
        <time>2016-05-01T07:21:56.000Z</time>
      </trkpt>
      <trkpt lat="49.36818" lon="1.12948">
        <ele>64</ele>
        <time>2016-05-01T07:21:58.000Z</time>
      </trkpt>
      <trkpt lat="49.3681" lon="1.12945">
        <ele>65</ele>
        <time>2016-05-01T07:22:00.000Z</time>
      </trkpt>
      <trkpt lat="49.3681" lon="1.12945">
        <ele>65</ele>
        <time>2016-05-01T07:22:02.000Z</time>
      </trkpt>
      <trkpt lat="49.36804" lon="1.12944">
        <ele>67</ele>
        <time>2016-05-01T07:22:04.000Z</time>
      </trkpt>
      <trkpt lat="49.36804" lon="1.12944">
        <ele>67</ele>
        <time>2016-05-01T07:22:06.000Z</time>
      </trkpt>
      <trkpt lat="49.36804" lon="1.12944">
        <ele>67</ele>
        <time>2016-05-01T07:22:08.000Z</time>
      </trkpt>
      <trkpt lat="49.36797" lon="1.12946">
        <ele>66</ele>
        <time>2016-05-01T07:22:10.000Z</time>
      </trkpt>
      <trkpt lat="49.36797" lon="1.12946">
        <ele>66</ele>
        <time>2016-05-01T07:22:12.000Z</time>
      </trkpt>
      <trkpt lat="49.3679" lon="1.12955">
        <ele>68</ele>
        <time>2016-05-01T07:22:16.000Z</time>
      </trkpt>
      <trkpt lat="49.36784" lon="1.12961">
        <ele>67</ele>
        <time>2016-05-01T07:22:20.000Z</time>
      </trkpt>
      <trkpt lat="49.36778" lon="1.12966">
        <ele>70</ele>
        <time>2016-05-01T07:22:24.000Z</time>
      </trkpt>
      <trkpt lat="49.36771" lon="1.12972">
        <ele>74</ele>
        <time>2016-05-01T07:22:28.000Z</time>
      </trkpt>
      <trkpt lat="49.36765" lon="1.1298">
        <ele>76</ele>
        <time>2016-05-01T07:22:34.000Z</time>
      </trkpt>
      <trkpt lat="49.36765" lon="1.1298">
        <ele>76</ele>
        <time>2016-05-01T07:22:36.000Z</time>
      </trkpt>
      <trkpt lat="49.36759" lon="1.12986">
        <ele>76</ele>
        <time>2016-05-01T07:22:38.000Z</time>
      </trkpt>
      <trkpt lat="49.36759" lon="1.12986">
        <ele>76</ele>
        <time>2016-05-01T07:22:42.000Z</time>
      </trkpt>
      <trkpt lat="49.36752" lon="1.12992">
        <ele>78</ele>
        <time>2016-05-01T07:22:44.000Z</time>
      </trkpt>
      <trkpt lat="49.36747" lon="1.12999">
        <ele>79</ele>
        <time>2016-05-01T07:22:48.000Z</time>
      </trkpt>
      <trkpt lat="49.36747" lon="1.12999">
        <ele>79</ele>
        <time>2016-05-01T07:22:52.000Z</time>
      </trkpt>
      <trkpt lat="49.36745" lon="1.13003">
        <ele>82</ele>
        <time>2016-05-01T07:22:54.000Z</time>
      </trkpt>
      <trkpt lat="49.36743" lon="1.13007">
        <ele>83</ele>
        <time>2016-05-01T07:22:56.000Z</time>
      </trkpt>
      <trkpt lat="49.36741" lon="1.13011">
        <ele>84</ele>
        <time>2016-05-01T07:22:58.000Z</time>
      </trkpt>
      <trkpt lat="49.36739" lon="1.13016">
        <ele>85</ele>
        <time>2016-05-01T07:23:00.000Z</time>
      </trkpt>
      <trkpt lat="49.36738" lon="1.1302">
        <ele>85</ele>
        <time>2016-05-01T07:23:02.000Z</time>
      </trkpt>
      <trkpt lat="49.36738" lon="1.1302">
        <ele>85</ele>
        <time>2016-05-01T07:23:04.000Z</time>
      </trkpt>
      <trkpt lat="49.36734" lon="1.13029">
        <ele>84</ele>
        <time>2016-05-01T07:23:06.000Z</time>
      </trkpt>
      <trkpt lat="49.36734" lon="1.13029">
        <ele>84</ele>
        <time>2016-05-01T07:23:08.000Z</time>
      </trkpt>
      <trkpt lat="49.36734" lon="1.13029">
        <ele>84</ele>
        <time>2016-05-01T07:23:10.000Z</time>
      </trkpt>
      <trkpt lat="49.36734" lon="1.13029">
        <ele>84</ele>
        <time>2016-05-01T07:23:12.000Z</time>
      </trkpt>
      <trkpt lat="49.3673" lon="1.13036">
        <ele>87</ele>
        <time>2016-05-01T07:23:14.000Z</time>
      </trkpt>
      <trkpt lat="49.3673" lon="1.13036">
        <ele>87</ele>
        <time>2016-05-01T07:23:16.000Z</time>
      </trkpt>
      <trkpt lat="49.3673" lon="1.13036">
        <ele>87</ele>
        <time>2016-05-01T07:23:18.000Z</time>
      </trkpt>
      <trkpt lat="49.3673" lon="1.13036">
        <ele>87</ele>
        <time>2016-05-01T07:23:20.000Z</time>
      </trkpt>
      <trkpt lat="49.36722" lon="1.1306">
        <ele>87</ele>
        <time>2016-05-01T07:23:38.000Z</time>
      </trkpt>
      <trkpt lat="49.36718" lon="1.1307">
        <ele>86</ele>
        <time>2016-05-01T07:23:42.000Z</time>
      </trkpt>
      <trkpt lat="49.36714" lon="1.13081">
        <ele>88</ele>
        <time>2016-05-01T07:23:46.000Z</time>
      </trkpt>
      <trkpt lat="49.36714" lon="1.13081">
        <ele>88</ele>
        <time>2016-05-01T07:23:48.000Z</time>
      </trkpt>
      <trkpt lat="49.36714" lon="1.13081">
        <ele>88</ele>
        <time>2016-05-01T07:23:50.000Z</time>
      </trkpt>
      <trkpt lat="49.36711" lon="1.1309">
        <ele>90</ele>
        <time>2016-05-01T07:23:52.000Z</time>
      </trkpt>
      <trkpt lat="49.36706" lon="1.13098">
        <ele>93</ele>
        <time>2016-05-01T07:23:56.000Z</time>
      </trkpt>
      <trkpt lat="49.36701" lon="1.13106">
        <ele>95</ele>
        <time>2016-05-01T07:24:00.000Z</time>
      </trkpt>
      <trkpt lat="49.36701" lon="1.13106">
        <ele>95</ele>
        <time>2016-05-01T07:24:02.000Z</time>
      </trkpt>
      <trkpt lat="49.36697" lon="1.13114">
        <ele>99</ele>
        <time>2016-05-01T07:24:04.000Z</time>
      </trkpt>
      <trkpt lat="49.36694" lon="1.13125">
        <ele>98</ele>
        <time>2016-05-01T07:24:08.000Z</time>
      </trkpt>
      <trkpt lat="49.36689" lon="1.13136">
        <ele>116</ele>
        <time>2016-05-01T07:24:12.000Z</time>
      </trkpt>
      <trkpt lat="49.36689" lon="1.13136">
        <ele>116</ele>
        <time>2016-05-01T07:24:14.000Z</time>
      </trkpt>
      <trkpt lat="49.36686" lon="1.13146">
        <ele>105</ele>
        <time>2016-05-01T07:24:16.000Z</time>
      </trkpt>
      <trkpt lat="49.36681" lon="1.13153">
        <ele>103</ele>
        <time>2016-05-01T07:24:20.000Z</time>
      </trkpt>
      <trkpt lat="49.36681" lon="1.13153">
        <ele>103</ele>
        <time>2016-05-01T07:24:22.000Z</time>
      </trkpt>
      <trkpt lat="49.36676" lon="1.13162">
        <ele>99</ele>
        <time>2016-05-01T07:24:24.000Z</time>
      </trkpt>
      <trkpt lat="49.36676" lon="1.13162">
        <ele>99</ele>
        <time>2016-05-01T07:24:26.000Z</time>
      </trkpt>
      <trkpt lat="49.36674" lon="1.1317">
        <ele>96</ele>
        <time>2016-05-01T07:24:28.000Z</time>
      </trkpt>
      <trkpt lat="49.36674" lon="1.1317">
        <ele>96</ele>
        <time>2016-05-01T07:24:30.000Z</time>
      </trkpt>
      <trkpt lat="49.36673" lon="1.13179">
        <ele>109</ele>
        <time>2016-05-01T07:24:32.000Z</time>
      </trkpt>
      <trkpt lat="49.36673" lon="1.13179">
        <ele>109</ele>
        <time>2016-05-01T07:24:34.000Z</time>
      </trkpt>
      <trkpt lat="49.36671" lon="1.13183">
        <ele>99</ele>
        <time>2016-05-01T07:24:36.000Z</time>
      </trkpt>
      <trkpt lat="49.3667" lon="1.13188">
        <ele>112</ele>
        <time>2016-05-01T07:24:38.000Z</time>
      </trkpt>
      <trkpt lat="49.36669" lon="1.13193">
        <ele>103</ele>
        <time>2016-05-01T07:24:40.000Z</time>
      </trkpt>
      <trkpt lat="49.3667" lon="1.13198">
        <ele>100</ele>
        <time>2016-05-01T07:24:42.000Z</time>
      </trkpt>
      <trkpt lat="49.3667" lon="1.13202">
        <ele>97</ele>
        <time>2016-05-01T07:24:44.000Z</time>
      </trkpt>
      <trkpt lat="49.3667" lon="1.13202">
        <ele>97</ele>
        <time>2016-05-01T07:24:46.000Z</time>
      </trkpt>
      <trkpt lat="49.36669" lon="1.13215">
        <ele>93</ele>
        <time>2016-05-01T07:24:48.000Z</time>
      </trkpt>
      <trkpt lat="49.36669" lon="1.13215">
        <ele>93</ele>
        <time>2016-05-01T07:24:50.000Z</time>
      </trkpt>
      <trkpt lat="49.36669" lon="1.13215">
        <ele>93</ele>
        <time>2016-05-01T07:24:52.000Z</time>
      </trkpt>
      <trkpt lat="49.36669" lon="1.13224">
        <ele>97</ele>
        <time>2016-05-01T07:24:54.000Z</time>
      </trkpt>
      <trkpt lat="49.36672" lon="1.13232">
        <ele>98</ele>
        <time>2016-05-01T07:24:58.000Z</time>
      </trkpt>
      <trkpt lat="49.36671" lon="1.13242">
        <ele>97</ele>
        <time>2016-05-01T07:25:02.000Z</time>
      </trkpt>
      <trkpt lat="49.36665" lon="1.13252">
        <ele>96</ele>
        <time>2016-05-01T07:25:06.000Z</time>
      </trkpt>
      <trkpt lat="49.36665" lon="1.13252">
        <ele>96</ele>
        <time>2016-05-01T07:25:10.000Z</time>
      </trkpt>
      <trkpt lat="49.36667" lon="1.13265">
        <ele>95</ele>
        <time>2016-05-01T07:25:12.000Z</time>
      </trkpt>
      <trkpt lat="49.36667" lon="1.13265">
        <ele>95</ele>
        <time>2016-05-01T07:25:14.000Z</time>
      </trkpt>
      <trkpt lat="49.3667" lon="1.13272">
        <ele>124</ele>
        <time>2016-05-01T07:25:16.000Z</time>
      </trkpt>
      <trkpt lat="49.36672" lon="1.13281">
        <ele>137</ele>
        <time>2016-05-01T07:25:20.000Z</time>
      </trkpt>
      <trkpt lat="49.36674" lon="1.13292">
        <ele>119</ele>
        <time>2016-05-01T07:25:24.000Z</time>
      </trkpt>
      <trkpt lat="49.36674" lon="1.13292">
        <ele>119</ele>
        <time>2016-05-01T07:25:26.000Z</time>
      </trkpt>
      <trkpt lat="49.36677" lon="1.13301">
        <ele>111</ele>
        <time>2016-05-01T07:25:28.000Z</time>
      </trkpt>
      <trkpt lat="49.36677" lon="1.13301">
        <ele>111</ele>
        <time>2016-05-01T07:25:30.000Z</time>
      </trkpt>
      <trkpt lat="49.36677" lon="1.13301">
        <ele>111</ele>
        <time>2016-05-01T07:25:32.000Z</time>
      </trkpt>
      <trkpt lat="49.36681" lon="1.13312">
        <ele>124</ele>
        <time>2016-05-01T07:25:34.000Z</time>
      </trkpt>
      <trkpt lat="49.36683" lon="1.13321">
        <ele>107</ele>
        <time>2016-05-01T07:25:38.000Z</time>
      </trkpt>
      <trkpt lat="49.36683" lon="1.13321">
        <ele>107</ele>
        <time>2016-05-01T07:25:40.000Z</time>
      </trkpt>
      <trkpt lat="49.36683" lon="1.13321">
        <ele>107</ele>
        <time>2016-05-01T07:25:42.000Z</time>
      </trkpt>
      <trkpt lat="49.36688" lon="1.13329">
        <ele>108</ele>
        <time>2016-05-01T07:25:44.000Z</time>
      </trkpt>
      <trkpt lat="49.36692" lon="1.13336">
        <ele>111</ele>
        <time>2016-05-01T07:25:48.000Z</time>
      </trkpt>
      <trkpt lat="49.36695" lon="1.13344">
        <ele>113</ele>
        <time>2016-05-01T07:25:52.000Z</time>
      </trkpt>
      <trkpt lat="49.36692" lon="1.13355">
        <ele>110</ele>
        <time>2016-05-01T07:25:58.000Z</time>
      </trkpt>
      <trkpt lat="49.36695" lon="1.13364">
        <ele>130</ele>
        <time>2016-05-01T07:26:04.000Z</time>
      </trkpt>
      <trkpt lat="49.36695" lon="1.13364">
        <ele>130</ele>
        <time>2016-05-01T07:26:06.000Z</time>
      </trkpt>
      <trkpt lat="49.367" lon="1.13372">
        <ele>124</ele>
        <time>2016-05-01T07:26:08.000Z</time>
      </trkpt>
      <trkpt lat="49.36708" lon="1.13379">
        <ele>139</ele>
        <time>2016-05-01T07:26:12.000Z</time>
      </trkpt>
      <trkpt lat="49.36716" lon="1.13386">
        <ele>132</ele>
        <time>2016-05-01T07:26:16.000Z</time>
      </trkpt>
      <trkpt lat="49.36716" lon="1.13386">
        <ele>132</ele>
        <time>2016-05-01T07:26:18.000Z</time>
      </trkpt>
      <trkpt lat="49.3672" lon="1.13393">
        <ele>129</ele>
        <time>2016-05-01T07:26:20.000Z</time>
      </trkpt>
      <trkpt lat="49.36723" lon="1.13402">
        <ele>124</ele>
        <time>2016-05-01T07:26:24.000Z</time>
      </trkpt>
      <trkpt lat="49.36723" lon="1.13402">
        <ele>124</ele>
        <time>2016-05-01T07:26:26.000Z</time>
      </trkpt>
      <trkpt lat="49.36723" lon="1.13402">
        <ele>124</ele>
        <time>2016-05-01T07:26:28.000Z</time>
      </trkpt>
      <trkpt lat="49.36725" lon="1.13406">
        <ele>127</ele>
        <time>2016-05-01T07:26:30.000Z</time>
      </trkpt>
      <trkpt lat="49.36727" lon="1.1341">
        <ele>128</ele>
        <time>2016-05-01T07:26:32.000Z</time>
      </trkpt>
      <trkpt lat="49.36729" lon="1.13414">
        <ele>129</ele>
        <time>2016-05-01T07:26:34.000Z</time>
      </trkpt>
      <trkpt lat="49.36731" lon="1.13418">
        <ele>130</ele>
        <time>2016-05-01T07:26:36.000Z</time>
      </trkpt>
      <trkpt lat="49.36734" lon="1.13422">
        <ele>131</ele>
        <time>2016-05-01T07:26:38.000Z</time>
      </trkpt>
      <trkpt lat="49.36738" lon="1.1343">
        <ele>130</ele>
        <time>2016-05-01T07:26:40.000Z</time>
      </trkpt>
      <trkpt lat="49.36738" lon="1.1343">
        <ele>130</ele>
        <time>2016-05-01T07:26:42.000Z</time>
      </trkpt>
      <trkpt lat="49.36738" lon="1.1343">
        <ele>130</ele>
        <time>2016-05-01T07:26:44.000Z</time>
      </trkpt>
      <trkpt lat="49.36738" lon="1.1343">
        <ele>130</ele>
        <time>2016-05-01T07:26:46.000Z</time>
      </trkpt>
      <trkpt lat="49.36738" lon="1.1343">
        <ele>130</ele>
        <time>2016-05-01T07:26:48.000Z</time>
      </trkpt>
      <trkpt lat="49.36744" lon="1.13443">
        <ele>130</ele>
        <time>2016-05-01T07:26:50.000Z</time>
      </trkpt>
      <trkpt lat="49.36745" lon="1.13454">
        <ele>131</ele>
        <time>2016-05-01T07:26:54.000Z</time>
      </trkpt>
      <trkpt lat="49.36745" lon="1.13454">
        <ele>131</ele>
        <time>2016-05-01T07:26:56.000Z</time>
      </trkpt>
      <trkpt lat="49.36749" lon="1.13463">
        <ele>132</ele>
        <time>2016-05-01T07:26:58.000Z</time>
      </trkpt>
      <trkpt lat="49.36754" lon="1.13476">
        <ele>134</ele>
        <time>2016-05-01T07:27:02.000Z</time>
      </trkpt>
      <trkpt lat="49.36754" lon="1.13476">
        <ele>134</ele>
        <time>2016-05-01T07:27:04.000Z</time>
      </trkpt>
      <trkpt lat="49.36756" lon="1.1349">
        <ele>135</ele>
        <time>2016-05-01T07:27:06.000Z</time>
      </trkpt>
      <trkpt lat="49.36756" lon="1.1349">
        <ele>135</ele>
        <time>2016-05-01T07:27:08.000Z</time>
      </trkpt>
      <trkpt lat="49.36755" lon="1.135">
        <ele>134</ele>
        <time>2016-05-01T07:27:10.000Z</time>
      </trkpt>
      <trkpt lat="49.36755" lon="1.135">
        <ele>134</ele>
        <time>2016-05-01T07:27:12.000Z</time>
      </trkpt>
      <trkpt lat="49.36755" lon="1.1351">
        <ele>132</ele>
        <time>2016-05-01T07:27:14.000Z</time>
      </trkpt>
      <trkpt lat="49.36755" lon="1.1351">
        <ele>132</ele>
        <time>2016-05-01T07:27:16.000Z</time>
      </trkpt>
      <trkpt lat="49.36758" lon="1.13519">
        <ele>133</ele>
        <time>2016-05-01T07:27:18.000Z</time>
      </trkpt>
      <trkpt lat="49.36758" lon="1.13519">
        <ele>133</ele>
        <time>2016-05-01T07:27:20.000Z</time>
      </trkpt>
      <trkpt lat="49.36763" lon="1.13527">
        <ele>132</ele>
        <time>2016-05-01T07:27:22.000Z</time>
      </trkpt>
      <trkpt lat="49.36766" lon="1.13535">
        <ele>133</ele>
        <time>2016-05-01T07:27:26.000Z</time>
      </trkpt>
      <trkpt lat="49.36766" lon="1.13535">
        <ele>133</ele>
        <time>2016-05-01T07:27:28.000Z</time>
      </trkpt>
      <trkpt lat="49.3677" lon="1.13548">
        <ele>137</ele>
        <time>2016-05-01T07:27:32.000Z</time>
      </trkpt>
      <trkpt lat="49.36774" lon="1.13559">
        <ele>138</ele>
        <time>2016-05-01T07:27:36.000Z</time>
      </trkpt>
      <trkpt lat="49.36777" lon="1.1357">
        <ele>139</ele>
        <time>2016-05-01T07:27:40.000Z</time>
      </trkpt>
      <trkpt lat="49.36777" lon="1.1357">
        <ele>139</ele>
        <time>2016-05-01T07:27:42.000Z</time>
      </trkpt>
      <trkpt lat="49.36777" lon="1.1357">
        <ele>139</ele>
        <time>2016-05-01T07:27:44.000Z</time>
      </trkpt>
      <trkpt lat="49.36783" lon="1.1358">
        <ele>143</ele>
        <time>2016-05-01T07:27:46.000Z</time>
      </trkpt>
      <trkpt lat="49.36783" lon="1.1358">
        <ele>143</ele>
        <time>2016-05-01T07:27:48.000Z</time>
      </trkpt>
      <trkpt lat="49.36784" lon="1.1359">
        <ele>151</ele>
        <time>2016-05-01T07:27:50.000Z</time>
      </trkpt>
      <trkpt lat="49.36787" lon="1.13601">
        <ele>149</ele>
        <time>2016-05-01T07:27:54.000Z</time>
      </trkpt>
      <trkpt lat="49.36787" lon="1.13601">
        <ele>149</ele>
        <time>2016-05-01T07:27:56.000Z</time>
      </trkpt>
      <trkpt lat="49.36789" lon="1.13611">
        <ele>148</ele>
        <time>2016-05-01T07:27:58.000Z</time>
      </trkpt>
      <trkpt lat="49.36792" lon="1.1362">
        <ele>152</ele>
        <time>2016-05-01T07:28:02.000Z</time>
      </trkpt>
      <trkpt lat="49.36792" lon="1.1362">
        <ele>152</ele>
        <time>2016-05-01T07:28:04.000Z</time>
      </trkpt>
      <trkpt lat="49.36793" lon="1.13629">
        <ele>151</ele>
        <time>2016-05-01T07:28:06.000Z</time>
      </trkpt>
      <trkpt lat="49.36793" lon="1.13629">
        <ele>151</ele>
        <time>2016-05-01T07:28:08.000Z</time>
      </trkpt>
      <trkpt lat="49.36795" lon="1.13638">
        <ele>154</ele>
        <time>2016-05-01T07:28:10.000Z</time>
      </trkpt>
      <trkpt lat="49.36799" lon="1.13649">
        <ele>156</ele>
        <time>2016-05-01T07:28:15.000Z</time>
      </trkpt>
      <trkpt lat="49.36799" lon="1.13649">
        <ele>156</ele>
        <time>2016-05-01T07:28:17.000Z</time>
      </trkpt>
      <trkpt lat="49.36801" lon="1.13658">
        <ele>156</ele>
        <time>2016-05-01T07:28:19.000Z</time>
      </trkpt>
      <trkpt lat="49.36807" lon="1.13667">
        <ele>156</ele>
        <time>2016-05-01T07:28:23.000Z</time>
      </trkpt>
      <trkpt lat="49.36807" lon="1.13667">
        <ele>156</ele>
        <time>2016-05-01T07:28:25.000Z</time>
      </trkpt>
      <trkpt lat="49.36811" lon="1.13675">
        <ele>153</ele>
        <time>2016-05-01T07:28:27.000Z</time>
      </trkpt>
      <trkpt lat="49.36813" lon="1.13679">
        <ele>152</ele>
        <time>2016-05-01T07:28:31.000Z</time>
      </trkpt>
      <trkpt lat="49.36815" lon="1.13683">
        <ele>154</ele>
        <time>2016-05-01T07:28:33.000Z</time>
      </trkpt>
      <trkpt lat="49.36815" lon="1.13683">
        <ele>154</ele>
        <time>2016-05-01T07:28:35.000Z</time>
      </trkpt>
      <trkpt lat="49.36816" lon="1.13688">
        <ele>152</ele>
        <time>2016-05-01T07:28:37.000Z</time>
      </trkpt>
      <trkpt lat="49.36816" lon="1.13688">
        <ele>152</ele>
        <time>2016-05-01T07:28:39.000Z</time>
      </trkpt>
      <trkpt lat="49.36817" lon="1.13694">
        <ele>155</ele>
        <time>2016-05-01T07:28:41.000Z</time>
      </trkpt>
      <trkpt lat="49.36817" lon="1.13698">
        <ele>153</ele>
        <time>2016-05-01T07:28:43.000Z</time>
      </trkpt>
      <trkpt lat="49.36817" lon="1.13704">
        <ele>152</ele>
        <time>2016-05-01T07:28:47.000Z</time>
      </trkpt>
      <trkpt lat="49.36817" lon="1.13709">
        <ele>152</ele>
        <time>2016-05-01T07:28:49.000Z</time>
      </trkpt>
      <trkpt lat="49.36818" lon="1.13714">
        <ele>154</ele>
        <time>2016-05-01T07:28:53.000Z</time>
      </trkpt>
      <trkpt lat="49.36818" lon="1.13719">
        <ele>154</ele>
        <time>2016-05-01T07:28:55.000Z</time>
      </trkpt>
      <trkpt lat="49.3682" lon="1.13724">
        <ele>157</ele>
        <time>2016-05-01T07:28:57.000Z</time>
      </trkpt>
      <trkpt lat="49.36822" lon="1.13728">
        <ele>159</ele>
        <time>2016-05-01T07:28:59.000Z</time>
      </trkpt>
      <trkpt lat="49.36825" lon="1.13732">
        <ele>158</ele>
        <time>2016-05-01T07:29:01.000Z</time>
      </trkpt>
      <trkpt lat="49.36829" lon="1.13741">
        <ele>160</ele>
        <time>2016-05-01T07:29:03.000Z</time>
      </trkpt>
      <trkpt lat="49.36829" lon="1.13741">
        <ele>160</ele>
        <time>2016-05-01T07:29:05.000Z</time>
      </trkpt>
      <trkpt lat="49.36834" lon="1.13749">
        <ele>164</ele>
        <time>2016-05-01T07:29:07.000Z</time>
      </trkpt>
      <trkpt lat="49.36835" lon="1.13759">
        <ele>164</ele>
        <time>2016-05-01T07:29:11.000Z</time>
      </trkpt>
      <trkpt lat="49.36835" lon="1.13759">
        <ele>164</ele>
        <time>2016-05-01T07:29:13.000Z</time>
      </trkpt>
      <trkpt lat="49.36835" lon="1.13771">
        <ele>162</ele>
        <time>2016-05-01T07:29:15.000Z</time>
      </trkpt>
      <trkpt lat="49.36835" lon="1.13785">
        <ele>163</ele>
        <time>2016-05-01T07:29:19.000Z</time>
      </trkpt>
      <trkpt lat="49.36835" lon="1.13785">
        <ele>163</ele>
        <time>2016-05-01T07:29:21.000Z</time>
      </trkpt>
      <trkpt lat="49.36835" lon="1.13796">
        <ele>163</ele>
        <time>2016-05-01T07:29:23.000Z</time>
      </trkpt>
      <trkpt lat="49.36835" lon="1.13796">
        <ele>163</ele>
        <time>2016-05-01T07:29:25.000Z</time>
      </trkpt>
      <trkpt lat="49.36839" lon="1.13809">
        <ele>168</ele>
        <time>2016-05-01T07:29:27.000Z</time>
      </trkpt>
      <trkpt lat="49.36839" lon="1.13809">
        <ele>168</ele>
        <time>2016-05-01T07:29:29.000Z</time>
      </trkpt>
      <trkpt lat="49.36841" lon="1.1382">
        <ele>171</ele>
        <time>2016-05-01T07:29:31.000Z</time>
      </trkpt>
      <trkpt lat="49.36841" lon="1.1382">
        <ele>171</ele>
        <time>2016-05-01T07:29:33.000Z</time>
      </trkpt>
      <trkpt lat="49.36837" lon="1.13831">
        <ele>167</ele>
        <time>2016-05-01T07:29:35.000Z</time>
      </trkpt>
      <trkpt lat="49.36831" lon="1.13843">
        <ele>171</ele>
        <time>2016-05-01T07:29:39.000Z</time>
      </trkpt>
      <trkpt lat="49.36831" lon="1.13843">
        <ele>171</ele>
        <time>2016-05-01T07:29:41.000Z</time>
      </trkpt>
      <trkpt lat="49.36828" lon="1.13855">
        <ele>172</ele>
        <time>2016-05-01T07:29:43.000Z</time>
      </trkpt>
      <trkpt lat="49.36828" lon="1.13855">
        <ele>172</ele>
        <time>2016-05-01T07:29:45.000Z</time>
      </trkpt>
      <trkpt lat="49.36829" lon="1.13865">
        <ele>166</ele>
        <time>2016-05-01T07:29:47.000Z</time>
      </trkpt>
      <trkpt lat="49.36829" lon="1.13865">
        <ele>166</ele>
        <time>2016-05-01T07:29:49.000Z</time>
      </trkpt>
      <trkpt lat="49.36831" lon="1.13876">
        <ele>169</ele>
        <time>2016-05-01T07:29:51.000Z</time>
      </trkpt>
      <trkpt lat="49.36833" lon="1.13887">
        <ele>174</ele>
        <time>2016-05-01T07:29:55.000Z</time>
      </trkpt>
      <trkpt lat="49.36835" lon="1.13898">
        <ele>177</ele>
        <time>2016-05-01T07:29:59.000Z</time>
      </trkpt>
      <trkpt lat="49.36835" lon="1.13898">
        <ele>177</ele>
        <time>2016-05-01T07:30:01.000Z</time>
      </trkpt>
      <trkpt lat="49.36839" lon="1.13909">
        <ele>177</ele>
        <time>2016-05-01T07:30:03.000Z</time>
      </trkpt>
      <trkpt lat="49.36839" lon="1.13909">
        <ele>177</ele>
        <time>2016-05-01T07:30:05.000Z</time>
      </trkpt>
      <trkpt lat="49.36843" lon="1.13919">
        <ele>176</ele>
        <time>2016-05-01T07:30:07.000Z</time>
      </trkpt>
      <trkpt lat="49.36848" lon="1.13929">
        <ele>172</ele>
        <time>2016-05-01T07:30:11.000Z</time>
      </trkpt>
      <trkpt lat="49.36848" lon="1.13929">
        <ele>172</ele>
        <time>2016-05-01T07:30:13.000Z</time>
      </trkpt>
      <trkpt lat="49.36852" lon="1.13942">
        <ele>175</ele>
        <time>2016-05-01T07:30:15.000Z</time>
      </trkpt>
      <trkpt lat="49.36854" lon="1.13953">
        <ele>178</ele>
        <time>2016-05-01T07:30:19.000Z</time>
      </trkpt>
      <trkpt lat="49.36857" lon="1.13965">
        <ele>179</ele>
        <time>2016-05-01T07:30:23.000Z</time>
      </trkpt>
      <trkpt lat="49.36857" lon="1.13965">
        <ele>179</ele>
        <time>2016-05-01T07:30:25.000Z</time>
      </trkpt>
      <trkpt lat="49.36861" lon="1.13975">
        <ele>172</ele>
        <time>2016-05-01T07:30:27.000Z</time>
      </trkpt>
      <trkpt lat="49.36864" lon="1.13987">
        <ele>176</ele>
        <time>2016-05-01T07:30:31.000Z</time>
      </trkpt>
      <trkpt lat="49.36867" lon="1.13998">
        <ele>167</ele>
        <time>2016-05-01T07:30:35.000Z</time>
      </trkpt>
      <trkpt lat="49.36867" lon="1.13998">
        <ele>167</ele>
        <time>2016-05-01T07:30:37.000Z</time>
      </trkpt>
      <trkpt lat="49.36869" lon="1.14008">
        <ele>174</ele>
        <time>2016-05-01T07:30:39.000Z</time>
      </trkpt>
      <trkpt lat="49.36869" lon="1.14008">
        <ele>174</ele>
        <time>2016-05-01T07:30:41.000Z</time>
      </trkpt>
      <trkpt lat="49.36871" lon="1.14017">
        <ele>176</ele>
        <time>2016-05-01T07:30:43.000Z</time>
      </trkpt>
      <trkpt lat="49.36875" lon="1.14028">
        <ele>179</ele>
        <time>2016-05-01T07:30:47.000Z</time>
      </trkpt>
      <trkpt lat="49.36878" lon="1.14038">
        <ele>180</ele>
        <time>2016-05-01T07:30:51.000Z</time>
      </trkpt>
      <trkpt lat="49.36878" lon="1.14038">
        <ele>180</ele>
        <time>2016-05-01T07:30:53.000Z</time>
      </trkpt>
      <trkpt lat="49.36881" lon="1.14049">
        <ele>169</ele>
        <time>2016-05-01T07:30:55.000Z</time>
      </trkpt>
      <trkpt lat="49.36881" lon="1.14049">
        <ele>169</ele>
        <time>2016-05-01T07:30:57.000Z</time>
      </trkpt>
      <trkpt lat="49.36884" lon="1.14062">
        <ele>176</ele>
        <time>2016-05-01T07:30:59.000Z</time>
      </trkpt>
      <trkpt lat="49.36888" lon="1.14069">
        <ele>179</ele>
        <time>2016-05-01T07:31:01.000Z</time>
      </trkpt>
      <trkpt lat="49.36892" lon="1.14077">
        <ele>181</ele>
        <time>2016-05-01T07:31:03.000Z</time>
      </trkpt>
      <trkpt lat="49.36894" lon="1.14084">
        <ele>181</ele>
        <time>2016-05-01T07:31:07.000Z</time>
      </trkpt>
      <trkpt lat="49.36897" lon="1.14092">
        <ele>176</ele>
        <time>2016-05-01T07:31:09.000Z</time>
      </trkpt>
      <trkpt lat="49.36899" lon="1.141">
        <ele>176</ele>
        <time>2016-05-01T07:31:11.000Z</time>
      </trkpt>
      <trkpt lat="49.369" lon="1.14108">
        <ele>175</ele>
        <time>2016-05-01T07:31:13.000Z</time>
      </trkpt>
      <trkpt lat="49.36902" lon="1.14116">
        <ele>175</ele>
        <time>2016-05-01T07:31:15.000Z</time>
      </trkpt>
      <trkpt lat="49.36905" lon="1.14132">
        <ele>175</ele>
        <time>2016-05-01T07:31:17.000Z</time>
      </trkpt>
      <trkpt lat="49.36905" lon="1.14132">
        <ele>175</ele>
        <time>2016-05-01T07:31:19.000Z</time>
      </trkpt>
      <trkpt lat="49.36909" lon="1.14146">
        <ele>176</ele>
        <time>2016-05-01T07:31:21.000Z</time>
      </trkpt>
      <trkpt lat="49.36909" lon="1.14146">
        <ele>176</ele>
        <time>2016-05-01T07:31:23.000Z</time>
      </trkpt>
      <trkpt lat="49.36913" lon="1.14159">
        <ele>177</ele>
        <time>2016-05-01T07:31:25.000Z</time>
      </trkpt>
      <trkpt lat="49.36919" lon="1.14176">
        <ele>176</ele>
        <time>2016-05-01T07:31:29.000Z</time>
      </trkpt>
      <trkpt lat="49.36922" lon="1.14187">
        <ele>176</ele>
        <time>2016-05-01T07:31:31.000Z</time>
      </trkpt>
      <trkpt lat="49.36925" lon="1.14199">
        <ele>176</ele>
        <time>2016-05-01T07:31:33.000Z</time>
      </trkpt>
      <trkpt lat="49.36929" lon="1.14211">
        <ele>176</ele>
        <time>2016-05-01T07:31:35.000Z</time>
      </trkpt>
      <trkpt lat="49.36932" lon="1.14221">
        <ele>176</ele>
        <time>2016-05-01T07:31:37.000Z</time>
      </trkpt>
      <trkpt lat="49.36934" lon="1.14231">
        <ele>175</ele>
        <time>2016-05-01T07:31:39.000Z</time>
      </trkpt>
      <trkpt lat="49.36936" lon="1.14241">
        <ele>173</ele>
        <time>2016-05-01T07:31:41.000Z</time>
      </trkpt>
      <trkpt lat="49.36938" lon="1.1425">
        <ele>174</ele>
        <time>2016-05-01T07:31:43.000Z</time>
      </trkpt>
      <trkpt lat="49.36941" lon="1.14259">
        <ele>176</ele>
        <time>2016-05-01T07:31:45.000Z</time>
      </trkpt>
      <trkpt lat="49.36941" lon="1.14259">
        <ele>176</ele>
        <time>2016-05-01T07:31:47.000Z</time>
      </trkpt>
      <trkpt lat="49.36944" lon="1.14278">
        <ele>175</ele>
        <time>2016-05-01T07:31:49.000Z</time>
      </trkpt>
      <trkpt lat="49.36947" lon="1.14289">
        <ele>176</ele>
        <time>2016-05-01T07:31:51.000Z</time>
      </trkpt>
      <trkpt lat="49.36951" lon="1.143">
        <ele>178</ele>
        <time>2016-05-01T07:31:53.000Z</time>
      </trkpt>
      <trkpt lat="49.36954" lon="1.14309">
        <ele>178</ele>
        <time>2016-05-01T07:31:55.000Z</time>
      </trkpt>
      <trkpt lat="49.36958" lon="1.14316">
        <ele>179</ele>
        <time>2016-05-01T07:31:57.000Z</time>
      </trkpt>
      <trkpt lat="49.36963" lon="1.14325">
        <ele>180</ele>
        <time>2016-05-01T07:31:59.000Z</time>
      </trkpt>
      <trkpt lat="49.36968" lon="1.14334">
        <ele>180</ele>
        <time>2016-05-01T07:32:01.000Z</time>
      </trkpt>
      <trkpt lat="49.36971" lon="1.14342">
        <ele>180</ele>
        <time>2016-05-01T07:32:03.000Z</time>
      </trkpt>
      <trkpt lat="49.36971" lon="1.14342">
        <ele>180</ele>
        <time>2016-05-01T07:32:05.000Z</time>
      </trkpt>
      <trkpt lat="49.36961" lon="1.14351">
        <ele>180</ele>
        <time>2016-05-01T07:32:07.000Z</time>
      </trkpt>
      <trkpt lat="49.36952" lon="1.1435">
        <ele>180</ele>
        <time>2016-05-01T07:32:09.000Z</time>
      </trkpt>
      <trkpt lat="49.36943" lon="1.14349">
        <ele>181</ele>
        <time>2016-05-01T07:32:11.000Z</time>
      </trkpt>
      <trkpt lat="49.36935" lon="1.1435">
        <ele>181</ele>
        <time>2016-05-01T07:32:13.000Z</time>
      </trkpt>
      <trkpt lat="49.36926" lon="1.14351">
        <ele>182</ele>
        <time>2016-05-01T07:32:15.000Z</time>
      </trkpt>
      <trkpt lat="49.36917" lon="1.14351">
        <ele>182</ele>
        <time>2016-05-01T07:32:17.000Z</time>
      </trkpt>
      <trkpt lat="49.36909" lon="1.14353">
        <ele>182</ele>
        <time>2016-05-01T07:32:19.000Z</time>
      </trkpt>
      <trkpt lat="49.369" lon="1.14353">
        <ele>182</ele>
        <time>2016-05-01T07:32:21.000Z</time>
      </trkpt>
      <trkpt lat="49.3689" lon="1.14352">
        <ele>182</ele>
        <time>2016-05-01T07:32:23.000Z</time>
      </trkpt>
      <trkpt lat="49.36881" lon="1.14352">
        <ele>182</ele>
        <time>2016-05-01T07:32:25.000Z</time>
      </trkpt>
      <trkpt lat="49.36872" lon="1.14351">
        <ele>181</ele>
        <time>2016-05-01T07:32:27.000Z</time>
      </trkpt>
      <trkpt lat="49.36863" lon="1.14351">
        <ele>180</ele>
        <time>2016-05-01T07:32:29.000Z</time>
      </trkpt>
      <trkpt lat="49.36854" lon="1.14351">
        <ele>180</ele>
        <time>2016-05-01T07:32:31.000Z</time>
      </trkpt>
      <trkpt lat="49.36844" lon="1.1435">
        <ele>179</ele>
        <time>2016-05-01T07:32:33.000Z</time>
      </trkpt>
      <trkpt lat="49.36835" lon="1.14351">
        <ele>179</ele>
        <time>2016-05-01T07:32:35.000Z</time>
      </trkpt>
      <trkpt lat="49.36826" lon="1.14351">
        <ele>179</ele>
        <time>2016-05-01T07:32:37.000Z</time>
      </trkpt>
      <trkpt lat="49.36817" lon="1.14351">
        <ele>178</ele>
        <time>2016-05-01T07:32:39.000Z</time>
      </trkpt>
      <trkpt lat="49.36807" lon="1.14351">
        <ele>178</ele>
        <time>2016-05-01T07:32:41.000Z</time>
      </trkpt>
      <trkpt lat="49.36798" lon="1.1435">
        <ele>178</ele>
        <time>2016-05-01T07:32:43.000Z</time>
      </trkpt>
      <trkpt lat="49.36789" lon="1.14351">
        <ele>178</ele>
        <time>2016-05-01T07:32:45.000Z</time>
      </trkpt>
      <trkpt lat="49.3678" lon="1.1435">
        <ele>178</ele>
        <time>2016-05-01T07:32:47.000Z</time>
      </trkpt>
      <trkpt lat="49.36771" lon="1.1435">
        <ele>178</ele>
        <time>2016-05-01T07:32:49.000Z</time>
      </trkpt>
      <trkpt lat="49.36761" lon="1.14352">
        <ele>177</ele>
        <time>2016-05-01T07:32:51.000Z</time>
      </trkpt>
      <trkpt lat="49.36752" lon="1.14353">
        <ele>176</ele>
        <time>2016-05-01T07:32:53.000Z</time>
      </trkpt>
      <trkpt lat="49.36742" lon="1.14354">
        <ele>176</ele>
        <time>2016-05-01T07:32:55.000Z</time>
      </trkpt>
      <trkpt lat="49.36731" lon="1.14357">
        <ele>175</ele>
        <time>2016-05-01T07:32:57.000Z</time>
      </trkpt>
      <trkpt lat="49.36721" lon="1.1436">
        <ele>174</ele>
        <time>2016-05-01T07:32:59.000Z</time>
      </trkpt>
      <trkpt lat="49.36712" lon="1.14363">
        <ele>173</ele>
        <time>2016-05-01T07:33:01.000Z</time>
      </trkpt>
      <trkpt lat="49.36702" lon="1.14367">
        <ele>172</ele>
        <time>2016-05-01T07:33:03.000Z</time>
      </trkpt>
      <trkpt lat="49.36691" lon="1.1437">
        <ele>172</ele>
        <time>2016-05-01T07:33:05.000Z</time>
      </trkpt>
      <trkpt lat="49.36681" lon="1.14374">
        <ele>171</ele>
        <time>2016-05-01T07:33:07.000Z</time>
      </trkpt>
      <trkpt lat="49.3667" lon="1.14378">
        <ele>171</ele>
        <time>2016-05-01T07:33:09.000Z</time>
      </trkpt>
      <trkpt lat="49.36658" lon="1.14383">
        <ele>171</ele>
        <time>2016-05-01T07:33:11.000Z</time>
      </trkpt>
      <trkpt lat="49.36647" lon="1.14387">
        <ele>170</ele>
        <time>2016-05-01T07:33:13.000Z</time>
      </trkpt>
      <trkpt lat="49.36635" lon="1.1439">
        <ele>169</ele>
        <time>2016-05-01T07:33:15.000Z</time>
      </trkpt>
      <trkpt lat="49.36623" lon="1.14394">
        <ele>169</ele>
        <time>2016-05-01T07:33:17.000Z</time>
      </trkpt>
      <trkpt lat="49.3661" lon="1.14399">
        <ele>167</ele>
        <time>2016-05-01T07:33:19.000Z</time>
      </trkpt>
      <trkpt lat="49.36597" lon="1.14404">
        <ele>166</ele>
        <time>2016-05-01T07:33:21.000Z</time>
      </trkpt>
      <trkpt lat="49.36583" lon="1.14409">
        <ele>166</ele>
        <time>2016-05-01T07:33:23.000Z</time>
      </trkpt>
      <trkpt lat="49.3657" lon="1.14413">
        <ele>165</ele>
        <time>2016-05-01T07:33:25.000Z</time>
      </trkpt>
      <trkpt lat="49.36557" lon="1.14411">
        <ele>165</ele>
        <time>2016-05-01T07:33:27.000Z</time>
      </trkpt>
      <trkpt lat="49.36546" lon="1.14399">
        <ele>164</ele>
        <time>2016-05-01T07:33:29.000Z</time>
      </trkpt>
      <trkpt lat="49.36536" lon="1.14385">
        <ele>164</ele>
        <time>2016-05-01T07:33:31.000Z</time>
      </trkpt>
      <trkpt lat="49.36527" lon="1.1437">
        <ele>163</ele>
        <time>2016-05-01T07:33:33.000Z</time>
      </trkpt>
      <trkpt lat="49.36518" lon="1.14354">
        <ele>162</ele>
        <time>2016-05-01T07:33:35.000Z</time>
      </trkpt>
      <trkpt lat="49.36508" lon="1.14338">
        <ele>161</ele>
        <time>2016-05-01T07:33:37.000Z</time>
      </trkpt>
      <trkpt lat="49.365" lon="1.14322">
        <ele>161</ele>
        <time>2016-05-01T07:33:39.000Z</time>
      </trkpt>
      <trkpt lat="49.3649" lon="1.14307">
        <ele>162</ele>
        <time>2016-05-01T07:33:41.000Z</time>
      </trkpt>
      <trkpt lat="49.3648" lon="1.14291">
        <ele>161</ele>
        <time>2016-05-01T07:33:43.000Z</time>
      </trkpt>
      <trkpt lat="49.36471" lon="1.14272">
        <ele>162</ele>
        <time>2016-05-01T07:33:45.000Z</time>
      </trkpt>
      <trkpt lat="49.36462" lon="1.14255">
        <ele>162</ele>
        <time>2016-05-01T07:33:47.000Z</time>
      </trkpt>
      <trkpt lat="49.36452" lon="1.14239">
        <ele>162</ele>
        <time>2016-05-01T07:33:49.000Z</time>
      </trkpt>
      <trkpt lat="49.36441" lon="1.14221">
        <ele>162</ele>
        <time>2016-05-01T07:33:51.000Z</time>
      </trkpt>
      <trkpt lat="49.36431" lon="1.14204">
        <ele>162</ele>
        <time>2016-05-01T07:33:53.000Z</time>
      </trkpt>
      <trkpt lat="49.36421" lon="1.14187">
        <ele>161</ele>
        <time>2016-05-01T07:33:55.000Z</time>
      </trkpt>
      <trkpt lat="49.36411" lon="1.14177">
        <ele>160</ele>
        <time>2016-05-01T07:33:57.000Z</time>
      </trkpt>
      <trkpt lat="49.36398" lon="1.14181">
        <ele>159</ele>
        <time>2016-05-01T07:33:59.000Z</time>
      </trkpt>
      <trkpt lat="49.36385" lon="1.14189">
        <ele>158</ele>
        <time>2016-05-01T07:34:01.000Z</time>
      </trkpt>
      <trkpt lat="49.36369" lon="1.14193">
        <ele>155</ele>
        <time>2016-05-01T07:34:03.000Z</time>
      </trkpt>
      <trkpt lat="49.36351" lon="1.14191">
        <ele>153</ele>
        <time>2016-05-01T07:34:05.000Z</time>
      </trkpt>
      <trkpt lat="49.36333" lon="1.14187">
        <ele>151</ele>
        <time>2016-05-01T07:34:07.000Z</time>
      </trkpt>
      <trkpt lat="49.36313" lon="1.14179">
        <ele>149</ele>
        <time>2016-05-01T07:34:09.000Z</time>
      </trkpt>
      <trkpt lat="49.36291" lon="1.14169">
        <ele>147</ele>
        <time>2016-05-01T07:34:11.000Z</time>
      </trkpt>
      <trkpt lat="49.3627" lon="1.14159">
        <ele>146</ele>
        <time>2016-05-01T07:34:13.000Z</time>
      </trkpt>
      <trkpt lat="49.36247" lon="1.14153">
        <ele>143</ele>
        <time>2016-05-01T07:34:15.000Z</time>
      </trkpt>
      <trkpt lat="49.36224" lon="1.14145">
        <ele>140</ele>
        <time>2016-05-01T07:34:17.000Z</time>
      </trkpt>
      <trkpt lat="49.36201" lon="1.14135">
        <ele>136</ele>
        <time>2016-05-01T07:34:19.000Z</time>
      </trkpt>
      <trkpt lat="49.36178" lon="1.14127">
        <ele>134</ele>
        <time>2016-05-01T07:34:21.000Z</time>
      </trkpt>
      <trkpt lat="49.36156" lon="1.14117">
        <ele>131</ele>
        <time>2016-05-01T07:34:23.000Z</time>
      </trkpt>
      <trkpt lat="49.36139" lon="1.14105">
        <ele>129</ele>
        <time>2016-05-01T07:34:25.000Z</time>
      </trkpt>
      <trkpt lat="49.3612" lon="1.14095">
        <ele>127</ele>
        <time>2016-05-01T07:34:28.000Z</time>
      </trkpt>
      <trkpt lat="49.36111" lon="1.14083">
        <ele>125</ele>
        <time>2016-05-01T07:34:30.000Z</time>
      </trkpt>
      <trkpt lat="49.36103" lon="1.14071">
        <ele>124</ele>
        <time>2016-05-01T07:34:32.000Z</time>
      </trkpt>
      <trkpt lat="49.36094" lon="1.1406">
        <ele>123</ele>
        <time>2016-05-01T07:34:34.000Z</time>
      </trkpt>
      <trkpt lat="49.36082" lon="1.14053">
        <ele>122</ele>
        <time>2016-05-01T07:34:36.000Z</time>
      </trkpt>
      <trkpt lat="49.36071" lon="1.14049">
        <ele>121</ele>
        <time>2016-05-01T07:34:38.000Z</time>
      </trkpt>
      <trkpt lat="49.36062" lon="1.14048">
        <ele>121</ele>
        <time>2016-05-01T07:34:41.000Z</time>
      </trkpt>
      <trkpt lat="49.36062" lon="1.14048">
        <ele>121</ele>
        <time>2016-05-01T07:34:43.000Z</time>
      </trkpt>
      <trkpt lat="49.36062" lon="1.14048">
        <ele>121</ele>
        <time>2016-05-01T07:34:45.000Z</time>
      </trkpt>
      <trkpt lat="49.36062" lon="1.14048">
        <ele>121</ele>
        <time>2016-05-01T07:34:47.000Z</time>
      </trkpt>
      <trkpt lat="49.36066" lon="1.14054">
        <ele>118</ele>
        <time>2016-05-01T07:34:55.000Z</time>
      </trkpt>
      <trkpt lat="49.36062" lon="1.14061">
        <ele>116</ele>
        <time>2016-05-01T07:34:57.000Z</time>
      </trkpt>
      <trkpt lat="49.36054" lon="1.14066">
        <ele>115</ele>
        <time>2016-05-01T07:34:59.000Z</time>
      </trkpt>
      <trkpt lat="49.36048" lon="1.14067">
        <ele>116</ele>
        <time>2016-05-01T07:35:01.000Z</time>
      </trkpt>
      <trkpt lat="49.36042" lon="1.14069">
        <ele>116</ele>
        <time>2016-05-01T07:35:03.000Z</time>
      </trkpt>
      <trkpt lat="49.36036" lon="1.14071">
        <ele>117</ele>
        <time>2016-05-01T07:35:05.000Z</time>
      </trkpt>
      <trkpt lat="49.36016" lon="1.14072">
        <ele>115</ele>
        <time>2016-05-01T07:35:08.000Z</time>
      </trkpt>
      <trkpt lat="49.36003" lon="1.14067">
        <ele>113</ele>
        <time>2016-05-01T07:35:10.000Z</time>
      </trkpt>
      <trkpt lat="49.35987" lon="1.14062">
        <ele>112</ele>
        <time>2016-05-01T07:35:12.000Z</time>
      </trkpt>
      <trkpt lat="49.35973" lon="1.14057">
        <ele>111</ele>
        <time>2016-05-01T07:35:14.000Z</time>
      </trkpt>
      <trkpt lat="49.35958" lon="1.14058">
        <ele>109</ele>
        <time>2016-05-01T07:35:16.000Z</time>
      </trkpt>
      <trkpt lat="49.35946" lon="1.14061">
        <ele>108</ele>
        <time>2016-05-01T07:35:18.000Z</time>
      </trkpt>
      <trkpt lat="49.35934" lon="1.14066">
        <ele>108</ele>
        <time>2016-05-01T07:35:20.000Z</time>
      </trkpt>
      <trkpt lat="49.35924" lon="1.1407">
        <ele>108</ele>
        <time>2016-05-01T07:35:22.000Z</time>
      </trkpt>
      <trkpt lat="49.35916" lon="1.14064">
        <ele>108</ele>
        <time>2016-05-01T07:35:25.000Z</time>
      </trkpt>
      <trkpt lat="49.3591" lon="1.14059">
        <ele>107</ele>
        <time>2016-05-01T07:35:27.000Z</time>
      </trkpt>
      <trkpt lat="49.35902" lon="1.14053">
        <ele>108</ele>
        <time>2016-05-01T07:35:29.000Z</time>
      </trkpt>
      <trkpt lat="49.35895" lon="1.14047">
        <ele>107</ele>
        <time>2016-05-01T07:35:31.000Z</time>
      </trkpt>
      <trkpt lat="49.35887" lon="1.1404">
        <ele>107</ele>
        <time>2016-05-01T07:35:33.000Z</time>
      </trkpt>
      <trkpt lat="49.35878" lon="1.14029">
        <ele>107</ele>
        <time>2016-05-01T07:35:35.000Z</time>
      </trkpt>
      <trkpt lat="49.3587" lon="1.14021">
        <ele>106</ele>
        <time>2016-05-01T07:35:37.000Z</time>
      </trkpt>
      <trkpt lat="49.35866" lon="1.14014">
        <ele>106</ele>
        <time>2016-05-01T07:35:39.000Z</time>
      </trkpt>
      <trkpt lat="49.35866" lon="1.14014">
        <ele>106</ele>
        <time>2016-05-01T07:35:41.000Z</time>
      </trkpt>
      <trkpt lat="49.35853" lon="1.14005">
        <ele>107</ele>
        <time>2016-05-01T07:35:43.000Z</time>
      </trkpt>
      <trkpt lat="49.35845" lon="1.14003">
        <ele>107</ele>
        <time>2016-05-01T07:35:45.000Z</time>
      </trkpt>
      <trkpt lat="49.35838" lon="1.14009">
        <ele>107</ele>
        <time>2016-05-01T07:35:47.000Z</time>
      </trkpt>
      <trkpt lat="49.35821" lon="1.14025">
        <ele>104</ele>
        <time>2016-05-01T07:35:50.000Z</time>
      </trkpt>
      <trkpt lat="49.35807" lon="1.1403">
        <ele>105</ele>
        <time>2016-05-01T07:35:52.000Z</time>
      </trkpt>
      <trkpt lat="49.3579" lon="1.14038">
        <ele>105</ele>
        <time>2016-05-01T07:35:54.000Z</time>
      </trkpt>
      <trkpt lat="49.35775" lon="1.14045">
        <ele>105</ele>
        <time>2016-05-01T07:35:56.000Z</time>
      </trkpt>
      <trkpt lat="49.3576" lon="1.14051">
        <ele>105</ele>
        <time>2016-05-01T07:35:58.000Z</time>
      </trkpt>
      <trkpt lat="49.35748" lon="1.14058">
        <ele>105</ele>
        <time>2016-05-01T07:36:00.000Z</time>
      </trkpt>
      <trkpt lat="49.35736" lon="1.14061">
        <ele>106</ele>
        <time>2016-05-01T07:36:02.000Z</time>
      </trkpt>
      <trkpt lat="49.35724" lon="1.14062">
        <ele>105</ele>
        <time>2016-05-01T07:36:04.000Z</time>
      </trkpt>
      <trkpt lat="49.35717" lon="1.14075">
        <ele>105</ele>
        <time>2016-05-01T07:36:06.000Z</time>
      </trkpt>
      <trkpt lat="49.35711" lon="1.14089">
        <ele>105</ele>
        <time>2016-05-01T07:36:08.000Z</time>
      </trkpt>
      <trkpt lat="49.35707" lon="1.14103">
        <ele>102</ele>
        <time>2016-05-01T07:36:10.000Z</time>
      </trkpt>
      <trkpt lat="49.35704" lon="1.14124">
        <ele>103</ele>
        <time>2016-05-01T07:36:13.000Z</time>
      </trkpt>
      <trkpt lat="49.35701" lon="1.14134">
        <ele>103</ele>
        <time>2016-05-01T07:36:15.000Z</time>
      </trkpt>
      <trkpt lat="49.35701" lon="1.14134">
        <ele>103</ele>
        <time>2016-05-01T07:36:17.000Z</time>
      </trkpt>
      <trkpt lat="49.35696" lon="1.14152">
        <ele>104</ele>
        <time>2016-05-01T07:36:19.000Z</time>
      </trkpt>
      <trkpt lat="49.35694" lon="1.14164">
        <ele>103</ele>
        <time>2016-05-01T07:36:21.000Z</time>
      </trkpt>
      <trkpt lat="49.35687" lon="1.14173">
        <ele>102</ele>
        <time>2016-05-01T07:36:23.000Z</time>
      </trkpt>
      <trkpt lat="49.35684" lon="1.14185">
        <ele>102</ele>
        <time>2016-05-01T07:36:25.000Z</time>
      </trkpt>
      <trkpt lat="49.3568" lon="1.14194">
        <ele>108</ele>
        <time>2016-05-01T07:36:27.000Z</time>
      </trkpt>
      <trkpt lat="49.3568" lon="1.14194">
        <ele>108</ele>
        <time>2016-05-01T07:36:29.000Z</time>
      </trkpt>
      <trkpt lat="49.35672" lon="1.14204">
        <ele>108</ele>
        <time>2016-05-01T07:36:31.000Z</time>
      </trkpt>
      <trkpt lat="49.35672" lon="1.14204">
        <ele>108</ele>
        <time>2016-05-01T07:36:33.000Z</time>
      </trkpt>
      <trkpt lat="49.35664" lon="1.14207">
        <ele>106</ele>
        <time>2016-05-01T07:36:35.000Z</time>
      </trkpt>
      <trkpt lat="49.35664" lon="1.14207">
        <ele>106</ele>
        <time>2016-05-01T07:36:37.000Z</time>
      </trkpt>
      <trkpt lat="49.35659" lon="1.14212">
        <ele>106</ele>
        <time>2016-05-01T07:36:39.000Z</time>
      </trkpt>
      <trkpt lat="49.35659" lon="1.14212">
        <ele>106</ele>
        <time>2016-05-01T07:36:41.000Z</time>
      </trkpt>
      <trkpt lat="49.35659" lon="1.14212">
        <ele>106</ele>
        <time>2016-05-01T07:36:43.000Z</time>
      </trkpt>
      <trkpt lat="49.35659" lon="1.14212">
        <ele>106</ele>
        <time>2016-05-01T07:36:45.000Z</time>
      </trkpt>
      <trkpt lat="49.35655" lon="1.14225">
        <ele>111</ele>
        <time>2016-05-01T07:36:49.000Z</time>
      </trkpt>
      <trkpt lat="49.35655" lon="1.14225">
        <ele>111</ele>
        <time>2016-05-01T07:36:51.000Z</time>
      </trkpt>
      <trkpt lat="49.35655" lon="1.14225">
        <ele>111</ele>
        <time>2016-05-01T07:36:53.000Z</time>
      </trkpt>
      <trkpt lat="49.35648" lon="1.14232">
        <ele>115</ele>
        <time>2016-05-01T07:36:59.000Z</time>
      </trkpt>
      <trkpt lat="49.35643" lon="1.14236">
        <ele>115</ele>
        <time>2016-05-01T07:37:03.000Z</time>
      </trkpt>
      <trkpt lat="49.35643" lon="1.14236">
        <ele>115</ele>
        <time>2016-05-01T07:37:05.000Z</time>
      </trkpt>
      <trkpt lat="49.35635" lon="1.14243">
        <ele>113</ele>
        <time>2016-05-01T07:37:09.000Z</time>
      </trkpt>
      <trkpt lat="49.35631" lon="1.14249">
        <ele>112</ele>
        <time>2016-05-01T07:37:13.000Z</time>
      </trkpt>
      <trkpt lat="49.35631" lon="1.14249">
        <ele>112</ele>
        <time>2016-05-01T07:37:15.000Z</time>
      </trkpt>
      <trkpt lat="49.35631" lon="1.14249">
        <ele>112</ele>
        <time>2016-05-01T07:37:17.000Z</time>
      </trkpt>
      <trkpt lat="49.35629" lon="1.14252">
        <ele>119</ele>
        <time>2016-05-01T07:37:19.000Z</time>
      </trkpt>
      <trkpt lat="49.35626" lon="1.14256">
        <ele>121</ele>
        <time>2016-05-01T07:37:21.000Z</time>
      </trkpt>
      <trkpt lat="49.35624" lon="1.1426">
        <ele>120</ele>
        <time>2016-05-01T07:37:23.000Z</time>
      </trkpt>
      <trkpt lat="49.3562" lon="1.14264">
        <ele>122</ele>
        <time>2016-05-01T07:37:25.000Z</time>
      </trkpt>
      <trkpt lat="49.35617" lon="1.14267">
        <ele>121</ele>
        <time>2016-05-01T07:37:27.000Z</time>
      </trkpt>
      <trkpt lat="49.35609" lon="1.14273">
        <ele>124</ele>
        <time>2016-05-01T07:37:29.000Z</time>
      </trkpt>
      <trkpt lat="49.35609" lon="1.14273">
        <ele>124</ele>
        <time>2016-05-01T07:37:31.000Z</time>
      </trkpt>
      <trkpt lat="49.35603" lon="1.14278">
        <ele>128</ele>
        <time>2016-05-01T07:37:33.000Z</time>
      </trkpt>
      <trkpt lat="49.35603" lon="1.14278">
        <ele>128</ele>
        <time>2016-05-01T07:37:35.000Z</time>
      </trkpt>
      <trkpt lat="49.35595" lon="1.14282">
        <ele>129</ele>
        <time>2016-05-01T07:37:37.000Z</time>
      </trkpt>
      <trkpt lat="49.3559" lon="1.14284">
        <ele>129</ele>
        <time>2016-05-01T07:37:39.000Z</time>
      </trkpt>
      <trkpt lat="49.35579" lon="1.14288">
        <ele>128</ele>
        <time>2016-05-01T07:37:43.000Z</time>
      </trkpt>
      <trkpt lat="49.35573" lon="1.14289">
        <ele>127</ele>
        <time>2016-05-01T07:37:45.000Z</time>
      </trkpt>
      <trkpt lat="49.35567" lon="1.1429">
        <ele>126</ele>
        <time>2016-05-01T07:37:47.000Z</time>
      </trkpt>
      <trkpt lat="49.35567" lon="1.1429">
        <ele>126</ele>
        <time>2016-05-01T07:37:49.000Z</time>
      </trkpt>
      <trkpt lat="49.35557" lon="1.14291">
        <ele>128</ele>
        <time>2016-05-01T07:37:51.000Z</time>
      </trkpt>
      <trkpt lat="49.35557" lon="1.14291">
        <ele>128</ele>
        <time>2016-05-01T07:37:53.000Z</time>
      </trkpt>
      <trkpt lat="49.3555" lon="1.14302">
        <ele>127</ele>
        <time>2016-05-01T07:37:55.000Z</time>
      </trkpt>
      <trkpt lat="49.3555" lon="1.14302">
        <ele>127</ele>
        <time>2016-05-01T07:37:57.000Z</time>
      </trkpt>
      <trkpt lat="49.35553" lon="1.14318">
        <ele>122</ele>
        <time>2016-05-01T07:37:59.000Z</time>
      </trkpt>
      <trkpt lat="49.35554" lon="1.14327">
        <ele>122</ele>
        <time>2016-05-01T07:38:01.000Z</time>
      </trkpt>
      <trkpt lat="49.35555" lon="1.14336">
        <ele>121</ele>
        <time>2016-05-01T07:38:03.000Z</time>
      </trkpt>
      <trkpt lat="49.35555" lon="1.14345">
        <ele>121</ele>
        <time>2016-05-01T07:38:05.000Z</time>
      </trkpt>
      <trkpt lat="49.35555" lon="1.14355">
        <ele>120</ele>
        <time>2016-05-01T07:38:07.000Z</time>
      </trkpt>
      <trkpt lat="49.35554" lon="1.14365">
        <ele>120</ele>
        <time>2016-05-01T07:38:09.000Z</time>
      </trkpt>
      <trkpt lat="49.35553" lon="1.14375">
        <ele>120</ele>
        <time>2016-05-01T07:38:11.000Z</time>
      </trkpt>
      <trkpt lat="49.35553" lon="1.14384">
        <ele>120</ele>
        <time>2016-05-01T07:38:13.000Z</time>
      </trkpt>
      <trkpt lat="49.35553" lon="1.14393">
        <ele>120</ele>
        <time>2016-05-01T07:38:15.000Z</time>
      </trkpt>
      <trkpt lat="49.35553" lon="1.14403">
        <ele>119</ele>
        <time>2016-05-01T07:38:17.000Z</time>
      </trkpt>
      <trkpt lat="49.35554" lon="1.14413">
        <ele>120</ele>
        <time>2016-05-01T07:38:19.000Z</time>
      </trkpt>
      <trkpt lat="49.35555" lon="1.14423">
        <ele>120</ele>
        <time>2016-05-01T07:38:21.000Z</time>
      </trkpt>
      <trkpt lat="49.35556" lon="1.14434">
        <ele>120</ele>
        <time>2016-05-01T07:38:23.000Z</time>
      </trkpt>
      <trkpt lat="49.35558" lon="1.14445">
        <ele>120</ele>
        <time>2016-05-01T07:38:25.000Z</time>
      </trkpt>
      <trkpt lat="49.35558" lon="1.14456">
        <ele>120</ele>
        <time>2016-05-01T07:38:27.000Z</time>
      </trkpt>
      <trkpt lat="49.35558" lon="1.14467">
        <ele>121</ele>
        <time>2016-05-01T07:38:29.000Z</time>
      </trkpt>
      <trkpt lat="49.35558" lon="1.14477">
        <ele>121</ele>
        <time>2016-05-01T07:38:31.000Z</time>
      </trkpt>
      <trkpt lat="49.35556" lon="1.14488">
        <ele>121</ele>
        <time>2016-05-01T07:38:33.000Z</time>
      </trkpt>
      <trkpt lat="49.35555" lon="1.14499">
        <ele>121</ele>
        <time>2016-05-01T07:38:35.000Z</time>
      </trkpt>
      <trkpt lat="49.35553" lon="1.1451">
        <ele>121</ele>
        <time>2016-05-01T07:38:37.000Z</time>
      </trkpt>
      <trkpt lat="49.35551" lon="1.14522">
        <ele>121</ele>
        <time>2016-05-01T07:38:39.000Z</time>
      </trkpt>
      <trkpt lat="49.35549" lon="1.14533">
        <ele>122</ele>
        <time>2016-05-01T07:38:41.000Z</time>
      </trkpt>
      <trkpt lat="49.35546" lon="1.14544">
        <ele>122</ele>
        <time>2016-05-01T07:38:43.000Z</time>
      </trkpt>
      <trkpt lat="49.35545" lon="1.14555">
        <ele>122</ele>
        <time>2016-05-01T07:38:45.000Z</time>
      </trkpt>
      <trkpt lat="49.35544" lon="1.14566">
        <ele>122</ele>
        <time>2016-05-01T07:38:47.000Z</time>
      </trkpt>
      <trkpt lat="49.35543" lon="1.14578">
        <ele>122</ele>
        <time>2016-05-01T07:38:49.000Z</time>
      </trkpt>
      <trkpt lat="49.35542" lon="1.14588">
        <ele>123</ele>
        <time>2016-05-01T07:38:51.000Z</time>
      </trkpt>
      <trkpt lat="49.35541" lon="1.146">
        <ele>123</ele>
        <time>2016-05-01T07:38:53.000Z</time>
      </trkpt>
      <trkpt lat="49.3554" lon="1.14612">
        <ele>123</ele>
        <time>2016-05-01T07:38:55.000Z</time>
      </trkpt>
      <trkpt lat="49.35539" lon="1.14623">
        <ele>123</ele>
        <time>2016-05-01T07:38:57.000Z</time>
      </trkpt>
      <trkpt lat="49.35539" lon="1.14634">
        <ele>123</ele>
        <time>2016-05-01T07:38:59.000Z</time>
      </trkpt>
      <trkpt lat="49.35538" lon="1.14646">
        <ele>123</ele>
        <time>2016-05-01T07:39:01.000Z</time>
      </trkpt>
      <trkpt lat="49.35537" lon="1.14657">
        <ele>123</ele>
        <time>2016-05-01T07:39:03.000Z</time>
      </trkpt>
      <trkpt lat="49.35537" lon="1.14668">
        <ele>123</ele>
        <time>2016-05-01T07:39:05.000Z</time>
      </trkpt>
      <trkpt lat="49.35536" lon="1.14679">
        <ele>123</ele>
        <time>2016-05-01T07:39:07.000Z</time>
      </trkpt>
      <trkpt lat="49.35535" lon="1.1469">
        <ele>124</ele>
        <time>2016-05-01T07:39:09.000Z</time>
      </trkpt>
      <trkpt lat="49.35535" lon="1.14702">
        <ele>124</ele>
        <time>2016-05-01T07:39:11.000Z</time>
      </trkpt>
      <trkpt lat="49.35534" lon="1.14714">
        <ele>124</ele>
        <time>2016-05-01T07:39:13.000Z</time>
      </trkpt>
      <trkpt lat="49.35534" lon="1.14726">
        <ele>125</ele>
        <time>2016-05-01T07:39:15.000Z</time>
      </trkpt>
      <trkpt lat="49.35536" lon="1.14737">
        <ele>125</ele>
        <time>2016-05-01T07:39:17.000Z</time>
      </trkpt>
      <trkpt lat="49.35536" lon="1.14748">
        <ele>126</ele>
        <time>2016-05-01T07:39:19.000Z</time>
      </trkpt>
      <trkpt lat="49.35537" lon="1.1476">
        <ele>127</ele>
        <time>2016-05-01T07:39:21.000Z</time>
      </trkpt>
      <trkpt lat="49.35538" lon="1.1477">
        <ele>127</ele>
        <time>2016-05-01T07:39:23.000Z</time>
      </trkpt>
      <trkpt lat="49.35538" lon="1.1477">
        <ele>127</ele>
        <time>2016-05-01T07:39:25.000Z</time>
      </trkpt>
      <trkpt lat="49.35539" lon="1.14791">
        <ele>128</ele>
        <time>2016-05-01T07:39:27.000Z</time>
      </trkpt>
      <trkpt lat="49.3554" lon="1.14804">
        <ele>128</ele>
        <time>2016-05-01T07:39:29.000Z</time>
      </trkpt>
      <trkpt lat="49.3554" lon="1.14817">
        <ele>128</ele>
        <time>2016-05-01T07:39:31.000Z</time>
      </trkpt>
      <trkpt lat="49.35541" lon="1.1483">
        <ele>128</ele>
        <time>2016-05-01T07:39:33.000Z</time>
      </trkpt>
      <trkpt lat="49.35542" lon="1.14841">
        <ele>128</ele>
        <time>2016-05-01T07:39:35.000Z</time>
      </trkpt>
      <trkpt lat="49.35542" lon="1.14854">
        <ele>128</ele>
        <time>2016-05-01T07:39:37.000Z</time>
      </trkpt>
      <trkpt lat="49.35542" lon="1.14866">
        <ele>128</ele>
        <time>2016-05-01T07:39:39.000Z</time>
      </trkpt>
      <trkpt lat="49.35543" lon="1.1488">
        <ele>128</ele>
        <time>2016-05-01T07:39:41.000Z</time>
      </trkpt>
      <trkpt lat="49.35544" lon="1.14892">
        <ele>128</ele>
        <time>2016-05-01T07:39:43.000Z</time>
      </trkpt>
      <trkpt lat="49.35545" lon="1.14904">
        <ele>129</ele>
        <time>2016-05-01T07:39:45.000Z</time>
      </trkpt>
      <trkpt lat="49.35544" lon="1.14916">
        <ele>129</ele>
        <time>2016-05-01T07:39:47.000Z</time>
      </trkpt>
      <trkpt lat="49.35545" lon="1.14929">
        <ele>130</ele>
        <time>2016-05-01T07:39:49.000Z</time>
      </trkpt>
      <trkpt lat="49.35545" lon="1.14941">
        <ele>130</ele>
        <time>2016-05-01T07:39:51.000Z</time>
      </trkpt>
      <trkpt lat="49.35545" lon="1.14954">
        <ele>129</ele>
        <time>2016-05-01T07:39:53.000Z</time>
      </trkpt>
      <trkpt lat="49.35546" lon="1.14967">
        <ele>129</ele>
        <time>2016-05-01T07:39:55.000Z</time>
      </trkpt>
      <trkpt lat="49.35548" lon="1.1498">
        <ele>129</ele>
        <time>2016-05-01T07:39:57.000Z</time>
      </trkpt>
      <trkpt lat="49.3555" lon="1.14992">
        <ele>129</ele>
        <time>2016-05-01T07:39:59.000Z</time>
      </trkpt>
      <trkpt lat="49.35553" lon="1.15004">
        <ele>129</ele>
        <time>2016-05-01T07:40:01.000Z</time>
      </trkpt>
      <trkpt lat="49.35555" lon="1.15016">
        <ele>128</ele>
        <time>2016-05-01T07:40:03.000Z</time>
      </trkpt>
      <trkpt lat="49.35556" lon="1.15027">
        <ele>127</ele>
        <time>2016-05-01T07:40:05.000Z</time>
      </trkpt>
      <trkpt lat="49.35558" lon="1.15038">
        <ele>127</ele>
        <time>2016-05-01T07:40:07.000Z</time>
      </trkpt>
      <trkpt lat="49.35559" lon="1.15048">
        <ele>128</ele>
        <time>2016-05-01T07:40:09.000Z</time>
      </trkpt>
      <trkpt lat="49.35559" lon="1.15058">
        <ele>129</ele>
        <time>2016-05-01T07:40:11.000Z</time>
      </trkpt>
      <trkpt lat="49.3556" lon="1.15067">
        <ele>129</ele>
        <time>2016-05-01T07:40:13.000Z</time>
      </trkpt>
      <trkpt lat="49.3556" lon="1.15067">
        <ele>129</ele>
        <time>2016-05-01T07:40:15.000Z</time>
      </trkpt>
      <trkpt lat="49.35564" lon="1.15083">
        <ele>128</ele>
        <time>2016-05-01T07:40:17.000Z</time>
      </trkpt>
      <trkpt lat="49.35567" lon="1.15092">
        <ele>129</ele>
        <time>2016-05-01T07:40:19.000Z</time>
      </trkpt>
      <trkpt lat="49.3557" lon="1.15101">
        <ele>129</ele>
        <time>2016-05-01T07:40:21.000Z</time>
      </trkpt>
      <trkpt lat="49.35576" lon="1.15116">
        <ele>129</ele>
        <time>2016-05-01T07:40:25.000Z</time>
      </trkpt>
      <trkpt lat="49.35579" lon="1.15126">
        <ele>128</ele>
        <time>2016-05-01T07:40:27.000Z</time>
      </trkpt>
      <trkpt lat="49.35581" lon="1.15135">
        <ele>128</ele>
        <time>2016-05-01T07:40:29.000Z</time>
      </trkpt>
      <trkpt lat="49.35583" lon="1.15144">
        <ele>128</ele>
        <time>2016-05-01T07:40:31.000Z</time>
      </trkpt>
      <trkpt lat="49.35586" lon="1.15153">
        <ele>128</ele>
        <time>2016-05-01T07:40:33.000Z</time>
      </trkpt>
      <trkpt lat="49.35588" lon="1.15161">
        <ele>128</ele>
        <time>2016-05-01T07:40:35.000Z</time>
      </trkpt>
      <trkpt lat="49.35588" lon="1.15161">
        <ele>128</ele>
        <time>2016-05-01T07:40:37.000Z</time>
      </trkpt>
      <trkpt lat="49.35593" lon="1.15176">
        <ele>129</ele>
        <time>2016-05-01T07:40:39.000Z</time>
      </trkpt>
      <trkpt lat="49.35593" lon="1.15176">
        <ele>129</ele>
        <time>2016-05-01T07:40:41.000Z</time>
      </trkpt>
      <trkpt lat="49.35596" lon="1.15188">
        <ele>130</ele>
        <time>2016-05-01T07:40:43.000Z</time>
      </trkpt>
      <trkpt lat="49.35586" lon="1.15198">
        <ele>131</ele>
        <time>2016-05-01T07:40:47.000Z</time>
      </trkpt>
      <trkpt lat="49.3558" lon="1.152">
        <ele>131</ele>
        <time>2016-05-01T07:40:49.000Z</time>
      </trkpt>
      <trkpt lat="49.3558" lon="1.152">
        <ele>131</ele>
        <time>2016-05-01T07:40:51.000Z</time>
      </trkpt>
      <trkpt lat="49.35572" lon="1.15206">
        <ele>130</ele>
        <time>2016-05-01T07:40:53.000Z</time>
      </trkpt>
      <trkpt lat="49.35572" lon="1.15206">
        <ele>130</ele>
        <time>2016-05-01T07:40:55.000Z</time>
      </trkpt>
      <trkpt lat="49.35567" lon="1.15211">
        <ele>129</ele>
        <time>2016-05-01T07:40:57.000Z</time>
      </trkpt>
      <trkpt lat="49.35578" lon="1.15222">
        <ele>130</ele>
        <time>2016-05-01T07:41:01.000Z</time>
      </trkpt>
      <trkpt lat="49.35587" lon="1.15225">
        <ele>130</ele>
        <time>2016-05-01T07:41:03.000Z</time>
      </trkpt>
      <trkpt lat="49.35596" lon="1.15228">
        <ele>130</ele>
        <time>2016-05-01T07:41:05.000Z</time>
      </trkpt>
      <trkpt lat="49.35604" lon="1.15233">
        <ele>131</ele>
        <time>2016-05-01T07:41:07.000Z</time>
      </trkpt>
      <trkpt lat="49.35611" lon="1.1524">
        <ele>131</ele>
        <time>2016-05-01T07:41:09.000Z</time>
      </trkpt>
      <trkpt lat="49.35619" lon="1.15248">
        <ele>132</ele>
        <time>2016-05-01T07:41:11.000Z</time>
      </trkpt>
      <trkpt lat="49.35626" lon="1.15254">
        <ele>131</ele>
        <time>2016-05-01T07:41:13.000Z</time>
      </trkpt>
      <trkpt lat="49.35634" lon="1.15261">
        <ele>132</ele>
        <time>2016-05-01T07:41:15.000Z</time>
      </trkpt>
      <trkpt lat="49.35643" lon="1.15269">
        <ele>132</ele>
        <time>2016-05-01T07:41:17.000Z</time>
      </trkpt>
      <trkpt lat="49.35653" lon="1.15279">
        <ele>132</ele>
        <time>2016-05-01T07:41:19.000Z</time>
      </trkpt>
      <trkpt lat="49.35664" lon="1.15289">
        <ele>133</ele>
        <time>2016-05-01T07:41:21.000Z</time>
      </trkpt>
      <trkpt lat="49.35674" lon="1.153">
        <ele>133</ele>
        <time>2016-05-01T07:41:23.000Z</time>
      </trkpt>
      <trkpt lat="49.35685" lon="1.15311">
        <ele>134</ele>
        <time>2016-05-01T07:41:25.000Z</time>
      </trkpt>
      <trkpt lat="49.35693" lon="1.15324">
        <ele>134</ele>
        <time>2016-05-01T07:41:27.000Z</time>
      </trkpt>
      <trkpt lat="49.35701" lon="1.15335">
        <ele>135</ele>
        <time>2016-05-01T07:41:29.000Z</time>
      </trkpt>
      <trkpt lat="49.35709" lon="1.15348">
        <ele>134</ele>
        <time>2016-05-01T07:41:31.000Z</time>
      </trkpt>
      <trkpt lat="49.35716" lon="1.15359">
        <ele>134</ele>
        <time>2016-05-01T07:41:33.000Z</time>
      </trkpt>
      <trkpt lat="49.35723" lon="1.1537">
        <ele>135</ele>
        <time>2016-05-01T07:41:35.000Z</time>
      </trkpt>
      <trkpt lat="49.35729" lon="1.15381">
        <ele>135</ele>
        <time>2016-05-01T07:41:37.000Z</time>
      </trkpt>
      <trkpt lat="49.35736" lon="1.15391">
        <ele>135</ele>
        <time>2016-05-01T07:41:39.000Z</time>
      </trkpt>
      <trkpt lat="49.35742" lon="1.154">
        <ele>136</ele>
        <time>2016-05-01T07:41:41.000Z</time>
      </trkpt>
      <trkpt lat="49.35748" lon="1.1541">
        <ele>136</ele>
        <time>2016-05-01T07:41:43.000Z</time>
      </trkpt>
      <trkpt lat="49.35754" lon="1.15418">
        <ele>136</ele>
        <time>2016-05-01T07:41:45.000Z</time>
      </trkpt>
      <trkpt lat="49.3576" lon="1.15427">
        <ele>137</ele>
        <time>2016-05-01T07:41:47.000Z</time>
      </trkpt>
      <trkpt lat="49.35765" lon="1.15436">
        <ele>137</ele>
        <time>2016-05-01T07:41:49.000Z</time>
      </trkpt>
      <trkpt lat="49.3577" lon="1.15444">
        <ele>137</ele>
        <time>2016-05-01T07:41:51.000Z</time>
      </trkpt>
      <trkpt lat="49.35775" lon="1.15452">
        <ele>138</ele>
        <time>2016-05-01T07:41:53.000Z</time>
      </trkpt>
      <trkpt lat="49.35779" lon="1.1546">
        <ele>139</ele>
        <time>2016-05-01T07:41:55.000Z</time>
      </trkpt>
      <trkpt lat="49.35784" lon="1.15467">
        <ele>139</ele>
        <time>2016-05-01T07:41:57.000Z</time>
      </trkpt>
      <trkpt lat="49.35788" lon="1.15474">
        <ele>140</ele>
        <time>2016-05-01T07:41:59.000Z</time>
      </trkpt>
      <trkpt lat="49.35792" lon="1.15481">
        <ele>140</ele>
        <time>2016-05-01T07:42:01.000Z</time>
      </trkpt>
      <trkpt lat="49.35796" lon="1.15488">
        <ele>140</ele>
        <time>2016-05-01T07:42:03.000Z</time>
      </trkpt>
      <trkpt lat="49.358" lon="1.15495">
        <ele>141</ele>
        <time>2016-05-01T07:42:05.000Z</time>
      </trkpt>
      <trkpt lat="49.35804" lon="1.15502">
        <ele>141</ele>
        <time>2016-05-01T07:42:07.000Z</time>
      </trkpt>
      <trkpt lat="49.35804" lon="1.15502">
        <ele>141</ele>
        <time>2016-05-01T07:42:09.000Z</time>
      </trkpt>
      <trkpt lat="49.35812" lon="1.15515">
        <ele>142</ele>
        <time>2016-05-01T07:42:11.000Z</time>
      </trkpt>
      <trkpt lat="49.35812" lon="1.15515">
        <ele>142</ele>
        <time>2016-05-01T07:42:13.000Z</time>
      </trkpt>
      <trkpt lat="49.35819" lon="1.15526">
        <ele>143</ele>
        <time>2016-05-01T07:42:15.000Z</time>
      </trkpt>
      <trkpt lat="49.35819" lon="1.15526">
        <ele>143</ele>
        <time>2016-05-01T07:42:17.000Z</time>
      </trkpt>
      <trkpt lat="49.35825" lon="1.15538">
        <ele>143</ele>
        <time>2016-05-01T07:42:19.000Z</time>
      </trkpt>
      <trkpt lat="49.35825" lon="1.15538">
        <ele>143</ele>
        <time>2016-05-01T07:42:21.000Z</time>
      </trkpt>
      <trkpt lat="49.35831" lon="1.15551">
        <ele>145</ele>
        <time>2016-05-01T07:42:23.000Z</time>
      </trkpt>
      <trkpt lat="49.35838" lon="1.15563">
        <ele>146</ele>
        <time>2016-05-01T07:42:27.000Z</time>
      </trkpt>
      <trkpt lat="49.35838" lon="1.15563">
        <ele>146</ele>
        <time>2016-05-01T07:42:29.000Z</time>
      </trkpt>
      <trkpt lat="49.35843" lon="1.15576">
        <ele>147</ele>
        <time>2016-05-01T07:42:31.000Z</time>
      </trkpt>
      <trkpt lat="49.35843" lon="1.15576">
        <ele>147</ele>
        <time>2016-05-01T07:42:33.000Z</time>
      </trkpt>
      <trkpt lat="49.35849" lon="1.15589">
        <ele>151</ele>
        <time>2016-05-01T07:42:35.000Z</time>
      </trkpt>
      <trkpt lat="49.35849" lon="1.15589">
        <ele>151</ele>
        <time>2016-05-01T07:42:37.000Z</time>
      </trkpt>
      <trkpt lat="49.35851" lon="1.15601">
        <ele>153</ele>
        <time>2016-05-01T07:42:39.000Z</time>
      </trkpt>
      <trkpt lat="49.35851" lon="1.15601">
        <ele>153</ele>
        <time>2016-05-01T07:42:41.000Z</time>
      </trkpt>
      <trkpt lat="49.35852" lon="1.15612">
        <ele>150</ele>
        <time>2016-05-01T07:42:43.000Z</time>
      </trkpt>
      <trkpt lat="49.35857" lon="1.15622">
        <ele>148</ele>
        <time>2016-05-01T07:42:47.000Z</time>
      </trkpt>
      <trkpt lat="49.3586" lon="1.15635">
        <ele>149</ele>
        <time>2016-05-01T07:42:51.000Z</time>
      </trkpt>
      <trkpt lat="49.35861" lon="1.15648">
        <ele>153</ele>
        <time>2016-05-01T07:42:55.000Z</time>
      </trkpt>
      <trkpt lat="49.35861" lon="1.15648">
        <ele>153</ele>
        <time>2016-05-01T07:42:57.000Z</time>
      </trkpt>
      <trkpt lat="49.35858" lon="1.15656">
        <ele>156</ele>
        <time>2016-05-01T07:42:59.000Z</time>
      </trkpt>
      <trkpt lat="49.35858" lon="1.15656">
        <ele>156</ele>
        <time>2016-05-01T07:43:01.000Z</time>
      </trkpt>
      <trkpt lat="49.35858" lon="1.15656">
        <ele>156</ele>
        <time>2016-05-01T07:43:03.000Z</time>
      </trkpt>
      <trkpt lat="49.35858" lon="1.15662">
        <ele>162</ele>
        <time>2016-05-01T07:43:05.000Z</time>
      </trkpt>
      <trkpt lat="49.35859" lon="1.15667">
        <ele>163</ele>
        <time>2016-05-01T07:43:07.000Z</time>
      </trkpt>
      <trkpt lat="49.3586" lon="1.15671">
        <ele>164</ele>
        <time>2016-05-01T07:43:09.000Z</time>
      </trkpt>
      <trkpt lat="49.3586" lon="1.15671">
        <ele>164</ele>
        <time>2016-05-01T07:43:11.000Z</time>
      </trkpt>
      <trkpt lat="49.35862" lon="1.15677">
        <ele>164</ele>
        <time>2016-05-01T07:43:13.000Z</time>
      </trkpt>
      <trkpt lat="49.35863" lon="1.15682">
        <ele>164</ele>
        <time>2016-05-01T07:43:15.000Z</time>
      </trkpt>
      <trkpt lat="49.35864" lon="1.15687">
        <ele>165</ele>
        <time>2016-05-01T07:43:17.000Z</time>
      </trkpt>
      <trkpt lat="49.35864" lon="1.15687">
        <ele>165</ele>
        <time>2016-05-01T07:43:19.000Z</time>
      </trkpt>
      <trkpt lat="49.35867" lon="1.15693">
        <ele>168</ele>
        <time>2016-05-01T07:43:21.000Z</time>
      </trkpt>
      <trkpt lat="49.35869" lon="1.15698">
        <ele>168</ele>
        <time>2016-05-01T07:43:23.000Z</time>
      </trkpt>
      <trkpt lat="49.35871" lon="1.15703">
        <ele>170</ele>
        <time>2016-05-01T07:43:25.000Z</time>
      </trkpt>
      <trkpt lat="49.35874" lon="1.15709">
        <ele>173</ele>
        <time>2016-05-01T07:43:27.000Z</time>
      </trkpt>
      <trkpt lat="49.35876" lon="1.15714">
        <ele>175</ele>
        <time>2016-05-01T07:43:29.000Z</time>
      </trkpt>
      <trkpt lat="49.35881" lon="1.15723">
        <ele>177</ele>
        <time>2016-05-01T07:43:31.000Z</time>
      </trkpt>
      <trkpt lat="49.35881" lon="1.15723">
        <ele>177</ele>
        <time>2016-05-01T07:43:33.000Z</time>
      </trkpt>
      <trkpt lat="49.35886" lon="1.15733">
        <ele>174</ele>
        <time>2016-05-01T07:43:35.000Z</time>
      </trkpt>
      <trkpt lat="49.35889" lon="1.15743">
        <ele>174</ele>
        <time>2016-05-01T07:43:39.000Z</time>
      </trkpt>
      <trkpt lat="49.35889" lon="1.15743">
        <ele>174</ele>
        <time>2016-05-01T07:43:41.000Z</time>
      </trkpt>
      <trkpt lat="49.3589" lon="1.15755">
        <ele>175</ele>
        <time>2016-05-01T07:43:43.000Z</time>
      </trkpt>
      <trkpt lat="49.35895" lon="1.15767">
        <ele>176</ele>
        <time>2016-05-01T07:43:47.000Z</time>
      </trkpt>
      <trkpt lat="49.35896" lon="1.15776">
        <ele>176</ele>
        <time>2016-05-01T07:43:51.000Z</time>
      </trkpt>
      <trkpt lat="49.35888" lon="1.15789">
        <ele>176</ele>
        <time>2016-05-01T07:43:55.000Z</time>
      </trkpt>
      <trkpt lat="49.35885" lon="1.15799">
        <ele>175</ele>
        <time>2016-05-01T07:43:57.000Z</time>
      </trkpt>
      <trkpt lat="49.35881" lon="1.15808">
        <ele>156</ele>
        <time>2016-05-01T07:43:59.000Z</time>
      </trkpt>
      <trkpt lat="49.35881" lon="1.15808">
        <ele>156</ele>
        <time>2016-05-01T07:44:01.000Z</time>
      </trkpt>
      <trkpt lat="49.35875" lon="1.15821">
        <ele>170</ele>
        <time>2016-05-01T07:44:03.000Z</time>
      </trkpt>
      <trkpt lat="49.35875" lon="1.15821">
        <ele>170</ele>
        <time>2016-05-01T07:44:05.000Z</time>
      </trkpt>
      <trkpt lat="49.35871" lon="1.15833">
        <ele>173</ele>
        <time>2016-05-01T07:44:07.000Z</time>
      </trkpt>
      <trkpt lat="49.35871" lon="1.15833">
        <ele>173</ele>
        <time>2016-05-01T07:44:09.000Z</time>
      </trkpt>
      <trkpt lat="49.35869" lon="1.15845">
        <ele>171</ele>
        <time>2016-05-01T07:44:11.000Z</time>
      </trkpt>
      <trkpt lat="49.35869" lon="1.15845">
        <ele>171</ele>
        <time>2016-05-01T07:44:13.000Z</time>
      </trkpt>
      <trkpt lat="49.35868" lon="1.15856">
        <ele>181</ele>
        <time>2016-05-01T07:44:15.000Z</time>
      </trkpt>
      <trkpt lat="49.35866" lon="1.15867">
        <ele>182</ele>
        <time>2016-05-01T07:44:19.000Z</time>
      </trkpt>
      <trkpt lat="49.35866" lon="1.15867">
        <ele>182</ele>
        <time>2016-05-01T07:44:21.000Z</time>
      </trkpt>
      <trkpt lat="49.35866" lon="1.15867">
        <ele>182</ele>
        <time>2016-05-01T07:44:23.000Z</time>
      </trkpt>
      <trkpt lat="49.35859" lon="1.15873">
        <ele>182</ele>
        <time>2016-05-01T07:44:25.000Z</time>
      </trkpt>
      <trkpt lat="49.35859" lon="1.15873">
        <ele>182</ele>
        <time>2016-05-01T07:44:27.000Z</time>
      </trkpt>
      <trkpt lat="49.35857" lon="1.15882">
        <ele>181</ele>
        <time>2016-05-01T07:44:29.000Z</time>
      </trkpt>
      <trkpt lat="49.3585" lon="1.15895">
        <ele>173</ele>
        <time>2016-05-01T07:44:33.000Z</time>
      </trkpt>
      <trkpt lat="49.35847" lon="1.15904">
        <ele>174</ele>
        <time>2016-05-01T07:44:35.000Z</time>
      </trkpt>
      <trkpt lat="49.35845" lon="1.15913">
        <ele>175</ele>
        <time>2016-05-01T07:44:37.000Z</time>
      </trkpt>
      <trkpt lat="49.35845" lon="1.15913">
        <ele>175</ele>
        <time>2016-05-01T07:44:39.000Z</time>
      </trkpt>
      <trkpt lat="49.35842" lon="1.1593">
        <ele>168</ele>
        <time>2016-05-01T07:44:41.000Z</time>
      </trkpt>
      <trkpt lat="49.3584" lon="1.15939">
        <ele>175</ele>
        <time>2016-05-01T07:44:43.000Z</time>
      </trkpt>
      <trkpt lat="49.35837" lon="1.15952">
        <ele>177</ele>
        <time>2016-05-01T07:44:47.000Z</time>
      </trkpt>
      <trkpt lat="49.35837" lon="1.15952">
        <ele>177</ele>
        <time>2016-05-01T07:44:49.000Z</time>
      </trkpt>
      <trkpt lat="49.35831" lon="1.15965">
        <ele>180</ele>
        <time>2016-05-01T07:44:51.000Z</time>
      </trkpt>
      <trkpt lat="49.35832" lon="1.15974">
        <ele>182</ele>
        <time>2016-05-01T07:44:53.000Z</time>
      </trkpt>
      <trkpt lat="49.35832" lon="1.15974">
        <ele>182</ele>
        <time>2016-05-01T07:44:55.000Z</time>
      </trkpt>
      <trkpt lat="49.35829" lon="1.15986">
        <ele>185</ele>
        <time>2016-05-01T07:44:57.000Z</time>
      </trkpt>
      <trkpt lat="49.35829" lon="1.15986">
        <ele>185</ele>
        <time>2016-05-01T07:44:59.000Z</time>
      </trkpt>
      <trkpt lat="49.35821" lon="1.15992">
        <ele>187</ele>
        <time>2016-05-01T07:45:01.000Z</time>
      </trkpt>
      <trkpt lat="49.35815" lon="1.16001">
        <ele>187</ele>
        <time>2016-05-01T07:45:05.000Z</time>
      </trkpt>
      <trkpt lat="49.35811" lon="1.16008">
        <ele>186</ele>
        <time>2016-05-01T07:45:07.000Z</time>
      </trkpt>
      <trkpt lat="49.35809" lon="1.16024">
        <ele>186</ele>
        <time>2016-05-01T07:45:11.000Z</time>
      </trkpt>
      <trkpt lat="49.35809" lon="1.16024">
        <ele>186</ele>
        <time>2016-05-01T07:45:13.000Z</time>
      </trkpt>
      <trkpt lat="49.35807" lon="1.16036">
        <ele>188</ele>
        <time>2016-05-01T07:45:15.000Z</time>
      </trkpt>
      <trkpt lat="49.35807" lon="1.16036">
        <ele>188</ele>
        <time>2016-05-01T07:45:17.000Z</time>
      </trkpt>
      <trkpt lat="49.35806" lon="1.16049">
        <ele>191</ele>
        <time>2016-05-01T07:45:19.000Z</time>
      </trkpt>
      <trkpt lat="49.35806" lon="1.16049">
        <ele>191</ele>
        <time>2016-05-01T07:45:21.000Z</time>
      </trkpt>
      <trkpt lat="49.358" lon="1.1606">
        <ele>191</ele>
        <time>2016-05-01T07:45:23.000Z</time>
      </trkpt>
      <trkpt lat="49.35791" lon="1.16067">
        <ele>189</ele>
        <time>2016-05-01T07:45:27.000Z</time>
      </trkpt>
      <trkpt lat="49.35791" lon="1.16067">
        <ele>189</ele>
        <time>2016-05-01T07:45:29.000Z</time>
      </trkpt>
      <trkpt lat="49.35781" lon="1.16073">
        <ele>192</ele>
        <time>2016-05-01T07:45:31.000Z</time>
      </trkpt>
      <trkpt lat="49.35774" lon="1.16075">
        <ele>192</ele>
        <time>2016-05-01T07:45:33.000Z</time>
      </trkpt>
      <trkpt lat="49.35767" lon="1.1608">
        <ele>192</ele>
        <time>2016-05-01T07:45:35.000Z</time>
      </trkpt>
      <trkpt lat="49.35759" lon="1.16086">
        <ele>189</ele>
        <time>2016-05-01T07:45:37.000Z</time>
      </trkpt>
      <trkpt lat="49.35754" lon="1.16092">
        <ele>189</ele>
        <time>2016-05-01T07:45:39.000Z</time>
      </trkpt>
      <trkpt lat="49.35754" lon="1.16092">
        <ele>189</ele>
        <time>2016-05-01T07:45:41.000Z</time>
      </trkpt>
      <trkpt lat="49.35742" lon="1.16106">
        <ele>191</ele>
        <time>2016-05-01T07:45:43.000Z</time>
      </trkpt>
      <trkpt lat="49.35735" lon="1.16112">
        <ele>189</ele>
        <time>2016-05-01T07:45:45.000Z</time>
      </trkpt>
      <trkpt lat="49.35727" lon="1.16116">
        <ele>187</ele>
        <time>2016-05-01T07:45:47.000Z</time>
      </trkpt>
      <trkpt lat="49.3572" lon="1.1612">
        <ele>188</ele>
        <time>2016-05-01T07:45:49.000Z</time>
      </trkpt>
      <trkpt lat="49.35714" lon="1.16125">
        <ele>188</ele>
        <time>2016-05-01T07:45:51.000Z</time>
      </trkpt>
      <trkpt lat="49.35706" lon="1.1613">
        <ele>189</ele>
        <time>2016-05-01T07:45:53.000Z</time>
      </trkpt>
      <trkpt lat="49.35699" lon="1.16134">
        <ele>190</ele>
        <time>2016-05-01T07:45:55.000Z</time>
      </trkpt>
      <trkpt lat="49.35692" lon="1.16138">
        <ele>189</ele>
        <time>2016-05-01T07:45:57.000Z</time>
      </trkpt>
      <trkpt lat="49.35686" lon="1.16143">
        <ele>191</ele>
        <time>2016-05-01T07:45:59.000Z</time>
      </trkpt>
      <trkpt lat="49.35679" lon="1.16149">
        <ele>187</ele>
        <time>2016-05-01T07:46:01.000Z</time>
      </trkpt>
      <trkpt lat="49.35671" lon="1.16155">
        <ele>187</ele>
        <time>2016-05-01T07:46:03.000Z</time>
      </trkpt>
      <trkpt lat="49.35666" lon="1.16162">
        <ele>188</ele>
        <time>2016-05-01T07:46:05.000Z</time>
      </trkpt>
      <trkpt lat="49.35657" lon="1.16174">
        <ele>190</ele>
        <time>2016-05-01T07:46:07.000Z</time>
      </trkpt>
      <trkpt lat="49.35645" lon="1.16183">
        <ele>186</ele>
        <time>2016-05-01T07:46:09.000Z</time>
      </trkpt>
      <trkpt lat="49.35636" lon="1.16189">
        <ele>184</ele>
        <time>2016-05-01T07:46:11.000Z</time>
      </trkpt>
      <trkpt lat="49.35625" lon="1.16198">
        <ele>183</ele>
        <time>2016-05-01T07:46:13.000Z</time>
      </trkpt>
      <trkpt lat="49.35619" lon="1.16209">
        <ele>185</ele>
        <time>2016-05-01T07:46:15.000Z</time>
      </trkpt>
      <trkpt lat="49.35611" lon="1.16219">
        <ele>183</ele>
        <time>2016-05-01T07:46:17.000Z</time>
      </trkpt>
      <trkpt lat="49.35601" lon="1.16225">
        <ele>183</ele>
        <time>2016-05-01T07:46:19.000Z</time>
      </trkpt>
      <trkpt lat="49.35593" lon="1.16229">
        <ele>184</ele>
        <time>2016-05-01T07:46:21.000Z</time>
      </trkpt>
      <trkpt lat="49.3558" lon="1.16232">
        <ele>183</ele>
        <time>2016-05-01T07:46:23.000Z</time>
      </trkpt>
      <trkpt lat="49.35567" lon="1.16238">
        <ele>182</ele>
        <time>2016-05-01T07:46:25.000Z</time>
      </trkpt>
      <trkpt lat="49.35557" lon="1.1625">
        <ele>180</ele>
        <time>2016-05-01T07:46:27.000Z</time>
      </trkpt>
      <trkpt lat="49.35546" lon="1.16259">
        <ele>182</ele>
        <time>2016-05-01T07:46:29.000Z</time>
      </trkpt>
      <trkpt lat="49.35532" lon="1.1627">
        <ele>182</ele>
        <time>2016-05-01T07:46:31.000Z</time>
      </trkpt>
      <trkpt lat="49.35518" lon="1.16281">
        <ele>180</ele>
        <time>2016-05-01T07:46:33.000Z</time>
      </trkpt>
      <trkpt lat="49.35504" lon="1.16292">
        <ele>178</ele>
        <time>2016-05-01T07:46:35.000Z</time>
      </trkpt>
      <trkpt lat="49.35492" lon="1.16303">
        <ele>175</ele>
        <time>2016-05-01T07:46:37.000Z</time>
      </trkpt>
      <trkpt lat="49.35479" lon="1.16315">
        <ele>173</ele>
        <time>2016-05-01T07:46:39.000Z</time>
      </trkpt>
      <trkpt lat="49.35466" lon="1.16326">
        <ele>173</ele>
        <time>2016-05-01T07:46:41.000Z</time>
      </trkpt>
      <trkpt lat="49.3545" lon="1.16338">
        <ele>171</ele>
        <time>2016-05-01T07:46:43.000Z</time>
      </trkpt>
      <trkpt lat="49.35436" lon="1.16341">
        <ele>169</ele>
        <time>2016-05-01T07:46:45.000Z</time>
      </trkpt>
      <trkpt lat="49.35421" lon="1.16337">
        <ele>169</ele>
        <time>2016-05-01T07:46:47.000Z</time>
      </trkpt>
      <trkpt lat="49.35404" lon="1.16338">
        <ele>165</ele>
        <time>2016-05-01T07:46:50.000Z</time>
      </trkpt>
      <trkpt lat="49.35395" lon="1.16344">
        <ele>165</ele>
        <time>2016-05-01T07:46:52.000Z</time>
      </trkpt>
      <trkpt lat="49.35384" lon="1.16347">
        <ele>164</ele>
        <time>2016-05-01T07:46:54.000Z</time>
      </trkpt>
      <trkpt lat="49.35376" lon="1.1635">
        <ele>164</ele>
        <time>2016-05-01T07:46:56.000Z</time>
      </trkpt>
      <trkpt lat="49.35369" lon="1.16356">
        <ele>164</ele>
        <time>2016-05-01T07:46:58.000Z</time>
      </trkpt>
      <trkpt lat="49.35361" lon="1.16365">
        <ele>163</ele>
        <time>2016-05-01T07:47:00.000Z</time>
      </trkpt>
      <trkpt lat="49.35355" lon="1.16374">
        <ele>163</ele>
        <time>2016-05-01T07:47:02.000Z</time>
      </trkpt>
      <trkpt lat="49.35349" lon="1.16385">
        <ele>163</ele>
        <time>2016-05-01T07:47:04.000Z</time>
      </trkpt>
      <trkpt lat="49.35342" lon="1.16396">
        <ele>163</ele>
        <time>2016-05-01T07:47:06.000Z</time>
      </trkpt>
      <trkpt lat="49.35339" lon="1.16408">
        <ele>163</ele>
        <time>2016-05-01T07:47:08.000Z</time>
      </trkpt>
      <trkpt lat="49.35335" lon="1.16421">
        <ele>164</ele>
        <time>2016-05-01T07:47:10.000Z</time>
      </trkpt>
      <trkpt lat="49.35326" lon="1.16429">
        <ele>164</ele>
        <time>2016-05-01T07:47:12.000Z</time>
      </trkpt>
      <trkpt lat="49.35315" lon="1.16437">
        <ele>165</ele>
        <time>2016-05-01T07:47:14.000Z</time>
      </trkpt>
      <trkpt lat="49.35302" lon="1.16445">
        <ele>165</ele>
        <time>2016-05-01T07:47:16.000Z</time>
      </trkpt>
      <trkpt lat="49.35291" lon="1.16453">
        <ele>166</ele>
        <time>2016-05-01T07:47:18.000Z</time>
      </trkpt>
      <trkpt lat="49.35279" lon="1.1646">
        <ele>166</ele>
        <time>2016-05-01T07:47:20.000Z</time>
      </trkpt>
      <trkpt lat="49.35269" lon="1.16467">
        <ele>166</ele>
        <time>2016-05-01T07:47:22.000Z</time>
      </trkpt>
      <trkpt lat="49.35258" lon="1.16473">
        <ele>165</ele>
        <time>2016-05-01T07:47:24.000Z</time>
      </trkpt>
      <trkpt lat="49.35248" lon="1.16478">
        <ele>166</ele>
        <time>2016-05-01T07:47:26.000Z</time>
      </trkpt>
      <trkpt lat="49.35238" lon="1.16478">
        <ele>165</ele>
        <time>2016-05-01T07:47:28.000Z</time>
      </trkpt>
      <trkpt lat="49.35226" lon="1.16477">
        <ele>165</ele>
        <time>2016-05-01T07:47:30.000Z</time>
      </trkpt>
      <trkpt lat="49.35214" lon="1.16476">
        <ele>164</ele>
        <time>2016-05-01T07:47:32.000Z</time>
      </trkpt>
      <trkpt lat="49.35203" lon="1.16475">
        <ele>164</ele>
        <time>2016-05-01T07:47:34.000Z</time>
      </trkpt>
      <trkpt lat="49.35191" lon="1.16476">
        <ele>163</ele>
        <time>2016-05-01T07:47:36.000Z</time>
      </trkpt>
      <trkpt lat="49.3518" lon="1.16475">
        <ele>162</ele>
        <time>2016-05-01T07:47:38.000Z</time>
      </trkpt>
      <trkpt lat="49.3517" lon="1.16475">
        <ele>161</ele>
        <time>2016-05-01T07:47:40.000Z</time>
      </trkpt>
      <trkpt lat="49.3516" lon="1.16475">
        <ele>160</ele>
        <time>2016-05-01T07:47:42.000Z</time>
      </trkpt>
      <trkpt lat="49.35148" lon="1.16475">
        <ele>160</ele>
        <time>2016-05-01T07:47:44.000Z</time>
      </trkpt>
      <trkpt lat="49.35135" lon="1.16475">
        <ele>158</ele>
        <time>2016-05-01T07:47:46.000Z</time>
      </trkpt>
      <trkpt lat="49.35123" lon="1.16478">
        <ele>157</ele>
        <time>2016-05-01T07:47:48.000Z</time>
      </trkpt>
      <trkpt lat="49.35108" lon="1.16487">
        <ele>157</ele>
        <time>2016-05-01T07:47:50.000Z</time>
      </trkpt>
      <trkpt lat="49.35095" lon="1.16496">
        <ele>156</ele>
        <time>2016-05-01T07:47:52.000Z</time>
      </trkpt>
      <trkpt lat="49.3508" lon="1.16505">
        <ele>155</ele>
        <time>2016-05-01T07:47:54.000Z</time>
      </trkpt>
      <trkpt lat="49.35064" lon="1.16507">
        <ele>154</ele>
        <time>2016-05-01T07:47:56.000Z</time>
      </trkpt>
      <trkpt lat="49.35046" lon="1.16501">
        <ele>152</ele>
        <time>2016-05-01T07:47:58.000Z</time>
      </trkpt>
      <trkpt lat="49.35032" lon="1.16498">
        <ele>151</ele>
        <time>2016-05-01T07:48:00.000Z</time>
      </trkpt>
      <trkpt lat="49.35021" lon="1.165">
        <ele>149</ele>
        <time>2016-05-01T07:48:05.000Z</time>
      </trkpt>
      <trkpt lat="49.35021" lon="1.165">
        <ele>149</ele>
        <time>2016-05-01T07:48:07.000Z</time>
      </trkpt>
      <trkpt lat="49.35021" lon="1.165">
        <ele>149</ele>
        <time>2016-05-01T07:48:09.000Z</time>
      </trkpt>
      <trkpt lat="49.35002" lon="1.16506">
        <ele>150</ele>
        <time>2016-05-01T07:48:18.000Z</time>
      </trkpt>
      <trkpt lat="49.34994" lon="1.16502">
        <ele>150</ele>
        <time>2016-05-01T07:48:20.000Z</time>
      </trkpt>
      <trkpt lat="49.34987" lon="1.16492">
        <ele>149</ele>
        <time>2016-05-01T07:48:22.000Z</time>
      </trkpt>
      <trkpt lat="49.34979" lon="1.16478">
        <ele>148</ele>
        <time>2016-05-01T07:48:24.000Z</time>
      </trkpt>
      <trkpt lat="49.3497" lon="1.16463">
        <ele>148</ele>
        <time>2016-05-01T07:48:26.000Z</time>
      </trkpt>
      <trkpt lat="49.34961" lon="1.16447">
        <ele>147</ele>
        <time>2016-05-01T07:48:28.000Z</time>
      </trkpt>
      <trkpt lat="49.3495" lon="1.16434">
        <ele>147</ele>
        <time>2016-05-01T07:48:30.000Z</time>
      </trkpt>
      <trkpt lat="49.34938" lon="1.16424">
        <ele>146</ele>
        <time>2016-05-01T07:48:32.000Z</time>
      </trkpt>
      <trkpt lat="49.34927" lon="1.16413">
        <ele>145</ele>
        <time>2016-05-01T07:48:34.000Z</time>
      </trkpt>
      <trkpt lat="49.34917" lon="1.16404">
        <ele>144</ele>
        <time>2016-05-01T07:48:36.000Z</time>
      </trkpt>
      <trkpt lat="49.34908" lon="1.16398">
        <ele>144</ele>
        <time>2016-05-01T07:48:38.000Z</time>
      </trkpt>
      <trkpt lat="49.34899" lon="1.16398">
        <ele>144</ele>
        <time>2016-05-01T07:48:40.000Z</time>
      </trkpt>
      <trkpt lat="49.34893" lon="1.16404">
        <ele>144</ele>
        <time>2016-05-01T07:48:42.000Z</time>
      </trkpt>
      <trkpt lat="49.34887" lon="1.16412">
        <ele>144</ele>
        <time>2016-05-01T07:48:44.000Z</time>
      </trkpt>
      <trkpt lat="49.34879" lon="1.1642">
        <ele>145</ele>
        <time>2016-05-01T07:48:46.000Z</time>
      </trkpt>
      <trkpt lat="49.3487" lon="1.16425">
        <ele>145</ele>
        <time>2016-05-01T07:48:48.000Z</time>
      </trkpt>
      <trkpt lat="49.3486" lon="1.16428">
        <ele>145</ele>
        <time>2016-05-01T07:48:50.000Z</time>
      </trkpt>
      <trkpt lat="49.34849" lon="1.16428">
        <ele>145</ele>
        <time>2016-05-01T07:48:52.000Z</time>
      </trkpt>
      <trkpt lat="49.34837" lon="1.16429">
        <ele>145</ele>
        <time>2016-05-01T07:48:54.000Z</time>
      </trkpt>
      <trkpt lat="49.34825" lon="1.16431">
        <ele>144</ele>
        <time>2016-05-01T07:48:56.000Z</time>
      </trkpt>
      <trkpt lat="49.34814" lon="1.16435">
        <ele>144</ele>
        <time>2016-05-01T07:48:58.000Z</time>
      </trkpt>
      <trkpt lat="49.34804" lon="1.16441">
        <ele>143</ele>
        <time>2016-05-01T07:49:00.000Z</time>
      </trkpt>
      <trkpt lat="49.34796" lon="1.16449">
        <ele>142</ele>
        <time>2016-05-01T07:49:02.000Z</time>
      </trkpt>
      <trkpt lat="49.34789" lon="1.16455">
        <ele>141</ele>
        <time>2016-05-01T07:49:04.000Z</time>
      </trkpt>
      <trkpt lat="49.3478" lon="1.16464">
        <ele>141</ele>
        <time>2016-05-01T07:49:06.000Z</time>
      </trkpt>
      <trkpt lat="49.34771" lon="1.16475">
        <ele>141</ele>
        <time>2016-05-01T07:49:08.000Z</time>
      </trkpt>
      <trkpt lat="49.34765" lon="1.16487">
        <ele>139</ele>
        <time>2016-05-01T07:49:10.000Z</time>
      </trkpt>
      <trkpt lat="49.34756" lon="1.16496">
        <ele>140</ele>
        <time>2016-05-01T07:49:12.000Z</time>
      </trkpt>
      <trkpt lat="49.34749" lon="1.16508">
        <ele>140</ele>
        <time>2016-05-01T07:49:14.000Z</time>
      </trkpt>
      <trkpt lat="49.34741" lon="1.16521">
        <ele>139</ele>
        <time>2016-05-01T07:49:16.000Z</time>
      </trkpt>
      <trkpt lat="49.34735" lon="1.16535">
        <ele>140</ele>
        <time>2016-05-01T07:49:18.000Z</time>
      </trkpt>
      <trkpt lat="49.34732" lon="1.1655">
        <ele>141</ele>
        <time>2016-05-01T07:49:20.000Z</time>
      </trkpt>
      <trkpt lat="49.34731" lon="1.16564">
        <ele>142</ele>
        <time>2016-05-01T07:49:22.000Z</time>
      </trkpt>
      <trkpt lat="49.34729" lon="1.16581">
        <ele>143</ele>
        <time>2016-05-01T07:49:24.000Z</time>
      </trkpt>
      <trkpt lat="49.34727" lon="1.166">
        <ele>144</ele>
        <time>2016-05-01T07:49:26.000Z</time>
      </trkpt>
      <trkpt lat="49.34725" lon="1.1662">
        <ele>145</ele>
        <time>2016-05-01T07:49:28.000Z</time>
      </trkpt>
      <trkpt lat="49.34723" lon="1.16639">
        <ele>146</ele>
        <time>2016-05-01T07:49:30.000Z</time>
      </trkpt>
      <trkpt lat="49.34723" lon="1.16657">
        <ele>147</ele>
        <time>2016-05-01T07:49:32.000Z</time>
      </trkpt>
      <trkpt lat="49.34721" lon="1.16673">
        <ele>148</ele>
        <time>2016-05-01T07:49:34.000Z</time>
      </trkpt>
      <trkpt lat="49.34719" lon="1.16687">
        <ele>148</ele>
        <time>2016-05-01T07:49:36.000Z</time>
      </trkpt>
      <trkpt lat="49.34718" lon="1.167">
        <ele>149</ele>
        <time>2016-05-01T07:49:38.000Z</time>
      </trkpt>
      <trkpt lat="49.34711" lon="1.167">
        <ele>150</ele>
        <time>2016-05-01T07:49:40.000Z</time>
      </trkpt>
      <trkpt lat="49.34708" lon="1.16687">
        <ele>151</ele>
        <time>2016-05-01T07:49:42.000Z</time>
      </trkpt>
      <trkpt lat="49.34705" lon="1.16671">
        <ele>151</ele>
        <time>2016-05-01T07:49:44.000Z</time>
      </trkpt>
      <trkpt lat="49.347" lon="1.16655">
        <ele>150</ele>
        <time>2016-05-01T07:49:46.000Z</time>
      </trkpt>
      <trkpt lat="49.34694" lon="1.1664">
        <ele>150</ele>
        <time>2016-05-01T07:49:48.000Z</time>
      </trkpt>
      <trkpt lat="49.34686" lon="1.16624">
        <ele>149</ele>
        <time>2016-05-01T07:49:50.000Z</time>
      </trkpt>
      <trkpt lat="49.34678" lon="1.16611">
        <ele>148</ele>
        <time>2016-05-01T07:49:52.000Z</time>
      </trkpt>
      <trkpt lat="49.34669" lon="1.166">
        <ele>148</ele>
        <time>2016-05-01T07:49:54.000Z</time>
      </trkpt>
      <trkpt lat="49.34659" lon="1.1659">
        <ele>148</ele>
        <time>2016-05-01T07:49:56.000Z</time>
      </trkpt>
      <trkpt lat="49.34649" lon="1.16582">
        <ele>147</ele>
        <time>2016-05-01T07:49:58.000Z</time>
      </trkpt>
      <trkpt lat="49.34637" lon="1.16574">
        <ele>147</ele>
        <time>2016-05-01T07:50:00.000Z</time>
      </trkpt>
      <trkpt lat="49.34624" lon="1.16567">
        <ele>146</ele>
        <time>2016-05-01T07:50:02.000Z</time>
      </trkpt>
      <trkpt lat="49.3461" lon="1.16558">
        <ele>146</ele>
        <time>2016-05-01T07:50:04.000Z</time>
      </trkpt>
      <trkpt lat="49.34595" lon="1.1655">
        <ele>145</ele>
        <time>2016-05-01T07:50:06.000Z</time>
      </trkpt>
      <trkpt lat="49.34579" lon="1.16541">
        <ele>144</ele>
        <time>2016-05-01T07:50:08.000Z</time>
      </trkpt>
      <trkpt lat="49.3456" lon="1.16531">
        <ele>143</ele>
        <time>2016-05-01T07:50:10.000Z</time>
      </trkpt>
      <trkpt lat="49.34529" lon="1.16515">
        <ele>141</ele>
        <time>2016-05-01T07:50:13.000Z</time>
      </trkpt>
      <trkpt lat="49.34507" lon="1.16503">
        <ele>139</ele>
        <time>2016-05-01T07:50:15.000Z</time>
      </trkpt>
      <trkpt lat="49.34486" lon="1.16488">
        <ele>138</ele>
        <time>2016-05-01T07:50:17.000Z</time>
      </trkpt>
      <trkpt lat="49.34466" lon="1.16469">
        <ele>137</ele>
        <time>2016-05-01T07:50:19.000Z</time>
      </trkpt>
      <trkpt lat="49.3445" lon="1.16445">
        <ele>135</ele>
        <time>2016-05-01T07:50:21.000Z</time>
      </trkpt>
      <trkpt lat="49.3444" lon="1.16418">
        <ele>134</ele>
        <time>2016-05-01T07:50:23.000Z</time>
      </trkpt>
      <trkpt lat="49.34437" lon="1.16393">
        <ele>132</ele>
        <time>2016-05-01T07:50:25.000Z</time>
      </trkpt>
      <trkpt lat="49.34427" lon="1.16376">
        <ele>132</ele>
        <time>2016-05-01T07:50:29.000Z</time>
      </trkpt>
      <trkpt lat="49.34421" lon="1.16384">
        <ele>132</ele>
        <time>2016-05-01T07:50:31.000Z</time>
      </trkpt>
      <trkpt lat="49.34416" lon="1.16393">
        <ele>132</ele>
        <time>2016-05-01T07:50:33.000Z</time>
      </trkpt>
      <trkpt lat="49.3441" lon="1.16403">
        <ele>132</ele>
        <time>2016-05-01T07:50:35.000Z</time>
      </trkpt>
      <trkpt lat="49.34402" lon="1.16411">
        <ele>132</ele>
        <time>2016-05-01T07:50:37.000Z</time>
      </trkpt>
      <trkpt lat="49.34395" lon="1.16417">
        <ele>132</ele>
        <time>2016-05-01T07:50:39.000Z</time>
      </trkpt>
      <trkpt lat="49.34387" lon="1.16423">
        <ele>132</ele>
        <time>2016-05-01T07:50:41.000Z</time>
      </trkpt>
      <trkpt lat="49.34378" lon="1.16427">
        <ele>132</ele>
        <time>2016-05-01T07:50:43.000Z</time>
      </trkpt>
      <trkpt lat="49.34369" lon="1.16432">
        <ele>132</ele>
        <time>2016-05-01T07:50:45.000Z</time>
      </trkpt>
      <trkpt lat="49.34359" lon="1.16438">
        <ele>133</ele>
        <time>2016-05-01T07:50:47.000Z</time>
      </trkpt>
      <trkpt lat="49.3435" lon="1.16442">
        <ele>134</ele>
        <time>2016-05-01T07:50:49.000Z</time>
      </trkpt>
      <trkpt lat="49.34341" lon="1.16447">
        <ele>134</ele>
        <time>2016-05-01T07:50:51.000Z</time>
      </trkpt>
      <trkpt lat="49.34331" lon="1.16451">
        <ele>134</ele>
        <time>2016-05-01T07:50:53.000Z</time>
      </trkpt>
      <trkpt lat="49.34322" lon="1.16457">
        <ele>133</ele>
        <time>2016-05-01T07:50:55.000Z</time>
      </trkpt>
      <trkpt lat="49.34312" lon="1.16462">
        <ele>134</ele>
        <time>2016-05-01T07:50:57.000Z</time>
      </trkpt>
      <trkpt lat="49.34303" lon="1.16466">
        <ele>133</ele>
        <time>2016-05-01T07:50:59.000Z</time>
      </trkpt>
      <trkpt lat="49.34296" lon="1.16476">
        <ele>135</ele>
        <time>2016-05-01T07:51:01.000Z</time>
      </trkpt>
      <trkpt lat="49.3429" lon="1.16486">
        <ele>134</ele>
        <time>2016-05-01T07:51:03.000Z</time>
      </trkpt>
      <trkpt lat="49.34282" lon="1.16495">
        <ele>136</ele>
        <time>2016-05-01T07:51:05.000Z</time>
      </trkpt>
      <trkpt lat="49.34274" lon="1.16506">
        <ele>137</ele>
        <time>2016-05-01T07:51:07.000Z</time>
      </trkpt>
      <trkpt lat="49.34267" lon="1.16517">
        <ele>138</ele>
        <time>2016-05-01T07:51:09.000Z</time>
      </trkpt>
      <trkpt lat="49.34262" lon="1.16525">
        <ele>142</ele>
        <time>2016-05-01T07:51:11.000Z</time>
      </trkpt>
      <trkpt lat="49.34258" lon="1.16537">
        <ele>142</ele>
        <time>2016-05-01T07:51:13.000Z</time>
      </trkpt>
      <trkpt lat="49.34253" lon="1.16544">
        <ele>142</ele>
        <time>2016-05-01T07:51:15.000Z</time>
      </trkpt>
      <trkpt lat="49.34245" lon="1.1655">
        <ele>143</ele>
        <time>2016-05-01T07:51:17.000Z</time>
      </trkpt>
      <trkpt lat="49.34239" lon="1.16559">
        <ele>144</ele>
        <time>2016-05-01T07:51:19.000Z</time>
      </trkpt>
      <trkpt lat="49.34231" lon="1.16567">
        <ele>144</ele>
        <time>2016-05-01T07:51:21.000Z</time>
      </trkpt>
      <trkpt lat="49.34222" lon="1.16577">
        <ele>146</ele>
        <time>2016-05-01T07:51:23.000Z</time>
      </trkpt>
      <trkpt lat="49.34214" lon="1.16586">
        <ele>147</ele>
        <time>2016-05-01T07:51:25.000Z</time>
      </trkpt>
      <trkpt lat="49.34204" lon="1.16595">
        <ele>147</ele>
        <time>2016-05-01T07:51:27.000Z</time>
      </trkpt>
      <trkpt lat="49.34196" lon="1.16605">
        <ele>147</ele>
        <time>2016-05-01T07:51:29.000Z</time>
      </trkpt>
      <trkpt lat="49.34188" lon="1.16613">
        <ele>147</ele>
        <time>2016-05-01T07:51:31.000Z</time>
      </trkpt>
      <trkpt lat="49.34178" lon="1.16618">
        <ele>149</ele>
        <time>2016-05-01T07:51:33.000Z</time>
      </trkpt>
      <trkpt lat="49.34171" lon="1.16627">
        <ele>150</ele>
        <time>2016-05-01T07:51:35.000Z</time>
      </trkpt>
      <trkpt lat="49.34163" lon="1.16636">
        <ele>151</ele>
        <time>2016-05-01T07:51:37.000Z</time>
      </trkpt>
      <trkpt lat="49.34155" lon="1.16645">
        <ele>150</ele>
        <time>2016-05-01T07:51:39.000Z</time>
      </trkpt>
      <trkpt lat="49.34148" lon="1.16653">
        <ele>150</ele>
        <time>2016-05-01T07:51:41.000Z</time>
      </trkpt>
      <trkpt lat="49.34142" lon="1.16661">
        <ele>149</ele>
        <time>2016-05-01T07:51:43.000Z</time>
      </trkpt>
      <trkpt lat="49.34134" lon="1.16666">
        <ele>148</ele>
        <time>2016-05-01T07:51:45.000Z</time>
      </trkpt>
      <trkpt lat="49.34125" lon="1.1667">
        <ele>148</ele>
        <time>2016-05-01T07:51:47.000Z</time>
      </trkpt>
      <trkpt lat="49.34116" lon="1.16674">
        <ele>147</ele>
        <time>2016-05-01T07:51:49.000Z</time>
      </trkpt>
      <trkpt lat="49.34108" lon="1.16677">
        <ele>146</ele>
        <time>2016-05-01T07:51:51.000Z</time>
      </trkpt>
      <trkpt lat="49.34098" lon="1.16682">
        <ele>145</ele>
        <time>2016-05-01T07:51:53.000Z</time>
      </trkpt>
      <trkpt lat="49.34089" lon="1.16687">
        <ele>144</ele>
        <time>2016-05-01T07:51:55.000Z</time>
      </trkpt>
      <trkpt lat="49.34082" lon="1.16689">
        <ele>145</ele>
        <time>2016-05-01T07:51:57.000Z</time>
      </trkpt>
      <trkpt lat="49.34074" lon="1.16692">
        <ele>146</ele>
        <time>2016-05-01T07:51:59.000Z</time>
      </trkpt>
      <trkpt lat="49.34067" lon="1.16695">
        <ele>148</ele>
        <time>2016-05-01T07:52:01.000Z</time>
      </trkpt>
      <trkpt lat="49.3406" lon="1.16696">
        <ele>148</ele>
        <time>2016-05-01T07:52:03.000Z</time>
      </trkpt>
      <trkpt lat="49.34052" lon="1.16697">
        <ele>148</ele>
        <time>2016-05-01T07:52:05.000Z</time>
      </trkpt>
      <trkpt lat="49.34044" lon="1.16699">
        <ele>150</ele>
        <time>2016-05-01T07:52:07.000Z</time>
      </trkpt>
      <trkpt lat="49.34036" lon="1.16702">
        <ele>150</ele>
        <time>2016-05-01T07:52:09.000Z</time>
      </trkpt>
      <trkpt lat="49.34026" lon="1.16705">
        <ele>150</ele>
        <time>2016-05-01T07:52:11.000Z</time>
      </trkpt>
      <trkpt lat="49.34018" lon="1.16707">
        <ele>150</ele>
        <time>2016-05-01T07:52:13.000Z</time>
      </trkpt>
      <trkpt lat="49.34008" lon="1.16709">
        <ele>148</ele>
        <time>2016-05-01T07:52:15.000Z</time>
      </trkpt>
      <trkpt lat="49.33999" lon="1.16711">
        <ele>148</ele>
        <time>2016-05-01T07:52:17.000Z</time>
      </trkpt>
      <trkpt lat="49.33991" lon="1.16715">
        <ele>151</ele>
        <time>2016-05-01T07:52:19.000Z</time>
      </trkpt>
      <trkpt lat="49.33984" lon="1.16716">
        <ele>151</ele>
        <time>2016-05-01T07:52:21.000Z</time>
      </trkpt>
      <trkpt lat="49.33976" lon="1.16717">
        <ele>151</ele>
        <time>2016-05-01T07:52:23.000Z</time>
      </trkpt>
      <trkpt lat="49.33969" lon="1.1672">
        <ele>153</ele>
        <time>2016-05-01T07:52:25.000Z</time>
      </trkpt>
      <trkpt lat="49.33962" lon="1.16724">
        <ele>155</ele>
        <time>2016-05-01T07:52:27.000Z</time>
      </trkpt>
      <trkpt lat="49.33955" lon="1.16724">
        <ele>155</ele>
        <time>2016-05-01T07:52:29.000Z</time>
      </trkpt>
      <trkpt lat="49.33949" lon="1.16725">
        <ele>155</ele>
        <time>2016-05-01T07:52:31.000Z</time>
      </trkpt>
      <trkpt lat="49.33941" lon="1.16727">
        <ele>154</ele>
        <time>2016-05-01T07:52:33.000Z</time>
      </trkpt>
      <trkpt lat="49.33934" lon="1.1673">
        <ele>154</ele>
        <time>2016-05-01T07:52:35.000Z</time>
      </trkpt>
      <trkpt lat="49.33926" lon="1.16733">
        <ele>154</ele>
        <time>2016-05-01T07:52:37.000Z</time>
      </trkpt>
      <trkpt lat="49.33918" lon="1.16736">
        <ele>152</ele>
        <time>2016-05-01T07:52:39.000Z</time>
      </trkpt>
      <trkpt lat="49.3391" lon="1.16739">
        <ele>152</ele>
        <time>2016-05-01T07:52:41.000Z</time>
      </trkpt>
      <trkpt lat="49.33902" lon="1.16741">
        <ele>151</ele>
        <time>2016-05-01T07:52:43.000Z</time>
      </trkpt>
      <trkpt lat="49.33891" lon="1.16739">
        <ele>151</ele>
        <time>2016-05-01T07:52:45.000Z</time>
      </trkpt>
      <trkpt lat="49.33881" lon="1.1674">
        <ele>151</ele>
        <time>2016-05-01T07:52:47.000Z</time>
      </trkpt>
      <trkpt lat="49.33871" lon="1.16741">
        <ele>151</ele>
        <time>2016-05-01T07:52:49.000Z</time>
      </trkpt>
      <trkpt lat="49.3386" lon="1.16742">
        <ele>151</ele>
        <time>2016-05-01T07:52:51.000Z</time>
      </trkpt>
      <trkpt lat="49.33851" lon="1.16743">
        <ele>151</ele>
        <time>2016-05-01T07:52:53.000Z</time>
      </trkpt>
      <trkpt lat="49.33844" lon="1.1675">
        <ele>153</ele>
        <time>2016-05-01T07:52:55.000Z</time>
      </trkpt>
      <trkpt lat="49.33839" lon="1.16758">
        <ele>154</ele>
        <time>2016-05-01T07:52:57.000Z</time>
      </trkpt>
      <trkpt lat="49.33827" lon="1.16764">
        <ele>154</ele>
        <time>2016-05-01T07:53:00.000Z</time>
      </trkpt>
      <trkpt lat="49.33823" lon="1.16749">
        <ele>152</ele>
        <time>2016-05-01T07:53:02.000Z</time>
      </trkpt>
      <trkpt lat="49.3382" lon="1.16739">
        <ele>153</ele>
        <time>2016-05-01T07:53:04.000Z</time>
      </trkpt>
      <trkpt lat="49.33812" lon="1.16725">
        <ele>152</ele>
        <time>2016-05-01T07:53:06.000Z</time>
      </trkpt>
      <trkpt lat="49.33802" lon="1.16715">
        <ele>152</ele>
        <time>2016-05-01T07:53:08.000Z</time>
      </trkpt>
      <trkpt lat="49.33788" lon="1.16717">
        <ele>153</ele>
        <time>2016-05-01T07:53:10.000Z</time>
      </trkpt>
      <trkpt lat="49.33776" lon="1.16717">
        <ele>154</ele>
        <time>2016-05-01T07:53:12.000Z</time>
      </trkpt>
      <trkpt lat="49.33767" lon="1.16713">
        <ele>154</ele>
        <time>2016-05-01T07:53:15.000Z</time>
      </trkpt>
      <trkpt lat="49.33762" lon="1.1672">
        <ele>153</ele>
        <time>2016-05-01T07:53:17.000Z</time>
      </trkpt>
      <trkpt lat="49.33756" lon="1.16724">
        <ele>153</ele>
        <time>2016-05-01T07:53:19.000Z</time>
      </trkpt>
      <trkpt lat="49.33756" lon="1.16724">
        <ele>153</ele>
        <time>2016-05-01T07:53:21.000Z</time>
      </trkpt>
      <trkpt lat="49.33748" lon="1.16717">
        <ele>152</ele>
        <time>2016-05-01T07:53:23.000Z</time>
      </trkpt>
      <trkpt lat="49.33748" lon="1.16717">
        <ele>152</ele>
        <time>2016-05-01T07:53:25.000Z</time>
      </trkpt>
      <trkpt lat="49.33738" lon="1.16706">
        <ele>155</ele>
        <time>2016-05-01T07:53:27.000Z</time>
      </trkpt>
      <trkpt lat="49.3373" lon="1.16694">
        <ele>154</ele>
        <time>2016-05-01T07:53:29.000Z</time>
      </trkpt>
      <trkpt lat="49.33725" lon="1.16687">
        <ele>154</ele>
        <time>2016-05-01T07:53:31.000Z</time>
      </trkpt>
      <trkpt lat="49.33715" lon="1.16687">
        <ele>153</ele>
        <time>2016-05-01T07:53:33.000Z</time>
      </trkpt>
      <trkpt lat="49.33704" lon="1.1669">
        <ele>152</ele>
        <time>2016-05-01T07:53:35.000Z</time>
      </trkpt>
      <trkpt lat="49.33694" lon="1.16694">
        <ele>152</ele>
        <time>2016-05-01T07:53:37.000Z</time>
      </trkpt>
      <trkpt lat="49.33689" lon="1.16702">
        <ele>153</ele>
        <time>2016-05-01T07:53:39.000Z</time>
      </trkpt>
      <trkpt lat="49.33685" lon="1.16709">
        <ele>152</ele>
        <time>2016-05-01T07:53:41.000Z</time>
      </trkpt>
      <trkpt lat="49.33682" lon="1.16717">
        <ele>151</ele>
        <time>2016-05-01T07:53:43.000Z</time>
      </trkpt>
      <trkpt lat="49.33678" lon="1.16726">
        <ele>150</ele>
        <time>2016-05-01T07:53:45.000Z</time>
      </trkpt>
      <trkpt lat="49.33674" lon="1.16733">
        <ele>150</ele>
        <time>2016-05-01T07:53:47.000Z</time>
      </trkpt>
      <trkpt lat="49.33668" lon="1.16741">
        <ele>151</ele>
        <time>2016-05-01T07:53:49.000Z</time>
      </trkpt>
      <trkpt lat="49.33661" lon="1.16746">
        <ele>152</ele>
        <time>2016-05-01T07:53:51.000Z</time>
      </trkpt>
      <trkpt lat="49.33653" lon="1.16752">
        <ele>151</ele>
        <time>2016-05-01T07:53:53.000Z</time>
      </trkpt>
      <trkpt lat="49.33646" lon="1.16757">
        <ele>152</ele>
        <time>2016-05-01T07:53:55.000Z</time>
      </trkpt>
      <trkpt lat="49.33641" lon="1.16763">
        <ele>154</ele>
        <time>2016-05-01T07:53:57.000Z</time>
      </trkpt>
      <trkpt lat="49.33636" lon="1.1677">
        <ele>154</ele>
        <time>2016-05-01T07:53:59.000Z</time>
      </trkpt>
      <trkpt lat="49.33629" lon="1.16776">
        <ele>154</ele>
        <time>2016-05-01T07:54:01.000Z</time>
      </trkpt>
      <trkpt lat="49.33624" lon="1.16783">
        <ele>160</ele>
        <time>2016-05-01T07:54:03.000Z</time>
      </trkpt>
      <trkpt lat="49.33621" lon="1.16792">
        <ele>158</ele>
        <time>2016-05-01T07:54:05.000Z</time>
      </trkpt>
      <trkpt lat="49.33616" lon="1.16801">
        <ele>157</ele>
        <time>2016-05-01T07:54:07.000Z</time>
      </trkpt>
      <trkpt lat="49.33611" lon="1.16811">
        <ele>158</ele>
        <time>2016-05-01T07:54:09.000Z</time>
      </trkpt>
      <trkpt lat="49.33606" lon="1.16822">
        <ele>158</ele>
        <time>2016-05-01T07:54:11.000Z</time>
      </trkpt>
      <trkpt lat="49.33603" lon="1.16833">
        <ele>162</ele>
        <time>2016-05-01T07:54:13.000Z</time>
      </trkpt>
      <trkpt lat="49.33601" lon="1.16843">
        <ele>160</ele>
        <time>2016-05-01T07:54:15.000Z</time>
      </trkpt>
      <trkpt lat="49.33601" lon="1.16843">
        <ele>160</ele>
        <time>2016-05-01T07:54:17.000Z</time>
      </trkpt>
      <trkpt lat="49.33599" lon="1.16854">
        <ele>159</ele>
        <time>2016-05-01T07:54:19.000Z</time>
      </trkpt>
      <trkpt lat="49.33599" lon="1.16854">
        <ele>159</ele>
        <time>2016-05-01T07:54:21.000Z</time>
      </trkpt>
      <trkpt lat="49.33599" lon="1.16854">
        <ele>159</ele>
        <time>2016-05-01T07:54:23.000Z</time>
      </trkpt>
      <trkpt lat="49.33604" lon="1.16862">
        <ele>159</ele>
        <time>2016-05-01T07:54:25.000Z</time>
      </trkpt>
      <trkpt lat="49.33611" lon="1.1687">
        <ele>160</ele>
        <time>2016-05-01T07:54:29.000Z</time>
      </trkpt>
      <trkpt lat="49.3362" lon="1.16883">
        <ele>163</ele>
        <time>2016-05-01T07:54:33.000Z</time>
      </trkpt>
      <trkpt lat="49.33625" lon="1.16888">
        <ele>165</ele>
        <time>2016-05-01T07:54:35.000Z</time>
      </trkpt>
      <trkpt lat="49.33625" lon="1.16888">
        <ele>165</ele>
        <time>2016-05-01T07:54:37.000Z</time>
      </trkpt>
      <trkpt lat="49.33634" lon="1.16897">
        <ele>167</ele>
        <time>2016-05-01T07:54:39.000Z</time>
      </trkpt>
      <trkpt lat="49.33639" lon="1.16903">
        <ele>169</ele>
        <time>2016-05-01T07:54:41.000Z</time>
      </trkpt>
      <trkpt lat="49.33644" lon="1.16909">
        <ele>171</ele>
        <time>2016-05-01T07:54:43.000Z</time>
      </trkpt>
      <trkpt lat="49.33644" lon="1.16909">
        <ele>171</ele>
        <time>2016-05-01T07:54:45.000Z</time>
      </trkpt>
      <trkpt lat="49.3365" lon="1.16919">
        <ele>158</ele>
        <time>2016-05-01T07:54:47.000Z</time>
      </trkpt>
      <trkpt lat="49.33653" lon="1.16926">
        <ele>143</ele>
        <time>2016-05-01T07:54:49.000Z</time>
      </trkpt>
      <trkpt lat="49.33657" lon="1.16934">
        <ele>156</ele>
        <time>2016-05-01T07:54:51.000Z</time>
      </trkpt>
      <trkpt lat="49.33664" lon="1.16949">
        <ele>169</ele>
        <time>2016-05-01T07:54:55.000Z</time>
      </trkpt>
      <trkpt lat="49.33668" lon="1.16956">
        <ele>168</ele>
        <time>2016-05-01T07:54:57.000Z</time>
      </trkpt>
      <trkpt lat="49.33674" lon="1.16965">
        <ele>170</ele>
        <time>2016-05-01T07:54:59.000Z</time>
      </trkpt>
      <trkpt lat="49.3368" lon="1.16972">
        <ele>170</ele>
        <time>2016-05-01T07:55:01.000Z</time>
      </trkpt>
      <trkpt lat="49.33687" lon="1.16982">
        <ele>172</ele>
        <time>2016-05-01T07:55:04.000Z</time>
      </trkpt>
      <trkpt lat="49.33692" lon="1.16989">
        <ele>172</ele>
        <time>2016-05-01T07:55:06.000Z</time>
      </trkpt>
      <trkpt lat="49.33696" lon="1.16994">
        <ele>173</ele>
        <time>2016-05-01T07:55:08.000Z</time>
      </trkpt>
      <trkpt lat="49.33701" lon="1.17">
        <ele>173</ele>
        <time>2016-05-01T07:55:10.000Z</time>
      </trkpt>
      <trkpt lat="49.3371" lon="1.17011">
        <ele>173</ele>
        <time>2016-05-01T07:55:14.000Z</time>
      </trkpt>
      <trkpt lat="49.33717" lon="1.17017">
        <ele>174</ele>
        <time>2016-05-01T07:55:16.000Z</time>
      </trkpt>
      <trkpt lat="49.33722" lon="1.17023">
        <ele>174</ele>
        <time>2016-05-01T07:55:18.000Z</time>
      </trkpt>
      <trkpt lat="49.33728" lon="1.17031">
        <ele>175</ele>
        <time>2016-05-01T07:55:20.000Z</time>
      </trkpt>
      <trkpt lat="49.33733" lon="1.17041">
        <ele>175</ele>
        <time>2016-05-01T07:55:22.000Z</time>
      </trkpt>
      <trkpt lat="49.33738" lon="1.1705">
        <ele>175</ele>
        <time>2016-05-01T07:55:24.000Z</time>
      </trkpt>
      <trkpt lat="49.33743" lon="1.17059">
        <ele>175</ele>
        <time>2016-05-01T07:55:26.000Z</time>
      </trkpt>
      <trkpt lat="49.33749" lon="1.17066">
        <ele>175</ele>
        <time>2016-05-01T07:55:28.000Z</time>
      </trkpt>
      <trkpt lat="49.33753" lon="1.17073">
        <ele>176</ele>
        <time>2016-05-01T07:55:30.000Z</time>
      </trkpt>
      <trkpt lat="49.33759" lon="1.17081">
        <ele>175</ele>
        <time>2016-05-01T07:55:32.000Z</time>
      </trkpt>
      <trkpt lat="49.33764" lon="1.17088">
        <ele>175</ele>
        <time>2016-05-01T07:55:34.000Z</time>
      </trkpt>
      <trkpt lat="49.33764" lon="1.17088">
        <ele>175</ele>
        <time>2016-05-01T07:55:36.000Z</time>
      </trkpt>
      <trkpt lat="49.33772" lon="1.17096">
        <ele>174</ele>
        <time>2016-05-01T07:55:38.000Z</time>
      </trkpt>
      <trkpt lat="49.33777" lon="1.17102">
        <ele>175</ele>
        <time>2016-05-01T07:55:40.000Z</time>
      </trkpt>
      <trkpt lat="49.33783" lon="1.17109">
        <ele>175</ele>
        <time>2016-05-01T07:55:42.000Z</time>
      </trkpt>
      <trkpt lat="49.33788" lon="1.17116">
        <ele>175</ele>
        <time>2016-05-01T07:55:44.000Z</time>
      </trkpt>
      <trkpt lat="49.33794" lon="1.17123">
        <ele>151</ele>
        <time>2016-05-01T07:55:46.000Z</time>
      </trkpt>
      <trkpt lat="49.33801" lon="1.1713">
        <ele>165</ele>
        <time>2016-05-01T07:55:48.000Z</time>
      </trkpt>
      <trkpt lat="49.33806" lon="1.17136">
        <ele>175</ele>
        <time>2016-05-01T07:55:50.000Z</time>
      </trkpt>
      <trkpt lat="49.33812" lon="1.17141">
        <ele>176</ele>
        <time>2016-05-01T07:55:52.000Z</time>
      </trkpt>
      <trkpt lat="49.33817" lon="1.17144">
        <ele>177</ele>
        <time>2016-05-01T07:55:54.000Z</time>
      </trkpt>
      <trkpt lat="49.33817" lon="1.17144">
        <ele>177</ele>
        <time>2016-05-01T07:55:56.000Z</time>
      </trkpt>
      <trkpt lat="49.33823" lon="1.1715">
        <ele>178</ele>
        <time>2016-05-01T07:55:58.000Z</time>
      </trkpt>
      <trkpt lat="49.33829" lon="1.17156">
        <ele>178</ele>
        <time>2016-05-01T07:56:00.000Z</time>
      </trkpt>
      <trkpt lat="49.33835" lon="1.17163">
        <ele>178</ele>
        <time>2016-05-01T07:56:02.000Z</time>
      </trkpt>
      <trkpt lat="49.33842" lon="1.17172">
        <ele>178</ele>
        <time>2016-05-01T07:56:04.000Z</time>
      </trkpt>
      <trkpt lat="49.33847" lon="1.17181">
        <ele>177</ele>
        <time>2016-05-01T07:56:06.000Z</time>
      </trkpt>
      <trkpt lat="49.33852" lon="1.1719">
        <ele>177</ele>
        <time>2016-05-01T07:56:08.000Z</time>
      </trkpt>
      <trkpt lat="49.33856" lon="1.17198">
        <ele>176</ele>
        <time>2016-05-01T07:56:10.000Z</time>
      </trkpt>
      <trkpt lat="49.33861" lon="1.17204">
        <ele>177</ele>
        <time>2016-05-01T07:56:12.000Z</time>
      </trkpt>
      <trkpt lat="49.33861" lon="1.17204">
        <ele>177</ele>
        <time>2016-05-01T07:56:14.000Z</time>
      </trkpt>
      <trkpt lat="49.3387" lon="1.17212">
        <ele>177</ele>
        <time>2016-05-01T07:56:16.000Z</time>
      </trkpt>
      <trkpt lat="49.3387" lon="1.17212">
        <ele>177</ele>
        <time>2016-05-01T07:56:18.000Z</time>
      </trkpt>
      <trkpt lat="49.33879" lon="1.17213">
        <ele>179</ele>
        <time>2016-05-01T07:56:20.000Z</time>
      </trkpt>
      <trkpt lat="49.33885" lon="1.1721">
        <ele>179</ele>
        <time>2016-05-01T07:56:22.000Z</time>
      </trkpt>
      <trkpt lat="49.33889" lon="1.17203">
        <ele>179</ele>
        <time>2016-05-01T07:56:24.000Z</time>
      </trkpt>
      <trkpt lat="49.33895" lon="1.17189">
        <ele>179</ele>
        <time>2016-05-01T07:56:28.000Z</time>
      </trkpt>
      <trkpt lat="49.33895" lon="1.17189">
        <ele>179</ele>
        <time>2016-05-01T07:56:30.000Z</time>
      </trkpt>
      <trkpt lat="49.33902" lon="1.17175">
        <ele>172</ele>
        <time>2016-05-01T07:56:32.000Z</time>
      </trkpt>
      <trkpt lat="49.33907" lon="1.1717">
        <ele>176</ele>
        <time>2016-05-01T07:56:34.000Z</time>
      </trkpt>
      <trkpt lat="49.33913" lon="1.17166">
        <ele>179</ele>
        <time>2016-05-01T07:56:36.000Z</time>
      </trkpt>
      <trkpt lat="49.33917" lon="1.17159">
        <ele>180</ele>
        <time>2016-05-01T07:56:38.000Z</time>
      </trkpt>
      <trkpt lat="49.3392" lon="1.17149">
        <ele>180</ele>
        <time>2016-05-01T07:56:40.000Z</time>
      </trkpt>
      <trkpt lat="49.33921" lon="1.1714">
        <ele>182</ele>
        <time>2016-05-01T07:56:42.000Z</time>
      </trkpt>
      <trkpt lat="49.33921" lon="1.1714">
        <ele>182</ele>
        <time>2016-05-01T07:56:44.000Z</time>
      </trkpt>
      <trkpt lat="49.33926" lon="1.17125">
        <ele>178</ele>
        <time>2016-05-01T07:56:46.000Z</time>
      </trkpt>
      <trkpt lat="49.33926" lon="1.17125">
        <ele>178</ele>
        <time>2016-05-01T07:56:48.000Z</time>
      </trkpt>
      <trkpt lat="49.33933" lon="1.17114">
        <ele>177</ele>
        <time>2016-05-01T07:56:50.000Z</time>
      </trkpt>
      <trkpt lat="49.33933" lon="1.17114">
        <ele>177</ele>
        <time>2016-05-01T07:56:52.000Z</time>
      </trkpt>
      <trkpt lat="49.33938" lon="1.171">
        <ele>176</ele>
        <time>2016-05-01T07:56:54.000Z</time>
      </trkpt>
      <trkpt lat="49.33942" lon="1.1709">
        <ele>172</ele>
        <time>2016-05-01T07:56:56.000Z</time>
      </trkpt>
      <trkpt lat="49.33947" lon="1.17083">
        <ele>174</ele>
        <time>2016-05-01T07:56:58.000Z</time>
      </trkpt>
      <trkpt lat="49.33952" lon="1.17079">
        <ele>174</ele>
        <time>2016-05-01T07:57:00.000Z</time>
      </trkpt>
      <trkpt lat="49.33958" lon="1.17078">
        <ele>174</ele>
        <time>2016-05-01T07:57:02.000Z</time>
      </trkpt>
      <trkpt lat="49.33964" lon="1.17078">
        <ele>174</ele>
        <time>2016-05-01T07:57:04.000Z</time>
      </trkpt>
      <trkpt lat="49.33964" lon="1.17078">
        <ele>174</ele>
        <time>2016-05-01T07:57:06.000Z</time>
      </trkpt>
      <trkpt lat="49.33973" lon="1.1708">
        <ele>175</ele>
        <time>2016-05-01T07:57:08.000Z</time>
      </trkpt>
      <trkpt lat="49.33973" lon="1.1708">
        <ele>175</ele>
        <time>2016-05-01T07:57:10.000Z</time>
      </trkpt>
      <trkpt lat="49.33982" lon="1.17082">
        <ele>176</ele>
        <time>2016-05-01T07:57:12.000Z</time>
      </trkpt>
      <trkpt lat="49.33982" lon="1.17082">
        <ele>176</ele>
        <time>2016-05-01T07:57:14.000Z</time>
      </trkpt>
      <trkpt lat="49.3399" lon="1.17084">
        <ele>176</ele>
        <time>2016-05-01T07:57:16.000Z</time>
      </trkpt>
      <trkpt lat="49.34" lon="1.17089">
        <ele>176</ele>
        <time>2016-05-01T07:57:20.000Z</time>
      </trkpt>
      <trkpt lat="49.34" lon="1.17089">
        <ele>176</ele>
        <time>2016-05-01T07:57:22.000Z</time>
      </trkpt>
      <trkpt lat="49.34006" lon="1.17099">
        <ele>177</ele>
        <time>2016-05-01T07:57:24.000Z</time>
      </trkpt>
      <trkpt lat="49.34006" lon="1.17099">
        <ele>177</ele>
        <time>2016-05-01T07:57:26.000Z</time>
      </trkpt>
      <trkpt lat="49.34008" lon="1.17109">
        <ele>178</ele>
        <time>2016-05-01T07:57:28.000Z</time>
      </trkpt>
      <trkpt lat="49.34008" lon="1.17109">
        <ele>178</ele>
        <time>2016-05-01T07:57:30.000Z</time>
      </trkpt>
      <trkpt lat="49.34011" lon="1.17121">
        <ele>177</ele>
        <time>2016-05-01T07:57:32.000Z</time>
      </trkpt>
      <trkpt lat="49.34013" lon="1.17133">
        <ele>177</ele>
        <time>2016-05-01T07:57:36.000Z</time>
      </trkpt>
      <trkpt lat="49.34013" lon="1.17133">
        <ele>177</ele>
        <time>2016-05-01T07:57:38.000Z</time>
      </trkpt>
      <trkpt lat="49.34013" lon="1.17145">
        <ele>178</ele>
        <time>2016-05-01T07:57:40.000Z</time>
      </trkpt>
      <trkpt lat="49.34013" lon="1.17145">
        <ele>178</ele>
        <time>2016-05-01T07:57:42.000Z</time>
      </trkpt>
      <trkpt lat="49.34016" lon="1.1715">
        <ele>179</ele>
        <time>2016-05-01T07:57:44.000Z</time>
      </trkpt>
      <trkpt lat="49.34019" lon="1.17156">
        <ele>181</ele>
        <time>2016-05-01T07:57:46.000Z</time>
      </trkpt>
      <trkpt lat="49.34023" lon="1.1716">
        <ele>183</ele>
        <time>2016-05-01T07:57:48.000Z</time>
      </trkpt>
      <trkpt lat="49.34028" lon="1.17164">
        <ele>184</ele>
        <time>2016-05-01T07:57:50.000Z</time>
      </trkpt>
      <trkpt lat="49.34033" lon="1.17166">
        <ele>185</ele>
        <time>2016-05-01T07:57:52.000Z</time>
      </trkpt>
      <trkpt lat="49.34042" lon="1.17169">
        <ele>186</ele>
        <time>2016-05-01T07:57:54.000Z</time>
      </trkpt>
      <trkpt lat="49.34042" lon="1.17169">
        <ele>186</ele>
        <time>2016-05-01T07:57:56.000Z</time>
      </trkpt>
      <trkpt lat="49.34049" lon="1.17169">
        <ele>185</ele>
        <time>2016-05-01T07:57:58.000Z</time>
      </trkpt>
      <trkpt lat="49.34055" lon="1.1717">
        <ele>186</ele>
        <time>2016-05-01T07:58:00.000Z</time>
      </trkpt>
      <trkpt lat="49.34063" lon="1.17169">
        <ele>186</ele>
        <time>2016-05-01T07:58:02.000Z</time>
      </trkpt>
      <trkpt lat="49.34071" lon="1.1717">
        <ele>184</ele>
        <time>2016-05-01T07:58:04.000Z</time>
      </trkpt>
      <trkpt lat="49.34077" lon="1.17171">
        <ele>185</ele>
        <time>2016-05-01T07:58:06.000Z</time>
      </trkpt>
      <trkpt lat="49.34077" lon="1.17171">
        <ele>185</ele>
        <time>2016-05-01T07:58:08.000Z</time>
      </trkpt>
      <trkpt lat="49.3409" lon="1.17172">
        <ele>185</ele>
        <time>2016-05-01T07:58:10.000Z</time>
      </trkpt>
      <trkpt lat="49.34098" lon="1.17172">
        <ele>160</ele>
        <time>2016-05-01T07:58:12.000Z</time>
      </trkpt>
      <trkpt lat="49.34105" lon="1.17173">
        <ele>171</ele>
        <time>2016-05-01T07:58:14.000Z</time>
      </trkpt>
      <trkpt lat="49.34105" lon="1.17173">
        <ele>171</ele>
        <time>2016-05-01T07:58:16.000Z</time>
      </trkpt>
      <trkpt lat="49.34116" lon="1.17175">
        <ele>177</ele>
        <time>2016-05-01T07:58:18.000Z</time>
      </trkpt>
      <trkpt lat="49.34116" lon="1.17175">
        <ele>177</ele>
        <time>2016-05-01T07:58:20.000Z</time>
      </trkpt>
      <trkpt lat="49.34124" lon="1.17182">
        <ele>180</ele>
        <time>2016-05-01T07:58:22.000Z</time>
      </trkpt>
      <trkpt lat="49.34135" lon="1.17188">
        <ele>180</ele>
        <time>2016-05-01T07:58:26.000Z</time>
      </trkpt>
      <trkpt lat="49.34141" lon="1.17192">
        <ele>182</ele>
        <time>2016-05-01T07:58:28.000Z</time>
      </trkpt>
      <trkpt lat="49.34147" lon="1.17197">
        <ele>181</ele>
        <time>2016-05-01T07:58:30.000Z</time>
      </trkpt>
      <trkpt lat="49.34154" lon="1.17205">
        <ele>156</ele>
        <time>2016-05-01T07:58:32.000Z</time>
      </trkpt>
      <trkpt lat="49.3416" lon="1.17213">
        <ele>168</ele>
        <time>2016-05-01T07:58:34.000Z</time>
      </trkpt>
      <trkpt lat="49.34165" lon="1.17221">
        <ele>173</ele>
        <time>2016-05-01T07:58:36.000Z</time>
      </trkpt>
      <trkpt lat="49.34165" lon="1.17221">
        <ele>173</ele>
        <time>2016-05-01T07:58:38.000Z</time>
      </trkpt>
      <trkpt lat="49.3417" lon="1.17238">
        <ele>176</ele>
        <time>2016-05-01T07:58:40.000Z</time>
      </trkpt>
      <trkpt lat="49.34172" lon="1.17246">
        <ele>177</ele>
        <time>2016-05-01T07:58:42.000Z</time>
      </trkpt>
      <trkpt lat="49.34174" lon="1.17256">
        <ele>176</ele>
        <time>2016-05-01T07:58:44.000Z</time>
      </trkpt>
      <trkpt lat="49.34177" lon="1.17265">
        <ele>176</ele>
        <time>2016-05-01T07:58:46.000Z</time>
      </trkpt>
      <trkpt lat="49.3418" lon="1.17275">
        <ele>178</ele>
        <time>2016-05-01T07:58:48.000Z</time>
      </trkpt>
      <trkpt lat="49.34186" lon="1.173">
        <ele>180</ele>
        <time>2016-05-01T07:58:51.000Z</time>
      </trkpt>
      <trkpt lat="49.34189" lon="1.17315">
        <ele>180</ele>
        <time>2016-05-01T07:58:53.000Z</time>
      </trkpt>
      <trkpt lat="49.34192" lon="1.17327">
        <ele>183</ele>
        <time>2016-05-01T07:58:55.000Z</time>
      </trkpt>
      <trkpt lat="49.34198" lon="1.17336">
        <ele>183</ele>
        <time>2016-05-01T07:58:57.000Z</time>
      </trkpt>
      <trkpt lat="49.34206" lon="1.17344">
        <ele>183</ele>
        <time>2016-05-01T07:58:59.000Z</time>
      </trkpt>
      <trkpt lat="49.34211" lon="1.17349">
        <ele>184</ele>
        <time>2016-05-01T07:59:01.000Z</time>
      </trkpt>
      <trkpt lat="49.34221" lon="1.17357">
        <ele>187</ele>
        <time>2016-05-01T07:59:04.000Z</time>
      </trkpt>
      <trkpt lat="49.3423" lon="1.17359">
        <ele>189</ele>
        <time>2016-05-01T07:59:06.000Z</time>
      </trkpt>
      <trkpt lat="49.3424" lon="1.17358">
        <ele>186</ele>
        <time>2016-05-01T07:59:08.000Z</time>
      </trkpt>
      <trkpt lat="49.34254" lon="1.17358">
        <ele>185</ele>
        <time>2016-05-01T07:59:10.000Z</time>
      </trkpt>
      <trkpt lat="49.34265" lon="1.17357">
        <ele>184</ele>
        <time>2016-05-01T07:59:12.000Z</time>
      </trkpt>
      <trkpt lat="49.34279" lon="1.17353">
        <ele>184</ele>
        <time>2016-05-01T07:59:14.000Z</time>
      </trkpt>
      <trkpt lat="49.34295" lon="1.17351">
        <ele>187</ele>
        <time>2016-05-01T07:59:16.000Z</time>
      </trkpt>
      <trkpt lat="49.34309" lon="1.17348">
        <ele>185</ele>
        <time>2016-05-01T07:59:18.000Z</time>
      </trkpt>
      <trkpt lat="49.34325" lon="1.17345">
        <ele>186</ele>
        <time>2016-05-01T07:59:20.000Z</time>
      </trkpt>
      <trkpt lat="49.3434" lon="1.17343">
        <ele>188</ele>
        <time>2016-05-01T07:59:22.000Z</time>
      </trkpt>
      <trkpt lat="49.34357" lon="1.17342">
        <ele>191</ele>
        <time>2016-05-01T07:59:24.000Z</time>
      </trkpt>
      <trkpt lat="49.34379" lon="1.17342">
        <ele>194</ele>
        <time>2016-05-01T07:59:28.000Z</time>
      </trkpt>
      <trkpt lat="49.34393" lon="1.17337">
        <ele>196</ele>
        <time>2016-05-01T07:59:30.000Z</time>
      </trkpt>
      <trkpt lat="49.34406" lon="1.17334">
        <ele>195</ele>
        <time>2016-05-01T07:59:32.000Z</time>
      </trkpt>
      <trkpt lat="49.34417" lon="1.17327">
        <ele>188</ele>
        <time>2016-05-01T07:59:35.000Z</time>
      </trkpt>
      <trkpt lat="49.34417" lon="1.17327">
        <ele>188</ele>
        <time>2016-05-01T07:59:37.000Z</time>
      </trkpt>
      <trkpt lat="49.34438" lon="1.17326">
        <ele>182</ele>
        <time>2016-05-01T07:59:40.000Z</time>
      </trkpt>
      <trkpt lat="49.34447" lon="1.17322">
        <ele>183</ele>
        <time>2016-05-01T07:59:42.000Z</time>
      </trkpt>
      <trkpt lat="49.34457" lon="1.17321">
        <ele>182</ele>
        <time>2016-05-01T07:59:44.000Z</time>
      </trkpt>
      <trkpt lat="49.34467" lon="1.1732">
        <ele>181</ele>
        <time>2016-05-01T07:59:46.000Z</time>
      </trkpt>
      <trkpt lat="49.34475" lon="1.17317">
        <ele>181</ele>
        <time>2016-05-01T07:59:48.000Z</time>
      </trkpt>
      <trkpt lat="49.34484" lon="1.17316">
        <ele>181</ele>
        <time>2016-05-01T07:59:50.000Z</time>
      </trkpt>
      <trkpt lat="49.34493" lon="1.17314">
        <ele>181</ele>
        <time>2016-05-01T07:59:52.000Z</time>
      </trkpt>
      <trkpt lat="49.34501" lon="1.17311">
        <ele>180</ele>
        <time>2016-05-01T07:59:54.000Z</time>
      </trkpt>
      <trkpt lat="49.3451" lon="1.1731">
        <ele>181</ele>
        <time>2016-05-01T07:59:56.000Z</time>
      </trkpt>
      <trkpt lat="49.34518" lon="1.17308">
        <ele>182</ele>
        <time>2016-05-01T07:59:58.000Z</time>
      </trkpt>
      <trkpt lat="49.34527" lon="1.17307">
        <ele>183</ele>
        <time>2016-05-01T08:00:00.000Z</time>
      </trkpt>
      <trkpt lat="49.34535" lon="1.17304">
        <ele>183</ele>
        <time>2016-05-01T08:00:02.000Z</time>
      </trkpt>
      <trkpt lat="49.34542" lon="1.17303">
        <ele>185</ele>
        <time>2016-05-01T08:00:04.000Z</time>
      </trkpt>
      <trkpt lat="49.34549" lon="1.17302">
        <ele>186</ele>
        <time>2016-05-01T08:00:06.000Z</time>
      </trkpt>
      <trkpt lat="49.34555" lon="1.17303">
        <ele>185</ele>
        <time>2016-05-01T08:00:08.000Z</time>
      </trkpt>
      <trkpt lat="49.3456" lon="1.1731">
        <ele>184</ele>
        <time>2016-05-01T08:00:10.000Z</time>
      </trkpt>
      <trkpt lat="49.34563" lon="1.17321">
        <ele>185</ele>
        <time>2016-05-01T08:00:12.000Z</time>
      </trkpt>
      <trkpt lat="49.34565" lon="1.17332">
        <ele>185</ele>
        <time>2016-05-01T08:00:14.000Z</time>
      </trkpt>
      <trkpt lat="49.34566" lon="1.17343">
        <ele>185</ele>
        <time>2016-05-01T08:00:16.000Z</time>
      </trkpt>
      <trkpt lat="49.34567" lon="1.17353">
        <ele>186</ele>
        <time>2016-05-01T08:00:18.000Z</time>
      </trkpt>
      <trkpt lat="49.34567" lon="1.17363">
        <ele>188</ele>
        <time>2016-05-01T08:00:20.000Z</time>
      </trkpt>
      <trkpt lat="49.34567" lon="1.17374">
        <ele>190</ele>
        <time>2016-05-01T08:00:22.000Z</time>
      </trkpt>
      <trkpt lat="49.34568" lon="1.17385">
        <ele>191</ele>
        <time>2016-05-01T08:00:24.000Z</time>
      </trkpt>
      <trkpt lat="49.3457" lon="1.17396">
        <ele>192</ele>
        <time>2016-05-01T08:00:26.000Z</time>
      </trkpt>
      <trkpt lat="49.34571" lon="1.1741">
        <ele>191</ele>
        <time>2016-05-01T08:00:28.000Z</time>
      </trkpt>
      <trkpt lat="49.34576" lon="1.17422">
        <ele>188</ele>
        <time>2016-05-01T08:00:30.000Z</time>
      </trkpt>
      <trkpt lat="49.34586" lon="1.17431">
        <ele>188</ele>
        <time>2016-05-01T08:00:32.000Z</time>
      </trkpt>
      <trkpt lat="49.34598" lon="1.17436">
        <ele>187</ele>
        <time>2016-05-01T08:00:34.000Z</time>
      </trkpt>
      <trkpt lat="49.3461" lon="1.1744">
        <ele>187</ele>
        <time>2016-05-01T08:00:36.000Z</time>
      </trkpt>
      <trkpt lat="49.34622" lon="1.17448">
        <ele>185</ele>
        <time>2016-05-01T08:00:38.000Z</time>
      </trkpt>
      <trkpt lat="49.34636" lon="1.17459">
        <ele>184</ele>
        <time>2016-05-01T08:00:40.000Z</time>
      </trkpt>
      <trkpt lat="49.34651" lon="1.17474">
        <ele>183</ele>
        <time>2016-05-01T08:00:42.000Z</time>
      </trkpt>
      <trkpt lat="49.34666" lon="1.17491">
        <ele>183</ele>
        <time>2016-05-01T08:00:44.000Z</time>
      </trkpt>
      <trkpt lat="49.34681" lon="1.17509">
        <ele>183</ele>
        <time>2016-05-01T08:00:46.000Z</time>
      </trkpt>
      <trkpt lat="49.34695" lon="1.17527">
        <ele>182</ele>
        <time>2016-05-01T08:00:48.000Z</time>
      </trkpt>
      <trkpt lat="49.3471" lon="1.17545">
        <ele>182</ele>
        <time>2016-05-01T08:00:50.000Z</time>
      </trkpt>
      <trkpt lat="49.34724" lon="1.17564">
        <ele>182</ele>
        <time>2016-05-01T08:00:52.000Z</time>
      </trkpt>
      <trkpt lat="49.34738" lon="1.17581">
        <ele>182</ele>
        <time>2016-05-01T08:00:54.000Z</time>
      </trkpt>
      <trkpt lat="49.34751" lon="1.17598">
        <ele>182</ele>
        <time>2016-05-01T08:00:56.000Z</time>
      </trkpt>
      <trkpt lat="49.34761" lon="1.17615">
        <ele>181</ele>
        <time>2016-05-01T08:00:58.000Z</time>
      </trkpt>
      <trkpt lat="49.34771" lon="1.17631">
        <ele>181</ele>
        <time>2016-05-01T08:01:00.000Z</time>
      </trkpt>
      <trkpt lat="49.34779" lon="1.17648">
        <ele>182</ele>
        <time>2016-05-01T08:01:02.000Z</time>
      </trkpt>
      <trkpt lat="49.34785" lon="1.17666">
        <ele>182</ele>
        <time>2016-05-01T08:01:04.000Z</time>
      </trkpt>
      <trkpt lat="49.3479" lon="1.17683">
        <ele>182</ele>
        <time>2016-05-01T08:01:06.000Z</time>
      </trkpt>
      <trkpt lat="49.34793" lon="1.17699">
        <ele>181</ele>
        <time>2016-05-01T08:01:08.000Z</time>
      </trkpt>
      <trkpt lat="49.34796" lon="1.17715">
        <ele>181</ele>
        <time>2016-05-01T08:01:10.000Z</time>
      </trkpt>
      <trkpt lat="49.34799" lon="1.17728">
        <ele>180</ele>
        <time>2016-05-01T08:01:12.000Z</time>
      </trkpt>
      <trkpt lat="49.34803" lon="1.17743">
        <ele>180</ele>
        <time>2016-05-01T08:01:14.000Z</time>
      </trkpt>
      <trkpt lat="49.34805" lon="1.17755">
        <ele>180</ele>
        <time>2016-05-01T08:01:16.000Z</time>
      </trkpt>
      <trkpt lat="49.34807" lon="1.17767">
        <ele>180</ele>
        <time>2016-05-01T08:01:18.000Z</time>
      </trkpt>
      <trkpt lat="49.34808" lon="1.17777">
        <ele>179</ele>
        <time>2016-05-01T08:01:20.000Z</time>
      </trkpt>
      <trkpt lat="49.34809" lon="1.17786">
        <ele>178</ele>
        <time>2016-05-01T08:01:22.000Z</time>
      </trkpt>
      <trkpt lat="49.3481" lon="1.17797">
        <ele>179</ele>
        <time>2016-05-01T08:01:24.000Z</time>
      </trkpt>
      <trkpt lat="49.34806" lon="1.17804">
        <ele>180</ele>
        <time>2016-05-01T08:01:26.000Z</time>
      </trkpt>
      <trkpt lat="49.34801" lon="1.17806">
        <ele>180</ele>
        <time>2016-05-01T08:01:28.000Z</time>
      </trkpt>
      <trkpt lat="49.34795" lon="1.17807">
        <ele>180</ele>
        <time>2016-05-01T08:01:30.000Z</time>
      </trkpt>
      <trkpt lat="49.34789" lon="1.17809">
        <ele>180</ele>
        <time>2016-05-01T08:01:32.000Z</time>
      </trkpt>
      <trkpt lat="49.34782" lon="1.17811">
        <ele>181</ele>
        <time>2016-05-01T08:01:34.000Z</time>
      </trkpt>
      <trkpt lat="49.34776" lon="1.17813">
        <ele>180</ele>
        <time>2016-05-01T08:01:36.000Z</time>
      </trkpt>
      <trkpt lat="49.34769" lon="1.17816">
        <ele>181</ele>
        <time>2016-05-01T08:01:38.000Z</time>
      </trkpt>
      <trkpt lat="49.34762" lon="1.17818">
        <ele>181</ele>
        <time>2016-05-01T08:01:40.000Z</time>
      </trkpt>
      <trkpt lat="49.34755" lon="1.1782">
        <ele>182</ele>
        <time>2016-05-01T08:01:42.000Z</time>
      </trkpt>
      <trkpt lat="49.34748" lon="1.17821">
        <ele>182</ele>
        <time>2016-05-01T08:01:44.000Z</time>
      </trkpt>
      <trkpt lat="49.34742" lon="1.17823">
        <ele>182</ele>
        <time>2016-05-01T08:01:46.000Z</time>
      </trkpt>
      <trkpt lat="49.34735" lon="1.17825">
        <ele>182</ele>
        <time>2016-05-01T08:01:48.000Z</time>
      </trkpt>
      <trkpt lat="49.34729" lon="1.17826">
        <ele>182</ele>
        <time>2016-05-01T08:01:50.000Z</time>
      </trkpt>
      <trkpt lat="49.34723" lon="1.17828">
        <ele>183</ele>
        <time>2016-05-01T08:01:52.000Z</time>
      </trkpt>
      <trkpt lat="49.34717" lon="1.17829">
        <ele>183</ele>
        <time>2016-05-01T08:01:54.000Z</time>
      </trkpt>
      <trkpt lat="49.34711" lon="1.17831">
        <ele>182</ele>
        <time>2016-05-01T08:01:56.000Z</time>
      </trkpt>
      <trkpt lat="49.34704" lon="1.17832">
        <ele>183</ele>
        <time>2016-05-01T08:01:58.000Z</time>
      </trkpt>
      <trkpt lat="49.34697" lon="1.17834">
        <ele>183</ele>
        <time>2016-05-01T08:02:00.000Z</time>
      </trkpt>
      <trkpt lat="49.34691" lon="1.17835">
        <ele>183</ele>
        <time>2016-05-01T08:02:02.000Z</time>
      </trkpt>
      <trkpt lat="49.34684" lon="1.17837">
        <ele>182</ele>
        <time>2016-05-01T08:02:04.000Z</time>
      </trkpt>
      <trkpt lat="49.34677" lon="1.17839">
        <ele>182</ele>
        <time>2016-05-01T08:02:06.000Z</time>
      </trkpt>
      <trkpt lat="49.34669" lon="1.1784">
        <ele>182</ele>
        <time>2016-05-01T08:02:08.000Z</time>
      </trkpt>
      <trkpt lat="49.34661" lon="1.17843">
        <ele>183</ele>
        <time>2016-05-01T08:02:10.000Z</time>
      </trkpt>
      <trkpt lat="49.34654" lon="1.17845">
        <ele>183</ele>
        <time>2016-05-01T08:02:12.000Z</time>
      </trkpt>
      <trkpt lat="49.34646" lon="1.17847">
        <ele>184</ele>
        <time>2016-05-01T08:02:14.000Z</time>
      </trkpt>
      <trkpt lat="49.34637" lon="1.17849">
        <ele>183</ele>
        <time>2016-05-01T08:02:16.000Z</time>
      </trkpt>
      <trkpt lat="49.3463" lon="1.1785">
        <ele>184</ele>
        <time>2016-05-01T08:02:18.000Z</time>
      </trkpt>
      <trkpt lat="49.34622" lon="1.17852">
        <ele>184</ele>
        <time>2016-05-01T08:02:20.000Z</time>
      </trkpt>
      <trkpt lat="49.34614" lon="1.17853">
        <ele>185</ele>
        <time>2016-05-01T08:02:22.000Z</time>
      </trkpt>
      <trkpt lat="49.34606" lon="1.17854">
        <ele>185</ele>
        <time>2016-05-01T08:02:24.000Z</time>
      </trkpt>
      <trkpt lat="49.34598" lon="1.17855">
        <ele>186</ele>
        <time>2016-05-01T08:02:26.000Z</time>
      </trkpt>
      <trkpt lat="49.3459" lon="1.17856">
        <ele>186</ele>
        <time>2016-05-01T08:02:28.000Z</time>
      </trkpt>
      <trkpt lat="49.34581" lon="1.17856">
        <ele>186</ele>
        <time>2016-05-01T08:02:30.000Z</time>
      </trkpt>
      <trkpt lat="49.34573" lon="1.17857">
        <ele>187</ele>
        <time>2016-05-01T08:02:32.000Z</time>
      </trkpt>
      <trkpt lat="49.34565" lon="1.17857">
        <ele>187</ele>
        <time>2016-05-01T08:02:34.000Z</time>
      </trkpt>
      <trkpt lat="49.34557" lon="1.17857">
        <ele>187</ele>
        <time>2016-05-01T08:02:36.000Z</time>
      </trkpt>
      <trkpt lat="49.34549" lon="1.17858">
        <ele>187</ele>
        <time>2016-05-01T08:02:38.000Z</time>
      </trkpt>
      <trkpt lat="49.3454" lon="1.17859">
        <ele>188</ele>
        <time>2016-05-01T08:02:40.000Z</time>
      </trkpt>
      <trkpt lat="49.34532" lon="1.17859">
        <ele>188</ele>
        <time>2016-05-01T08:02:42.000Z</time>
      </trkpt>
      <trkpt lat="49.34523" lon="1.17859">
        <ele>188</ele>
        <time>2016-05-01T08:02:44.000Z</time>
      </trkpt>
      <trkpt lat="49.34515" lon="1.1786">
        <ele>188</ele>
        <time>2016-05-01T08:02:46.000Z</time>
      </trkpt>
      <trkpt lat="49.34506" lon="1.1786">
        <ele>188</ele>
        <time>2016-05-01T08:02:48.000Z</time>
      </trkpt>
      <trkpt lat="49.34497" lon="1.1786">
        <ele>188</ele>
        <time>2016-05-01T08:02:50.000Z</time>
      </trkpt>
      <trkpt lat="49.34489" lon="1.17861">
        <ele>188</ele>
        <time>2016-05-01T08:02:52.000Z</time>
      </trkpt>
      <trkpt lat="49.34481" lon="1.17861">
        <ele>188</ele>
        <time>2016-05-01T08:02:54.000Z</time>
      </trkpt>
      <trkpt lat="49.34472" lon="1.17861">
        <ele>188</ele>
        <time>2016-05-01T08:02:56.000Z</time>
      </trkpt>
      <trkpt lat="49.34463" lon="1.17861">
        <ele>188</ele>
        <time>2016-05-01T08:02:58.000Z</time>
      </trkpt>
      <trkpt lat="49.34454" lon="1.17861">
        <ele>188</ele>
        <time>2016-05-01T08:03:00.000Z</time>
      </trkpt>
      <trkpt lat="49.34445" lon="1.17861">
        <ele>187</ele>
        <time>2016-05-01T08:03:02.000Z</time>
      </trkpt>
      <trkpt lat="49.34436" lon="1.17861">
        <ele>187</ele>
        <time>2016-05-01T08:03:04.000Z</time>
      </trkpt>
      <trkpt lat="49.34427" lon="1.17861">
        <ele>187</ele>
        <time>2016-05-01T08:03:06.000Z</time>
      </trkpt>
      <trkpt lat="49.34418" lon="1.17861">
        <ele>187</ele>
        <time>2016-05-01T08:03:08.000Z</time>
      </trkpt>
      <trkpt lat="49.34409" lon="1.17862">
        <ele>186</ele>
        <time>2016-05-01T08:03:10.000Z</time>
      </trkpt>
      <trkpt lat="49.34399" lon="1.17862">
        <ele>186</ele>
        <time>2016-05-01T08:03:12.000Z</time>
      </trkpt>
      <trkpt lat="49.3439" lon="1.17861">
        <ele>187</ele>
        <time>2016-05-01T08:03:14.000Z</time>
      </trkpt>
      <trkpt lat="49.34381" lon="1.17861">
        <ele>187</ele>
        <time>2016-05-01T08:03:16.000Z</time>
      </trkpt>
      <trkpt lat="49.34372" lon="1.17862">
        <ele>187</ele>
        <time>2016-05-01T08:03:18.000Z</time>
      </trkpt>
      <trkpt lat="49.34363" lon="1.17862">
        <ele>187</ele>
        <time>2016-05-01T08:03:20.000Z</time>
      </trkpt>
      <trkpt lat="49.34354" lon="1.17861">
        <ele>186</ele>
        <time>2016-05-01T08:03:22.000Z</time>
      </trkpt>
      <trkpt lat="49.34344" lon="1.17861">
        <ele>186</ele>
        <time>2016-05-01T08:03:24.000Z</time>
      </trkpt>
      <trkpt lat="49.34335" lon="1.1786">
        <ele>186</ele>
        <time>2016-05-01T08:03:26.000Z</time>
      </trkpt>
      <trkpt lat="49.34326" lon="1.1786">
        <ele>186</ele>
        <time>2016-05-01T08:03:28.000Z</time>
      </trkpt>
      <trkpt lat="49.34316" lon="1.17859">
        <ele>186</ele>
        <time>2016-05-01T08:03:30.000Z</time>
      </trkpt>
      <trkpt lat="49.34307" lon="1.17859">
        <ele>186</ele>
        <time>2016-05-01T08:03:32.000Z</time>
      </trkpt>
      <trkpt lat="49.34299" lon="1.17858">
        <ele>186</ele>
        <time>2016-05-01T08:03:34.000Z</time>
      </trkpt>
      <trkpt lat="49.34289" lon="1.17857">
        <ele>185</ele>
        <time>2016-05-01T08:03:36.000Z</time>
      </trkpt>
      <trkpt lat="49.3428" lon="1.17858">
        <ele>185</ele>
        <time>2016-05-01T08:03:38.000Z</time>
      </trkpt>
      <trkpt lat="49.3427" lon="1.17858">
        <ele>185</ele>
        <time>2016-05-01T08:03:40.000Z</time>
      </trkpt>
      <trkpt lat="49.34261" lon="1.17858">
        <ele>185</ele>
        <time>2016-05-01T08:03:42.000Z</time>
      </trkpt>
      <trkpt lat="49.34251" lon="1.17859">
        <ele>185</ele>
        <time>2016-05-01T08:03:44.000Z</time>
      </trkpt>
      <trkpt lat="49.34241" lon="1.17861">
        <ele>185</ele>
        <time>2016-05-01T08:03:46.000Z</time>
      </trkpt>
      <trkpt lat="49.34232" lon="1.17861">
        <ele>185</ele>
        <time>2016-05-01T08:03:48.000Z</time>
      </trkpt>
      <trkpt lat="49.34223" lon="1.17862">
        <ele>184</ele>
        <time>2016-05-01T08:03:50.000Z</time>
      </trkpt>
      <trkpt lat="49.34214" lon="1.17863">
        <ele>184</ele>
        <time>2016-05-01T08:03:52.000Z</time>
      </trkpt>
      <trkpt lat="49.34205" lon="1.17865">
        <ele>184</ele>
        <time>2016-05-01T08:03:54.000Z</time>
      </trkpt>
      <trkpt lat="49.34196" lon="1.17866">
        <ele>184</ele>
        <time>2016-05-01T08:03:56.000Z</time>
      </trkpt>
      <trkpt lat="49.34188" lon="1.17866">
        <ele>184</ele>
        <time>2016-05-01T08:03:58.000Z</time>
      </trkpt>
      <trkpt lat="49.34179" lon="1.17867">
        <ele>184</ele>
        <time>2016-05-01T08:04:00.000Z</time>
      </trkpt>
      <trkpt lat="49.34169" lon="1.17868">
        <ele>184</ele>
        <time>2016-05-01T08:04:02.000Z</time>
      </trkpt>
      <trkpt lat="49.34161" lon="1.1787">
        <ele>183</ele>
        <time>2016-05-01T08:04:04.000Z</time>
      </trkpt>
      <trkpt lat="49.34152" lon="1.17872">
        <ele>183</ele>
        <time>2016-05-01T08:04:06.000Z</time>
      </trkpt>
      <trkpt lat="49.34142" lon="1.17873">
        <ele>183</ele>
        <time>2016-05-01T08:04:08.000Z</time>
      </trkpt>
      <trkpt lat="49.34132" lon="1.17874">
        <ele>183</ele>
        <time>2016-05-01T08:04:10.000Z</time>
      </trkpt>
      <trkpt lat="49.34122" lon="1.17876">
        <ele>182</ele>
        <time>2016-05-01T08:04:12.000Z</time>
      </trkpt>
      <trkpt lat="49.34113" lon="1.17879">
        <ele>182</ele>
        <time>2016-05-01T08:04:14.000Z</time>
      </trkpt>
      <trkpt lat="49.34103" lon="1.1788">
        <ele>182</ele>
        <time>2016-05-01T08:04:16.000Z</time>
      </trkpt>
      <trkpt lat="49.34092" lon="1.17883">
        <ele>182</ele>
        <time>2016-05-01T08:04:18.000Z</time>
      </trkpt>
      <trkpt lat="49.34082" lon="1.17886">
        <ele>181</ele>
        <time>2016-05-01T08:04:20.000Z</time>
      </trkpt>
      <trkpt lat="49.34072" lon="1.1789">
        <ele>181</ele>
        <time>2016-05-01T08:04:22.000Z</time>
      </trkpt>
      <trkpt lat="49.34061" lon="1.17894">
        <ele>181</ele>
        <time>2016-05-01T08:04:24.000Z</time>
      </trkpt>
      <trkpt lat="49.34051" lon="1.17898">
        <ele>180</ele>
        <time>2016-05-01T08:04:26.000Z</time>
      </trkpt>
      <trkpt lat="49.3404" lon="1.17902">
        <ele>180</ele>
        <time>2016-05-01T08:04:28.000Z</time>
      </trkpt>
      <trkpt lat="49.34029" lon="1.17906">
        <ele>180</ele>
        <time>2016-05-01T08:04:30.000Z</time>
      </trkpt>
      <trkpt lat="49.34017" lon="1.17911">
        <ele>180</ele>
        <time>2016-05-01T08:04:32.000Z</time>
      </trkpt>
      <trkpt lat="49.34005" lon="1.17916">
        <ele>180</ele>
        <time>2016-05-01T08:04:34.000Z</time>
      </trkpt>
      <trkpt lat="49.33993" lon="1.17921">
        <ele>179</ele>
        <time>2016-05-01T08:04:36.000Z</time>
      </trkpt>
      <trkpt lat="49.33982" lon="1.17927">
        <ele>180</ele>
        <time>2016-05-01T08:04:38.000Z</time>
      </trkpt>
      <trkpt lat="49.3397" lon="1.17932">
        <ele>179</ele>
        <time>2016-05-01T08:04:40.000Z</time>
      </trkpt>
      <trkpt lat="49.33958" lon="1.17937">
        <ele>180</ele>
        <time>2016-05-01T08:04:42.000Z</time>
      </trkpt>
      <trkpt lat="49.33947" lon="1.17942">
        <ele>179</ele>
        <time>2016-05-01T08:04:44.000Z</time>
      </trkpt>
      <trkpt lat="49.33936" lon="1.17946">
        <ele>179</ele>
        <time>2016-05-01T08:04:46.000Z</time>
      </trkpt>
      <trkpt lat="49.33925" lon="1.17951">
        <ele>179</ele>
        <time>2016-05-01T08:04:48.000Z</time>
      </trkpt>
      <trkpt lat="49.33915" lon="1.17955">
        <ele>179</ele>
        <time>2016-05-01T08:04:50.000Z</time>
      </trkpt>
      <trkpt lat="49.33903" lon="1.1796">
        <ele>179</ele>
        <time>2016-05-01T08:04:52.000Z</time>
      </trkpt>
      <trkpt lat="49.33892" lon="1.17965">
        <ele>179</ele>
        <time>2016-05-01T08:04:54.000Z</time>
      </trkpt>
      <trkpt lat="49.33881" lon="1.1797">
        <ele>179</ele>
        <time>2016-05-01T08:04:56.000Z</time>
      </trkpt>
      <trkpt lat="49.3387" lon="1.17975">
        <ele>178</ele>
        <time>2016-05-01T08:04:58.000Z</time>
      </trkpt>
      <trkpt lat="49.33858" lon="1.1798">
        <ele>178</ele>
        <time>2016-05-01T08:05:00.000Z</time>
      </trkpt>
      <trkpt lat="49.33846" lon="1.17985">
        <ele>178</ele>
        <time>2016-05-01T08:05:02.000Z</time>
      </trkpt>
      <trkpt lat="49.33834" lon="1.1799">
        <ele>178</ele>
        <time>2016-05-01T08:05:04.000Z</time>
      </trkpt>
      <trkpt lat="49.33822" lon="1.17996">
        <ele>177</ele>
        <time>2016-05-01T08:05:06.000Z</time>
      </trkpt>
      <trkpt lat="49.3381" lon="1.18">
        <ele>177</ele>
        <time>2016-05-01T08:05:08.000Z</time>
      </trkpt>
      <trkpt lat="49.33799" lon="1.18005">
        <ele>177</ele>
        <time>2016-05-01T08:05:10.000Z</time>
      </trkpt>
      <trkpt lat="49.33786" lon="1.1801">
        <ele>177</ele>
        <time>2016-05-01T08:05:12.000Z</time>
      </trkpt>
      <trkpt lat="49.33774" lon="1.18015">
        <ele>178</ele>
        <time>2016-05-01T08:05:14.000Z</time>
      </trkpt>
      <trkpt lat="49.33762" lon="1.1802">
        <ele>177</ele>
        <time>2016-05-01T08:05:16.000Z</time>
      </trkpt>
      <trkpt lat="49.3375" lon="1.18026">
        <ele>177</ele>
        <time>2016-05-01T08:05:18.000Z</time>
      </trkpt>
      <trkpt lat="49.33738" lon="1.18031">
        <ele>177</ele>
        <time>2016-05-01T08:05:20.000Z</time>
      </trkpt>
      <trkpt lat="49.33725" lon="1.18036">
        <ele>177</ele>
        <time>2016-05-01T08:05:22.000Z</time>
      </trkpt>
      <trkpt lat="49.33712" lon="1.18041">
        <ele>177</ele>
        <time>2016-05-01T08:05:24.000Z</time>
      </trkpt>
      <trkpt lat="49.33698" lon="1.18047">
        <ele>177</ele>
        <time>2016-05-01T08:05:26.000Z</time>
      </trkpt>
      <trkpt lat="49.33684" lon="1.18053">
        <ele>177</ele>
        <time>2016-05-01T08:05:28.000Z</time>
      </trkpt>
      <trkpt lat="49.3367" lon="1.18058">
        <ele>177</ele>
        <time>2016-05-01T08:05:30.000Z</time>
      </trkpt>
      <trkpt lat="49.33658" lon="1.18063">
        <ele>177</ele>
        <time>2016-05-01T08:05:32.000Z</time>
      </trkpt>
      <trkpt lat="49.33651" lon="1.18071">
        <ele>178</ele>
        <time>2016-05-01T08:05:34.000Z</time>
      </trkpt>
      <trkpt lat="49.33651" lon="1.1808">
        <ele>177</ele>
        <time>2016-05-01T08:05:36.000Z</time>
      </trkpt>
      <trkpt lat="49.33657" lon="1.18084">
        <ele>177</ele>
        <time>2016-05-01T08:05:38.000Z</time>
      </trkpt>
      <trkpt lat="49.33665" lon="1.18089">
        <ele>177</ele>
        <time>2016-05-01T08:05:40.000Z</time>
      </trkpt>
      <trkpt lat="49.33673" lon="1.18095">
        <ele>177</ele>
        <time>2016-05-01T08:05:42.000Z</time>
      </trkpt>
      <trkpt lat="49.33683" lon="1.18101">
        <ele>177</ele>
        <time>2016-05-01T08:05:44.000Z</time>
      </trkpt>
      <trkpt lat="49.33691" lon="1.18107">
        <ele>177</ele>
        <time>2016-05-01T08:05:46.000Z</time>
      </trkpt>
      <trkpt lat="49.33701" lon="1.18113">
        <ele>178</ele>
        <time>2016-05-01T08:05:48.000Z</time>
      </trkpt>
      <trkpt lat="49.3371" lon="1.1812">
        <ele>178</ele>
        <time>2016-05-01T08:05:50.000Z</time>
      </trkpt>
      <trkpt lat="49.3372" lon="1.18127">
        <ele>178</ele>
        <time>2016-05-01T08:05:52.000Z</time>
      </trkpt>
      <trkpt lat="49.3373" lon="1.18134">
        <ele>177</ele>
        <time>2016-05-01T08:05:54.000Z</time>
      </trkpt>
      <trkpt lat="49.3374" lon="1.18141">
        <ele>177</ele>
        <time>2016-05-01T08:05:56.000Z</time>
      </trkpt>
      <trkpt lat="49.33749" lon="1.18148">
        <ele>177</ele>
        <time>2016-05-01T08:05:58.000Z</time>
      </trkpt>
      <trkpt lat="49.3376" lon="1.18155">
        <ele>177</ele>
        <time>2016-05-01T08:06:00.000Z</time>
      </trkpt>
      <trkpt lat="49.3377" lon="1.18163">
        <ele>177</ele>
        <time>2016-05-01T08:06:02.000Z</time>
      </trkpt>
      <trkpt lat="49.3378" lon="1.18169">
        <ele>177</ele>
        <time>2016-05-01T08:06:04.000Z</time>
      </trkpt>
      <trkpt lat="49.3379" lon="1.18176">
        <ele>178</ele>
        <time>2016-05-01T08:06:06.000Z</time>
      </trkpt>
      <trkpt lat="49.338" lon="1.18183">
        <ele>179</ele>
        <time>2016-05-01T08:06:08.000Z</time>
      </trkpt>
      <trkpt lat="49.3381" lon="1.1819">
        <ele>179</ele>
        <time>2016-05-01T08:06:10.000Z</time>
      </trkpt>
      <trkpt lat="49.33819" lon="1.18196">
        <ele>179</ele>
        <time>2016-05-01T08:06:12.000Z</time>
      </trkpt>
      <trkpt lat="49.33828" lon="1.18203">
        <ele>179</ele>
        <time>2016-05-01T08:06:14.000Z</time>
      </trkpt>
      <trkpt lat="49.33838" lon="1.18209">
        <ele>180</ele>
        <time>2016-05-01T08:06:16.000Z</time>
      </trkpt>
      <trkpt lat="49.33848" lon="1.18215">
        <ele>180</ele>
        <time>2016-05-01T08:06:18.000Z</time>
      </trkpt>
      <trkpt lat="49.33858" lon="1.1822">
        <ele>180</ele>
        <time>2016-05-01T08:06:20.000Z</time>
      </trkpt>
      <trkpt lat="49.33869" lon="1.18226">
        <ele>180</ele>
        <time>2016-05-01T08:06:22.000Z</time>
      </trkpt>
      <trkpt lat="49.33879" lon="1.1823">
        <ele>180</ele>
        <time>2016-05-01T08:06:24.000Z</time>
      </trkpt>
      <trkpt lat="49.3389" lon="1.18234">
        <ele>180</ele>
        <time>2016-05-01T08:06:26.000Z</time>
      </trkpt>
      <trkpt lat="49.33901" lon="1.18238">
        <ele>180</ele>
        <time>2016-05-01T08:06:28.000Z</time>
      </trkpt>
      <trkpt lat="49.33913" lon="1.18241">
        <ele>180</ele>
        <time>2016-05-01T08:06:30.000Z</time>
      </trkpt>
      <trkpt lat="49.33923" lon="1.18245">
        <ele>180</ele>
        <time>2016-05-01T08:06:32.000Z</time>
      </trkpt>
      <trkpt lat="49.33934" lon="1.18249">
        <ele>180</ele>
        <time>2016-05-01T08:06:34.000Z</time>
      </trkpt>
      <trkpt lat="49.33945" lon="1.18252">
        <ele>181</ele>
        <time>2016-05-01T08:06:36.000Z</time>
      </trkpt>
      <trkpt lat="49.33956" lon="1.18256">
        <ele>181</ele>
        <time>2016-05-01T08:06:38.000Z</time>
      </trkpt>
      <trkpt lat="49.33967" lon="1.1826">
        <ele>181</ele>
        <time>2016-05-01T08:06:40.000Z</time>
      </trkpt>
      <trkpt lat="49.33978" lon="1.18264">
        <ele>181</ele>
        <time>2016-05-01T08:06:42.000Z</time>
      </trkpt>
      <trkpt lat="49.33989" lon="1.18268">
        <ele>182</ele>
        <time>2016-05-01T08:06:44.000Z</time>
      </trkpt>
      <trkpt lat="49.33999" lon="1.18272">
        <ele>182</ele>
        <time>2016-05-01T08:06:46.000Z</time>
      </trkpt>
      <trkpt lat="49.3401" lon="1.18276">
        <ele>182</ele>
        <time>2016-05-01T08:06:48.000Z</time>
      </trkpt>
      <trkpt lat="49.34021" lon="1.1828">
        <ele>182</ele>
        <time>2016-05-01T08:06:50.000Z</time>
      </trkpt>
      <trkpt lat="49.34032" lon="1.18287">
        <ele>182</ele>
        <time>2016-05-01T08:06:52.000Z</time>
      </trkpt>
      <trkpt lat="49.34043" lon="1.18294">
        <ele>181</ele>
        <time>2016-05-01T08:06:54.000Z</time>
      </trkpt>
      <trkpt lat="49.34053" lon="1.18302">
        <ele>181</ele>
        <time>2016-05-01T08:06:56.000Z</time>
      </trkpt>
      <trkpt lat="49.34064" lon="1.18311">
        <ele>181</ele>
        <time>2016-05-01T08:06:58.000Z</time>
      </trkpt>
      <trkpt lat="49.34076" lon="1.18321">
        <ele>181</ele>
        <time>2016-05-01T08:07:00.000Z</time>
      </trkpt>
      <trkpt lat="49.34089" lon="1.18332">
        <ele>181</ele>
        <time>2016-05-01T08:07:02.000Z</time>
      </trkpt>
      <trkpt lat="49.34101" lon="1.18345">
        <ele>181</ele>
        <time>2016-05-01T08:07:04.000Z</time>
      </trkpt>
      <trkpt lat="49.34112" lon="1.18359">
        <ele>181</ele>
        <time>2016-05-01T08:07:06.000Z</time>
      </trkpt>
      <trkpt lat="49.34123" lon="1.18372">
        <ele>182</ele>
        <time>2016-05-01T08:07:08.000Z</time>
      </trkpt>
      <trkpt lat="49.34134" lon="1.18385">
        <ele>182</ele>
        <time>2016-05-01T08:07:10.000Z</time>
      </trkpt>
      <trkpt lat="49.34145" lon="1.18397">
        <ele>182</ele>
        <time>2016-05-01T08:07:12.000Z</time>
      </trkpt>
      <trkpt lat="49.34157" lon="1.18409">
        <ele>182</ele>
        <time>2016-05-01T08:07:14.000Z</time>
      </trkpt>
      <trkpt lat="49.34168" lon="1.1842">
        <ele>182</ele>
        <time>2016-05-01T08:07:16.000Z</time>
      </trkpt>
      <trkpt lat="49.3418" lon="1.18431">
        <ele>183</ele>
        <time>2016-05-01T08:07:18.000Z</time>
      </trkpt>
      <trkpt lat="49.34192" lon="1.18442">
        <ele>183</ele>
        <time>2016-05-01T08:07:20.000Z</time>
      </trkpt>
      <trkpt lat="49.34204" lon="1.18455">
        <ele>183</ele>
        <time>2016-05-01T08:07:22.000Z</time>
      </trkpt>
      <trkpt lat="49.34217" lon="1.18467">
        <ele>183</ele>
        <time>2016-05-01T08:07:24.000Z</time>
      </trkpt>
      <trkpt lat="49.34229" lon="1.18478">
        <ele>184</ele>
        <time>2016-05-01T08:07:26.000Z</time>
      </trkpt>
      <trkpt lat="49.34241" lon="1.1849">
        <ele>184</ele>
        <time>2016-05-01T08:07:28.000Z</time>
      </trkpt>
      <trkpt lat="49.34254" lon="1.18502">
        <ele>184</ele>
        <time>2016-05-01T08:07:30.000Z</time>
      </trkpt>
      <trkpt lat="49.34266" lon="1.18513">
        <ele>184</ele>
        <time>2016-05-01T08:07:32.000Z</time>
      </trkpt>
      <trkpt lat="49.34278" lon="1.18525">
        <ele>185</ele>
        <time>2016-05-01T08:07:34.000Z</time>
      </trkpt>
      <trkpt lat="49.34289" lon="1.18535">
        <ele>184</ele>
        <time>2016-05-01T08:07:36.000Z</time>
      </trkpt>
      <trkpt lat="49.343" lon="1.18545">
        <ele>185</ele>
        <time>2016-05-01T08:07:38.000Z</time>
      </trkpt>
      <trkpt lat="49.34311" lon="1.18555">
        <ele>184</ele>
        <time>2016-05-01T08:07:40.000Z</time>
      </trkpt>
      <trkpt lat="49.34321" lon="1.18565">
        <ele>183</ele>
        <time>2016-05-01T08:07:42.000Z</time>
      </trkpt>
      <trkpt lat="49.34331" lon="1.18573">
        <ele>183</ele>
        <time>2016-05-01T08:07:44.000Z</time>
      </trkpt>
      <trkpt lat="49.3434" lon="1.1858">
        <ele>183</ele>
        <time>2016-05-01T08:07:46.000Z</time>
      </trkpt>
      <trkpt lat="49.34346" lon="1.18585">
        <ele>183</ele>
        <time>2016-05-01T08:07:48.000Z</time>
      </trkpt>
      <trkpt lat="49.34352" lon="1.18592">
        <ele>183</ele>
        <time>2016-05-01T08:07:50.000Z</time>
      </trkpt>
      <trkpt lat="49.34361" lon="1.18596">
        <ele>183</ele>
        <time>2016-05-01T08:07:52.000Z</time>
      </trkpt>
      <trkpt lat="49.34372" lon="1.18597">
        <ele>183</ele>
        <time>2016-05-01T08:07:54.000Z</time>
      </trkpt>
      <trkpt lat="49.34383" lon="1.18596">
        <ele>183</ele>
        <time>2016-05-01T08:07:56.000Z</time>
      </trkpt>
      <trkpt lat="49.34394" lon="1.18594">
        <ele>182</ele>
        <time>2016-05-01T08:07:58.000Z</time>
      </trkpt>
      <trkpt lat="49.34406" lon="1.18592">
        <ele>182</ele>
        <time>2016-05-01T08:08:00.000Z</time>
      </trkpt>
      <trkpt lat="49.34418" lon="1.18589">
        <ele>182</ele>
        <time>2016-05-01T08:08:02.000Z</time>
      </trkpt>
      <trkpt lat="49.34431" lon="1.18586">
        <ele>183</ele>
        <time>2016-05-01T08:08:04.000Z</time>
      </trkpt>
      <trkpt lat="49.34443" lon="1.18583">
        <ele>182</ele>
        <time>2016-05-01T08:08:06.000Z</time>
      </trkpt>
      <trkpt lat="49.34456" lon="1.18579">
        <ele>183</ele>
        <time>2016-05-01T08:08:08.000Z</time>
      </trkpt>
      <trkpt lat="49.34468" lon="1.18576">
        <ele>183</ele>
        <time>2016-05-01T08:08:10.000Z</time>
      </trkpt>
      <trkpt lat="49.34481" lon="1.18573">
        <ele>184</ele>
        <time>2016-05-01T08:08:12.000Z</time>
      </trkpt>
      <trkpt lat="49.34492" lon="1.18568">
        <ele>183</ele>
        <time>2016-05-01T08:08:14.000Z</time>
      </trkpt>
      <trkpt lat="49.34504" lon="1.1857">
        <ele>184</ele>
        <time>2016-05-01T08:08:16.000Z</time>
      </trkpt>
      <trkpt lat="49.34513" lon="1.18576">
        <ele>184</ele>
        <time>2016-05-01T08:08:18.000Z</time>
      </trkpt>
      <trkpt lat="49.34522" lon="1.18581">
        <ele>184</ele>
        <time>2016-05-01T08:08:20.000Z</time>
      </trkpt>
      <trkpt lat="49.34531" lon="1.18585">
        <ele>184</ele>
        <time>2016-05-01T08:08:22.000Z</time>
      </trkpt>
      <trkpt lat="49.3454" lon="1.18588">
        <ele>185</ele>
        <time>2016-05-01T08:08:24.000Z</time>
      </trkpt>
      <trkpt lat="49.34548" lon="1.18593">
        <ele>184</ele>
        <time>2016-05-01T08:08:26.000Z</time>
      </trkpt>
      <trkpt lat="49.34556" lon="1.18597">
        <ele>184</ele>
        <time>2016-05-01T08:08:28.000Z</time>
      </trkpt>
      <trkpt lat="49.34564" lon="1.18602">
        <ele>184</ele>
        <time>2016-05-01T08:08:30.000Z</time>
      </trkpt>
      <trkpt lat="49.34574" lon="1.18607">
        <ele>184</ele>
        <time>2016-05-01T08:08:32.000Z</time>
      </trkpt>
      <trkpt lat="49.34584" lon="1.18612">
        <ele>184</ele>
        <time>2016-05-01T08:08:34.000Z</time>
      </trkpt>
      <trkpt lat="49.34595" lon="1.18616">
        <ele>184</ele>
        <time>2016-05-01T08:08:36.000Z</time>
      </trkpt>
      <trkpt lat="49.34606" lon="1.1862">
        <ele>184</ele>
        <time>2016-05-01T08:08:38.000Z</time>
      </trkpt>
      <trkpt lat="49.34617" lon="1.18623">
        <ele>183</ele>
        <time>2016-05-01T08:08:40.000Z</time>
      </trkpt>
      <trkpt lat="49.34628" lon="1.18625">
        <ele>183</ele>
        <time>2016-05-01T08:08:42.000Z</time>
      </trkpt>
      <trkpt lat="49.34639" lon="1.18628">
        <ele>183</ele>
        <time>2016-05-01T08:08:44.000Z</time>
      </trkpt>
      <trkpt lat="49.3465" lon="1.18632">
        <ele>182</ele>
        <time>2016-05-01T08:08:46.000Z</time>
      </trkpt>
      <trkpt lat="49.34661" lon="1.18635">
        <ele>182</ele>
        <time>2016-05-01T08:08:48.000Z</time>
      </trkpt>
      <trkpt lat="49.34671" lon="1.18638">
        <ele>182</ele>
        <time>2016-05-01T08:08:50.000Z</time>
      </trkpt>
      <trkpt lat="49.34681" lon="1.18642">
        <ele>181</ele>
        <time>2016-05-01T08:08:52.000Z</time>
      </trkpt>
      <trkpt lat="49.34692" lon="1.18647">
        <ele>181</ele>
        <time>2016-05-01T08:08:54.000Z</time>
      </trkpt>
      <trkpt lat="49.34702" lon="1.18652">
        <ele>180</ele>
        <time>2016-05-01T08:08:56.000Z</time>
      </trkpt>
      <trkpt lat="49.34712" lon="1.18657">
        <ele>180</ele>
        <time>2016-05-01T08:08:58.000Z</time>
      </trkpt>
      <trkpt lat="49.34722" lon="1.1866">
        <ele>180</ele>
        <time>2016-05-01T08:09:00.000Z</time>
      </trkpt>
      <trkpt lat="49.34733" lon="1.18663">
        <ele>180</ele>
        <time>2016-05-01T08:09:02.000Z</time>
      </trkpt>
      <trkpt lat="49.34745" lon="1.18668">
        <ele>180</ele>
        <time>2016-05-01T08:09:04.000Z</time>
      </trkpt>
      <trkpt lat="49.34756" lon="1.18672">
        <ele>180</ele>
        <time>2016-05-01T08:09:06.000Z</time>
      </trkpt>
      <trkpt lat="49.34768" lon="1.18675">
        <ele>180</ele>
        <time>2016-05-01T08:09:08.000Z</time>
      </trkpt>
      <trkpt lat="49.34779" lon="1.18679">
        <ele>179</ele>
        <time>2016-05-01T08:09:10.000Z</time>
      </trkpt>
      <trkpt lat="49.3479" lon="1.18683">
        <ele>179</ele>
        <time>2016-05-01T08:09:12.000Z</time>
      </trkpt>
      <trkpt lat="49.34801" lon="1.18688">
        <ele>179</ele>
        <time>2016-05-01T08:09:14.000Z</time>
      </trkpt>
      <trkpt lat="49.34812" lon="1.18692">
        <ele>179</ele>
        <time>2016-05-01T08:09:16.000Z</time>
      </trkpt>
      <trkpt lat="49.34822" lon="1.18696">
        <ele>179</ele>
        <time>2016-05-01T08:09:18.000Z</time>
      </trkpt>
      <trkpt lat="49.34832" lon="1.18701">
        <ele>179</ele>
        <time>2016-05-01T08:09:20.000Z</time>
      </trkpt>
      <trkpt lat="49.34841" lon="1.18706">
        <ele>180</ele>
        <time>2016-05-01T08:09:22.000Z</time>
      </trkpt>
      <trkpt lat="49.3485" lon="1.18709">
        <ele>181</ele>
        <time>2016-05-01T08:09:24.000Z</time>
      </trkpt>
      <trkpt lat="49.34859" lon="1.18714">
        <ele>181</ele>
        <time>2016-05-01T08:09:26.000Z</time>
      </trkpt>
      <trkpt lat="49.34867" lon="1.18718">
        <ele>182</ele>
        <time>2016-05-01T08:09:28.000Z</time>
      </trkpt>
      <trkpt lat="49.34876" lon="1.18722">
        <ele>182</ele>
        <time>2016-05-01T08:09:30.000Z</time>
      </trkpt>
      <trkpt lat="49.34885" lon="1.18726">
        <ele>183</ele>
        <time>2016-05-01T08:09:32.000Z</time>
      </trkpt>
      <trkpt lat="49.34893" lon="1.1873">
        <ele>183</ele>
        <time>2016-05-01T08:09:34.000Z</time>
      </trkpt>
      <trkpt lat="49.34902" lon="1.18734">
        <ele>183</ele>
        <time>2016-05-01T08:09:36.000Z</time>
      </trkpt>
      <trkpt lat="49.34911" lon="1.18737">
        <ele>183</ele>
        <time>2016-05-01T08:09:38.000Z</time>
      </trkpt>
      <trkpt lat="49.34919" lon="1.18741">
        <ele>183</ele>
        <time>2016-05-01T08:09:40.000Z</time>
      </trkpt>
      <trkpt lat="49.34927" lon="1.18744">
        <ele>184</ele>
        <time>2016-05-01T08:09:42.000Z</time>
      </trkpt>
      <trkpt lat="49.34935" lon="1.18748">
        <ele>185</ele>
        <time>2016-05-01T08:09:44.000Z</time>
      </trkpt>
      <trkpt lat="49.34942" lon="1.18752">
        <ele>185</ele>
        <time>2016-05-01T08:09:46.000Z</time>
      </trkpt>
      <trkpt lat="49.3495" lon="1.18755">
        <ele>186</ele>
        <time>2016-05-01T08:09:48.000Z</time>
      </trkpt>
      <trkpt lat="49.34958" lon="1.18759">
        <ele>186</ele>
        <time>2016-05-01T08:09:50.000Z</time>
      </trkpt>
      <trkpt lat="49.34965" lon="1.18762">
        <ele>187</ele>
        <time>2016-05-01T08:09:52.000Z</time>
      </trkpt>
      <trkpt lat="49.34972" lon="1.18766">
        <ele>187</ele>
        <time>2016-05-01T08:09:54.000Z</time>
      </trkpt>
      <trkpt lat="49.34979" lon="1.18769">
        <ele>188</ele>
        <time>2016-05-01T08:09:56.000Z</time>
      </trkpt>
      <trkpt lat="49.34986" lon="1.18772">
        <ele>187</ele>
        <time>2016-05-01T08:09:58.000Z</time>
      </trkpt>
      <trkpt lat="49.34993" lon="1.18775">
        <ele>187</ele>
        <time>2016-05-01T08:10:00.000Z</time>
      </trkpt>
      <trkpt lat="49.35" lon="1.18778">
        <ele>187</ele>
        <time>2016-05-01T08:10:02.000Z</time>
      </trkpt>
      <trkpt lat="49.35008" lon="1.18781">
        <ele>187</ele>
        <time>2016-05-01T08:10:04.000Z</time>
      </trkpt>
      <trkpt lat="49.35016" lon="1.18783">
        <ele>187</ele>
        <time>2016-05-01T08:10:06.000Z</time>
      </trkpt>
      <trkpt lat="49.35025" lon="1.18785">
        <ele>188</ele>
        <time>2016-05-01T08:10:08.000Z</time>
      </trkpt>
      <trkpt lat="49.35034" lon="1.18787">
        <ele>187</ele>
        <time>2016-05-01T08:10:10.000Z</time>
      </trkpt>
      <trkpt lat="49.35043" lon="1.18791">
        <ele>187</ele>
        <time>2016-05-01T08:10:12.000Z</time>
      </trkpt>
      <trkpt lat="49.35051" lon="1.18795">
        <ele>187</ele>
        <time>2016-05-01T08:10:14.000Z</time>
      </trkpt>
      <trkpt lat="49.35061" lon="1.18799">
        <ele>187</ele>
        <time>2016-05-01T08:10:16.000Z</time>
      </trkpt>
      <trkpt lat="49.35069" lon="1.18804">
        <ele>187</ele>
        <time>2016-05-01T08:10:18.000Z</time>
      </trkpt>
      <trkpt lat="49.35079" lon="1.18809">
        <ele>186</ele>
        <time>2016-05-01T08:10:20.000Z</time>
      </trkpt>
      <trkpt lat="49.35088" lon="1.18814">
        <ele>186</ele>
        <time>2016-05-01T08:10:22.000Z</time>
      </trkpt>
      <trkpt lat="49.35097" lon="1.18819">
        <ele>186</ele>
        <time>2016-05-01T08:10:24.000Z</time>
      </trkpt>
      <trkpt lat="49.35106" lon="1.18825">
        <ele>186</ele>
        <time>2016-05-01T08:10:26.000Z</time>
      </trkpt>
      <trkpt lat="49.35115" lon="1.18829">
        <ele>185</ele>
        <time>2016-05-01T08:10:28.000Z</time>
      </trkpt>
      <trkpt lat="49.35125" lon="1.18833">
        <ele>186</ele>
        <time>2016-05-01T08:10:30.000Z</time>
      </trkpt>
      <trkpt lat="49.35134" lon="1.18836">
        <ele>185</ele>
        <time>2016-05-01T08:10:32.000Z</time>
      </trkpt>
      <trkpt lat="49.35143" lon="1.18836">
        <ele>186</ele>
        <time>2016-05-01T08:10:34.000Z</time>
      </trkpt>
      <trkpt lat="49.35152" lon="1.18837">
        <ele>186</ele>
        <time>2016-05-01T08:10:36.000Z</time>
      </trkpt>
      <trkpt lat="49.35161" lon="1.18837">
        <ele>186</ele>
        <time>2016-05-01T08:10:38.000Z</time>
      </trkpt>
      <trkpt lat="49.35169" lon="1.1884">
        <ele>186</ele>
        <time>2016-05-01T08:10:40.000Z</time>
      </trkpt>
      <trkpt lat="49.35175" lon="1.18843">
        <ele>186</ele>
        <time>2016-05-01T08:10:42.000Z</time>
      </trkpt>
      <trkpt lat="49.3518" lon="1.18847">
        <ele>186</ele>
        <time>2016-05-01T08:10:44.000Z</time>
      </trkpt>
      <trkpt lat="49.3518" lon="1.18847">
        <ele>186</ele>
        <time>2016-05-01T08:10:46.000Z</time>
      </trkpt>
      <trkpt lat="49.35188" lon="1.18851">
        <ele>187</ele>
        <time>2016-05-01T08:10:48.000Z</time>
      </trkpt>
      <trkpt lat="49.35188" lon="1.18851">
        <ele>187</ele>
        <time>2016-05-01T08:10:50.000Z</time>
      </trkpt>
      <trkpt lat="49.35188" lon="1.18851">
        <ele>187</ele>
        <time>2016-05-01T08:10:52.000Z</time>
      </trkpt>
      <trkpt lat="49.35188" lon="1.18851">
        <ele>187</ele>
        <time>2016-05-01T08:10:58.000Z</time>
      </trkpt>
      <trkpt lat="49.35188" lon="1.18851">
        <ele>187</ele>
        <time>2016-05-01T08:11:06.000Z</time>
      </trkpt>
      <trkpt lat="49.35189" lon="1.18848">
        <ele>187</ele>
        <time>2016-05-01T08:11:35.000Z</time>
      </trkpt>
      <trkpt lat="49.35189" lon="1.18848">
        <ele>187</ele>
        <time>2016-05-01T08:11:37.000Z</time>
      </trkpt>
      <trkpt lat="49.35189" lon="1.18848">
        <ele>187</ele>
        <time>2016-05-01T08:11:45.000Z</time>
      </trkpt>
      <trkpt lat="49.35189" lon="1.18851">
        <ele>185</ele>
        <time>2016-05-01T08:12:33.000Z</time>
      </trkpt>
      <trkpt lat="49.35189" lon="1.18851">
        <ele>185</ele>
        <time>2016-05-01T08:12:41.000Z</time>
      </trkpt>
      <trkpt lat="49.35186" lon="1.18855">
        <ele>186</ele>
        <time>2016-05-01T08:15:26.000Z</time>
      </trkpt>
      <trkpt lat="49.35186" lon="1.18855">
        <ele>186</ele>
        <time>2016-05-01T08:15:28.000Z</time>
      </trkpt>
      <trkpt lat="49.35189" lon="1.1885">
        <ele>187</ele>
        <time>2016-05-01T08:16:49.000Z</time>
      </trkpt>
      <trkpt lat="49.35189" lon="1.1885">
        <ele>187</ele>
        <time>2016-05-01T08:16:51.000Z</time>
      </trkpt>
      <trkpt lat="49.35189" lon="1.1885">
        <ele>187</ele>
        <time>2016-05-01T08:16:53.000Z</time>
      </trkpt>
      <trkpt lat="49.35196" lon="1.18863">
        <ele>186</ele>
        <time>2016-05-01T08:17:10.000Z</time>
      </trkpt>
      <trkpt lat="49.35208" lon="1.18872">
        <ele>185</ele>
        <time>2016-05-01T08:17:13.000Z</time>
      </trkpt>
      <trkpt lat="49.35218" lon="1.18876">
        <ele>185</ele>
        <time>2016-05-01T08:17:15.000Z</time>
      </trkpt>
      <trkpt lat="49.35227" lon="1.18879">
        <ele>184</ele>
        <time>2016-05-01T08:17:17.000Z</time>
      </trkpt>
      <trkpt lat="49.35237" lon="1.18881">
        <ele>183</ele>
        <time>2016-05-01T08:17:19.000Z</time>
      </trkpt>
      <trkpt lat="49.35247" lon="1.18881">
        <ele>182</ele>
        <time>2016-05-01T08:17:21.000Z</time>
      </trkpt>
      <trkpt lat="49.35257" lon="1.18883">
        <ele>183</ele>
        <time>2016-05-01T08:17:23.000Z</time>
      </trkpt>
      <trkpt lat="49.35268" lon="1.18884">
        <ele>183</ele>
        <time>2016-05-01T08:17:25.000Z</time>
      </trkpt>
      <trkpt lat="49.35279" lon="1.1889">
        <ele>182</ele>
        <time>2016-05-01T08:17:27.000Z</time>
      </trkpt>
      <trkpt lat="49.35291" lon="1.18893">
        <ele>181</ele>
        <time>2016-05-01T08:17:29.000Z</time>
      </trkpt>
      <trkpt lat="49.35304" lon="1.189">
        <ele>180</ele>
        <time>2016-05-01T08:17:31.000Z</time>
      </trkpt>
      <trkpt lat="49.35316" lon="1.18908">
        <ele>179</ele>
        <time>2016-05-01T08:17:33.000Z</time>
      </trkpt>
      <trkpt lat="49.35328" lon="1.18916">
        <ele>179</ele>
        <time>2016-05-01T08:17:35.000Z</time>
      </trkpt>
      <trkpt lat="49.35339" lon="1.18925">
        <ele>179</ele>
        <time>2016-05-01T08:17:37.000Z</time>
      </trkpt>
      <trkpt lat="49.35347" lon="1.18937">
        <ele>179</ele>
        <time>2016-05-01T08:17:39.000Z</time>
      </trkpt>
      <trkpt lat="49.35353" lon="1.1895">
        <ele>179</ele>
        <time>2016-05-01T08:17:41.000Z</time>
      </trkpt>
      <trkpt lat="49.35358" lon="1.18963">
        <ele>179</ele>
        <time>2016-05-01T08:17:43.000Z</time>
      </trkpt>
      <trkpt lat="49.35363" lon="1.18974">
        <ele>179</ele>
        <time>2016-05-01T08:17:45.000Z</time>
      </trkpt>
      <trkpt lat="49.35365" lon="1.18987">
        <ele>178</ele>
        <time>2016-05-01T08:17:47.000Z</time>
      </trkpt>
      <trkpt lat="49.35363" lon="1.19002">
        <ele>177</ele>
        <time>2016-05-01T08:17:49.000Z</time>
      </trkpt>
      <trkpt lat="49.35359" lon="1.19017">
        <ele>177</ele>
        <time>2016-05-01T08:17:51.000Z</time>
      </trkpt>
      <trkpt lat="49.35354" lon="1.19036">
        <ele>176</ele>
        <time>2016-05-01T08:17:53.000Z</time>
      </trkpt>
      <trkpt lat="49.3535" lon="1.19054">
        <ele>176</ele>
        <time>2016-05-01T08:17:55.000Z</time>
      </trkpt>
      <trkpt lat="49.35346" lon="1.1907">
        <ele>176</ele>
        <time>2016-05-01T08:17:57.000Z</time>
      </trkpt>
      <trkpt lat="49.35342" lon="1.19084">
        <ele>176</ele>
        <time>2016-05-01T08:17:59.000Z</time>
      </trkpt>
      <trkpt lat="49.3534" lon="1.19097">
        <ele>176</ele>
        <time>2016-05-01T08:18:01.000Z</time>
      </trkpt>
      <trkpt lat="49.35339" lon="1.1911">
        <ele>178</ele>
        <time>2016-05-01T08:18:03.000Z</time>
      </trkpt>
      <trkpt lat="49.35339" lon="1.19121">
        <ele>178</ele>
        <time>2016-05-01T08:18:05.000Z</time>
      </trkpt>
      <trkpt lat="49.35341" lon="1.19131">
        <ele>178</ele>
        <time>2016-05-01T08:18:07.000Z</time>
      </trkpt>
      <trkpt lat="49.35344" lon="1.1914">
        <ele>179</ele>
        <time>2016-05-01T08:18:09.000Z</time>
      </trkpt>
      <trkpt lat="49.35347" lon="1.1915">
        <ele>179</ele>
        <time>2016-05-01T08:18:11.000Z</time>
      </trkpt>
      <trkpt lat="49.35351" lon="1.19161">
        <ele>180</ele>
        <time>2016-05-01T08:18:13.000Z</time>
      </trkpt>
      <trkpt lat="49.35355" lon="1.19171">
        <ele>179</ele>
        <time>2016-05-01T08:18:15.000Z</time>
      </trkpt>
      <trkpt lat="49.35359" lon="1.19182">
        <ele>179</ele>
        <time>2016-05-01T08:18:17.000Z</time>
      </trkpt>
      <trkpt lat="49.35362" lon="1.19193">
        <ele>179</ele>
        <time>2016-05-01T08:18:19.000Z</time>
      </trkpt>
      <trkpt lat="49.35365" lon="1.19206">
        <ele>180</ele>
        <time>2016-05-01T08:18:21.000Z</time>
      </trkpt>
      <trkpt lat="49.35366" lon="1.19221">
        <ele>179</ele>
        <time>2016-05-01T08:18:23.000Z</time>
      </trkpt>
      <trkpt lat="49.35369" lon="1.19236">
        <ele>179</ele>
        <time>2016-05-01T08:18:25.000Z</time>
      </trkpt>
      <trkpt lat="49.35371" lon="1.19253">
        <ele>179</ele>
        <time>2016-05-01T08:18:27.000Z</time>
      </trkpt>
      <trkpt lat="49.35375" lon="1.1927">
        <ele>179</ele>
        <time>2016-05-01T08:18:29.000Z</time>
      </trkpt>
      <trkpt lat="49.35379" lon="1.19286">
        <ele>180</ele>
        <time>2016-05-01T08:18:31.000Z</time>
      </trkpt>
      <trkpt lat="49.35386" lon="1.193">
        <ele>179</ele>
        <time>2016-05-01T08:18:33.000Z</time>
      </trkpt>
      <trkpt lat="49.35393" lon="1.19315">
        <ele>179</ele>
        <time>2016-05-01T08:18:35.000Z</time>
      </trkpt>
      <trkpt lat="49.35398" lon="1.19331">
        <ele>179</ele>
        <time>2016-05-01T08:18:37.000Z</time>
      </trkpt>
      <trkpt lat="49.35395" lon="1.19346">
        <ele>179</ele>
        <time>2016-05-01T08:18:39.000Z</time>
      </trkpt>
      <trkpt lat="49.35388" lon="1.19357">
        <ele>179</ele>
        <time>2016-05-01T08:18:41.000Z</time>
      </trkpt>
      <trkpt lat="49.35382" lon="1.19369">
        <ele>178</ele>
        <time>2016-05-01T08:18:43.000Z</time>
      </trkpt>
      <trkpt lat="49.35375" lon="1.19382">
        <ele>178</ele>
        <time>2016-05-01T08:18:45.000Z</time>
      </trkpt>
      <trkpt lat="49.35368" lon="1.19395">
        <ele>177</ele>
        <time>2016-05-01T08:18:47.000Z</time>
      </trkpt>
      <trkpt lat="49.3536" lon="1.19409">
        <ele>176</ele>
        <time>2016-05-01T08:18:49.000Z</time>
      </trkpt>
      <trkpt lat="49.35351" lon="1.19423">
        <ele>176</ele>
        <time>2016-05-01T08:18:51.000Z</time>
      </trkpt>
      <trkpt lat="49.35339" lon="1.19435">
        <ele>175</ele>
        <time>2016-05-01T08:18:53.000Z</time>
      </trkpt>
      <trkpt lat="49.35327" lon="1.19446">
        <ele>174</ele>
        <time>2016-05-01T08:18:55.000Z</time>
      </trkpt>
      <trkpt lat="49.35313" lon="1.19456">
        <ele>173</ele>
        <time>2016-05-01T08:18:57.000Z</time>
      </trkpt>
      <trkpt lat="49.35299" lon="1.19467">
        <ele>172</ele>
        <time>2016-05-01T08:18:59.000Z</time>
      </trkpt>
      <trkpt lat="49.35283" lon="1.19479">
        <ele>171</ele>
        <time>2016-05-01T08:19:01.000Z</time>
      </trkpt>
      <trkpt lat="49.35257" lon="1.19498">
        <ele>168</ele>
        <time>2016-05-01T08:19:04.000Z</time>
      </trkpt>
      <trkpt lat="49.35238" lon="1.19511">
        <ele>166</ele>
        <time>2016-05-01T08:19:06.000Z</time>
      </trkpt>
      <trkpt lat="49.35219" lon="1.19525">
        <ele>164</ele>
        <time>2016-05-01T08:19:08.000Z</time>
      </trkpt>
      <trkpt lat="49.35199" lon="1.19539">
        <ele>163</ele>
        <time>2016-05-01T08:19:10.000Z</time>
      </trkpt>
      <trkpt lat="49.35183" lon="1.19551">
        <ele>161</ele>
        <time>2016-05-01T08:19:12.000Z</time>
      </trkpt>
      <trkpt lat="49.35166" lon="1.19564">
        <ele>160</ele>
        <time>2016-05-01T08:19:17.000Z</time>
      </trkpt>
      <trkpt lat="49.35169" lon="1.19572">
        <ele>160</ele>
        <time>2016-05-01T08:19:19.000Z</time>
      </trkpt>
      <trkpt lat="49.35172" lon="1.19585">
        <ele>158</ele>
        <time>2016-05-01T08:19:21.000Z</time>
      </trkpt>
      <trkpt lat="49.35177" lon="1.196">
        <ele>156</ele>
        <time>2016-05-01T08:19:23.000Z</time>
      </trkpt>
      <trkpt lat="49.35174" lon="1.19612">
        <ele>154</ele>
        <time>2016-05-01T08:19:25.000Z</time>
      </trkpt>
      <trkpt lat="49.35165" lon="1.19625">
        <ele>153</ele>
        <time>2016-05-01T08:19:27.000Z</time>
      </trkpt>
      <trkpt lat="49.35157" lon="1.19643">
        <ele>151</ele>
        <time>2016-05-01T08:19:29.000Z</time>
      </trkpt>
      <trkpt lat="49.35147" lon="1.19662">
        <ele>151</ele>
        <time>2016-05-01T08:19:31.000Z</time>
      </trkpt>
      <trkpt lat="49.35133" lon="1.19676">
        <ele>150</ele>
        <time>2016-05-01T08:19:33.000Z</time>
      </trkpt>
      <trkpt lat="49.3512" lon="1.19692">
        <ele>147</ele>
        <time>2016-05-01T08:19:35.000Z</time>
      </trkpt>
      <trkpt lat="49.35109" lon="1.19706">
        <ele>146</ele>
        <time>2016-05-01T08:19:37.000Z</time>
      </trkpt>
      <trkpt lat="49.35102" lon="1.19718">
        <ele>144</ele>
        <time>2016-05-01T08:19:39.000Z</time>
      </trkpt>
      <trkpt lat="49.35095" lon="1.19727">
        <ele>145</ele>
        <time>2016-05-01T08:19:41.000Z</time>
      </trkpt>
      <trkpt lat="49.35088" lon="1.19734">
        <ele>144</ele>
        <time>2016-05-01T08:19:43.000Z</time>
      </trkpt>
      <trkpt lat="49.3508" lon="1.19741">
        <ele>141</ele>
        <time>2016-05-01T08:19:45.000Z</time>
      </trkpt>
      <trkpt lat="49.35072" lon="1.19746">
        <ele>142</ele>
        <time>2016-05-01T08:19:47.000Z</time>
      </trkpt>
      <trkpt lat="49.35063" lon="1.19753">
        <ele>141</ele>
        <time>2016-05-01T08:19:49.000Z</time>
      </trkpt>
      <trkpt lat="49.35059" lon="1.19763">
        <ele>141</ele>
        <time>2016-05-01T08:19:51.000Z</time>
      </trkpt>
      <trkpt lat="49.35061" lon="1.1979">
        <ele>140</ele>
        <time>2016-05-01T08:19:54.000Z</time>
      </trkpt>
      <trkpt lat="49.35056" lon="1.19788">
        <ele>138</ele>
        <time>2016-05-01T08:19:59.000Z</time>
      </trkpt>
      <trkpt lat="49.35053" lon="1.19771">
        <ele>137</ele>
        <time>2016-05-01T08:20:02.000Z</time>
      </trkpt>
      <trkpt lat="49.35052" lon="1.19759">
        <ele>138</ele>
        <time>2016-05-01T08:20:04.000Z</time>
      </trkpt>
      <trkpt lat="49.35046" lon="1.1975">
        <ele>136</ele>
        <time>2016-05-01T08:20:06.000Z</time>
      </trkpt>
      <trkpt lat="49.35038" lon="1.19753">
        <ele>135</ele>
        <time>2016-05-01T08:20:08.000Z</time>
      </trkpt>
      <trkpt lat="49.35028" lon="1.19757">
        <ele>134</ele>
        <time>2016-05-01T08:20:10.000Z</time>
      </trkpt>
      <trkpt lat="49.3502" lon="1.19759">
        <ele>132</ele>
        <time>2016-05-01T08:20:12.000Z</time>
      </trkpt>
      <trkpt lat="49.35011" lon="1.19761">
        <ele>130</ele>
        <time>2016-05-01T08:20:14.000Z</time>
      </trkpt>
      <trkpt lat="49.35003" lon="1.19763">
        <ele>128</ele>
        <time>2016-05-01T08:20:16.000Z</time>
      </trkpt>
      <trkpt lat="49.34995" lon="1.19767">
        <ele>128</ele>
        <time>2016-05-01T08:20:18.000Z</time>
      </trkpt>
      <trkpt lat="49.34985" lon="1.19774">
        <ele>128</ele>
        <time>2016-05-01T08:20:20.000Z</time>
      </trkpt>
      <trkpt lat="49.34975" lon="1.19779">
        <ele>128</ele>
        <time>2016-05-01T08:20:22.000Z</time>
      </trkpt>
      <trkpt lat="49.34964" lon="1.1978">
        <ele>128</ele>
        <time>2016-05-01T08:20:24.000Z</time>
      </trkpt>
      <trkpt lat="49.34951" lon="1.19779">
        <ele>127</ele>
        <time>2016-05-01T08:20:26.000Z</time>
      </trkpt>
      <trkpt lat="49.34936" lon="1.1978">
        <ele>124</ele>
        <time>2016-05-01T08:20:28.000Z</time>
      </trkpt>
      <trkpt lat="49.3492" lon="1.19777">
        <ele>124</ele>
        <time>2016-05-01T08:20:30.000Z</time>
      </trkpt>
      <trkpt lat="49.34902" lon="1.19771">
        <ele>124</ele>
        <time>2016-05-01T08:20:32.000Z</time>
      </trkpt>
      <trkpt lat="49.34881" lon="1.1977">
        <ele>143</ele>
        <time>2016-05-01T08:20:35.000Z</time>
      </trkpt>
      <trkpt lat="49.34866" lon="1.19781">
        <ele>137</ele>
        <time>2016-05-01T08:20:37.000Z</time>
      </trkpt>
      <trkpt lat="49.34853" lon="1.198">
        <ele>130</ele>
        <time>2016-05-01T08:20:39.000Z</time>
      </trkpt>
      <trkpt lat="49.3484" lon="1.19818">
        <ele>126</ele>
        <time>2016-05-01T08:20:41.000Z</time>
      </trkpt>
      <trkpt lat="49.34826" lon="1.19827">
        <ele>122</ele>
        <time>2016-05-01T08:20:43.000Z</time>
      </trkpt>
      <trkpt lat="49.34808" lon="1.19833">
        <ele>120</ele>
        <time>2016-05-01T08:20:45.000Z</time>
      </trkpt>
      <trkpt lat="49.34787" lon="1.1983">
        <ele>116</ele>
        <time>2016-05-01T08:20:48.000Z</time>
      </trkpt>
      <trkpt lat="49.34772" lon="1.19827">
        <ele>114</ele>
        <time>2016-05-01T08:20:50.000Z</time>
      </trkpt>
      <trkpt lat="49.34747" lon="1.19823">
        <ele>115</ele>
        <time>2016-05-01T08:20:53.000Z</time>
      </trkpt>
      <trkpt lat="49.34731" lon="1.19819">
        <ele>118</ele>
        <time>2016-05-01T08:20:58.000Z</time>
      </trkpt>
      <trkpt lat="49.34722" lon="1.19818">
        <ele>119</ele>
        <time>2016-05-01T08:21:00.000Z</time>
      </trkpt>
      <trkpt lat="49.34712" lon="1.19821">
        <ele>119</ele>
        <time>2016-05-01T08:21:02.000Z</time>
      </trkpt>
      <trkpt lat="49.34704" lon="1.19821">
        <ele>121</ele>
        <time>2016-05-01T08:21:04.000Z</time>
      </trkpt>
      <trkpt lat="49.34696" lon="1.19822">
        <ele>120</ele>
        <time>2016-05-01T08:21:06.000Z</time>
      </trkpt>
      <trkpt lat="49.34681" lon="1.19832">
        <ele>115</ele>
        <time>2016-05-01T08:21:09.000Z</time>
      </trkpt>
      <trkpt lat="49.34683" lon="1.19843">
        <ele>115</ele>
        <time>2016-05-01T08:21:12.000Z</time>
      </trkpt>
      <trkpt lat="49.34684" lon="1.19855">
        <ele>111</ele>
        <time>2016-05-01T08:21:14.000Z</time>
      </trkpt>
      <trkpt lat="49.34686" lon="1.19869">
        <ele>110</ele>
        <time>2016-05-01T08:21:16.000Z</time>
      </trkpt>
      <trkpt lat="49.34689" lon="1.19883">
        <ele>110</ele>
        <time>2016-05-01T08:21:18.000Z</time>
      </trkpt>
      <trkpt lat="49.34694" lon="1.19894">
        <ele>109</ele>
        <time>2016-05-01T08:21:20.000Z</time>
      </trkpt>
      <trkpt lat="49.34702" lon="1.19892">
        <ele>109</ele>
        <time>2016-05-01T08:21:22.000Z</time>
      </trkpt>
      <trkpt lat="49.34708" lon="1.1989">
        <ele>109</ele>
        <time>2016-05-01T08:21:24.000Z</time>
      </trkpt>
      <trkpt lat="49.34716" lon="1.19891">
        <ele>108</ele>
        <time>2016-05-01T08:21:26.000Z</time>
      </trkpt>
      <trkpt lat="49.34726" lon="1.19894">
        <ele>110</ele>
        <time>2016-05-01T08:21:28.000Z</time>
      </trkpt>
      <trkpt lat="49.34733" lon="1.19897">
        <ele>113</ele>
        <time>2016-05-01T08:21:30.000Z</time>
      </trkpt>
      <trkpt lat="49.3474" lon="1.19898">
        <ele>112</ele>
        <time>2016-05-01T08:21:32.000Z</time>
      </trkpt>
      <trkpt lat="49.3474" lon="1.19898">
        <ele>112</ele>
        <time>2016-05-01T08:21:34.000Z</time>
      </trkpt>
      <trkpt lat="49.34751" lon="1.19904">
        <ele>110</ele>
        <time>2016-05-01T08:21:36.000Z</time>
      </trkpt>
      <trkpt lat="49.34757" lon="1.19911">
        <ele>107</ele>
        <time>2016-05-01T08:21:38.000Z</time>
      </trkpt>
      <trkpt lat="49.34764" lon="1.19917">
        <ele>107</ele>
        <time>2016-05-01T08:21:40.000Z</time>
      </trkpt>
      <trkpt lat="49.34769" lon="1.19924">
        <ele>109</ele>
        <time>2016-05-01T08:21:42.000Z</time>
      </trkpt>
      <trkpt lat="49.34769" lon="1.19924">
        <ele>109</ele>
        <time>2016-05-01T08:21:44.000Z</time>
      </trkpt>
      <trkpt lat="49.34779" lon="1.19934">
        <ele>108</ele>
        <time>2016-05-01T08:21:46.000Z</time>
      </trkpt>
      <trkpt lat="49.34784" lon="1.1994">
        <ele>105</ele>
        <time>2016-05-01T08:21:48.000Z</time>
      </trkpt>
      <trkpt lat="49.34791" lon="1.19946">
        <ele>105</ele>
        <time>2016-05-01T08:21:50.000Z</time>
      </trkpt>
      <trkpt lat="49.34798" lon="1.1995">
        <ele>104</ele>
        <time>2016-05-01T08:21:52.000Z</time>
      </trkpt>
      <trkpt lat="49.34808" lon="1.19952">
        <ele>106</ele>
        <time>2016-05-01T08:21:54.000Z</time>
      </trkpt>
      <trkpt lat="49.34817" lon="1.19957">
        <ele>106</ele>
        <time>2016-05-01T08:21:56.000Z</time>
      </trkpt>
      <trkpt lat="49.34825" lon="1.1996">
        <ele>107</ele>
        <time>2016-05-01T08:21:58.000Z</time>
      </trkpt>
      <trkpt lat="49.34836" lon="1.19968">
        <ele>106</ele>
        <time>2016-05-01T08:22:00.000Z</time>
      </trkpt>
      <trkpt lat="49.34847" lon="1.19974">
        <ele>109</ele>
        <time>2016-05-01T08:22:02.000Z</time>
      </trkpt>
      <trkpt lat="49.34858" lon="1.19979">
        <ele>108</ele>
        <time>2016-05-01T08:22:04.000Z</time>
      </trkpt>
      <trkpt lat="49.34868" lon="1.19984">
        <ele>108</ele>
        <time>2016-05-01T08:22:06.000Z</time>
      </trkpt>
      <trkpt lat="49.34879" lon="1.19989">
        <ele>107</ele>
        <time>2016-05-01T08:22:08.000Z</time>
      </trkpt>
      <trkpt lat="49.3489" lon="1.19992">
        <ele>105</ele>
        <time>2016-05-01T08:22:10.000Z</time>
      </trkpt>
      <trkpt lat="49.34896" lon="1.19996">
        <ele>105</ele>
        <time>2016-05-01T08:22:12.000Z</time>
      </trkpt>
      <trkpt lat="49.34907" lon="1.20003">
        <ele>104</ele>
        <time>2016-05-01T08:22:14.000Z</time>
      </trkpt>
      <trkpt lat="49.34916" lon="1.20012">
        <ele>102</ele>
        <time>2016-05-01T08:22:16.000Z</time>
      </trkpt>
      <trkpt lat="49.34923" lon="1.20013">
        <ele>101</ele>
        <time>2016-05-01T08:22:18.000Z</time>
      </trkpt>
      <trkpt lat="49.34932" lon="1.20024">
        <ele>101</ele>
        <time>2016-05-01T08:22:20.000Z</time>
      </trkpt>
      <trkpt lat="49.34941" lon="1.20035">
        <ele>101</ele>
        <time>2016-05-01T08:22:22.000Z</time>
      </trkpt>
      <trkpt lat="49.34949" lon="1.20049">
        <ele>97</ele>
        <time>2016-05-01T08:22:24.000Z</time>
      </trkpt>
      <trkpt lat="49.34957" lon="1.20063">
        <ele>99</ele>
        <time>2016-05-01T08:22:26.000Z</time>
      </trkpt>
      <trkpt lat="49.3497" lon="1.20064">
        <ele>99</ele>
        <time>2016-05-01T08:22:28.000Z</time>
      </trkpt>
      <trkpt lat="49.3498" lon="1.20072">
        <ele>99</ele>
        <time>2016-05-01T08:22:30.000Z</time>
      </trkpt>
      <trkpt lat="49.34989" lon="1.2008">
        <ele>98</ele>
        <time>2016-05-01T08:22:32.000Z</time>
      </trkpt>
      <trkpt lat="49.34994" lon="1.20086">
        <ele>100</ele>
        <time>2016-05-01T08:22:34.000Z</time>
      </trkpt>
      <trkpt lat="49.34991" lon="1.20095">
        <ele>100</ele>
        <time>2016-05-01T08:22:36.000Z</time>
      </trkpt>
      <trkpt lat="49.34987" lon="1.20106">
        <ele>102</ele>
        <time>2016-05-01T08:22:38.000Z</time>
      </trkpt>
      <trkpt lat="49.34987" lon="1.20115">
        <ele>104</ele>
        <time>2016-05-01T08:22:40.000Z</time>
      </trkpt>
      <trkpt lat="49.34997" lon="1.20122">
        <ele>105</ele>
        <time>2016-05-01T08:22:42.000Z</time>
      </trkpt>
      <trkpt lat="49.35011" lon="1.20124">
        <ele>107</ele>
        <time>2016-05-01T08:22:44.000Z</time>
      </trkpt>
      <trkpt lat="49.35023" lon="1.20118">
        <ele>109</ele>
        <time>2016-05-01T08:22:46.000Z</time>
      </trkpt>
      <trkpt lat="49.35033" lon="1.20117">
        <ele>112</ele>
        <time>2016-05-01T08:22:48.000Z</time>
      </trkpt>
      <trkpt lat="49.35041" lon="1.20116">
        <ele>113</ele>
        <time>2016-05-01T08:22:50.000Z</time>
      </trkpt>
      <trkpt lat="49.35049" lon="1.20114">
        <ele>114</ele>
        <time>2016-05-01T08:22:52.000Z</time>
      </trkpt>
      <trkpt lat="49.35059" lon="1.20115">
        <ele>114</ele>
        <time>2016-05-01T08:22:54.000Z</time>
      </trkpt>
      <trkpt lat="49.35067" lon="1.20112">
        <ele>115</ele>
        <time>2016-05-01T08:22:56.000Z</time>
      </trkpt>
      <trkpt lat="49.35075" lon="1.20109">
        <ele>118</ele>
        <time>2016-05-01T08:22:58.000Z</time>
      </trkpt>
      <trkpt lat="49.35081" lon="1.201">
        <ele>120</ele>
        <time>2016-05-01T08:23:00.000Z</time>
      </trkpt>
      <trkpt lat="49.35087" lon="1.20086">
        <ele>119</ele>
        <time>2016-05-01T08:23:02.000Z</time>
      </trkpt>
      <trkpt lat="49.35097" lon="1.20074">
        <ele>119</ele>
        <time>2016-05-01T08:23:04.000Z</time>
      </trkpt>
      <trkpt lat="49.35102" lon="1.20059">
        <ele>119</ele>
        <time>2016-05-01T08:23:06.000Z</time>
      </trkpt>
      <trkpt lat="49.35104" lon="1.20047">
        <ele>119</ele>
        <time>2016-05-01T08:23:08.000Z</time>
      </trkpt>
      <trkpt lat="49.35107" lon="1.20035">
        <ele>119</ele>
        <time>2016-05-01T08:23:10.000Z</time>
      </trkpt>
      <trkpt lat="49.35112" lon="1.20032">
        <ele>119</ele>
        <time>2016-05-01T08:23:12.000Z</time>
      </trkpt>
      <trkpt lat="49.35117" lon="1.20023">
        <ele>118</ele>
        <time>2016-05-01T08:23:14.000Z</time>
      </trkpt>
      <trkpt lat="49.35117" lon="1.20023">
        <ele>118</ele>
        <time>2016-05-01T08:23:16.000Z</time>
      </trkpt>
      <trkpt lat="49.35123" lon="1.2001">
        <ele>117</ele>
        <time>2016-05-01T08:23:18.000Z</time>
      </trkpt>
      <trkpt lat="49.35124" lon="1.20001">
        <ele>116</ele>
        <time>2016-05-01T08:23:20.000Z</time>
      </trkpt>
      <trkpt lat="49.35122" lon="1.19989">
        <ele>114</ele>
        <time>2016-05-01T08:23:22.000Z</time>
      </trkpt>
      <trkpt lat="49.35117" lon="1.19976">
        <ele>109</ele>
        <time>2016-05-01T08:23:24.000Z</time>
      </trkpt>
      <trkpt lat="49.3512" lon="1.19962">
        <ele>107</ele>
        <time>2016-05-01T08:23:26.000Z</time>
      </trkpt>
      <trkpt lat="49.35133" lon="1.19954">
        <ele>107</ele>
        <time>2016-05-01T08:23:28.000Z</time>
      </trkpt>
      <trkpt lat="49.35142" lon="1.19945">
        <ele>108</ele>
        <time>2016-05-01T08:23:30.000Z</time>
      </trkpt>
      <trkpt lat="49.35151" lon="1.19942">
        <ele>110</ele>
        <time>2016-05-01T08:23:32.000Z</time>
      </trkpt>
      <trkpt lat="49.35159" lon="1.19943">
        <ele>111</ele>
        <time>2016-05-01T08:23:34.000Z</time>
      </trkpt>
      <trkpt lat="49.35165" lon="1.19942">
        <ele>112</ele>
        <time>2016-05-01T08:23:36.000Z</time>
      </trkpt>
      <trkpt lat="49.35172" lon="1.19942">
        <ele>112</ele>
        <time>2016-05-01T08:23:38.000Z</time>
      </trkpt>
      <trkpt lat="49.35177" lon="1.19935">
        <ele>113</ele>
        <time>2016-05-01T08:23:40.000Z</time>
      </trkpt>
      <trkpt lat="49.35185" lon="1.19927">
        <ele>111</ele>
        <time>2016-05-01T08:23:42.000Z</time>
      </trkpt>
      <trkpt lat="49.35194" lon="1.19933">
        <ele>113</ele>
        <time>2016-05-01T08:23:46.000Z</time>
      </trkpt>
      <trkpt lat="49.35194" lon="1.19933">
        <ele>113</ele>
        <time>2016-05-01T08:23:48.000Z</time>
      </trkpt>
      <trkpt lat="49.35201" lon="1.19934">
        <ele>114</ele>
        <time>2016-05-01T08:23:50.000Z</time>
      </trkpt>
      <trkpt lat="49.35205" lon="1.19927">
        <ele>113</ele>
        <time>2016-05-01T08:23:52.000Z</time>
      </trkpt>
      <trkpt lat="49.35209" lon="1.19915">
        <ele>113</ele>
        <time>2016-05-01T08:23:54.000Z</time>
      </trkpt>
      <trkpt lat="49.3522" lon="1.19907">
        <ele>114</ele>
        <time>2016-05-01T08:23:56.000Z</time>
      </trkpt>
      <trkpt lat="49.3523" lon="1.19906">
        <ele>116</ele>
        <time>2016-05-01T08:23:58.000Z</time>
      </trkpt>
      <trkpt lat="49.3524" lon="1.19908">
        <ele>117</ele>
        <time>2016-05-01T08:24:00.000Z</time>
      </trkpt>
      <trkpt lat="49.35248" lon="1.19909">
        <ele>120</ele>
        <time>2016-05-01T08:24:02.000Z</time>
      </trkpt>
      <trkpt lat="49.35257" lon="1.19909">
        <ele>121</ele>
        <time>2016-05-01T08:24:04.000Z</time>
      </trkpt>
      <trkpt lat="49.35267" lon="1.1991">
        <ele>120</ele>
        <time>2016-05-01T08:24:06.000Z</time>
      </trkpt>
      <trkpt lat="49.35275" lon="1.19911">
        <ele>119</ele>
        <time>2016-05-01T08:24:08.000Z</time>
      </trkpt>
      <trkpt lat="49.35285" lon="1.19907">
        <ele>119</ele>
        <time>2016-05-01T08:24:10.000Z</time>
      </trkpt>
      <trkpt lat="49.35294" lon="1.19902">
        <ele>120</ele>
        <time>2016-05-01T08:24:12.000Z</time>
      </trkpt>
      <trkpt lat="49.35303" lon="1.19898">
        <ele>121</ele>
        <time>2016-05-01T08:24:14.000Z</time>
      </trkpt>
      <trkpt lat="49.35313" lon="1.19893">
        <ele>120</ele>
        <time>2016-05-01T08:24:16.000Z</time>
      </trkpt>
      <trkpt lat="49.3532" lon="1.19892">
        <ele>120</ele>
        <time>2016-05-01T08:24:18.000Z</time>
      </trkpt>
      <trkpt lat="49.35328" lon="1.19892">
        <ele>117</ele>
        <time>2016-05-01T08:24:20.000Z</time>
      </trkpt>
      <trkpt lat="49.35338" lon="1.19896">
        <ele>117</ele>
        <time>2016-05-01T08:24:22.000Z</time>
      </trkpt>
      <trkpt lat="49.35344" lon="1.19904">
        <ele>113</ele>
        <time>2016-05-01T08:24:24.000Z</time>
      </trkpt>
      <trkpt lat="49.35352" lon="1.1991">
        <ele>112</ele>
        <time>2016-05-01T08:24:26.000Z</time>
      </trkpt>
      <trkpt lat="49.35361" lon="1.19912">
        <ele>112</ele>
        <time>2016-05-01T08:24:28.000Z</time>
      </trkpt>
      <trkpt lat="49.35368" lon="1.19916">
        <ele>110</ele>
        <time>2016-05-01T08:24:30.000Z</time>
      </trkpt>
      <trkpt lat="49.35377" lon="1.19924">
        <ele>109</ele>
        <time>2016-05-01T08:24:32.000Z</time>
      </trkpt>
      <trkpt lat="49.35387" lon="1.19932">
        <ele>109</ele>
        <time>2016-05-01T08:24:34.000Z</time>
      </trkpt>
      <trkpt lat="49.35397" lon="1.19938">
        <ele>109</ele>
        <time>2016-05-01T08:24:36.000Z</time>
      </trkpt>
      <trkpt lat="49.35407" lon="1.19944">
        <ele>109</ele>
        <time>2016-05-01T08:24:38.000Z</time>
      </trkpt>
      <trkpt lat="49.35416" lon="1.19953">
        <ele>111</ele>
        <time>2016-05-01T08:24:40.000Z</time>
      </trkpt>
      <trkpt lat="49.35426" lon="1.19961">
        <ele>111</ele>
        <time>2016-05-01T08:24:42.000Z</time>
      </trkpt>
      <trkpt lat="49.35433" lon="1.1997">
        <ele>110</ele>
        <time>2016-05-01T08:24:44.000Z</time>
      </trkpt>
      <trkpt lat="49.35441" lon="1.19978">
        <ele>109</ele>
        <time>2016-05-01T08:24:46.000Z</time>
      </trkpt>
      <trkpt lat="49.35449" lon="1.19987">
        <ele>109</ele>
        <time>2016-05-01T08:24:48.000Z</time>
      </trkpt>
      <trkpt lat="49.35457" lon="1.19994">
        <ele>112</ele>
        <time>2016-05-01T08:24:50.000Z</time>
      </trkpt>
      <trkpt lat="49.35466" lon="1.19998">
        <ele>114</ele>
        <time>2016-05-01T08:24:52.000Z</time>
      </trkpt>
      <trkpt lat="49.35474" lon="1.19999">
        <ele>115</ele>
        <time>2016-05-01T08:24:54.000Z</time>
      </trkpt>
      <trkpt lat="49.35482" lon="1.20002">
        <ele>116</ele>
        <time>2016-05-01T08:24:56.000Z</time>
      </trkpt>
      <trkpt lat="49.35497" lon="1.20002">
        <ele>118</ele>
        <time>2016-05-01T08:24:59.000Z</time>
      </trkpt>
      <trkpt lat="49.35506" lon="1.2001">
        <ele>117</ele>
        <time>2016-05-01T08:25:01.000Z</time>
      </trkpt>
      <trkpt lat="49.35518" lon="1.20023">
        <ele>116</ele>
        <time>2016-05-01T08:25:04.000Z</time>
      </trkpt>
      <trkpt lat="49.35525" lon="1.20032">
        <ele>116</ele>
        <time>2016-05-01T08:25:06.000Z</time>
      </trkpt>
      <trkpt lat="49.3553" lon="1.20039">
        <ele>116</ele>
        <time>2016-05-01T08:25:08.000Z</time>
      </trkpt>
      <trkpt lat="49.35535" lon="1.20046">
        <ele>118</ele>
        <time>2016-05-01T08:25:10.000Z</time>
      </trkpt>
      <trkpt lat="49.35535" lon="1.20046">
        <ele>118</ele>
        <time>2016-05-01T08:25:12.000Z</time>
      </trkpt>
      <trkpt lat="49.35542" lon="1.20056">
        <ele>120</ele>
        <time>2016-05-01T08:25:14.000Z</time>
      </trkpt>
      <trkpt lat="49.35547" lon="1.20061">
        <ele>119</ele>
        <time>2016-05-01T08:25:16.000Z</time>
      </trkpt>
      <trkpt lat="49.35553" lon="1.20065">
        <ele>119</ele>
        <time>2016-05-01T08:25:18.000Z</time>
      </trkpt>
      <trkpt lat="49.35559" lon="1.2007">
        <ele>119</ele>
        <time>2016-05-01T08:25:20.000Z</time>
      </trkpt>
      <trkpt lat="49.35563" lon="1.20078">
        <ele>117</ele>
        <time>2016-05-01T08:25:24.000Z</time>
      </trkpt>
      <trkpt lat="49.35563" lon="1.20078">
        <ele>117</ele>
        <time>2016-05-01T08:25:26.000Z</time>
      </trkpt>
      <trkpt lat="49.35564" lon="1.20089">
        <ele>116</ele>
        <time>2016-05-01T08:25:28.000Z</time>
      </trkpt>
      <trkpt lat="49.35564" lon="1.20089">
        <ele>116</ele>
        <time>2016-05-01T08:25:30.000Z</time>
      </trkpt>
      <trkpt lat="49.35567" lon="1.20097">
        <ele>115</ele>
        <time>2016-05-01T08:25:32.000Z</time>
      </trkpt>
      <trkpt lat="49.35567" lon="1.20097">
        <ele>115</ele>
        <time>2016-05-01T08:25:34.000Z</time>
      </trkpt>
      <trkpt lat="49.35574" lon="1.20106">
        <ele>115</ele>
        <time>2016-05-01T08:25:36.000Z</time>
      </trkpt>
      <trkpt lat="49.35578" lon="1.20113">
        <ele>117</ele>
        <time>2016-05-01T08:25:38.000Z</time>
      </trkpt>
      <trkpt lat="49.35578" lon="1.20113">
        <ele>117</ele>
        <time>2016-05-01T08:25:40.000Z</time>
      </trkpt>
      <trkpt lat="49.35584" lon="1.20125">
        <ele>120</ele>
        <time>2016-05-01T08:25:42.000Z</time>
      </trkpt>
      <trkpt lat="49.35591" lon="1.20137">
        <ele>121</ele>
        <time>2016-05-01T08:25:46.000Z</time>
      </trkpt>
      <trkpt lat="49.35596" lon="1.20142">
        <ele>122</ele>
        <time>2016-05-01T08:25:48.000Z</time>
      </trkpt>
      <trkpt lat="49.35602" lon="1.20148">
        <ele>122</ele>
        <time>2016-05-01T08:25:50.000Z</time>
      </trkpt>
      <trkpt lat="49.35608" lon="1.20154">
        <ele>123</ele>
        <time>2016-05-01T08:25:52.000Z</time>
      </trkpt>
      <trkpt lat="49.35613" lon="1.2016">
        <ele>122</ele>
        <time>2016-05-01T08:25:54.000Z</time>
      </trkpt>
      <trkpt lat="49.35619" lon="1.20166">
        <ele>123</ele>
        <time>2016-05-01T08:25:56.000Z</time>
      </trkpt>
      <trkpt lat="49.35626" lon="1.20169">
        <ele>123</ele>
        <time>2016-05-01T08:25:58.000Z</time>
      </trkpt>
      <trkpt lat="49.35633" lon="1.20172">
        <ele>122</ele>
        <time>2016-05-01T08:26:00.000Z</time>
      </trkpt>
      <trkpt lat="49.35639" lon="1.20176">
        <ele>124</ele>
        <time>2016-05-01T08:26:02.000Z</time>
      </trkpt>
      <trkpt lat="49.35645" lon="1.2018">
        <ele>123</ele>
        <time>2016-05-01T08:26:04.000Z</time>
      </trkpt>
      <trkpt lat="49.35652" lon="1.20185">
        <ele>123</ele>
        <time>2016-05-01T08:26:06.000Z</time>
      </trkpt>
      <trkpt lat="49.35658" lon="1.20188">
        <ele>125</ele>
        <time>2016-05-01T08:26:08.000Z</time>
      </trkpt>
      <trkpt lat="49.35664" lon="1.20191">
        <ele>127</ele>
        <time>2016-05-01T08:26:10.000Z</time>
      </trkpt>
      <trkpt lat="49.35671" lon="1.20196">
        <ele>127</ele>
        <time>2016-05-01T08:26:12.000Z</time>
      </trkpt>
      <trkpt lat="49.3568" lon="1.20202">
        <ele>128</ele>
        <time>2016-05-01T08:26:14.000Z</time>
      </trkpt>
      <trkpt lat="49.35687" lon="1.20208">
        <ele>127</ele>
        <time>2016-05-01T08:26:16.000Z</time>
      </trkpt>
      <trkpt lat="49.35695" lon="1.20213">
        <ele>126</ele>
        <time>2016-05-01T08:26:18.000Z</time>
      </trkpt>
      <trkpt lat="49.35704" lon="1.20221">
        <ele>128</ele>
        <time>2016-05-01T08:26:20.000Z</time>
      </trkpt>
      <trkpt lat="49.35712" lon="1.20227">
        <ele>128</ele>
        <time>2016-05-01T08:26:22.000Z</time>
      </trkpt>
      <trkpt lat="49.35719" lon="1.2023">
        <ele>128</ele>
        <time>2016-05-01T08:26:24.000Z</time>
      </trkpt>
      <trkpt lat="49.35727" lon="1.20233">
        <ele>129</ele>
        <time>2016-05-01T08:26:26.000Z</time>
      </trkpt>
      <trkpt lat="49.35736" lon="1.20235">
        <ele>129</ele>
        <time>2016-05-01T08:26:28.000Z</time>
      </trkpt>
      <trkpt lat="49.35744" lon="1.20235">
        <ele>129</ele>
        <time>2016-05-01T08:26:30.000Z</time>
      </trkpt>
      <trkpt lat="49.35753" lon="1.20234">
        <ele>130</ele>
        <time>2016-05-01T08:26:32.000Z</time>
      </trkpt>
      <trkpt lat="49.35762" lon="1.20234">
        <ele>130</ele>
        <time>2016-05-01T08:26:34.000Z</time>
      </trkpt>
      <trkpt lat="49.35771" lon="1.20234">
        <ele>131</ele>
        <time>2016-05-01T08:26:36.000Z</time>
      </trkpt>
      <trkpt lat="49.35779" lon="1.20234">
        <ele>132</ele>
        <time>2016-05-01T08:26:38.000Z</time>
      </trkpt>
      <trkpt lat="49.35788" lon="1.20235">
        <ele>132</ele>
        <time>2016-05-01T08:26:40.000Z</time>
      </trkpt>
      <trkpt lat="49.35796" lon="1.20236">
        <ele>133</ele>
        <time>2016-05-01T08:26:42.000Z</time>
      </trkpt>
      <trkpt lat="49.35804" lon="1.20236">
        <ele>134</ele>
        <time>2016-05-01T08:26:44.000Z</time>
      </trkpt>
      <trkpt lat="49.35811" lon="1.20235">
        <ele>134</ele>
        <time>2016-05-01T08:26:46.000Z</time>
      </trkpt>
      <trkpt lat="49.35818" lon="1.20232">
        <ele>134</ele>
        <time>2016-05-01T08:26:48.000Z</time>
      </trkpt>
      <trkpt lat="49.35825" lon="1.20228">
        <ele>135</ele>
        <time>2016-05-01T08:26:50.000Z</time>
      </trkpt>
      <trkpt lat="49.35831" lon="1.20223">
        <ele>138</ele>
        <time>2016-05-01T08:26:52.000Z</time>
      </trkpt>
      <trkpt lat="49.35838" lon="1.20218">
        <ele>138</ele>
        <time>2016-05-01T08:26:54.000Z</time>
      </trkpt>
      <trkpt lat="49.35844" lon="1.20214">
        <ele>140</ele>
        <time>2016-05-01T08:26:56.000Z</time>
      </trkpt>
      <trkpt lat="49.35851" lon="1.20214">
        <ele>139</ele>
        <time>2016-05-01T08:26:58.000Z</time>
      </trkpt>
      <trkpt lat="49.35857" lon="1.20215">
        <ele>139</ele>
        <time>2016-05-01T08:27:00.000Z</time>
      </trkpt>
      <trkpt lat="49.35857" lon="1.20215">
        <ele>139</ele>
        <time>2016-05-01T08:27:02.000Z</time>
      </trkpt>
      <trkpt lat="49.35867" lon="1.20214">
        <ele>141</ele>
        <time>2016-05-01T08:27:04.000Z</time>
      </trkpt>
      <trkpt lat="49.35867" lon="1.20214">
        <ele>141</ele>
        <time>2016-05-01T08:27:06.000Z</time>
      </trkpt>
      <trkpt lat="49.35878" lon="1.20212">
        <ele>142</ele>
        <time>2016-05-01T08:27:08.000Z</time>
      </trkpt>
      <trkpt lat="49.35886" lon="1.20211">
        <ele>146</ele>
        <time>2016-05-01T08:27:12.000Z</time>
      </trkpt>
      <trkpt lat="49.35892" lon="1.20211">
        <ele>143</ele>
        <time>2016-05-01T08:27:14.000Z</time>
      </trkpt>
      <trkpt lat="49.35899" lon="1.20213">
        <ele>142</ele>
        <time>2016-05-01T08:27:16.000Z</time>
      </trkpt>
      <trkpt lat="49.35908" lon="1.20214">
        <ele>141</ele>
        <time>2016-05-01T08:27:18.000Z</time>
      </trkpt>
      <trkpt lat="49.35916" lon="1.20216">
        <ele>140</ele>
        <time>2016-05-01T08:27:20.000Z</time>
      </trkpt>
      <trkpt lat="49.35924" lon="1.2022">
        <ele>139</ele>
        <time>2016-05-01T08:27:22.000Z</time>
      </trkpt>
      <trkpt lat="49.35933" lon="1.20225">
        <ele>139</ele>
        <time>2016-05-01T08:27:24.000Z</time>
      </trkpt>
      <trkpt lat="49.35941" lon="1.20229">
        <ele>138</ele>
        <time>2016-05-01T08:27:26.000Z</time>
      </trkpt>
      <trkpt lat="49.3595" lon="1.20231">
        <ele>139</ele>
        <time>2016-05-01T08:27:28.000Z</time>
      </trkpt>
      <trkpt lat="49.35958" lon="1.20233">
        <ele>137</ele>
        <time>2016-05-01T08:27:30.000Z</time>
      </trkpt>
      <trkpt lat="49.35966" lon="1.20233">
        <ele>137</ele>
        <time>2016-05-01T08:27:32.000Z</time>
      </trkpt>
      <trkpt lat="49.35978" lon="1.20234">
        <ele>137</ele>
        <time>2016-05-01T08:27:34.000Z</time>
      </trkpt>
      <trkpt lat="49.35986" lon="1.20235">
        <ele>137</ele>
        <time>2016-05-01T08:27:36.000Z</time>
      </trkpt>
      <trkpt lat="49.35995" lon="1.20237">
        <ele>136</ele>
        <time>2016-05-01T08:27:38.000Z</time>
      </trkpt>
      <trkpt lat="49.36003" lon="1.20239">
        <ele>136</ele>
        <time>2016-05-01T08:27:40.000Z</time>
      </trkpt>
      <trkpt lat="49.36011" lon="1.20241">
        <ele>137</ele>
        <time>2016-05-01T08:27:42.000Z</time>
      </trkpt>
      <trkpt lat="49.36019" lon="1.20244">
        <ele>138</ele>
        <time>2016-05-01T08:27:44.000Z</time>
      </trkpt>
      <trkpt lat="49.36026" lon="1.20249">
        <ele>137</ele>
        <time>2016-05-01T08:27:46.000Z</time>
      </trkpt>
      <trkpt lat="49.36034" lon="1.20253">
        <ele>136</ele>
        <time>2016-05-01T08:27:48.000Z</time>
      </trkpt>
      <trkpt lat="49.3604" lon="1.20258">
        <ele>136</ele>
        <time>2016-05-01T08:27:50.000Z</time>
      </trkpt>
      <trkpt lat="49.36047" lon="1.20263">
        <ele>137</ele>
        <time>2016-05-01T08:27:52.000Z</time>
      </trkpt>
      <trkpt lat="49.36053" lon="1.20268">
        <ele>137</ele>
        <time>2016-05-01T08:27:54.000Z</time>
      </trkpt>
      <trkpt lat="49.3606" lon="1.20272">
        <ele>137</ele>
        <time>2016-05-01T08:27:56.000Z</time>
      </trkpt>
      <trkpt lat="49.36068" lon="1.20277">
        <ele>137</ele>
        <time>2016-05-01T08:27:58.000Z</time>
      </trkpt>
      <trkpt lat="49.36074" lon="1.20282">
        <ele>136</ele>
        <time>2016-05-01T08:28:00.000Z</time>
      </trkpt>
      <trkpt lat="49.3608" lon="1.20289">
        <ele>136</ele>
        <time>2016-05-01T08:28:02.000Z</time>
      </trkpt>
      <trkpt lat="49.36086" lon="1.20296">
        <ele>136</ele>
        <time>2016-05-01T08:28:04.000Z</time>
      </trkpt>
      <trkpt lat="49.36091" lon="1.20303">
        <ele>134</ele>
        <time>2016-05-01T08:28:06.000Z</time>
      </trkpt>
      <trkpt lat="49.36097" lon="1.20309">
        <ele>133</ele>
        <time>2016-05-01T08:28:08.000Z</time>
      </trkpt>
      <trkpt lat="49.36102" lon="1.20315">
        <ele>133</ele>
        <time>2016-05-01T08:28:10.000Z</time>
      </trkpt>
      <trkpt lat="49.36109" lon="1.20321">
        <ele>133</ele>
        <time>2016-05-01T08:28:12.000Z</time>
      </trkpt>
      <trkpt lat="49.36115" lon="1.20326">
        <ele>133</ele>
        <time>2016-05-01T08:28:14.000Z</time>
      </trkpt>
      <trkpt lat="49.36121" lon="1.20329">
        <ele>134</ele>
        <time>2016-05-01T08:28:16.000Z</time>
      </trkpt>
      <trkpt lat="49.36128" lon="1.20334">
        <ele>134</ele>
        <time>2016-05-01T08:28:18.000Z</time>
      </trkpt>
      <trkpt lat="49.36134" lon="1.20338">
        <ele>134</ele>
        <time>2016-05-01T08:28:20.000Z</time>
      </trkpt>
      <trkpt lat="49.3614" lon="1.20344">
        <ele>134</ele>
        <time>2016-05-01T08:28:22.000Z</time>
      </trkpt>
      <trkpt lat="49.36146" lon="1.2035">
        <ele>133</ele>
        <time>2016-05-01T08:28:24.000Z</time>
      </trkpt>
      <trkpt lat="49.36152" lon="1.20355">
        <ele>132</ele>
        <time>2016-05-01T08:28:26.000Z</time>
      </trkpt>
      <trkpt lat="49.36152" lon="1.20355">
        <ele>132</ele>
        <time>2016-05-01T08:28:28.000Z</time>
      </trkpt>
      <trkpt lat="49.36161" lon="1.20363">
        <ele>131</ele>
        <time>2016-05-01T08:28:30.000Z</time>
      </trkpt>
      <trkpt lat="49.36166" lon="1.20368">
        <ele>132</ele>
        <time>2016-05-01T08:28:32.000Z</time>
      </trkpt>
      <trkpt lat="49.36172" lon="1.20372">
        <ele>132</ele>
        <time>2016-05-01T08:28:34.000Z</time>
      </trkpt>
      <trkpt lat="49.36178" lon="1.20375">
        <ele>132</ele>
        <time>2016-05-01T08:28:36.000Z</time>
      </trkpt>
      <trkpt lat="49.36184" lon="1.2038">
        <ele>131</ele>
        <time>2016-05-01T08:28:38.000Z</time>
      </trkpt>
      <trkpt lat="49.36184" lon="1.2038">
        <ele>131</ele>
        <time>2016-05-01T08:28:40.000Z</time>
      </trkpt>
      <trkpt lat="49.36192" lon="1.20385">
        <ele>131</ele>
        <time>2016-05-01T08:28:42.000Z</time>
      </trkpt>
      <trkpt lat="49.36192" lon="1.20385">
        <ele>131</ele>
        <time>2016-05-01T08:28:44.000Z</time>
      </trkpt>
      <trkpt lat="49.36201" lon="1.2039">
        <ele>135</ele>
        <time>2016-05-01T08:28:46.000Z</time>
      </trkpt>
      <trkpt lat="49.36201" lon="1.2039">
        <ele>135</ele>
        <time>2016-05-01T08:28:48.000Z</time>
      </trkpt>
      <trkpt lat="49.36213" lon="1.20397">
        <ele>137</ele>
        <time>2016-05-01T08:28:50.000Z</time>
      </trkpt>
      <trkpt lat="49.36221" lon="1.20401">
        <ele>138</ele>
        <time>2016-05-01T08:28:52.000Z</time>
      </trkpt>
      <trkpt lat="49.36228" lon="1.20406">
        <ele>140</ele>
        <time>2016-05-01T08:28:54.000Z</time>
      </trkpt>
      <trkpt lat="49.36236" lon="1.20411">
        <ele>140</ele>
        <time>2016-05-01T08:28:56.000Z</time>
      </trkpt>
      <trkpt lat="49.36243" lon="1.20415">
        <ele>139</ele>
        <time>2016-05-01T08:28:58.000Z</time>
      </trkpt>
      <trkpt lat="49.36249" lon="1.20416">
        <ele>138</ele>
        <time>2016-05-01T08:29:00.000Z</time>
      </trkpt>
      <trkpt lat="49.36255" lon="1.20415">
        <ele>140</ele>
        <time>2016-05-01T08:29:02.000Z</time>
      </trkpt>
      <trkpt lat="49.3626" lon="1.2041">
        <ele>140</ele>
        <time>2016-05-01T08:29:04.000Z</time>
      </trkpt>
      <trkpt lat="49.36265" lon="1.20402">
        <ele>138</ele>
        <time>2016-05-01T08:29:06.000Z</time>
      </trkpt>
      <trkpt lat="49.36265" lon="1.20402">
        <ele>138</ele>
        <time>2016-05-01T08:29:08.000Z</time>
      </trkpt>
      <trkpt lat="49.36264" lon="1.20387">
        <ele>130</ele>
        <time>2016-05-01T08:29:10.000Z</time>
      </trkpt>
      <trkpt lat="49.36261" lon="1.20376">
        <ele>128</ele>
        <time>2016-05-01T08:29:12.000Z</time>
      </trkpt>
      <trkpt lat="49.36258" lon="1.20367">
        <ele>127</ele>
        <time>2016-05-01T08:29:14.000Z</time>
      </trkpt>
      <trkpt lat="49.36256" lon="1.20357">
        <ele>129</ele>
        <time>2016-05-01T08:29:16.000Z</time>
      </trkpt>
      <trkpt lat="49.36254" lon="1.20349">
        <ele>132</ele>
        <time>2016-05-01T08:29:18.000Z</time>
      </trkpt>
      <trkpt lat="49.36254" lon="1.20349">
        <ele>132</ele>
        <time>2016-05-01T08:29:20.000Z</time>
      </trkpt>
      <trkpt lat="49.36253" lon="1.20333">
        <ele>134</ele>
        <time>2016-05-01T08:29:22.000Z</time>
      </trkpt>
      <trkpt lat="49.36255" lon="1.20323">
        <ele>133</ele>
        <time>2016-05-01T08:29:24.000Z</time>
      </trkpt>
      <trkpt lat="49.36258" lon="1.20313">
        <ele>131</ele>
        <time>2016-05-01T08:29:26.000Z</time>
      </trkpt>
      <trkpt lat="49.36262" lon="1.20302">
        <ele>128</ele>
        <time>2016-05-01T08:29:28.000Z</time>
      </trkpt>
      <trkpt lat="49.36266" lon="1.20292">
        <ele>127</ele>
        <time>2016-05-01T08:29:30.000Z</time>
      </trkpt>
      <trkpt lat="49.36269" lon="1.20283">
        <ele>127</ele>
        <time>2016-05-01T08:29:32.000Z</time>
      </trkpt>
      <trkpt lat="49.36272" lon="1.20275">
        <ele>128</ele>
        <time>2016-05-01T08:29:34.000Z</time>
      </trkpt>
      <trkpt lat="49.36275" lon="1.20265">
        <ele>129</ele>
        <time>2016-05-01T08:29:36.000Z</time>
      </trkpt>
      <trkpt lat="49.36277" lon="1.20254">
        <ele>129</ele>
        <time>2016-05-01T08:29:38.000Z</time>
      </trkpt>
      <trkpt lat="49.3628" lon="1.20244">
        <ele>129</ele>
        <time>2016-05-01T08:29:40.000Z</time>
      </trkpt>
      <trkpt lat="49.36282" lon="1.20234">
        <ele>131</ele>
        <time>2016-05-01T08:29:42.000Z</time>
      </trkpt>
      <trkpt lat="49.36284" lon="1.20224">
        <ele>133</ele>
        <time>2016-05-01T08:29:44.000Z</time>
      </trkpt>
      <trkpt lat="49.36287" lon="1.20216">
        <ele>134</ele>
        <time>2016-05-01T08:29:46.000Z</time>
      </trkpt>
      <trkpt lat="49.36291" lon="1.20208">
        <ele>135</ele>
        <time>2016-05-01T08:29:48.000Z</time>
      </trkpt>
      <trkpt lat="49.36296" lon="1.202">
        <ele>135</ele>
        <time>2016-05-01T08:29:50.000Z</time>
      </trkpt>
      <trkpt lat="49.36302" lon="1.20191">
        <ele>136</ele>
        <time>2016-05-01T08:29:52.000Z</time>
      </trkpt>
      <trkpt lat="49.36306" lon="1.20185">
        <ele>136</ele>
        <time>2016-05-01T08:29:54.000Z</time>
      </trkpt>
      <trkpt lat="49.36311" lon="1.20179">
        <ele>136</ele>
        <time>2016-05-01T08:29:56.000Z</time>
      </trkpt>
      <trkpt lat="49.36317" lon="1.20172">
        <ele>137</ele>
        <time>2016-05-01T08:29:58.000Z</time>
      </trkpt>
      <trkpt lat="49.36323" lon="1.20166">
        <ele>138</ele>
        <time>2016-05-01T08:30:00.000Z</time>
      </trkpt>
      <trkpt lat="49.36329" lon="1.2016">
        <ele>140</ele>
        <time>2016-05-01T08:30:02.000Z</time>
      </trkpt>
      <trkpt lat="49.36333" lon="1.2015">
        <ele>139</ele>
        <time>2016-05-01T08:30:04.000Z</time>
      </trkpt>
      <trkpt lat="49.36336" lon="1.20139">
        <ele>135</ele>
        <time>2016-05-01T08:30:06.000Z</time>
      </trkpt>
      <trkpt lat="49.36339" lon="1.20127">
        <ele>135</ele>
        <time>2016-05-01T08:30:08.000Z</time>
      </trkpt>
      <trkpt lat="49.36343" lon="1.20114">
        <ele>132</ele>
        <time>2016-05-01T08:30:10.000Z</time>
      </trkpt>
      <trkpt lat="49.36347" lon="1.20104">
        <ele>134</ele>
        <time>2016-05-01T08:30:12.000Z</time>
      </trkpt>
      <trkpt lat="49.36351" lon="1.20094">
        <ele>135</ele>
        <time>2016-05-01T08:30:14.000Z</time>
      </trkpt>
      <trkpt lat="49.36354" lon="1.20083">
        <ele>136</ele>
        <time>2016-05-01T08:30:16.000Z</time>
      </trkpt>
      <trkpt lat="49.36357" lon="1.20073">
        <ele>138</ele>
        <time>2016-05-01T08:30:18.000Z</time>
      </trkpt>
      <trkpt lat="49.36361" lon="1.20063">
        <ele>138</ele>
        <time>2016-05-01T08:30:20.000Z</time>
      </trkpt>
      <trkpt lat="49.36366" lon="1.20053">
        <ele>138</ele>
        <time>2016-05-01T08:30:22.000Z</time>
      </trkpt>
      <trkpt lat="49.36371" lon="1.20043">
        <ele>138</ele>
        <time>2016-05-01T08:30:24.000Z</time>
      </trkpt>
      <trkpt lat="49.36375" lon="1.20033">
        <ele>138</ele>
        <time>2016-05-01T08:30:26.000Z</time>
      </trkpt>
      <trkpt lat="49.36377" lon="1.20021">
        <ele>138</ele>
        <time>2016-05-01T08:30:28.000Z</time>
      </trkpt>
      <trkpt lat="49.36378" lon="1.20008">
        <ele>139</ele>
        <time>2016-05-01T08:30:30.000Z</time>
      </trkpt>
      <trkpt lat="49.36379" lon="1.19996">
        <ele>140</ele>
        <time>2016-05-01T08:30:32.000Z</time>
      </trkpt>
      <trkpt lat="49.36382" lon="1.19985">
        <ele>137</ele>
        <time>2016-05-01T08:30:34.000Z</time>
      </trkpt>
      <trkpt lat="49.36384" lon="1.19971">
        <ele>137</ele>
        <time>2016-05-01T08:30:36.000Z</time>
      </trkpt>
      <trkpt lat="49.36386" lon="1.19957">
        <ele>139</ele>
        <time>2016-05-01T08:30:38.000Z</time>
      </trkpt>
      <trkpt lat="49.36391" lon="1.19945">
        <ele>139</ele>
        <time>2016-05-01T08:30:40.000Z</time>
      </trkpt>
      <trkpt lat="49.36396" lon="1.19934">
        <ele>140</ele>
        <time>2016-05-01T08:30:42.000Z</time>
      </trkpt>
      <trkpt lat="49.36401" lon="1.19924">
        <ele>141</ele>
        <time>2016-05-01T08:30:44.000Z</time>
      </trkpt>
      <trkpt lat="49.36406" lon="1.19914">
        <ele>142</ele>
        <time>2016-05-01T08:30:46.000Z</time>
      </trkpt>
      <trkpt lat="49.36412" lon="1.19903">
        <ele>142</ele>
        <time>2016-05-01T08:30:48.000Z</time>
      </trkpt>
      <trkpt lat="49.36416" lon="1.19894">
        <ele>136</ele>
        <time>2016-05-01T08:30:50.000Z</time>
      </trkpt>
      <trkpt lat="49.36423" lon="1.19886">
        <ele>137</ele>
        <time>2016-05-01T08:30:52.000Z</time>
      </trkpt>
      <trkpt lat="49.36432" lon="1.1988">
        <ele>138</ele>
        <time>2016-05-01T08:30:54.000Z</time>
      </trkpt>
      <trkpt lat="49.3644" lon="1.19875">
        <ele>139</ele>
        <time>2016-05-01T08:30:56.000Z</time>
      </trkpt>
      <trkpt lat="49.36448" lon="1.19872">
        <ele>139</ele>
        <time>2016-05-01T08:30:58.000Z</time>
      </trkpt>
      <trkpt lat="49.3646" lon="1.19872">
        <ele>136</ele>
        <time>2016-05-01T08:31:01.000Z</time>
      </trkpt>
      <trkpt lat="49.36471" lon="1.19874">
        <ele>136</ele>
        <time>2016-05-01T08:31:03.000Z</time>
      </trkpt>
      <trkpt lat="49.36486" lon="1.19871">
        <ele>135</ele>
        <time>2016-05-01T08:31:05.000Z</time>
      </trkpt>
      <trkpt lat="49.36498" lon="1.19872">
        <ele>132</ele>
        <time>2016-05-01T08:31:09.000Z</time>
      </trkpt>
      <trkpt lat="49.36513" lon="1.19876">
        <ele>133</ele>
        <time>2016-05-01T08:31:13.000Z</time>
      </trkpt>
      <trkpt lat="49.36522" lon="1.19876">
        <ele>133</ele>
        <time>2016-05-01T08:31:15.000Z</time>
      </trkpt>
      <trkpt lat="49.36533" lon="1.19878">
        <ele>134</ele>
        <time>2016-05-01T08:31:17.000Z</time>
      </trkpt>
      <trkpt lat="49.36544" lon="1.1988">
        <ele>134</ele>
        <time>2016-05-01T08:31:19.000Z</time>
      </trkpt>
      <trkpt lat="49.36552" lon="1.19878">
        <ele>136</ele>
        <time>2016-05-01T08:31:21.000Z</time>
      </trkpt>
      <trkpt lat="49.3656" lon="1.19874">
        <ele>134</ele>
        <time>2016-05-01T08:31:23.000Z</time>
      </trkpt>
      <trkpt lat="49.36568" lon="1.1987">
        <ele>134</ele>
        <time>2016-05-01T08:31:25.000Z</time>
      </trkpt>
      <trkpt lat="49.36575" lon="1.19866">
        <ele>133</ele>
        <time>2016-05-01T08:31:27.000Z</time>
      </trkpt>
      <trkpt lat="49.36583" lon="1.19858">
        <ele>130</ele>
        <time>2016-05-01T08:31:29.000Z</time>
      </trkpt>
      <trkpt lat="49.36592" lon="1.19855">
        <ele>134</ele>
        <time>2016-05-01T08:31:31.000Z</time>
      </trkpt>
      <trkpt lat="49.366" lon="1.19853">
        <ele>136</ele>
        <time>2016-05-01T08:31:33.000Z</time>
      </trkpt>
      <trkpt lat="49.3661" lon="1.1985">
        <ele>136</ele>
        <time>2016-05-01T08:31:35.000Z</time>
      </trkpt>
      <trkpt lat="49.36618" lon="1.19845">
        <ele>137</ele>
        <time>2016-05-01T08:31:37.000Z</time>
      </trkpt>
      <trkpt lat="49.36626" lon="1.19839">
        <ele>137</ele>
        <time>2016-05-01T08:31:39.000Z</time>
      </trkpt>
      <trkpt lat="49.36634" lon="1.19835">
        <ele>138</ele>
        <time>2016-05-01T08:31:41.000Z</time>
      </trkpt>
      <trkpt lat="49.36642" lon="1.19825">
        <ele>139</ele>
        <time>2016-05-01T08:31:43.000Z</time>
      </trkpt>
      <trkpt lat="49.36651" lon="1.19816">
        <ele>135</ele>
        <time>2016-05-01T08:31:45.000Z</time>
      </trkpt>
      <trkpt lat="49.36659" lon="1.19807">
        <ele>135</ele>
        <time>2016-05-01T08:31:47.000Z</time>
      </trkpt>
      <trkpt lat="49.36664" lon="1.19798">
        <ele>134</ele>
        <time>2016-05-01T08:31:49.000Z</time>
      </trkpt>
      <trkpt lat="49.36668" lon="1.19786">
        <ele>134</ele>
        <time>2016-05-01T08:31:51.000Z</time>
      </trkpt>
      <trkpt lat="49.36673" lon="1.19773">
        <ele>133</ele>
        <time>2016-05-01T08:31:53.000Z</time>
      </trkpt>
      <trkpt lat="49.36678" lon="1.19762">
        <ele>133</ele>
        <time>2016-05-01T08:31:55.000Z</time>
      </trkpt>
      <trkpt lat="49.36684" lon="1.19752">
        <ele>133</ele>
        <time>2016-05-01T08:31:57.000Z</time>
      </trkpt>
      <trkpt lat="49.36691" lon="1.19748">
        <ele>135</ele>
        <time>2016-05-01T08:31:59.000Z</time>
      </trkpt>
      <trkpt lat="49.36697" lon="1.19745">
        <ele>139</ele>
        <time>2016-05-01T08:32:01.000Z</time>
      </trkpt>
      <trkpt lat="49.36697" lon="1.19745">
        <ele>139</ele>
        <time>2016-05-01T08:32:03.000Z</time>
      </trkpt>
      <trkpt lat="49.36705" lon="1.1974">
        <ele>141</ele>
        <time>2016-05-01T08:32:05.000Z</time>
      </trkpt>
      <trkpt lat="49.36705" lon="1.1974">
        <ele>141</ele>
        <time>2016-05-01T08:32:07.000Z</time>
      </trkpt>
      <trkpt lat="49.36715" lon="1.1974">
        <ele>140</ele>
        <time>2016-05-01T08:32:09.000Z</time>
      </trkpt>
      <trkpt lat="49.36715" lon="1.1974">
        <ele>140</ele>
        <time>2016-05-01T08:32:11.000Z</time>
      </trkpt>
      <trkpt lat="49.36721" lon="1.19742">
        <ele>143</ele>
        <time>2016-05-01T08:32:13.000Z</time>
      </trkpt>
      <trkpt lat="49.36721" lon="1.19742">
        <ele>143</ele>
        <time>2016-05-01T08:32:15.000Z</time>
      </trkpt>
      <trkpt lat="49.3673" lon="1.19741">
        <ele>146</ele>
        <time>2016-05-01T08:32:19.000Z</time>
      </trkpt>
      <trkpt lat="49.36737" lon="1.19741">
        <ele>146</ele>
        <time>2016-05-01T08:32:23.000Z</time>
      </trkpt>
      <trkpt lat="49.36746" lon="1.19743">
        <ele>148</ele>
        <time>2016-05-01T08:32:27.000Z</time>
      </trkpt>
      <trkpt lat="49.36746" lon="1.19743">
        <ele>148</ele>
        <time>2016-05-01T08:32:29.000Z</time>
      </trkpt>
      <trkpt lat="49.36749" lon="1.19744">
        <ele>152</ele>
        <time>2016-05-01T08:32:31.000Z</time>
      </trkpt>
      <trkpt lat="49.36753" lon="1.19745">
        <ele>152</ele>
        <time>2016-05-01T08:32:33.000Z</time>
      </trkpt>
      <trkpt lat="49.36757" lon="1.19746">
        <ele>153</ele>
        <time>2016-05-01T08:32:35.000Z</time>
      </trkpt>
      <trkpt lat="49.36761" lon="1.19746">
        <ele>154</ele>
        <time>2016-05-01T08:32:37.000Z</time>
      </trkpt>
      <trkpt lat="49.36766" lon="1.19746">
        <ele>154</ele>
        <time>2016-05-01T08:32:39.000Z</time>
      </trkpt>
      <trkpt lat="49.36774" lon="1.19746">
        <ele>156</ele>
        <time>2016-05-01T08:32:41.000Z</time>
      </trkpt>
      <trkpt lat="49.36774" lon="1.19746">
        <ele>156</ele>
        <time>2016-05-01T08:32:43.000Z</time>
      </trkpt>
      <trkpt lat="49.36781" lon="1.19748">
        <ele>153</ele>
        <time>2016-05-01T08:32:45.000Z</time>
      </trkpt>
      <trkpt lat="49.36781" lon="1.19748">
        <ele>153</ele>
        <time>2016-05-01T08:32:47.000Z</time>
      </trkpt>
      <trkpt lat="49.36788" lon="1.19747">
        <ele>153</ele>
        <time>2016-05-01T08:32:49.000Z</time>
      </trkpt>
      <trkpt lat="49.36798" lon="1.19743">
        <ele>149</ele>
        <time>2016-05-01T08:32:53.000Z</time>
      </trkpt>
      <trkpt lat="49.36798" lon="1.19743">
        <ele>149</ele>
        <time>2016-05-01T08:32:55.000Z</time>
      </trkpt>
      <trkpt lat="49.36805" lon="1.19741">
        <ele>152</ele>
        <time>2016-05-01T08:32:57.000Z</time>
      </trkpt>
      <trkpt lat="49.36805" lon="1.19741">
        <ele>152</ele>
        <time>2016-05-01T08:32:59.000Z</time>
      </trkpt>
      <trkpt lat="49.36812" lon="1.19735">
        <ele>159</ele>
        <time>2016-05-01T08:33:01.000Z</time>
      </trkpt>
      <trkpt lat="49.36819" lon="1.19728">
        <ele>162</ele>
        <time>2016-05-01T08:33:05.000Z</time>
      </trkpt>
      <trkpt lat="49.36819" lon="1.19728">
        <ele>162</ele>
        <time>2016-05-01T08:33:07.000Z</time>
      </trkpt>
      <trkpt lat="49.36827" lon="1.19722">
        <ele>166</ele>
        <time>2016-05-01T08:33:09.000Z</time>
      </trkpt>
      <trkpt lat="49.36827" lon="1.19722">
        <ele>166</ele>
        <time>2016-05-01T08:33:11.000Z</time>
      </trkpt>
      <trkpt lat="49.36833" lon="1.19717">
        <ele>167</ele>
        <time>2016-05-01T08:33:13.000Z</time>
      </trkpt>
      <trkpt lat="49.36833" lon="1.19717">
        <ele>167</ele>
        <time>2016-05-01T08:33:15.000Z</time>
      </trkpt>
      <trkpt lat="49.36833" lon="1.19717">
        <ele>167</ele>
        <time>2016-05-01T08:33:17.000Z</time>
      </trkpt>
      <trkpt lat="49.3684" lon="1.19709">
        <ele>171</ele>
        <time>2016-05-01T08:33:19.000Z</time>
      </trkpt>
      <trkpt lat="49.3684" lon="1.19709">
        <ele>171</ele>
        <time>2016-05-01T08:33:21.000Z</time>
      </trkpt>
      <trkpt lat="49.36846" lon="1.19703">
        <ele>173</ele>
        <time>2016-05-01T08:33:23.000Z</time>
      </trkpt>
      <trkpt lat="49.36851" lon="1.19696">
        <ele>175</ele>
        <time>2016-05-01T08:33:27.000Z</time>
      </trkpt>
      <trkpt lat="49.36851" lon="1.19696">
        <ele>175</ele>
        <time>2016-05-01T08:33:29.000Z</time>
      </trkpt>
      <trkpt lat="49.36856" lon="1.19692">
        <ele>176</ele>
        <time>2016-05-01T08:33:31.000Z</time>
      </trkpt>
      <trkpt lat="49.36862" lon="1.19687">
        <ele>182</ele>
        <time>2016-05-01T08:33:35.000Z</time>
      </trkpt>
      <trkpt lat="49.36868" lon="1.19681">
        <ele>185</ele>
        <time>2016-05-01T08:33:39.000Z</time>
      </trkpt>
      <trkpt lat="49.36868" lon="1.19681">
        <ele>185</ele>
        <time>2016-05-01T08:33:41.000Z</time>
      </trkpt>
      <trkpt lat="49.36873" lon="1.19672">
        <ele>184</ele>
        <time>2016-05-01T08:33:43.000Z</time>
      </trkpt>
      <trkpt lat="49.36873" lon="1.19672">
        <ele>184</ele>
        <time>2016-05-01T08:33:45.000Z</time>
      </trkpt>
      <trkpt lat="49.36873" lon="1.19672">
        <ele>184</ele>
        <time>2016-05-01T08:33:47.000Z</time>
      </trkpt>
      <trkpt lat="49.3688" lon="1.19663">
        <ele>186</ele>
        <time>2016-05-01T08:33:49.000Z</time>
      </trkpt>
      <trkpt lat="49.3688" lon="1.19663">
        <ele>186</ele>
        <time>2016-05-01T08:33:51.000Z</time>
      </trkpt>
      <trkpt lat="49.36886" lon="1.19655">
        <ele>188</ele>
        <time>2016-05-01T08:33:55.000Z</time>
      </trkpt>
      <trkpt lat="49.36886" lon="1.19655">
        <ele>188</ele>
        <time>2016-05-01T08:33:57.000Z</time>
      </trkpt>
      <trkpt lat="49.36886" lon="1.19655">
        <ele>188</ele>
        <time>2016-05-01T08:33:59.000Z</time>
      </trkpt>
      <trkpt lat="49.36892" lon="1.19647">
        <ele>185</ele>
        <time>2016-05-01T08:34:01.000Z</time>
      </trkpt>
      <trkpt lat="49.36897" lon="1.19642">
        <ele>189</ele>
        <time>2016-05-01T08:34:05.000Z</time>
      </trkpt>
      <trkpt lat="49.36903" lon="1.19639">
        <ele>186</ele>
        <time>2016-05-01T08:34:09.000Z</time>
      </trkpt>
      <trkpt lat="49.36903" lon="1.19639">
        <ele>186</ele>
        <time>2016-05-01T08:34:11.000Z</time>
      </trkpt>
      <trkpt lat="49.36911" lon="1.19639">
        <ele>193</ele>
        <time>2016-05-01T08:34:15.000Z</time>
      </trkpt>
      <trkpt lat="49.36917" lon="1.1964">
        <ele>196</ele>
        <time>2016-05-01T08:34:19.000Z</time>
      </trkpt>
      <trkpt lat="49.36917" lon="1.1964">
        <ele>196</ele>
        <time>2016-05-01T08:34:21.000Z</time>
      </trkpt>
      <trkpt lat="49.36917" lon="1.1964">
        <ele>196</ele>
        <time>2016-05-01T08:34:23.000Z</time>
      </trkpt>
      <trkpt lat="49.36927" lon="1.19639">
        <ele>193</ele>
        <time>2016-05-01T08:34:25.000Z</time>
      </trkpt>
      <trkpt lat="49.3693" lon="1.19637">
        <ele>195</ele>
        <time>2016-05-01T08:34:29.000Z</time>
      </trkpt>
      <trkpt lat="49.36934" lon="1.19635">
        <ele>196</ele>
        <time>2016-05-01T08:34:31.000Z</time>
      </trkpt>
      <trkpt lat="49.36937" lon="1.19632">
        <ele>196</ele>
        <time>2016-05-01T08:34:33.000Z</time>
      </trkpt>
      <trkpt lat="49.3694" lon="1.1963">
        <ele>196</ele>
        <time>2016-05-01T08:34:35.000Z</time>
      </trkpt>
      <trkpt lat="49.36944" lon="1.19628">
        <ele>197</ele>
        <time>2016-05-01T08:34:37.000Z</time>
      </trkpt>
      <trkpt lat="49.36951" lon="1.19624">
        <ele>197</ele>
        <time>2016-05-01T08:34:39.000Z</time>
      </trkpt>
      <trkpt lat="49.36951" lon="1.19624">
        <ele>197</ele>
        <time>2016-05-01T08:34:41.000Z</time>
      </trkpt>
      <trkpt lat="49.36959" lon="1.19618">
        <ele>195</ele>
        <time>2016-05-01T08:34:43.000Z</time>
      </trkpt>
      <trkpt lat="49.36966" lon="1.19612">
        <ele>192</ele>
        <time>2016-05-01T08:34:47.000Z</time>
      </trkpt>
      <trkpt lat="49.36966" lon="1.19612">
        <ele>192</ele>
        <time>2016-05-01T08:34:49.000Z</time>
      </trkpt>
      <trkpt lat="49.36974" lon="1.1961">
        <ele>194</ele>
        <time>2016-05-01T08:34:51.000Z</time>
      </trkpt>
      <trkpt lat="49.36981" lon="1.19605">
        <ele>199</ele>
        <time>2016-05-01T08:34:55.000Z</time>
      </trkpt>
      <trkpt lat="49.3699" lon="1.19601">
        <ele>199</ele>
        <time>2016-05-01T08:34:59.000Z</time>
      </trkpt>
      <trkpt lat="49.3699" lon="1.19601">
        <ele>199</ele>
        <time>2016-05-01T08:35:01.000Z</time>
      </trkpt>
      <trkpt lat="49.36998" lon="1.19597">
        <ele>200</ele>
        <time>2016-05-01T08:35:03.000Z</time>
      </trkpt>
      <trkpt lat="49.36998" lon="1.19597">
        <ele>200</ele>
        <time>2016-05-01T08:35:05.000Z</time>
      </trkpt>
      <trkpt lat="49.37006" lon="1.19595">
        <ele>201</ele>
        <time>2016-05-01T08:35:07.000Z</time>
      </trkpt>
      <trkpt lat="49.37015" lon="1.19594">
        <ele>199</ele>
        <time>2016-05-01T08:35:11.000Z</time>
      </trkpt>
      <trkpt lat="49.37015" lon="1.19594">
        <ele>199</ele>
        <time>2016-05-01T08:35:13.000Z</time>
      </trkpt>
      <trkpt lat="49.37024" lon="1.19591">
        <ele>200</ele>
        <time>2016-05-01T08:35:15.000Z</time>
      </trkpt>
      <trkpt lat="49.37031" lon="1.19589">
        <ele>205</ele>
        <time>2016-05-01T08:35:19.000Z</time>
      </trkpt>
      <trkpt lat="49.37031" lon="1.19589">
        <ele>205</ele>
        <time>2016-05-01T08:35:21.000Z</time>
      </trkpt>
      <trkpt lat="49.37037" lon="1.19588">
        <ele>205</ele>
        <time>2016-05-01T08:35:23.000Z</time>
      </trkpt>
      <trkpt lat="49.37046" lon="1.19584">
        <ele>201</ele>
        <time>2016-05-01T08:35:27.000Z</time>
      </trkpt>
      <trkpt lat="49.37056" lon="1.19583">
        <ele>200</ele>
        <time>2016-05-01T08:35:31.000Z</time>
      </trkpt>
      <trkpt lat="49.37056" lon="1.19583">
        <ele>200</ele>
        <time>2016-05-01T08:35:33.000Z</time>
      </trkpt>
      <trkpt lat="49.37066" lon="1.19579">
        <ele>200</ele>
        <time>2016-05-01T08:35:35.000Z</time>
      </trkpt>
      <trkpt lat="49.37074" lon="1.19576">
        <ele>201</ele>
        <time>2016-05-01T08:35:39.000Z</time>
      </trkpt>
      <trkpt lat="49.37083" lon="1.19577">
        <ele>199</ele>
        <time>2016-05-01T08:35:43.000Z</time>
      </trkpt>
      <trkpt lat="49.37089" lon="1.19577">
        <ele>199</ele>
        <time>2016-05-01T08:35:45.000Z</time>
      </trkpt>
      <trkpt lat="49.37099" lon="1.19578">
        <ele>198</ele>
        <time>2016-05-01T08:35:49.000Z</time>
      </trkpt>
      <trkpt lat="49.37099" lon="1.19578">
        <ele>198</ele>
        <time>2016-05-01T08:35:51.000Z</time>
      </trkpt>
      <trkpt lat="49.37109" lon="1.19582">
        <ele>197</ele>
        <time>2016-05-01T08:35:53.000Z</time>
      </trkpt>
      <trkpt lat="49.37115" lon="1.19583">
        <ele>196</ele>
        <time>2016-05-01T08:35:55.000Z</time>
      </trkpt>
      <trkpt lat="49.37122" lon="1.19581">
        <ele>196</ele>
        <time>2016-05-01T08:35:57.000Z</time>
      </trkpt>
      <trkpt lat="49.37128" lon="1.19579">
        <ele>194</ele>
        <time>2016-05-01T08:35:59.000Z</time>
      </trkpt>
      <trkpt lat="49.37134" lon="1.19578">
        <ele>194</ele>
        <time>2016-05-01T08:36:01.000Z</time>
      </trkpt>
      <trkpt lat="49.3714" lon="1.19576">
        <ele>194</ele>
        <time>2016-05-01T08:36:03.000Z</time>
      </trkpt>
      <trkpt lat="49.3715" lon="1.19576">
        <ele>195</ele>
        <time>2016-05-01T08:36:07.000Z</time>
      </trkpt>
      <trkpt lat="49.3715" lon="1.19576">
        <ele>195</ele>
        <time>2016-05-01T08:36:09.000Z</time>
      </trkpt>
      <trkpt lat="49.37161" lon="1.19576">
        <ele>196</ele>
        <time>2016-05-01T08:36:11.000Z</time>
      </trkpt>
      <trkpt lat="49.37172" lon="1.19576">
        <ele>197</ele>
        <time>2016-05-01T08:36:15.000Z</time>
      </trkpt>
      <trkpt lat="49.37177" lon="1.19574">
        <ele>197</ele>
        <time>2016-05-01T08:36:17.000Z</time>
      </trkpt>
      <trkpt lat="49.37183" lon="1.19573">
        <ele>197</ele>
        <time>2016-05-01T08:36:19.000Z</time>
      </trkpt>
      <trkpt lat="49.37189" lon="1.19571">
        <ele>198</ele>
        <time>2016-05-01T08:36:21.000Z</time>
      </trkpt>
      <trkpt lat="49.37195" lon="1.1957">
        <ele>198</ele>
        <time>2016-05-01T08:36:23.000Z</time>
      </trkpt>
      <trkpt lat="49.37201" lon="1.19568">
        <ele>198</ele>
        <time>2016-05-01T08:36:25.000Z</time>
      </trkpt>
      <trkpt lat="49.37207" lon="1.19566">
        <ele>199</ele>
        <time>2016-05-01T08:36:27.000Z</time>
      </trkpt>
      <trkpt lat="49.37213" lon="1.19564">
        <ele>198</ele>
        <time>2016-05-01T08:36:29.000Z</time>
      </trkpt>
      <trkpt lat="49.37218" lon="1.19561">
        <ele>198</ele>
        <time>2016-05-01T08:36:31.000Z</time>
      </trkpt>
      <trkpt lat="49.37225" lon="1.19557">
        <ele>197</ele>
        <time>2016-05-01T08:36:33.000Z</time>
      </trkpt>
      <trkpt lat="49.3723" lon="1.19554">
        <ele>197</ele>
        <time>2016-05-01T08:36:35.000Z</time>
      </trkpt>
      <trkpt lat="49.37236" lon="1.19551">
        <ele>197</ele>
        <time>2016-05-01T08:36:37.000Z</time>
      </trkpt>
      <trkpt lat="49.37242" lon="1.19548">
        <ele>197</ele>
        <time>2016-05-01T08:36:39.000Z</time>
      </trkpt>
      <trkpt lat="49.37248" lon="1.19546">
        <ele>196</ele>
        <time>2016-05-01T08:36:41.000Z</time>
      </trkpt>
      <trkpt lat="49.37255" lon="1.19544">
        <ele>197</ele>
        <time>2016-05-01T08:36:43.000Z</time>
      </trkpt>
      <trkpt lat="49.37261" lon="1.19541">
        <ele>197</ele>
        <time>2016-05-01T08:36:45.000Z</time>
      </trkpt>
      <trkpt lat="49.37267" lon="1.19539">
        <ele>197</ele>
        <time>2016-05-01T08:36:47.000Z</time>
      </trkpt>
      <trkpt lat="49.37274" lon="1.19538">
        <ele>197</ele>
        <time>2016-05-01T08:36:49.000Z</time>
      </trkpt>
      <trkpt lat="49.37281" lon="1.19535">
        <ele>197</ele>
        <time>2016-05-01T08:36:51.000Z</time>
      </trkpt>
      <trkpt lat="49.37287" lon="1.19533">
        <ele>197</ele>
        <time>2016-05-01T08:36:53.000Z</time>
      </trkpt>
      <trkpt lat="49.37293" lon="1.19531">
        <ele>197</ele>
        <time>2016-05-01T08:36:55.000Z</time>
      </trkpt>
      <trkpt lat="49.373" lon="1.19529">
        <ele>197</ele>
        <time>2016-05-01T08:36:57.000Z</time>
      </trkpt>
      <trkpt lat="49.37306" lon="1.19527">
        <ele>197</ele>
        <time>2016-05-01T08:36:59.000Z</time>
      </trkpt>
      <trkpt lat="49.37313" lon="1.19524">
        <ele>197</ele>
        <time>2016-05-01T08:37:01.000Z</time>
      </trkpt>
      <trkpt lat="49.37319" lon="1.19522">
        <ele>197</ele>
        <time>2016-05-01T08:37:03.000Z</time>
      </trkpt>
      <trkpt lat="49.37325" lon="1.1952">
        <ele>198</ele>
        <time>2016-05-01T08:37:05.000Z</time>
      </trkpt>
      <trkpt lat="49.37331" lon="1.19518">
        <ele>197</ele>
        <time>2016-05-01T08:37:07.000Z</time>
      </trkpt>
      <trkpt lat="49.37338" lon="1.19516">
        <ele>198</ele>
        <time>2016-05-01T08:37:09.000Z</time>
      </trkpt>
      <trkpt lat="49.37344" lon="1.19514">
        <ele>198</ele>
        <time>2016-05-01T08:37:11.000Z</time>
      </trkpt>
      <trkpt lat="49.3735" lon="1.19511">
        <ele>197</ele>
        <time>2016-05-01T08:37:13.000Z</time>
      </trkpt>
      <trkpt lat="49.37357" lon="1.19509">
        <ele>198</ele>
        <time>2016-05-01T08:37:15.000Z</time>
      </trkpt>
      <trkpt lat="49.37363" lon="1.19507">
        <ele>198</ele>
        <time>2016-05-01T08:37:17.000Z</time>
      </trkpt>
      <trkpt lat="49.37369" lon="1.19505">
        <ele>198</ele>
        <time>2016-05-01T08:37:19.000Z</time>
      </trkpt>
      <trkpt lat="49.37375" lon="1.19503">
        <ele>198</ele>
        <time>2016-05-01T08:37:21.000Z</time>
      </trkpt>
      <trkpt lat="49.37381" lon="1.19501">
        <ele>198</ele>
        <time>2016-05-01T08:37:23.000Z</time>
      </trkpt>
      <trkpt lat="49.37387" lon="1.19499">
        <ele>198</ele>
        <time>2016-05-01T08:37:25.000Z</time>
      </trkpt>
      <trkpt lat="49.37394" lon="1.19497">
        <ele>199</ele>
        <time>2016-05-01T08:37:27.000Z</time>
      </trkpt>
      <trkpt lat="49.374" lon="1.19496">
        <ele>199</ele>
        <time>2016-05-01T08:37:29.000Z</time>
      </trkpt>
      <trkpt lat="49.37407" lon="1.19494">
        <ele>199</ele>
        <time>2016-05-01T08:37:31.000Z</time>
      </trkpt>
      <trkpt lat="49.37413" lon="1.19493">
        <ele>199</ele>
        <time>2016-05-01T08:37:33.000Z</time>
      </trkpt>
      <trkpt lat="49.3742" lon="1.19492">
        <ele>199</ele>
        <time>2016-05-01T08:37:35.000Z</time>
      </trkpt>
      <trkpt lat="49.37426" lon="1.19491">
        <ele>198</ele>
        <time>2016-05-01T08:37:37.000Z</time>
      </trkpt>
      <trkpt lat="49.37432" lon="1.1949">
        <ele>198</ele>
        <time>2016-05-01T08:37:39.000Z</time>
      </trkpt>
      <trkpt lat="49.37439" lon="1.19489">
        <ele>198</ele>
        <time>2016-05-01T08:37:41.000Z</time>
      </trkpt>
      <trkpt lat="49.37446" lon="1.19488">
        <ele>199</ele>
        <time>2016-05-01T08:37:43.000Z</time>
      </trkpt>
      <trkpt lat="49.37453" lon="1.19487">
        <ele>198</ele>
        <time>2016-05-01T08:37:45.000Z</time>
      </trkpt>
      <trkpt lat="49.3746" lon="1.19487">
        <ele>198</ele>
        <time>2016-05-01T08:37:47.000Z</time>
      </trkpt>
      <trkpt lat="49.37467" lon="1.19486">
        <ele>198</ele>
        <time>2016-05-01T08:37:49.000Z</time>
      </trkpt>
      <trkpt lat="49.37474" lon="1.19485">
        <ele>198</ele>
        <time>2016-05-01T08:37:51.000Z</time>
      </trkpt>
      <trkpt lat="49.37482" lon="1.19485">
        <ele>197</ele>
        <time>2016-05-01T08:37:53.000Z</time>
      </trkpt>
      <trkpt lat="49.37489" lon="1.19485">
        <ele>197</ele>
        <time>2016-05-01T08:37:55.000Z</time>
      </trkpt>
      <trkpt lat="49.37497" lon="1.19485">
        <ele>197</ele>
        <time>2016-05-01T08:37:57.000Z</time>
      </trkpt>
      <trkpt lat="49.37505" lon="1.19485">
        <ele>197</ele>
        <time>2016-05-01T08:37:59.000Z</time>
      </trkpt>
      <trkpt lat="49.37512" lon="1.19486">
        <ele>197</ele>
        <time>2016-05-01T08:38:01.000Z</time>
      </trkpt>
      <trkpt lat="49.3752" lon="1.19486">
        <ele>196</ele>
        <time>2016-05-01T08:38:03.000Z</time>
      </trkpt>
      <trkpt lat="49.37527" lon="1.19487">
        <ele>196</ele>
        <time>2016-05-01T08:38:05.000Z</time>
      </trkpt>
      <trkpt lat="49.37535" lon="1.19487">
        <ele>196</ele>
        <time>2016-05-01T08:38:07.000Z</time>
      </trkpt>
      <trkpt lat="49.37543" lon="1.19488">
        <ele>196</ele>
        <time>2016-05-01T08:38:09.000Z</time>
      </trkpt>
      <trkpt lat="49.37551" lon="1.19488">
        <ele>196</ele>
        <time>2016-05-01T08:38:11.000Z</time>
      </trkpt>
      <trkpt lat="49.37559" lon="1.19488">
        <ele>195</ele>
        <time>2016-05-01T08:38:13.000Z</time>
      </trkpt>
      <trkpt lat="49.37567" lon="1.19489">
        <ele>195</ele>
        <time>2016-05-01T08:38:15.000Z</time>
      </trkpt>
      <trkpt lat="49.37575" lon="1.19489">
        <ele>195</ele>
        <time>2016-05-01T08:38:17.000Z</time>
      </trkpt>
      <trkpt lat="49.37583" lon="1.19489">
        <ele>195</ele>
        <time>2016-05-01T08:38:19.000Z</time>
      </trkpt>
      <trkpt lat="49.37591" lon="1.19489">
        <ele>194</ele>
        <time>2016-05-01T08:38:21.000Z</time>
      </trkpt>
      <trkpt lat="49.37598" lon="1.19489">
        <ele>194</ele>
        <time>2016-05-01T08:38:23.000Z</time>
      </trkpt>
      <trkpt lat="49.37606" lon="1.19489">
        <ele>194</ele>
        <time>2016-05-01T08:38:25.000Z</time>
      </trkpt>
      <trkpt lat="49.37614" lon="1.1949">
        <ele>194</ele>
        <time>2016-05-01T08:38:27.000Z</time>
      </trkpt>
      <trkpt lat="49.37621" lon="1.19491">
        <ele>194</ele>
        <time>2016-05-01T08:38:29.000Z</time>
      </trkpt>
      <trkpt lat="49.37629" lon="1.19491">
        <ele>194</ele>
        <time>2016-05-01T08:38:31.000Z</time>
      </trkpt>
      <trkpt lat="49.37638" lon="1.19492">
        <ele>194</ele>
        <time>2016-05-01T08:38:33.000Z</time>
      </trkpt>
      <trkpt lat="49.37646" lon="1.19493">
        <ele>194</ele>
        <time>2016-05-01T08:38:35.000Z</time>
      </trkpt>
      <trkpt lat="49.37654" lon="1.19495">
        <ele>193</ele>
        <time>2016-05-01T08:38:37.000Z</time>
      </trkpt>
      <trkpt lat="49.37662" lon="1.19495">
        <ele>193</ele>
        <time>2016-05-01T08:38:39.000Z</time>
      </trkpt>
      <trkpt lat="49.3767" lon="1.19496">
        <ele>193</ele>
        <time>2016-05-01T08:38:41.000Z</time>
      </trkpt>
      <trkpt lat="49.37679" lon="1.19496">
        <ele>193</ele>
        <time>2016-05-01T08:38:43.000Z</time>
      </trkpt>
      <trkpt lat="49.37687" lon="1.19497">
        <ele>193</ele>
        <time>2016-05-01T08:38:45.000Z</time>
      </trkpt>
      <trkpt lat="49.37695" lon="1.19498">
        <ele>193</ele>
        <time>2016-05-01T08:38:47.000Z</time>
      </trkpt>
      <trkpt lat="49.37704" lon="1.195">
        <ele>192</ele>
        <time>2016-05-01T08:38:49.000Z</time>
      </trkpt>
      <trkpt lat="49.37712" lon="1.195">
        <ele>192</ele>
        <time>2016-05-01T08:38:51.000Z</time>
      </trkpt>
      <trkpt lat="49.3772" lon="1.19501">
        <ele>192</ele>
        <time>2016-05-01T08:38:53.000Z</time>
      </trkpt>
      <trkpt lat="49.37729" lon="1.19502">
        <ele>192</ele>
        <time>2016-05-01T08:38:55.000Z</time>
      </trkpt>
      <trkpt lat="49.37737" lon="1.19503">
        <ele>192</ele>
        <time>2016-05-01T08:38:57.000Z</time>
      </trkpt>
      <trkpt lat="49.37746" lon="1.19504">
        <ele>191</ele>
        <time>2016-05-01T08:38:59.000Z</time>
      </trkpt>
      <trkpt lat="49.37754" lon="1.19505">
        <ele>192</ele>
        <time>2016-05-01T08:39:01.000Z</time>
      </trkpt>
      <trkpt lat="49.37763" lon="1.19506">
        <ele>192</ele>
        <time>2016-05-01T08:39:03.000Z</time>
      </trkpt>
      <trkpt lat="49.37772" lon="1.19508">
        <ele>191</ele>
        <time>2016-05-01T08:39:05.000Z</time>
      </trkpt>
      <trkpt lat="49.3778" lon="1.19511">
        <ele>192</ele>
        <time>2016-05-01T08:39:07.000Z</time>
      </trkpt>
      <trkpt lat="49.37788" lon="1.19513">
        <ele>192</ele>
        <time>2016-05-01T08:39:09.000Z</time>
      </trkpt>
      <trkpt lat="49.37796" lon="1.19515">
        <ele>191</ele>
        <time>2016-05-01T08:39:11.000Z</time>
      </trkpt>
      <trkpt lat="49.37804" lon="1.19518">
        <ele>192</ele>
        <time>2016-05-01T08:39:13.000Z</time>
      </trkpt>
      <trkpt lat="49.37812" lon="1.19521">
        <ele>192</ele>
        <time>2016-05-01T08:39:15.000Z</time>
      </trkpt>
      <trkpt lat="49.37821" lon="1.19525">
        <ele>193</ele>
        <time>2016-05-01T08:39:17.000Z</time>
      </trkpt>
      <trkpt lat="49.37829" lon="1.19528">
        <ele>193</ele>
        <time>2016-05-01T08:39:19.000Z</time>
      </trkpt>
      <trkpt lat="49.37837" lon="1.19532">
        <ele>193</ele>
        <time>2016-05-01T08:39:21.000Z</time>
      </trkpt>
      <trkpt lat="49.37845" lon="1.19535">
        <ele>193</ele>
        <time>2016-05-01T08:39:23.000Z</time>
      </trkpt>
      <trkpt lat="49.37852" lon="1.19538">
        <ele>193</ele>
        <time>2016-05-01T08:39:25.000Z</time>
      </trkpt>
      <trkpt lat="49.3786" lon="1.19541">
        <ele>194</ele>
        <time>2016-05-01T08:39:27.000Z</time>
      </trkpt>
      <trkpt lat="49.37868" lon="1.19545">
        <ele>194</ele>
        <time>2016-05-01T08:39:29.000Z</time>
      </trkpt>
      <trkpt lat="49.37875" lon="1.19548">
        <ele>194</ele>
        <time>2016-05-01T08:39:31.000Z</time>
      </trkpt>
      <trkpt lat="49.37883" lon="1.19551">
        <ele>195</ele>
        <time>2016-05-01T08:39:33.000Z</time>
      </trkpt>
      <trkpt lat="49.37891" lon="1.19554">
        <ele>195</ele>
        <time>2016-05-01T08:39:35.000Z</time>
      </trkpt>
      <trkpt lat="49.37899" lon="1.19557">
        <ele>195</ele>
        <time>2016-05-01T08:39:37.000Z</time>
      </trkpt>
      <trkpt lat="49.37906" lon="1.1956">
        <ele>195</ele>
        <time>2016-05-01T08:39:39.000Z</time>
      </trkpt>
      <trkpt lat="49.37914" lon="1.19564">
        <ele>195</ele>
        <time>2016-05-01T08:39:41.000Z</time>
      </trkpt>
      <trkpt lat="49.37922" lon="1.19567">
        <ele>196</ele>
        <time>2016-05-01T08:39:43.000Z</time>
      </trkpt>
      <trkpt lat="49.3793" lon="1.1957">
        <ele>196</ele>
        <time>2016-05-01T08:39:45.000Z</time>
      </trkpt>
      <trkpt lat="49.37938" lon="1.19573">
        <ele>196</ele>
        <time>2016-05-01T08:39:47.000Z</time>
      </trkpt>
      <trkpt lat="49.37946" lon="1.19576">
        <ele>196</ele>
        <time>2016-05-01T08:39:49.000Z</time>
      </trkpt>
      <trkpt lat="49.37953" lon="1.19579">
        <ele>196</ele>
        <time>2016-05-01T08:39:51.000Z</time>
      </trkpt>
      <trkpt lat="49.3796" lon="1.19582">
        <ele>196</ele>
        <time>2016-05-01T08:39:53.000Z</time>
      </trkpt>
      <trkpt lat="49.37968" lon="1.19585">
        <ele>196</ele>
        <time>2016-05-01T08:39:55.000Z</time>
      </trkpt>
      <trkpt lat="49.37975" lon="1.19589">
        <ele>196</ele>
        <time>2016-05-01T08:39:57.000Z</time>
      </trkpt>
      <trkpt lat="49.37982" lon="1.19592">
        <ele>196</ele>
        <time>2016-05-01T08:39:59.000Z</time>
      </trkpt>
      <trkpt lat="49.37982" lon="1.19592">
        <ele>196</ele>
        <time>2016-05-01T08:40:01.000Z</time>
      </trkpt>
      <trkpt lat="49.37992" lon="1.19596">
        <ele>196</ele>
        <time>2016-05-01T08:40:03.000Z</time>
      </trkpt>
      <trkpt lat="49.37992" lon="1.19596">
        <ele>196</ele>
        <time>2016-05-01T08:40:05.000Z</time>
      </trkpt>
      <trkpt lat="49.37999" lon="1.19598">
        <ele>196</ele>
        <time>2016-05-01T08:40:07.000Z</time>
      </trkpt>
      <trkpt lat="49.37999" lon="1.19598">
        <ele>196</ele>
        <time>2016-05-01T08:40:09.000Z</time>
      </trkpt>
      <trkpt lat="49.37999" lon="1.19598">
        <ele>196</ele>
        <time>2016-05-01T08:40:11.000Z</time>
      </trkpt>
      <trkpt lat="49.37999" lon="1.19598">
        <ele>196</ele>
        <time>2016-05-01T08:40:13.000Z</time>
      </trkpt>
      <trkpt lat="49.38007" lon="1.19612">
        <ele>197</ele>
        <time>2016-05-01T08:40:23.000Z</time>
      </trkpt>
      <trkpt lat="49.38013" lon="1.19624">
        <ele>197</ele>
        <time>2016-05-01T08:40:27.000Z</time>
      </trkpt>
      <trkpt lat="49.38017" lon="1.19631">
        <ele>197</ele>
        <time>2016-05-01T08:40:29.000Z</time>
      </trkpt>
      <trkpt lat="49.38021" lon="1.19639">
        <ele>197</ele>
        <time>2016-05-01T08:40:31.000Z</time>
      </trkpt>
      <trkpt lat="49.38026" lon="1.19646">
        <ele>197</ele>
        <time>2016-05-01T08:40:33.000Z</time>
      </trkpt>
      <trkpt lat="49.38029" lon="1.19654">
        <ele>198</ele>
        <time>2016-05-01T08:40:35.000Z</time>
      </trkpt>
      <trkpt lat="49.38029" lon="1.19654">
        <ele>198</ele>
        <time>2016-05-01T08:40:37.000Z</time>
      </trkpt>
      <trkpt lat="49.38032" lon="1.19664">
        <ele>197</ele>
        <time>2016-05-01T08:40:39.000Z</time>
      </trkpt>
      <trkpt lat="49.38032" lon="1.19664">
        <ele>197</ele>
        <time>2016-05-01T08:40:41.000Z</time>
      </trkpt>
      <trkpt lat="49.38032" lon="1.19664">
        <ele>197</ele>
        <time>2016-05-01T08:40:43.000Z</time>
      </trkpt>
      <trkpt lat="49.38029" lon="1.19657">
        <ele>197</ele>
        <time>2016-05-01T08:40:50.000Z</time>
      </trkpt>
      <trkpt lat="49.38029" lon="1.19657">
        <ele>197</ele>
        <time>2016-05-01T08:40:52.000Z</time>
      </trkpt>
      <trkpt lat="49.38029" lon="1.19657">
        <ele>197</ele>
        <time>2016-05-01T08:40:54.000Z</time>
      </trkpt>
      <trkpt lat="49.38033" lon="1.19659">
        <ele>199</ele>
        <time>2016-05-01T08:42:06.000Z</time>
      </trkpt>
      <trkpt lat="49.38038" lon="1.19671">
        <ele>199</ele>
        <time>2016-05-01T08:42:10.000Z</time>
      </trkpt>
      <trkpt lat="49.38045" lon="1.19684">
        <ele>198</ele>
        <time>2016-05-01T08:42:14.000Z</time>
      </trkpt>
      <trkpt lat="49.38048" lon="1.19691">
        <ele>198</ele>
        <time>2016-05-01T08:42:16.000Z</time>
      </trkpt>
      <trkpt lat="49.38052" lon="1.19699">
        <ele>198</ele>
        <time>2016-05-01T08:42:18.000Z</time>
      </trkpt>
      <trkpt lat="49.38057" lon="1.19706">
        <ele>198</ele>
        <time>2016-05-01T08:42:20.000Z</time>
      </trkpt>
      <trkpt lat="49.38062" lon="1.19715">
        <ele>198</ele>
        <time>2016-05-01T08:42:22.000Z</time>
      </trkpt>
      <trkpt lat="49.38067" lon="1.19722">
        <ele>197</ele>
        <time>2016-05-01T08:42:24.000Z</time>
      </trkpt>
      <trkpt lat="49.38072" lon="1.19731">
        <ele>197</ele>
        <time>2016-05-01T08:42:26.000Z</time>
      </trkpt>
      <trkpt lat="49.38076" lon="1.1974">
        <ele>197</ele>
        <time>2016-05-01T08:42:28.000Z</time>
      </trkpt>
      <trkpt lat="49.38081" lon="1.19749">
        <ele>197</ele>
        <time>2016-05-01T08:42:30.000Z</time>
      </trkpt>
      <trkpt lat="49.38086" lon="1.19759">
        <ele>197</ele>
        <time>2016-05-01T08:42:32.000Z</time>
      </trkpt>
      <trkpt lat="49.38092" lon="1.19769">
        <ele>197</ele>
        <time>2016-05-01T08:42:34.000Z</time>
      </trkpt>
      <trkpt lat="49.38099" lon="1.19779">
        <ele>197</ele>
        <time>2016-05-01T08:42:36.000Z</time>
      </trkpt>
      <trkpt lat="49.38105" lon="1.19789">
        <ele>197</ele>
        <time>2016-05-01T08:42:38.000Z</time>
      </trkpt>
      <trkpt lat="49.38111" lon="1.198">
        <ele>197</ele>
        <time>2016-05-01T08:42:40.000Z</time>
      </trkpt>
      <trkpt lat="49.38117" lon="1.19811">
        <ele>196</ele>
        <time>2016-05-01T08:42:42.000Z</time>
      </trkpt>
      <trkpt lat="49.38128" lon="1.19827">
        <ele>196</ele>
        <time>2016-05-01T08:42:45.000Z</time>
      </trkpt>
      <trkpt lat="49.38134" lon="1.19839">
        <ele>196</ele>
        <time>2016-05-01T08:42:47.000Z</time>
      </trkpt>
      <trkpt lat="49.38141" lon="1.1985">
        <ele>196</ele>
        <time>2016-05-01T08:42:49.000Z</time>
      </trkpt>
      <trkpt lat="49.38147" lon="1.19862">
        <ele>196</ele>
        <time>2016-05-01T08:42:51.000Z</time>
      </trkpt>
      <trkpt lat="49.38153" lon="1.19874">
        <ele>195</ele>
        <time>2016-05-01T08:42:53.000Z</time>
      </trkpt>
      <trkpt lat="49.3816" lon="1.19888">
        <ele>196</ele>
        <time>2016-05-01T08:42:55.000Z</time>
      </trkpt>
      <trkpt lat="49.38168" lon="1.19902">
        <ele>196</ele>
        <time>2016-05-01T08:42:57.000Z</time>
      </trkpt>
      <trkpt lat="49.38176" lon="1.19915">
        <ele>196</ele>
        <time>2016-05-01T08:42:59.000Z</time>
      </trkpt>
      <trkpt lat="49.38182" lon="1.19928">
        <ele>197</ele>
        <time>2016-05-01T08:43:01.000Z</time>
      </trkpt>
      <trkpt lat="49.3819" lon="1.1994">
        <ele>196</ele>
        <time>2016-05-01T08:43:03.000Z</time>
      </trkpt>
      <trkpt lat="49.38197" lon="1.19953">
        <ele>197</ele>
        <time>2016-05-01T08:43:05.000Z</time>
      </trkpt>
      <trkpt lat="49.38204" lon="1.19965">
        <ele>197</ele>
        <time>2016-05-01T08:43:07.000Z</time>
      </trkpt>
      <trkpt lat="49.38211" lon="1.19978">
        <ele>197</ele>
        <time>2016-05-01T08:43:09.000Z</time>
      </trkpt>
      <trkpt lat="49.38218" lon="1.19992">
        <ele>197</ele>
        <time>2016-05-01T08:43:11.000Z</time>
      </trkpt>
      <trkpt lat="49.38224" lon="1.20006">
        <ele>198</ele>
        <time>2016-05-01T08:43:13.000Z</time>
      </trkpt>
      <trkpt lat="49.3823" lon="1.2002">
        <ele>198</ele>
        <time>2016-05-01T08:43:15.000Z</time>
      </trkpt>
      <trkpt lat="49.38235" lon="1.20034">
        <ele>198</ele>
        <time>2016-05-01T08:43:17.000Z</time>
      </trkpt>
      <trkpt lat="49.3824" lon="1.20048">
        <ele>198</ele>
        <time>2016-05-01T08:43:19.000Z</time>
      </trkpt>
      <trkpt lat="49.38246" lon="1.20063">
        <ele>198</ele>
        <time>2016-05-01T08:43:21.000Z</time>
      </trkpt>
      <trkpt lat="49.38251" lon="1.20077">
        <ele>198</ele>
        <time>2016-05-01T08:43:23.000Z</time>
      </trkpt>
      <trkpt lat="49.38256" lon="1.20093">
        <ele>197</ele>
        <time>2016-05-01T08:43:25.000Z</time>
      </trkpt>
      <trkpt lat="49.38261" lon="1.20108">
        <ele>197</ele>
        <time>2016-05-01T08:43:27.000Z</time>
      </trkpt>
      <trkpt lat="49.38266" lon="1.20124">
        <ele>196</ele>
        <time>2016-05-01T08:43:29.000Z</time>
      </trkpt>
      <trkpt lat="49.38269" lon="1.20141">
        <ele>196</ele>
        <time>2016-05-01T08:43:31.000Z</time>
      </trkpt>
      <trkpt lat="49.38273" lon="1.20159">
        <ele>195</ele>
        <time>2016-05-01T08:43:33.000Z</time>
      </trkpt>
      <trkpt lat="49.38277" lon="1.20176">
        <ele>194</ele>
        <time>2016-05-01T08:43:35.000Z</time>
      </trkpt>
      <trkpt lat="49.3828" lon="1.20193">
        <ele>194</ele>
        <time>2016-05-01T08:43:37.000Z</time>
      </trkpt>
      <trkpt lat="49.38282" lon="1.2021">
        <ele>194</ele>
        <time>2016-05-01T08:43:39.000Z</time>
      </trkpt>
      <trkpt lat="49.38283" lon="1.20227">
        <ele>194</ele>
        <time>2016-05-01T08:43:41.000Z</time>
      </trkpt>
      <trkpt lat="49.38275" lon="1.20238">
        <ele>194</ele>
        <time>2016-05-01T08:43:43.000Z</time>
      </trkpt>
      <trkpt lat="49.38267" lon="1.20249">
        <ele>194</ele>
        <time>2016-05-01T08:43:45.000Z</time>
      </trkpt>
      <trkpt lat="49.38263" lon="1.20265">
        <ele>195</ele>
        <time>2016-05-01T08:43:47.000Z</time>
      </trkpt>
      <trkpt lat="49.38258" lon="1.2028">
        <ele>194</ele>
        <time>2016-05-01T08:43:49.000Z</time>
      </trkpt>
      <trkpt lat="49.38255" lon="1.20296">
        <ele>194</ele>
        <time>2016-05-01T08:43:51.000Z</time>
      </trkpt>
      <trkpt lat="49.38251" lon="1.20311">
        <ele>194</ele>
        <time>2016-05-01T08:43:53.000Z</time>
      </trkpt>
      <trkpt lat="49.38248" lon="1.20326">
        <ele>194</ele>
        <time>2016-05-01T08:43:55.000Z</time>
      </trkpt>
      <trkpt lat="49.38245" lon="1.20341">
        <ele>194</ele>
        <time>2016-05-01T08:43:57.000Z</time>
      </trkpt>
      <trkpt lat="49.3824" lon="1.20356">
        <ele>194</ele>
        <time>2016-05-01T08:43:59.000Z</time>
      </trkpt>
      <trkpt lat="49.38238" lon="1.20369">
        <ele>194</ele>
        <time>2016-05-01T08:44:01.000Z</time>
      </trkpt>
      <trkpt lat="49.38237" lon="1.20379">
        <ele>194</ele>
        <time>2016-05-01T08:44:03.000Z</time>
      </trkpt>
      <trkpt lat="49.38237" lon="1.20389">
        <ele>194</ele>
        <time>2016-05-01T08:44:05.000Z</time>
      </trkpt>
      <trkpt lat="49.38236" lon="1.204">
        <ele>194</ele>
        <time>2016-05-01T08:44:07.000Z</time>
      </trkpt>
      <trkpt lat="49.38232" lon="1.20413">
        <ele>194</ele>
        <time>2016-05-01T08:44:09.000Z</time>
      </trkpt>
      <trkpt lat="49.38229" lon="1.20427">
        <ele>194</ele>
        <time>2016-05-01T08:44:11.000Z</time>
      </trkpt>
      <trkpt lat="49.38224" lon="1.20442">
        <ele>194</ele>
        <time>2016-05-01T08:44:13.000Z</time>
      </trkpt>
      <trkpt lat="49.38221" lon="1.20453">
        <ele>194</ele>
        <time>2016-05-01T08:44:15.000Z</time>
      </trkpt>
      <trkpt lat="49.38216" lon="1.20467">
        <ele>192</ele>
        <time>2016-05-01T08:44:17.000Z</time>
      </trkpt>
      <trkpt lat="49.38211" lon="1.20486">
        <ele>191</ele>
        <time>2016-05-01T08:44:19.000Z</time>
      </trkpt>
      <trkpt lat="49.38206" lon="1.20506">
        <ele>192</ele>
        <time>2016-05-01T08:44:21.000Z</time>
      </trkpt>
      <trkpt lat="49.38201" lon="1.20526">
        <ele>191</ele>
        <time>2016-05-01T08:44:23.000Z</time>
      </trkpt>
      <trkpt lat="49.38195" lon="1.20546">
        <ele>190</ele>
        <time>2016-05-01T08:44:25.000Z</time>
      </trkpt>
      <trkpt lat="49.38189" lon="1.20565">
        <ele>190</ele>
        <time>2016-05-01T08:44:27.000Z</time>
      </trkpt>
      <trkpt lat="49.38194" lon="1.20584">
        <ele>191</ele>
        <time>2016-05-01T08:44:29.000Z</time>
      </trkpt>
      <trkpt lat="49.38198" lon="1.206">
        <ele>191</ele>
        <time>2016-05-01T08:44:31.000Z</time>
      </trkpt>
      <trkpt lat="49.38202" lon="1.20613">
        <ele>191</ele>
        <time>2016-05-01T08:44:33.000Z</time>
      </trkpt>
      <trkpt lat="49.38197" lon="1.20627">
        <ele>191</ele>
        <time>2016-05-01T08:44:35.000Z</time>
      </trkpt>
      <trkpt lat="49.38188" lon="1.20639">
        <ele>191</ele>
        <time>2016-05-01T08:44:37.000Z</time>
      </trkpt>
      <trkpt lat="49.38181" lon="1.20651">
        <ele>190</ele>
        <time>2016-05-01T08:44:39.000Z</time>
      </trkpt>
      <trkpt lat="49.38173" lon="1.20664">
        <ele>190</ele>
        <time>2016-05-01T08:44:41.000Z</time>
      </trkpt>
      <trkpt lat="49.38163" lon="1.20678">
        <ele>190</ele>
        <time>2016-05-01T08:44:43.000Z</time>
      </trkpt>
      <trkpt lat="49.38153" lon="1.20692">
        <ele>190</ele>
        <time>2016-05-01T08:44:45.000Z</time>
      </trkpt>
      <trkpt lat="49.38144" lon="1.20704">
        <ele>189</ele>
        <time>2016-05-01T08:44:47.000Z</time>
      </trkpt>
      <trkpt lat="49.38134" lon="1.20717">
        <ele>189</ele>
        <time>2016-05-01T08:44:49.000Z</time>
      </trkpt>
      <trkpt lat="49.38125" lon="1.2073">
        <ele>188</ele>
        <time>2016-05-01T08:44:51.000Z</time>
      </trkpt>
      <trkpt lat="49.38116" lon="1.20742">
        <ele>188</ele>
        <time>2016-05-01T08:44:53.000Z</time>
      </trkpt>
      <trkpt lat="49.38108" lon="1.20754">
        <ele>188</ele>
        <time>2016-05-01T08:44:55.000Z</time>
      </trkpt>
      <trkpt lat="49.381" lon="1.20766">
        <ele>188</ele>
        <time>2016-05-01T08:44:57.000Z</time>
      </trkpt>
      <trkpt lat="49.38093" lon="1.20777">
        <ele>188</ele>
        <time>2016-05-01T08:44:59.000Z</time>
      </trkpt>
      <trkpt lat="49.38087" lon="1.2079">
        <ele>187</ele>
        <time>2016-05-01T08:45:01.000Z</time>
      </trkpt>
      <trkpt lat="49.3808" lon="1.20803">
        <ele>187</ele>
        <time>2016-05-01T08:45:03.000Z</time>
      </trkpt>
      <trkpt lat="49.38074" lon="1.20817">
        <ele>187</ele>
        <time>2016-05-01T08:45:05.000Z</time>
      </trkpt>
      <trkpt lat="49.38068" lon="1.20831">
        <ele>187</ele>
        <time>2016-05-01T08:45:07.000Z</time>
      </trkpt>
      <trkpt lat="49.38062" lon="1.20846">
        <ele>187</ele>
        <time>2016-05-01T08:45:09.000Z</time>
      </trkpt>
      <trkpt lat="49.38056" lon="1.20861">
        <ele>187</ele>
        <time>2016-05-01T08:45:11.000Z</time>
      </trkpt>
      <trkpt lat="49.3805" lon="1.20876">
        <ele>187</ele>
        <time>2016-05-01T08:45:13.000Z</time>
      </trkpt>
      <trkpt lat="49.38045" lon="1.20892">
        <ele>187</ele>
        <time>2016-05-01T08:45:15.000Z</time>
      </trkpt>
      <trkpt lat="49.38041" lon="1.20906">
        <ele>187</ele>
        <time>2016-05-01T08:45:17.000Z</time>
      </trkpt>
      <trkpt lat="49.38035" lon="1.2092">
        <ele>187</ele>
        <time>2016-05-01T08:45:19.000Z</time>
      </trkpt>
      <trkpt lat="49.38029" lon="1.20933">
        <ele>188</ele>
        <time>2016-05-01T08:45:21.000Z</time>
      </trkpt>
      <trkpt lat="49.38024" lon="1.20945">
        <ele>188</ele>
        <time>2016-05-01T08:45:23.000Z</time>
      </trkpt>
      <trkpt lat="49.38018" lon="1.20956">
        <ele>188</ele>
        <time>2016-05-01T08:45:25.000Z</time>
      </trkpt>
      <trkpt lat="49.38013" lon="1.20968">
        <ele>189</ele>
        <time>2016-05-01T08:45:27.000Z</time>
      </trkpt>
      <trkpt lat="49.38007" lon="1.20979">
        <ele>189</ele>
        <time>2016-05-01T08:45:29.000Z</time>
      </trkpt>
      <trkpt lat="49.38002" lon="1.20989">
        <ele>190</ele>
        <time>2016-05-01T08:45:31.000Z</time>
      </trkpt>
      <trkpt lat="49.37998" lon="1.20998">
        <ele>191</ele>
        <time>2016-05-01T08:45:33.000Z</time>
      </trkpt>
      <trkpt lat="49.37994" lon="1.21006">
        <ele>191</ele>
        <time>2016-05-01T08:45:35.000Z</time>
      </trkpt>
      <trkpt lat="49.3799" lon="1.21013">
        <ele>192</ele>
        <time>2016-05-01T08:45:37.000Z</time>
      </trkpt>
      <trkpt lat="49.37984" lon="1.21022">
        <ele>192</ele>
        <time>2016-05-01T08:45:39.000Z</time>
      </trkpt>
      <trkpt lat="49.37979" lon="1.2103">
        <ele>193</ele>
        <time>2016-05-01T08:45:41.000Z</time>
      </trkpt>
      <trkpt lat="49.37973" lon="1.21037">
        <ele>193</ele>
        <time>2016-05-01T08:45:43.000Z</time>
      </trkpt>
      <trkpt lat="49.37967" lon="1.21045">
        <ele>193</ele>
        <time>2016-05-01T08:45:45.000Z</time>
      </trkpt>
      <trkpt lat="49.37961" lon="1.21052">
        <ele>193</ele>
        <time>2016-05-01T08:45:47.000Z</time>
      </trkpt>
      <trkpt lat="49.37955" lon="1.21058">
        <ele>193</ele>
        <time>2016-05-01T08:45:49.000Z</time>
      </trkpt>
      <trkpt lat="49.37948" lon="1.21065">
        <ele>193</ele>
        <time>2016-05-01T08:45:51.000Z</time>
      </trkpt>
      <trkpt lat="49.37942" lon="1.21071">
        <ele>194</ele>
        <time>2016-05-01T08:45:53.000Z</time>
      </trkpt>
      <trkpt lat="49.37936" lon="1.21076">
        <ele>195</ele>
        <time>2016-05-01T08:45:55.000Z</time>
      </trkpt>
      <trkpt lat="49.3793" lon="1.21082">
        <ele>195</ele>
        <time>2016-05-01T08:45:57.000Z</time>
      </trkpt>
      <trkpt lat="49.37923" lon="1.21088">
        <ele>196</ele>
        <time>2016-05-01T08:45:59.000Z</time>
      </trkpt>
      <trkpt lat="49.37917" lon="1.21094">
        <ele>196</ele>
        <time>2016-05-01T08:46:01.000Z</time>
      </trkpt>
      <trkpt lat="49.37911" lon="1.211">
        <ele>197</ele>
        <time>2016-05-01T08:46:03.000Z</time>
      </trkpt>
      <trkpt lat="49.37905" lon="1.21106">
        <ele>197</ele>
        <time>2016-05-01T08:46:05.000Z</time>
      </trkpt>
      <trkpt lat="49.37899" lon="1.21112">
        <ele>197</ele>
        <time>2016-05-01T08:46:07.000Z</time>
      </trkpt>
      <trkpt lat="49.37893" lon="1.21117">
        <ele>197</ele>
        <time>2016-05-01T08:46:09.000Z</time>
      </trkpt>
      <trkpt lat="49.37887" lon="1.21123">
        <ele>198</ele>
        <time>2016-05-01T08:46:11.000Z</time>
      </trkpt>
      <trkpt lat="49.3788" lon="1.21131">
        <ele>198</ele>
        <time>2016-05-01T08:46:13.000Z</time>
      </trkpt>
      <trkpt lat="49.37871" lon="1.21143">
        <ele>198</ele>
        <time>2016-05-01T08:46:15.000Z</time>
      </trkpt>
      <trkpt lat="49.37863" lon="1.21154">
        <ele>199</ele>
        <time>2016-05-01T08:46:17.000Z</time>
      </trkpt>
      <trkpt lat="49.37854" lon="1.21166">
        <ele>198</ele>
        <time>2016-05-01T08:46:19.000Z</time>
      </trkpt>
      <trkpt lat="49.37846" lon="1.21178">
        <ele>198</ele>
        <time>2016-05-01T08:46:21.000Z</time>
      </trkpt>
      <trkpt lat="49.37837" lon="1.2119">
        <ele>198</ele>
        <time>2016-05-01T08:46:23.000Z</time>
      </trkpt>
      <trkpt lat="49.37829" lon="1.21202">
        <ele>198</ele>
        <time>2016-05-01T08:46:25.000Z</time>
      </trkpt>
      <trkpt lat="49.3782" lon="1.21213">
        <ele>197</ele>
        <time>2016-05-01T08:46:27.000Z</time>
      </trkpt>
      <trkpt lat="49.3781" lon="1.21224">
        <ele>197</ele>
        <time>2016-05-01T08:46:29.000Z</time>
      </trkpt>
      <trkpt lat="49.378" lon="1.21237">
        <ele>196</ele>
        <time>2016-05-01T08:46:31.000Z</time>
      </trkpt>
      <trkpt lat="49.37788" lon="1.21249">
        <ele>195</ele>
        <time>2016-05-01T08:46:33.000Z</time>
      </trkpt>
      <trkpt lat="49.37774" lon="1.2126">
        <ele>194</ele>
        <time>2016-05-01T08:46:35.000Z</time>
      </trkpt>
      <trkpt lat="49.37758" lon="1.21271">
        <ele>193</ele>
        <time>2016-05-01T08:46:37.000Z</time>
      </trkpt>
      <trkpt lat="49.37741" lon="1.21279">
        <ele>192</ele>
        <time>2016-05-01T08:46:39.000Z</time>
      </trkpt>
      <trkpt lat="49.37725" lon="1.21288">
        <ele>191</ele>
        <time>2016-05-01T08:46:41.000Z</time>
      </trkpt>
      <trkpt lat="49.37708" lon="1.21297">
        <ele>190</ele>
        <time>2016-05-01T08:46:43.000Z</time>
      </trkpt>
      <trkpt lat="49.3769" lon="1.21307">
        <ele>189</ele>
        <time>2016-05-01T08:46:45.000Z</time>
      </trkpt>
      <trkpt lat="49.37672" lon="1.21317">
        <ele>187</ele>
        <time>2016-05-01T08:46:47.000Z</time>
      </trkpt>
      <trkpt lat="49.37653" lon="1.21327">
        <ele>186</ele>
        <time>2016-05-01T08:46:49.000Z</time>
      </trkpt>
      <trkpt lat="49.37634" lon="1.21336">
        <ele>185</ele>
        <time>2016-05-01T08:46:51.000Z</time>
      </trkpt>
      <trkpt lat="49.37619" lon="1.21342">
        <ele>184</ele>
        <time>2016-05-01T08:46:53.000Z</time>
      </trkpt>
      <trkpt lat="49.37603" lon="1.21342">
        <ele>182</ele>
        <time>2016-05-01T08:46:56.000Z</time>
      </trkpt>
      <trkpt lat="49.37589" lon="1.21341">
        <ele>181</ele>
        <time>2016-05-01T08:46:58.000Z</time>
      </trkpt>
      <trkpt lat="49.37576" lon="1.21338">
        <ele>181</ele>
        <time>2016-05-01T08:47:00.000Z</time>
      </trkpt>
      <trkpt lat="49.37563" lon="1.21336">
        <ele>180</ele>
        <time>2016-05-01T08:47:02.000Z</time>
      </trkpt>
      <trkpt lat="49.37549" lon="1.21332">
        <ele>180</ele>
        <time>2016-05-01T08:47:04.000Z</time>
      </trkpt>
      <trkpt lat="49.37534" lon="1.21329">
        <ele>180</ele>
        <time>2016-05-01T08:47:06.000Z</time>
      </trkpt>
      <trkpt lat="49.37521" lon="1.21331">
        <ele>180</ele>
        <time>2016-05-01T08:47:08.000Z</time>
      </trkpt>
      <trkpt lat="49.37506" lon="1.21334">
        <ele>180</ele>
        <time>2016-05-01T08:47:10.000Z</time>
      </trkpt>
      <trkpt lat="49.3749" lon="1.21339">
        <ele>182</ele>
        <time>2016-05-01T08:47:12.000Z</time>
      </trkpt>
      <trkpt lat="49.37477" lon="1.21341">
        <ele>181</ele>
        <time>2016-05-01T08:47:14.000Z</time>
      </trkpt>
      <trkpt lat="49.37465" lon="1.2135">
        <ele>180</ele>
        <time>2016-05-01T08:47:16.000Z</time>
      </trkpt>
      <trkpt lat="49.37449" lon="1.21357">
        <ele>179</ele>
        <time>2016-05-01T08:47:19.000Z</time>
      </trkpt>
      <trkpt lat="49.37436" lon="1.21362">
        <ele>178</ele>
        <time>2016-05-01T08:47:21.000Z</time>
      </trkpt>
      <trkpt lat="49.37425" lon="1.21367">
        <ele>180</ele>
        <time>2016-05-01T08:47:23.000Z</time>
      </trkpt>
      <trkpt lat="49.37416" lon="1.21373">
        <ele>178</ele>
        <time>2016-05-01T08:47:25.000Z</time>
      </trkpt>
      <trkpt lat="49.3741" lon="1.21374">
        <ele>178</ele>
        <time>2016-05-01T08:47:27.000Z</time>
      </trkpt>
      <trkpt lat="49.3741" lon="1.21374">
        <ele>178</ele>
        <time>2016-05-01T08:47:29.000Z</time>
      </trkpt>
      <trkpt lat="49.37401" lon="1.21376">
        <ele>176</ele>
        <time>2016-05-01T08:47:31.000Z</time>
      </trkpt>
      <trkpt lat="49.37401" lon="1.21376">
        <ele>176</ele>
        <time>2016-05-01T08:47:33.000Z</time>
      </trkpt>
      <trkpt lat="49.37401" lon="1.21376">
        <ele>176</ele>
        <time>2016-05-01T08:47:35.000Z</time>
      </trkpt>
      <trkpt lat="49.37394" lon="1.21376">
        <ele>179</ele>
        <time>2016-05-01T08:47:48.000Z</time>
      </trkpt>
      <trkpt lat="49.37394" lon="1.21376">
        <ele>179</ele>
        <time>2016-05-01T08:47:50.000Z</time>
      </trkpt>
      <trkpt lat="49.3739" lon="1.21369">
        <ele>180</ele>
        <time>2016-05-01T08:47:54.000Z</time>
      </trkpt>
      <trkpt lat="49.37385" lon="1.2136">
        <ele>182</ele>
        <time>2016-05-01T08:48:00.000Z</time>
      </trkpt>
      <trkpt lat="49.37377" lon="1.21354">
        <ele>181</ele>
        <time>2016-05-01T08:48:04.000Z</time>
      </trkpt>
      <trkpt lat="49.37372" lon="1.21348">
        <ele>184</ele>
        <time>2016-05-01T08:48:08.000Z</time>
      </trkpt>
      <trkpt lat="49.37372" lon="1.21348">
        <ele>184</ele>
        <time>2016-05-01T08:48:10.000Z</time>
      </trkpt>
      <trkpt lat="49.37365" lon="1.21346">
        <ele>182</ele>
        <time>2016-05-01T08:48:12.000Z</time>
      </trkpt>
      <trkpt lat="49.37357" lon="1.21346">
        <ele>183</ele>
        <time>2016-05-01T08:48:16.000Z</time>
      </trkpt>
      <trkpt lat="49.37357" lon="1.21346">
        <ele>183</ele>
        <time>2016-05-01T08:48:18.000Z</time>
      </trkpt>
      <trkpt lat="49.3735" lon="1.21346">
        <ele>184</ele>
        <time>2016-05-01T08:48:20.000Z</time>
      </trkpt>
      <trkpt lat="49.3735" lon="1.21346">
        <ele>184</ele>
        <time>2016-05-01T08:48:22.000Z</time>
      </trkpt>
      <trkpt lat="49.37343" lon="1.21346">
        <ele>187</ele>
        <time>2016-05-01T08:48:24.000Z</time>
      </trkpt>
      <trkpt lat="49.37343" lon="1.21346">
        <ele>187</ele>
        <time>2016-05-01T08:48:26.000Z</time>
      </trkpt>
      <trkpt lat="49.37336" lon="1.21346">
        <ele>188</ele>
        <time>2016-05-01T08:48:28.000Z</time>
      </trkpt>
      <trkpt lat="49.37336" lon="1.21346">
        <ele>188</ele>
        <time>2016-05-01T08:48:30.000Z</time>
      </trkpt>
      <trkpt lat="49.37336" lon="1.21346">
        <ele>188</ele>
        <time>2016-05-01T08:48:32.000Z</time>
      </trkpt>
      <trkpt lat="49.37329" lon="1.21348">
        <ele>193</ele>
        <time>2016-05-01T08:48:34.000Z</time>
      </trkpt>
      <trkpt lat="49.37322" lon="1.21348">
        <ele>193</ele>
        <time>2016-05-01T08:48:38.000Z</time>
      </trkpt>
      <trkpt lat="49.37313" lon="1.2135">
        <ele>193</ele>
        <time>2016-05-01T08:48:42.000Z</time>
      </trkpt>
      <trkpt lat="49.37303" lon="1.21355">
        <ele>192</ele>
        <time>2016-05-01T08:48:45.000Z</time>
      </trkpt>
      <trkpt lat="49.37303" lon="1.21355">
        <ele>192</ele>
        <time>2016-05-01T08:48:47.000Z</time>
      </trkpt>
      <trkpt lat="49.37296" lon="1.21359">
        <ele>196</ele>
        <time>2016-05-01T08:48:49.000Z</time>
      </trkpt>
      <trkpt lat="49.37289" lon="1.2136">
        <ele>195</ele>
        <time>2016-05-01T08:48:53.000Z</time>
      </trkpt>
      <trkpt lat="49.37279" lon="1.21363">
        <ele>197</ele>
        <time>2016-05-01T08:48:57.000Z</time>
      </trkpt>
      <trkpt lat="49.37267" lon="1.21365">
        <ele>198</ele>
        <time>2016-05-01T08:49:01.000Z</time>
      </trkpt>
      <trkpt lat="49.3726" lon="1.21367">
        <ele>198</ele>
        <time>2016-05-01T08:49:03.000Z</time>
      </trkpt>
      <trkpt lat="49.37254" lon="1.21371">
        <ele>198</ele>
        <time>2016-05-01T08:49:05.000Z</time>
      </trkpt>
      <trkpt lat="49.37244" lon="1.21373">
        <ele>197</ele>
        <time>2016-05-01T08:49:07.000Z</time>
      </trkpt>
      <trkpt lat="49.37235" lon="1.21375">
        <ele>196</ele>
        <time>2016-05-01T08:49:09.000Z</time>
      </trkpt>
      <trkpt lat="49.37227" lon="1.21377">
        <ele>197</ele>
        <time>2016-05-01T08:49:11.000Z</time>
      </trkpt>
      <trkpt lat="49.37218" lon="1.2138">
        <ele>196</ele>
        <time>2016-05-01T08:49:13.000Z</time>
      </trkpt>
      <trkpt lat="49.37211" lon="1.21386">
        <ele>196</ele>
        <time>2016-05-01T08:49:15.000Z</time>
      </trkpt>
      <trkpt lat="49.37206" lon="1.21393">
        <ele>193</ele>
        <time>2016-05-01T08:49:17.000Z</time>
      </trkpt>
      <trkpt lat="49.37201" lon="1.214">
        <ele>194</ele>
        <time>2016-05-01T08:49:19.000Z</time>
      </trkpt>
      <trkpt lat="49.37201" lon="1.214">
        <ele>194</ele>
        <time>2016-05-01T08:49:21.000Z</time>
      </trkpt>
      <trkpt lat="49.37193" lon="1.21409">
        <ele>195</ele>
        <time>2016-05-01T08:49:23.000Z</time>
      </trkpt>
      <trkpt lat="49.37186" lon="1.21412">
        <ele>193</ele>
        <time>2016-05-01T08:49:25.000Z</time>
      </trkpt>
      <trkpt lat="49.37177" lon="1.21415">
        <ele>192</ele>
        <time>2016-05-01T08:49:27.000Z</time>
      </trkpt>
      <trkpt lat="49.37168" lon="1.21419">
        <ele>193</ele>
        <time>2016-05-01T08:49:29.000Z</time>
      </trkpt>
      <trkpt lat="49.37159" lon="1.21423">
        <ele>194</ele>
        <time>2016-05-01T08:49:31.000Z</time>
      </trkpt>
      <trkpt lat="49.37151" lon="1.21427">
        <ele>196</ele>
        <time>2016-05-01T08:49:33.000Z</time>
      </trkpt>
      <trkpt lat="49.3714" lon="1.21432">
        <ele>195</ele>
        <time>2016-05-01T08:49:35.000Z</time>
      </trkpt>
      <trkpt lat="49.3713" lon="1.21438">
        <ele>194</ele>
        <time>2016-05-01T08:49:37.000Z</time>
      </trkpt>
      <trkpt lat="49.37121" lon="1.21445">
        <ele>195</ele>
        <time>2016-05-01T08:49:39.000Z</time>
      </trkpt>
      <trkpt lat="49.37111" lon="1.21453">
        <ele>196</ele>
        <time>2016-05-01T08:49:41.000Z</time>
      </trkpt>
      <trkpt lat="49.371" lon="1.21461">
        <ele>195</ele>
        <time>2016-05-01T08:49:43.000Z</time>
      </trkpt>
      <trkpt lat="49.3709" lon="1.21471">
        <ele>195</ele>
        <time>2016-05-01T08:49:45.000Z</time>
      </trkpt>
      <trkpt lat="49.37081" lon="1.2148">
        <ele>195</ele>
        <time>2016-05-01T08:49:47.000Z</time>
      </trkpt>
      <trkpt lat="49.37073" lon="1.21489">
        <ele>195</ele>
        <time>2016-05-01T08:49:49.000Z</time>
      </trkpt>
      <trkpt lat="49.37066" lon="1.21498">
        <ele>195</ele>
        <time>2016-05-01T08:49:51.000Z</time>
      </trkpt>
      <trkpt lat="49.37057" lon="1.21508">
        <ele>196</ele>
        <time>2016-05-01T08:49:53.000Z</time>
      </trkpt>
      <trkpt lat="49.37049" lon="1.21518">
        <ele>196</ele>
        <time>2016-05-01T08:49:55.000Z</time>
      </trkpt>
      <trkpt lat="49.37039" lon="1.21528">
        <ele>195</ele>
        <time>2016-05-01T08:49:57.000Z</time>
      </trkpt>
      <trkpt lat="49.3703" lon="1.21538">
        <ele>195</ele>
        <time>2016-05-01T08:49:59.000Z</time>
      </trkpt>
      <trkpt lat="49.3702" lon="1.21548">
        <ele>194</ele>
        <time>2016-05-01T08:50:01.000Z</time>
      </trkpt>
      <trkpt lat="49.3701" lon="1.21558">
        <ele>194</ele>
        <time>2016-05-01T08:50:03.000Z</time>
      </trkpt>
      <trkpt lat="49.36999" lon="1.21568">
        <ele>194</ele>
        <time>2016-05-01T08:50:05.000Z</time>
      </trkpt>
      <trkpt lat="49.36987" lon="1.21579">
        <ele>193</ele>
        <time>2016-05-01T08:50:07.000Z</time>
      </trkpt>
      <trkpt lat="49.36975" lon="1.21589">
        <ele>192</ele>
        <time>2016-05-01T08:50:09.000Z</time>
      </trkpt>
      <trkpt lat="49.36963" lon="1.21601">
        <ele>191</ele>
        <time>2016-05-01T08:50:11.000Z</time>
      </trkpt>
      <trkpt lat="49.3695" lon="1.21612">
        <ele>190</ele>
        <time>2016-05-01T08:50:13.000Z</time>
      </trkpt>
      <trkpt lat="49.36938" lon="1.21622">
        <ele>189</ele>
        <time>2016-05-01T08:50:15.000Z</time>
      </trkpt>
      <trkpt lat="49.36929" lon="1.21632">
        <ele>189</ele>
        <time>2016-05-01T08:50:17.000Z</time>
      </trkpt>
      <trkpt lat="49.36921" lon="1.2164">
        <ele>188</ele>
        <time>2016-05-01T08:50:19.000Z</time>
      </trkpt>
      <trkpt lat="49.36913" lon="1.21647">
        <ele>189</ele>
        <time>2016-05-01T08:50:21.000Z</time>
      </trkpt>
      <trkpt lat="49.36908" lon="1.21651">
        <ele>188</ele>
        <time>2016-05-01T08:50:23.000Z</time>
      </trkpt>
      <trkpt lat="49.36908" lon="1.21651">
        <ele>188</ele>
        <time>2016-05-01T08:50:25.000Z</time>
      </trkpt>
      <trkpt lat="49.36902" lon="1.21654">
        <ele>188</ele>
        <time>2016-05-01T08:50:27.000Z</time>
      </trkpt>
      <trkpt lat="49.36891" lon="1.2166">
        <ele>188</ele>
        <time>2016-05-01T08:50:31.000Z</time>
      </trkpt>
      <trkpt lat="49.36886" lon="1.21667">
        <ele>188</ele>
        <time>2016-05-01T08:50:33.000Z</time>
      </trkpt>
      <trkpt lat="49.36881" lon="1.21675">
        <ele>189</ele>
        <time>2016-05-01T08:50:35.000Z</time>
      </trkpt>
      <trkpt lat="49.36875" lon="1.21682">
        <ele>189</ele>
        <time>2016-05-01T08:50:37.000Z</time>
      </trkpt>
      <trkpt lat="49.36868" lon="1.21688">
        <ele>189</ele>
        <time>2016-05-01T08:50:39.000Z</time>
      </trkpt>
      <trkpt lat="49.36861" lon="1.21693">
        <ele>189</ele>
        <time>2016-05-01T08:50:41.000Z</time>
      </trkpt>
      <trkpt lat="49.36855" lon="1.21698">
        <ele>190</ele>
        <time>2016-05-01T08:50:43.000Z</time>
      </trkpt>
      <trkpt lat="49.36849" lon="1.21703">
        <ele>190</ele>
        <time>2016-05-01T08:50:45.000Z</time>
      </trkpt>
      <trkpt lat="49.36843" lon="1.21709">
        <ele>190</ele>
        <time>2016-05-01T08:50:47.000Z</time>
      </trkpt>
      <trkpt lat="49.36837" lon="1.21714">
        <ele>190</ele>
        <time>2016-05-01T08:50:49.000Z</time>
      </trkpt>
      <trkpt lat="49.36831" lon="1.2172">
        <ele>190</ele>
        <time>2016-05-01T08:50:51.000Z</time>
      </trkpt>
      <trkpt lat="49.36824" lon="1.21725">
        <ele>191</ele>
        <time>2016-05-01T08:50:53.000Z</time>
      </trkpt>
      <trkpt lat="49.36819" lon="1.21731">
        <ele>192</ele>
        <time>2016-05-01T08:50:55.000Z</time>
      </trkpt>
      <trkpt lat="49.36813" lon="1.21737">
        <ele>192</ele>
        <time>2016-05-01T08:50:57.000Z</time>
      </trkpt>
      <trkpt lat="49.36806" lon="1.21743">
        <ele>192</ele>
        <time>2016-05-01T08:50:59.000Z</time>
      </trkpt>
      <trkpt lat="49.368" lon="1.21749">
        <ele>193</ele>
        <time>2016-05-01T08:51:01.000Z</time>
      </trkpt>
      <trkpt lat="49.36794" lon="1.21755">
        <ele>193</ele>
        <time>2016-05-01T08:51:03.000Z</time>
      </trkpt>
      <trkpt lat="49.36787" lon="1.21762">
        <ele>193</ele>
        <time>2016-05-01T08:51:05.000Z</time>
      </trkpt>
      <trkpt lat="49.36781" lon="1.21768">
        <ele>193</ele>
        <time>2016-05-01T08:51:07.000Z</time>
      </trkpt>
      <trkpt lat="49.36774" lon="1.21774">
        <ele>194</ele>
        <time>2016-05-01T08:51:09.000Z</time>
      </trkpt>
      <trkpt lat="49.36768" lon="1.2178">
        <ele>194</ele>
        <time>2016-05-01T08:51:11.000Z</time>
      </trkpt>
      <trkpt lat="49.36763" lon="1.21787">
        <ele>194</ele>
        <time>2016-05-01T08:51:13.000Z</time>
      </trkpt>
      <trkpt lat="49.36757" lon="1.21793">
        <ele>194</ele>
        <time>2016-05-01T08:51:15.000Z</time>
      </trkpt>
      <trkpt lat="49.36751" lon="1.21799">
        <ele>195</ele>
        <time>2016-05-01T08:51:17.000Z</time>
      </trkpt>
      <trkpt lat="49.36745" lon="1.21805">
        <ele>196</ele>
        <time>2016-05-01T08:51:19.000Z</time>
      </trkpt>
      <trkpt lat="49.36739" lon="1.21811">
        <ele>196</ele>
        <time>2016-05-01T08:51:21.000Z</time>
      </trkpt>
      <trkpt lat="49.36734" lon="1.21818">
        <ele>196</ele>
        <time>2016-05-01T08:51:23.000Z</time>
      </trkpt>
      <trkpt lat="49.36728" lon="1.21825">
        <ele>197</ele>
        <time>2016-05-01T08:51:25.000Z</time>
      </trkpt>
      <trkpt lat="49.36721" lon="1.21831">
        <ele>197</ele>
        <time>2016-05-01T08:51:27.000Z</time>
      </trkpt>
      <trkpt lat="49.36715" lon="1.21838">
        <ele>197</ele>
        <time>2016-05-01T08:51:29.000Z</time>
      </trkpt>
      <trkpt lat="49.3671" lon="1.21846">
        <ele>197</ele>
        <time>2016-05-01T08:51:31.000Z</time>
      </trkpt>
      <trkpt lat="49.36707" lon="1.21856">
        <ele>198</ele>
        <time>2016-05-01T08:51:33.000Z</time>
      </trkpt>
      <trkpt lat="49.36707" lon="1.21867">
        <ele>197</ele>
        <time>2016-05-01T08:51:35.000Z</time>
      </trkpt>
      <trkpt lat="49.3671" lon="1.21878">
        <ele>197</ele>
        <time>2016-05-01T08:51:37.000Z</time>
      </trkpt>
      <trkpt lat="49.36714" lon="1.21888">
        <ele>197</ele>
        <time>2016-05-01T08:51:39.000Z</time>
      </trkpt>
      <trkpt lat="49.36717" lon="1.21898">
        <ele>197</ele>
        <time>2016-05-01T08:51:41.000Z</time>
      </trkpt>
      <trkpt lat="49.3672" lon="1.21908">
        <ele>197</ele>
        <time>2016-05-01T08:51:43.000Z</time>
      </trkpt>
      <trkpt lat="49.36723" lon="1.21918">
        <ele>197</ele>
        <time>2016-05-01T08:51:45.000Z</time>
      </trkpt>
      <trkpt lat="49.36726" lon="1.21929">
        <ele>197</ele>
        <time>2016-05-01T08:51:47.000Z</time>
      </trkpt>
      <trkpt lat="49.36728" lon="1.21939">
        <ele>197</ele>
        <time>2016-05-01T08:51:49.000Z</time>
      </trkpt>
      <trkpt lat="49.36731" lon="1.21949">
        <ele>197</ele>
        <time>2016-05-01T08:51:51.000Z</time>
      </trkpt>
      <trkpt lat="49.36734" lon="1.21959">
        <ele>197</ele>
        <time>2016-05-01T08:51:53.000Z</time>
      </trkpt>
      <trkpt lat="49.36737" lon="1.21969">
        <ele>197</ele>
        <time>2016-05-01T08:51:55.000Z</time>
      </trkpt>
      <trkpt lat="49.36739" lon="1.21979">
        <ele>197</ele>
        <time>2016-05-01T08:51:57.000Z</time>
      </trkpt>
      <trkpt lat="49.36742" lon="1.21989">
        <ele>197</ele>
        <time>2016-05-01T08:51:59.000Z</time>
      </trkpt>
      <trkpt lat="49.36746" lon="1.21998">
        <ele>197</ele>
        <time>2016-05-01T08:52:01.000Z</time>
      </trkpt>
      <trkpt lat="49.36751" lon="1.22006">
        <ele>197</ele>
        <time>2016-05-01T08:52:03.000Z</time>
      </trkpt>
      <trkpt lat="49.36756" lon="1.22014">
        <ele>197</ele>
        <time>2016-05-01T08:52:05.000Z</time>
      </trkpt>
      <trkpt lat="49.36761" lon="1.22022">
        <ele>197</ele>
        <time>2016-05-01T08:52:07.000Z</time>
      </trkpt>
      <trkpt lat="49.36765" lon="1.22032">
        <ele>197</ele>
        <time>2016-05-01T08:52:09.000Z</time>
      </trkpt>
      <trkpt lat="49.36769" lon="1.22042">
        <ele>197</ele>
        <time>2016-05-01T08:52:11.000Z</time>
      </trkpt>
      <trkpt lat="49.36773" lon="1.22053">
        <ele>198</ele>
        <time>2016-05-01T08:52:13.000Z</time>
      </trkpt>
      <trkpt lat="49.36777" lon="1.22063">
        <ele>197</ele>
        <time>2016-05-01T08:52:15.000Z</time>
      </trkpt>
      <trkpt lat="49.36782" lon="1.22075">
        <ele>197</ele>
        <time>2016-05-01T08:52:17.000Z</time>
      </trkpt>
      <trkpt lat="49.36787" lon="1.22087">
        <ele>197</ele>
        <time>2016-05-01T08:52:19.000Z</time>
      </trkpt>
      <trkpt lat="49.36792" lon="1.221">
        <ele>198</ele>
        <time>2016-05-01T08:52:21.000Z</time>
      </trkpt>
      <trkpt lat="49.36798" lon="1.22115">
        <ele>198</ele>
        <time>2016-05-01T08:52:23.000Z</time>
      </trkpt>
      <trkpt lat="49.36802" lon="1.22128">
        <ele>198</ele>
        <time>2016-05-01T08:52:25.000Z</time>
      </trkpt>
      <trkpt lat="49.36806" lon="1.2214">
        <ele>198</ele>
        <time>2016-05-01T08:52:27.000Z</time>
      </trkpt>
      <trkpt lat="49.3681" lon="1.22152">
        <ele>199</ele>
        <time>2016-05-01T08:52:29.000Z</time>
      </trkpt>
      <trkpt lat="49.36813" lon="1.22163">
        <ele>199</ele>
        <time>2016-05-01T08:52:31.000Z</time>
      </trkpt>
      <trkpt lat="49.36816" lon="1.22174">
        <ele>199</ele>
        <time>2016-05-01T08:52:33.000Z</time>
      </trkpt>
      <trkpt lat="49.36819" lon="1.22186">
        <ele>199</ele>
        <time>2016-05-01T08:52:35.000Z</time>
      </trkpt>
      <trkpt lat="49.36823" lon="1.22198">
        <ele>199</ele>
        <time>2016-05-01T08:52:37.000Z</time>
      </trkpt>
      <trkpt lat="49.36826" lon="1.22209">
        <ele>199</ele>
        <time>2016-05-01T08:52:39.000Z</time>
      </trkpt>
      <trkpt lat="49.36829" lon="1.2222">
        <ele>199</ele>
        <time>2016-05-01T08:52:41.000Z</time>
      </trkpt>
      <trkpt lat="49.36832" lon="1.2223">
        <ele>199</ele>
        <time>2016-05-01T08:52:43.000Z</time>
      </trkpt>
      <trkpt lat="49.36835" lon="1.2224">
        <ele>200</ele>
        <time>2016-05-01T08:52:45.000Z</time>
      </trkpt>
      <trkpt lat="49.36838" lon="1.22251">
        <ele>200</ele>
        <time>2016-05-01T08:52:47.000Z</time>
      </trkpt>
      <trkpt lat="49.36842" lon="1.22261">
        <ele>200</ele>
        <time>2016-05-01T08:52:49.000Z</time>
      </trkpt>
      <trkpt lat="49.36845" lon="1.22271">
        <ele>200</ele>
        <time>2016-05-01T08:52:51.000Z</time>
      </trkpt>
      <trkpt lat="49.36849" lon="1.22281">
        <ele>200</ele>
        <time>2016-05-01T08:52:53.000Z</time>
      </trkpt>
      <trkpt lat="49.36853" lon="1.22293">
        <ele>200</ele>
        <time>2016-05-01T08:52:55.000Z</time>
      </trkpt>
      <trkpt lat="49.36857" lon="1.22305">
        <ele>200</ele>
        <time>2016-05-01T08:52:57.000Z</time>
      </trkpt>
      <trkpt lat="49.36861" lon="1.22318">
        <ele>200</ele>
        <time>2016-05-01T08:52:59.000Z</time>
      </trkpt>
      <trkpt lat="49.36866" lon="1.2233">
        <ele>199</ele>
        <time>2016-05-01T08:53:01.000Z</time>
      </trkpt>
      <trkpt lat="49.36871" lon="1.22342">
        <ele>199</ele>
        <time>2016-05-01T08:53:03.000Z</time>
      </trkpt>
      <trkpt lat="49.36876" lon="1.22354">
        <ele>199</ele>
        <time>2016-05-01T08:53:05.000Z</time>
      </trkpt>
      <trkpt lat="49.36882" lon="1.22367">
        <ele>199</ele>
        <time>2016-05-01T08:53:07.000Z</time>
      </trkpt>
      <trkpt lat="49.36887" lon="1.22379">
        <ele>200</ele>
        <time>2016-05-01T08:53:09.000Z</time>
      </trkpt>
      <trkpt lat="49.36893" lon="1.22391">
        <ele>200</ele>
        <time>2016-05-01T08:53:11.000Z</time>
      </trkpt>
      <trkpt lat="49.36899" lon="1.22404">
        <ele>200</ele>
        <time>2016-05-01T08:53:13.000Z</time>
      </trkpt>
      <trkpt lat="49.36905" lon="1.22416">
        <ele>200</ele>
        <time>2016-05-01T08:53:15.000Z</time>
      </trkpt>
      <trkpt lat="49.36911" lon="1.22428">
        <ele>200</ele>
        <time>2016-05-01T08:53:17.000Z</time>
      </trkpt>
      <trkpt lat="49.36917" lon="1.22441">
        <ele>200</ele>
        <time>2016-05-01T08:53:19.000Z</time>
      </trkpt>
      <trkpt lat="49.36924" lon="1.22453">
        <ele>200</ele>
        <time>2016-05-01T08:53:21.000Z</time>
      </trkpt>
      <trkpt lat="49.3693" lon="1.22464">
        <ele>200</ele>
        <time>2016-05-01T08:53:23.000Z</time>
      </trkpt>
      <trkpt lat="49.36937" lon="1.22476">
        <ele>200</ele>
        <time>2016-05-01T08:53:25.000Z</time>
      </trkpt>
      <trkpt lat="49.36944" lon="1.22487">
        <ele>200</ele>
        <time>2016-05-01T08:53:27.000Z</time>
      </trkpt>
      <trkpt lat="49.36952" lon="1.22498">
        <ele>200</ele>
        <time>2016-05-01T08:53:29.000Z</time>
      </trkpt>
      <trkpt lat="49.36959" lon="1.22509">
        <ele>200</ele>
        <time>2016-05-01T08:53:31.000Z</time>
      </trkpt>
      <trkpt lat="49.36967" lon="1.22519">
        <ele>200</ele>
        <time>2016-05-01T08:53:33.000Z</time>
      </trkpt>
      <trkpt lat="49.36976" lon="1.22529">
        <ele>200</ele>
        <time>2016-05-01T08:53:35.000Z</time>
      </trkpt>
      <trkpt lat="49.36984" lon="1.22541">
        <ele>200</ele>
        <time>2016-05-01T08:53:37.000Z</time>
      </trkpt>
      <trkpt lat="49.36992" lon="1.22551">
        <ele>200</ele>
        <time>2016-05-01T08:53:39.000Z</time>
      </trkpt>
      <trkpt lat="49.37" lon="1.22562">
        <ele>200</ele>
        <time>2016-05-01T08:53:41.000Z</time>
      </trkpt>
      <trkpt lat="49.37008" lon="1.22573">
        <ele>200</ele>
        <time>2016-05-01T08:53:43.000Z</time>
      </trkpt>
      <trkpt lat="49.37017" lon="1.22585">
        <ele>199</ele>
        <time>2016-05-01T08:53:45.000Z</time>
      </trkpt>
      <trkpt lat="49.37025" lon="1.22595">
        <ele>199</ele>
        <time>2016-05-01T08:53:47.000Z</time>
      </trkpt>
      <trkpt lat="49.37033" lon="1.22605">
        <ele>199</ele>
        <time>2016-05-01T08:53:49.000Z</time>
      </trkpt>
      <trkpt lat="49.37041" lon="1.22616">
        <ele>199</ele>
        <time>2016-05-01T08:53:51.000Z</time>
      </trkpt>
      <trkpt lat="49.37048" lon="1.22627">
        <ele>199</ele>
        <time>2016-05-01T08:53:53.000Z</time>
      </trkpt>
      <trkpt lat="49.37056" lon="1.22639">
        <ele>199</ele>
        <time>2016-05-01T08:53:55.000Z</time>
      </trkpt>
      <trkpt lat="49.37062" lon="1.22651">
        <ele>199</ele>
        <time>2016-05-01T08:53:57.000Z</time>
      </trkpt>
      <trkpt lat="49.37069" lon="1.22663">
        <ele>198</ele>
        <time>2016-05-01T08:53:59.000Z</time>
      </trkpt>
      <trkpt lat="49.37075" lon="1.22675">
        <ele>198</ele>
        <time>2016-05-01T08:54:01.000Z</time>
      </trkpt>
      <trkpt lat="49.37081" lon="1.22687">
        <ele>198</ele>
        <time>2016-05-01T08:54:03.000Z</time>
      </trkpt>
      <trkpt lat="49.37087" lon="1.227">
        <ele>198</ele>
        <time>2016-05-01T08:54:05.000Z</time>
      </trkpt>
      <trkpt lat="49.37093" lon="1.22713">
        <ele>198</ele>
        <time>2016-05-01T08:54:07.000Z</time>
      </trkpt>
      <trkpt lat="49.37098" lon="1.22726">
        <ele>199</ele>
        <time>2016-05-01T08:54:09.000Z</time>
      </trkpt>
      <trkpt lat="49.37104" lon="1.22738">
        <ele>198</ele>
        <time>2016-05-01T08:54:11.000Z</time>
      </trkpt>
      <trkpt lat="49.3711" lon="1.22751">
        <ele>199</ele>
        <time>2016-05-01T08:54:13.000Z</time>
      </trkpt>
      <trkpt lat="49.37116" lon="1.22763">
        <ele>199</ele>
        <time>2016-05-01T08:54:15.000Z</time>
      </trkpt>
      <trkpt lat="49.37122" lon="1.22775">
        <ele>198</ele>
        <time>2016-05-01T08:54:17.000Z</time>
      </trkpt>
      <trkpt lat="49.37127" lon="1.22788">
        <ele>199</ele>
        <time>2016-05-01T08:54:19.000Z</time>
      </trkpt>
      <trkpt lat="49.37132" lon="1.22801">
        <ele>199</ele>
        <time>2016-05-01T08:54:21.000Z</time>
      </trkpt>
      <trkpt lat="49.37138" lon="1.22813">
        <ele>199</ele>
        <time>2016-05-01T08:54:23.000Z</time>
      </trkpt>
      <trkpt lat="49.37143" lon="1.22826">
        <ele>199</ele>
        <time>2016-05-01T08:54:25.000Z</time>
      </trkpt>
      <trkpt lat="49.37148" lon="1.22838">
        <ele>200</ele>
        <time>2016-05-01T08:54:27.000Z</time>
      </trkpt>
      <trkpt lat="49.37153" lon="1.22849">
        <ele>200</ele>
        <time>2016-05-01T08:54:29.000Z</time>
      </trkpt>
      <trkpt lat="49.37157" lon="1.22859">
        <ele>200</ele>
        <time>2016-05-01T08:54:31.000Z</time>
      </trkpt>
      <trkpt lat="49.37163" lon="1.22869">
        <ele>201</ele>
        <time>2016-05-01T08:54:33.000Z</time>
      </trkpt>
      <trkpt lat="49.37167" lon="1.22881">
        <ele>201</ele>
        <time>2016-05-01T08:54:35.000Z</time>
      </trkpt>
      <trkpt lat="49.3717" lon="1.22894">
        <ele>200</ele>
        <time>2016-05-01T08:54:37.000Z</time>
      </trkpt>
      <trkpt lat="49.37172" lon="1.22908">
        <ele>200</ele>
        <time>2016-05-01T08:54:39.000Z</time>
      </trkpt>
      <trkpt lat="49.37176" lon="1.2292">
        <ele>200</ele>
        <time>2016-05-01T08:54:41.000Z</time>
      </trkpt>
      <trkpt lat="49.37179" lon="1.22933">
        <ele>200</ele>
        <time>2016-05-01T08:54:43.000Z</time>
      </trkpt>
      <trkpt lat="49.37183" lon="1.22947">
        <ele>200</ele>
        <time>2016-05-01T08:54:45.000Z</time>
      </trkpt>
      <trkpt lat="49.37185" lon="1.22961">
        <ele>199</ele>
        <time>2016-05-01T08:54:47.000Z</time>
      </trkpt>
      <trkpt lat="49.37188" lon="1.22975">
        <ele>199</ele>
        <time>2016-05-01T08:54:49.000Z</time>
      </trkpt>
      <trkpt lat="49.37191" lon="1.22989">
        <ele>198</ele>
        <time>2016-05-01T08:54:51.000Z</time>
      </trkpt>
      <trkpt lat="49.37194" lon="1.23002">
        <ele>198</ele>
        <time>2016-05-01T08:54:53.000Z</time>
      </trkpt>
      <trkpt lat="49.37197" lon="1.23017">
        <ele>198</ele>
        <time>2016-05-01T08:54:55.000Z</time>
      </trkpt>
      <trkpt lat="49.372" lon="1.23031">
        <ele>198</ele>
        <time>2016-05-01T08:54:57.000Z</time>
      </trkpt>
      <trkpt lat="49.37202" lon="1.23044">
        <ele>198</ele>
        <time>2016-05-01T08:54:59.000Z</time>
      </trkpt>
      <trkpt lat="49.37205" lon="1.23058">
        <ele>199</ele>
        <time>2016-05-01T08:55:01.000Z</time>
      </trkpt>
      <trkpt lat="49.37209" lon="1.23071">
        <ele>199</ele>
        <time>2016-05-01T08:55:03.000Z</time>
      </trkpt>
      <trkpt lat="49.37213" lon="1.23084">
        <ele>199</ele>
        <time>2016-05-01T08:55:05.000Z</time>
      </trkpt>
      <trkpt lat="49.37217" lon="1.23098">
        <ele>198</ele>
        <time>2016-05-01T08:55:07.000Z</time>
      </trkpt>
      <trkpt lat="49.37221" lon="1.23111">
        <ele>198</ele>
        <time>2016-05-01T08:55:09.000Z</time>
      </trkpt>
      <trkpt lat="49.37225" lon="1.23124">
        <ele>198</ele>
        <time>2016-05-01T08:55:11.000Z</time>
      </trkpt>
      <trkpt lat="49.37229" lon="1.23136">
        <ele>199</ele>
        <time>2016-05-01T08:55:13.000Z</time>
      </trkpt>
      <trkpt lat="49.37234" lon="1.23148">
        <ele>198</ele>
        <time>2016-05-01T08:55:15.000Z</time>
      </trkpt>
      <trkpt lat="49.37239" lon="1.23161">
        <ele>198</ele>
        <time>2016-05-01T08:55:17.000Z</time>
      </trkpt>
      <trkpt lat="49.37243" lon="1.23175">
        <ele>198</ele>
        <time>2016-05-01T08:55:19.000Z</time>
      </trkpt>
      <trkpt lat="49.37247" lon="1.23188">
        <ele>199</ele>
        <time>2016-05-01T08:55:21.000Z</time>
      </trkpt>
      <trkpt lat="49.37253" lon="1.23201">
        <ele>199</ele>
        <time>2016-05-01T08:55:23.000Z</time>
      </trkpt>
      <trkpt lat="49.37257" lon="1.23213">
        <ele>199</ele>
        <time>2016-05-01T08:55:25.000Z</time>
      </trkpt>
      <trkpt lat="49.37262" lon="1.23227">
        <ele>200</ele>
        <time>2016-05-01T08:55:27.000Z</time>
      </trkpt>
      <trkpt lat="49.37267" lon="1.2324">
        <ele>200</ele>
        <time>2016-05-01T08:55:29.000Z</time>
      </trkpt>
      <trkpt lat="49.37272" lon="1.23254">
        <ele>200</ele>
        <time>2016-05-01T08:55:31.000Z</time>
      </trkpt>
      <trkpt lat="49.37276" lon="1.23267">
        <ele>200</ele>
        <time>2016-05-01T08:55:33.000Z</time>
      </trkpt>
      <trkpt lat="49.3728" lon="1.2328">
        <ele>200</ele>
        <time>2016-05-01T08:55:35.000Z</time>
      </trkpt>
      <trkpt lat="49.37284" lon="1.23292">
        <ele>200</ele>
        <time>2016-05-01T08:55:38.000Z</time>
      </trkpt>
      <trkpt lat="49.37288" lon="1.23304">
        <ele>200</ele>
        <time>2016-05-01T08:55:39.000Z</time>
      </trkpt>
      <trkpt lat="49.37292" lon="1.23314">
        <ele>201</ele>
        <time>2016-05-01T08:55:41.000Z</time>
      </trkpt>
      <trkpt lat="49.37294" lon="1.23323">
        <ele>201</ele>
        <time>2016-05-01T08:55:43.000Z</time>
      </trkpt>
      <trkpt lat="49.37294" lon="1.23323">
        <ele>201</ele>
        <time>2016-05-01T08:55:45.000Z</time>
      </trkpt>
      <trkpt lat="49.37296" lon="1.23337">
        <ele>201</ele>
        <time>2016-05-01T08:55:47.000Z</time>
      </trkpt>
      <trkpt lat="49.37301" lon="1.23359">
        <ele>201</ele>
        <time>2016-05-01T08:55:50.000Z</time>
      </trkpt>
      <trkpt lat="49.37306" lon="1.23367">
        <ele>201</ele>
        <time>2016-05-01T08:55:52.000Z</time>
      </trkpt>
      <trkpt lat="49.37315" lon="1.23365">
        <ele>200</ele>
        <time>2016-05-01T08:55:54.000Z</time>
      </trkpt>
      <trkpt lat="49.37323" lon="1.23361">
        <ele>200</ele>
        <time>2016-05-01T08:55:56.000Z</time>
      </trkpt>
      <trkpt lat="49.37331" lon="1.23355">
        <ele>201</ele>
        <time>2016-05-01T08:55:58.000Z</time>
      </trkpt>
      <trkpt lat="49.3734" lon="1.23351">
        <ele>201</ele>
        <time>2016-05-01T08:56:00.000Z</time>
      </trkpt>
      <trkpt lat="49.37349" lon="1.23345">
        <ele>202</ele>
        <time>2016-05-01T08:56:02.000Z</time>
      </trkpt>
      <trkpt lat="49.37357" lon="1.23342">
        <ele>201</ele>
        <time>2016-05-01T08:56:04.000Z</time>
      </trkpt>
      <trkpt lat="49.37366" lon="1.23336">
        <ele>202</ele>
        <time>2016-05-01T08:56:06.000Z</time>
      </trkpt>
      <trkpt lat="49.37374" lon="1.23331">
        <ele>201</ele>
        <time>2016-05-01T08:56:08.000Z</time>
      </trkpt>
      <trkpt lat="49.37383" lon="1.23326">
        <ele>201</ele>
        <time>2016-05-01T08:56:10.000Z</time>
      </trkpt>
      <trkpt lat="49.37391" lon="1.23319">
        <ele>201</ele>
        <time>2016-05-01T08:56:12.000Z</time>
      </trkpt>
      <trkpt lat="49.37399" lon="1.23313">
        <ele>201</ele>
        <time>2016-05-01T08:56:14.000Z</time>
      </trkpt>
      <trkpt lat="49.37408" lon="1.23308">
        <ele>201</ele>
        <time>2016-05-01T08:56:16.000Z</time>
      </trkpt>
      <trkpt lat="49.37415" lon="1.23303">
        <ele>202</ele>
        <time>2016-05-01T08:56:18.000Z</time>
      </trkpt>
      <trkpt lat="49.37423" lon="1.23299">
        <ele>202</ele>
        <time>2016-05-01T08:56:20.000Z</time>
      </trkpt>
      <trkpt lat="49.37431" lon="1.23293">
        <ele>203</ele>
        <time>2016-05-01T08:56:22.000Z</time>
      </trkpt>
      <trkpt lat="49.37439" lon="1.23288">
        <ele>204</ele>
        <time>2016-05-01T08:56:24.000Z</time>
      </trkpt>
      <trkpt lat="49.37448" lon="1.23283">
        <ele>204</ele>
        <time>2016-05-01T08:56:26.000Z</time>
      </trkpt>
      <trkpt lat="49.37457" lon="1.23277">
        <ele>203</ele>
        <time>2016-05-01T08:56:28.000Z</time>
      </trkpt>
      <trkpt lat="49.37464" lon="1.23272">
        <ele>204</ele>
        <time>2016-05-01T08:56:30.000Z</time>
      </trkpt>
      <trkpt lat="49.37472" lon="1.23266">
        <ele>204</ele>
        <time>2016-05-01T08:56:32.000Z</time>
      </trkpt>
      <trkpt lat="49.37479" lon="1.2326">
        <ele>203</ele>
        <time>2016-05-01T08:56:34.000Z</time>
      </trkpt>
      <trkpt lat="49.37486" lon="1.23254">
        <ele>204</ele>
        <time>2016-05-01T08:56:36.000Z</time>
      </trkpt>
      <trkpt lat="49.37493" lon="1.23248">
        <ele>204</ele>
        <time>2016-05-01T08:56:38.000Z</time>
      </trkpt>
      <trkpt lat="49.375" lon="1.23241">
        <ele>205</ele>
        <time>2016-05-01T08:56:40.000Z</time>
      </trkpt>
      <trkpt lat="49.37506" lon="1.23235">
        <ele>205</ele>
        <time>2016-05-01T08:56:42.000Z</time>
      </trkpt>
      <trkpt lat="49.37517" lon="1.23225">
        <ele>205</ele>
        <time>2016-05-01T08:56:45.000Z</time>
      </trkpt>
      <trkpt lat="49.37524" lon="1.23219">
        <ele>206</ele>
        <time>2016-05-01T08:56:47.000Z</time>
      </trkpt>
      <trkpt lat="49.37531" lon="1.23212">
        <ele>206</ele>
        <time>2016-05-01T08:56:49.000Z</time>
      </trkpt>
      <trkpt lat="49.37539" lon="1.23205">
        <ele>207</ele>
        <time>2016-05-01T08:56:51.000Z</time>
      </trkpt>
      <trkpt lat="49.37545" lon="1.23198">
        <ele>206</ele>
        <time>2016-05-01T08:56:53.000Z</time>
      </trkpt>
      <trkpt lat="49.37552" lon="1.23191">
        <ele>207</ele>
        <time>2016-05-01T08:56:55.000Z</time>
      </trkpt>
      <trkpt lat="49.37559" lon="1.23184">
        <ele>207</ele>
        <time>2016-05-01T08:56:57.000Z</time>
      </trkpt>
      <trkpt lat="49.37566" lon="1.23178">
        <ele>207</ele>
        <time>2016-05-01T08:56:59.000Z</time>
      </trkpt>
      <trkpt lat="49.37573" lon="1.23172">
        <ele>207</ele>
        <time>2016-05-01T08:57:01.000Z</time>
      </trkpt>
      <trkpt lat="49.37581" lon="1.23173">
        <ele>208</ele>
        <time>2016-05-01T08:57:03.000Z</time>
      </trkpt>
      <trkpt lat="49.37589" lon="1.23182">
        <ele>208</ele>
        <time>2016-05-01T08:57:05.000Z</time>
      </trkpt>
      <trkpt lat="49.37594" lon="1.23193">
        <ele>207</ele>
        <time>2016-05-01T08:57:07.000Z</time>
      </trkpt>
      <trkpt lat="49.376" lon="1.23204">
        <ele>207</ele>
        <time>2016-05-01T08:57:09.000Z</time>
      </trkpt>
      <trkpt lat="49.37606" lon="1.23213">
        <ele>207</ele>
        <time>2016-05-01T08:57:11.000Z</time>
      </trkpt>
      <trkpt lat="49.37613" lon="1.23222">
        <ele>207</ele>
        <time>2016-05-01T08:57:13.000Z</time>
      </trkpt>
      <trkpt lat="49.3762" lon="1.23231">
        <ele>207</ele>
        <time>2016-05-01T08:57:15.000Z</time>
      </trkpt>
      <trkpt lat="49.37626" lon="1.23239">
        <ele>207</ele>
        <time>2016-05-01T08:57:17.000Z</time>
      </trkpt>
      <trkpt lat="49.37632" lon="1.23246">
        <ele>207</ele>
        <time>2016-05-01T08:57:19.000Z</time>
      </trkpt>
      <trkpt lat="49.37638" lon="1.23254">
        <ele>208</ele>
        <time>2016-05-01T08:57:21.000Z</time>
      </trkpt>
      <trkpt lat="49.37645" lon="1.23263">
        <ele>208</ele>
        <time>2016-05-01T08:57:23.000Z</time>
      </trkpt>
      <trkpt lat="49.37652" lon="1.23271">
        <ele>208</ele>
        <time>2016-05-01T08:57:25.000Z</time>
      </trkpt>
      <trkpt lat="49.37658" lon="1.23279">
        <ele>208</ele>
        <time>2016-05-01T08:57:27.000Z</time>
      </trkpt>
      <trkpt lat="49.37665" lon="1.23287">
        <ele>209</ele>
        <time>2016-05-01T08:57:29.000Z</time>
      </trkpt>
      <trkpt lat="49.37671" lon="1.23296">
        <ele>208</ele>
        <time>2016-05-01T08:57:31.000Z</time>
      </trkpt>
      <trkpt lat="49.37677" lon="1.23304">
        <ele>208</ele>
        <time>2016-05-01T08:57:33.000Z</time>
      </trkpt>
      <trkpt lat="49.37683" lon="1.23311">
        <ele>208</ele>
        <time>2016-05-01T08:57:35.000Z</time>
      </trkpt>
      <trkpt lat="49.3769" lon="1.2332">
        <ele>208</ele>
        <time>2016-05-01T08:57:37.000Z</time>
      </trkpt>
      <trkpt lat="49.37696" lon="1.23328">
        <ele>208</ele>
        <time>2016-05-01T08:57:39.000Z</time>
      </trkpt>
      <trkpt lat="49.37702" lon="1.23336">
        <ele>208</ele>
        <time>2016-05-01T08:57:41.000Z</time>
      </trkpt>
      <trkpt lat="49.37709" lon="1.23344">
        <ele>208</ele>
        <time>2016-05-01T08:57:43.000Z</time>
      </trkpt>
      <trkpt lat="49.37715" lon="1.23352">
        <ele>208</ele>
        <time>2016-05-01T08:57:45.000Z</time>
      </trkpt>
      <trkpt lat="49.37721" lon="1.23361">
        <ele>208</ele>
        <time>2016-05-01T08:57:47.000Z</time>
      </trkpt>
      <trkpt lat="49.37728" lon="1.23369">
        <ele>209</ele>
        <time>2016-05-01T08:57:49.000Z</time>
      </trkpt>
      <trkpt lat="49.37734" lon="1.23377">
        <ele>208</ele>
        <time>2016-05-01T08:57:51.000Z</time>
      </trkpt>
      <trkpt lat="49.37741" lon="1.23385">
        <ele>208</ele>
        <time>2016-05-01T08:57:53.000Z</time>
      </trkpt>
      <trkpt lat="49.37747" lon="1.23393">
        <ele>209</ele>
        <time>2016-05-01T08:57:55.000Z</time>
      </trkpt>
      <trkpt lat="49.37754" lon="1.23402">
        <ele>209</ele>
        <time>2016-05-01T08:57:57.000Z</time>
      </trkpt>
      <trkpt lat="49.3776" lon="1.23409">
        <ele>209</ele>
        <time>2016-05-01T08:57:59.000Z</time>
      </trkpt>
      <trkpt lat="49.37766" lon="1.23417">
        <ele>209</ele>
        <time>2016-05-01T08:58:01.000Z</time>
      </trkpt>
      <trkpt lat="49.37772" lon="1.23425">
        <ele>210</ele>
        <time>2016-05-01T08:58:03.000Z</time>
      </trkpt>
      <trkpt lat="49.37777" lon="1.23433">
        <ele>209</ele>
        <time>2016-05-01T08:58:05.000Z</time>
      </trkpt>
      <trkpt lat="49.37783" lon="1.2344">
        <ele>209</ele>
        <time>2016-05-01T08:58:07.000Z</time>
      </trkpt>
      <trkpt lat="49.37789" lon="1.23444">
        <ele>210</ele>
        <time>2016-05-01T08:58:09.000Z</time>
      </trkpt>
      <trkpt lat="49.37794" lon="1.2344">
        <ele>210</ele>
        <time>2016-05-01T08:58:11.000Z</time>
      </trkpt>
      <trkpt lat="49.37798" lon="1.23431">
        <ele>210</ele>
        <time>2016-05-01T08:58:13.000Z</time>
      </trkpt>
      <trkpt lat="49.37802" lon="1.23421">
        <ele>211</ele>
        <time>2016-05-01T08:58:15.000Z</time>
      </trkpt>
      <trkpt lat="49.37806" lon="1.2341">
        <ele>211</ele>
        <time>2016-05-01T08:58:17.000Z</time>
      </trkpt>
      <trkpt lat="49.3781" lon="1.234">
        <ele>211</ele>
        <time>2016-05-01T08:58:19.000Z</time>
      </trkpt>
      <trkpt lat="49.37814" lon="1.2339">
        <ele>211</ele>
        <time>2016-05-01T08:58:21.000Z</time>
      </trkpt>
      <trkpt lat="49.37817" lon="1.2338">
        <ele>211</ele>
        <time>2016-05-01T08:58:23.000Z</time>
      </trkpt>
      <trkpt lat="49.37822" lon="1.23371">
        <ele>211</ele>
        <time>2016-05-01T08:58:25.000Z</time>
      </trkpt>
      <trkpt lat="49.37827" lon="1.23362">
        <ele>211</ele>
        <time>2016-05-01T08:58:27.000Z</time>
      </trkpt>
      <trkpt lat="49.37832" lon="1.23352">
        <ele>211</ele>
        <time>2016-05-01T08:58:29.000Z</time>
      </trkpt>
      <trkpt lat="49.37837" lon="1.23341">
        <ele>211</ele>
        <time>2016-05-01T08:58:31.000Z</time>
      </trkpt>
      <trkpt lat="49.37843" lon="1.23331">
        <ele>211</ele>
        <time>2016-05-01T08:58:33.000Z</time>
      </trkpt>
      <trkpt lat="49.37849" lon="1.23321">
        <ele>211</ele>
        <time>2016-05-01T08:58:35.000Z</time>
      </trkpt>
      <trkpt lat="49.37856" lon="1.23313">
        <ele>211</ele>
        <time>2016-05-01T08:58:37.000Z</time>
      </trkpt>
      <trkpt lat="49.37862" lon="1.23306">
        <ele>212</ele>
        <time>2016-05-01T08:58:39.000Z</time>
      </trkpt>
      <trkpt lat="49.37869" lon="1.23299">
        <ele>212</ele>
        <time>2016-05-01T08:58:41.000Z</time>
      </trkpt>
      <trkpt lat="49.37877" lon="1.23292">
        <ele>212</ele>
        <time>2016-05-01T08:58:43.000Z</time>
      </trkpt>
      <trkpt lat="49.37883" lon="1.23284">
        <ele>211</ele>
        <time>2016-05-01T08:58:45.000Z</time>
      </trkpt>
      <trkpt lat="49.37889" lon="1.23277">
        <ele>211</ele>
        <time>2016-05-01T08:58:47.000Z</time>
      </trkpt>
      <trkpt lat="49.37896" lon="1.2327">
        <ele>212</ele>
        <time>2016-05-01T08:58:49.000Z</time>
      </trkpt>
      <trkpt lat="49.37903" lon="1.23263">
        <ele>212</ele>
        <time>2016-05-01T08:58:51.000Z</time>
      </trkpt>
      <trkpt lat="49.37909" lon="1.23255">
        <ele>212</ele>
        <time>2016-05-01T08:58:53.000Z</time>
      </trkpt>
      <trkpt lat="49.37915" lon="1.23248">
        <ele>212</ele>
        <time>2016-05-01T08:58:55.000Z</time>
      </trkpt>
      <trkpt lat="49.37922" lon="1.2324">
        <ele>212</ele>
        <time>2016-05-01T08:58:57.000Z</time>
      </trkpt>
      <trkpt lat="49.37928" lon="1.23232">
        <ele>211</ele>
        <time>2016-05-01T08:58:59.000Z</time>
      </trkpt>
      <trkpt lat="49.37936" lon="1.23225">
        <ele>211</ele>
        <time>2016-05-01T08:59:01.000Z</time>
      </trkpt>
      <trkpt lat="49.37943" lon="1.23217">
        <ele>211</ele>
        <time>2016-05-01T08:59:03.000Z</time>
      </trkpt>
      <trkpt lat="49.37949" lon="1.2321">
        <ele>210</ele>
        <time>2016-05-01T08:59:05.000Z</time>
      </trkpt>
      <trkpt lat="49.37956" lon="1.23203">
        <ele>210</ele>
        <time>2016-05-01T08:59:07.000Z</time>
      </trkpt>
      <trkpt lat="49.37963" lon="1.23195">
        <ele>210</ele>
        <time>2016-05-01T08:59:09.000Z</time>
      </trkpt>
      <trkpt lat="49.3797" lon="1.23188">
        <ele>210</ele>
        <time>2016-05-01T08:59:11.000Z</time>
      </trkpt>
      <trkpt lat="49.37976" lon="1.2318">
        <ele>210</ele>
        <time>2016-05-01T08:59:13.000Z</time>
      </trkpt>
      <trkpt lat="49.37983" lon="1.23174">
        <ele>210</ele>
        <time>2016-05-01T08:59:15.000Z</time>
      </trkpt>
      <trkpt lat="49.37989" lon="1.23168">
        <ele>209</ele>
        <time>2016-05-01T08:59:17.000Z</time>
      </trkpt>
      <trkpt lat="49.37996" lon="1.23162">
        <ele>209</ele>
        <time>2016-05-01T08:59:19.000Z</time>
      </trkpt>
      <trkpt lat="49.38001" lon="1.23157">
        <ele>209</ele>
        <time>2016-05-01T08:59:21.000Z</time>
      </trkpt>
      <trkpt lat="49.38001" lon="1.23157">
        <ele>209</ele>
        <time>2016-05-01T08:59:23.000Z</time>
      </trkpt>
      <trkpt lat="49.38011" lon="1.23166">
        <ele>209</ele>
        <time>2016-05-01T08:59:25.000Z</time>
      </trkpt>
      <trkpt lat="49.38014" lon="1.2318">
        <ele>209</ele>
        <time>2016-05-01T08:59:27.000Z</time>
      </trkpt>
      <trkpt lat="49.38017" lon="1.23194">
        <ele>209</ele>
        <time>2016-05-01T08:59:29.000Z</time>
      </trkpt>
      <trkpt lat="49.38021" lon="1.23207">
        <ele>209</ele>
        <time>2016-05-01T08:59:31.000Z</time>
      </trkpt>
      <trkpt lat="49.38025" lon="1.23221">
        <ele>209</ele>
        <time>2016-05-01T08:59:33.000Z</time>
      </trkpt>
      <trkpt lat="49.38029" lon="1.23235">
        <ele>208</ele>
        <time>2016-05-01T08:59:35.000Z</time>
      </trkpt>
      <trkpt lat="49.38034" lon="1.23248">
        <ele>209</ele>
        <time>2016-05-01T08:59:37.000Z</time>
      </trkpt>
      <trkpt lat="49.38041" lon="1.23259">
        <ele>208</ele>
        <time>2016-05-01T08:59:39.000Z</time>
      </trkpt>
      <trkpt lat="49.38047" lon="1.23269">
        <ele>208</ele>
        <time>2016-05-01T08:59:41.000Z</time>
      </trkpt>
      <trkpt lat="49.38054" lon="1.23276">
        <ele>208</ele>
        <time>2016-05-01T08:59:43.000Z</time>
      </trkpt>
      <trkpt lat="49.38063" lon="1.23283">
        <ele>208</ele>
        <time>2016-05-01T08:59:45.000Z</time>
      </trkpt>
      <trkpt lat="49.38071" lon="1.23289">
        <ele>208</ele>
        <time>2016-05-01T08:59:47.000Z</time>
      </trkpt>
      <trkpt lat="49.3808" lon="1.23293">
        <ele>207</ele>
        <time>2016-05-01T08:59:49.000Z</time>
      </trkpt>
      <trkpt lat="49.38089" lon="1.23298">
        <ele>207</ele>
        <time>2016-05-01T08:59:51.000Z</time>
      </trkpt>
      <trkpt lat="49.38097" lon="1.23301">
        <ele>207</ele>
        <time>2016-05-01T08:59:53.000Z</time>
      </trkpt>
      <trkpt lat="49.38106" lon="1.23304">
        <ele>207</ele>
        <time>2016-05-01T08:59:55.000Z</time>
      </trkpt>
      <trkpt lat="49.38114" lon="1.23307">
        <ele>207</ele>
        <time>2016-05-01T08:59:57.000Z</time>
      </trkpt>
      <trkpt lat="49.38123" lon="1.2331">
        <ele>207</ele>
        <time>2016-05-01T08:59:59.000Z</time>
      </trkpt>
      <trkpt lat="49.38132" lon="1.23313">
        <ele>207</ele>
        <time>2016-05-01T09:00:01.000Z</time>
      </trkpt>
      <trkpt lat="49.3814" lon="1.23315">
        <ele>206</ele>
        <time>2016-05-01T09:00:03.000Z</time>
      </trkpt>
      <trkpt lat="49.38148" lon="1.23318">
        <ele>206</ele>
        <time>2016-05-01T09:00:05.000Z</time>
      </trkpt>
      <trkpt lat="49.38157" lon="1.23321">
        <ele>206</ele>
        <time>2016-05-01T09:00:07.000Z</time>
      </trkpt>
      <trkpt lat="49.38166" lon="1.23323">
        <ele>205</ele>
        <time>2016-05-01T09:00:09.000Z</time>
      </trkpt>
      <trkpt lat="49.38175" lon="1.23325">
        <ele>205</ele>
        <time>2016-05-01T09:00:11.000Z</time>
      </trkpt>
      <trkpt lat="49.38185" lon="1.23328">
        <ele>205</ele>
        <time>2016-05-01T09:00:13.000Z</time>
      </trkpt>
      <trkpt lat="49.38194" lon="1.23331">
        <ele>205</ele>
        <time>2016-05-01T09:00:15.000Z</time>
      </trkpt>
      <trkpt lat="49.38203" lon="1.23335">
        <ele>205</ele>
        <time>2016-05-01T09:00:17.000Z</time>
      </trkpt>
      <trkpt lat="49.38212" lon="1.2334">
        <ele>205</ele>
        <time>2016-05-01T09:00:19.000Z</time>
      </trkpt>
      <trkpt lat="49.38221" lon="1.23346">
        <ele>206</ele>
        <time>2016-05-01T09:00:21.000Z</time>
      </trkpt>
      <trkpt lat="49.38229" lon="1.23355">
        <ele>205</ele>
        <time>2016-05-01T09:00:23.000Z</time>
      </trkpt>
      <trkpt lat="49.38236" lon="1.23365">
        <ele>205</ele>
        <time>2016-05-01T09:00:25.000Z</time>
      </trkpt>
      <trkpt lat="49.38243" lon="1.23375">
        <ele>205</ele>
        <time>2016-05-01T09:00:27.000Z</time>
      </trkpt>
      <trkpt lat="49.3825" lon="1.23387">
        <ele>205</ele>
        <time>2016-05-01T09:00:29.000Z</time>
      </trkpt>
      <trkpt lat="49.38256" lon="1.23398">
        <ele>205</ele>
        <time>2016-05-01T09:00:31.000Z</time>
      </trkpt>
      <trkpt lat="49.38262" lon="1.2341">
        <ele>205</ele>
        <time>2016-05-01T09:00:33.000Z</time>
      </trkpt>
      <trkpt lat="49.38267" lon="1.23423">
        <ele>205</ele>
        <time>2016-05-01T09:00:35.000Z</time>
      </trkpt>
      <trkpt lat="49.38272" lon="1.23436">
        <ele>204</ele>
        <time>2016-05-01T09:00:37.000Z</time>
      </trkpt>
      <trkpt lat="49.38277" lon="1.23449">
        <ele>205</ele>
        <time>2016-05-01T09:00:39.000Z</time>
      </trkpt>
      <trkpt lat="49.38282" lon="1.23463">
        <ele>204</ele>
        <time>2016-05-01T09:00:41.000Z</time>
      </trkpt>
      <trkpt lat="49.38288" lon="1.23476">
        <ele>204</ele>
        <time>2016-05-01T09:00:43.000Z</time>
      </trkpt>
      <trkpt lat="49.38295" lon="1.23489">
        <ele>203</ele>
        <time>2016-05-01T09:00:45.000Z</time>
      </trkpt>
      <trkpt lat="49.38304" lon="1.23498">
        <ele>203</ele>
        <time>2016-05-01T09:00:47.000Z</time>
      </trkpt>
      <trkpt lat="49.38314" lon="1.23504">
        <ele>203</ele>
        <time>2016-05-01T09:00:49.000Z</time>
      </trkpt>
      <trkpt lat="49.38322" lon="1.23511">
        <ele>203</ele>
        <time>2016-05-01T09:00:51.000Z</time>
      </trkpt>
      <trkpt lat="49.38331" lon="1.23519">
        <ele>202</ele>
        <time>2016-05-01T09:00:53.000Z</time>
      </trkpt>
      <trkpt lat="49.3834" lon="1.23526">
        <ele>202</ele>
        <time>2016-05-01T09:00:55.000Z</time>
      </trkpt>
      <trkpt lat="49.38349" lon="1.23533">
        <ele>202</ele>
        <time>2016-05-01T09:00:57.000Z</time>
      </trkpt>
      <trkpt lat="49.38357" lon="1.23539">
        <ele>201</ele>
        <time>2016-05-01T09:00:59.000Z</time>
      </trkpt>
      <trkpt lat="49.38366" lon="1.23547">
        <ele>201</ele>
        <time>2016-05-01T09:01:01.000Z</time>
      </trkpt>
      <trkpt lat="49.38375" lon="1.23553">
        <ele>201</ele>
        <time>2016-05-01T09:01:03.000Z</time>
      </trkpt>
      <trkpt lat="49.38384" lon="1.23561">
        <ele>201</ele>
        <time>2016-05-01T09:01:05.000Z</time>
      </trkpt>
      <trkpt lat="49.38393" lon="1.23568">
        <ele>200</ele>
        <time>2016-05-01T09:01:07.000Z</time>
      </trkpt>
      <trkpt lat="49.38402" lon="1.23576">
        <ele>200</ele>
        <time>2016-05-01T09:01:09.000Z</time>
      </trkpt>
      <trkpt lat="49.38411" lon="1.23583">
        <ele>200</ele>
        <time>2016-05-01T09:01:11.000Z</time>
      </trkpt>
      <trkpt lat="49.3842" lon="1.2359">
        <ele>199</ele>
        <time>2016-05-01T09:01:13.000Z</time>
      </trkpt>
      <trkpt lat="49.38429" lon="1.23598">
        <ele>199</ele>
        <time>2016-05-01T09:01:15.000Z</time>
      </trkpt>
      <trkpt lat="49.38438" lon="1.23606">
        <ele>198</ele>
        <time>2016-05-01T09:01:17.000Z</time>
      </trkpt>
      <trkpt lat="49.38448" lon="1.23613">
        <ele>198</ele>
        <time>2016-05-01T09:01:19.000Z</time>
      </trkpt>
      <trkpt lat="49.38457" lon="1.2362">
        <ele>198</ele>
        <time>2016-05-01T09:01:21.000Z</time>
      </trkpt>
      <trkpt lat="49.38466" lon="1.23627">
        <ele>198</ele>
        <time>2016-05-01T09:01:23.000Z</time>
      </trkpt>
      <trkpt lat="49.38475" lon="1.23634">
        <ele>198</ele>
        <time>2016-05-01T09:01:25.000Z</time>
      </trkpt>
      <trkpt lat="49.38483" lon="1.2364">
        <ele>197</ele>
        <time>2016-05-01T09:01:27.000Z</time>
      </trkpt>
      <trkpt lat="49.38491" lon="1.23647">
        <ele>197</ele>
        <time>2016-05-01T09:01:29.000Z</time>
      </trkpt>
      <trkpt lat="49.38498" lon="1.23654">
        <ele>197</ele>
        <time>2016-05-01T09:01:31.000Z</time>
      </trkpt>
      <trkpt lat="49.38506" lon="1.2366">
        <ele>198</ele>
        <time>2016-05-01T09:01:33.000Z</time>
      </trkpt>
      <trkpt lat="49.38514" lon="1.23666">
        <ele>198</ele>
        <time>2016-05-01T09:01:35.000Z</time>
      </trkpt>
      <trkpt lat="49.38521" lon="1.23672">
        <ele>198</ele>
        <time>2016-05-01T09:01:37.000Z</time>
      </trkpt>
      <trkpt lat="49.38529" lon="1.23678">
        <ele>199</ele>
        <time>2016-05-01T09:01:39.000Z</time>
      </trkpt>
      <trkpt lat="49.38537" lon="1.23684">
        <ele>199</ele>
        <time>2016-05-01T09:01:41.000Z</time>
      </trkpt>
      <trkpt lat="49.38545" lon="1.2369">
        <ele>200</ele>
        <time>2016-05-01T09:01:43.000Z</time>
      </trkpt>
      <trkpt lat="49.38552" lon="1.23696">
        <ele>200</ele>
        <time>2016-05-01T09:01:45.000Z</time>
      </trkpt>
      <trkpt lat="49.3856" lon="1.23702">
        <ele>200</ele>
        <time>2016-05-01T09:01:47.000Z</time>
      </trkpt>
      <trkpt lat="49.38568" lon="1.23707">
        <ele>200</ele>
        <time>2016-05-01T09:01:49.000Z</time>
      </trkpt>
      <trkpt lat="49.38576" lon="1.23713">
        <ele>201</ele>
        <time>2016-05-01T09:01:51.000Z</time>
      </trkpt>
      <trkpt lat="49.38584" lon="1.23718">
        <ele>201</ele>
        <time>2016-05-01T09:01:53.000Z</time>
      </trkpt>
      <trkpt lat="49.38591" lon="1.23724">
        <ele>201</ele>
        <time>2016-05-01T09:01:55.000Z</time>
      </trkpt>
      <trkpt lat="49.38599" lon="1.23729">
        <ele>201</ele>
        <time>2016-05-01T09:01:57.000Z</time>
      </trkpt>
      <trkpt lat="49.38606" lon="1.23734">
        <ele>201</ele>
        <time>2016-05-01T09:01:59.000Z</time>
      </trkpt>
      <trkpt lat="49.38611" lon="1.23738">
        <ele>201</ele>
        <time>2016-05-01T09:02:01.000Z</time>
      </trkpt>
      <trkpt lat="49.38611" lon="1.23738">
        <ele>201</ele>
        <time>2016-05-01T09:02:03.000Z</time>
      </trkpt>
      <trkpt lat="49.38622" lon="1.23746">
        <ele>201</ele>
        <time>2016-05-01T09:02:05.000Z</time>
      </trkpt>
      <trkpt lat="49.38628" lon="1.23751">
        <ele>201</ele>
        <time>2016-05-01T09:02:07.000Z</time>
      </trkpt>
      <trkpt lat="49.38634" lon="1.23757">
        <ele>201</ele>
        <time>2016-05-01T09:02:09.000Z</time>
      </trkpt>
      <trkpt lat="49.38643" lon="1.23763">
        <ele>201</ele>
        <time>2016-05-01T09:02:11.000Z</time>
      </trkpt>
      <trkpt lat="49.3865" lon="1.23768">
        <ele>201</ele>
        <time>2016-05-01T09:02:13.000Z</time>
      </trkpt>
      <trkpt lat="49.38659" lon="1.23773">
        <ele>201</ele>
        <time>2016-05-01T09:02:15.000Z</time>
      </trkpt>
      <trkpt lat="49.38667" lon="1.23778">
        <ele>201</ele>
        <time>2016-05-01T09:02:17.000Z</time>
      </trkpt>
      <trkpt lat="49.38676" lon="1.23782">
        <ele>201</ele>
        <time>2016-05-01T09:02:19.000Z</time>
      </trkpt>
      <trkpt lat="49.38685" lon="1.23786">
        <ele>201</ele>
        <time>2016-05-01T09:02:21.000Z</time>
      </trkpt>
      <trkpt lat="49.38693" lon="1.2379">
        <ele>201</ele>
        <time>2016-05-01T09:02:23.000Z</time>
      </trkpt>
      <trkpt lat="49.38702" lon="1.23795">
        <ele>201</ele>
        <time>2016-05-01T09:02:25.000Z</time>
      </trkpt>
      <trkpt lat="49.3871" lon="1.23798">
        <ele>201</ele>
        <time>2016-05-01T09:02:27.000Z</time>
      </trkpt>
      <trkpt lat="49.38718" lon="1.23802">
        <ele>201</ele>
        <time>2016-05-01T09:02:29.000Z</time>
      </trkpt>
      <trkpt lat="49.38726" lon="1.23806">
        <ele>201</ele>
        <time>2016-05-01T09:02:31.000Z</time>
      </trkpt>
      <trkpt lat="49.38734" lon="1.2381">
        <ele>201</ele>
        <time>2016-05-01T09:02:33.000Z</time>
      </trkpt>
      <trkpt lat="49.38742" lon="1.23814">
        <ele>201</ele>
        <time>2016-05-01T09:02:35.000Z</time>
      </trkpt>
      <trkpt lat="49.38751" lon="1.23819">
        <ele>201</ele>
        <time>2016-05-01T09:02:37.000Z</time>
      </trkpt>
      <trkpt lat="49.38759" lon="1.23822">
        <ele>201</ele>
        <time>2016-05-01T09:02:39.000Z</time>
      </trkpt>
      <trkpt lat="49.38768" lon="1.23826">
        <ele>201</ele>
        <time>2016-05-01T09:02:41.000Z</time>
      </trkpt>
      <trkpt lat="49.38776" lon="1.2383">
        <ele>201</ele>
        <time>2016-05-01T09:02:43.000Z</time>
      </trkpt>
      <trkpt lat="49.38784" lon="1.23835">
        <ele>201</ele>
        <time>2016-05-01T09:02:45.000Z</time>
      </trkpt>
      <trkpt lat="49.38792" lon="1.23839">
        <ele>201</ele>
        <time>2016-05-01T09:02:47.000Z</time>
      </trkpt>
      <trkpt lat="49.388" lon="1.23843">
        <ele>201</ele>
        <time>2016-05-01T09:02:49.000Z</time>
      </trkpt>
      <trkpt lat="49.38809" lon="1.23847">
        <ele>201</ele>
        <time>2016-05-01T09:02:51.000Z</time>
      </trkpt>
      <trkpt lat="49.38817" lon="1.23851">
        <ele>201</ele>
        <time>2016-05-01T09:02:53.000Z</time>
      </trkpt>
      <trkpt lat="49.38826" lon="1.23855">
        <ele>201</ele>
        <time>2016-05-01T09:02:55.000Z</time>
      </trkpt>
      <trkpt lat="49.38834" lon="1.23859">
        <ele>200</ele>
        <time>2016-05-01T09:02:57.000Z</time>
      </trkpt>
      <trkpt lat="49.38842" lon="1.23863">
        <ele>200</ele>
        <time>2016-05-01T09:02:59.000Z</time>
      </trkpt>
      <trkpt lat="49.38851" lon="1.23867">
        <ele>200</ele>
        <time>2016-05-01T09:03:01.000Z</time>
      </trkpt>
      <trkpt lat="49.3886" lon="1.23872">
        <ele>199</ele>
        <time>2016-05-01T09:03:03.000Z</time>
      </trkpt>
      <trkpt lat="49.38869" lon="1.23876">
        <ele>199</ele>
        <time>2016-05-01T09:03:05.000Z</time>
      </trkpt>
      <trkpt lat="49.38878" lon="1.23881">
        <ele>199</ele>
        <time>2016-05-01T09:03:07.000Z</time>
      </trkpt>
      <trkpt lat="49.38887" lon="1.23886">
        <ele>198</ele>
        <time>2016-05-01T09:03:09.000Z</time>
      </trkpt>
      <trkpt lat="49.38897" lon="1.2389">
        <ele>198</ele>
        <time>2016-05-01T09:03:11.000Z</time>
      </trkpt>
      <trkpt lat="49.38907" lon="1.23892">
        <ele>197</ele>
        <time>2016-05-01T09:03:13.000Z</time>
      </trkpt>
      <trkpt lat="49.38913" lon="1.23882">
        <ele>197</ele>
        <time>2016-05-01T09:03:15.000Z</time>
      </trkpt>
      <trkpt lat="49.38918" lon="1.23868">
        <ele>197</ele>
        <time>2016-05-01T09:03:17.000Z</time>
      </trkpt>
      <trkpt lat="49.38925" lon="1.23855">
        <ele>197</ele>
        <time>2016-05-01T09:03:19.000Z</time>
      </trkpt>
      <trkpt lat="49.38931" lon="1.23841">
        <ele>196</ele>
        <time>2016-05-01T09:03:21.000Z</time>
      </trkpt>
      <trkpt lat="49.38937" lon="1.23825">
        <ele>196</ele>
        <time>2016-05-01T09:03:23.000Z</time>
      </trkpt>
      <trkpt lat="49.38943" lon="1.23809">
        <ele>195</ele>
        <time>2016-05-01T09:03:25.000Z</time>
      </trkpt>
      <trkpt lat="49.38948" lon="1.23794">
        <ele>195</ele>
        <time>2016-05-01T09:03:27.000Z</time>
      </trkpt>
      <trkpt lat="49.38954" lon="1.23778">
        <ele>195</ele>
        <time>2016-05-01T09:03:29.000Z</time>
      </trkpt>
      <trkpt lat="49.38961" lon="1.23762">
        <ele>195</ele>
        <time>2016-05-01T09:03:31.000Z</time>
      </trkpt>
      <trkpt lat="49.38967" lon="1.23745">
        <ele>194</ele>
        <time>2016-05-01T09:03:33.000Z</time>
      </trkpt>
      <trkpt lat="49.38972" lon="1.23728">
        <ele>194</ele>
        <time>2016-05-01T09:03:35.000Z</time>
      </trkpt>
      <trkpt lat="49.38977" lon="1.23712">
        <ele>194</ele>
        <time>2016-05-01T09:03:37.000Z</time>
      </trkpt>
      <trkpt lat="49.38982" lon="1.23697">
        <ele>193</ele>
        <time>2016-05-01T09:03:39.000Z</time>
      </trkpt>
      <trkpt lat="49.38985" lon="1.23684">
        <ele>194</ele>
        <time>2016-05-01T09:03:41.000Z</time>
      </trkpt>
      <trkpt lat="49.38991" lon="1.23673">
        <ele>194</ele>
        <time>2016-05-01T09:03:43.000Z</time>
      </trkpt>
      <trkpt lat="49.38997" lon="1.23668">
        <ele>193</ele>
        <time>2016-05-01T09:03:45.000Z</time>
      </trkpt>
      <trkpt lat="49.38997" lon="1.23668">
        <ele>193</ele>
        <time>2016-05-01T09:03:47.000Z</time>
      </trkpt>
      <trkpt lat="49.39006" lon="1.23684">
        <ele>193</ele>
        <time>2016-05-01T09:03:49.000Z</time>
      </trkpt>
      <trkpt lat="49.39013" lon="1.23692">
        <ele>194</ele>
        <time>2016-05-01T09:03:51.000Z</time>
      </trkpt>
      <trkpt lat="49.3902" lon="1.23698">
        <ele>194</ele>
        <time>2016-05-01T09:03:53.000Z</time>
      </trkpt>
      <trkpt lat="49.39028" lon="1.23704">
        <ele>194</ele>
        <time>2016-05-01T09:03:55.000Z</time>
      </trkpt>
      <trkpt lat="49.39037" lon="1.23708">
        <ele>195</ele>
        <time>2016-05-01T09:03:57.000Z</time>
      </trkpt>
      <trkpt lat="49.39045" lon="1.2371">
        <ele>196</ele>
        <time>2016-05-01T09:03:59.000Z</time>
      </trkpt>
      <trkpt lat="49.39054" lon="1.23709">
        <ele>197</ele>
        <time>2016-05-01T09:04:01.000Z</time>
      </trkpt>
      <trkpt lat="49.39064" lon="1.23707">
        <ele>198</ele>
        <time>2016-05-01T09:04:03.000Z</time>
      </trkpt>
      <trkpt lat="49.39073" lon="1.23707">
        <ele>198</ele>
        <time>2016-05-01T09:04:05.000Z</time>
      </trkpt>
      <trkpt lat="49.39081" lon="1.23706">
        <ele>198</ele>
        <time>2016-05-01T09:04:07.000Z</time>
      </trkpt>
      <trkpt lat="49.3909" lon="1.23705">
        <ele>198</ele>
        <time>2016-05-01T09:04:09.000Z</time>
      </trkpt>
      <trkpt lat="49.39099" lon="1.23705">
        <ele>198</ele>
        <time>2016-05-01T09:04:11.000Z</time>
      </trkpt>
      <trkpt lat="49.39108" lon="1.23704">
        <ele>198</ele>
        <time>2016-05-01T09:04:13.000Z</time>
      </trkpt>
      <trkpt lat="49.39117" lon="1.23702">
        <ele>198</ele>
        <time>2016-05-01T09:04:15.000Z</time>
      </trkpt>
      <trkpt lat="49.39127" lon="1.237">
        <ele>198</ele>
        <time>2016-05-01T09:04:17.000Z</time>
      </trkpt>
      <trkpt lat="49.39137" lon="1.23698">
        <ele>198</ele>
        <time>2016-05-01T09:04:19.000Z</time>
      </trkpt>
      <trkpt lat="49.39147" lon="1.23696">
        <ele>198</ele>
        <time>2016-05-01T09:04:21.000Z</time>
      </trkpt>
      <trkpt lat="49.39156" lon="1.23693">
        <ele>199</ele>
        <time>2016-05-01T09:04:23.000Z</time>
      </trkpt>
      <trkpt lat="49.39165" lon="1.23688">
        <ele>198</ele>
        <time>2016-05-01T09:04:25.000Z</time>
      </trkpt>
      <trkpt lat="49.39175" lon="1.23682">
        <ele>198</ele>
        <time>2016-05-01T09:04:27.000Z</time>
      </trkpt>
      <trkpt lat="49.39184" lon="1.23678">
        <ele>198</ele>
        <time>2016-05-01T09:04:29.000Z</time>
      </trkpt>
      <trkpt lat="49.39193" lon="1.23671">
        <ele>198</ele>
        <time>2016-05-01T09:04:31.000Z</time>
      </trkpt>
      <trkpt lat="49.39202" lon="1.23665">
        <ele>198</ele>
        <time>2016-05-01T09:04:33.000Z</time>
      </trkpt>
      <trkpt lat="49.39211" lon="1.23658">
        <ele>198</ele>
        <time>2016-05-01T09:04:35.000Z</time>
      </trkpt>
      <trkpt lat="49.3922" lon="1.2365">
        <ele>198</ele>
        <time>2016-05-01T09:04:37.000Z</time>
      </trkpt>
      <trkpt lat="49.39229" lon="1.23642">
        <ele>198</ele>
        <time>2016-05-01T09:04:39.000Z</time>
      </trkpt>
      <trkpt lat="49.39238" lon="1.23641">
        <ele>198</ele>
        <time>2016-05-01T09:04:41.000Z</time>
      </trkpt>
      <trkpt lat="49.39249" lon="1.23643">
        <ele>198</ele>
        <time>2016-05-01T09:04:43.000Z</time>
      </trkpt>
      <trkpt lat="49.39259" lon="1.23645">
        <ele>198</ele>
        <time>2016-05-01T09:04:45.000Z</time>
      </trkpt>
      <trkpt lat="49.39268" lon="1.23646">
        <ele>197</ele>
        <time>2016-05-01T09:04:47.000Z</time>
      </trkpt>
      <trkpt lat="49.39279" lon="1.23648">
        <ele>197</ele>
        <time>2016-05-01T09:04:49.000Z</time>
      </trkpt>
      <trkpt lat="49.39288" lon="1.23651">
        <ele>196</ele>
        <time>2016-05-01T09:04:51.000Z</time>
      </trkpt>
      <trkpt lat="49.39299" lon="1.23653">
        <ele>196</ele>
        <time>2016-05-01T09:04:53.000Z</time>
      </trkpt>
      <trkpt lat="49.39309" lon="1.23656">
        <ele>196</ele>
        <time>2016-05-01T09:04:55.000Z</time>
      </trkpt>
      <trkpt lat="49.3932" lon="1.23659">
        <ele>195</ele>
        <time>2016-05-01T09:04:57.000Z</time>
      </trkpt>
      <trkpt lat="49.3933" lon="1.23662">
        <ele>195</ele>
        <time>2016-05-01T09:04:59.000Z</time>
      </trkpt>
      <trkpt lat="49.39341" lon="1.23665">
        <ele>194</ele>
        <time>2016-05-01T09:05:01.000Z</time>
      </trkpt>
      <trkpt lat="49.39351" lon="1.23668">
        <ele>194</ele>
        <time>2016-05-01T09:05:03.000Z</time>
      </trkpt>
      <trkpt lat="49.39361" lon="1.23672">
        <ele>194</ele>
        <time>2016-05-01T09:05:05.000Z</time>
      </trkpt>
      <trkpt lat="49.39372" lon="1.23675">
        <ele>193</ele>
        <time>2016-05-01T09:05:07.000Z</time>
      </trkpt>
      <trkpt lat="49.39382" lon="1.23677">
        <ele>193</ele>
        <time>2016-05-01T09:05:09.000Z</time>
      </trkpt>
      <trkpt lat="49.39392" lon="1.23682">
        <ele>193</ele>
        <time>2016-05-01T09:05:11.000Z</time>
      </trkpt>
      <trkpt lat="49.39402" lon="1.23687">
        <ele>194</ele>
        <time>2016-05-01T09:05:13.000Z</time>
      </trkpt>
      <trkpt lat="49.39411" lon="1.23692">
        <ele>194</ele>
        <time>2016-05-01T09:05:15.000Z</time>
      </trkpt>
      <trkpt lat="49.39419" lon="1.23698">
        <ele>194</ele>
        <time>2016-05-01T09:05:17.000Z</time>
      </trkpt>
      <trkpt lat="49.39426" lon="1.23705">
        <ele>195</ele>
        <time>2016-05-01T09:05:19.000Z</time>
      </trkpt>
      <trkpt lat="49.39435" lon="1.23713">
        <ele>195</ele>
        <time>2016-05-01T09:05:21.000Z</time>
      </trkpt>
      <trkpt lat="49.39443" lon="1.23721">
        <ele>196</ele>
        <time>2016-05-01T09:05:23.000Z</time>
      </trkpt>
      <trkpt lat="49.3945" lon="1.23728">
        <ele>197</ele>
        <time>2016-05-01T09:05:25.000Z</time>
      </trkpt>
      <trkpt lat="49.39458" lon="1.23735">
        <ele>197</ele>
        <time>2016-05-01T09:05:27.000Z</time>
      </trkpt>
      <trkpt lat="49.39465" lon="1.23741">
        <ele>197</ele>
        <time>2016-05-01T09:05:29.000Z</time>
      </trkpt>
      <trkpt lat="49.39472" lon="1.23748">
        <ele>198</ele>
        <time>2016-05-01T09:05:31.000Z</time>
      </trkpt>
      <trkpt lat="49.39479" lon="1.23756">
        <ele>198</ele>
        <time>2016-05-01T09:05:33.000Z</time>
      </trkpt>
      <trkpt lat="49.39484" lon="1.23762">
        <ele>197</ele>
        <time>2016-05-01T09:05:35.000Z</time>
      </trkpt>
      <trkpt lat="49.39484" lon="1.23762">
        <ele>197</ele>
        <time>2016-05-01T09:05:37.000Z</time>
      </trkpt>
      <trkpt lat="49.39494" lon="1.23772">
        <ele>198</ele>
        <time>2016-05-01T09:05:39.000Z</time>
      </trkpt>
      <trkpt lat="49.39494" lon="1.23772">
        <ele>198</ele>
        <time>2016-05-01T09:05:41.000Z</time>
      </trkpt>
      <trkpt lat="49.39503" lon="1.23775">
        <ele>198</ele>
        <time>2016-05-01T09:05:43.000Z</time>
      </trkpt>
      <trkpt lat="49.3951" lon="1.23778">
        <ele>198</ele>
        <time>2016-05-01T09:05:45.000Z</time>
      </trkpt>
      <trkpt lat="49.39517" lon="1.23782">
        <ele>198</ele>
        <time>2016-05-01T09:05:47.000Z</time>
      </trkpt>
      <trkpt lat="49.39524" lon="1.23787">
        <ele>198</ele>
        <time>2016-05-01T09:05:49.000Z</time>
      </trkpt>
      <trkpt lat="49.39531" lon="1.23791">
        <ele>197</ele>
        <time>2016-05-01T09:05:51.000Z</time>
      </trkpt>
      <trkpt lat="49.39538" lon="1.23796">
        <ele>198</ele>
        <time>2016-05-01T09:05:53.000Z</time>
      </trkpt>
      <trkpt lat="49.39545" lon="1.23801">
        <ele>198</ele>
        <time>2016-05-01T09:05:55.000Z</time>
      </trkpt>
      <trkpt lat="49.39551" lon="1.23805">
        <ele>197</ele>
        <time>2016-05-01T09:05:57.000Z</time>
      </trkpt>
      <trkpt lat="49.39556" lon="1.23809">
        <ele>198</ele>
        <time>2016-05-01T09:05:59.000Z</time>
      </trkpt>
      <trkpt lat="49.39563" lon="1.23813">
        <ele>198</ele>
        <time>2016-05-01T09:06:01.000Z</time>
      </trkpt>
      <trkpt lat="49.3957" lon="1.23818">
        <ele>197</ele>
        <time>2016-05-01T09:06:03.000Z</time>
      </trkpt>
      <trkpt lat="49.39577" lon="1.23823">
        <ele>199</ele>
        <time>2016-05-01T09:06:05.000Z</time>
      </trkpt>
      <trkpt lat="49.39584" lon="1.2383">
        <ele>199</ele>
        <time>2016-05-01T09:06:07.000Z</time>
      </trkpt>
      <trkpt lat="49.39591" lon="1.23836">
        <ele>198</ele>
        <time>2016-05-01T09:06:09.000Z</time>
      </trkpt>
      <trkpt lat="49.396" lon="1.23841">
        <ele>197</ele>
        <time>2016-05-01T09:06:11.000Z</time>
      </trkpt>
      <trkpt lat="49.39608" lon="1.23847">
        <ele>197</ele>
        <time>2016-05-01T09:06:13.000Z</time>
      </trkpt>
      <trkpt lat="49.39614" lon="1.23855">
        <ele>196</ele>
        <time>2016-05-01T09:06:15.000Z</time>
      </trkpt>
      <trkpt lat="49.39618" lon="1.23866">
        <ele>195</ele>
        <time>2016-05-01T09:06:17.000Z</time>
      </trkpt>
      <trkpt lat="49.39626" lon="1.23878">
        <ele>196</ele>
        <time>2016-05-01T09:06:19.000Z</time>
      </trkpt>
      <trkpt lat="49.39633" lon="1.23888">
        <ele>195</ele>
        <time>2016-05-01T09:06:21.000Z</time>
      </trkpt>
      <trkpt lat="49.3964" lon="1.23896">
        <ele>195</ele>
        <time>2016-05-01T09:06:23.000Z</time>
      </trkpt>
      <trkpt lat="49.39641" lon="1.23908">
        <ele>196</ele>
        <time>2016-05-01T09:06:25.000Z</time>
      </trkpt>
      <trkpt lat="49.39647" lon="1.23916">
        <ele>198</ele>
        <time>2016-05-01T09:06:27.000Z</time>
      </trkpt>
      <trkpt lat="49.39652" lon="1.23924">
        <ele>199</ele>
        <time>2016-05-01T09:06:29.000Z</time>
      </trkpt>
      <trkpt lat="49.39659" lon="1.23933">
        <ele>199</ele>
        <time>2016-05-01T09:06:31.000Z</time>
      </trkpt>
      <trkpt lat="49.39666" lon="1.23941">
        <ele>198</ele>
        <time>2016-05-01T09:06:33.000Z</time>
      </trkpt>
      <trkpt lat="49.39674" lon="1.23949">
        <ele>197</ele>
        <time>2016-05-01T09:06:35.000Z</time>
      </trkpt>
      <trkpt lat="49.39685" lon="1.23962">
        <ele>198</ele>
        <time>2016-05-01T09:06:37.000Z</time>
      </trkpt>
      <trkpt lat="49.39692" lon="1.23978">
        <ele>198</ele>
        <time>2016-05-01T09:06:41.000Z</time>
      </trkpt>
      <trkpt lat="49.39696" lon="1.23987">
        <ele>197</ele>
        <time>2016-05-01T09:06:43.000Z</time>
      </trkpt>
      <trkpt lat="49.397" lon="1.23998">
        <ele>198</ele>
        <time>2016-05-01T09:06:45.000Z</time>
      </trkpt>
      <trkpt lat="49.39704" lon="1.24008">
        <ele>199</ele>
        <time>2016-05-01T09:06:47.000Z</time>
      </trkpt>
      <trkpt lat="49.39707" lon="1.24017">
        <ele>200</ele>
        <time>2016-05-01T09:06:49.000Z</time>
      </trkpt>
      <trkpt lat="49.39707" lon="1.24017">
        <ele>200</ele>
        <time>2016-05-01T09:06:51.000Z</time>
      </trkpt>
      <trkpt lat="49.3971" lon="1.24035">
        <ele>199</ele>
        <time>2016-05-01T09:06:53.000Z</time>
      </trkpt>
      <trkpt lat="49.39713" lon="1.24047">
        <ele>199</ele>
        <time>2016-05-01T09:06:55.000Z</time>
      </trkpt>
      <trkpt lat="49.39714" lon="1.24063">
        <ele>199</ele>
        <time>2016-05-01T09:06:57.000Z</time>
      </trkpt>
      <trkpt lat="49.39717" lon="1.24072">
        <ele>200</ele>
        <time>2016-05-01T09:06:59.000Z</time>
      </trkpt>
      <trkpt lat="49.39717" lon="1.24072">
        <ele>200</ele>
        <time>2016-05-01T09:07:01.000Z</time>
      </trkpt>
      <trkpt lat="49.39722" lon="1.24079">
        <ele>199</ele>
        <time>2016-05-01T09:07:03.000Z</time>
      </trkpt>
      <trkpt lat="49.39725" lon="1.24085">
        <ele>200</ele>
        <time>2016-05-01T09:07:05.000Z</time>
      </trkpt>
      <trkpt lat="49.39727" lon="1.24093">
        <ele>197</ele>
        <time>2016-05-01T09:07:07.000Z</time>
      </trkpt>
      <trkpt lat="49.39729" lon="1.24103">
        <ele>196</ele>
        <time>2016-05-01T09:07:09.000Z</time>
      </trkpt>
      <trkpt lat="49.39732" lon="1.24114">
        <ele>195</ele>
        <time>2016-05-01T09:07:11.000Z</time>
      </trkpt>
      <trkpt lat="49.39742" lon="1.24138">
        <ele>195</ele>
        <time>2016-05-01T09:07:13.000Z</time>
      </trkpt>
      <trkpt lat="49.39754" lon="1.24147">
        <ele>195</ele>
        <time>2016-05-01T09:07:15.000Z</time>
      </trkpt>
      <trkpt lat="49.39763" lon="1.24155">
        <ele>195</ele>
        <time>2016-05-01T09:07:17.000Z</time>
      </trkpt>
      <trkpt lat="49.39772" lon="1.2416">
        <ele>195</ele>
        <time>2016-05-01T09:07:19.000Z</time>
      </trkpt>
      <trkpt lat="49.39781" lon="1.24162">
        <ele>195</ele>
        <time>2016-05-01T09:07:21.000Z</time>
      </trkpt>
      <trkpt lat="49.39792" lon="1.24161">
        <ele>196</ele>
        <time>2016-05-01T09:07:23.000Z</time>
      </trkpt>
      <trkpt lat="49.39806" lon="1.24162">
        <ele>196</ele>
        <time>2016-05-01T09:07:25.000Z</time>
      </trkpt>
      <trkpt lat="49.39832" lon="1.24177">
        <ele>194</ele>
        <time>2016-05-01T09:07:28.000Z</time>
      </trkpt>
      <trkpt lat="49.39849" lon="1.2418">
        <ele>192</ele>
        <time>2016-05-01T09:07:30.000Z</time>
      </trkpt>
      <trkpt lat="49.39867" lon="1.24182">
        <ele>191</ele>
        <time>2016-05-01T09:07:32.000Z</time>
      </trkpt>
      <trkpt lat="49.39883" lon="1.24189">
        <ele>189</ele>
        <time>2016-05-01T09:07:34.000Z</time>
      </trkpt>
      <trkpt lat="49.39895" lon="1.242">
        <ele>189</ele>
        <time>2016-05-01T09:07:36.000Z</time>
      </trkpt>
      <trkpt lat="49.39909" lon="1.242">
        <ele>186</ele>
        <time>2016-05-01T09:07:38.000Z</time>
      </trkpt>
      <trkpt lat="49.39924" lon="1.24189">
        <ele>182</ele>
        <time>2016-05-01T09:07:40.000Z</time>
      </trkpt>
      <trkpt lat="49.3994" lon="1.24188">
        <ele>181</ele>
        <time>2016-05-01T09:07:42.000Z</time>
      </trkpt>
      <trkpt lat="49.39954" lon="1.24192">
        <ele>182</ele>
        <time>2016-05-01T09:07:44.000Z</time>
      </trkpt>
      <trkpt lat="49.39967" lon="1.24204">
        <ele>179</ele>
        <time>2016-05-01T09:07:46.000Z</time>
      </trkpt>
      <trkpt lat="49.39977" lon="1.24223">
        <ele>176</ele>
        <time>2016-05-01T09:07:48.000Z</time>
      </trkpt>
      <trkpt lat="49.39986" lon="1.24242">
        <ele>176</ele>
        <time>2016-05-01T09:07:50.000Z</time>
      </trkpt>
      <trkpt lat="49.39994" lon="1.2426">
        <ele>173</ele>
        <time>2016-05-01T09:07:52.000Z</time>
      </trkpt>
      <trkpt lat="49.4" lon="1.24275">
        <ele>170</ele>
        <time>2016-05-01T09:07:54.000Z</time>
      </trkpt>
      <trkpt lat="49.40003" lon="1.24289">
        <ele>169</ele>
        <time>2016-05-01T09:07:56.000Z</time>
      </trkpt>
      <trkpt lat="49.40007" lon="1.24303">
        <ele>169</ele>
        <time>2016-05-01T09:07:58.000Z</time>
      </trkpt>
      <trkpt lat="49.4001" lon="1.24315">
        <ele>171</ele>
        <time>2016-05-01T09:08:00.000Z</time>
      </trkpt>
      <trkpt lat="49.40011" lon="1.2433">
        <ele>171</ele>
        <time>2016-05-01T09:08:02.000Z</time>
      </trkpt>
      <trkpt lat="49.40007" lon="1.24344">
        <ele>171</ele>
        <time>2016-05-01T09:08:04.000Z</time>
      </trkpt>
      <trkpt lat="49.39998" lon="1.24357">
        <ele>171</ele>
        <time>2016-05-01T09:08:06.000Z</time>
      </trkpt>
      <trkpt lat="49.39993" lon="1.24368">
        <ele>171</ele>
        <time>2016-05-01T09:08:08.000Z</time>
      </trkpt>
      <trkpt lat="49.39988" lon="1.24379">
        <ele>172</ele>
        <time>2016-05-01T09:08:10.000Z</time>
      </trkpt>
      <trkpt lat="49.39986" lon="1.24391">
        <ele>171</ele>
        <time>2016-05-01T09:08:12.000Z</time>
      </trkpt>
      <trkpt lat="49.39985" lon="1.24405">
        <ele>171</ele>
        <time>2016-05-01T09:08:14.000Z</time>
      </trkpt>
      <trkpt lat="49.39985" lon="1.24415">
        <ele>171</ele>
        <time>2016-05-01T09:08:16.000Z</time>
      </trkpt>
      <trkpt lat="49.39982" lon="1.24423">
        <ele>171</ele>
        <time>2016-05-01T09:08:18.000Z</time>
      </trkpt>
      <trkpt lat="49.39979" lon="1.24434">
        <ele>173</ele>
        <time>2016-05-01T09:08:20.000Z</time>
      </trkpt>
      <trkpt lat="49.39977" lon="1.24442">
        <ele>175</ele>
        <time>2016-05-01T09:08:22.000Z</time>
      </trkpt>
      <trkpt lat="49.39973" lon="1.24451">
        <ele>176</ele>
        <time>2016-05-01T09:08:24.000Z</time>
      </trkpt>
      <trkpt lat="49.39969" lon="1.2446">
        <ele>177</ele>
        <time>2016-05-01T09:08:26.000Z</time>
      </trkpt>
      <trkpt lat="49.39969" lon="1.2446">
        <ele>177</ele>
        <time>2016-05-01T09:08:28.000Z</time>
      </trkpt>
      <trkpt lat="49.39966" lon="1.24475">
        <ele>179</ele>
        <time>2016-05-01T09:08:30.000Z</time>
      </trkpt>
      <trkpt lat="49.39966" lon="1.24475">
        <ele>179</ele>
        <time>2016-05-01T09:08:32.000Z</time>
      </trkpt>
      <trkpt lat="49.39962" lon="1.24487">
        <ele>182</ele>
        <time>2016-05-01T09:08:34.000Z</time>
      </trkpt>
      <trkpt lat="49.39962" lon="1.24487">
        <ele>182</ele>
        <time>2016-05-01T09:08:36.000Z</time>
      </trkpt>
      <trkpt lat="49.39956" lon="1.24499">
        <ele>181</ele>
        <time>2016-05-01T09:08:38.000Z</time>
      </trkpt>
      <trkpt lat="49.39956" lon="1.24499">
        <ele>181</ele>
        <time>2016-05-01T09:08:40.000Z</time>
      </trkpt>
      <trkpt lat="49.3995" lon="1.24506">
        <ele>180</ele>
        <time>2016-05-01T09:08:42.000Z</time>
      </trkpt>
      <trkpt lat="49.3995" lon="1.24506">
        <ele>180</ele>
        <time>2016-05-01T09:08:45.000Z</time>
      </trkpt>
      <trkpt lat="49.39942" lon="1.24515">
        <ele>182</ele>
        <time>2016-05-01T09:08:47.000Z</time>
      </trkpt>
      <trkpt lat="49.39942" lon="1.24515">
        <ele>182</ele>
        <time>2016-05-01T09:08:49.000Z</time>
      </trkpt>
      <trkpt lat="49.39936" lon="1.24525">
        <ele>182</ele>
        <time>2016-05-01T09:08:51.000Z</time>
      </trkpt>
      <trkpt lat="49.39934" lon="1.24536">
        <ele>182</ele>
        <time>2016-05-01T09:08:55.000Z</time>
      </trkpt>
      <trkpt lat="49.39934" lon="1.24536">
        <ele>182</ele>
        <time>2016-05-01T09:08:57.000Z</time>
      </trkpt>
      <trkpt lat="49.39931" lon="1.2455">
        <ele>182</ele>
        <time>2016-05-01T09:08:59.000Z</time>
      </trkpt>
      <trkpt lat="49.39927" lon="1.24561">
        <ele>180</ele>
        <time>2016-05-01T09:09:03.000Z</time>
      </trkpt>
      <trkpt lat="49.39927" lon="1.24561">
        <ele>180</ele>
        <time>2016-05-01T09:09:05.000Z</time>
      </trkpt>
      <trkpt lat="49.39925" lon="1.2457">
        <ele>180</ele>
        <time>2016-05-01T09:09:07.000Z</time>
      </trkpt>
      <trkpt lat="49.39925" lon="1.2457">
        <ele>180</ele>
        <time>2016-05-01T09:09:09.000Z</time>
      </trkpt>
      <trkpt lat="49.39925" lon="1.2457">
        <ele>180</ele>
        <time>2016-05-01T09:09:11.000Z</time>
      </trkpt>
      <trkpt lat="49.39919" lon="1.24583">
        <ele>182</ele>
        <time>2016-05-01T09:09:24.000Z</time>
      </trkpt>
      <trkpt lat="49.39917" lon="1.24592">
        <ele>183</ele>
        <time>2016-05-01T09:09:28.000Z</time>
      </trkpt>
      <trkpt lat="49.39911" lon="1.24602">
        <ele>187</ele>
        <time>2016-05-01T09:09:32.000Z</time>
      </trkpt>
      <trkpt lat="49.39906" lon="1.24614">
        <ele>183</ele>
        <time>2016-05-01T09:09:36.000Z</time>
      </trkpt>
      <trkpt lat="49.39902" lon="1.24628">
        <ele>183</ele>
        <time>2016-05-01T09:09:40.000Z</time>
      </trkpt>
      <trkpt lat="49.39899" lon="1.24635">
        <ele>180</ele>
        <time>2016-05-01T09:09:42.000Z</time>
      </trkpt>
      <trkpt lat="49.39893" lon="1.24643">
        <ele>176</ele>
        <time>2016-05-01T09:09:44.000Z</time>
      </trkpt>
      <trkpt lat="49.39888" lon="1.2465">
        <ele>176</ele>
        <time>2016-05-01T09:09:46.000Z</time>
      </trkpt>
      <trkpt lat="49.39883" lon="1.24657">
        <ele>174</ele>
        <time>2016-05-01T09:09:48.000Z</time>
      </trkpt>
      <trkpt lat="49.39878" lon="1.24666">
        <ele>174</ele>
        <time>2016-05-01T09:09:50.000Z</time>
      </trkpt>
      <trkpt lat="49.39874" lon="1.24675">
        <ele>174</ele>
        <time>2016-05-01T09:09:52.000Z</time>
      </trkpt>
      <trkpt lat="49.3987" lon="1.24682">
        <ele>175</ele>
        <time>2016-05-01T09:09:54.000Z</time>
      </trkpt>
      <trkpt lat="49.3987" lon="1.24682">
        <ele>175</ele>
        <time>2016-05-01T09:09:56.000Z</time>
      </trkpt>
      <trkpt lat="49.39862" lon="1.24691">
        <ele>175</ele>
        <time>2016-05-01T09:09:58.000Z</time>
      </trkpt>
      <trkpt lat="49.39858" lon="1.24697">
        <ele>176</ele>
        <time>2016-05-01T09:10:00.000Z</time>
      </trkpt>
      <trkpt lat="49.39854" lon="1.24704">
        <ele>176</ele>
        <time>2016-05-01T09:10:02.000Z</time>
      </trkpt>
      <trkpt lat="49.3985" lon="1.24714">
        <ele>176</ele>
        <time>2016-05-01T09:10:04.000Z</time>
      </trkpt>
      <trkpt lat="49.39847" lon="1.24725">
        <ele>177</ele>
        <time>2016-05-01T09:10:06.000Z</time>
      </trkpt>
      <trkpt lat="49.39845" lon="1.24736">
        <ele>176</ele>
        <time>2016-05-01T09:10:08.000Z</time>
      </trkpt>
      <trkpt lat="49.39842" lon="1.24745">
        <ele>175</ele>
        <time>2016-05-01T09:10:10.000Z</time>
      </trkpt>
      <trkpt lat="49.39839" lon="1.24752">
        <ele>175</ele>
        <time>2016-05-01T09:10:12.000Z</time>
      </trkpt>
      <trkpt lat="49.39835" lon="1.24761">
        <ele>175</ele>
        <time>2016-05-01T09:10:14.000Z</time>
      </trkpt>
      <trkpt lat="49.39831" lon="1.2477">
        <ele>175</ele>
        <time>2016-05-01T09:10:16.000Z</time>
      </trkpt>
      <trkpt lat="49.39828" lon="1.24779">
        <ele>176</ele>
        <time>2016-05-01T09:10:18.000Z</time>
      </trkpt>
      <trkpt lat="49.39825" lon="1.24788">
        <ele>178</ele>
        <time>2016-05-01T09:10:20.000Z</time>
      </trkpt>
      <trkpt lat="49.39822" lon="1.24797">
        <ele>178</ele>
        <time>2016-05-01T09:10:22.000Z</time>
      </trkpt>
      <trkpt lat="49.39819" lon="1.24807">
        <ele>178</ele>
        <time>2016-05-01T09:10:24.000Z</time>
      </trkpt>
      <trkpt lat="49.39817" lon="1.24817">
        <ele>177</ele>
        <time>2016-05-01T09:10:26.000Z</time>
      </trkpt>
      <trkpt lat="49.39815" lon="1.24826">
        <ele>178</ele>
        <time>2016-05-01T09:10:28.000Z</time>
      </trkpt>
      <trkpt lat="49.39813" lon="1.24835">
        <ele>179</ele>
        <time>2016-05-01T09:10:30.000Z</time>
      </trkpt>
      <trkpt lat="49.39811" lon="1.24844">
        <ele>179</ele>
        <time>2016-05-01T09:10:32.000Z</time>
      </trkpt>
      <trkpt lat="49.39809" lon="1.24853">
        <ele>181</ele>
        <time>2016-05-01T09:10:34.000Z</time>
      </trkpt>
      <trkpt lat="49.39807" lon="1.24863">
        <ele>182</ele>
        <time>2016-05-01T09:10:36.000Z</time>
      </trkpt>
      <trkpt lat="49.39806" lon="1.24872">
        <ele>183</ele>
        <time>2016-05-01T09:10:38.000Z</time>
      </trkpt>
      <trkpt lat="49.39805" lon="1.24882">
        <ele>184</ele>
        <time>2016-05-01T09:10:40.000Z</time>
      </trkpt>
      <trkpt lat="49.39804" lon="1.24892">
        <ele>185</ele>
        <time>2016-05-01T09:10:42.000Z</time>
      </trkpt>
      <trkpt lat="49.39802" lon="1.24906">
        <ele>186</ele>
        <time>2016-05-01T09:10:45.000Z</time>
      </trkpt>
      <trkpt lat="49.398" lon="1.24916">
        <ele>186</ele>
        <time>2016-05-01T09:10:47.000Z</time>
      </trkpt>
      <trkpt lat="49.39796" lon="1.24927">
        <ele>185</ele>
        <time>2016-05-01T09:10:49.000Z</time>
      </trkpt>
      <trkpt lat="49.39793" lon="1.24938">
        <ele>185</ele>
        <time>2016-05-01T09:10:51.000Z</time>
      </trkpt>
      <trkpt lat="49.3979" lon="1.24949">
        <ele>185</ele>
        <time>2016-05-01T09:10:53.000Z</time>
      </trkpt>
      <trkpt lat="49.39788" lon="1.24959">
        <ele>182</ele>
        <time>2016-05-01T09:10:55.000Z</time>
      </trkpt>
      <trkpt lat="49.39785" lon="1.24971">
        <ele>181</ele>
        <time>2016-05-01T09:10:57.000Z</time>
      </trkpt>
      <trkpt lat="49.39783" lon="1.24983">
        <ele>180</ele>
        <time>2016-05-01T09:10:59.000Z</time>
      </trkpt>
      <trkpt lat="49.39781" lon="1.24995">
        <ele>180</ele>
        <time>2016-05-01T09:11:01.000Z</time>
      </trkpt>
      <trkpt lat="49.39779" lon="1.25006">
        <ele>181</ele>
        <time>2016-05-01T09:11:03.000Z</time>
      </trkpt>
      <trkpt lat="49.39777" lon="1.25016">
        <ele>181</ele>
        <time>2016-05-01T09:11:05.000Z</time>
      </trkpt>
      <trkpt lat="49.39775" lon="1.25028">
        <ele>180</ele>
        <time>2016-05-01T09:11:07.000Z</time>
      </trkpt>
      <trkpt lat="49.39774" lon="1.25039">
        <ele>179</ele>
        <time>2016-05-01T09:11:09.000Z</time>
      </trkpt>
      <trkpt lat="49.39772" lon="1.2505">
        <ele>178</ele>
        <time>2016-05-01T09:11:11.000Z</time>
      </trkpt>
      <trkpt lat="49.39771" lon="1.25062">
        <ele>178</ele>
        <time>2016-05-01T09:11:13.000Z</time>
      </trkpt>
      <trkpt lat="49.39769" lon="1.25072">
        <ele>179</ele>
        <time>2016-05-01T09:11:15.000Z</time>
      </trkpt>
      <trkpt lat="49.39766" lon="1.25082">
        <ele>179</ele>
        <time>2016-05-01T09:11:17.000Z</time>
      </trkpt>
      <trkpt lat="49.39764" lon="1.25093">
        <ele>179</ele>
        <time>2016-05-01T09:11:19.000Z</time>
      </trkpt>
      <trkpt lat="49.39762" lon="1.25103">
        <ele>180</ele>
        <time>2016-05-01T09:11:21.000Z</time>
      </trkpt>
      <trkpt lat="49.39761" lon="1.25113">
        <ele>178</ele>
        <time>2016-05-01T09:11:23.000Z</time>
      </trkpt>
      <trkpt lat="49.39759" lon="1.25123">
        <ele>178</ele>
        <time>2016-05-01T09:11:25.000Z</time>
      </trkpt>
      <trkpt lat="49.39758" lon="1.25134">
        <ele>179</ele>
        <time>2016-05-01T09:11:27.000Z</time>
      </trkpt>
      <trkpt lat="49.39758" lon="1.25144">
        <ele>179</ele>
        <time>2016-05-01T09:11:29.000Z</time>
      </trkpt>
      <trkpt lat="49.39756" lon="1.25153">
        <ele>178</ele>
        <time>2016-05-01T09:11:31.000Z</time>
      </trkpt>
      <trkpt lat="49.39754" lon="1.25163">
        <ele>178</ele>
        <time>2016-05-01T09:11:33.000Z</time>
      </trkpt>
      <trkpt lat="49.39753" lon="1.25173">
        <ele>179</ele>
        <time>2016-05-01T09:11:35.000Z</time>
      </trkpt>
      <trkpt lat="49.39751" lon="1.25183">
        <ele>179</ele>
        <time>2016-05-01T09:11:37.000Z</time>
      </trkpt>
      <trkpt lat="49.3975" lon="1.25193">
        <ele>179</ele>
        <time>2016-05-01T09:11:39.000Z</time>
      </trkpt>
      <trkpt lat="49.39748" lon="1.25204">
        <ele>179</ele>
        <time>2016-05-01T09:11:41.000Z</time>
      </trkpt>
      <trkpt lat="49.39746" lon="1.25214">
        <ele>180</ele>
        <time>2016-05-01T09:11:43.000Z</time>
      </trkpt>
      <trkpt lat="49.39745" lon="1.25224">
        <ele>180</ele>
        <time>2016-05-01T09:11:45.000Z</time>
      </trkpt>
      <trkpt lat="49.39743" lon="1.25235">
        <ele>181</ele>
        <time>2016-05-01T09:11:47.000Z</time>
      </trkpt>
      <trkpt lat="49.39742" lon="1.25245">
        <ele>180</ele>
        <time>2016-05-01T09:11:49.000Z</time>
      </trkpt>
      <trkpt lat="49.39739" lon="1.25255">
        <ele>181</ele>
        <time>2016-05-01T09:11:51.000Z</time>
      </trkpt>
      <trkpt lat="49.39737" lon="1.25265">
        <ele>182</ele>
        <time>2016-05-01T09:11:53.000Z</time>
      </trkpt>
      <trkpt lat="49.39736" lon="1.25275">
        <ele>182</ele>
        <time>2016-05-01T09:11:55.000Z</time>
      </trkpt>
      <trkpt lat="49.39735" lon="1.25285">
        <ele>182</ele>
        <time>2016-05-01T09:11:57.000Z</time>
      </trkpt>
      <trkpt lat="49.39734" lon="1.25296">
        <ele>183</ele>
        <time>2016-05-01T09:11:59.000Z</time>
      </trkpt>
      <trkpt lat="49.39732" lon="1.25305">
        <ele>183</ele>
        <time>2016-05-01T09:12:01.000Z</time>
      </trkpt>
      <trkpt lat="49.3973" lon="1.25315">
        <ele>183</ele>
        <time>2016-05-01T09:12:03.000Z</time>
      </trkpt>
      <trkpt lat="49.39729" lon="1.25324">
        <ele>183</ele>
        <time>2016-05-01T09:12:05.000Z</time>
      </trkpt>
      <trkpt lat="49.39727" lon="1.25332">
        <ele>184</ele>
        <time>2016-05-01T09:12:07.000Z</time>
      </trkpt>
      <trkpt lat="49.39725" lon="1.25342">
        <ele>184</ele>
        <time>2016-05-01T09:12:09.000Z</time>
      </trkpt>
      <trkpt lat="49.39724" lon="1.25351">
        <ele>185</ele>
        <time>2016-05-01T09:12:11.000Z</time>
      </trkpt>
      <trkpt lat="49.39722" lon="1.2536">
        <ele>185</ele>
        <time>2016-05-01T09:12:13.000Z</time>
      </trkpt>
      <trkpt lat="49.39721" lon="1.25369">
        <ele>186</ele>
        <time>2016-05-01T09:12:15.000Z</time>
      </trkpt>
      <trkpt lat="49.39719" lon="1.25379">
        <ele>186</ele>
        <time>2016-05-01T09:12:17.000Z</time>
      </trkpt>
      <trkpt lat="49.39718" lon="1.25388">
        <ele>187</ele>
        <time>2016-05-01T09:12:19.000Z</time>
      </trkpt>
      <trkpt lat="49.39716" lon="1.25397">
        <ele>187</ele>
        <time>2016-05-01T09:12:21.000Z</time>
      </trkpt>
      <trkpt lat="49.39714" lon="1.25407">
        <ele>187</ele>
        <time>2016-05-01T09:12:23.000Z</time>
      </trkpt>
      <trkpt lat="49.39712" lon="1.25416">
        <ele>188</ele>
        <time>2016-05-01T09:12:25.000Z</time>
      </trkpt>
      <trkpt lat="49.3971" lon="1.25425">
        <ele>188</ele>
        <time>2016-05-01T09:12:27.000Z</time>
      </trkpt>
      <trkpt lat="49.39708" lon="1.25435">
        <ele>188</ele>
        <time>2016-05-01T09:12:29.000Z</time>
      </trkpt>
      <trkpt lat="49.39706" lon="1.25444">
        <ele>189</ele>
        <time>2016-05-01T09:12:31.000Z</time>
      </trkpt>
      <trkpt lat="49.39705" lon="1.25453">
        <ele>189</ele>
        <time>2016-05-01T09:12:33.000Z</time>
      </trkpt>
      <trkpt lat="49.39703" lon="1.25462">
        <ele>189</ele>
        <time>2016-05-01T09:12:35.000Z</time>
      </trkpt>
      <trkpt lat="49.39702" lon="1.25472">
        <ele>190</ele>
        <time>2016-05-01T09:12:37.000Z</time>
      </trkpt>
      <trkpt lat="49.397" lon="1.25481">
        <ele>190</ele>
        <time>2016-05-01T09:12:39.000Z</time>
      </trkpt>
      <trkpt lat="49.39698" lon="1.2549">
        <ele>190</ele>
        <time>2016-05-01T09:12:41.000Z</time>
      </trkpt>
      <trkpt lat="49.39697" lon="1.255">
        <ele>190</ele>
        <time>2016-05-01T09:12:43.000Z</time>
      </trkpt>
      <trkpt lat="49.39695" lon="1.2551">
        <ele>190</ele>
        <time>2016-05-01T09:12:45.000Z</time>
      </trkpt>
      <trkpt lat="49.39693" lon="1.2552">
        <ele>190</ele>
        <time>2016-05-01T09:12:47.000Z</time>
      </trkpt>
      <trkpt lat="49.39692" lon="1.2553">
        <ele>191</ele>
        <time>2016-05-01T09:12:49.000Z</time>
      </trkpt>
      <trkpt lat="49.39691" lon="1.25538">
        <ele>190</ele>
        <time>2016-05-01T09:12:51.000Z</time>
      </trkpt>
      <trkpt lat="49.3969" lon="1.25548">
        <ele>190</ele>
        <time>2016-05-01T09:12:53.000Z</time>
      </trkpt>
      <trkpt lat="49.39689" lon="1.25558">
        <ele>191</ele>
        <time>2016-05-01T09:12:55.000Z</time>
      </trkpt>
      <trkpt lat="49.39688" lon="1.25567">
        <ele>191</ele>
        <time>2016-05-01T09:12:57.000Z</time>
      </trkpt>
      <trkpt lat="49.39688" lon="1.25578">
        <ele>191</ele>
        <time>2016-05-01T09:12:59.000Z</time>
      </trkpt>
      <trkpt lat="49.39688" lon="1.25588">
        <ele>191</ele>
        <time>2016-05-01T09:13:01.000Z</time>
      </trkpt>
      <trkpt lat="49.39688" lon="1.25598">
        <ele>191</ele>
        <time>2016-05-01T09:13:03.000Z</time>
      </trkpt>
      <trkpt lat="49.39688" lon="1.25608">
        <ele>191</ele>
        <time>2016-05-01T09:13:05.000Z</time>
      </trkpt>
      <trkpt lat="49.39688" lon="1.25617">
        <ele>191</ele>
        <time>2016-05-01T09:13:07.000Z</time>
      </trkpt>
      <trkpt lat="49.39687" lon="1.25628">
        <ele>192</ele>
        <time>2016-05-01T09:13:09.000Z</time>
      </trkpt>
      <trkpt lat="49.39687" lon="1.25638">
        <ele>191</ele>
        <time>2016-05-01T09:13:11.000Z</time>
      </trkpt>
      <trkpt lat="49.39688" lon="1.25648">
        <ele>191</ele>
        <time>2016-05-01T09:13:13.000Z</time>
      </trkpt>
      <trkpt lat="49.3969" lon="1.25658">
        <ele>191</ele>
        <time>2016-05-01T09:13:15.000Z</time>
      </trkpt>
      <trkpt lat="49.39692" lon="1.25667">
        <ele>191</ele>
        <time>2016-05-01T09:13:17.000Z</time>
      </trkpt>
      <trkpt lat="49.39694" lon="1.25676">
        <ele>192</ele>
        <time>2016-05-01T09:13:19.000Z</time>
      </trkpt>
      <trkpt lat="49.39697" lon="1.25684">
        <ele>192</ele>
        <time>2016-05-01T09:13:21.000Z</time>
      </trkpt>
      <trkpt lat="49.397" lon="1.25692">
        <ele>192</ele>
        <time>2016-05-01T09:13:23.000Z</time>
      </trkpt>
      <trkpt lat="49.39704" lon="1.25701">
        <ele>191</ele>
        <time>2016-05-01T09:13:25.000Z</time>
      </trkpt>
      <trkpt lat="49.39706" lon="1.2571">
        <ele>192</ele>
        <time>2016-05-01T09:13:27.000Z</time>
      </trkpt>
      <trkpt lat="49.39705" lon="1.25719">
        <ele>192</ele>
        <time>2016-05-01T09:13:29.000Z</time>
      </trkpt>
      <trkpt lat="49.39701" lon="1.25727">
        <ele>192</ele>
        <time>2016-05-01T09:13:31.000Z</time>
      </trkpt>
      <trkpt lat="49.39696" lon="1.25736">
        <ele>192</ele>
        <time>2016-05-01T09:13:33.000Z</time>
      </trkpt>
      <trkpt lat="49.39692" lon="1.25746">
        <ele>192</ele>
        <time>2016-05-01T09:13:35.000Z</time>
      </trkpt>
      <trkpt lat="49.39687" lon="1.25756">
        <ele>192</ele>
        <time>2016-05-01T09:13:37.000Z</time>
      </trkpt>
      <trkpt lat="49.39683" lon="1.25765">
        <ele>192</ele>
        <time>2016-05-01T09:13:39.000Z</time>
      </trkpt>
      <trkpt lat="49.3968" lon="1.25774">
        <ele>192</ele>
        <time>2016-05-01T09:13:41.000Z</time>
      </trkpt>
      <trkpt lat="49.39677" lon="1.25784">
        <ele>192</ele>
        <time>2016-05-01T09:13:43.000Z</time>
      </trkpt>
      <trkpt lat="49.39675" lon="1.25796">
        <ele>192</ele>
        <time>2016-05-01T09:13:45.000Z</time>
      </trkpt>
      <trkpt lat="49.39673" lon="1.25808">
        <ele>192</ele>
        <time>2016-05-01T09:13:47.000Z</time>
      </trkpt>
      <trkpt lat="49.39672" lon="1.25819">
        <ele>192</ele>
        <time>2016-05-01T09:13:49.000Z</time>
      </trkpt>
      <trkpt lat="49.3967" lon="1.25829">
        <ele>193</ele>
        <time>2016-05-01T09:13:51.000Z</time>
      </trkpt>
      <trkpt lat="49.39668" lon="1.2584">
        <ele>193</ele>
        <time>2016-05-01T09:13:53.000Z</time>
      </trkpt>
      <trkpt lat="49.39666" lon="1.25851">
        <ele>193</ele>
        <time>2016-05-01T09:13:55.000Z</time>
      </trkpt>
      <trkpt lat="49.39665" lon="1.25861">
        <ele>193</ele>
        <time>2016-05-01T09:13:57.000Z</time>
      </trkpt>
      <trkpt lat="49.39663" lon="1.25872">
        <ele>193</ele>
        <time>2016-05-01T09:13:59.000Z</time>
      </trkpt>
      <trkpt lat="49.39661" lon="1.25883">
        <ele>193</ele>
        <time>2016-05-01T09:14:01.000Z</time>
      </trkpt>
      <trkpt lat="49.39659" lon="1.25895">
        <ele>193</ele>
        <time>2016-05-01T09:14:03.000Z</time>
      </trkpt>
      <trkpt lat="49.39657" lon="1.25907">
        <ele>193</ele>
        <time>2016-05-01T09:14:05.000Z</time>
      </trkpt>
      <trkpt lat="49.39656" lon="1.25918">
        <ele>194</ele>
        <time>2016-05-01T09:14:07.000Z</time>
      </trkpt>
      <trkpt lat="49.39654" lon="1.25928">
        <ele>194</ele>
        <time>2016-05-01T09:14:09.000Z</time>
      </trkpt>
      <trkpt lat="49.39651" lon="1.25939">
        <ele>193</ele>
        <time>2016-05-01T09:14:11.000Z</time>
      </trkpt>
      <trkpt lat="49.39648" lon="1.2595">
        <ele>194</ele>
        <time>2016-05-01T09:14:13.000Z</time>
      </trkpt>
      <trkpt lat="49.39647" lon="1.2596">
        <ele>194</ele>
        <time>2016-05-01T09:14:15.000Z</time>
      </trkpt>
      <trkpt lat="49.39645" lon="1.2597">
        <ele>194</ele>
        <time>2016-05-01T09:14:17.000Z</time>
      </trkpt>
      <trkpt lat="49.39641" lon="1.25981">
        <ele>193</ele>
        <time>2016-05-01T09:14:19.000Z</time>
      </trkpt>
      <trkpt lat="49.39637" lon="1.25993">
        <ele>193</ele>
        <time>2016-05-01T09:14:21.000Z</time>
      </trkpt>
      <trkpt lat="49.39632" lon="1.26007">
        <ele>193</ele>
        <time>2016-05-01T09:14:23.000Z</time>
      </trkpt>
      <trkpt lat="49.39627" lon="1.2602">
        <ele>193</ele>
        <time>2016-05-01T09:14:25.000Z</time>
      </trkpt>
      <trkpt lat="49.39623" lon="1.26034">
        <ele>193</ele>
        <time>2016-05-01T09:14:27.000Z</time>
      </trkpt>
      <trkpt lat="49.39619" lon="1.26048">
        <ele>193</ele>
        <time>2016-05-01T09:14:29.000Z</time>
      </trkpt>
      <trkpt lat="49.39616" lon="1.26061">
        <ele>193</ele>
        <time>2016-05-01T09:14:31.000Z</time>
      </trkpt>
      <trkpt lat="49.39612" lon="1.26073">
        <ele>194</ele>
        <time>2016-05-01T09:14:33.000Z</time>
      </trkpt>
      <trkpt lat="49.39608" lon="1.26086">
        <ele>194</ele>
        <time>2016-05-01T09:14:35.000Z</time>
      </trkpt>
      <trkpt lat="49.39605" lon="1.26099">
        <ele>194</ele>
        <time>2016-05-01T09:14:37.000Z</time>
      </trkpt>
      <trkpt lat="49.39601" lon="1.26111">
        <ele>194</ele>
        <time>2016-05-01T09:14:39.000Z</time>
      </trkpt>
      <trkpt lat="49.39598" lon="1.26124">
        <ele>194</ele>
        <time>2016-05-01T09:14:41.000Z</time>
      </trkpt>
      <trkpt lat="49.39595" lon="1.26136">
        <ele>195</ele>
        <time>2016-05-01T09:14:43.000Z</time>
      </trkpt>
      <trkpt lat="49.39591" lon="1.26148">
        <ele>195</ele>
        <time>2016-05-01T09:14:45.000Z</time>
      </trkpt>
      <trkpt lat="49.39588" lon="1.26161">
        <ele>195</ele>
        <time>2016-05-01T09:14:47.000Z</time>
      </trkpt>
      <trkpt lat="49.39584" lon="1.26173">
        <ele>195</ele>
        <time>2016-05-01T09:14:49.000Z</time>
      </trkpt>
      <trkpt lat="49.39581" lon="1.26186">
        <ele>195</ele>
        <time>2016-05-01T09:14:51.000Z</time>
      </trkpt>
      <trkpt lat="49.39577" lon="1.26199">
        <ele>195</ele>
        <time>2016-05-01T09:14:53.000Z</time>
      </trkpt>
      <trkpt lat="49.39574" lon="1.26212">
        <ele>195</ele>
        <time>2016-05-01T09:14:55.000Z</time>
      </trkpt>
      <trkpt lat="49.39571" lon="1.26225">
        <ele>195</ele>
        <time>2016-05-01T09:14:57.000Z</time>
      </trkpt>
      <trkpt lat="49.39568" lon="1.26238">
        <ele>195</ele>
        <time>2016-05-01T09:14:59.000Z</time>
      </trkpt>
      <trkpt lat="49.39565" lon="1.26252">
        <ele>195</ele>
        <time>2016-05-01T09:15:01.000Z</time>
      </trkpt>
      <trkpt lat="49.39561" lon="1.26265">
        <ele>196</ele>
        <time>2016-05-01T09:15:03.000Z</time>
      </trkpt>
      <trkpt lat="49.39557" lon="1.26279">
        <ele>196</ele>
        <time>2016-05-01T09:15:05.000Z</time>
      </trkpt>
      <trkpt lat="49.39554" lon="1.26292">
        <ele>196</ele>
        <time>2016-05-01T09:15:07.000Z</time>
      </trkpt>
      <trkpt lat="49.39551" lon="1.26305">
        <ele>196</ele>
        <time>2016-05-01T09:15:09.000Z</time>
      </trkpt>
      <trkpt lat="49.39547" lon="1.26318">
        <ele>196</ele>
        <time>2016-05-01T09:15:11.000Z</time>
      </trkpt>
      <trkpt lat="49.39544" lon="1.26331">
        <ele>196</ele>
        <time>2016-05-01T09:15:13.000Z</time>
      </trkpt>
      <trkpt lat="49.39541" lon="1.26344">
        <ele>197</ele>
        <time>2016-05-01T09:15:15.000Z</time>
      </trkpt>
      <trkpt lat="49.39538" lon="1.26356">
        <ele>196</ele>
        <time>2016-05-01T09:15:17.000Z</time>
      </trkpt>
      <trkpt lat="49.39535" lon="1.26369">
        <ele>196</ele>
        <time>2016-05-01T09:15:19.000Z</time>
      </trkpt>
      <trkpt lat="49.39532" lon="1.26382">
        <ele>196</ele>
        <time>2016-05-01T09:15:21.000Z</time>
      </trkpt>
      <trkpt lat="49.39528" lon="1.26395">
        <ele>196</ele>
        <time>2016-05-01T09:15:23.000Z</time>
      </trkpt>
      <trkpt lat="49.39524" lon="1.26408">
        <ele>196</ele>
        <time>2016-05-01T09:15:25.000Z</time>
      </trkpt>
      <trkpt lat="49.39521" lon="1.26421">
        <ele>196</ele>
        <time>2016-05-01T09:15:27.000Z</time>
      </trkpt>
      <trkpt lat="49.39518" lon="1.26434">
        <ele>196</ele>
        <time>2016-05-01T09:15:29.000Z</time>
      </trkpt>
      <trkpt lat="49.39515" lon="1.26448">
        <ele>196</ele>
        <time>2016-05-01T09:15:31.000Z</time>
      </trkpt>
      <trkpt lat="49.39512" lon="1.26461">
        <ele>196</ele>
        <time>2016-05-01T09:15:33.000Z</time>
      </trkpt>
      <trkpt lat="49.39509" lon="1.26473">
        <ele>196</ele>
        <time>2016-05-01T09:15:35.000Z</time>
      </trkpt>
      <trkpt lat="49.39506" lon="1.26486">
        <ele>197</ele>
        <time>2016-05-01T09:15:37.000Z</time>
      </trkpt>
      <trkpt lat="49.39503" lon="1.26499">
        <ele>197</ele>
        <time>2016-05-01T09:15:39.000Z</time>
      </trkpt>
      <trkpt lat="49.395" lon="1.26511">
        <ele>197</ele>
        <time>2016-05-01T09:15:41.000Z</time>
      </trkpt>
      <trkpt lat="49.39497" lon="1.26523">
        <ele>197</ele>
        <time>2016-05-01T09:15:43.000Z</time>
      </trkpt>
      <trkpt lat="49.39492" lon="1.26532">
        <ele>197</ele>
        <time>2016-05-01T09:15:45.000Z</time>
      </trkpt>
      <trkpt lat="49.39489" lon="1.26544">
        <ele>197</ele>
        <time>2016-05-01T09:15:47.000Z</time>
      </trkpt>
      <trkpt lat="49.39488" lon="1.26559">
        <ele>197</ele>
        <time>2016-05-01T09:15:49.000Z</time>
      </trkpt>
      <trkpt lat="49.3949" lon="1.26573">
        <ele>197</ele>
        <time>2016-05-01T09:15:51.000Z</time>
      </trkpt>
      <trkpt lat="49.39491" lon="1.26587">
        <ele>197</ele>
        <time>2016-05-01T09:15:53.000Z</time>
      </trkpt>
      <trkpt lat="49.39491" lon="1.26601">
        <ele>198</ele>
        <time>2016-05-01T09:15:55.000Z</time>
      </trkpt>
      <trkpt lat="49.39491" lon="1.26615">
        <ele>198</ele>
        <time>2016-05-01T09:15:57.000Z</time>
      </trkpt>
      <trkpt lat="49.39491" lon="1.26628">
        <ele>198</ele>
        <time>2016-05-01T09:15:59.000Z</time>
      </trkpt>
      <trkpt lat="49.39493" lon="1.26642">
        <ele>198</ele>
        <time>2016-05-01T09:16:01.000Z</time>
      </trkpt>
      <trkpt lat="49.39496" lon="1.26655">
        <ele>198</ele>
        <time>2016-05-01T09:16:03.000Z</time>
      </trkpt>
      <trkpt lat="49.39498" lon="1.26669">
        <ele>198</ele>
        <time>2016-05-01T09:16:05.000Z</time>
      </trkpt>
      <trkpt lat="49.39499" lon="1.26684">
        <ele>198</ele>
        <time>2016-05-01T09:16:07.000Z</time>
      </trkpt>
      <trkpt lat="49.39501" lon="1.26698">
        <ele>198</ele>
        <time>2016-05-01T09:16:09.000Z</time>
      </trkpt>
      <trkpt lat="49.39502" lon="1.26712">
        <ele>197</ele>
        <time>2016-05-01T09:16:11.000Z</time>
      </trkpt>
      <trkpt lat="49.39503" lon="1.26725">
        <ele>198</ele>
        <time>2016-05-01T09:16:13.000Z</time>
      </trkpt>
      <trkpt lat="49.39505" lon="1.26739">
        <ele>198</ele>
        <time>2016-05-01T09:16:15.000Z</time>
      </trkpt>
      <trkpt lat="49.39507" lon="1.26752">
        <ele>198</ele>
        <time>2016-05-01T09:16:17.000Z</time>
      </trkpt>
      <trkpt lat="49.39509" lon="1.26766">
        <ele>198</ele>
        <time>2016-05-01T09:16:19.000Z</time>
      </trkpt>
      <trkpt lat="49.39511" lon="1.2678">
        <ele>198</ele>
        <time>2016-05-01T09:16:21.000Z</time>
      </trkpt>
      <trkpt lat="49.39513" lon="1.26794">
        <ele>198</ele>
        <time>2016-05-01T09:16:23.000Z</time>
      </trkpt>
      <trkpt lat="49.39515" lon="1.26807">
        <ele>198</ele>
        <time>2016-05-01T09:16:25.000Z</time>
      </trkpt>
      <trkpt lat="49.39517" lon="1.26821">
        <ele>198</ele>
        <time>2016-05-01T09:16:27.000Z</time>
      </trkpt>
      <trkpt lat="49.3952" lon="1.26833">
        <ele>198</ele>
        <time>2016-05-01T09:16:29.000Z</time>
      </trkpt>
      <trkpt lat="49.39523" lon="1.26844">
        <ele>198</ele>
        <time>2016-05-01T09:16:31.000Z</time>
      </trkpt>
      <trkpt lat="49.39528" lon="1.26851">
        <ele>198</ele>
        <time>2016-05-01T09:16:33.000Z</time>
      </trkpt>
      <trkpt lat="49.39535" lon="1.26855">
        <ele>198</ele>
        <time>2016-05-01T09:16:35.000Z</time>
      </trkpt>
      <trkpt lat="49.39543" lon="1.26858">
        <ele>197</ele>
        <time>2016-05-01T09:16:37.000Z</time>
      </trkpt>
      <trkpt lat="49.3955" lon="1.2686">
        <ele>196</ele>
        <time>2016-05-01T09:16:39.000Z</time>
      </trkpt>
      <trkpt lat="49.39558" lon="1.26863">
        <ele>196</ele>
        <time>2016-05-01T09:16:41.000Z</time>
      </trkpt>
      <trkpt lat="49.39565" lon="1.26865">
        <ele>196</ele>
        <time>2016-05-01T09:16:43.000Z</time>
      </trkpt>
      <trkpt lat="49.39571" lon="1.26867">
        <ele>195</ele>
        <time>2016-05-01T09:16:45.000Z</time>
      </trkpt>
      <trkpt lat="49.39577" lon="1.2687">
        <ele>195</ele>
        <time>2016-05-01T09:16:47.000Z</time>
      </trkpt>
      <trkpt lat="49.39584" lon="1.26872">
        <ele>195</ele>
        <time>2016-05-01T09:16:49.000Z</time>
      </trkpt>
      <trkpt lat="49.39591" lon="1.26874">
        <ele>196</ele>
        <time>2016-05-01T09:16:51.000Z</time>
      </trkpt>
      <trkpt lat="49.39597" lon="1.26876">
        <ele>196</ele>
        <time>2016-05-01T09:16:53.000Z</time>
      </trkpt>
      <trkpt lat="49.39603" lon="1.26878">
        <ele>195</ele>
        <time>2016-05-01T09:16:55.000Z</time>
      </trkpt>
      <trkpt lat="49.3961" lon="1.2688">
        <ele>196</ele>
        <time>2016-05-01T09:16:57.000Z</time>
      </trkpt>
      <trkpt lat="49.39616" lon="1.26881">
        <ele>195</ele>
        <time>2016-05-01T09:16:59.000Z</time>
      </trkpt>
      <trkpt lat="49.39622" lon="1.26882">
        <ele>195</ele>
        <time>2016-05-01T09:17:01.000Z</time>
      </trkpt>
      <trkpt lat="49.39622" lon="1.26882">
        <ele>195</ele>
        <time>2016-05-01T09:17:03.000Z</time>
      </trkpt>
      <trkpt lat="49.39633" lon="1.26884">
        <ele>196</ele>
        <time>2016-05-01T09:17:05.000Z</time>
      </trkpt>
      <trkpt lat="49.39633" lon="1.26884">
        <ele>196</ele>
        <time>2016-05-01T09:17:07.000Z</time>
      </trkpt>
      <trkpt lat="49.39643" lon="1.26888">
        <ele>197</ele>
        <time>2016-05-01T09:17:09.000Z</time>
      </trkpt>
      <trkpt lat="49.39643" lon="1.26888">
        <ele>197</ele>
        <time>2016-05-01T09:17:11.000Z</time>
      </trkpt>
      <trkpt lat="49.39652" lon="1.26897">
        <ele>198</ele>
        <time>2016-05-01T09:17:13.000Z</time>
      </trkpt>
      <trkpt lat="49.39661" lon="1.26908">
        <ele>198</ele>
        <time>2016-05-01T09:17:17.000Z</time>
      </trkpt>
      <trkpt lat="49.39669" lon="1.26919">
        <ele>200</ele>
        <time>2016-05-01T09:17:21.000Z</time>
      </trkpt>
      <trkpt lat="49.39677" lon="1.26928">
        <ele>200</ele>
        <time>2016-05-01T09:17:25.000Z</time>
      </trkpt>
      <trkpt lat="49.39677" lon="1.26928">
        <ele>200</ele>
        <time>2016-05-01T09:17:27.000Z</time>
      </trkpt>
      <trkpt lat="49.39685" lon="1.26937">
        <ele>201</ele>
        <time>2016-05-01T09:17:29.000Z</time>
      </trkpt>
      <trkpt lat="49.39695" lon="1.26945">
        <ele>201</ele>
        <time>2016-05-01T09:17:33.000Z</time>
      </trkpt>
      <trkpt lat="49.39695" lon="1.26945">
        <ele>201</ele>
        <time>2016-05-01T09:17:35.000Z</time>
      </trkpt>
      <trkpt lat="49.39704" lon="1.26952">
        <ele>202</ele>
        <time>2016-05-01T09:17:37.000Z</time>
      </trkpt>
      <trkpt lat="49.39704" lon="1.26952">
        <ele>202</ele>
        <time>2016-05-01T09:17:39.000Z</time>
      </trkpt>
      <trkpt lat="49.39714" lon="1.26959">
        <ele>202</ele>
        <time>2016-05-01T09:17:41.000Z</time>
      </trkpt>
      <trkpt lat="49.39714" lon="1.26959">
        <ele>202</ele>
        <time>2016-05-01T09:17:43.000Z</time>
      </trkpt>
      <trkpt lat="49.39724" lon="1.26965">
        <ele>202</ele>
        <time>2016-05-01T09:17:45.000Z</time>
      </trkpt>
      <trkpt lat="49.39724" lon="1.26965">
        <ele>202</ele>
        <time>2016-05-01T09:17:47.000Z</time>
      </trkpt>
      <trkpt lat="49.39733" lon="1.2697">
        <ele>202</ele>
        <time>2016-05-01T09:17:49.000Z</time>
      </trkpt>
      <trkpt lat="49.39733" lon="1.2697">
        <ele>202</ele>
        <time>2016-05-01T09:17:51.000Z</time>
      </trkpt>
      <trkpt lat="49.39742" lon="1.26974">
        <ele>202</ele>
        <time>2016-05-01T09:17:53.000Z</time>
      </trkpt>
      <trkpt lat="49.39748" lon="1.26976">
        <ele>202</ele>
        <time>2016-05-01T09:17:55.000Z</time>
      </trkpt>
      <trkpt lat="49.39754" lon="1.26979">
        <ele>202</ele>
        <time>2016-05-01T09:17:57.000Z</time>
      </trkpt>
      <trkpt lat="49.3976" lon="1.26983">
        <ele>202</ele>
        <time>2016-05-01T09:17:59.000Z</time>
      </trkpt>
      <trkpt lat="49.39766" lon="1.26986">
        <ele>202</ele>
        <time>2016-05-01T09:18:01.000Z</time>
      </trkpt>
      <trkpt lat="49.39773" lon="1.26989">
        <ele>202</ele>
        <time>2016-05-01T09:18:03.000Z</time>
      </trkpt>
      <trkpt lat="49.3978" lon="1.26992">
        <ele>201</ele>
        <time>2016-05-01T09:18:05.000Z</time>
      </trkpt>
      <trkpt lat="49.39787" lon="1.26996">
        <ele>201</ele>
        <time>2016-05-01T09:18:07.000Z</time>
      </trkpt>
      <trkpt lat="49.39795" lon="1.27">
        <ele>201</ele>
        <time>2016-05-01T09:18:09.000Z</time>
      </trkpt>
      <trkpt lat="49.39803" lon="1.27004">
        <ele>201</ele>
        <time>2016-05-01T09:18:11.000Z</time>
      </trkpt>
      <trkpt lat="49.3981" lon="1.27008">
        <ele>200</ele>
        <time>2016-05-01T09:18:13.000Z</time>
      </trkpt>
      <trkpt lat="49.39817" lon="1.27011">
        <ele>200</ele>
        <time>2016-05-01T09:18:15.000Z</time>
      </trkpt>
      <trkpt lat="49.39825" lon="1.27015">
        <ele>199</ele>
        <time>2016-05-01T09:18:17.000Z</time>
      </trkpt>
      <trkpt lat="49.39833" lon="1.27019">
        <ele>199</ele>
        <time>2016-05-01T09:18:19.000Z</time>
      </trkpt>
      <trkpt lat="49.39841" lon="1.27023">
        <ele>199</ele>
        <time>2016-05-01T09:18:21.000Z</time>
      </trkpt>
      <trkpt lat="49.39849" lon="1.27027">
        <ele>199</ele>
        <time>2016-05-01T09:18:23.000Z</time>
      </trkpt>
      <trkpt lat="49.39857" lon="1.27031">
        <ele>199</ele>
        <time>2016-05-01T09:18:25.000Z</time>
      </trkpt>
      <trkpt lat="49.39865" lon="1.27034">
        <ele>199</ele>
        <time>2016-05-01T09:18:27.000Z</time>
      </trkpt>
      <trkpt lat="49.39873" lon="1.27038">
        <ele>198</ele>
        <time>2016-05-01T09:18:29.000Z</time>
      </trkpt>
      <trkpt lat="49.39882" lon="1.27042">
        <ele>198</ele>
        <time>2016-05-01T09:18:31.000Z</time>
      </trkpt>
      <trkpt lat="49.3989" lon="1.27047">
        <ele>197</ele>
        <time>2016-05-01T09:18:33.000Z</time>
      </trkpt>
      <trkpt lat="49.39899" lon="1.27051">
        <ele>197</ele>
        <time>2016-05-01T09:18:35.000Z</time>
      </trkpt>
      <trkpt lat="49.39907" lon="1.27055">
        <ele>197</ele>
        <time>2016-05-01T09:18:37.000Z</time>
      </trkpt>
      <trkpt lat="49.39915" lon="1.27058">
        <ele>196</ele>
        <time>2016-05-01T09:18:39.000Z</time>
      </trkpt>
      <trkpt lat="49.39924" lon="1.27061">
        <ele>197</ele>
        <time>2016-05-01T09:18:41.000Z</time>
      </trkpt>
      <trkpt lat="49.39931" lon="1.27065">
        <ele>198</ele>
        <time>2016-05-01T09:18:43.000Z</time>
      </trkpt>
      <trkpt lat="49.3994" lon="1.2707">
        <ele>198</ele>
        <time>2016-05-01T09:18:45.000Z</time>
      </trkpt>
      <trkpt lat="49.39948" lon="1.27075">
        <ele>199</ele>
        <time>2016-05-01T09:18:47.000Z</time>
      </trkpt>
      <trkpt lat="49.39959" lon="1.27082">
        <ele>199</ele>
        <time>2016-05-01T09:18:49.000Z</time>
      </trkpt>
      <trkpt lat="49.39968" lon="1.27089">
        <ele>199</ele>
        <time>2016-05-01T09:18:51.000Z</time>
      </trkpt>
      <trkpt lat="49.39977" lon="1.27095">
        <ele>199</ele>
        <time>2016-05-01T09:18:53.000Z</time>
      </trkpt>
      <trkpt lat="49.39986" lon="1.271">
        <ele>200</ele>
        <time>2016-05-01T09:18:55.000Z</time>
      </trkpt>
      <trkpt lat="49.39996" lon="1.27104">
        <ele>199</ele>
        <time>2016-05-01T09:18:57.000Z</time>
      </trkpt>
      <trkpt lat="49.40006" lon="1.27109">
        <ele>198</ele>
        <time>2016-05-01T09:18:59.000Z</time>
      </trkpt>
      <trkpt lat="49.40018" lon="1.27109">
        <ele>197</ele>
        <time>2016-05-01T09:19:01.000Z</time>
      </trkpt>
      <trkpt lat="49.40029" lon="1.2711">
        <ele>196</ele>
        <time>2016-05-01T09:19:03.000Z</time>
      </trkpt>
      <trkpt lat="49.40039" lon="1.2711">
        <ele>196</ele>
        <time>2016-05-01T09:19:05.000Z</time>
      </trkpt>
      <trkpt lat="49.40049" lon="1.27111">
        <ele>195</ele>
        <time>2016-05-01T09:19:07.000Z</time>
      </trkpt>
      <trkpt lat="49.40059" lon="1.27112">
        <ele>195</ele>
        <time>2016-05-01T09:19:09.000Z</time>
      </trkpt>
      <trkpt lat="49.40069" lon="1.27113">
        <ele>195</ele>
        <time>2016-05-01T09:19:11.000Z</time>
      </trkpt>
      <trkpt lat="49.40079" lon="1.27114">
        <ele>195</ele>
        <time>2016-05-01T09:19:13.000Z</time>
      </trkpt>
      <trkpt lat="49.40088" lon="1.27115">
        <ele>194</ele>
        <time>2016-05-01T09:19:15.000Z</time>
      </trkpt>
      <trkpt lat="49.40098" lon="1.27115">
        <ele>194</ele>
        <time>2016-05-01T09:19:17.000Z</time>
      </trkpt>
      <trkpt lat="49.40107" lon="1.27115">
        <ele>193</ele>
        <time>2016-05-01T09:19:19.000Z</time>
      </trkpt>
      <trkpt lat="49.40116" lon="1.27114">
        <ele>193</ele>
        <time>2016-05-01T09:19:21.000Z</time>
      </trkpt>
      <trkpt lat="49.40126" lon="1.27114">
        <ele>193</ele>
        <time>2016-05-01T09:19:23.000Z</time>
      </trkpt>
      <trkpt lat="49.40136" lon="1.27115">
        <ele>193</ele>
        <time>2016-05-01T09:19:25.000Z</time>
      </trkpt>
      <trkpt lat="49.40145" lon="1.27115">
        <ele>193</ele>
        <time>2016-05-01T09:19:27.000Z</time>
      </trkpt>
      <trkpt lat="49.40154" lon="1.27115">
        <ele>193</ele>
        <time>2016-05-01T09:19:29.000Z</time>
      </trkpt>
      <trkpt lat="49.40163" lon="1.27115">
        <ele>193</ele>
        <time>2016-05-01T09:19:31.000Z</time>
      </trkpt>
      <trkpt lat="49.40172" lon="1.27114">
        <ele>193</ele>
        <time>2016-05-01T09:19:33.000Z</time>
      </trkpt>
      <trkpt lat="49.4018" lon="1.27114">
        <ele>193</ele>
        <time>2016-05-01T09:19:35.000Z</time>
      </trkpt>
      <trkpt lat="49.40188" lon="1.27113">
        <ele>192</ele>
        <time>2016-05-01T09:19:37.000Z</time>
      </trkpt>
      <trkpt lat="49.40196" lon="1.27113">
        <ele>192</ele>
        <time>2016-05-01T09:19:39.000Z</time>
      </trkpt>
      <trkpt lat="49.40204" lon="1.27113">
        <ele>192</ele>
        <time>2016-05-01T09:19:41.000Z</time>
      </trkpt>
      <trkpt lat="49.40213" lon="1.27112">
        <ele>191</ele>
        <time>2016-05-01T09:19:43.000Z</time>
      </trkpt>
      <trkpt lat="49.40221" lon="1.27111">
        <ele>191</ele>
        <time>2016-05-01T09:19:45.000Z</time>
      </trkpt>
      <trkpt lat="49.40228" lon="1.27111">
        <ele>191</ele>
        <time>2016-05-01T09:19:47.000Z</time>
      </trkpt>
      <trkpt lat="49.40228" lon="1.27111">
        <ele>191</ele>
        <time>2016-05-01T09:19:49.000Z</time>
      </trkpt>
      <trkpt lat="49.40239" lon="1.27111">
        <ele>191</ele>
        <time>2016-05-01T09:19:51.000Z</time>
      </trkpt>
      <trkpt lat="49.40246" lon="1.2711">
        <ele>191</ele>
        <time>2016-05-01T09:19:53.000Z</time>
      </trkpt>
      <trkpt lat="49.40254" lon="1.2711">
        <ele>191</ele>
        <time>2016-05-01T09:19:55.000Z</time>
      </trkpt>
      <trkpt lat="49.40261" lon="1.27111">
        <ele>191</ele>
        <time>2016-05-01T09:19:57.000Z</time>
      </trkpt>
      <trkpt lat="49.40269" lon="1.27112">
        <ele>190</ele>
        <time>2016-05-01T09:19:59.000Z</time>
      </trkpt>
      <trkpt lat="49.40277" lon="1.27112">
        <ele>190</ele>
        <time>2016-05-01T09:20:01.000Z</time>
      </trkpt>
      <trkpt lat="49.40285" lon="1.27114">
        <ele>190</ele>
        <time>2016-05-01T09:20:03.000Z</time>
      </trkpt>
      <trkpt lat="49.40294" lon="1.27115">
        <ele>189</ele>
        <time>2016-05-01T09:20:05.000Z</time>
      </trkpt>
      <trkpt lat="49.40302" lon="1.27116">
        <ele>189</ele>
        <time>2016-05-01T09:20:07.000Z</time>
      </trkpt>
      <trkpt lat="49.40312" lon="1.27119">
        <ele>189</ele>
        <time>2016-05-01T09:20:09.000Z</time>
      </trkpt>
      <trkpt lat="49.40321" lon="1.27121">
        <ele>189</ele>
        <time>2016-05-01T09:20:11.000Z</time>
      </trkpt>
      <trkpt lat="49.4033" lon="1.27124">
        <ele>189</ele>
        <time>2016-05-01T09:20:13.000Z</time>
      </trkpt>
      <trkpt lat="49.40339" lon="1.27127">
        <ele>188</ele>
        <time>2016-05-01T09:20:15.000Z</time>
      </trkpt>
      <trkpt lat="49.40348" lon="1.2713">
        <ele>188</ele>
        <time>2016-05-01T09:20:17.000Z</time>
      </trkpt>
      <trkpt lat="49.40357" lon="1.27133">
        <ele>188</ele>
        <time>2016-05-01T09:20:19.000Z</time>
      </trkpt>
      <trkpt lat="49.40367" lon="1.27136">
        <ele>188</ele>
        <time>2016-05-01T09:20:21.000Z</time>
      </trkpt>
      <trkpt lat="49.40377" lon="1.2714">
        <ele>188</ele>
        <time>2016-05-01T09:20:23.000Z</time>
      </trkpt>
      <trkpt lat="49.40386" lon="1.27143">
        <ele>188</ele>
        <time>2016-05-01T09:20:25.000Z</time>
      </trkpt>
      <trkpt lat="49.40395" lon="1.27146">
        <ele>187</ele>
        <time>2016-05-01T09:20:27.000Z</time>
      </trkpt>
      <trkpt lat="49.40405" lon="1.2715">
        <ele>187</ele>
        <time>2016-05-01T09:20:29.000Z</time>
      </trkpt>
      <trkpt lat="49.40414" lon="1.27152">
        <ele>187</ele>
        <time>2016-05-01T09:20:31.000Z</time>
      </trkpt>
      <trkpt lat="49.4042" lon="1.27155">
        <ele>188</ele>
        <time>2016-05-01T09:20:33.000Z</time>
      </trkpt>
      <trkpt lat="49.40427" lon="1.27157">
        <ele>187</ele>
        <time>2016-05-01T09:20:35.000Z</time>
      </trkpt>
      <trkpt lat="49.40434" lon="1.2716">
        <ele>187</ele>
        <time>2016-05-01T09:20:37.000Z</time>
      </trkpt>
      <trkpt lat="49.4044" lon="1.27164">
        <ele>188</ele>
        <time>2016-05-01T09:20:39.000Z</time>
      </trkpt>
      <trkpt lat="49.40447" lon="1.27166">
        <ele>188</ele>
        <time>2016-05-01T09:20:41.000Z</time>
      </trkpt>
      <trkpt lat="49.40454" lon="1.27168">
        <ele>188</ele>
        <time>2016-05-01T09:20:43.000Z</time>
      </trkpt>
      <trkpt lat="49.40461" lon="1.27171">
        <ele>188</ele>
        <time>2016-05-01T09:20:45.000Z</time>
      </trkpt>
      <trkpt lat="49.40468" lon="1.27173">
        <ele>188</ele>
        <time>2016-05-01T09:20:47.000Z</time>
      </trkpt>
      <trkpt lat="49.40475" lon="1.27176">
        <ele>188</ele>
        <time>2016-05-01T09:20:49.000Z</time>
      </trkpt>
      <trkpt lat="49.40482" lon="1.2718">
        <ele>189</ele>
        <time>2016-05-01T09:20:51.000Z</time>
      </trkpt>
      <trkpt lat="49.40488" lon="1.27183">
        <ele>189</ele>
        <time>2016-05-01T09:20:53.000Z</time>
      </trkpt>
      <trkpt lat="49.40495" lon="1.27186">
        <ele>190</ele>
        <time>2016-05-01T09:20:55.000Z</time>
      </trkpt>
      <trkpt lat="49.40501" lon="1.27189">
        <ele>190</ele>
        <time>2016-05-01T09:20:57.000Z</time>
      </trkpt>
      <trkpt lat="49.40508" lon="1.27193">
        <ele>190</ele>
        <time>2016-05-01T09:20:59.000Z</time>
      </trkpt>
      <trkpt lat="49.40515" lon="1.27196">
        <ele>191</ele>
        <time>2016-05-01T09:21:01.000Z</time>
      </trkpt>
      <trkpt lat="49.40522" lon="1.27201">
        <ele>191</ele>
        <time>2016-05-01T09:21:03.000Z</time>
      </trkpt>
      <trkpt lat="49.40529" lon="1.27204">
        <ele>192</ele>
        <time>2016-05-01T09:21:05.000Z</time>
      </trkpt>
      <trkpt lat="49.40536" lon="1.27208">
        <ele>192</ele>
        <time>2016-05-01T09:21:07.000Z</time>
      </trkpt>
      <trkpt lat="49.40544" lon="1.27211">
        <ele>192</ele>
        <time>2016-05-01T09:21:09.000Z</time>
      </trkpt>
      <trkpt lat="49.40551" lon="1.27214">
        <ele>192</ele>
        <time>2016-05-01T09:21:11.000Z</time>
      </trkpt>
      <trkpt lat="49.40559" lon="1.27217">
        <ele>193</ele>
        <time>2016-05-01T09:21:13.000Z</time>
      </trkpt>
      <trkpt lat="49.40566" lon="1.27221">
        <ele>193</ele>
        <time>2016-05-01T09:21:15.000Z</time>
      </trkpt>
      <trkpt lat="49.40574" lon="1.27224">
        <ele>193</ele>
        <time>2016-05-01T09:21:17.000Z</time>
      </trkpt>
      <trkpt lat="49.40582" lon="1.27227">
        <ele>193</ele>
        <time>2016-05-01T09:21:19.000Z</time>
      </trkpt>
      <trkpt lat="49.4059" lon="1.27231">
        <ele>193</ele>
        <time>2016-05-01T09:21:21.000Z</time>
      </trkpt>
      <trkpt lat="49.40598" lon="1.27234">
        <ele>194</ele>
        <time>2016-05-01T09:21:23.000Z</time>
      </trkpt>
      <trkpt lat="49.40605" lon="1.27238">
        <ele>193</ele>
        <time>2016-05-01T09:21:25.000Z</time>
      </trkpt>
      <trkpt lat="49.40613" lon="1.27241">
        <ele>193</ele>
        <time>2016-05-01T09:21:27.000Z</time>
      </trkpt>
      <trkpt lat="49.40621" lon="1.27244">
        <ele>194</ele>
        <time>2016-05-01T09:21:29.000Z</time>
      </trkpt>
      <trkpt lat="49.40629" lon="1.27248">
        <ele>193</ele>
        <time>2016-05-01T09:21:31.000Z</time>
      </trkpt>
      <trkpt lat="49.40638" lon="1.27252">
        <ele>193</ele>
        <time>2016-05-01T09:21:33.000Z</time>
      </trkpt>
      <trkpt lat="49.40644" lon="1.27254">
        <ele>193</ele>
        <time>2016-05-01T09:21:35.000Z</time>
      </trkpt>
      <trkpt lat="49.40644" lon="1.27254">
        <ele>193</ele>
        <time>2016-05-01T09:21:37.000Z</time>
      </trkpt>
      <trkpt lat="49.40655" lon="1.27257">
        <ele>193</ele>
        <time>2016-05-01T09:21:39.000Z</time>
      </trkpt>
      <trkpt lat="49.40661" lon="1.27258">
        <ele>193</ele>
        <time>2016-05-01T09:21:41.000Z</time>
      </trkpt>
      <trkpt lat="49.40668" lon="1.27261">
        <ele>193</ele>
        <time>2016-05-01T09:21:43.000Z</time>
      </trkpt>
      <trkpt lat="49.40674" lon="1.27266">
        <ele>193</ele>
        <time>2016-05-01T09:21:45.000Z</time>
      </trkpt>
      <trkpt lat="49.4068" lon="1.2727">
        <ele>193</ele>
        <time>2016-05-01T09:21:47.000Z</time>
      </trkpt>
      <trkpt lat="49.40687" lon="1.27273">
        <ele>193</ele>
        <time>2016-05-01T09:21:49.000Z</time>
      </trkpt>
      <trkpt lat="49.40694" lon="1.27276">
        <ele>194</ele>
        <time>2016-05-01T09:21:51.000Z</time>
      </trkpt>
      <trkpt lat="49.40702" lon="1.27279">
        <ele>193</ele>
        <time>2016-05-01T09:21:53.000Z</time>
      </trkpt>
      <trkpt lat="49.4071" lon="1.27282">
        <ele>193</ele>
        <time>2016-05-01T09:21:55.000Z</time>
      </trkpt>
      <trkpt lat="49.40717" lon="1.27285">
        <ele>193</ele>
        <time>2016-05-01T09:21:57.000Z</time>
      </trkpt>
      <trkpt lat="49.40726" lon="1.27289">
        <ele>193</ele>
        <time>2016-05-01T09:21:59.000Z</time>
      </trkpt>
      <trkpt lat="49.40734" lon="1.27293">
        <ele>193</ele>
        <time>2016-05-01T09:22:01.000Z</time>
      </trkpt>
      <trkpt lat="49.40743" lon="1.27297">
        <ele>193</ele>
        <time>2016-05-01T09:22:03.000Z</time>
      </trkpt>
      <trkpt lat="49.40752" lon="1.27301">
        <ele>192</ele>
        <time>2016-05-01T09:22:05.000Z</time>
      </trkpt>
      <trkpt lat="49.40762" lon="1.27306">
        <ele>191</ele>
        <time>2016-05-01T09:22:07.000Z</time>
      </trkpt>
      <trkpt lat="49.40772" lon="1.2731">
        <ele>191</ele>
        <time>2016-05-01T09:22:09.000Z</time>
      </trkpt>
      <trkpt lat="49.40781" lon="1.27314">
        <ele>190</ele>
        <time>2016-05-01T09:22:11.000Z</time>
      </trkpt>
      <trkpt lat="49.40791" lon="1.2732">
        <ele>189</ele>
        <time>2016-05-01T09:22:13.000Z</time>
      </trkpt>
      <trkpt lat="49.40799" lon="1.27325">
        <ele>189</ele>
        <time>2016-05-01T09:22:15.000Z</time>
      </trkpt>
      <trkpt lat="49.40808" lon="1.27328">
        <ele>188</ele>
        <time>2016-05-01T09:22:17.000Z</time>
      </trkpt>
      <trkpt lat="49.40818" lon="1.27333">
        <ele>186</ele>
        <time>2016-05-01T09:22:19.000Z</time>
      </trkpt>
      <trkpt lat="49.40827" lon="1.27337">
        <ele>185</ele>
        <time>2016-05-01T09:22:21.000Z</time>
      </trkpt>
      <trkpt lat="49.40837" lon="1.27339">
        <ele>185</ele>
        <time>2016-05-01T09:22:23.000Z</time>
      </trkpt>
      <trkpt lat="49.40847" lon="1.27344">
        <ele>184</ele>
        <time>2016-05-01T09:22:25.000Z</time>
      </trkpt>
      <trkpt lat="49.40858" lon="1.2735">
        <ele>183</ele>
        <time>2016-05-01T09:22:27.000Z</time>
      </trkpt>
      <trkpt lat="49.4087" lon="1.27355">
        <ele>182</ele>
        <time>2016-05-01T09:22:29.000Z</time>
      </trkpt>
      <trkpt lat="49.40882" lon="1.27358">
        <ele>181</ele>
        <time>2016-05-01T09:22:31.000Z</time>
      </trkpt>
      <trkpt lat="49.40896" lon="1.27362">
        <ele>179</ele>
        <time>2016-05-01T09:22:33.000Z</time>
      </trkpt>
      <trkpt lat="49.40909" lon="1.27366">
        <ele>178</ele>
        <time>2016-05-01T09:22:35.000Z</time>
      </trkpt>
      <trkpt lat="49.40923" lon="1.27368">
        <ele>176</ele>
        <time>2016-05-01T09:22:37.000Z</time>
      </trkpt>
      <trkpt lat="49.40937" lon="1.27362">
        <ele>175</ele>
        <time>2016-05-01T09:22:39.000Z</time>
      </trkpt>
      <trkpt lat="49.40951" lon="1.27354">
        <ele>174</ele>
        <time>2016-05-01T09:22:41.000Z</time>
      </trkpt>
      <trkpt lat="49.40964" lon="1.27346">
        <ele>174</ele>
        <time>2016-05-01T09:22:43.000Z</time>
      </trkpt>
      <trkpt lat="49.40974" lon="1.27342">
        <ele>176</ele>
        <time>2016-05-01T09:22:46.000Z</time>
      </trkpt>
      <trkpt lat="49.40974" lon="1.27342">
        <ele>176</ele>
        <time>2016-05-01T09:22:48.000Z</time>
      </trkpt>
      <trkpt lat="49.40983" lon="1.27341">
        <ele>179</ele>
        <time>2016-05-01T09:22:50.000Z</time>
      </trkpt>
      <trkpt lat="49.40983" lon="1.27341">
        <ele>179</ele>
        <time>2016-05-01T09:22:52.000Z</time>
      </trkpt>
      <trkpt lat="49.40992" lon="1.27341">
        <ele>179</ele>
        <time>2016-05-01T09:22:54.000Z</time>
      </trkpt>
      <trkpt lat="49.40992" lon="1.27341">
        <ele>179</ele>
        <time>2016-05-01T09:22:56.000Z</time>
      </trkpt>
      <trkpt lat="49.41001" lon="1.27342">
        <ele>179</ele>
        <time>2016-05-01T09:22:58.000Z</time>
      </trkpt>
      <trkpt lat="49.41009" lon="1.27343">
        <ele>179</ele>
        <time>2016-05-01T09:23:02.000Z</time>
      </trkpt>
      <trkpt lat="49.41009" lon="1.27343">
        <ele>179</ele>
        <time>2016-05-01T09:23:04.000Z</time>
      </trkpt>
      <trkpt lat="49.41017" lon="1.27344">
        <ele>179</ele>
        <time>2016-05-01T09:23:06.000Z</time>
      </trkpt>
      <trkpt lat="49.41026" lon="1.27345">
        <ele>179</ele>
        <time>2016-05-01T09:23:10.000Z</time>
      </trkpt>
      <trkpt lat="49.41035" lon="1.27344">
        <ele>180</ele>
        <time>2016-05-01T09:23:14.000Z</time>
      </trkpt>
      <trkpt lat="49.41046" lon="1.27344">
        <ele>179</ele>
        <time>2016-05-01T09:23:18.000Z</time>
      </trkpt>
      <trkpt lat="49.41056" lon="1.27344">
        <ele>179</ele>
        <time>2016-05-01T09:23:22.000Z</time>
      </trkpt>
      <trkpt lat="49.41062" lon="1.27344">
        <ele>179</ele>
        <time>2016-05-01T09:23:24.000Z</time>
      </trkpt>
      <trkpt lat="49.41068" lon="1.27345">
        <ele>179</ele>
        <time>2016-05-01T09:23:26.000Z</time>
      </trkpt>
      <trkpt lat="49.41074" lon="1.27346">
        <ele>179</ele>
        <time>2016-05-01T09:23:28.000Z</time>
      </trkpt>
      <trkpt lat="49.4108" lon="1.27346">
        <ele>180</ele>
        <time>2016-05-01T09:23:30.000Z</time>
      </trkpt>
      <trkpt lat="49.41086" lon="1.27347">
        <ele>180</ele>
        <time>2016-05-01T09:23:32.000Z</time>
      </trkpt>
      <trkpt lat="49.41092" lon="1.27347">
        <ele>181</ele>
        <time>2016-05-01T09:23:34.000Z</time>
      </trkpt>
      <trkpt lat="49.41098" lon="1.27348">
        <ele>181</ele>
        <time>2016-05-01T09:23:36.000Z</time>
      </trkpt>
      <trkpt lat="49.41104" lon="1.27349">
        <ele>181</ele>
        <time>2016-05-01T09:23:38.000Z</time>
      </trkpt>
      <trkpt lat="49.4111" lon="1.2735">
        <ele>182</ele>
        <time>2016-05-01T09:23:40.000Z</time>
      </trkpt>
      <trkpt lat="49.41116" lon="1.27351">
        <ele>182</ele>
        <time>2016-05-01T09:23:42.000Z</time>
      </trkpt>
      <trkpt lat="49.41122" lon="1.27352">
        <ele>182</ele>
        <time>2016-05-01T09:23:44.000Z</time>
      </trkpt>
      <trkpt lat="49.41127" lon="1.27352">
        <ele>183</ele>
        <time>2016-05-01T09:23:46.000Z</time>
      </trkpt>
      <trkpt lat="49.41133" lon="1.27353">
        <ele>183</ele>
        <time>2016-05-01T09:23:48.000Z</time>
      </trkpt>
      <trkpt lat="49.4114" lon="1.27353">
        <ele>183</ele>
        <time>2016-05-01T09:23:50.000Z</time>
      </trkpt>
      <trkpt lat="49.41146" lon="1.27353">
        <ele>184</ele>
        <time>2016-05-01T09:23:52.000Z</time>
      </trkpt>
      <trkpt lat="49.41152" lon="1.27353">
        <ele>184</ele>
        <time>2016-05-01T09:23:54.000Z</time>
      </trkpt>
      <trkpt lat="49.41159" lon="1.27354">
        <ele>183</ele>
        <time>2016-05-01T09:23:56.000Z</time>
      </trkpt>
      <trkpt lat="49.41166" lon="1.27354">
        <ele>184</ele>
        <time>2016-05-01T09:23:58.000Z</time>
      </trkpt>
      <trkpt lat="49.41172" lon="1.27354">
        <ele>184</ele>
        <time>2016-05-01T09:24:00.000Z</time>
      </trkpt>
      <trkpt lat="49.41172" lon="1.27354">
        <ele>184</ele>
        <time>2016-05-01T09:24:02.000Z</time>
      </trkpt>
      <trkpt lat="49.41177" lon="1.27354">
        <ele>183</ele>
        <time>2016-05-01T09:24:04.000Z</time>
      </trkpt>
      <trkpt lat="49.41183" lon="1.27354">
        <ele>183</ele>
        <time>2016-05-01T09:24:06.000Z</time>
      </trkpt>
      <trkpt lat="49.41189" lon="1.27354">
        <ele>183</ele>
        <time>2016-05-01T09:24:08.000Z</time>
      </trkpt>
      <trkpt lat="49.41195" lon="1.27354">
        <ele>183</ele>
        <time>2016-05-01T09:24:10.000Z</time>
      </trkpt>
      <trkpt lat="49.41201" lon="1.27354">
        <ele>183</ele>
        <time>2016-05-01T09:24:12.000Z</time>
      </trkpt>
      <trkpt lat="49.41214" lon="1.27354">
        <ele>182</ele>
        <time>2016-05-01T09:24:14.000Z</time>
      </trkpt>
      <trkpt lat="49.4122" lon="1.27354">
        <ele>182</ele>
        <time>2016-05-01T09:24:16.000Z</time>
      </trkpt>
      <trkpt lat="49.41227" lon="1.27354">
        <ele>182</ele>
        <time>2016-05-01T09:24:18.000Z</time>
      </trkpt>
      <trkpt lat="49.41233" lon="1.27355">
        <ele>182</ele>
        <time>2016-05-01T09:24:20.000Z</time>
      </trkpt>
      <trkpt lat="49.4124" lon="1.27355">
        <ele>182</ele>
        <time>2016-05-01T09:24:22.000Z</time>
      </trkpt>
      <trkpt lat="49.41246" lon="1.27355">
        <ele>182</ele>
        <time>2016-05-01T09:24:24.000Z</time>
      </trkpt>
      <trkpt lat="49.41253" lon="1.27356">
        <ele>182</ele>
        <time>2016-05-01T09:24:26.000Z</time>
      </trkpt>
      <trkpt lat="49.41259" lon="1.27356">
        <ele>182</ele>
        <time>2016-05-01T09:24:28.000Z</time>
      </trkpt>
      <trkpt lat="49.41259" lon="1.27356">
        <ele>182</ele>
        <time>2016-05-01T09:24:30.000Z</time>
      </trkpt>
      <trkpt lat="49.41269" lon="1.27357">
        <ele>183</ele>
        <time>2016-05-01T09:24:32.000Z</time>
      </trkpt>
      <trkpt lat="49.41269" lon="1.27357">
        <ele>183</ele>
        <time>2016-05-01T09:24:34.000Z</time>
      </trkpt>
      <trkpt lat="49.41277" lon="1.27359">
        <ele>182</ele>
        <time>2016-05-01T09:24:36.000Z</time>
      </trkpt>
      <trkpt lat="49.41277" lon="1.27359">
        <ele>182</ele>
        <time>2016-05-01T09:24:38.000Z</time>
      </trkpt>
      <trkpt lat="49.41285" lon="1.27357">
        <ele>183</ele>
        <time>2016-05-01T09:24:40.000Z</time>
      </trkpt>
      <trkpt lat="49.41285" lon="1.27357">
        <ele>183</ele>
        <time>2016-05-01T09:24:42.000Z</time>
      </trkpt>
      <trkpt lat="49.41291" lon="1.27354">
        <ele>182</ele>
        <time>2016-05-01T09:24:44.000Z</time>
      </trkpt>
      <trkpt lat="49.41291" lon="1.27354">
        <ele>182</ele>
        <time>2016-05-01T09:24:46.000Z</time>
      </trkpt>
      <trkpt lat="49.41299" lon="1.27351">
        <ele>182</ele>
        <time>2016-05-01T09:24:48.000Z</time>
      </trkpt>
      <trkpt lat="49.41307" lon="1.27349">
        <ele>183</ele>
        <time>2016-05-01T09:24:52.000Z</time>
      </trkpt>
      <trkpt lat="49.41307" lon="1.27349">
        <ele>183</ele>
        <time>2016-05-01T09:24:54.000Z</time>
      </trkpt>
      <trkpt lat="49.41315" lon="1.2735">
        <ele>184</ele>
        <time>2016-05-01T09:24:56.000Z</time>
      </trkpt>
      <trkpt lat="49.41325" lon="1.27349">
        <ele>186</ele>
        <time>2016-05-01T09:25:00.000Z</time>
      </trkpt>
      <trkpt lat="49.41325" lon="1.27349">
        <ele>186</ele>
        <time>2016-05-01T09:25:02.000Z</time>
      </trkpt>
      <trkpt lat="49.41333" lon="1.2735">
        <ele>188</ele>
        <time>2016-05-01T09:25:04.000Z</time>
      </trkpt>
      <trkpt lat="49.41333" lon="1.2735">
        <ele>188</ele>
        <time>2016-05-01T09:25:06.000Z</time>
      </trkpt>
      <trkpt lat="49.41339" lon="1.2735">
        <ele>190</ele>
        <time>2016-05-01T09:25:08.000Z</time>
      </trkpt>
      <trkpt lat="49.41346" lon="1.27352">
        <ele>190</ele>
        <time>2016-05-01T09:25:12.000Z</time>
      </trkpt>
      <trkpt lat="49.41346" lon="1.27352">
        <ele>190</ele>
        <time>2016-05-01T09:25:14.000Z</time>
      </trkpt>
      <trkpt lat="49.41346" lon="1.27352">
        <ele>190</ele>
        <time>2016-05-01T09:25:16.000Z</time>
      </trkpt>
      <trkpt lat="49.41359" lon="1.27356">
        <ele>189</ele>
        <time>2016-05-01T09:25:27.000Z</time>
      </trkpt>
      <trkpt lat="49.41367" lon="1.27358">
        <ele>190</ele>
        <time>2016-05-01T09:25:31.000Z</time>
      </trkpt>
      <trkpt lat="49.41374" lon="1.27358">
        <ele>190</ele>
        <time>2016-05-01T09:25:35.000Z</time>
      </trkpt>
      <trkpt lat="49.41374" lon="1.27358">
        <ele>190</ele>
        <time>2016-05-01T09:25:37.000Z</time>
      </trkpt>
      <trkpt lat="49.41374" lon="1.27358">
        <ele>190</ele>
        <time>2016-05-01T09:25:39.000Z</time>
      </trkpt>
      <trkpt lat="49.41384" lon="1.27358">
        <ele>190</ele>
        <time>2016-05-01T09:25:43.000Z</time>
      </trkpt>
      <trkpt lat="49.41394" lon="1.27359">
        <ele>190</ele>
        <time>2016-05-01T09:25:47.000Z</time>
      </trkpt>
      <trkpt lat="49.41404" lon="1.27357">
        <ele>190</ele>
        <time>2016-05-01T09:25:51.000Z</time>
      </trkpt>
      <trkpt lat="49.41414" lon="1.27355">
        <ele>190</ele>
        <time>2016-05-01T09:25:55.000Z</time>
      </trkpt>
      <trkpt lat="49.41423" lon="1.27354">
        <ele>190</ele>
        <time>2016-05-01T09:25:59.000Z</time>
      </trkpt>
      <trkpt lat="49.41423" lon="1.27354">
        <ele>190</ele>
        <time>2016-05-01T09:26:01.000Z</time>
      </trkpt>
      <trkpt lat="49.41433" lon="1.27353">
        <ele>190</ele>
        <time>2016-05-01T09:26:03.000Z</time>
      </trkpt>
      <trkpt lat="49.41443" lon="1.27351">
        <ele>190</ele>
        <time>2016-05-01T09:26:07.000Z</time>
      </trkpt>
      <trkpt lat="49.41449" lon="1.2735">
        <ele>190</ele>
        <time>2016-05-01T09:26:09.000Z</time>
      </trkpt>
      <trkpt lat="49.41459" lon="1.27347">
        <ele>190</ele>
        <time>2016-05-01T09:26:13.000Z</time>
      </trkpt>
      <trkpt lat="49.4147" lon="1.27346">
        <ele>190</ele>
        <time>2016-05-01T09:26:17.000Z</time>
      </trkpt>
      <trkpt lat="49.41481" lon="1.27344">
        <ele>190</ele>
        <time>2016-05-01T09:26:21.000Z</time>
      </trkpt>
      <trkpt lat="49.41481" lon="1.27344">
        <ele>190</ele>
        <time>2016-05-01T09:26:23.000Z</time>
      </trkpt>
      <trkpt lat="49.41492" lon="1.27342">
        <ele>190</ele>
        <time>2016-05-01T09:26:25.000Z</time>
      </trkpt>
      <trkpt lat="49.41498" lon="1.27341">
        <ele>190</ele>
        <time>2016-05-01T09:26:27.000Z</time>
      </trkpt>
      <trkpt lat="49.41504" lon="1.2734">
        <ele>190</ele>
        <time>2016-05-01T09:26:29.000Z</time>
      </trkpt>
      <trkpt lat="49.41504" lon="1.2734">
        <ele>190</ele>
        <time>2016-05-01T09:26:31.000Z</time>
      </trkpt>
      <trkpt lat="49.41515" lon="1.27337">
        <ele>191</ele>
        <time>2016-05-01T09:26:33.000Z</time>
      </trkpt>
      <trkpt lat="49.41515" lon="1.27337">
        <ele>191</ele>
        <time>2016-05-01T09:26:35.000Z</time>
      </trkpt>
      <trkpt lat="49.41525" lon="1.27335">
        <ele>191</ele>
        <time>2016-05-01T09:26:37.000Z</time>
      </trkpt>
      <trkpt lat="49.41525" lon="1.27335">
        <ele>191</ele>
        <time>2016-05-01T09:26:39.000Z</time>
      </trkpt>
      <trkpt lat="49.41536" lon="1.27332">
        <ele>192</ele>
        <time>2016-05-01T09:26:41.000Z</time>
      </trkpt>
      <trkpt lat="49.41549" lon="1.27328">
        <ele>192</ele>
        <time>2016-05-01T09:26:46.000Z</time>
      </trkpt>
      <trkpt lat="49.4156" lon="1.27324">
        <ele>192</ele>
        <time>2016-05-01T09:26:50.000Z</time>
      </trkpt>
      <trkpt lat="49.41565" lon="1.27322">
        <ele>192</ele>
        <time>2016-05-01T09:26:52.000Z</time>
      </trkpt>
      <trkpt lat="49.41571" lon="1.2732">
        <ele>192</ele>
        <time>2016-05-01T09:26:54.000Z</time>
      </trkpt>
      <trkpt lat="49.41578" lon="1.27317">
        <ele>192</ele>
        <time>2016-05-01T09:26:56.000Z</time>
      </trkpt>
      <trkpt lat="49.41584" lon="1.27314">
        <ele>192</ele>
        <time>2016-05-01T09:26:58.000Z</time>
      </trkpt>
      <trkpt lat="49.4159" lon="1.27312">
        <ele>192</ele>
        <time>2016-05-01T09:27:00.000Z</time>
      </trkpt>
      <trkpt lat="49.41596" lon="1.27311">
        <ele>192</ele>
        <time>2016-05-01T09:27:02.000Z</time>
      </trkpt>
      <trkpt lat="49.41603" lon="1.27309">
        <ele>192</ele>
        <time>2016-05-01T09:27:04.000Z</time>
      </trkpt>
      <trkpt lat="49.41609" lon="1.27307">
        <ele>191</ele>
        <time>2016-05-01T09:27:06.000Z</time>
      </trkpt>
      <trkpt lat="49.41615" lon="1.27304">
        <ele>191</ele>
        <time>2016-05-01T09:27:08.000Z</time>
      </trkpt>
      <trkpt lat="49.41621" lon="1.273">
        <ele>191</ele>
        <time>2016-05-01T09:27:10.000Z</time>
      </trkpt>
      <trkpt lat="49.41628" lon="1.27297">
        <ele>191</ele>
        <time>2016-05-01T09:27:12.000Z</time>
      </trkpt>
      <trkpt lat="49.41635" lon="1.27294">
        <ele>191</ele>
        <time>2016-05-01T09:27:14.000Z</time>
      </trkpt>
      <trkpt lat="49.41641" lon="1.27291">
        <ele>191</ele>
        <time>2016-05-01T09:27:16.000Z</time>
      </trkpt>
      <trkpt lat="49.41648" lon="1.27288">
        <ele>191</ele>
        <time>2016-05-01T09:27:18.000Z</time>
      </trkpt>
      <trkpt lat="49.41655" lon="1.27285">
        <ele>191</ele>
        <time>2016-05-01T09:27:20.000Z</time>
      </trkpt>
      <trkpt lat="49.41661" lon="1.27282">
        <ele>191</ele>
        <time>2016-05-01T09:27:22.000Z</time>
      </trkpt>
      <trkpt lat="49.41668" lon="1.27279">
        <ele>191</ele>
        <time>2016-05-01T09:27:24.000Z</time>
      </trkpt>
      <trkpt lat="49.41675" lon="1.27275">
        <ele>191</ele>
        <time>2016-05-01T09:27:26.000Z</time>
      </trkpt>
      <trkpt lat="49.41682" lon="1.27271">
        <ele>191</ele>
        <time>2016-05-01T09:27:28.000Z</time>
      </trkpt>
      <trkpt lat="49.41689" lon="1.27267">
        <ele>191</ele>
        <time>2016-05-01T09:27:30.000Z</time>
      </trkpt>
      <trkpt lat="49.41696" lon="1.27263">
        <ele>190</ele>
        <time>2016-05-01T09:27:32.000Z</time>
      </trkpt>
      <trkpt lat="49.41703" lon="1.27258">
        <ele>190</ele>
        <time>2016-05-01T09:27:34.000Z</time>
      </trkpt>
      <trkpt lat="49.4171" lon="1.27254">
        <ele>190</ele>
        <time>2016-05-01T09:27:36.000Z</time>
      </trkpt>
      <trkpt lat="49.41718" lon="1.2725">
        <ele>190</ele>
        <time>2016-05-01T09:27:38.000Z</time>
      </trkpt>
      <trkpt lat="49.41726" lon="1.27246">
        <ele>189</ele>
        <time>2016-05-01T09:27:40.000Z</time>
      </trkpt>
      <trkpt lat="49.41733" lon="1.27242">
        <ele>189</ele>
        <time>2016-05-01T09:27:42.000Z</time>
      </trkpt>
      <trkpt lat="49.41741" lon="1.27237">
        <ele>189</ele>
        <time>2016-05-01T09:27:44.000Z</time>
      </trkpt>
      <trkpt lat="49.41748" lon="1.27233">
        <ele>188</ele>
        <time>2016-05-01T09:27:46.000Z</time>
      </trkpt>
      <trkpt lat="49.41756" lon="1.27229">
        <ele>188</ele>
        <time>2016-05-01T09:27:48.000Z</time>
      </trkpt>
      <trkpt lat="49.41764" lon="1.27224">
        <ele>188</ele>
        <time>2016-05-01T09:27:50.000Z</time>
      </trkpt>
      <trkpt lat="49.41772" lon="1.2722">
        <ele>188</ele>
        <time>2016-05-01T09:27:52.000Z</time>
      </trkpt>
      <trkpt lat="49.41781" lon="1.27216">
        <ele>187</ele>
        <time>2016-05-01T09:27:54.000Z</time>
      </trkpt>
      <trkpt lat="49.4179" lon="1.27211">
        <ele>187</ele>
        <time>2016-05-01T09:27:56.000Z</time>
      </trkpt>
      <trkpt lat="49.418" lon="1.27206">
        <ele>187</ele>
        <time>2016-05-01T09:27:58.000Z</time>
      </trkpt>
      <trkpt lat="49.41808" lon="1.27201">
        <ele>186</ele>
        <time>2016-05-01T09:28:00.000Z</time>
      </trkpt>
      <trkpt lat="49.41817" lon="1.27196">
        <ele>186</ele>
        <time>2016-05-01T09:28:02.000Z</time>
      </trkpt>
      <trkpt lat="49.41826" lon="1.27192">
        <ele>185</ele>
        <time>2016-05-01T09:28:04.000Z</time>
      </trkpt>
      <trkpt lat="49.41835" lon="1.27186">
        <ele>185</ele>
        <time>2016-05-01T09:28:06.000Z</time>
      </trkpt>
      <trkpt lat="49.41844" lon="1.27182">
        <ele>185</ele>
        <time>2016-05-01T09:28:08.000Z</time>
      </trkpt>
      <trkpt lat="49.41853" lon="1.27177">
        <ele>185</ele>
        <time>2016-05-01T09:28:10.000Z</time>
      </trkpt>
      <trkpt lat="49.41859" lon="1.27173">
        <ele>185</ele>
        <time>2016-05-01T09:28:12.000Z</time>
      </trkpt>
      <trkpt lat="49.41865" lon="1.27171">
        <ele>185</ele>
        <time>2016-05-01T09:28:14.000Z</time>
      </trkpt>
      <trkpt lat="49.41871" lon="1.27168">
        <ele>185</ele>
        <time>2016-05-01T09:28:16.000Z</time>
      </trkpt>
      <trkpt lat="49.41878" lon="1.27164">
        <ele>185</ele>
        <time>2016-05-01T09:28:18.000Z</time>
      </trkpt>
      <trkpt lat="49.41885" lon="1.2716">
        <ele>185</ele>
        <time>2016-05-01T09:28:20.000Z</time>
      </trkpt>
      <trkpt lat="49.41892" lon="1.27156">
        <ele>186</ele>
        <time>2016-05-01T09:28:22.000Z</time>
      </trkpt>
      <trkpt lat="49.41899" lon="1.27153">
        <ele>185</ele>
        <time>2016-05-01T09:28:24.000Z</time>
      </trkpt>
      <trkpt lat="49.41906" lon="1.27149">
        <ele>186</ele>
        <time>2016-05-01T09:28:26.000Z</time>
      </trkpt>
      <trkpt lat="49.41913" lon="1.27146">
        <ele>186</ele>
        <time>2016-05-01T09:28:28.000Z</time>
      </trkpt>
      <trkpt lat="49.4192" lon="1.27143">
        <ele>186</ele>
        <time>2016-05-01T09:28:30.000Z</time>
      </trkpt>
      <trkpt lat="49.41927" lon="1.27139">
        <ele>186</ele>
        <time>2016-05-01T09:28:32.000Z</time>
      </trkpt>
      <trkpt lat="49.41935" lon="1.27136">
        <ele>187</ele>
        <time>2016-05-01T09:28:34.000Z</time>
      </trkpt>
      <trkpt lat="49.41942" lon="1.27134">
        <ele>187</ele>
        <time>2016-05-01T09:28:36.000Z</time>
      </trkpt>
      <trkpt lat="49.41949" lon="1.27132">
        <ele>187</ele>
        <time>2016-05-01T09:28:38.000Z</time>
      </trkpt>
      <trkpt lat="49.41956" lon="1.2713">
        <ele>188</ele>
        <time>2016-05-01T09:28:40.000Z</time>
      </trkpt>
      <trkpt lat="49.41962" lon="1.27128">
        <ele>188</ele>
        <time>2016-05-01T09:28:42.000Z</time>
      </trkpt>
      <trkpt lat="49.41969" lon="1.27126">
        <ele>188</ele>
        <time>2016-05-01T09:28:44.000Z</time>
      </trkpt>
      <trkpt lat="49.41976" lon="1.27123">
        <ele>188</ele>
        <time>2016-05-01T09:28:46.000Z</time>
      </trkpt>
      <trkpt lat="49.41983" lon="1.27121">
        <ele>189</ele>
        <time>2016-05-01T09:28:48.000Z</time>
      </trkpt>
      <trkpt lat="49.4199" lon="1.27119">
        <ele>189</ele>
        <time>2016-05-01T09:28:50.000Z</time>
      </trkpt>
      <trkpt lat="49.41996" lon="1.27117">
        <ele>189</ele>
        <time>2016-05-01T09:28:52.000Z</time>
      </trkpt>
      <trkpt lat="49.42003" lon="1.27116">
        <ele>189</ele>
        <time>2016-05-01T09:28:54.000Z</time>
      </trkpt>
      <trkpt lat="49.4201" lon="1.27114">
        <ele>190</ele>
        <time>2016-05-01T09:28:56.000Z</time>
      </trkpt>
      <trkpt lat="49.42017" lon="1.27113">
        <ele>189</ele>
        <time>2016-05-01T09:28:58.000Z</time>
      </trkpt>
      <trkpt lat="49.42023" lon="1.27111">
        <ele>190</ele>
        <time>2016-05-01T09:29:00.000Z</time>
      </trkpt>
      <trkpt lat="49.4203" lon="1.27109">
        <ele>190</ele>
        <time>2016-05-01T09:29:02.000Z</time>
      </trkpt>
      <trkpt lat="49.42037" lon="1.27108">
        <ele>190</ele>
        <time>2016-05-01T09:29:04.000Z</time>
      </trkpt>
      <trkpt lat="49.42043" lon="1.27106">
        <ele>191</ele>
        <time>2016-05-01T09:29:06.000Z</time>
      </trkpt>
      <trkpt lat="49.42049" lon="1.27105">
        <ele>190</ele>
        <time>2016-05-01T09:29:08.000Z</time>
      </trkpt>
      <trkpt lat="49.42049" lon="1.27105">
        <ele>190</ele>
        <time>2016-05-01T09:29:10.000Z</time>
      </trkpt>
      <trkpt lat="49.4206" lon="1.27103">
        <ele>191</ele>
        <time>2016-05-01T09:29:12.000Z</time>
      </trkpt>
      <trkpt lat="49.4206" lon="1.27103">
        <ele>191</ele>
        <time>2016-05-01T09:29:14.000Z</time>
      </trkpt>
      <trkpt lat="49.42072" lon="1.27101">
        <ele>191</ele>
        <time>2016-05-01T09:29:16.000Z</time>
      </trkpt>
      <trkpt lat="49.42077" lon="1.271">
        <ele>191</ele>
        <time>2016-05-01T09:29:18.000Z</time>
      </trkpt>
      <trkpt lat="49.42083" lon="1.271">
        <ele>191</ele>
        <time>2016-05-01T09:29:20.000Z</time>
      </trkpt>
      <trkpt lat="49.42089" lon="1.27099">
        <ele>192</ele>
        <time>2016-05-01T09:29:22.000Z</time>
      </trkpt>
      <trkpt lat="49.42089" lon="1.27099">
        <ele>192</ele>
        <time>2016-05-01T09:29:24.000Z</time>
      </trkpt>
      <trkpt lat="49.42099" lon="1.27097">
        <ele>192</ele>
        <time>2016-05-01T09:29:26.000Z</time>
      </trkpt>
      <trkpt lat="49.42099" lon="1.27097">
        <ele>192</ele>
        <time>2016-05-01T09:29:28.000Z</time>
      </trkpt>
      <trkpt lat="49.4211" lon="1.27096">
        <ele>193</ele>
        <time>2016-05-01T09:29:30.000Z</time>
      </trkpt>
      <trkpt lat="49.42116" lon="1.27096">
        <ele>193</ele>
        <time>2016-05-01T09:29:32.000Z</time>
      </trkpt>
      <trkpt lat="49.42122" lon="1.27095">
        <ele>194</ele>
        <time>2016-05-01T09:29:34.000Z</time>
      </trkpt>
      <trkpt lat="49.42128" lon="1.27095">
        <ele>194</ele>
        <time>2016-05-01T09:29:36.000Z</time>
      </trkpt>
      <trkpt lat="49.42134" lon="1.27094">
        <ele>194</ele>
        <time>2016-05-01T09:29:38.000Z</time>
      </trkpt>
      <trkpt lat="49.4214" lon="1.27093">
        <ele>194</ele>
        <time>2016-05-01T09:29:40.000Z</time>
      </trkpt>
      <trkpt lat="49.42146" lon="1.27093">
        <ele>194</ele>
        <time>2016-05-01T09:29:42.000Z</time>
      </trkpt>
      <trkpt lat="49.42152" lon="1.27092">
        <ele>194</ele>
        <time>2016-05-01T09:29:44.000Z</time>
      </trkpt>
      <trkpt lat="49.42158" lon="1.27092">
        <ele>195</ele>
        <time>2016-05-01T09:29:46.000Z</time>
      </trkpt>
      <trkpt lat="49.42164" lon="1.27091">
        <ele>195</ele>
        <time>2016-05-01T09:29:48.000Z</time>
      </trkpt>
      <trkpt lat="49.4217" lon="1.27091">
        <ele>195</ele>
        <time>2016-05-01T09:29:50.000Z</time>
      </trkpt>
      <trkpt lat="49.42175" lon="1.2709">
        <ele>195</ele>
        <time>2016-05-01T09:29:52.000Z</time>
      </trkpt>
      <trkpt lat="49.42181" lon="1.2709">
        <ele>195</ele>
        <time>2016-05-01T09:29:54.000Z</time>
      </trkpt>
      <trkpt lat="49.42187" lon="1.27088">
        <ele>196</ele>
        <time>2016-05-01T09:29:56.000Z</time>
      </trkpt>
      <trkpt lat="49.42194" lon="1.27087">
        <ele>196</ele>
        <time>2016-05-01T09:29:58.000Z</time>
      </trkpt>
      <trkpt lat="49.422" lon="1.27084">
        <ele>196</ele>
        <time>2016-05-01T09:30:00.000Z</time>
      </trkpt>
      <trkpt lat="49.42205" lon="1.27082">
        <ele>196</ele>
        <time>2016-05-01T09:30:02.000Z</time>
      </trkpt>
      <trkpt lat="49.42211" lon="1.27079">
        <ele>196</ele>
        <time>2016-05-01T09:30:04.000Z</time>
      </trkpt>
      <trkpt lat="49.42217" lon="1.27076">
        <ele>196</ele>
        <time>2016-05-01T09:30:06.000Z</time>
      </trkpt>
      <trkpt lat="49.42222" lon="1.27073">
        <ele>195</ele>
        <time>2016-05-01T09:30:08.000Z</time>
      </trkpt>
      <trkpt lat="49.42228" lon="1.27068">
        <ele>195</ele>
        <time>2016-05-01T09:30:10.000Z</time>
      </trkpt>
      <trkpt lat="49.42234" lon="1.27063">
        <ele>195</ele>
        <time>2016-05-01T09:30:12.000Z</time>
      </trkpt>
      <trkpt lat="49.4224" lon="1.27059">
        <ele>195</ele>
        <time>2016-05-01T09:30:14.000Z</time>
      </trkpt>
      <trkpt lat="49.42247" lon="1.27054">
        <ele>194</ele>
        <time>2016-05-01T09:30:16.000Z</time>
      </trkpt>
      <trkpt lat="49.42254" lon="1.27049">
        <ele>194</ele>
        <time>2016-05-01T09:30:18.000Z</time>
      </trkpt>
      <trkpt lat="49.42261" lon="1.27044">
        <ele>194</ele>
        <time>2016-05-01T09:30:20.000Z</time>
      </trkpt>
      <trkpt lat="49.42268" lon="1.27039">
        <ele>194</ele>
        <time>2016-05-01T09:30:22.000Z</time>
      </trkpt>
      <trkpt lat="49.42275" lon="1.27035">
        <ele>194</ele>
        <time>2016-05-01T09:30:24.000Z</time>
      </trkpt>
      <trkpt lat="49.42282" lon="1.2703">
        <ele>194</ele>
        <time>2016-05-01T09:30:26.000Z</time>
      </trkpt>
      <trkpt lat="49.4229" lon="1.27026">
        <ele>193</ele>
        <time>2016-05-01T09:30:28.000Z</time>
      </trkpt>
      <trkpt lat="49.42299" lon="1.27022">
        <ele>193</ele>
        <time>2016-05-01T09:30:30.000Z</time>
      </trkpt>
      <trkpt lat="49.42307" lon="1.27019">
        <ele>193</ele>
        <time>2016-05-01T09:30:32.000Z</time>
      </trkpt>
      <trkpt lat="49.42315" lon="1.27016">
        <ele>193</ele>
        <time>2016-05-01T09:30:34.000Z</time>
      </trkpt>
      <trkpt lat="49.42324" lon="1.27013">
        <ele>193</ele>
        <time>2016-05-01T09:30:36.000Z</time>
      </trkpt>
      <trkpt lat="49.42333" lon="1.2701">
        <ele>193</ele>
        <time>2016-05-01T09:30:38.000Z</time>
      </trkpt>
      <trkpt lat="49.42342" lon="1.27007">
        <ele>193</ele>
        <time>2016-05-01T09:30:40.000Z</time>
      </trkpt>
      <trkpt lat="49.42348" lon="1.27002">
        <ele>192</ele>
        <time>2016-05-01T09:30:42.000Z</time>
      </trkpt>
      <trkpt lat="49.4235" lon="1.26993">
        <ele>192</ele>
        <time>2016-05-01T09:30:44.000Z</time>
      </trkpt>
      <trkpt lat="49.42347" lon="1.26984">
        <ele>193</ele>
        <time>2016-05-01T09:30:46.000Z</time>
      </trkpt>
      <trkpt lat="49.42342" lon="1.26975">
        <ele>193</ele>
        <time>2016-05-01T09:30:48.000Z</time>
      </trkpt>
      <trkpt lat="49.42337" lon="1.26965">
        <ele>193</ele>
        <time>2016-05-01T09:30:50.000Z</time>
      </trkpt>
      <trkpt lat="49.42333" lon="1.26955">
        <ele>193</ele>
        <time>2016-05-01T09:30:52.000Z</time>
      </trkpt>
      <trkpt lat="49.42328" lon="1.26945">
        <ele>193</ele>
        <time>2016-05-01T09:30:54.000Z</time>
      </trkpt>
      <trkpt lat="49.42324" lon="1.26936">
        <ele>193</ele>
        <time>2016-05-01T09:30:56.000Z</time>
      </trkpt>
      <trkpt lat="49.4232" lon="1.26928">
        <ele>194</ele>
        <time>2016-05-01T09:30:58.000Z</time>
      </trkpt>
      <trkpt lat="49.42316" lon="1.26918">
        <ele>193</ele>
        <time>2016-05-01T09:31:00.000Z</time>
      </trkpt>
      <trkpt lat="49.42311" lon="1.26906">
        <ele>193</ele>
        <time>2016-05-01T09:31:02.000Z</time>
      </trkpt>
      <trkpt lat="49.42306" lon="1.26894">
        <ele>193</ele>
        <time>2016-05-01T09:31:04.000Z</time>
      </trkpt>
      <trkpt lat="49.423" lon="1.26883">
        <ele>194</ele>
        <time>2016-05-01T09:31:06.000Z</time>
      </trkpt>
      <trkpt lat="49.42298" lon="1.2687">
        <ele>193</ele>
        <time>2016-05-01T09:31:08.000Z</time>
      </trkpt>
      <trkpt lat="49.42303" lon="1.26859">
        <ele>193</ele>
        <time>2016-05-01T09:31:10.000Z</time>
      </trkpt>
      <trkpt lat="49.4231" lon="1.26851">
        <ele>193</ele>
        <time>2016-05-01T09:31:12.000Z</time>
      </trkpt>
      <trkpt lat="49.42318" lon="1.26843">
        <ele>192</ele>
        <time>2016-05-01T09:31:14.000Z</time>
      </trkpt>
      <trkpt lat="49.42327" lon="1.26834">
        <ele>192</ele>
        <time>2016-05-01T09:31:16.000Z</time>
      </trkpt>
      <trkpt lat="49.42335" lon="1.26827">
        <ele>192</ele>
        <time>2016-05-01T09:31:18.000Z</time>
      </trkpt>
      <trkpt lat="49.42341" lon="1.26817">
        <ele>192</ele>
        <time>2016-05-01T09:31:20.000Z</time>
      </trkpt>
      <trkpt lat="49.4235" lon="1.26809">
        <ele>192</ele>
        <time>2016-05-01T09:31:22.000Z</time>
      </trkpt>
      <trkpt lat="49.42358" lon="1.26801">
        <ele>192</ele>
        <time>2016-05-01T09:31:24.000Z</time>
      </trkpt>
      <trkpt lat="49.42365" lon="1.26795">
        <ele>191</ele>
        <time>2016-05-01T09:31:26.000Z</time>
      </trkpt>
      <trkpt lat="49.42372" lon="1.26788">
        <ele>191</ele>
        <time>2016-05-01T09:31:28.000Z</time>
      </trkpt>
      <trkpt lat="49.42378" lon="1.26781">
        <ele>191</ele>
        <time>2016-05-01T09:31:30.000Z</time>
      </trkpt>
      <trkpt lat="49.42378" lon="1.26781">
        <ele>191</ele>
        <time>2016-05-01T09:31:32.000Z</time>
      </trkpt>
      <trkpt lat="49.42385" lon="1.26773">
        <ele>189</ele>
        <time>2016-05-01T09:31:34.000Z</time>
      </trkpt>
      <trkpt lat="49.42385" lon="1.26773">
        <ele>189</ele>
        <time>2016-05-01T09:31:36.000Z</time>
      </trkpt>
      <trkpt lat="49.42385" lon="1.26773">
        <ele>189</ele>
        <time>2016-05-01T09:31:38.000Z</time>
      </trkpt>
      <trkpt lat="49.42398" lon="1.26764">
        <ele>188</ele>
        <time>2016-05-01T09:32:00.000Z</time>
      </trkpt>
      <trkpt lat="49.42407" lon="1.26755">
        <ele>187</ele>
        <time>2016-05-01T09:32:03.000Z</time>
      </trkpt>
      <trkpt lat="49.42414" lon="1.26745">
        <ele>187</ele>
        <time>2016-05-01T09:32:05.000Z</time>
      </trkpt>
      <trkpt lat="49.42423" lon="1.26736">
        <ele>186</ele>
        <time>2016-05-01T09:32:07.000Z</time>
      </trkpt>
      <trkpt lat="49.42432" lon="1.26728">
        <ele>186</ele>
        <time>2016-05-01T09:32:09.000Z</time>
      </trkpt>
      <trkpt lat="49.4244" lon="1.2672">
        <ele>186</ele>
        <time>2016-05-01T09:32:11.000Z</time>
      </trkpt>
      <trkpt lat="49.42449" lon="1.26712">
        <ele>185</ele>
        <time>2016-05-01T09:32:13.000Z</time>
      </trkpt>
      <trkpt lat="49.4246" lon="1.26701">
        <ele>184</ele>
        <time>2016-05-01T09:32:15.000Z</time>
      </trkpt>
      <trkpt lat="49.42472" lon="1.2669">
        <ele>182</ele>
        <time>2016-05-01T09:32:17.000Z</time>
      </trkpt>
      <trkpt lat="49.42497" lon="1.26666">
        <ele>179</ele>
        <time>2016-05-01T09:32:20.000Z</time>
      </trkpt>
      <trkpt lat="49.42511" lon="1.26656">
        <ele>178</ele>
        <time>2016-05-01T09:32:22.000Z</time>
      </trkpt>
      <trkpt lat="49.42516" lon="1.26638">
        <ele>178</ele>
        <time>2016-05-01T09:32:25.000Z</time>
      </trkpt>
      <trkpt lat="49.42517" lon="1.26624">
        <ele>179</ele>
        <time>2016-05-01T09:32:27.000Z</time>
      </trkpt>
      <trkpt lat="49.42517" lon="1.26611">
        <ele>180</ele>
        <time>2016-05-01T09:32:29.000Z</time>
      </trkpt>
      <trkpt lat="49.42517" lon="1.26599">
        <ele>180</ele>
        <time>2016-05-01T09:32:31.000Z</time>
      </trkpt>
      <trkpt lat="49.42519" lon="1.26588">
        <ele>181</ele>
        <time>2016-05-01T09:32:33.000Z</time>
      </trkpt>
      <trkpt lat="49.42519" lon="1.26578">
        <ele>182</ele>
        <time>2016-05-01T09:32:35.000Z</time>
      </trkpt>
      <trkpt lat="49.42519" lon="1.26568">
        <ele>183</ele>
        <time>2016-05-01T09:32:37.000Z</time>
      </trkpt>
      <trkpt lat="49.42519" lon="1.26559">
        <ele>183</ele>
        <time>2016-05-01T09:32:39.000Z</time>
      </trkpt>
      <trkpt lat="49.42519" lon="1.26559">
        <ele>183</ele>
        <time>2016-05-01T09:32:41.000Z</time>
      </trkpt>
      <trkpt lat="49.42521" lon="1.26545">
        <ele>184</ele>
        <time>2016-05-01T09:32:43.000Z</time>
      </trkpt>
      <trkpt lat="49.42521" lon="1.26545">
        <ele>184</ele>
        <time>2016-05-01T09:32:46.000Z</time>
      </trkpt>
      <trkpt lat="49.42521" lon="1.26545">
        <ele>184</ele>
        <time>2016-05-01T09:32:48.000Z</time>
      </trkpt>
      <trkpt lat="49.42521" lon="1.26545">
        <ele>184</ele>
        <time>2016-05-01T09:32:50.000Z</time>
      </trkpt>
      <trkpt lat="49.42524" lon="1.26531">
        <ele>186</ele>
        <time>2016-05-01T09:32:59.000Z</time>
      </trkpt>
      <trkpt lat="49.42524" lon="1.26519">
        <ele>187</ele>
        <time>2016-05-01T09:33:05.000Z</time>
      </trkpt>
      <trkpt lat="49.42524" lon="1.26508">
        <ele>187</ele>
        <time>2016-05-01T09:33:11.000Z</time>
      </trkpt>
      <trkpt lat="49.42524" lon="1.26508">
        <ele>187</ele>
        <time>2016-05-01T09:33:13.000Z</time>
      </trkpt>
      <trkpt lat="49.42525" lon="1.26497">
        <ele>189</ele>
        <time>2016-05-01T09:33:17.000Z</time>
      </trkpt>
      <trkpt lat="49.42525" lon="1.26497">
        <ele>189</ele>
        <time>2016-05-01T09:33:19.000Z</time>
      </trkpt>
      <trkpt lat="49.42525" lon="1.26485">
        <ele>189</ele>
        <time>2016-05-01T09:33:23.000Z</time>
      </trkpt>
      <trkpt lat="49.42525" lon="1.26485">
        <ele>189</ele>
        <time>2016-05-01T09:33:25.000Z</time>
      </trkpt>
      <trkpt lat="49.42525" lon="1.26485">
        <ele>189</ele>
        <time>2016-05-01T09:33:27.000Z</time>
      </trkpt>
      <trkpt lat="49.42525" lon="1.26472">
        <ele>190</ele>
        <time>2016-05-01T09:33:33.000Z</time>
      </trkpt>
      <trkpt lat="49.42525" lon="1.26461">
        <ele>191</ele>
        <time>2016-05-01T09:33:37.000Z</time>
      </trkpt>
      <trkpt lat="49.42524" lon="1.26452">
        <ele>192</ele>
        <time>2016-05-01T09:33:41.000Z</time>
      </trkpt>
      <trkpt lat="49.42525" lon="1.26439">
        <ele>192</ele>
        <time>2016-05-01T09:33:45.000Z</time>
      </trkpt>
      <trkpt lat="49.42526" lon="1.26424">
        <ele>192</ele>
        <time>2016-05-01T09:33:49.000Z</time>
      </trkpt>
      <trkpt lat="49.42528" lon="1.26407">
        <ele>192</ele>
        <time>2016-05-01T09:33:53.000Z</time>
      </trkpt>
      <trkpt lat="49.42529" lon="1.26398">
        <ele>192</ele>
        <time>2016-05-01T09:33:55.000Z</time>
      </trkpt>
      <trkpt lat="49.42529" lon="1.26389">
        <ele>192</ele>
        <time>2016-05-01T09:33:57.000Z</time>
      </trkpt>
      <trkpt lat="49.42531" lon="1.2638">
        <ele>193</ele>
        <time>2016-05-01T09:33:59.000Z</time>
      </trkpt>
      <trkpt lat="49.42533" lon="1.26371">
        <ele>192</ele>
        <time>2016-05-01T09:34:01.000Z</time>
      </trkpt>
      <trkpt lat="49.42535" lon="1.26363">
        <ele>192</ele>
        <time>2016-05-01T09:34:03.000Z</time>
      </trkpt>
      <trkpt lat="49.42537" lon="1.26354">
        <ele>192</ele>
        <time>2016-05-01T09:34:05.000Z</time>
      </trkpt>
      <trkpt lat="49.42537" lon="1.26354">
        <ele>192</ele>
        <time>2016-05-01T09:34:07.000Z</time>
      </trkpt>
      <trkpt lat="49.4254" lon="1.26337">
        <ele>193</ele>
        <time>2016-05-01T09:34:09.000Z</time>
      </trkpt>
      <trkpt lat="49.42543" lon="1.26328">
        <ele>193</ele>
        <time>2016-05-01T09:34:11.000Z</time>
      </trkpt>
      <trkpt lat="49.42546" lon="1.26318">
        <ele>193</ele>
        <time>2016-05-01T09:34:13.000Z</time>
      </trkpt>
      <trkpt lat="49.42548" lon="1.26308">
        <ele>194</ele>
        <time>2016-05-01T09:34:15.000Z</time>
      </trkpt>
      <trkpt lat="49.42551" lon="1.26299">
        <ele>194</ele>
        <time>2016-05-01T09:34:17.000Z</time>
      </trkpt>
      <trkpt lat="49.42554" lon="1.2629">
        <ele>194</ele>
        <time>2016-05-01T09:34:19.000Z</time>
      </trkpt>
      <trkpt lat="49.42558" lon="1.26281">
        <ele>194</ele>
        <time>2016-05-01T09:34:21.000Z</time>
      </trkpt>
      <trkpt lat="49.42561" lon="1.26272">
        <ele>194</ele>
        <time>2016-05-01T09:34:23.000Z</time>
      </trkpt>
      <trkpt lat="49.42564" lon="1.26263">
        <ele>194</ele>
        <time>2016-05-01T09:34:25.000Z</time>
      </trkpt>
      <trkpt lat="49.42567" lon="1.26255">
        <ele>195</ele>
        <time>2016-05-01T09:34:27.000Z</time>
      </trkpt>
      <trkpt lat="49.42571" lon="1.26247">
        <ele>195</ele>
        <time>2016-05-01T09:34:29.000Z</time>
      </trkpt>
      <trkpt lat="49.42575" lon="1.26239">
        <ele>195</ele>
        <time>2016-05-01T09:34:31.000Z</time>
      </trkpt>
      <trkpt lat="49.42579" lon="1.26231">
        <ele>195</ele>
        <time>2016-05-01T09:34:33.000Z</time>
      </trkpt>
      <trkpt lat="49.42583" lon="1.26223">
        <ele>195</ele>
        <time>2016-05-01T09:34:35.000Z</time>
      </trkpt>
      <trkpt lat="49.42587" lon="1.26215">
        <ele>195</ele>
        <time>2016-05-01T09:34:37.000Z</time>
      </trkpt>
      <trkpt lat="49.42592" lon="1.26206">
        <ele>195</ele>
        <time>2016-05-01T09:34:39.000Z</time>
      </trkpt>
      <trkpt lat="49.42596" lon="1.26197">
        <ele>195</ele>
        <time>2016-05-01T09:34:41.000Z</time>
      </trkpt>
      <trkpt lat="49.42601" lon="1.26186">
        <ele>194</ele>
        <time>2016-05-01T09:34:43.000Z</time>
      </trkpt>
      <trkpt lat="49.42607" lon="1.26171">
        <ele>194</ele>
        <time>2016-05-01T09:34:46.000Z</time>
      </trkpt>
      <trkpt lat="49.42612" lon="1.26161">
        <ele>194</ele>
        <time>2016-05-01T09:34:48.000Z</time>
      </trkpt>
      <trkpt lat="49.42617" lon="1.26148">
        <ele>194</ele>
        <time>2016-05-01T09:34:50.000Z</time>
      </trkpt>
      <trkpt lat="49.4262" lon="1.26135">
        <ele>193</ele>
        <time>2016-05-01T09:34:52.000Z</time>
      </trkpt>
      <trkpt lat="49.42624" lon="1.26121">
        <ele>193</ele>
        <time>2016-05-01T09:34:54.000Z</time>
      </trkpt>
      <trkpt lat="49.42627" lon="1.26105">
        <ele>194</ele>
        <time>2016-05-01T09:34:56.000Z</time>
      </trkpt>
      <trkpt lat="49.42632" lon="1.26089">
        <ele>194</ele>
        <time>2016-05-01T09:34:58.000Z</time>
      </trkpt>
      <trkpt lat="49.42636" lon="1.26073">
        <ele>194</ele>
        <time>2016-05-01T09:35:00.000Z</time>
      </trkpt>
      <trkpt lat="49.42639" lon="1.26058">
        <ele>194</ele>
        <time>2016-05-01T09:35:02.000Z</time>
      </trkpt>
      <trkpt lat="49.42642" lon="1.26044">
        <ele>194</ele>
        <time>2016-05-01T09:35:04.000Z</time>
      </trkpt>
      <trkpt lat="49.42646" lon="1.26031">
        <ele>194</ele>
        <time>2016-05-01T09:35:06.000Z</time>
      </trkpt>
      <trkpt lat="49.42649" lon="1.26017">
        <ele>194</ele>
        <time>2016-05-01T09:35:08.000Z</time>
      </trkpt>
      <trkpt lat="49.42653" lon="1.26004">
        <ele>194</ele>
        <time>2016-05-01T09:35:10.000Z</time>
      </trkpt>
      <trkpt lat="49.42656" lon="1.2599">
        <ele>194</ele>
        <time>2016-05-01T09:35:12.000Z</time>
      </trkpt>
      <trkpt lat="49.42659" lon="1.25977">
        <ele>194</ele>
        <time>2016-05-01T09:35:14.000Z</time>
      </trkpt>
      <trkpt lat="49.42662" lon="1.25963">
        <ele>195</ele>
        <time>2016-05-01T09:35:16.000Z</time>
      </trkpt>
      <trkpt lat="49.42666" lon="1.25949">
        <ele>195</ele>
        <time>2016-05-01T09:35:18.000Z</time>
      </trkpt>
      <trkpt lat="49.42669" lon="1.25936">
        <ele>195</ele>
        <time>2016-05-01T09:35:20.000Z</time>
      </trkpt>
      <trkpt lat="49.42673" lon="1.25923">
        <ele>195</ele>
        <time>2016-05-01T09:35:22.000Z</time>
      </trkpt>
      <trkpt lat="49.42676" lon="1.25911">
        <ele>196</ele>
        <time>2016-05-01T09:35:24.000Z</time>
      </trkpt>
      <trkpt lat="49.42679" lon="1.25897">
        <ele>197</ele>
        <time>2016-05-01T09:35:26.000Z</time>
      </trkpt>
      <trkpt lat="49.42682" lon="1.25885">
        <ele>197</ele>
        <time>2016-05-01T09:35:28.000Z</time>
      </trkpt>
      <trkpt lat="49.42686" lon="1.25872">
        <ele>197</ele>
        <time>2016-05-01T09:35:30.000Z</time>
      </trkpt>
      <trkpt lat="49.42688" lon="1.25861">
        <ele>197</ele>
        <time>2016-05-01T09:35:32.000Z</time>
      </trkpt>
      <trkpt lat="49.42691" lon="1.2585">
        <ele>197</ele>
        <time>2016-05-01T09:35:34.000Z</time>
      </trkpt>
      <trkpt lat="49.42694" lon="1.2584">
        <ele>197</ele>
        <time>2016-05-01T09:35:36.000Z</time>
      </trkpt>
      <trkpt lat="49.42697" lon="1.2583">
        <ele>197</ele>
        <time>2016-05-01T09:35:38.000Z</time>
      </trkpt>
      <trkpt lat="49.427" lon="1.2582">
        <ele>197</ele>
        <time>2016-05-01T09:35:40.000Z</time>
      </trkpt>
      <trkpt lat="49.42702" lon="1.2581">
        <ele>197</ele>
        <time>2016-05-01T09:35:42.000Z</time>
      </trkpt>
      <trkpt lat="49.42705" lon="1.25801">
        <ele>197</ele>
        <time>2016-05-01T09:35:44.000Z</time>
      </trkpt>
      <trkpt lat="49.42707" lon="1.25792">
        <ele>197</ele>
        <time>2016-05-01T09:35:46.000Z</time>
      </trkpt>
      <trkpt lat="49.42712" lon="1.25784">
        <ele>197</ele>
        <time>2016-05-01T09:35:48.000Z</time>
      </trkpt>
      <trkpt lat="49.42717" lon="1.25778">
        <ele>198</ele>
        <time>2016-05-01T09:35:50.000Z</time>
      </trkpt>
      <trkpt lat="49.42722" lon="1.25772">
        <ele>198</ele>
        <time>2016-05-01T09:35:52.000Z</time>
      </trkpt>
      <trkpt lat="49.42727" lon="1.25764">
        <ele>197</ele>
        <time>2016-05-01T09:35:54.000Z</time>
      </trkpt>
      <trkpt lat="49.42731" lon="1.25756">
        <ele>198</ele>
        <time>2016-05-01T09:35:56.000Z</time>
      </trkpt>
      <trkpt lat="49.42736" lon="1.25749">
        <ele>198</ele>
        <time>2016-05-01T09:35:58.000Z</time>
      </trkpt>
      <trkpt lat="49.42741" lon="1.25741">
        <ele>198</ele>
        <time>2016-05-01T09:36:00.000Z</time>
      </trkpt>
      <trkpt lat="49.42745" lon="1.25735">
        <ele>198</ele>
        <time>2016-05-01T09:36:02.000Z</time>
      </trkpt>
      <trkpt lat="49.42749" lon="1.25729">
        <ele>198</ele>
        <time>2016-05-01T09:36:04.000Z</time>
      </trkpt>
      <trkpt lat="49.42749" lon="1.25729">
        <ele>198</ele>
        <time>2016-05-01T09:36:06.000Z</time>
      </trkpt>
      <trkpt lat="49.42758" lon="1.25718">
        <ele>198</ele>
        <time>2016-05-01T09:36:08.000Z</time>
      </trkpt>
      <trkpt lat="49.42763" lon="1.25712">
        <ele>198</ele>
        <time>2016-05-01T09:36:10.000Z</time>
      </trkpt>
      <trkpt lat="49.42769" lon="1.25707">
        <ele>198</ele>
        <time>2016-05-01T09:36:12.000Z</time>
      </trkpt>
      <trkpt lat="49.42775" lon="1.25702">
        <ele>198</ele>
        <time>2016-05-01T09:36:14.000Z</time>
      </trkpt>
      <trkpt lat="49.42781" lon="1.25695">
        <ele>198</ele>
        <time>2016-05-01T09:36:16.000Z</time>
      </trkpt>
      <trkpt lat="49.42788" lon="1.25689">
        <ele>198</ele>
        <time>2016-05-01T09:36:18.000Z</time>
      </trkpt>
      <trkpt lat="49.42794" lon="1.25683">
        <ele>198</ele>
        <time>2016-05-01T09:36:20.000Z</time>
      </trkpt>
      <trkpt lat="49.42799" lon="1.25677">
        <ele>198</ele>
        <time>2016-05-01T09:36:22.000Z</time>
      </trkpt>
      <trkpt lat="49.42805" lon="1.2567">
        <ele>199</ele>
        <time>2016-05-01T09:36:24.000Z</time>
      </trkpt>
      <trkpt lat="49.42811" lon="1.25664">
        <ele>198</ele>
        <time>2016-05-01T09:36:26.000Z</time>
      </trkpt>
      <trkpt lat="49.42817" lon="1.25659">
        <ele>197</ele>
        <time>2016-05-01T09:36:28.000Z</time>
      </trkpt>
      <trkpt lat="49.42822" lon="1.25654">
        <ele>198</ele>
        <time>2016-05-01T09:36:30.000Z</time>
      </trkpt>
      <trkpt lat="49.42827" lon="1.25649">
        <ele>198</ele>
        <time>2016-05-01T09:36:32.000Z</time>
      </trkpt>
      <trkpt lat="49.42833" lon="1.25643">
        <ele>198</ele>
        <time>2016-05-01T09:36:34.000Z</time>
      </trkpt>
      <trkpt lat="49.42841" lon="1.25635">
        <ele>198</ele>
        <time>2016-05-01T09:36:36.000Z</time>
      </trkpt>
      <trkpt lat="49.42848" lon="1.25627">
        <ele>197</ele>
        <time>2016-05-01T09:36:38.000Z</time>
      </trkpt>
      <trkpt lat="49.42855" lon="1.2562">
        <ele>197</ele>
        <time>2016-05-01T09:36:40.000Z</time>
      </trkpt>
      <trkpt lat="49.42862" lon="1.25612">
        <ele>197</ele>
        <time>2016-05-01T09:36:42.000Z</time>
      </trkpt>
      <trkpt lat="49.42869" lon="1.25605">
        <ele>197</ele>
        <time>2016-05-01T09:36:44.000Z</time>
      </trkpt>
      <trkpt lat="49.42875" lon="1.25597">
        <ele>197</ele>
        <time>2016-05-01T09:36:46.000Z</time>
      </trkpt>
      <trkpt lat="49.42882" lon="1.25588">
        <ele>197</ele>
        <time>2016-05-01T09:36:48.000Z</time>
      </trkpt>
      <trkpt lat="49.42889" lon="1.2558">
        <ele>197</ele>
        <time>2016-05-01T09:36:50.000Z</time>
      </trkpt>
      <trkpt lat="49.42896" lon="1.25573">
        <ele>197</ele>
        <time>2016-05-01T09:36:52.000Z</time>
      </trkpt>
      <trkpt lat="49.42902" lon="1.25566">
        <ele>196</ele>
        <time>2016-05-01T09:36:54.000Z</time>
      </trkpt>
      <trkpt lat="49.4291" lon="1.2556">
        <ele>196</ele>
        <time>2016-05-01T09:36:56.000Z</time>
      </trkpt>
      <trkpt lat="49.42917" lon="1.25556">
        <ele>195</ele>
        <time>2016-05-01T09:36:58.000Z</time>
      </trkpt>
      <trkpt lat="49.42926" lon="1.25552">
        <ele>195</ele>
        <time>2016-05-01T09:37:00.000Z</time>
      </trkpt>
      <trkpt lat="49.42934" lon="1.25548">
        <ele>195</ele>
        <time>2016-05-01T09:37:02.000Z</time>
      </trkpt>
      <trkpt lat="49.42939" lon="1.25539">
        <ele>194</ele>
        <time>2016-05-01T09:37:04.000Z</time>
      </trkpt>
      <trkpt lat="49.42937" lon="1.25527">
        <ele>194</ele>
        <time>2016-05-01T09:37:06.000Z</time>
      </trkpt>
      <trkpt lat="49.42928" lon="1.25513">
        <ele>194</ele>
        <time>2016-05-01T09:37:08.000Z</time>
      </trkpt>
      <trkpt lat="49.42923" lon="1.25501">
        <ele>194</ele>
        <time>2016-05-01T09:37:10.000Z</time>
      </trkpt>
      <trkpt lat="49.42918" lon="1.25488">
        <ele>193</ele>
        <time>2016-05-01T09:37:12.000Z</time>
      </trkpt>
      <trkpt lat="49.42913" lon="1.25477">
        <ele>193</ele>
        <time>2016-05-01T09:37:14.000Z</time>
      </trkpt>
      <trkpt lat="49.42913" lon="1.25477">
        <ele>193</ele>
        <time>2016-05-01T09:37:16.000Z</time>
      </trkpt>
      <trkpt lat="49.42907" lon="1.25464">
        <ele>193</ele>
        <time>2016-05-01T09:37:18.000Z</time>
      </trkpt>
      <trkpt lat="49.42907" lon="1.25464">
        <ele>193</ele>
        <time>2016-05-01T09:37:20.000Z</time>
      </trkpt>
      <trkpt lat="49.42901" lon="1.25451">
        <ele>192</ele>
        <time>2016-05-01T09:37:22.000Z</time>
      </trkpt>
      <trkpt lat="49.42901" lon="1.25451">
        <ele>192</ele>
        <time>2016-05-01T09:37:24.000Z</time>
      </trkpt>
      <trkpt lat="49.42899" lon="1.25442">
        <ele>193</ele>
        <time>2016-05-01T09:37:26.000Z</time>
      </trkpt>
      <trkpt lat="49.42899" lon="1.25442">
        <ele>193</ele>
        <time>2016-05-01T09:37:28.000Z</time>
      </trkpt>
      <trkpt lat="49.42895" lon="1.25425">
        <ele>194</ele>
        <time>2016-05-01T09:37:51.000Z</time>
      </trkpt>
      <trkpt lat="49.42891" lon="1.25407">
        <ele>194</ele>
        <time>2016-05-01T09:37:54.000Z</time>
      </trkpt>
      <trkpt lat="49.42889" lon="1.25394">
        <ele>193</ele>
        <time>2016-05-01T09:37:56.000Z</time>
      </trkpt>
      <trkpt lat="49.42885" lon="1.2538">
        <ele>193</ele>
        <time>2016-05-01T09:37:58.000Z</time>
      </trkpt>
      <trkpt lat="49.42882" lon="1.25367">
        <ele>192</ele>
        <time>2016-05-01T09:38:00.000Z</time>
      </trkpt>
      <trkpt lat="49.42879" lon="1.25354">
        <ele>192</ele>
        <time>2016-05-01T09:38:02.000Z</time>
      </trkpt>
      <trkpt lat="49.42876" lon="1.2534">
        <ele>192</ele>
        <time>2016-05-01T09:38:04.000Z</time>
      </trkpt>
      <trkpt lat="49.42873" lon="1.25327">
        <ele>192</ele>
        <time>2016-05-01T09:38:06.000Z</time>
      </trkpt>
      <trkpt lat="49.42869" lon="1.25313">
        <ele>191</ele>
        <time>2016-05-01T09:38:08.000Z</time>
      </trkpt>
      <trkpt lat="49.42865" lon="1.25299">
        <ele>191</ele>
        <time>2016-05-01T09:38:10.000Z</time>
      </trkpt>
      <trkpt lat="49.42862" lon="1.25284">
        <ele>191</ele>
        <time>2016-05-01T09:38:12.000Z</time>
      </trkpt>
      <trkpt lat="49.42858" lon="1.2527">
        <ele>191</ele>
        <time>2016-05-01T09:38:14.000Z</time>
      </trkpt>
      <trkpt lat="49.42855" lon="1.25255">
        <ele>192</ele>
        <time>2016-05-01T09:38:16.000Z</time>
      </trkpt>
      <trkpt lat="49.42852" lon="1.2524">
        <ele>192</ele>
        <time>2016-05-01T09:38:18.000Z</time>
      </trkpt>
      <trkpt lat="49.42849" lon="1.25225">
        <ele>192</ele>
        <time>2016-05-01T09:38:20.000Z</time>
      </trkpt>
      <trkpt lat="49.42845" lon="1.25209">
        <ele>191</ele>
        <time>2016-05-01T09:38:22.000Z</time>
      </trkpt>
      <trkpt lat="49.42841" lon="1.25193">
        <ele>191</ele>
        <time>2016-05-01T09:38:24.000Z</time>
      </trkpt>
      <trkpt lat="49.42837" lon="1.25177">
        <ele>191</ele>
        <time>2016-05-01T09:38:26.000Z</time>
      </trkpt>
      <trkpt lat="49.42834" lon="1.25161">
        <ele>191</ele>
        <time>2016-05-01T09:38:28.000Z</time>
      </trkpt>
      <trkpt lat="49.4283" lon="1.25145">
        <ele>191</ele>
        <time>2016-05-01T09:38:30.000Z</time>
      </trkpt>
      <trkpt lat="49.42826" lon="1.2513">
        <ele>190</ele>
        <time>2016-05-01T09:38:32.000Z</time>
      </trkpt>
      <trkpt lat="49.4282" lon="1.25116">
        <ele>190</ele>
        <time>2016-05-01T09:38:34.000Z</time>
      </trkpt>
      <trkpt lat="49.42811" lon="1.25107">
        <ele>190</ele>
        <time>2016-05-01T09:38:36.000Z</time>
      </trkpt>
      <trkpt lat="49.42802" lon="1.25102">
        <ele>190</ele>
        <time>2016-05-01T09:38:38.000Z</time>
      </trkpt>
      <trkpt lat="49.42792" lon="1.25098">
        <ele>190</ele>
        <time>2016-05-01T09:38:40.000Z</time>
      </trkpt>
      <trkpt lat="49.42783" lon="1.25095">
        <ele>190</ele>
        <time>2016-05-01T09:38:42.000Z</time>
      </trkpt>
      <trkpt lat="49.42773" lon="1.25092">
        <ele>191</ele>
        <time>2016-05-01T09:38:44.000Z</time>
      </trkpt>
      <trkpt lat="49.42763" lon="1.25088">
        <ele>191</ele>
        <time>2016-05-01T09:38:46.000Z</time>
      </trkpt>
      <trkpt lat="49.42753" lon="1.25085">
        <ele>190</ele>
        <time>2016-05-01T09:38:48.000Z</time>
      </trkpt>
      <trkpt lat="49.42743" lon="1.25081">
        <ele>191</ele>
        <time>2016-05-01T09:38:50.000Z</time>
      </trkpt>
      <trkpt lat="49.42732" lon="1.25077">
        <ele>191</ele>
        <time>2016-05-01T09:38:52.000Z</time>
      </trkpt>
      <trkpt lat="49.42722" lon="1.25074">
        <ele>191</ele>
        <time>2016-05-01T09:38:54.000Z</time>
      </trkpt>
      <trkpt lat="49.42711" lon="1.25071">
        <ele>191</ele>
        <time>2016-05-01T09:38:56.000Z</time>
      </trkpt>
      <trkpt lat="49.42701" lon="1.25068">
        <ele>191</ele>
        <time>2016-05-01T09:38:58.000Z</time>
      </trkpt>
      <trkpt lat="49.4269" lon="1.25065">
        <ele>190</ele>
        <time>2016-05-01T09:39:00.000Z</time>
      </trkpt>
      <trkpt lat="49.4268" lon="1.25063">
        <ele>191</ele>
        <time>2016-05-01T09:39:02.000Z</time>
      </trkpt>
      <trkpt lat="49.42669" lon="1.25061">
        <ele>191</ele>
        <time>2016-05-01T09:39:04.000Z</time>
      </trkpt>
      <trkpt lat="49.42659" lon="1.25059">
        <ele>191</ele>
        <time>2016-05-01T09:39:06.000Z</time>
      </trkpt>
      <trkpt lat="49.42648" lon="1.25058">
        <ele>192</ele>
        <time>2016-05-01T09:39:08.000Z</time>
      </trkpt>
      <trkpt lat="49.42638" lon="1.25057">
        <ele>192</ele>
        <time>2016-05-01T09:39:10.000Z</time>
      </trkpt>
      <trkpt lat="49.42627" lon="1.25056">
        <ele>193</ele>
        <time>2016-05-01T09:39:12.000Z</time>
      </trkpt>
      <trkpt lat="49.42617" lon="1.25055">
        <ele>193</ele>
        <time>2016-05-01T09:39:14.000Z</time>
      </trkpt>
      <trkpt lat="49.42607" lon="1.25054">
        <ele>193</ele>
        <time>2016-05-01T09:39:16.000Z</time>
      </trkpt>
      <trkpt lat="49.42596" lon="1.25054">
        <ele>193</ele>
        <time>2016-05-01T09:39:18.000Z</time>
      </trkpt>
      <trkpt lat="49.42587" lon="1.25054">
        <ele>194</ele>
        <time>2016-05-01T09:39:20.000Z</time>
      </trkpt>
      <trkpt lat="49.42577" lon="1.25055">
        <ele>194</ele>
        <time>2016-05-01T09:39:22.000Z</time>
      </trkpt>
      <trkpt lat="49.42567" lon="1.25056">
        <ele>194</ele>
        <time>2016-05-01T09:39:24.000Z</time>
      </trkpt>
      <trkpt lat="49.42557" lon="1.25058">
        <ele>195</ele>
        <time>2016-05-01T09:39:26.000Z</time>
      </trkpt>
      <trkpt lat="49.42546" lon="1.2506">
        <ele>195</ele>
        <time>2016-05-01T09:39:28.000Z</time>
      </trkpt>
      <trkpt lat="49.42537" lon="1.25063">
        <ele>195</ele>
        <time>2016-05-01T09:39:30.000Z</time>
      </trkpt>
      <trkpt lat="49.42528" lon="1.25066">
        <ele>195</ele>
        <time>2016-05-01T09:39:32.000Z</time>
      </trkpt>
      <trkpt lat="49.42518" lon="1.25068">
        <ele>195</ele>
        <time>2016-05-01T09:39:34.000Z</time>
      </trkpt>
      <trkpt lat="49.42511" lon="1.25062">
        <ele>195</ele>
        <time>2016-05-01T09:39:36.000Z</time>
      </trkpt>
      <trkpt lat="49.42505" lon="1.25052">
        <ele>196</ele>
        <time>2016-05-01T09:39:38.000Z</time>
      </trkpt>
      <trkpt lat="49.42498" lon="1.25041">
        <ele>195</ele>
        <time>2016-05-01T09:39:40.000Z</time>
      </trkpt>
      <trkpt lat="49.42491" lon="1.25028">
        <ele>195</ele>
        <time>2016-05-01T09:39:42.000Z</time>
      </trkpt>
      <trkpt lat="49.42484" lon="1.25016">
        <ele>195</ele>
        <time>2016-05-01T09:39:44.000Z</time>
      </trkpt>
      <trkpt lat="49.42478" lon="1.25004">
        <ele>195</ele>
        <time>2016-05-01T09:39:46.000Z</time>
      </trkpt>
      <trkpt lat="49.42471" lon="1.24992">
        <ele>195</ele>
        <time>2016-05-01T09:39:48.000Z</time>
      </trkpt>
      <trkpt lat="49.42465" lon="1.24979">
        <ele>195</ele>
        <time>2016-05-01T09:39:50.000Z</time>
      </trkpt>
      <trkpt lat="49.42458" lon="1.24967">
        <ele>195</ele>
        <time>2016-05-01T09:39:52.000Z</time>
      </trkpt>
      <trkpt lat="49.42452" lon="1.24955">
        <ele>195</ele>
        <time>2016-05-01T09:39:54.000Z</time>
      </trkpt>
      <trkpt lat="49.42446" lon="1.24943">
        <ele>194</ele>
        <time>2016-05-01T09:39:56.000Z</time>
      </trkpt>
      <trkpt lat="49.42439" lon="1.24931">
        <ele>194</ele>
        <time>2016-05-01T09:39:58.000Z</time>
      </trkpt>
      <trkpt lat="49.42432" lon="1.24918">
        <ele>194</ele>
        <time>2016-05-01T09:40:00.000Z</time>
      </trkpt>
      <trkpt lat="49.42426" lon="1.24904">
        <ele>194</ele>
        <time>2016-05-01T09:40:02.000Z</time>
      </trkpt>
      <trkpt lat="49.42419" lon="1.24891">
        <ele>194</ele>
        <time>2016-05-01T09:40:04.000Z</time>
      </trkpt>
      <trkpt lat="49.42413" lon="1.24879">
        <ele>194</ele>
        <time>2016-05-01T09:40:06.000Z</time>
      </trkpt>
      <trkpt lat="49.42406" lon="1.24866">
        <ele>194</ele>
        <time>2016-05-01T09:40:08.000Z</time>
      </trkpt>
      <trkpt lat="49.42399" lon="1.24853">
        <ele>194</ele>
        <time>2016-05-01T09:40:10.000Z</time>
      </trkpt>
      <trkpt lat="49.42392" lon="1.24841">
        <ele>193</ele>
        <time>2016-05-01T09:40:12.000Z</time>
      </trkpt>
      <trkpt lat="49.42385" lon="1.24828">
        <ele>193</ele>
        <time>2016-05-01T09:40:14.000Z</time>
      </trkpt>
      <trkpt lat="49.42379" lon="1.24816">
        <ele>192</ele>
        <time>2016-05-01T09:40:16.000Z</time>
      </trkpt>
      <trkpt lat="49.42372" lon="1.24805">
        <ele>192</ele>
        <time>2016-05-01T09:40:18.000Z</time>
      </trkpt>
      <trkpt lat="49.42366" lon="1.24794">
        <ele>193</ele>
        <time>2016-05-01T09:40:20.000Z</time>
      </trkpt>
      <trkpt lat="49.42361" lon="1.24783">
        <ele>192</ele>
        <time>2016-05-01T09:40:22.000Z</time>
      </trkpt>
      <trkpt lat="49.42356" lon="1.24772">
        <ele>192</ele>
        <time>2016-05-01T09:40:24.000Z</time>
      </trkpt>
      <trkpt lat="49.42351" lon="1.24763">
        <ele>192</ele>
        <time>2016-05-01T09:40:26.000Z</time>
      </trkpt>
      <trkpt lat="49.42347" lon="1.24753">
        <ele>192</ele>
        <time>2016-05-01T09:40:28.000Z</time>
      </trkpt>
      <trkpt lat="49.42342" lon="1.24743">
        <ele>192</ele>
        <time>2016-05-01T09:40:30.000Z</time>
      </trkpt>
      <trkpt lat="49.42337" lon="1.24734">
        <ele>192</ele>
        <time>2016-05-01T09:40:32.000Z</time>
      </trkpt>
      <trkpt lat="49.42332" lon="1.24725">
        <ele>192</ele>
        <time>2016-05-01T09:40:34.000Z</time>
      </trkpt>
      <trkpt lat="49.42327" lon="1.24716">
        <ele>192</ele>
        <time>2016-05-01T09:40:36.000Z</time>
      </trkpt>
      <trkpt lat="49.42322" lon="1.24709">
        <ele>192</ele>
        <time>2016-05-01T09:40:38.000Z</time>
      </trkpt>
      <trkpt lat="49.42319" lon="1.247">
        <ele>192</ele>
        <time>2016-05-01T09:40:40.000Z</time>
      </trkpt>
      <trkpt lat="49.42318" lon="1.2469">
        <ele>192</ele>
        <time>2016-05-01T09:40:42.000Z</time>
      </trkpt>
      <trkpt lat="49.42316" lon="1.2468">
        <ele>192</ele>
        <time>2016-05-01T09:40:44.000Z</time>
      </trkpt>
      <trkpt lat="49.42313" lon="1.24672">
        <ele>192</ele>
        <time>2016-05-01T09:40:46.000Z</time>
      </trkpt>
      <trkpt lat="49.42313" lon="1.24672">
        <ele>192</ele>
        <time>2016-05-01T09:40:48.000Z</time>
      </trkpt>
      <trkpt lat="49.42311" lon="1.24657">
        <ele>189</ele>
        <time>2016-05-01T09:40:50.000Z</time>
      </trkpt>
      <trkpt lat="49.4231" lon="1.24648">
        <ele>189</ele>
        <time>2016-05-01T09:40:52.000Z</time>
      </trkpt>
      <trkpt lat="49.42308" lon="1.24636">
        <ele>189</ele>
        <time>2016-05-01T09:40:54.000Z</time>
      </trkpt>
      <trkpt lat="49.42303" lon="1.2462">
        <ele>189</ele>
        <time>2016-05-01T09:40:56.000Z</time>
      </trkpt>
      <trkpt lat="49.42295" lon="1.24606">
        <ele>191</ele>
        <time>2016-05-01T09:40:58.000Z</time>
      </trkpt>
      <trkpt lat="49.42291" lon="1.24592">
        <ele>190</ele>
        <time>2016-05-01T09:41:00.000Z</time>
      </trkpt>
      <trkpt lat="49.42284" lon="1.24577">
        <ele>192</ele>
        <time>2016-05-01T09:41:02.000Z</time>
      </trkpt>
      <trkpt lat="49.4228" lon="1.24565">
        <ele>192</ele>
        <time>2016-05-01T09:41:04.000Z</time>
      </trkpt>
      <trkpt lat="49.42275" lon="1.24553">
        <ele>195</ele>
        <time>2016-05-01T09:41:06.000Z</time>
      </trkpt>
      <trkpt lat="49.42271" lon="1.24542">
        <ele>194</ele>
        <time>2016-05-01T09:41:08.000Z</time>
      </trkpt>
      <trkpt lat="49.42264" lon="1.24526">
        <ele>195</ele>
        <time>2016-05-01T09:41:10.000Z</time>
      </trkpt>
      <trkpt lat="49.42259" lon="1.24511">
        <ele>195</ele>
        <time>2016-05-01T09:41:12.000Z</time>
      </trkpt>
      <trkpt lat="49.42255" lon="1.24496">
        <ele>195</ele>
        <time>2016-05-01T09:41:14.000Z</time>
      </trkpt>
      <trkpt lat="49.42249" lon="1.24481">
        <ele>194</ele>
        <time>2016-05-01T09:41:16.000Z</time>
      </trkpt>
      <trkpt lat="49.42244" lon="1.24467">
        <ele>193</ele>
        <time>2016-05-01T09:41:18.000Z</time>
      </trkpt>
      <trkpt lat="49.42239" lon="1.24455">
        <ele>192</ele>
        <time>2016-05-01T09:41:20.000Z</time>
      </trkpt>
      <trkpt lat="49.42235" lon="1.24446">
        <ele>193</ele>
        <time>2016-05-01T09:41:22.000Z</time>
      </trkpt>
      <trkpt lat="49.42235" lon="1.24446">
        <ele>193</ele>
        <time>2016-05-01T09:41:24.000Z</time>
      </trkpt>
      <trkpt lat="49.4223" lon="1.24435">
        <ele>192</ele>
        <time>2016-05-01T09:41:26.000Z</time>
      </trkpt>
      <trkpt lat="49.42231" lon="1.24424">
        <ele>191</ele>
        <time>2016-05-01T09:41:28.000Z</time>
      </trkpt>
      <trkpt lat="49.42229" lon="1.24411">
        <ele>191</ele>
        <time>2016-05-01T09:41:30.000Z</time>
      </trkpt>
      <trkpt lat="49.42227" lon="1.24399">
        <ele>190</ele>
        <time>2016-05-01T09:41:32.000Z</time>
      </trkpt>
      <trkpt lat="49.42223" lon="1.24387">
        <ele>191</ele>
        <time>2016-05-01T09:41:34.000Z</time>
      </trkpt>
      <trkpt lat="49.42219" lon="1.24376">
        <ele>191</ele>
        <time>2016-05-01T09:41:36.000Z</time>
      </trkpt>
      <trkpt lat="49.4222" lon="1.24357">
        <ele>191</ele>
        <time>2016-05-01T09:41:38.000Z</time>
      </trkpt>
      <trkpt lat="49.42225" lon="1.24345">
        <ele>190</ele>
        <time>2016-05-01T09:41:40.000Z</time>
      </trkpt>
      <trkpt lat="49.42229" lon="1.24335">
        <ele>190</ele>
        <time>2016-05-01T09:41:42.000Z</time>
      </trkpt>
      <trkpt lat="49.42234" lon="1.24329">
        <ele>190</ele>
        <time>2016-05-01T09:41:44.000Z</time>
      </trkpt>
      <trkpt lat="49.4224" lon="1.24321">
        <ele>189</ele>
        <time>2016-05-01T09:41:46.000Z</time>
      </trkpt>
      <trkpt lat="49.42245" lon="1.24313">
        <ele>188</ele>
        <time>2016-05-01T09:41:48.000Z</time>
      </trkpt>
      <trkpt lat="49.42254" lon="1.24305">
        <ele>188</ele>
        <time>2016-05-01T09:41:50.000Z</time>
      </trkpt>
      <trkpt lat="49.4226" lon="1.24291">
        <ele>189</ele>
        <time>2016-05-01T09:41:52.000Z</time>
      </trkpt>
      <trkpt lat="49.4227" lon="1.24275">
        <ele>188</ele>
        <time>2016-05-01T09:41:54.000Z</time>
      </trkpt>
      <trkpt lat="49.42281" lon="1.24257">
        <ele>187</ele>
        <time>2016-05-01T09:41:56.000Z</time>
      </trkpt>
      <trkpt lat="49.42291" lon="1.24236">
        <ele>187</ele>
        <time>2016-05-01T09:41:58.000Z</time>
      </trkpt>
      <trkpt lat="49.42297" lon="1.24214">
        <ele>185</ele>
        <time>2016-05-01T09:42:00.000Z</time>
      </trkpt>
      <trkpt lat="49.42298" lon="1.24189">
        <ele>183</ele>
        <time>2016-05-01T09:42:02.000Z</time>
      </trkpt>
      <trkpt lat="49.42299" lon="1.24162">
        <ele>184</ele>
        <time>2016-05-01T09:42:04.000Z</time>
      </trkpt>
      <trkpt lat="49.42299" lon="1.24134">
        <ele>184</ele>
        <time>2016-05-01T09:42:06.000Z</time>
      </trkpt>
      <trkpt lat="49.42308" lon="1.24106">
        <ele>183</ele>
        <time>2016-05-01T09:42:11.000Z</time>
      </trkpt>
      <trkpt lat="49.42311" lon="1.24095">
        <ele>183</ele>
        <time>2016-05-01T09:42:13.000Z</time>
      </trkpt>
      <trkpt lat="49.42315" lon="1.2408">
        <ele>182</ele>
        <time>2016-05-01T09:42:15.000Z</time>
      </trkpt>
      <trkpt lat="49.42318" lon="1.24062">
        <ele>179</ele>
        <time>2016-05-01T09:42:17.000Z</time>
      </trkpt>
      <trkpt lat="49.42316" lon="1.24044">
        <ele>178</ele>
        <time>2016-05-01T09:42:19.000Z</time>
      </trkpt>
      <trkpt lat="49.42313" lon="1.24019">
        <ele>178</ele>
        <time>2016-05-01T09:42:21.000Z</time>
      </trkpt>
      <trkpt lat="49.42306" lon="1.23996">
        <ele>176</ele>
        <time>2016-05-01T09:42:23.000Z</time>
      </trkpt>
      <trkpt lat="49.42302" lon="1.2397">
        <ele>176</ele>
        <time>2016-05-01T09:42:25.000Z</time>
      </trkpt>
      <trkpt lat="49.42293" lon="1.23947">
        <ele>174</ele>
        <time>2016-05-01T09:42:27.000Z</time>
      </trkpt>
      <trkpt lat="49.4229" lon="1.23921">
        <ele>172</ele>
        <time>2016-05-01T09:42:29.000Z</time>
      </trkpt>
      <trkpt lat="49.42286" lon="1.23894">
        <ele>170</ele>
        <time>2016-05-01T09:42:31.000Z</time>
      </trkpt>
      <trkpt lat="49.42284" lon="1.23871">
        <ele>168</ele>
        <time>2016-05-01T09:42:33.000Z</time>
      </trkpt>
      <trkpt lat="49.42281" lon="1.23848">
        <ele>165</ele>
        <time>2016-05-01T09:42:35.000Z</time>
      </trkpt>
      <trkpt lat="49.42278" lon="1.23824">
        <ele>163</ele>
        <time>2016-05-01T09:42:37.000Z</time>
      </trkpt>
      <trkpt lat="49.42279" lon="1.23803">
        <ele>162</ele>
        <time>2016-05-01T09:42:39.000Z</time>
      </trkpt>
      <trkpt lat="49.42278" lon="1.23786">
        <ele>160</ele>
        <time>2016-05-01T09:42:41.000Z</time>
      </trkpt>
      <trkpt lat="49.42278" lon="1.23765">
        <ele>157</ele>
        <time>2016-05-01T09:42:43.000Z</time>
      </trkpt>
      <trkpt lat="49.42274" lon="1.23732">
        <ele>156</ele>
        <time>2016-05-01T09:42:46.000Z</time>
      </trkpt>
      <trkpt lat="49.42273" lon="1.23711">
        <ele>157</ele>
        <time>2016-05-01T09:42:48.000Z</time>
      </trkpt>
      <trkpt lat="49.42277" lon="1.23688">
        <ele>155</ele>
        <time>2016-05-01T09:42:50.000Z</time>
      </trkpt>
      <trkpt lat="49.42276" lon="1.23663">
        <ele>155</ele>
        <time>2016-05-01T09:42:52.000Z</time>
      </trkpt>
      <trkpt lat="49.42278" lon="1.23639">
        <ele>153</ele>
        <time>2016-05-01T09:42:54.000Z</time>
      </trkpt>
      <trkpt lat="49.42282" lon="1.23615">
        <ele>153</ele>
        <time>2016-05-01T09:42:56.000Z</time>
      </trkpt>
      <trkpt lat="49.42282" lon="1.23594">
        <ele>153</ele>
        <time>2016-05-01T09:42:58.000Z</time>
      </trkpt>
      <trkpt lat="49.42279" lon="1.23576">
        <ele>152</ele>
        <time>2016-05-01T09:43:00.000Z</time>
      </trkpt>
      <trkpt lat="49.42274" lon="1.23561">
        <ele>151</ele>
        <time>2016-05-01T09:43:02.000Z</time>
      </trkpt>
      <trkpt lat="49.4227" lon="1.23549">
        <ele>149</ele>
        <time>2016-05-01T09:43:05.000Z</time>
      </trkpt>
      <trkpt lat="49.42266" lon="1.23541">
        <ele>156</ele>
        <time>2016-05-01T09:43:07.000Z</time>
      </trkpt>
      <trkpt lat="49.42255" lon="1.23535">
        <ele>150</ele>
        <time>2016-05-01T09:43:09.000Z</time>
      </trkpt>
      <trkpt lat="49.42245" lon="1.23528">
        <ele>146</ele>
        <time>2016-05-01T09:43:11.000Z</time>
      </trkpt>
      <trkpt lat="49.42239" lon="1.23514">
        <ele>142</ele>
        <time>2016-05-01T09:43:13.000Z</time>
      </trkpt>
      <trkpt lat="49.42235" lon="1.23497">
        <ele>139</ele>
        <time>2016-05-01T09:43:15.000Z</time>
      </trkpt>
      <trkpt lat="49.42236" lon="1.2348">
        <ele>138</ele>
        <time>2016-05-01T09:43:17.000Z</time>
      </trkpt>
      <trkpt lat="49.42233" lon="1.2347">
        <ele>139</ele>
        <time>2016-05-01T09:43:20.000Z</time>
      </trkpt>
      <trkpt lat="49.42233" lon="1.2347">
        <ele>139</ele>
        <time>2016-05-01T09:43:22.000Z</time>
      </trkpt>
      <trkpt lat="49.42222" lon="1.23473">
        <ele>137</ele>
        <time>2016-05-01T09:43:24.000Z</time>
      </trkpt>
      <trkpt lat="49.42216" lon="1.23475">
        <ele>136</ele>
        <time>2016-05-01T09:43:26.000Z</time>
      </trkpt>
      <trkpt lat="49.42209" lon="1.23475">
        <ele>135</ele>
        <time>2016-05-01T09:43:28.000Z</time>
      </trkpt>
      <trkpt lat="49.42202" lon="1.23476">
        <ele>135</ele>
        <time>2016-05-01T09:43:30.000Z</time>
      </trkpt>
      <trkpt lat="49.42195" lon="1.23477">
        <ele>133</ele>
        <time>2016-05-01T09:43:32.000Z</time>
      </trkpt>
      <trkpt lat="49.42187" lon="1.23477">
        <ele>132</ele>
        <time>2016-05-01T09:43:34.000Z</time>
      </trkpt>
      <trkpt lat="49.42178" lon="1.23476">
        <ele>131</ele>
        <time>2016-05-01T09:43:36.000Z</time>
      </trkpt>
      <trkpt lat="49.42168" lon="1.23474">
        <ele>130</ele>
        <time>2016-05-01T09:43:38.000Z</time>
      </trkpt>
      <trkpt lat="49.42158" lon="1.23472">
        <ele>130</ele>
        <time>2016-05-01T09:43:40.000Z</time>
      </trkpt>
      <trkpt lat="49.42147" lon="1.23471">
        <ele>130</ele>
        <time>2016-05-01T09:43:42.000Z</time>
      </trkpt>
      <trkpt lat="49.42137" lon="1.23469">
        <ele>129</ele>
        <time>2016-05-01T09:43:44.000Z</time>
      </trkpt>
      <trkpt lat="49.42126" lon="1.23466">
        <ele>129</ele>
        <time>2016-05-01T09:43:46.000Z</time>
      </trkpt>
      <trkpt lat="49.42117" lon="1.23465">
        <ele>128</ele>
        <time>2016-05-01T09:43:48.000Z</time>
      </trkpt>
      <trkpt lat="49.42107" lon="1.23463">
        <ele>129</ele>
        <time>2016-05-01T09:43:50.000Z</time>
      </trkpt>
      <trkpt lat="49.42097" lon="1.23461">
        <ele>128</ele>
        <time>2016-05-01T09:43:52.000Z</time>
      </trkpt>
      <trkpt lat="49.42088" lon="1.2346">
        <ele>127</ele>
        <time>2016-05-01T09:43:54.000Z</time>
      </trkpt>
      <trkpt lat="49.42081" lon="1.23459">
        <ele>128</ele>
        <time>2016-05-01T09:43:56.000Z</time>
      </trkpt>
      <trkpt lat="49.42075" lon="1.23455">
        <ele>128</ele>
        <time>2016-05-01T09:43:58.000Z</time>
      </trkpt>
      <trkpt lat="49.42069" lon="1.23448">
        <ele>130</ele>
        <time>2016-05-01T09:44:00.000Z</time>
      </trkpt>
      <trkpt lat="49.42065" lon="1.23438">
        <ele>130</ele>
        <time>2016-05-01T09:44:02.000Z</time>
      </trkpt>
      <trkpt lat="49.42057" lon="1.23428">
        <ele>128</ele>
        <time>2016-05-01T09:44:04.000Z</time>
      </trkpt>
      <trkpt lat="49.42051" lon="1.2342">
        <ele>128</ele>
        <time>2016-05-01T09:44:06.000Z</time>
      </trkpt>
      <trkpt lat="49.42043" lon="1.23412">
        <ele>126</ele>
        <time>2016-05-01T09:44:08.000Z</time>
      </trkpt>
      <trkpt lat="49.42038" lon="1.23405">
        <ele>125</ele>
        <time>2016-05-01T09:44:10.000Z</time>
      </trkpt>
      <trkpt lat="49.42038" lon="1.23405">
        <ele>125</ele>
        <time>2016-05-01T09:44:12.000Z</time>
      </trkpt>
      <trkpt lat="49.4203" lon="1.23403">
        <ele>123</ele>
        <time>2016-05-01T09:44:14.000Z</time>
      </trkpt>
      <trkpt lat="49.4202" lon="1.23397">
        <ele>124</ele>
        <time>2016-05-01T09:44:18.000Z</time>
      </trkpt>
      <trkpt lat="49.42015" lon="1.23394">
        <ele>125</ele>
        <time>2016-05-01T09:44:20.000Z</time>
      </trkpt>
      <trkpt lat="49.42009" lon="1.2339">
        <ele>124</ele>
        <time>2016-05-01T09:44:22.000Z</time>
      </trkpt>
      <trkpt lat="49.42009" lon="1.2339">
        <ele>124</ele>
        <time>2016-05-01T09:44:24.000Z</time>
      </trkpt>
      <trkpt lat="49.42001" lon="1.2338">
        <ele>123</ele>
        <time>2016-05-01T09:44:26.000Z</time>
      </trkpt>
      <trkpt lat="49.41991" lon="1.23371">
        <ele>121</ele>
        <time>2016-05-01T09:44:30.000Z</time>
      </trkpt>
      <trkpt lat="49.41981" lon="1.23364">
        <ele>121</ele>
        <time>2016-05-01T09:44:34.000Z</time>
      </trkpt>
      <trkpt lat="49.41981" lon="1.23364">
        <ele>121</ele>
        <time>2016-05-01T09:44:36.000Z</time>
      </trkpt>
      <trkpt lat="49.41972" lon="1.23359">
        <ele>121</ele>
        <time>2016-05-01T09:44:38.000Z</time>
      </trkpt>
      <trkpt lat="49.41972" lon="1.23359">
        <ele>121</ele>
        <time>2016-05-01T09:44:40.000Z</time>
      </trkpt>
      <trkpt lat="49.41962" lon="1.23353">
        <ele>121</ele>
        <time>2016-05-01T09:44:42.000Z</time>
      </trkpt>
      <trkpt lat="49.41956" lon="1.23345">
        <ele>120</ele>
        <time>2016-05-01T09:44:46.000Z</time>
      </trkpt>
      <trkpt lat="49.41956" lon="1.23345">
        <ele>120</ele>
        <time>2016-05-01T09:44:48.000Z</time>
      </trkpt>
      <trkpt lat="49.41944" lon="1.23338">
        <ele>119</ele>
        <time>2016-05-01T09:44:50.000Z</time>
      </trkpt>
      <trkpt lat="49.41938" lon="1.23336">
        <ele>119</ele>
        <time>2016-05-01T09:44:52.000Z</time>
      </trkpt>
      <trkpt lat="49.41932" lon="1.23333">
        <ele>119</ele>
        <time>2016-05-01T09:44:54.000Z</time>
      </trkpt>
      <trkpt lat="49.41926" lon="1.23329">
        <ele>119</ele>
        <time>2016-05-01T09:44:56.000Z</time>
      </trkpt>
      <trkpt lat="49.4192" lon="1.23325">
        <ele>120</ele>
        <time>2016-05-01T09:44:58.000Z</time>
      </trkpt>
      <trkpt lat="49.4192" lon="1.23325">
        <ele>120</ele>
        <time>2016-05-01T09:45:00.000Z</time>
      </trkpt>
      <trkpt lat="49.41911" lon="1.23315">
        <ele>120</ele>
        <time>2016-05-01T09:45:02.000Z</time>
      </trkpt>
      <trkpt lat="49.41905" lon="1.23313">
        <ele>121</ele>
        <time>2016-05-01T09:45:04.000Z</time>
      </trkpt>
      <trkpt lat="49.41899" lon="1.2331">
        <ele>123</ele>
        <time>2016-05-01T09:45:06.000Z</time>
      </trkpt>
      <trkpt lat="49.41893" lon="1.23308">
        <ele>123</ele>
        <time>2016-05-01T09:45:08.000Z</time>
      </trkpt>
      <trkpt lat="49.41893" lon="1.23308">
        <ele>123</ele>
        <time>2016-05-01T09:45:10.000Z</time>
      </trkpt>
      <trkpt lat="49.41883" lon="1.23303">
        <ele>121</ele>
        <time>2016-05-01T09:45:12.000Z</time>
      </trkpt>
      <trkpt lat="49.41883" lon="1.23303">
        <ele>121</ele>
        <time>2016-05-01T09:45:14.000Z</time>
      </trkpt>
      <trkpt lat="49.41874" lon="1.23295">
        <ele>121</ele>
        <time>2016-05-01T09:45:16.000Z</time>
      </trkpt>
      <trkpt lat="49.41874" lon="1.23295">
        <ele>121</ele>
        <time>2016-05-01T09:45:18.000Z</time>
      </trkpt>
      <trkpt lat="49.41866" lon="1.23289">
        <ele>122</ele>
        <time>2016-05-01T09:45:20.000Z</time>
      </trkpt>
      <trkpt lat="49.4186" lon="1.23285">
        <ele>123</ele>
        <time>2016-05-01T09:45:22.000Z</time>
      </trkpt>
      <trkpt lat="49.41848" lon="1.23278">
        <ele>123</ele>
        <time>2016-05-01T09:45:26.000Z</time>
      </trkpt>
      <trkpt lat="49.41839" lon="1.23272">
        <ele>123</ele>
        <time>2016-05-01T09:45:30.000Z</time>
      </trkpt>
      <trkpt lat="49.41839" lon="1.23272">
        <ele>123</ele>
        <time>2016-05-01T09:45:32.000Z</time>
      </trkpt>
      <trkpt lat="49.41833" lon="1.23267">
        <ele>119</ele>
        <time>2016-05-01T09:45:34.000Z</time>
      </trkpt>
      <trkpt lat="49.41833" lon="1.23267">
        <ele>119</ele>
        <time>2016-05-01T09:45:36.000Z</time>
      </trkpt>
      <trkpt lat="49.41821" lon="1.23261">
        <ele>120</ele>
        <time>2016-05-01T09:45:38.000Z</time>
      </trkpt>
      <trkpt lat="49.41816" lon="1.23258">
        <ele>121</ele>
        <time>2016-05-01T09:45:40.000Z</time>
      </trkpt>
      <trkpt lat="49.41816" lon="1.23258">
        <ele>121</ele>
        <time>2016-05-01T09:45:42.000Z</time>
      </trkpt>
      <trkpt lat="49.4181" lon="1.2325">
        <ele>123</ele>
        <time>2016-05-01T09:45:44.000Z</time>
      </trkpt>
      <trkpt lat="49.41803" lon="1.23238">
        <ele>121</ele>
        <time>2016-05-01T09:45:48.000Z</time>
      </trkpt>
      <trkpt lat="49.41795" lon="1.23228">
        <ele>122</ele>
        <time>2016-05-01T09:45:52.000Z</time>
      </trkpt>
      <trkpt lat="49.4179" lon="1.23224">
        <ele>123</ele>
        <time>2016-05-01T09:45:54.000Z</time>
      </trkpt>
      <trkpt lat="49.4179" lon="1.23224">
        <ele>123</ele>
        <time>2016-05-01T09:45:56.000Z</time>
      </trkpt>
      <trkpt lat="49.41783" lon="1.23216">
        <ele>123</ele>
        <time>2016-05-01T09:45:58.000Z</time>
      </trkpt>
      <trkpt lat="49.41783" lon="1.23216">
        <ele>123</ele>
        <time>2016-05-01T09:46:00.000Z</time>
      </trkpt>
      <trkpt lat="49.41774" lon="1.23208">
        <ele>123</ele>
        <time>2016-05-01T09:46:02.000Z</time>
      </trkpt>
      <trkpt lat="49.41768" lon="1.23199">
        <ele>126</ele>
        <time>2016-05-01T09:46:06.000Z</time>
      </trkpt>
      <trkpt lat="49.41768" lon="1.23199">
        <ele>126</ele>
        <time>2016-05-01T09:46:08.000Z</time>
      </trkpt>
      <trkpt lat="49.41762" lon="1.23193">
        <ele>128</ele>
        <time>2016-05-01T09:46:10.000Z</time>
      </trkpt>
      <trkpt lat="49.41762" lon="1.23193">
        <ele>128</ele>
        <time>2016-05-01T09:46:12.000Z</time>
      </trkpt>
      <trkpt lat="49.41755" lon="1.23188">
        <ele>131</ele>
        <time>2016-05-01T09:46:14.000Z</time>
      </trkpt>
      <trkpt lat="49.41748" lon="1.23182">
        <ele>131</ele>
        <time>2016-05-01T09:46:18.000Z</time>
      </trkpt>
      <trkpt lat="49.41745" lon="1.23179">
        <ele>129</ele>
        <time>2016-05-01T09:46:22.000Z</time>
      </trkpt>
      <trkpt lat="49.41743" lon="1.23175">
        <ele>130</ele>
        <time>2016-05-01T09:46:24.000Z</time>
      </trkpt>
      <trkpt lat="49.4174" lon="1.23172">
        <ele>129</ele>
        <time>2016-05-01T09:46:26.000Z</time>
      </trkpt>
      <trkpt lat="49.41737" lon="1.23168">
        <ele>128</ele>
        <time>2016-05-01T09:46:28.000Z</time>
      </trkpt>
      <trkpt lat="49.41734" lon="1.23164">
        <ele>128</ele>
        <time>2016-05-01T09:46:30.000Z</time>
      </trkpt>
      <trkpt lat="49.41726" lon="1.23156">
        <ele>127</ele>
        <time>2016-05-01T09:46:32.000Z</time>
      </trkpt>
      <trkpt lat="49.41717" lon="1.23147">
        <ele>123</ele>
        <time>2016-05-01T09:46:36.000Z</time>
      </trkpt>
      <trkpt lat="49.41717" lon="1.23147">
        <ele>123</ele>
        <time>2016-05-01T09:46:38.000Z</time>
      </trkpt>
      <trkpt lat="49.4171" lon="1.23141">
        <ele>122</ele>
        <time>2016-05-01T09:46:40.000Z</time>
      </trkpt>
      <trkpt lat="49.4171" lon="1.23141">
        <ele>122</ele>
        <time>2016-05-01T09:46:42.000Z</time>
      </trkpt>
      <trkpt lat="49.41701" lon="1.23135">
        <ele>120</ele>
        <time>2016-05-01T09:46:44.000Z</time>
      </trkpt>
      <trkpt lat="49.41692" lon="1.23128">
        <ele>121</ele>
        <time>2016-05-01T09:46:48.000Z</time>
      </trkpt>
      <trkpt lat="49.41692" lon="1.23128">
        <ele>121</ele>
        <time>2016-05-01T09:46:50.000Z</time>
      </trkpt>
      <trkpt lat="49.41685" lon="1.23119">
        <ele>122</ele>
        <time>2016-05-01T09:46:52.000Z</time>
      </trkpt>
      <trkpt lat="49.41676" lon="1.23112">
        <ele>122</ele>
        <time>2016-05-01T09:46:56.000Z</time>
      </trkpt>
      <trkpt lat="49.41671" lon="1.23107">
        <ele>122</ele>
        <time>2016-05-01T09:46:58.000Z</time>
      </trkpt>
      <trkpt lat="49.41671" lon="1.23107">
        <ele>122</ele>
        <time>2016-05-01T09:47:00.000Z</time>
      </trkpt>
      <trkpt lat="49.41661" lon="1.231">
        <ele>122</ele>
        <time>2016-05-01T09:47:02.000Z</time>
      </trkpt>
      <trkpt lat="49.41661" lon="1.231">
        <ele>122</ele>
        <time>2016-05-01T09:47:04.000Z</time>
      </trkpt>
      <trkpt lat="49.41654" lon="1.23091">
        <ele>121</ele>
        <time>2016-05-01T09:47:06.000Z</time>
      </trkpt>
      <trkpt lat="49.41646" lon="1.23082">
        <ele>121</ele>
        <time>2016-05-01T09:47:10.000Z</time>
      </trkpt>
      <trkpt lat="49.41638" lon="1.23071">
        <ele>121</ele>
        <time>2016-05-01T09:47:14.000Z</time>
      </trkpt>
      <trkpt lat="49.41638" lon="1.23071">
        <ele>121</ele>
        <time>2016-05-01T09:47:16.000Z</time>
      </trkpt>
      <trkpt lat="49.4163" lon="1.2306">
        <ele>120</ele>
        <time>2016-05-01T09:47:18.000Z</time>
      </trkpt>
      <trkpt lat="49.4162" lon="1.23052">
        <ele>120</ele>
        <time>2016-05-01T09:47:22.000Z</time>
      </trkpt>
      <trkpt lat="49.41614" lon="1.23047">
        <ele>119</ele>
        <time>2016-05-01T09:47:24.000Z</time>
      </trkpt>
      <trkpt lat="49.41608" lon="1.23041">
        <ele>119</ele>
        <time>2016-05-01T09:47:26.000Z</time>
      </trkpt>
      <trkpt lat="49.41603" lon="1.23035">
        <ele>119</ele>
        <time>2016-05-01T09:47:28.000Z</time>
      </trkpt>
      <trkpt lat="49.41597" lon="1.23029">
        <ele>119</ele>
        <time>2016-05-01T09:47:30.000Z</time>
      </trkpt>
      <trkpt lat="49.41592" lon="1.23023">
        <ele>118</ele>
        <time>2016-05-01T09:47:32.000Z</time>
      </trkpt>
      <trkpt lat="49.41586" lon="1.23016">
        <ele>119</ele>
        <time>2016-05-01T09:47:34.000Z</time>
      </trkpt>
      <trkpt lat="49.41579" lon="1.23008">
        <ele>120</ele>
        <time>2016-05-01T09:47:36.000Z</time>
      </trkpt>
      <trkpt lat="49.41573" lon="1.23001">
        <ele>121</ele>
        <time>2016-05-01T09:47:38.000Z</time>
      </trkpt>
      <trkpt lat="49.41568" lon="1.22993">
        <ele>122</ele>
        <time>2016-05-01T09:47:40.000Z</time>
      </trkpt>
      <trkpt lat="49.41562" lon="1.22982">
        <ele>122</ele>
        <time>2016-05-01T09:47:42.000Z</time>
      </trkpt>
      <trkpt lat="49.41557" lon="1.22971">
        <ele>121</ele>
        <time>2016-05-01T09:47:44.000Z</time>
      </trkpt>
      <trkpt lat="49.41553" lon="1.2296">
        <ele>121</ele>
        <time>2016-05-01T09:47:46.000Z</time>
      </trkpt>
      <trkpt lat="49.41549" lon="1.22947">
        <ele>122</ele>
        <time>2016-05-01T09:47:48.000Z</time>
      </trkpt>
      <trkpt lat="49.41544" lon="1.22935">
        <ele>122</ele>
        <time>2016-05-01T09:47:50.000Z</time>
      </trkpt>
      <trkpt lat="49.41536" lon="1.22923">
        <ele>120</ele>
        <time>2016-05-01T09:47:52.000Z</time>
      </trkpt>
      <trkpt lat="49.41528" lon="1.22913">
        <ele>119</ele>
        <time>2016-05-01T09:47:54.000Z</time>
      </trkpt>
      <trkpt lat="49.4152" lon="1.22906">
        <ele>118</ele>
        <time>2016-05-01T09:47:56.000Z</time>
      </trkpt>
      <trkpt lat="49.41513" lon="1.22901">
        <ele>117</ele>
        <time>2016-05-01T09:47:58.000Z</time>
      </trkpt>
      <trkpt lat="49.41502" lon="1.22899">
        <ele>114</ele>
        <time>2016-05-01T09:48:00.000Z</time>
      </trkpt>
      <trkpt lat="49.41496" lon="1.22895">
        <ele>114</ele>
        <time>2016-05-01T09:48:02.000Z</time>
      </trkpt>
      <trkpt lat="49.41489" lon="1.22888">
        <ele>112</ele>
        <time>2016-05-01T09:48:04.000Z</time>
      </trkpt>
      <trkpt lat="49.41486" lon="1.22879">
        <ele>112</ele>
        <time>2016-05-01T09:48:06.000Z</time>
      </trkpt>
      <trkpt lat="49.41483" lon="1.2287">
        <ele>113</ele>
        <time>2016-05-01T09:48:08.000Z</time>
      </trkpt>
      <trkpt lat="49.41479" lon="1.22863">
        <ele>113</ele>
        <time>2016-05-01T09:48:10.000Z</time>
      </trkpt>
      <trkpt lat="49.41477" lon="1.22852">
        <ele>113</ele>
        <time>2016-05-01T09:48:12.000Z</time>
      </trkpt>
      <trkpt lat="49.41477" lon="1.22839">
        <ele>114</ele>
        <time>2016-05-01T09:48:14.000Z</time>
      </trkpt>
      <trkpt lat="49.41477" lon="1.22827">
        <ele>113</ele>
        <time>2016-05-01T09:48:16.000Z</time>
      </trkpt>
      <trkpt lat="49.41476" lon="1.22814">
        <ele>113</ele>
        <time>2016-05-01T09:48:18.000Z</time>
      </trkpt>
      <trkpt lat="49.41475" lon="1.22801">
        <ele>113</ele>
        <time>2016-05-01T09:48:20.000Z</time>
      </trkpt>
      <trkpt lat="49.41474" lon="1.22787">
        <ele>113</ele>
        <time>2016-05-01T09:48:22.000Z</time>
      </trkpt>
      <trkpt lat="49.41473" lon="1.22774">
        <ele>113</ele>
        <time>2016-05-01T09:48:24.000Z</time>
      </trkpt>
      <trkpt lat="49.41471" lon="1.22761">
        <ele>113</ele>
        <time>2016-05-01T09:48:26.000Z</time>
      </trkpt>
      <trkpt lat="49.4147" lon="1.22748">
        <ele>113</ele>
        <time>2016-05-01T09:48:28.000Z</time>
      </trkpt>
      <trkpt lat="49.4147" lon="1.22735">
        <ele>113</ele>
        <time>2016-05-01T09:48:30.000Z</time>
      </trkpt>
      <trkpt lat="49.41468" lon="1.22722">
        <ele>112</ele>
        <time>2016-05-01T09:48:32.000Z</time>
      </trkpt>
      <trkpt lat="49.41468" lon="1.22708">
        <ele>112</ele>
        <time>2016-05-01T09:48:34.000Z</time>
      </trkpt>
      <trkpt lat="49.41468" lon="1.22695">
        <ele>112</ele>
        <time>2016-05-01T09:48:36.000Z</time>
      </trkpt>
      <trkpt lat="49.41467" lon="1.22681">
        <ele>112</ele>
        <time>2016-05-01T09:48:38.000Z</time>
      </trkpt>
      <trkpt lat="49.41468" lon="1.22667">
        <ele>112</ele>
        <time>2016-05-01T09:48:40.000Z</time>
      </trkpt>
      <trkpt lat="49.41467" lon="1.22653">
        <ele>113</ele>
        <time>2016-05-01T09:48:42.000Z</time>
      </trkpt>
      <trkpt lat="49.41468" lon="1.22639">
        <ele>113</ele>
        <time>2016-05-01T09:48:44.000Z</time>
      </trkpt>
      <trkpt lat="49.41469" lon="1.22625">
        <ele>113</ele>
        <time>2016-05-01T09:48:46.000Z</time>
      </trkpt>
      <trkpt lat="49.41471" lon="1.2261">
        <ele>113</ele>
        <time>2016-05-01T09:48:48.000Z</time>
      </trkpt>
      <trkpt lat="49.41474" lon="1.22596">
        <ele>113</ele>
        <time>2016-05-01T09:48:50.000Z</time>
      </trkpt>
      <trkpt lat="49.41478" lon="1.22583">
        <ele>113</ele>
        <time>2016-05-01T09:48:52.000Z</time>
      </trkpt>
      <trkpt lat="49.41479" lon="1.22569">
        <ele>112</ele>
        <time>2016-05-01T09:48:54.000Z</time>
      </trkpt>
      <trkpt lat="49.4148" lon="1.22555">
        <ele>112</ele>
        <time>2016-05-01T09:48:56.000Z</time>
      </trkpt>
      <trkpt lat="49.41479" lon="1.22541">
        <ele>112</ele>
        <time>2016-05-01T09:48:58.000Z</time>
      </trkpt>
      <trkpt lat="49.41478" lon="1.22528">
        <ele>112</ele>
        <time>2016-05-01T09:49:00.000Z</time>
      </trkpt>
      <trkpt lat="49.41476" lon="1.22515">
        <ele>112</ele>
        <time>2016-05-01T09:49:02.000Z</time>
      </trkpt>
      <trkpt lat="49.41475" lon="1.225">
        <ele>112</ele>
        <time>2016-05-01T09:49:04.000Z</time>
      </trkpt>
      <trkpt lat="49.41475" lon="1.22485">
        <ele>112</ele>
        <time>2016-05-01T09:49:06.000Z</time>
      </trkpt>
      <trkpt lat="49.41476" lon="1.2247">
        <ele>112</ele>
        <time>2016-05-01T09:49:08.000Z</time>
      </trkpt>
      <trkpt lat="49.41476" lon="1.22455">
        <ele>112</ele>
        <time>2016-05-01T09:49:10.000Z</time>
      </trkpt>
      <trkpt lat="49.41478" lon="1.22439">
        <ele>112</ele>
        <time>2016-05-01T09:49:12.000Z</time>
      </trkpt>
      <trkpt lat="49.41479" lon="1.22425">
        <ele>112</ele>
        <time>2016-05-01T09:49:14.000Z</time>
      </trkpt>
      <trkpt lat="49.41481" lon="1.22409">
        <ele>112</ele>
        <time>2016-05-01T09:49:16.000Z</time>
      </trkpt>
      <trkpt lat="49.41482" lon="1.22394">
        <ele>112</ele>
        <time>2016-05-01T09:49:18.000Z</time>
      </trkpt>
      <trkpt lat="49.41484" lon="1.22379">
        <ele>112</ele>
        <time>2016-05-01T09:49:20.000Z</time>
      </trkpt>
      <trkpt lat="49.41487" lon="1.22365">
        <ele>112</ele>
        <time>2016-05-01T09:49:22.000Z</time>
      </trkpt>
      <trkpt lat="49.41489" lon="1.22351">
        <ele>112</ele>
        <time>2016-05-01T09:49:24.000Z</time>
      </trkpt>
      <trkpt lat="49.41491" lon="1.22335">
        <ele>112</ele>
        <time>2016-05-01T09:49:26.000Z</time>
      </trkpt>
      <trkpt lat="49.41493" lon="1.22321">
        <ele>112</ele>
        <time>2016-05-01T09:49:28.000Z</time>
      </trkpt>
      <trkpt lat="49.41496" lon="1.22306">
        <ele>112</ele>
        <time>2016-05-01T09:49:30.000Z</time>
      </trkpt>
      <trkpt lat="49.41498" lon="1.22292">
        <ele>112</ele>
        <time>2016-05-01T09:49:32.000Z</time>
      </trkpt>
      <trkpt lat="49.41502" lon="1.22278">
        <ele>113</ele>
        <time>2016-05-01T09:49:34.000Z</time>
      </trkpt>
      <trkpt lat="49.41505" lon="1.22264">
        <ele>113</ele>
        <time>2016-05-01T09:49:36.000Z</time>
      </trkpt>
      <trkpt lat="49.41508" lon="1.22249">
        <ele>113</ele>
        <time>2016-05-01T09:49:38.000Z</time>
      </trkpt>
      <trkpt lat="49.41509" lon="1.22235">
        <ele>113</ele>
        <time>2016-05-01T09:49:40.000Z</time>
      </trkpt>
      <trkpt lat="49.4151" lon="1.2222">
        <ele>113</ele>
        <time>2016-05-01T09:49:42.000Z</time>
      </trkpt>
      <trkpt lat="49.41512" lon="1.22205">
        <ele>113</ele>
        <time>2016-05-01T09:49:44.000Z</time>
      </trkpt>
      <trkpt lat="49.41513" lon="1.2219">
        <ele>114</ele>
        <time>2016-05-01T09:49:46.000Z</time>
      </trkpt>
      <trkpt lat="49.41514" lon="1.22176">
        <ele>114</ele>
        <time>2016-05-01T09:49:48.000Z</time>
      </trkpt>
      <trkpt lat="49.41516" lon="1.2216">
        <ele>114</ele>
        <time>2016-05-01T09:49:50.000Z</time>
      </trkpt>
      <trkpt lat="49.41518" lon="1.22143">
        <ele>114</ele>
        <time>2016-05-01T09:49:52.000Z</time>
      </trkpt>
      <trkpt lat="49.41521" lon="1.22126">
        <ele>114</ele>
        <time>2016-05-01T09:49:54.000Z</time>
      </trkpt>
      <trkpt lat="49.41523" lon="1.2211">
        <ele>114</ele>
        <time>2016-05-01T09:49:56.000Z</time>
      </trkpt>
      <trkpt lat="49.41525" lon="1.22094">
        <ele>114</ele>
        <time>2016-05-01T09:49:58.000Z</time>
      </trkpt>
      <trkpt lat="49.41527" lon="1.22079">
        <ele>114</ele>
        <time>2016-05-01T09:50:00.000Z</time>
      </trkpt>
      <trkpt lat="49.41528" lon="1.22063">
        <ele>114</ele>
        <time>2016-05-01T09:50:02.000Z</time>
      </trkpt>
      <trkpt lat="49.41528" lon="1.22047">
        <ele>113</ele>
        <time>2016-05-01T09:50:04.000Z</time>
      </trkpt>
      <trkpt lat="49.41528" lon="1.22031">
        <ele>113</ele>
        <time>2016-05-01T09:50:06.000Z</time>
      </trkpt>
      <trkpt lat="49.41526" lon="1.22014">
        <ele>112</ele>
        <time>2016-05-01T09:50:08.000Z</time>
      </trkpt>
      <trkpt lat="49.41526" lon="1.21998">
        <ele>112</ele>
        <time>2016-05-01T09:50:10.000Z</time>
      </trkpt>
      <trkpt lat="49.41526" lon="1.21982">
        <ele>112</ele>
        <time>2016-05-01T09:50:12.000Z</time>
      </trkpt>
      <trkpt lat="49.41525" lon="1.21966">
        <ele>112</ele>
        <time>2016-05-01T09:50:14.000Z</time>
      </trkpt>
      <trkpt lat="49.41524" lon="1.21951">
        <ele>112</ele>
        <time>2016-05-01T09:50:16.000Z</time>
      </trkpt>
      <trkpt lat="49.41523" lon="1.21936">
        <ele>112</ele>
        <time>2016-05-01T09:50:18.000Z</time>
      </trkpt>
      <trkpt lat="49.41523" lon="1.2192">
        <ele>113</ele>
        <time>2016-05-01T09:50:20.000Z</time>
      </trkpt>
      <trkpt lat="49.41522" lon="1.21906">
        <ele>112</ele>
        <time>2016-05-01T09:50:22.000Z</time>
      </trkpt>
      <trkpt lat="49.4152" lon="1.21892">
        <ele>112</ele>
        <time>2016-05-01T09:50:24.000Z</time>
      </trkpt>
      <trkpt lat="49.41518" lon="1.2188">
        <ele>111</ele>
        <time>2016-05-01T09:50:26.000Z</time>
      </trkpt>
      <trkpt lat="49.41514" lon="1.21871">
        <ele>110</ele>
        <time>2016-05-01T09:50:28.000Z</time>
      </trkpt>
      <trkpt lat="49.41514" lon="1.21871">
        <ele>110</ele>
        <time>2016-05-01T09:50:30.000Z</time>
      </trkpt>
      <trkpt lat="49.41508" lon="1.21868">
        <ele>111</ele>
        <time>2016-05-01T09:50:32.000Z</time>
      </trkpt>
      <trkpt lat="49.41508" lon="1.21868">
        <ele>111</ele>
        <time>2016-05-01T09:50:34.000Z</time>
      </trkpt>
      <trkpt lat="49.41508" lon="1.21868">
        <ele>111</ele>
        <time>2016-05-01T09:50:36.000Z</time>
      </trkpt>
      <trkpt lat="49.41507" lon="1.21857">
        <ele>110</ele>
        <time>2016-05-01T09:50:40.000Z</time>
      </trkpt>
      <trkpt lat="49.41507" lon="1.21857">
        <ele>110</ele>
        <time>2016-05-01T09:50:42.000Z</time>
      </trkpt>
      <trkpt lat="49.41507" lon="1.21857">
        <ele>110</ele>
        <time>2016-05-01T09:50:44.000Z</time>
      </trkpt>
      <trkpt lat="49.41507" lon="1.21857">
        <ele>110</ele>
        <time>2016-05-01T09:50:56.000Z</time>
      </trkpt>
      <trkpt lat="49.41507" lon="1.21857">
        <ele>110</ele>
        <time>2016-05-01T09:50:58.000Z</time>
      </trkpt>
      <trkpt lat="49.41508" lon="1.21859">
        <ele>111</ele>
        <time>2016-05-01T09:54:02.000Z</time>
      </trkpt>
      <trkpt lat="49.41508" lon="1.21859">
        <ele>111</ele>
        <time>2016-05-01T09:54:04.000Z</time>
      </trkpt>
      <trkpt lat="49.41508" lon="1.21859">
        <ele>111</ele>
        <time>2016-05-01T09:54:06.000Z</time>
      </trkpt>
      <trkpt lat="49.41508" lon="1.21859">
        <ele>111</ele>
        <time>2016-05-01T09:54:08.000Z</time>
      </trkpt>
      <trkpt lat="49.41508" lon="1.21859">
        <ele>111</ele>
        <time>2016-05-01T09:54:10.000Z</time>
      </trkpt>
      <trkpt lat="49.41507" lon="1.21856">
        <ele>111</ele>
        <time>2016-05-01T09:55:21.000Z</time>
      </trkpt>
      <trkpt lat="49.41507" lon="1.21856">
        <ele>111</ele>
        <time>2016-05-01T09:55:23.000Z</time>
      </trkpt>
      <trkpt lat="49.41507" lon="1.21856">
        <ele>111</ele>
        <time>2016-05-01T09:55:25.000Z</time>
      </trkpt>
      <trkpt lat="49.41507" lon="1.21856">
        <ele>111</ele>
        <time>2016-05-01T09:55:31.000Z</time>
      </trkpt>
      <trkpt lat="49.41507" lon="1.21868">
        <ele>112</ele>
        <time>2016-05-01T09:57:11.000Z</time>
      </trkpt>
      <trkpt lat="49.41507" lon="1.21868">
        <ele>112</ele>
        <time>2016-05-01T09:57:17.000Z</time>
      </trkpt>
      <trkpt lat="49.41507" lon="1.21868">
        <ele>112</ele>
        <time>2016-05-01T09:57:19.000Z</time>
      </trkpt>
      <trkpt lat="49.41505" lon="1.21841">
        <ele>112</ele>
        <time>2016-05-01T10:00:31.000Z</time>
      </trkpt>
      <trkpt lat="49.41504" lon="1.21813">
        <ele>112</ele>
        <time>2016-05-01T10:00:35.000Z</time>
      </trkpt>
      <trkpt lat="49.41501" lon="1.21798">
        <ele>112</ele>
        <time>2016-05-01T10:00:37.000Z</time>
      </trkpt>
      <trkpt lat="49.41498" lon="1.21783">
        <ele>112</ele>
        <time>2016-05-01T10:00:39.000Z</time>
      </trkpt>
      <trkpt lat="49.41493" lon="1.21768">
        <ele>111</ele>
        <time>2016-05-01T10:00:41.000Z</time>
      </trkpt>
      <trkpt lat="49.41489" lon="1.21753">
        <ele>111</ele>
        <time>2016-05-01T10:00:43.000Z</time>
      </trkpt>
      <trkpt lat="49.41484" lon="1.21738">
        <ele>110</ele>
        <time>2016-05-01T10:00:45.000Z</time>
      </trkpt>
      <trkpt lat="49.41478" lon="1.21723">
        <ele>110</ele>
        <time>2016-05-01T10:00:47.000Z</time>
      </trkpt>
      <trkpt lat="49.41473" lon="1.21708">
        <ele>110</ele>
        <time>2016-05-01T10:00:49.000Z</time>
      </trkpt>
      <trkpt lat="49.41467" lon="1.21693">
        <ele>110</ele>
        <time>2016-05-01T10:00:51.000Z</time>
      </trkpt>
      <trkpt lat="49.41461" lon="1.21678">
        <ele>110</ele>
        <time>2016-05-01T10:00:53.000Z</time>
      </trkpt>
      <trkpt lat="49.41455" lon="1.21663">
        <ele>109</ele>
        <time>2016-05-01T10:00:55.000Z</time>
      </trkpt>
      <trkpt lat="49.41451" lon="1.21647">
        <ele>108</ele>
        <time>2016-05-01T10:00:57.000Z</time>
      </trkpt>
      <trkpt lat="49.41448" lon="1.2163">
        <ele>109</ele>
        <time>2016-05-01T10:00:59.000Z</time>
      </trkpt>
      <trkpt lat="49.41444" lon="1.21612">
        <ele>109</ele>
        <time>2016-05-01T10:01:01.000Z</time>
      </trkpt>
      <trkpt lat="49.41441" lon="1.21593">
        <ele>109</ele>
        <time>2016-05-01T10:01:03.000Z</time>
      </trkpt>
      <trkpt lat="49.4144" lon="1.21574">
        <ele>109</ele>
        <time>2016-05-01T10:01:05.000Z</time>
      </trkpt>
      <trkpt lat="49.41438" lon="1.21554">
        <ele>109</ele>
        <time>2016-05-01T10:01:07.000Z</time>
      </trkpt>
      <trkpt lat="49.41436" lon="1.21535">
        <ele>108</ele>
        <time>2016-05-01T10:01:09.000Z</time>
      </trkpt>
      <trkpt lat="49.41435" lon="1.21515">
        <ele>108</ele>
        <time>2016-05-01T10:01:11.000Z</time>
      </trkpt>
      <trkpt lat="49.41433" lon="1.21496">
        <ele>109</ele>
        <time>2016-05-01T10:01:13.000Z</time>
      </trkpt>
      <trkpt lat="49.41433" lon="1.21477">
        <ele>109</ele>
        <time>2016-05-01T10:01:15.000Z</time>
      </trkpt>
      <trkpt lat="49.41432" lon="1.21457">
        <ele>109</ele>
        <time>2016-05-01T10:01:17.000Z</time>
      </trkpt>
      <trkpt lat="49.41432" lon="1.21436">
        <ele>108</ele>
        <time>2016-05-01T10:01:19.000Z</time>
      </trkpt>
      <trkpt lat="49.41433" lon="1.21415">
        <ele>108</ele>
        <time>2016-05-01T10:01:21.000Z</time>
      </trkpt>
      <trkpt lat="49.41436" lon="1.21395">
        <ele>107</ele>
        <time>2016-05-01T10:01:23.000Z</time>
      </trkpt>
      <trkpt lat="49.41439" lon="1.21373">
        <ele>107</ele>
        <time>2016-05-01T10:01:25.000Z</time>
      </trkpt>
      <trkpt lat="49.41443" lon="1.21349">
        <ele>107</ele>
        <time>2016-05-01T10:01:27.000Z</time>
      </trkpt>
      <trkpt lat="49.41448" lon="1.21324">
        <ele>107</ele>
        <time>2016-05-01T10:01:29.000Z</time>
      </trkpt>
      <trkpt lat="49.41452" lon="1.213">
        <ele>107</ele>
        <time>2016-05-01T10:01:31.000Z</time>
      </trkpt>
      <trkpt lat="49.41457" lon="1.21278">
        <ele>107</ele>
        <time>2016-05-01T10:01:33.000Z</time>
      </trkpt>
      <trkpt lat="49.4146" lon="1.21257">
        <ele>107</ele>
        <time>2016-05-01T10:01:35.000Z</time>
      </trkpt>
      <trkpt lat="49.41465" lon="1.21239">
        <ele>107</ele>
        <time>2016-05-01T10:01:37.000Z</time>
      </trkpt>
      <trkpt lat="49.41468" lon="1.21223">
        <ele>107</ele>
        <time>2016-05-01T10:01:39.000Z</time>
      </trkpt>
      <trkpt lat="49.41471" lon="1.21209">
        <ele>107</ele>
        <time>2016-05-01T10:01:41.000Z</time>
      </trkpt>
      <trkpt lat="49.41475" lon="1.21197">
        <ele>108</ele>
        <time>2016-05-01T10:01:43.000Z</time>
      </trkpt>
      <trkpt lat="49.41479" lon="1.21186">
        <ele>108</ele>
        <time>2016-05-01T10:01:45.000Z</time>
      </trkpt>
      <trkpt lat="49.41479" lon="1.21186">
        <ele>108</ele>
        <time>2016-05-01T10:01:47.000Z</time>
      </trkpt>
      <trkpt lat="49.41484" lon="1.21173">
        <ele>108</ele>
        <time>2016-05-01T10:01:49.000Z</time>
      </trkpt>
      <trkpt lat="49.41484" lon="1.21173">
        <ele>108</ele>
        <time>2016-05-01T10:01:51.000Z</time>
      </trkpt>
      <trkpt lat="49.41476" lon="1.21169">
        <ele>110</ele>
        <time>2016-05-01T10:01:53.000Z</time>
      </trkpt>
      <trkpt lat="49.41466" lon="1.21167">
        <ele>110</ele>
        <time>2016-05-01T10:01:57.000Z</time>
      </trkpt>
      <trkpt lat="49.4146" lon="1.21165">
        <ele>110</ele>
        <time>2016-05-01T10:01:59.000Z</time>
      </trkpt>
      <trkpt lat="49.4145" lon="1.21162">
        <ele>112</ele>
        <time>2016-05-01T10:02:03.000Z</time>
      </trkpt>
      <trkpt lat="49.4145" lon="1.21162">
        <ele>112</ele>
        <time>2016-05-01T10:02:05.000Z</time>
      </trkpt>
      <trkpt lat="49.41439" lon="1.2116">
        <ele>113</ele>
        <time>2016-05-01T10:02:07.000Z</time>
      </trkpt>
      <trkpt lat="49.41429" lon="1.21158">
        <ele>113</ele>
        <time>2016-05-01T10:02:11.000Z</time>
      </trkpt>
      <trkpt lat="49.41429" lon="1.21158">
        <ele>113</ele>
        <time>2016-05-01T10:02:13.000Z</time>
      </trkpt>
      <trkpt lat="49.41419" lon="1.21156">
        <ele>114</ele>
        <time>2016-05-01T10:02:15.000Z</time>
      </trkpt>
      <trkpt lat="49.41419" lon="1.21156">
        <ele>114</ele>
        <time>2016-05-01T10:02:17.000Z</time>
      </trkpt>
      <trkpt lat="49.4141" lon="1.21154">
        <ele>116</ele>
        <time>2016-05-01T10:02:19.000Z</time>
      </trkpt>
      <trkpt lat="49.41406" lon="1.21132">
        <ele>115</ele>
        <time>2016-05-01T10:02:24.000Z</time>
      </trkpt>
      <trkpt lat="49.41407" lon="1.21122">
        <ele>115</ele>
        <time>2016-05-01T10:02:26.000Z</time>
      </trkpt>
      <trkpt lat="49.41407" lon="1.21113">
        <ele>115</ele>
        <time>2016-05-01T10:02:28.000Z</time>
      </trkpt>
      <trkpt lat="49.41407" lon="1.21102">
        <ele>115</ele>
        <time>2016-05-01T10:02:30.000Z</time>
      </trkpt>
      <trkpt lat="49.41409" lon="1.2109">
        <ele>114</ele>
        <time>2016-05-01T10:02:32.000Z</time>
      </trkpt>
      <trkpt lat="49.4141" lon="1.21076">
        <ele>113</ele>
        <time>2016-05-01T10:02:34.000Z</time>
      </trkpt>
      <trkpt lat="49.41409" lon="1.21059">
        <ele>112</ele>
        <time>2016-05-01T10:02:36.000Z</time>
      </trkpt>
      <trkpt lat="49.41408" lon="1.21042">
        <ele>111</ele>
        <time>2016-05-01T10:02:38.000Z</time>
      </trkpt>
      <trkpt lat="49.41408" lon="1.21026">
        <ele>111</ele>
        <time>2016-05-01T10:02:40.000Z</time>
      </trkpt>
      <trkpt lat="49.41409" lon="1.21013">
        <ele>111</ele>
        <time>2016-05-01T10:02:42.000Z</time>
      </trkpt>
      <trkpt lat="49.41408" lon="1.20999">
        <ele>111</ele>
        <time>2016-05-01T10:02:44.000Z</time>
      </trkpt>
      <trkpt lat="49.41411" lon="1.20983">
        <ele>108</ele>
        <time>2016-05-01T10:02:46.000Z</time>
      </trkpt>
      <trkpt lat="49.41415" lon="1.20966">
        <ele>109</ele>
        <time>2016-05-01T10:02:48.000Z</time>
      </trkpt>
      <trkpt lat="49.41417" lon="1.20947">
        <ele>108</ele>
        <time>2016-05-01T10:02:50.000Z</time>
      </trkpt>
      <trkpt lat="49.4142" lon="1.20931">
        <ele>108</ele>
        <time>2016-05-01T10:02:52.000Z</time>
      </trkpt>
      <trkpt lat="49.41424" lon="1.20916">
        <ele>109</ele>
        <time>2016-05-01T10:02:54.000Z</time>
      </trkpt>
      <trkpt lat="49.41424" lon="1.209">
        <ele>108</ele>
        <time>2016-05-01T10:02:56.000Z</time>
      </trkpt>
      <trkpt lat="49.41426" lon="1.20885">
        <ele>108</ele>
        <time>2016-05-01T10:02:58.000Z</time>
      </trkpt>
      <trkpt lat="49.41426" lon="1.20875">
        <ele>110</ele>
        <time>2016-05-01T10:03:00.000Z</time>
      </trkpt>
      <trkpt lat="49.41422" lon="1.20869">
        <ele>110</ele>
        <time>2016-05-01T10:03:02.000Z</time>
      </trkpt>
      <trkpt lat="49.41414" lon="1.20867">
        <ele>111</ele>
        <time>2016-05-01T10:03:04.000Z</time>
      </trkpt>
      <trkpt lat="49.41405" lon="1.20863">
        <ele>112</ele>
        <time>2016-05-01T10:03:06.000Z</time>
      </trkpt>
      <trkpt lat="49.41395" lon="1.20859">
        <ele>114</ele>
        <time>2016-05-01T10:03:08.000Z</time>
      </trkpt>
      <trkpt lat="49.41383" lon="1.20854">
        <ele>115</ele>
        <time>2016-05-01T10:03:10.000Z</time>
      </trkpt>
      <trkpt lat="49.41371" lon="1.20848">
        <ele>116</ele>
        <time>2016-05-01T10:03:12.000Z</time>
      </trkpt>
      <trkpt lat="49.41359" lon="1.20843">
        <ele>116</ele>
        <time>2016-05-01T10:03:14.000Z</time>
      </trkpt>
      <trkpt lat="49.41348" lon="1.20837">
        <ele>117</ele>
        <time>2016-05-01T10:03:16.000Z</time>
      </trkpt>
      <trkpt lat="49.41337" lon="1.20832">
        <ele>117</ele>
        <time>2016-05-01T10:03:18.000Z</time>
      </trkpt>
      <trkpt lat="49.41327" lon="1.20827">
        <ele>117</ele>
        <time>2016-05-01T10:03:20.000Z</time>
      </trkpt>
      <trkpt lat="49.41317" lon="1.20821">
        <ele>118</ele>
        <time>2016-05-01T10:03:22.000Z</time>
      </trkpt>
      <trkpt lat="49.41307" lon="1.20814">
        <ele>119</ele>
        <time>2016-05-01T10:03:24.000Z</time>
      </trkpt>
      <trkpt lat="49.41297" lon="1.20807">
        <ele>119</ele>
        <time>2016-05-01T10:03:26.000Z</time>
      </trkpt>
      <trkpt lat="49.41289" lon="1.208">
        <ele>118</ele>
        <time>2016-05-01T10:03:28.000Z</time>
      </trkpt>
      <trkpt lat="49.41281" lon="1.20792">
        <ele>119</ele>
        <time>2016-05-01T10:03:30.000Z</time>
      </trkpt>
      <trkpt lat="49.41273" lon="1.20784">
        <ele>119</ele>
        <time>2016-05-01T10:03:32.000Z</time>
      </trkpt>
      <trkpt lat="49.41266" lon="1.20778">
        <ele>120</ele>
        <time>2016-05-01T10:03:34.000Z</time>
      </trkpt>
      <trkpt lat="49.41259" lon="1.20773">
        <ele>120</ele>
        <time>2016-05-01T10:03:36.000Z</time>
      </trkpt>
      <trkpt lat="49.41253" lon="1.20768">
        <ele>120</ele>
        <time>2016-05-01T10:03:38.000Z</time>
      </trkpt>
      <trkpt lat="49.41248" lon="1.20763">
        <ele>120</ele>
        <time>2016-05-01T10:03:40.000Z</time>
      </trkpt>
      <trkpt lat="49.41242" lon="1.20758">
        <ele>121</ele>
        <time>2016-05-01T10:03:42.000Z</time>
      </trkpt>
      <trkpt lat="49.41242" lon="1.20758">
        <ele>121</ele>
        <time>2016-05-01T10:03:44.000Z</time>
      </trkpt>
      <trkpt lat="49.41232" lon="1.2075">
        <ele>122</ele>
        <time>2016-05-01T10:03:46.000Z</time>
      </trkpt>
      <trkpt lat="49.41226" lon="1.20746">
        <ele>122</ele>
        <time>2016-05-01T10:03:48.000Z</time>
      </trkpt>
      <trkpt lat="49.41221" lon="1.20742">
        <ele>122</ele>
        <time>2016-05-01T10:03:50.000Z</time>
      </trkpt>
      <trkpt lat="49.41215" lon="1.20738">
        <ele>123</ele>
        <time>2016-05-01T10:03:52.000Z</time>
      </trkpt>
      <trkpt lat="49.41215" lon="1.20738">
        <ele>123</ele>
        <time>2016-05-01T10:03:54.000Z</time>
      </trkpt>
      <trkpt lat="49.41206" lon="1.20729">
        <ele>123</ele>
        <time>2016-05-01T10:03:56.000Z</time>
      </trkpt>
      <trkpt lat="49.41203" lon="1.20721">
        <ele>123</ele>
        <time>2016-05-01T10:03:58.000Z</time>
      </trkpt>
      <trkpt lat="49.41201" lon="1.20712">
        <ele>124</ele>
        <time>2016-05-01T10:04:00.000Z</time>
      </trkpt>
      <trkpt lat="49.41201" lon="1.20712">
        <ele>124</ele>
        <time>2016-05-01T10:04:02.000Z</time>
      </trkpt>
      <trkpt lat="49.41199" lon="1.207">
        <ele>125</ele>
        <time>2016-05-01T10:04:04.000Z</time>
      </trkpt>
      <trkpt lat="49.41199" lon="1.207">
        <ele>125</ele>
        <time>2016-05-01T10:04:06.000Z</time>
      </trkpt>
      <trkpt lat="49.41198" lon="1.20689">
        <ele>127</ele>
        <time>2016-05-01T10:04:08.000Z</time>
      </trkpt>
      <trkpt lat="49.41198" lon="1.20689">
        <ele>127</ele>
        <time>2016-05-01T10:04:10.000Z</time>
      </trkpt>
      <trkpt lat="49.412" lon="1.20678">
        <ele>129</ele>
        <time>2016-05-01T10:04:12.000Z</time>
      </trkpt>
      <trkpt lat="49.412" lon="1.20678">
        <ele>129</ele>
        <time>2016-05-01T10:04:14.000Z</time>
      </trkpt>
      <trkpt lat="49.41202" lon="1.20668">
        <ele>131</ele>
        <time>2016-05-01T10:04:16.000Z</time>
      </trkpt>
      <trkpt lat="49.41206" lon="1.20658">
        <ele>133</ele>
        <time>2016-05-01T10:04:20.000Z</time>
      </trkpt>
      <trkpt lat="49.41209" lon="1.20646">
        <ele>136</ele>
        <time>2016-05-01T10:04:24.000Z</time>
      </trkpt>
      <trkpt lat="49.41209" lon="1.20646">
        <ele>136</ele>
        <time>2016-05-01T10:04:26.000Z</time>
      </trkpt>
      <trkpt lat="49.41209" lon="1.20635">
        <ele>136</ele>
        <time>2016-05-01T10:04:28.000Z</time>
      </trkpt>
      <trkpt lat="49.41209" lon="1.20635">
        <ele>136</ele>
        <time>2016-05-01T10:04:30.000Z</time>
      </trkpt>
      <trkpt lat="49.41209" lon="1.20626">
        <ele>136</ele>
        <time>2016-05-01T10:04:32.000Z</time>
      </trkpt>
      <trkpt lat="49.41209" lon="1.20626">
        <ele>136</ele>
        <time>2016-05-01T10:04:34.000Z</time>
      </trkpt>
      <trkpt lat="49.41209" lon="1.20626">
        <ele>136</ele>
        <time>2016-05-01T10:04:36.000Z</time>
      </trkpt>
      <trkpt lat="49.41204" lon="1.20619">
        <ele>141</ele>
        <time>2016-05-01T10:04:38.000Z</time>
      </trkpt>
      <trkpt lat="49.41204" lon="1.20619">
        <ele>141</ele>
        <time>2016-05-01T10:04:40.000Z</time>
      </trkpt>
      <trkpt lat="49.41204" lon="1.20619">
        <ele>141</ele>
        <time>2016-05-01T10:04:42.000Z</time>
      </trkpt>
      <trkpt lat="49.41203" lon="1.20609">
        <ele>139</ele>
        <time>2016-05-01T10:04:44.000Z</time>
      </trkpt>
      <trkpt lat="49.41203" lon="1.20609">
        <ele>139</ele>
        <time>2016-05-01T10:04:46.000Z</time>
      </trkpt>
      <trkpt lat="49.41201" lon="1.20599">
        <ele>142</ele>
        <time>2016-05-01T10:04:50.000Z</time>
      </trkpt>
      <trkpt lat="49.41201" lon="1.20599">
        <ele>142</ele>
        <time>2016-05-01T10:04:56.000Z</time>
      </trkpt>
      <trkpt lat="49.41183" lon="1.20557">
        <ele>146</ele>
        <time>2016-05-01T10:05:55.000Z</time>
      </trkpt>
      <trkpt lat="49.4118" lon="1.20547">
        <ele>149</ele>
        <time>2016-05-01T10:06:01.000Z</time>
      </trkpt>
      <trkpt lat="49.41177" lon="1.20538">
        <ele>150</ele>
        <time>2016-05-01T10:06:05.000Z</time>
      </trkpt>
      <trkpt lat="49.41177" lon="1.20538">
        <ele>150</ele>
        <time>2016-05-01T10:06:07.000Z</time>
      </trkpt>
      <trkpt lat="49.41177" lon="1.20538">
        <ele>150</ele>
        <time>2016-05-01T10:06:09.000Z</time>
      </trkpt>
      <trkpt lat="49.41174" lon="1.2053">
        <ele>152</ele>
        <time>2016-05-01T10:06:11.000Z</time>
      </trkpt>
      <trkpt lat="49.4117" lon="1.20521">
        <ele>154</ele>
        <time>2016-05-01T10:06:17.000Z</time>
      </trkpt>
      <trkpt lat="49.41166" lon="1.20513">
        <ele>157</ele>
        <time>2016-05-01T10:06:21.000Z</time>
      </trkpt>
      <trkpt lat="49.41166" lon="1.20513">
        <ele>157</ele>
        <time>2016-05-01T10:06:25.000Z</time>
      </trkpt>
      <trkpt lat="49.41159" lon="1.20504">
        <ele>160</ele>
        <time>2016-05-01T10:06:27.000Z</time>
      </trkpt>
      <trkpt lat="49.41156" lon="1.20496">
        <ele>163</ele>
        <time>2016-05-01T10:06:31.000Z</time>
      </trkpt>
      <trkpt lat="49.41156" lon="1.20496">
        <ele>163</ele>
        <time>2016-05-01T10:06:35.000Z</time>
      </trkpt>
      <trkpt lat="49.41153" lon="1.20484">
        <ele>160</ele>
        <time>2016-05-01T10:06:37.000Z</time>
      </trkpt>
      <trkpt lat="49.41152" lon="1.20475">
        <ele>161</ele>
        <time>2016-05-01T10:06:41.000Z</time>
      </trkpt>
      <trkpt lat="49.41151" lon="1.20466">
        <ele>160</ele>
        <time>2016-05-01T10:06:45.000Z</time>
      </trkpt>
      <trkpt lat="49.4115" lon="1.20457">
        <ele>161</ele>
        <time>2016-05-01T10:06:49.000Z</time>
      </trkpt>
      <trkpt lat="49.41147" lon="1.20447">
        <ele>160</ele>
        <time>2016-05-01T10:06:53.000Z</time>
      </trkpt>
      <trkpt lat="49.41147" lon="1.20437">
        <ele>160</ele>
        <time>2016-05-01T10:06:57.000Z</time>
      </trkpt>
      <trkpt lat="49.41147" lon="1.20437">
        <ele>160</ele>
        <time>2016-05-01T10:06:59.000Z</time>
      </trkpt>
      <trkpt lat="49.41144" lon="1.20427">
        <ele>160</ele>
        <time>2016-05-01T10:07:01.000Z</time>
      </trkpt>
      <trkpt lat="49.41144" lon="1.20427">
        <ele>160</ele>
        <time>2016-05-01T10:07:03.000Z</time>
      </trkpt>
      <trkpt lat="49.41141" lon="1.20419">
        <ele>162</ele>
        <time>2016-05-01T10:07:05.000Z</time>
      </trkpt>
      <trkpt lat="49.41141" lon="1.20419">
        <ele>162</ele>
        <time>2016-05-01T10:07:07.000Z</time>
      </trkpt>
      <trkpt lat="49.41137" lon="1.20412">
        <ele>162</ele>
        <time>2016-05-01T10:07:09.000Z</time>
      </trkpt>
      <trkpt lat="49.4113" lon="1.20402">
        <ele>165</ele>
        <time>2016-05-01T10:07:13.000Z</time>
      </trkpt>
      <trkpt lat="49.41124" lon="1.20389">
        <ele>165</ele>
        <time>2016-05-01T10:07:17.000Z</time>
      </trkpt>
      <trkpt lat="49.41116" lon="1.20381">
        <ele>167</ele>
        <time>2016-05-01T10:07:21.000Z</time>
      </trkpt>
      <trkpt lat="49.41116" lon="1.20381">
        <ele>167</ele>
        <time>2016-05-01T10:07:23.000Z</time>
      </trkpt>
      <trkpt lat="49.41108" lon="1.20375">
        <ele>168</ele>
        <time>2016-05-01T10:07:25.000Z</time>
      </trkpt>
      <trkpt lat="49.41099" lon="1.20373">
        <ele>169</ele>
        <time>2016-05-01T10:07:29.000Z</time>
      </trkpt>
      <trkpt lat="49.4109" lon="1.20371">
        <ele>170</ele>
        <time>2016-05-01T10:07:33.000Z</time>
      </trkpt>
      <trkpt lat="49.41081" lon="1.2037">
        <ele>171</ele>
        <time>2016-05-01T10:07:37.000Z</time>
      </trkpt>
      <trkpt lat="49.41071" lon="1.20368">
        <ele>171</ele>
        <time>2016-05-01T10:07:41.000Z</time>
      </trkpt>
      <trkpt lat="49.41066" lon="1.20367">
        <ele>172</ele>
        <time>2016-05-01T10:07:45.000Z</time>
      </trkpt>
      <trkpt lat="49.41061" lon="1.20364">
        <ele>172</ele>
        <time>2016-05-01T10:07:47.000Z</time>
      </trkpt>
      <trkpt lat="49.41056" lon="1.20361">
        <ele>172</ele>
        <time>2016-05-01T10:07:49.000Z</time>
      </trkpt>
      <trkpt lat="49.41051" lon="1.20358">
        <ele>172</ele>
        <time>2016-05-01T10:07:51.000Z</time>
      </trkpt>
      <trkpt lat="49.41048" lon="1.20353">
        <ele>172</ele>
        <time>2016-05-01T10:07:53.000Z</time>
      </trkpt>
      <trkpt lat="49.4104" lon="1.20342">
        <ele>172</ele>
        <time>2016-05-01T10:07:55.000Z</time>
      </trkpt>
      <trkpt lat="49.4104" lon="1.20342">
        <ele>172</ele>
        <time>2016-05-01T10:07:57.000Z</time>
      </trkpt>
      <trkpt lat="49.41034" lon="1.20329">
        <ele>172</ele>
        <time>2016-05-01T10:07:59.000Z</time>
      </trkpt>
      <trkpt lat="49.41034" lon="1.20329">
        <ele>172</ele>
        <time>2016-05-01T10:08:01.000Z</time>
      </trkpt>
      <trkpt lat="49.41029" lon="1.20316">
        <ele>171</ele>
        <time>2016-05-01T10:08:03.000Z</time>
      </trkpt>
      <trkpt lat="49.41029" lon="1.20316">
        <ele>171</ele>
        <time>2016-05-01T10:08:05.000Z</time>
      </trkpt>
      <trkpt lat="49.41024" lon="1.20304">
        <ele>172</ele>
        <time>2016-05-01T10:08:07.000Z</time>
      </trkpt>
      <trkpt lat="49.41019" lon="1.20292">
        <ele>172</ele>
        <time>2016-05-01T10:08:11.000Z</time>
      </trkpt>
      <trkpt lat="49.41013" lon="1.20279">
        <ele>172</ele>
        <time>2016-05-01T10:08:15.000Z</time>
      </trkpt>
      <trkpt lat="49.41007" lon="1.20266">
        <ele>172</ele>
        <time>2016-05-01T10:08:19.000Z</time>
      </trkpt>
      <trkpt lat="49.41" lon="1.20253">
        <ele>174</ele>
        <time>2016-05-01T10:08:23.000Z</time>
      </trkpt>
      <trkpt lat="49.40997" lon="1.20246">
        <ele>174</ele>
        <time>2016-05-01T10:08:25.000Z</time>
      </trkpt>
      <trkpt lat="49.40993" lon="1.20238">
        <ele>175</ele>
        <time>2016-05-01T10:08:27.000Z</time>
      </trkpt>
      <trkpt lat="49.4099" lon="1.20231">
        <ele>175</ele>
        <time>2016-05-01T10:08:29.000Z</time>
      </trkpt>
      <trkpt lat="49.40986" lon="1.20224">
        <ele>176</ele>
        <time>2016-05-01T10:08:31.000Z</time>
      </trkpt>
      <trkpt lat="49.40982" lon="1.20216">
        <ele>176</ele>
        <time>2016-05-01T10:08:33.000Z</time>
      </trkpt>
      <trkpt lat="49.40979" lon="1.20209">
        <ele>176</ele>
        <time>2016-05-01T10:08:35.000Z</time>
      </trkpt>
      <trkpt lat="49.40979" lon="1.20209">
        <ele>176</ele>
        <time>2016-05-01T10:08:37.000Z</time>
      </trkpt>
      <trkpt lat="49.40972" lon="1.20195">
        <ele>176</ele>
        <time>2016-05-01T10:08:39.000Z</time>
      </trkpt>
      <trkpt lat="49.40972" lon="1.20195">
        <ele>176</ele>
        <time>2016-05-01T10:08:41.000Z</time>
      </trkpt>
      <trkpt lat="49.40966" lon="1.20182">
        <ele>177</ele>
        <time>2016-05-01T10:08:43.000Z</time>
      </trkpt>
      <trkpt lat="49.40959" lon="1.20168">
        <ele>178</ele>
        <time>2016-05-01T10:08:47.000Z</time>
      </trkpt>
      <trkpt lat="49.40952" lon="1.20155">
        <ele>179</ele>
        <time>2016-05-01T10:08:51.000Z</time>
      </trkpt>
      <trkpt lat="49.40952" lon="1.20155">
        <ele>179</ele>
        <time>2016-05-01T10:08:53.000Z</time>
      </trkpt>
      <trkpt lat="49.40946" lon="1.20141">
        <ele>179</ele>
        <time>2016-05-01T10:08:55.000Z</time>
      </trkpt>
      <trkpt lat="49.40946" lon="1.20141">
        <ele>179</ele>
        <time>2016-05-01T10:08:57.000Z</time>
      </trkpt>
      <trkpt lat="49.40947" lon="1.20125">
        <ele>180</ele>
        <time>2016-05-01T10:08:59.000Z</time>
      </trkpt>
      <trkpt lat="49.4095" lon="1.20117">
        <ele>180</ele>
        <time>2016-05-01T10:09:01.000Z</time>
      </trkpt>
      <trkpt lat="49.4095" lon="1.20117">
        <ele>180</ele>
        <time>2016-05-01T10:09:03.000Z</time>
      </trkpt>
      <trkpt lat="49.40956" lon="1.20102">
        <ele>181</ele>
        <time>2016-05-01T10:09:05.000Z</time>
      </trkpt>
      <trkpt lat="49.40959" lon="1.20095">
        <ele>180</ele>
        <time>2016-05-01T10:09:07.000Z</time>
      </trkpt>
      <trkpt lat="49.40962" lon="1.20086">
        <ele>180</ele>
        <time>2016-05-01T10:09:09.000Z</time>
      </trkpt>
      <trkpt lat="49.40965" lon="1.20077">
        <ele>180</ele>
        <time>2016-05-01T10:09:11.000Z</time>
      </trkpt>
      <trkpt lat="49.40969" lon="1.20068">
        <ele>180</ele>
        <time>2016-05-01T10:09:13.000Z</time>
      </trkpt>
      <trkpt lat="49.40972" lon="1.20059">
        <ele>180</ele>
        <time>2016-05-01T10:09:15.000Z</time>
      </trkpt>
      <trkpt lat="49.40974" lon="1.2005">
        <ele>180</ele>
        <time>2016-05-01T10:09:17.000Z</time>
      </trkpt>
      <trkpt lat="49.40977" lon="1.20041">
        <ele>180</ele>
        <time>2016-05-01T10:09:19.000Z</time>
      </trkpt>
      <trkpt lat="49.40981" lon="1.20031">
        <ele>180</ele>
        <time>2016-05-01T10:09:21.000Z</time>
      </trkpt>
      <trkpt lat="49.40985" lon="1.2002">
        <ele>179</ele>
        <time>2016-05-01T10:09:23.000Z</time>
      </trkpt>
      <trkpt lat="49.4099" lon="1.20007">
        <ele>179</ele>
        <time>2016-05-01T10:09:25.000Z</time>
      </trkpt>
      <trkpt lat="49.40995" lon="1.19994">
        <ele>179</ele>
        <time>2016-05-01T10:09:27.000Z</time>
      </trkpt>
      <trkpt lat="49.40999" lon="1.19981">
        <ele>178</ele>
        <time>2016-05-01T10:09:29.000Z</time>
      </trkpt>
      <trkpt lat="49.41003" lon="1.19967">
        <ele>178</ele>
        <time>2016-05-01T10:09:31.000Z</time>
      </trkpt>
      <trkpt lat="49.41006" lon="1.19954">
        <ele>178</ele>
        <time>2016-05-01T10:09:33.000Z</time>
      </trkpt>
      <trkpt lat="49.41008" lon="1.19939">
        <ele>177</ele>
        <time>2016-05-01T10:09:35.000Z</time>
      </trkpt>
      <trkpt lat="49.41009" lon="1.19925">
        <ele>177</ele>
        <time>2016-05-01T10:09:37.000Z</time>
      </trkpt>
      <trkpt lat="49.4101" lon="1.19909">
        <ele>177</ele>
        <time>2016-05-01T10:09:39.000Z</time>
      </trkpt>
      <trkpt lat="49.41011" lon="1.19893">
        <ele>177</ele>
        <time>2016-05-01T10:09:41.000Z</time>
      </trkpt>
      <trkpt lat="49.41012" lon="1.19877">
        <ele>176</ele>
        <time>2016-05-01T10:09:43.000Z</time>
      </trkpt>
      <trkpt lat="49.41012" lon="1.19861">
        <ele>176</ele>
        <time>2016-05-01T10:09:45.000Z</time>
      </trkpt>
      <trkpt lat="49.41013" lon="1.19844">
        <ele>175</ele>
        <time>2016-05-01T10:09:47.000Z</time>
      </trkpt>
      <trkpt lat="49.41013" lon="1.19827">
        <ele>175</ele>
        <time>2016-05-01T10:09:49.000Z</time>
      </trkpt>
      <trkpt lat="49.41012" lon="1.1981">
        <ele>175</ele>
        <time>2016-05-01T10:09:51.000Z</time>
      </trkpt>
      <trkpt lat="49.41012" lon="1.19793">
        <ele>175</ele>
        <time>2016-05-01T10:09:53.000Z</time>
      </trkpt>
      <trkpt lat="49.41011" lon="1.19776">
        <ele>175</ele>
        <time>2016-05-01T10:09:55.000Z</time>
      </trkpt>
      <trkpt lat="49.41011" lon="1.1976">
        <ele>176</ele>
        <time>2016-05-01T10:09:57.000Z</time>
      </trkpt>
      <trkpt lat="49.4101" lon="1.19744">
        <ele>176</ele>
        <time>2016-05-01T10:09:59.000Z</time>
      </trkpt>
      <trkpt lat="49.41008" lon="1.1973">
        <ele>176</ele>
        <time>2016-05-01T10:10:01.000Z</time>
      </trkpt>
      <trkpt lat="49.41006" lon="1.19716">
        <ele>176</ele>
        <time>2016-05-01T10:10:03.000Z</time>
      </trkpt>
      <trkpt lat="49.41003" lon="1.19702">
        <ele>177</ele>
        <time>2016-05-01T10:10:05.000Z</time>
      </trkpt>
      <trkpt lat="49.41" lon="1.1969">
        <ele>177</ele>
        <time>2016-05-01T10:10:07.000Z</time>
      </trkpt>
      <trkpt lat="49.40997" lon="1.19677">
        <ele>178</ele>
        <time>2016-05-01T10:10:09.000Z</time>
      </trkpt>
      <trkpt lat="49.40995" lon="1.19664">
        <ele>178</ele>
        <time>2016-05-01T10:10:11.000Z</time>
      </trkpt>
      <trkpt lat="49.40992" lon="1.19651">
        <ele>178</ele>
        <time>2016-05-01T10:10:13.000Z</time>
      </trkpt>
      <trkpt lat="49.40989" lon="1.19638">
        <ele>178</ele>
        <time>2016-05-01T10:10:15.000Z</time>
      </trkpt>
      <trkpt lat="49.40985" lon="1.19626">
        <ele>178</ele>
        <time>2016-05-01T10:10:17.000Z</time>
      </trkpt>
      <trkpt lat="49.40982" lon="1.19614">
        <ele>179</ele>
        <time>2016-05-01T10:10:19.000Z</time>
      </trkpt>
      <trkpt lat="49.40979" lon="1.19601">
        <ele>178</ele>
        <time>2016-05-01T10:10:21.000Z</time>
      </trkpt>
      <trkpt lat="49.40975" lon="1.19589">
        <ele>178</ele>
        <time>2016-05-01T10:10:23.000Z</time>
      </trkpt>
      <trkpt lat="49.40972" lon="1.19577">
        <ele>178</ele>
        <time>2016-05-01T10:10:25.000Z</time>
      </trkpt>
      <trkpt lat="49.40969" lon="1.19565">
        <ele>178</ele>
        <time>2016-05-01T10:10:27.000Z</time>
      </trkpt>
      <trkpt lat="49.40965" lon="1.19553">
        <ele>178</ele>
        <time>2016-05-01T10:10:29.000Z</time>
      </trkpt>
      <trkpt lat="49.40962" lon="1.19541">
        <ele>178</ele>
        <time>2016-05-01T10:10:31.000Z</time>
      </trkpt>
      <trkpt lat="49.40958" lon="1.19529">
        <ele>179</ele>
        <time>2016-05-01T10:10:33.000Z</time>
      </trkpt>
      <trkpt lat="49.40955" lon="1.19518">
        <ele>179</ele>
        <time>2016-05-01T10:10:35.000Z</time>
      </trkpt>
      <trkpt lat="49.40955" lon="1.19507">
        <ele>178</ele>
        <time>2016-05-01T10:10:37.000Z</time>
      </trkpt>
      <trkpt lat="49.40956" lon="1.19495">
        <ele>179</ele>
        <time>2016-05-01T10:10:39.000Z</time>
      </trkpt>
      <trkpt lat="49.40955" lon="1.19483">
        <ele>179</ele>
        <time>2016-05-01T10:10:41.000Z</time>
      </trkpt>
      <trkpt lat="49.40953" lon="1.19471">
        <ele>179</ele>
        <time>2016-05-01T10:10:43.000Z</time>
      </trkpt>
      <trkpt lat="49.40949" lon="1.19461">
        <ele>179</ele>
        <time>2016-05-01T10:10:45.000Z</time>
      </trkpt>
      <trkpt lat="49.40947" lon="1.19451">
        <ele>179</ele>
        <time>2016-05-01T10:10:47.000Z</time>
      </trkpt>
      <trkpt lat="49.4095" lon="1.19443">
        <ele>179</ele>
        <time>2016-05-01T10:10:49.000Z</time>
      </trkpt>
      <trkpt lat="49.40956" lon="1.19435">
        <ele>179</ele>
        <time>2016-05-01T10:10:51.000Z</time>
      </trkpt>
      <trkpt lat="49.40963" lon="1.19428">
        <ele>179</ele>
        <time>2016-05-01T10:10:53.000Z</time>
      </trkpt>
      <trkpt lat="49.4097" lon="1.19421">
        <ele>179</ele>
        <time>2016-05-01T10:10:55.000Z</time>
      </trkpt>
      <trkpt lat="49.40977" lon="1.19414">
        <ele>179</ele>
        <time>2016-05-01T10:10:57.000Z</time>
      </trkpt>
      <trkpt lat="49.40984" lon="1.1941">
        <ele>178</ele>
        <time>2016-05-01T10:10:59.000Z</time>
      </trkpt>
      <trkpt lat="49.40992" lon="1.19406">
        <ele>178</ele>
        <time>2016-05-01T10:11:01.000Z</time>
      </trkpt>
      <trkpt lat="49.41002" lon="1.19404">
        <ele>178</ele>
        <time>2016-05-01T10:11:03.000Z</time>
      </trkpt>
      <trkpt lat="49.41013" lon="1.194">
        <ele>177</ele>
        <time>2016-05-01T10:11:05.000Z</time>
      </trkpt>
      <trkpt lat="49.41024" lon="1.19396">
        <ele>177</ele>
        <time>2016-05-01T10:11:07.000Z</time>
      </trkpt>
      <trkpt lat="49.41035" lon="1.19393">
        <ele>176</ele>
        <time>2016-05-01T10:11:09.000Z</time>
      </trkpt>
      <trkpt lat="49.41046" lon="1.19389">
        <ele>176</ele>
        <time>2016-05-01T10:11:11.000Z</time>
      </trkpt>
      <trkpt lat="49.41058" lon="1.19385">
        <ele>175</ele>
        <time>2016-05-01T10:11:13.000Z</time>
      </trkpt>
      <trkpt lat="49.41071" lon="1.19381">
        <ele>174</ele>
        <time>2016-05-01T10:11:15.000Z</time>
      </trkpt>
      <trkpt lat="49.41084" lon="1.19377">
        <ele>174</ele>
        <time>2016-05-01T10:11:17.000Z</time>
      </trkpt>
      <trkpt lat="49.41096" lon="1.19373">
        <ele>173</ele>
        <time>2016-05-01T10:11:19.000Z</time>
      </trkpt>
      <trkpt lat="49.41109" lon="1.19368">
        <ele>173</ele>
        <time>2016-05-01T10:11:21.000Z</time>
      </trkpt>
      <trkpt lat="49.41121" lon="1.19364">
        <ele>172</ele>
        <time>2016-05-01T10:11:23.000Z</time>
      </trkpt>
      <trkpt lat="49.41133" lon="1.19359">
        <ele>171</ele>
        <time>2016-05-01T10:11:25.000Z</time>
      </trkpt>
      <trkpt lat="49.41146" lon="1.19355">
        <ele>169</ele>
        <time>2016-05-01T10:11:27.000Z</time>
      </trkpt>
      <trkpt lat="49.41159" lon="1.1935">
        <ele>168</ele>
        <time>2016-05-01T10:11:29.000Z</time>
      </trkpt>
      <trkpt lat="49.41172" lon="1.19346">
        <ele>167</ele>
        <time>2016-05-01T10:11:31.000Z</time>
      </trkpt>
      <trkpt lat="49.41187" lon="1.19342">
        <ele>166</ele>
        <time>2016-05-01T10:11:33.000Z</time>
      </trkpt>
      <trkpt lat="49.41201" lon="1.1934">
        <ele>164</ele>
        <time>2016-05-01T10:11:35.000Z</time>
      </trkpt>
      <trkpt lat="49.41217" lon="1.19338">
        <ele>162</ele>
        <time>2016-05-01T10:11:37.000Z</time>
      </trkpt>
      <trkpt lat="49.41234" lon="1.19335">
        <ele>160</ele>
        <time>2016-05-01T10:11:39.000Z</time>
      </trkpt>
      <trkpt lat="49.4125" lon="1.1933">
        <ele>159</ele>
        <time>2016-05-01T10:11:41.000Z</time>
      </trkpt>
      <trkpt lat="49.41265" lon="1.19329">
        <ele>159</ele>
        <time>2016-05-01T10:11:43.000Z</time>
      </trkpt>
      <trkpt lat="49.4128" lon="1.19331">
        <ele>158</ele>
        <time>2016-05-01T10:11:45.000Z</time>
      </trkpt>
      <trkpt lat="49.41294" lon="1.19335">
        <ele>157</ele>
        <time>2016-05-01T10:11:47.000Z</time>
      </trkpt>
      <trkpt lat="49.41305" lon="1.1933">
        <ele>156</ele>
        <time>2016-05-01T10:11:49.000Z</time>
      </trkpt>
      <trkpt lat="49.41319" lon="1.19301">
        <ele>152</ele>
        <time>2016-05-01T10:11:52.000Z</time>
      </trkpt>
      <trkpt lat="49.4133" lon="1.19285">
        <ele>151</ele>
        <time>2016-05-01T10:11:54.000Z</time>
      </trkpt>
      <trkpt lat="49.41344" lon="1.1927">
        <ele>150</ele>
        <time>2016-05-01T10:11:56.000Z</time>
      </trkpt>
      <trkpt lat="49.41358" lon="1.19258">
        <ele>147</ele>
        <time>2016-05-01T10:11:58.000Z</time>
      </trkpt>
      <trkpt lat="49.41372" lon="1.19251">
        <ele>148</ele>
        <time>2016-05-01T10:12:00.000Z</time>
      </trkpt>
      <trkpt lat="49.4139" lon="1.19246">
        <ele>147</ele>
        <time>2016-05-01T10:12:02.000Z</time>
      </trkpt>
      <trkpt lat="49.4141" lon="1.19246">
        <ele>143</ele>
        <time>2016-05-01T10:12:04.000Z</time>
      </trkpt>
      <trkpt lat="49.41431" lon="1.19244">
        <ele>139</ele>
        <time>2016-05-01T10:12:06.000Z</time>
      </trkpt>
      <trkpt lat="49.41452" lon="1.19232">
        <ele>134</ele>
        <time>2016-05-01T10:12:08.000Z</time>
      </trkpt>
      <trkpt lat="49.41468" lon="1.19206">
        <ele>131</ele>
        <time>2016-05-01T10:12:10.000Z</time>
      </trkpt>
      <trkpt lat="49.41481" lon="1.19183">
        <ele>129</ele>
        <time>2016-05-01T10:12:12.000Z</time>
      </trkpt>
      <trkpt lat="49.41501" lon="1.1918">
        <ele>125</ele>
        <time>2016-05-01T10:12:15.000Z</time>
      </trkpt>
      <trkpt lat="49.41526" lon="1.19184">
        <ele>121</ele>
        <time>2016-05-01T10:12:18.000Z</time>
      </trkpt>
      <trkpt lat="49.41542" lon="1.19169">
        <ele>119</ele>
        <time>2016-05-01T10:12:20.000Z</time>
      </trkpt>
      <trkpt lat="49.41561" lon="1.19161">
        <ele>115</ele>
        <time>2016-05-01T10:12:22.000Z</time>
      </trkpt>
      <trkpt lat="49.41579" lon="1.19167">
        <ele>113</ele>
        <time>2016-05-01T10:12:24.000Z</time>
      </trkpt>
      <trkpt lat="49.41597" lon="1.19181">
        <ele>111</ele>
        <time>2016-05-01T10:12:26.000Z</time>
      </trkpt>
      <trkpt lat="49.41614" lon="1.19195">
        <ele>108</ele>
        <time>2016-05-01T10:12:28.000Z</time>
      </trkpt>
      <trkpt lat="49.41632" lon="1.19208">
        <ele>106</ele>
        <time>2016-05-01T10:12:30.000Z</time>
      </trkpt>
      <trkpt lat="49.4165" lon="1.19218">
        <ele>104</ele>
        <time>2016-05-01T10:12:32.000Z</time>
      </trkpt>
      <trkpt lat="49.41672" lon="1.19217">
        <ele>100</ele>
        <time>2016-05-01T10:12:37.000Z</time>
      </trkpt>
      <trkpt lat="49.41675" lon="1.19203">
        <ele>100</ele>
        <time>2016-05-01T10:12:39.000Z</time>
      </trkpt>
      <trkpt lat="49.41679" lon="1.19188">
        <ele>100</ele>
        <time>2016-05-01T10:12:41.000Z</time>
      </trkpt>
      <trkpt lat="49.41682" lon="1.1917">
        <ele>99</ele>
        <time>2016-05-01T10:12:43.000Z</time>
      </trkpt>
      <trkpt lat="49.41686" lon="1.19153">
        <ele>98</ele>
        <time>2016-05-01T10:12:45.000Z</time>
      </trkpt>
      <trkpt lat="49.4169" lon="1.19137">
        <ele>98</ele>
        <time>2016-05-01T10:12:47.000Z</time>
      </trkpt>
      <trkpt lat="49.41693" lon="1.19121">
        <ele>97</ele>
        <time>2016-05-01T10:12:49.000Z</time>
      </trkpt>
      <trkpt lat="49.41696" lon="1.19104">
        <ele>97</ele>
        <time>2016-05-01T10:12:51.000Z</time>
      </trkpt>
      <trkpt lat="49.41699" lon="1.19088">
        <ele>97</ele>
        <time>2016-05-01T10:12:53.000Z</time>
      </trkpt>
      <trkpt lat="49.41703" lon="1.19072">
        <ele>96</ele>
        <time>2016-05-01T10:12:55.000Z</time>
      </trkpt>
      <trkpt lat="49.41707" lon="1.19057">
        <ele>97</ele>
        <time>2016-05-01T10:12:57.000Z</time>
      </trkpt>
      <trkpt lat="49.41712" lon="1.19042">
        <ele>97</ele>
        <time>2016-05-01T10:12:59.000Z</time>
      </trkpt>
      <trkpt lat="49.41719" lon="1.19028">
        <ele>97</ele>
        <time>2016-05-01T10:13:01.000Z</time>
      </trkpt>
      <trkpt lat="49.41726" lon="1.19013">
        <ele>96</ele>
        <time>2016-05-01T10:13:03.000Z</time>
      </trkpt>
      <trkpt lat="49.4173" lon="1.18998">
        <ele>96</ele>
        <time>2016-05-01T10:13:05.000Z</time>
      </trkpt>
      <trkpt lat="49.41735" lon="1.18982">
        <ele>96</ele>
        <time>2016-05-01T10:13:07.000Z</time>
      </trkpt>
      <trkpt lat="49.41737" lon="1.18965">
        <ele>96</ele>
        <time>2016-05-01T10:13:09.000Z</time>
      </trkpt>
      <trkpt lat="49.41737" lon="1.18946">
        <ele>96</ele>
        <time>2016-05-01T10:13:11.000Z</time>
      </trkpt>
      <trkpt lat="49.4174" lon="1.18928">
        <ele>96</ele>
        <time>2016-05-01T10:13:13.000Z</time>
      </trkpt>
      <trkpt lat="49.41743" lon="1.1891">
        <ele>96</ele>
        <time>2016-05-01T10:13:15.000Z</time>
      </trkpt>
      <trkpt lat="49.41747" lon="1.18893">
        <ele>96</ele>
        <time>2016-05-01T10:13:17.000Z</time>
      </trkpt>
      <trkpt lat="49.41753" lon="1.18877">
        <ele>96</ele>
        <time>2016-05-01T10:13:19.000Z</time>
      </trkpt>
      <trkpt lat="49.41758" lon="1.18862">
        <ele>95</ele>
        <time>2016-05-01T10:13:21.000Z</time>
      </trkpt>
      <trkpt lat="49.41765" lon="1.18846">
        <ele>95</ele>
        <time>2016-05-01T10:13:23.000Z</time>
      </trkpt>
      <trkpt lat="49.41773" lon="1.18829">
        <ele>95</ele>
        <time>2016-05-01T10:13:25.000Z</time>
      </trkpt>
      <trkpt lat="49.4178" lon="1.18813">
        <ele>94</ele>
        <time>2016-05-01T10:13:27.000Z</time>
      </trkpt>
      <trkpt lat="49.41788" lon="1.18797">
        <ele>94</ele>
        <time>2016-05-01T10:13:29.000Z</time>
      </trkpt>
      <trkpt lat="49.41796" lon="1.18781">
        <ele>93</ele>
        <time>2016-05-01T10:13:31.000Z</time>
      </trkpt>
      <trkpt lat="49.41806" lon="1.18767">
        <ele>93</ele>
        <time>2016-05-01T10:13:33.000Z</time>
      </trkpt>
      <trkpt lat="49.41816" lon="1.18754">
        <ele>93</ele>
        <time>2016-05-01T10:13:35.000Z</time>
      </trkpt>
      <trkpt lat="49.41826" lon="1.18742">
        <ele>93</ele>
        <time>2016-05-01T10:13:37.000Z</time>
      </trkpt>
      <trkpt lat="49.41833" lon="1.1873">
        <ele>93</ele>
        <time>2016-05-01T10:13:39.000Z</time>
      </trkpt>
      <trkpt lat="49.41841" lon="1.18721">
        <ele>93</ele>
        <time>2016-05-01T10:13:41.000Z</time>
      </trkpt>
      <trkpt lat="49.41847" lon="1.18713">
        <ele>93</ele>
        <time>2016-05-01T10:13:43.000Z</time>
      </trkpt>
      <trkpt lat="49.41847" lon="1.18713">
        <ele>93</ele>
        <time>2016-05-01T10:13:45.000Z</time>
      </trkpt>
      <trkpt lat="49.41852" lon="1.18702">
        <ele>93</ele>
        <time>2016-05-01T10:13:47.000Z</time>
      </trkpt>
      <trkpt lat="49.41856" lon="1.18692">
        <ele>93</ele>
        <time>2016-05-01T10:13:49.000Z</time>
      </trkpt>
      <trkpt lat="49.41861" lon="1.18681">
        <ele>92</ele>
        <time>2016-05-01T10:13:51.000Z</time>
      </trkpt>
      <trkpt lat="49.41866" lon="1.18668">
        <ele>92</ele>
        <time>2016-05-01T10:13:53.000Z</time>
      </trkpt>
      <trkpt lat="49.41872" lon="1.18655">
        <ele>91</ele>
        <time>2016-05-01T10:13:55.000Z</time>
      </trkpt>
      <trkpt lat="49.41878" lon="1.18642">
        <ele>91</ele>
        <time>2016-05-01T10:13:57.000Z</time>
      </trkpt>
      <trkpt lat="49.41883" lon="1.1863">
        <ele>91</ele>
        <time>2016-05-01T10:13:59.000Z</time>
      </trkpt>
      <trkpt lat="49.41886" lon="1.18619">
        <ele>91</ele>
        <time>2016-05-01T10:14:01.000Z</time>
      </trkpt>
      <trkpt lat="49.41888" lon="1.18608">
        <ele>91</ele>
        <time>2016-05-01T10:14:03.000Z</time>
      </trkpt>
      <trkpt lat="49.41891" lon="1.18594">
        <ele>90</ele>
        <time>2016-05-01T10:14:05.000Z</time>
      </trkpt>
      <trkpt lat="49.41894" lon="1.1858">
        <ele>90</ele>
        <time>2016-05-01T10:14:07.000Z</time>
      </trkpt>
      <trkpt lat="49.41897" lon="1.18565">
        <ele>90</ele>
        <time>2016-05-01T10:14:09.000Z</time>
      </trkpt>
      <trkpt lat="49.41899" lon="1.18553">
        <ele>90</ele>
        <time>2016-05-01T10:14:11.000Z</time>
      </trkpt>
      <trkpt lat="49.41899" lon="1.18553">
        <ele>90</ele>
        <time>2016-05-01T10:14:13.000Z</time>
      </trkpt>
      <trkpt lat="49.41898" lon="1.18538">
        <ele>90</ele>
        <time>2016-05-01T10:14:15.000Z</time>
      </trkpt>
      <trkpt lat="49.41891" lon="1.18532">
        <ele>90</ele>
        <time>2016-05-01T10:14:17.000Z</time>
      </trkpt>
      <trkpt lat="49.41883" lon="1.18526">
        <ele>91</ele>
        <time>2016-05-01T10:14:19.000Z</time>
      </trkpt>
      <trkpt lat="49.41874" lon="1.1852">
        <ele>91</ele>
        <time>2016-05-01T10:14:21.000Z</time>
      </trkpt>
      <trkpt lat="49.41865" lon="1.18514">
        <ele>91</ele>
        <time>2016-05-01T10:14:23.000Z</time>
      </trkpt>
      <trkpt lat="49.41857" lon="1.18507">
        <ele>91</ele>
        <time>2016-05-01T10:14:25.000Z</time>
      </trkpt>
      <trkpt lat="49.41852" lon="1.18494">
        <ele>91</ele>
        <time>2016-05-01T10:14:27.000Z</time>
      </trkpt>
      <trkpt lat="49.41853" lon="1.1848">
        <ele>90</ele>
        <time>2016-05-01T10:14:29.000Z</time>
      </trkpt>
      <trkpt lat="49.41858" lon="1.18464">
        <ele>91</ele>
        <time>2016-05-01T10:14:31.000Z</time>
      </trkpt>
      <trkpt lat="49.41862" lon="1.18452">
        <ele>91</ele>
        <time>2016-05-01T10:14:33.000Z</time>
      </trkpt>
      <trkpt lat="49.41869" lon="1.1844">
        <ele>90</ele>
        <time>2016-05-01T10:14:35.000Z</time>
      </trkpt>
      <trkpt lat="49.41876" lon="1.18429">
        <ele>90</ele>
        <time>2016-05-01T10:14:37.000Z</time>
      </trkpt>
      <trkpt lat="49.41883" lon="1.18416">
        <ele>90</ele>
        <time>2016-05-01T10:14:39.000Z</time>
      </trkpt>
      <trkpt lat="49.41886" lon="1.18401">
        <ele>90</ele>
        <time>2016-05-01T10:14:41.000Z</time>
      </trkpt>
      <trkpt lat="49.41882" lon="1.18386">
        <ele>90</ele>
        <time>2016-05-01T10:14:43.000Z</time>
      </trkpt>
      <trkpt lat="49.41877" lon="1.18373">
        <ele>89</ele>
        <time>2016-05-01T10:14:45.000Z</time>
      </trkpt>
      <trkpt lat="49.41871" lon="1.1836">
        <ele>89</ele>
        <time>2016-05-01T10:14:47.000Z</time>
      </trkpt>
      <trkpt lat="49.41867" lon="1.18347">
        <ele>89</ele>
        <time>2016-05-01T10:14:49.000Z</time>
      </trkpt>
      <trkpt lat="49.41862" lon="1.18336">
        <ele>89</ele>
        <time>2016-05-01T10:14:51.000Z</time>
      </trkpt>
      <trkpt lat="49.41858" lon="1.18323">
        <ele>90</ele>
        <time>2016-05-01T10:14:53.000Z</time>
      </trkpt>
      <trkpt lat="49.41852" lon="1.18312">
        <ele>91</ele>
        <time>2016-05-01T10:14:55.000Z</time>
      </trkpt>
      <trkpt lat="49.41846" lon="1.18303">
        <ele>91</ele>
        <time>2016-05-01T10:14:57.000Z</time>
      </trkpt>
      <trkpt lat="49.41842" lon="1.18295">
        <ele>92</ele>
        <time>2016-05-01T10:14:59.000Z</time>
      </trkpt>
      <trkpt lat="49.41842" lon="1.18295">
        <ele>92</ele>
        <time>2016-05-01T10:15:01.000Z</time>
      </trkpt>
      <trkpt lat="49.41842" lon="1.18281">
        <ele>93</ele>
        <time>2016-05-01T10:15:03.000Z</time>
      </trkpt>
      <trkpt lat="49.41842" lon="1.18281">
        <ele>93</ele>
        <time>2016-05-01T10:15:05.000Z</time>
      </trkpt>
      <trkpt lat="49.41843" lon="1.18271">
        <ele>93</ele>
        <time>2016-05-01T10:15:07.000Z</time>
      </trkpt>
      <trkpt lat="49.41843" lon="1.18271">
        <ele>93</ele>
        <time>2016-05-01T10:15:09.000Z</time>
      </trkpt>
      <trkpt lat="49.41845" lon="1.18259">
        <ele>94</ele>
        <time>2016-05-01T10:15:11.000Z</time>
      </trkpt>
      <trkpt lat="49.41846" lon="1.18248">
        <ele>95</ele>
        <time>2016-05-01T10:15:15.000Z</time>
      </trkpt>
      <trkpt lat="49.41846" lon="1.18248">
        <ele>95</ele>
        <time>2016-05-01T10:15:17.000Z</time>
      </trkpt>
      <trkpt lat="49.41848" lon="1.18239">
        <ele>97</ele>
        <time>2016-05-01T10:15:19.000Z</time>
      </trkpt>
      <trkpt lat="49.41847" lon="1.18228">
        <ele>96</ele>
        <time>2016-05-01T10:15:23.000Z</time>
      </trkpt>
      <trkpt lat="49.41847" lon="1.18228">
        <ele>96</ele>
        <time>2016-05-01T10:15:27.000Z</time>
      </trkpt>
      <trkpt lat="49.41849" lon="1.18217">
        <ele>101</ele>
        <time>2016-05-01T10:15:29.000Z</time>
      </trkpt>
      <trkpt lat="49.41849" lon="1.18217">
        <ele>101</ele>
        <time>2016-05-01T10:15:31.000Z</time>
      </trkpt>
      <trkpt lat="49.41849" lon="1.18217">
        <ele>101</ele>
        <time>2016-05-01T10:15:33.000Z</time>
      </trkpt>
      <trkpt lat="49.41848" lon="1.18205">
        <ele>108</ele>
        <time>2016-05-01T10:15:35.000Z</time>
      </trkpt>
      <trkpt lat="49.41847" lon="1.18197">
        <ele>109</ele>
        <time>2016-05-01T10:15:39.000Z</time>
      </trkpt>
      <trkpt lat="49.41847" lon="1.18197">
        <ele>109</ele>
        <time>2016-05-01T10:15:41.000Z</time>
      </trkpt>
      <trkpt lat="49.41847" lon="1.18197">
        <ele>109</ele>
        <time>2016-05-01T10:15:43.000Z</time>
      </trkpt>
      <trkpt lat="49.41845" lon="1.18184">
        <ele>110</ele>
        <time>2016-05-01T10:15:45.000Z</time>
      </trkpt>
      <trkpt lat="49.41845" lon="1.18184">
        <ele>110</ele>
        <time>2016-05-01T10:15:47.000Z</time>
      </trkpt>
      <trkpt lat="49.41845" lon="1.1818">
        <ele>109</ele>
        <time>2016-05-01T10:15:49.000Z</time>
      </trkpt>
      <trkpt lat="49.41845" lon="1.18175">
        <ele>108</ele>
        <time>2016-05-01T10:15:51.000Z</time>
      </trkpt>
      <trkpt lat="49.41844" lon="1.1817">
        <ele>108</ele>
        <time>2016-05-01T10:15:53.000Z</time>
      </trkpt>
      <trkpt lat="49.41843" lon="1.18166">
        <ele>107</ele>
        <time>2016-05-01T10:15:55.000Z</time>
      </trkpt>
      <trkpt lat="49.41842" lon="1.18161">
        <ele>106</ele>
        <time>2016-05-01T10:15:57.000Z</time>
      </trkpt>
      <trkpt lat="49.4184" lon="1.1815">
        <ele>109</ele>
        <time>2016-05-01T10:16:01.000Z</time>
      </trkpt>
      <trkpt lat="49.4184" lon="1.1815">
        <ele>109</ele>
        <time>2016-05-01T10:16:03.000Z</time>
      </trkpt>
      <trkpt lat="49.4184" lon="1.1815">
        <ele>109</ele>
        <time>2016-05-01T10:16:05.000Z</time>
      </trkpt>
      <trkpt lat="49.41835" lon="1.18142">
        <ele>110</ele>
        <time>2016-05-01T10:16:07.000Z</time>
      </trkpt>
      <trkpt lat="49.41829" lon="1.1815">
        <ele>111</ele>
        <time>2016-05-01T10:16:13.000Z</time>
      </trkpt>
      <trkpt lat="49.41825" lon="1.18161">
        <ele>112</ele>
        <time>2016-05-01T10:16:19.000Z</time>
      </trkpt>
      <trkpt lat="49.41819" lon="1.18171">
        <ele>114</ele>
        <time>2016-05-01T10:16:25.000Z</time>
      </trkpt>
      <trkpt lat="49.41815" lon="1.18179">
        <ele>115</ele>
        <time>2016-05-01T10:16:29.000Z</time>
      </trkpt>
      <trkpt lat="49.4181" lon="1.18189">
        <ele>116</ele>
        <time>2016-05-01T10:16:33.000Z</time>
      </trkpt>
      <trkpt lat="49.41805" lon="1.18199">
        <ele>117</ele>
        <time>2016-05-01T10:16:37.000Z</time>
      </trkpt>
      <trkpt lat="49.418" lon="1.1821">
        <ele>117</ele>
        <time>2016-05-01T10:16:41.000Z</time>
      </trkpt>
      <trkpt lat="49.418" lon="1.1821">
        <ele>117</ele>
        <time>2016-05-01T10:16:43.000Z</time>
      </trkpt>
      <trkpt lat="49.41795" lon="1.1822">
        <ele>117</ele>
        <time>2016-05-01T10:16:45.000Z</time>
      </trkpt>
      <trkpt lat="49.41795" lon="1.1822">
        <ele>117</ele>
        <time>2016-05-01T10:16:47.000Z</time>
      </trkpt>
      <trkpt lat="49.4179" lon="1.18229">
        <ele>119</ele>
        <time>2016-05-01T10:16:49.000Z</time>
      </trkpt>
      <trkpt lat="49.41783" lon="1.18237">
        <ele>120</ele>
        <time>2016-05-01T10:16:53.000Z</time>
      </trkpt>
      <trkpt lat="49.41783" lon="1.18237">
        <ele>120</ele>
        <time>2016-05-01T10:16:55.000Z</time>
      </trkpt>
      <trkpt lat="49.41777" lon="1.18243">
        <ele>121</ele>
        <time>2016-05-01T10:16:57.000Z</time>
      </trkpt>
      <trkpt lat="49.41777" lon="1.18243">
        <ele>121</ele>
        <time>2016-05-01T10:16:59.000Z</time>
      </trkpt>
      <trkpt lat="49.41771" lon="1.18247">
        <ele>123</ele>
        <time>2016-05-01T10:17:01.000Z</time>
      </trkpt>
      <trkpt lat="49.41771" lon="1.18247">
        <ele>123</ele>
        <time>2016-05-01T10:17:03.000Z</time>
      </trkpt>
      <trkpt lat="49.41771" lon="1.18247">
        <ele>123</ele>
        <time>2016-05-01T10:17:05.000Z</time>
      </trkpt>
      <trkpt lat="49.41765" lon="1.1825">
        <ele>122</ele>
        <time>2016-05-01T10:17:07.000Z</time>
      </trkpt>
      <trkpt lat="49.41765" lon="1.1825">
        <ele>122</ele>
        <time>2016-05-01T10:17:09.000Z</time>
      </trkpt>
      <trkpt lat="49.41757" lon="1.18251">
        <ele>124</ele>
        <time>2016-05-01T10:17:13.000Z</time>
      </trkpt>
      <trkpt lat="49.41751" lon="1.18251">
        <ele>124</ele>
        <time>2016-05-01T10:17:17.000Z</time>
      </trkpt>
      <trkpt lat="49.41751" lon="1.18251">
        <ele>124</ele>
        <time>2016-05-01T10:17:21.000Z</time>
      </trkpt>
      <trkpt lat="49.41743" lon="1.18252">
        <ele>127</ele>
        <time>2016-05-01T10:17:23.000Z</time>
      </trkpt>
      <trkpt lat="49.41743" lon="1.18252">
        <ele>127</ele>
        <time>2016-05-01T10:17:25.000Z</time>
      </trkpt>
      <trkpt lat="49.41743" lon="1.18252">
        <ele>127</ele>
        <time>2016-05-01T10:17:27.000Z</time>
      </trkpt>
      <trkpt lat="49.41737" lon="1.18253">
        <ele>129</ele>
        <time>2016-05-01T10:17:29.000Z</time>
      </trkpt>
      <trkpt lat="49.41729" lon="1.18254">
        <ele>131</ele>
        <time>2016-05-01T10:17:35.000Z</time>
      </trkpt>
      <trkpt lat="49.41729" lon="1.18254">
        <ele>131</ele>
        <time>2016-05-01T10:17:37.000Z</time>
      </trkpt>
      <trkpt lat="49.41726" lon="1.18255">
        <ele>129</ele>
        <time>2016-05-01T10:17:39.000Z</time>
      </trkpt>
      <trkpt lat="49.41726" lon="1.18255">
        <ele>129</ele>
        <time>2016-05-01T10:17:41.000Z</time>
      </trkpt>
      <trkpt lat="49.41723" lon="1.18255">
        <ele>134</ele>
        <time>2016-05-01T10:17:43.000Z</time>
      </trkpt>
      <trkpt lat="49.41723" lon="1.18255">
        <ele>134</ele>
        <time>2016-05-01T10:17:45.000Z</time>
      </trkpt>
      <trkpt lat="49.41719" lon="1.18255">
        <ele>138</ele>
        <time>2016-05-01T10:17:47.000Z</time>
      </trkpt>
      <trkpt lat="49.41716" lon="1.18254">
        <ele>139</ele>
        <time>2016-05-01T10:17:49.000Z</time>
      </trkpt>
      <trkpt lat="49.41713" lon="1.18254">
        <ele>142</ele>
        <time>2016-05-01T10:17:53.000Z</time>
      </trkpt>
      <trkpt lat="49.41713" lon="1.18254">
        <ele>142</ele>
        <time>2016-05-01T10:17:55.000Z</time>
      </trkpt>
      <trkpt lat="49.41708" lon="1.18255">
        <ele>140</ele>
        <time>2016-05-01T10:17:57.000Z</time>
      </trkpt>
      <trkpt lat="49.41705" lon="1.18256">
        <ele>137</ele>
        <time>2016-05-01T10:17:59.000Z</time>
      </trkpt>
      <trkpt lat="49.41702" lon="1.18256">
        <ele>138</ele>
        <time>2016-05-01T10:18:01.000Z</time>
      </trkpt>
      <trkpt lat="49.41698" lon="1.18256">
        <ele>139</ele>
        <time>2016-05-01T10:18:05.000Z</time>
      </trkpt>
      <trkpt lat="49.41694" lon="1.18256">
        <ele>139</ele>
        <time>2016-05-01T10:18:07.000Z</time>
      </trkpt>
      <trkpt lat="49.4169" lon="1.18256">
        <ele>138</ele>
        <time>2016-05-01T10:18:09.000Z</time>
      </trkpt>
      <trkpt lat="49.41687" lon="1.18256">
        <ele>138</ele>
        <time>2016-05-01T10:18:11.000Z</time>
      </trkpt>
      <trkpt lat="49.41687" lon="1.18256">
        <ele>138</ele>
        <time>2016-05-01T10:18:13.000Z</time>
      </trkpt>
      <trkpt lat="49.41684" lon="1.18255">
        <ele>139</ele>
        <time>2016-05-01T10:18:15.000Z</time>
      </trkpt>
      <trkpt lat="49.41684" lon="1.18255">
        <ele>139</ele>
        <time>2016-05-01T10:18:17.000Z</time>
      </trkpt>
      <trkpt lat="49.41679" lon="1.18254">
        <ele>139</ele>
        <time>2016-05-01T10:18:19.000Z</time>
      </trkpt>
      <trkpt lat="49.41676" lon="1.18254">
        <ele>140</ele>
        <time>2016-05-01T10:18:21.000Z</time>
      </trkpt>
      <trkpt lat="49.41673" lon="1.18253">
        <ele>140</ele>
        <time>2016-05-01T10:18:23.000Z</time>
      </trkpt>
      <trkpt lat="49.41673" lon="1.18253">
        <ele>140</ele>
        <time>2016-05-01T10:18:25.000Z</time>
      </trkpt>
      <trkpt lat="49.41669" lon="1.18253">
        <ele>140</ele>
        <time>2016-05-01T10:18:27.000Z</time>
      </trkpt>
      <trkpt lat="49.41665" lon="1.18253">
        <ele>140</ele>
        <time>2016-05-01T10:18:29.000Z</time>
      </trkpt>
      <trkpt lat="49.41662" lon="1.18253">
        <ele>140</ele>
        <time>2016-05-01T10:18:31.000Z</time>
      </trkpt>
      <trkpt lat="49.41658" lon="1.18253">
        <ele>140</ele>
        <time>2016-05-01T10:18:33.000Z</time>
      </trkpt>
      <trkpt lat="49.41655" lon="1.18253">
        <ele>140</ele>
        <time>2016-05-01T10:18:35.000Z</time>
      </trkpt>
      <trkpt lat="49.4165" lon="1.18252">
        <ele>140</ele>
        <time>2016-05-01T10:18:37.000Z</time>
      </trkpt>
      <trkpt lat="49.41642" lon="1.18253">
        <ele>142</ele>
        <time>2016-05-01T10:18:43.000Z</time>
      </trkpt>
      <trkpt lat="49.41642" lon="1.18253">
        <ele>142</ele>
        <time>2016-05-01T10:18:45.000Z</time>
      </trkpt>
      <trkpt lat="49.41642" lon="1.18253">
        <ele>142</ele>
        <time>2016-05-01T10:18:47.000Z</time>
      </trkpt>
      <trkpt lat="49.41642" lon="1.18253">
        <ele>142</ele>
        <time>2016-05-01T10:18:49.000Z</time>
      </trkpt>
      <trkpt lat="49.41634" lon="1.18255">
        <ele>145</ele>
        <time>2016-05-01T10:18:51.000Z</time>
      </trkpt>
      <trkpt lat="49.41634" lon="1.18255">
        <ele>145</ele>
        <time>2016-05-01T10:18:55.000Z</time>
      </trkpt>
      <trkpt lat="49.41634" lon="1.18255">
        <ele>145</ele>
        <time>2016-05-01T10:18:57.000Z</time>
      </trkpt>
      <trkpt lat="49.41606" lon="1.18236">
        <ele>147</ele>
        <time>2016-05-01T10:19:19.000Z</time>
      </trkpt>
      <trkpt lat="49.41599" lon="1.18233">
        <ele>146</ele>
        <time>2016-05-01T10:19:23.000Z</time>
      </trkpt>
      <trkpt lat="49.41593" lon="1.18229">
        <ele>146</ele>
        <time>2016-05-01T10:19:27.000Z</time>
      </trkpt>
      <trkpt lat="49.41593" lon="1.18229">
        <ele>146</ele>
        <time>2016-05-01T10:19:31.000Z</time>
      </trkpt>
      <trkpt lat="49.41586" lon="1.18221">
        <ele>149</ele>
        <time>2016-05-01T10:19:33.000Z</time>
      </trkpt>
      <trkpt lat="49.41586" lon="1.18221">
        <ele>149</ele>
        <time>2016-05-01T10:19:35.000Z</time>
      </trkpt>
      <trkpt lat="49.41586" lon="1.18221">
        <ele>149</ele>
        <time>2016-05-01T10:19:37.000Z</time>
      </trkpt>
      <trkpt lat="49.41578" lon="1.18218">
        <ele>152</ele>
        <time>2016-05-01T10:19:39.000Z</time>
      </trkpt>
      <trkpt lat="49.4157" lon="1.18216">
        <ele>153</ele>
        <time>2016-05-01T10:19:43.000Z</time>
      </trkpt>
      <trkpt lat="49.4157" lon="1.18216">
        <ele>153</ele>
        <time>2016-05-01T10:19:45.000Z</time>
      </trkpt>
      <trkpt lat="49.41563" lon="1.18213">
        <ele>154</ele>
        <time>2016-05-01T10:19:47.000Z</time>
      </trkpt>
      <trkpt lat="49.41563" lon="1.18213">
        <ele>154</ele>
        <time>2016-05-01T10:19:49.000Z</time>
      </trkpt>
      <trkpt lat="49.41563" lon="1.18213">
        <ele>154</ele>
        <time>2016-05-01T10:19:51.000Z</time>
      </trkpt>
      <trkpt lat="49.41556" lon="1.18208">
        <ele>158</ele>
        <time>2016-05-01T10:19:53.000Z</time>
      </trkpt>
      <trkpt lat="49.41556" lon="1.18208">
        <ele>158</ele>
        <time>2016-05-01T10:19:55.000Z</time>
      </trkpt>
      <trkpt lat="49.41551" lon="1.18204">
        <ele>159</ele>
        <time>2016-05-01T10:19:57.000Z</time>
      </trkpt>
      <trkpt lat="49.41551" lon="1.18204">
        <ele>159</ele>
        <time>2016-05-01T10:19:59.000Z</time>
      </trkpt>
      <trkpt lat="49.41551" lon="1.18204">
        <ele>159</ele>
        <time>2016-05-01T10:20:01.000Z</time>
      </trkpt>
      <trkpt lat="49.41548" lon="1.182">
        <ele>159</ele>
        <time>2016-05-01T10:20:03.000Z</time>
      </trkpt>
      <trkpt lat="49.41545" lon="1.18196">
        <ele>161</ele>
        <time>2016-05-01T10:20:05.000Z</time>
      </trkpt>
      <trkpt lat="49.41542" lon="1.18194">
        <ele>161</ele>
        <time>2016-05-01T10:20:07.000Z</time>
      </trkpt>
      <trkpt lat="49.41542" lon="1.18194">
        <ele>161</ele>
        <time>2016-05-01T10:20:09.000Z</time>
      </trkpt>
      <trkpt lat="49.41539" lon="1.1819">
        <ele>161</ele>
        <time>2016-05-01T10:20:11.000Z</time>
      </trkpt>
      <trkpt lat="49.41536" lon="1.18188">
        <ele>161</ele>
        <time>2016-05-01T10:20:13.000Z</time>
      </trkpt>
      <trkpt lat="49.41536" lon="1.18188">
        <ele>161</ele>
        <time>2016-05-01T10:20:15.000Z</time>
      </trkpt>
      <trkpt lat="49.41536" lon="1.18188">
        <ele>161</ele>
        <time>2016-05-01T10:20:17.000Z</time>
      </trkpt>
      <trkpt lat="49.41528" lon="1.1818">
        <ele>163</ele>
        <time>2016-05-01T10:20:28.000Z</time>
      </trkpt>
      <trkpt lat="49.41528" lon="1.1818">
        <ele>163</ele>
        <time>2016-05-01T10:20:30.000Z</time>
      </trkpt>
      <trkpt lat="49.41528" lon="1.1818">
        <ele>163</ele>
        <time>2016-05-01T10:20:32.000Z</time>
      </trkpt>
      <trkpt lat="49.41528" lon="1.1818">
        <ele>163</ele>
        <time>2016-05-01T10:20:34.000Z</time>
      </trkpt>
      <trkpt lat="49.41528" lon="1.1818">
        <ele>163</ele>
        <time>2016-05-01T10:20:36.000Z</time>
      </trkpt>
      <trkpt lat="49.41512" lon="1.18164">
        <ele>169</ele>
        <time>2016-05-01T10:20:52.000Z</time>
      </trkpt>
      <trkpt lat="49.41506" lon="1.18159">
        <ele>170</ele>
        <time>2016-05-01T10:20:58.000Z</time>
      </trkpt>
      <trkpt lat="49.41506" lon="1.18159">
        <ele>170</ele>
        <time>2016-05-01T10:21:02.000Z</time>
      </trkpt>
      <trkpt lat="49.41499" lon="1.18157">
        <ele>170</ele>
        <time>2016-05-01T10:21:04.000Z</time>
      </trkpt>
      <trkpt lat="49.41493" lon="1.18152">
        <ele>173</ele>
        <time>2016-05-01T10:21:10.000Z</time>
      </trkpt>
      <trkpt lat="49.41493" lon="1.18152">
        <ele>173</ele>
        <time>2016-05-01T10:21:12.000Z</time>
      </trkpt>
      <trkpt lat="49.41493" lon="1.18152">
        <ele>173</ele>
        <time>2016-05-01T10:21:14.000Z</time>
      </trkpt>
      <trkpt lat="49.41488" lon="1.18149">
        <ele>173</ele>
        <time>2016-05-01T10:21:16.000Z</time>
      </trkpt>
      <trkpt lat="49.41488" lon="1.18149">
        <ele>173</ele>
        <time>2016-05-01T10:21:18.000Z</time>
      </trkpt>
      <trkpt lat="49.41488" lon="1.18149">
        <ele>173</ele>
        <time>2016-05-01T10:21:20.000Z</time>
      </trkpt>
      <trkpt lat="49.41488" lon="1.18149">
        <ele>173</ele>
        <time>2016-05-01T10:21:22.000Z</time>
      </trkpt>
      <trkpt lat="49.41488" lon="1.18149">
        <ele>173</ele>
        <time>2016-05-01T10:21:24.000Z</time>
      </trkpt>
      <trkpt lat="49.41488" lon="1.18149">
        <ele>173</ele>
        <time>2016-05-01T10:21:26.000Z</time>
      </trkpt>
      <trkpt lat="49.41488" lon="1.18149">
        <ele>173</ele>
        <time>2016-05-01T10:21:28.000Z</time>
      </trkpt>
      <trkpt lat="49.41481" lon="1.18141">
        <ele>177</ele>
        <time>2016-05-01T10:21:42.000Z</time>
      </trkpt>
      <trkpt lat="49.41476" lon="1.18137">
        <ele>178</ele>
        <time>2016-05-01T10:21:45.000Z</time>
      </trkpt>
      <trkpt lat="49.41473" lon="1.18134">
        <ele>179</ele>
        <time>2016-05-01T10:21:47.000Z</time>
      </trkpt>
      <trkpt lat="49.4147" lon="1.18131">
        <ele>178</ele>
        <time>2016-05-01T10:21:51.000Z</time>
      </trkpt>
      <trkpt lat="49.4147" lon="1.18131">
        <ele>178</ele>
        <time>2016-05-01T10:21:53.000Z</time>
      </trkpt>
      <trkpt lat="49.41467" lon="1.18128">
        <ele>179</ele>
        <time>2016-05-01T10:21:55.000Z</time>
      </trkpt>
      <trkpt lat="49.41464" lon="1.18126">
        <ele>178</ele>
        <time>2016-05-01T10:21:57.000Z</time>
      </trkpt>
      <trkpt lat="49.4146" lon="1.18124">
        <ele>179</ele>
        <time>2016-05-01T10:22:01.000Z</time>
      </trkpt>
      <trkpt lat="49.41458" lon="1.18122">
        <ele>179</ele>
        <time>2016-05-01T10:22:03.000Z</time>
      </trkpt>
      <trkpt lat="49.41455" lon="1.18121">
        <ele>183</ele>
        <time>2016-05-01T10:22:07.000Z</time>
      </trkpt>
      <trkpt lat="49.41455" lon="1.18121">
        <ele>183</ele>
        <time>2016-05-01T10:22:09.000Z</time>
      </trkpt>
      <trkpt lat="49.41451" lon="1.1812">
        <ele>185</ele>
        <time>2016-05-01T10:22:11.000Z</time>
      </trkpt>
      <trkpt lat="49.41448" lon="1.18117">
        <ele>184</ele>
        <time>2016-05-01T10:22:15.000Z</time>
      </trkpt>
      <trkpt lat="49.41445" lon="1.18115">
        <ele>185</ele>
        <time>2016-05-01T10:22:17.000Z</time>
      </trkpt>
      <trkpt lat="49.41445" lon="1.18115">
        <ele>185</ele>
        <time>2016-05-01T10:22:19.000Z</time>
      </trkpt>
      <trkpt lat="49.41445" lon="1.18115">
        <ele>185</ele>
        <time>2016-05-01T10:22:21.000Z</time>
      </trkpt>
      <trkpt lat="49.41445" lon="1.18115">
        <ele>185</ele>
        <time>2016-05-01T10:22:23.000Z</time>
      </trkpt>
      <trkpt lat="49.41445" lon="1.18115">
        <ele>185</ele>
        <time>2016-05-01T10:22:25.000Z</time>
      </trkpt>
      <trkpt lat="49.41445" lon="1.18115">
        <ele>185</ele>
        <time>2016-05-01T10:22:27.000Z</time>
      </trkpt>
      <trkpt lat="49.4143" lon="1.18098">
        <ele>184</ele>
        <time>2016-05-01T10:22:43.000Z</time>
      </trkpt>
      <trkpt lat="49.4143" lon="1.18098">
        <ele>184</ele>
        <time>2016-05-01T10:22:45.000Z</time>
      </trkpt>
      <trkpt lat="49.4143" lon="1.18098">
        <ele>184</ele>
        <time>2016-05-01T10:22:47.000Z</time>
      </trkpt>
      <trkpt lat="49.41423" lon="1.18095">
        <ele>185</ele>
        <time>2016-05-01T10:22:49.000Z</time>
      </trkpt>
      <trkpt lat="49.41423" lon="1.18095">
        <ele>185</ele>
        <time>2016-05-01T10:22:51.000Z</time>
      </trkpt>
      <trkpt lat="49.41423" lon="1.18095">
        <ele>185</ele>
        <time>2016-05-01T10:22:53.000Z</time>
      </trkpt>
      <trkpt lat="49.41418" lon="1.18089">
        <ele>191</ele>
        <time>2016-05-01T10:22:55.000Z</time>
      </trkpt>
      <trkpt lat="49.41412" lon="1.18082">
        <ele>190</ele>
        <time>2016-05-01T10:23:01.000Z</time>
      </trkpt>
      <trkpt lat="49.41412" lon="1.18082">
        <ele>190</ele>
        <time>2016-05-01T10:23:03.000Z</time>
      </trkpt>
      <trkpt lat="49.41407" lon="1.18075">
        <ele>189</ele>
        <time>2016-05-01T10:23:05.000Z</time>
      </trkpt>
      <trkpt lat="49.41407" lon="1.18075">
        <ele>189</ele>
        <time>2016-05-01T10:23:07.000Z</time>
      </trkpt>
      <trkpt lat="49.41407" lon="1.18075">
        <ele>189</ele>
        <time>2016-05-01T10:23:09.000Z</time>
      </trkpt>
      <trkpt lat="49.41401" lon="1.1807">
        <ele>188</ele>
        <time>2016-05-01T10:23:11.000Z</time>
      </trkpt>
      <trkpt lat="49.41394" lon="1.18065">
        <ele>188</ele>
        <time>2016-05-01T10:23:17.000Z</time>
      </trkpt>
      <trkpt lat="49.41394" lon="1.18065">
        <ele>188</ele>
        <time>2016-05-01T10:23:19.000Z</time>
      </trkpt>
      <trkpt lat="49.41394" lon="1.18065">
        <ele>188</ele>
        <time>2016-05-01T10:23:21.000Z</time>
      </trkpt>
      <trkpt lat="49.41394" lon="1.18065">
        <ele>188</ele>
        <time>2016-05-01T10:23:23.000Z</time>
      </trkpt>
      <trkpt lat="49.41394" lon="1.18065">
        <ele>188</ele>
        <time>2016-05-01T10:23:29.000Z</time>
      </trkpt>
      <trkpt lat="49.4138" lon="1.18065">
        <ele>182</ele>
        <time>2016-05-01T10:29:26.000Z</time>
      </trkpt>
      <trkpt lat="49.41374" lon="1.1806">
        <ele>183</ele>
        <time>2016-05-01T10:29:30.000Z</time>
      </trkpt>
      <trkpt lat="49.41366" lon="1.18054">
        <ele>183</ele>
        <time>2016-05-01T10:29:34.000Z</time>
      </trkpt>
      <trkpt lat="49.41359" lon="1.18043">
        <ele>182</ele>
        <time>2016-05-01T10:29:38.000Z</time>
      </trkpt>
      <trkpt lat="49.41351" lon="1.18033">
        <ele>182</ele>
        <time>2016-05-01T10:29:42.000Z</time>
      </trkpt>
      <trkpt lat="49.41351" lon="1.18033">
        <ele>182</ele>
        <time>2016-05-01T10:29:44.000Z</time>
      </trkpt>
      <trkpt lat="49.41343" lon="1.18023">
        <ele>183</ele>
        <time>2016-05-01T10:29:46.000Z</time>
      </trkpt>
      <trkpt lat="49.41335" lon="1.18012">
        <ele>184</ele>
        <time>2016-05-01T10:29:50.000Z</time>
      </trkpt>
      <trkpt lat="49.41335" lon="1.18012">
        <ele>184</ele>
        <time>2016-05-01T10:29:52.000Z</time>
      </trkpt>
      <trkpt lat="49.41327" lon="1.18003">
        <ele>184</ele>
        <time>2016-05-01T10:29:54.000Z</time>
      </trkpt>
      <trkpt lat="49.41319" lon="1.17992">
        <ele>185</ele>
        <time>2016-05-01T10:29:58.000Z</time>
      </trkpt>
      <trkpt lat="49.41311" lon="1.17982">
        <ele>185</ele>
        <time>2016-05-01T10:30:02.000Z</time>
      </trkpt>
      <trkpt lat="49.41301" lon="1.17972">
        <ele>185</ele>
        <time>2016-05-01T10:30:06.000Z</time>
      </trkpt>
      <trkpt lat="49.41292" lon="1.17963">
        <ele>186</ele>
        <time>2016-05-01T10:30:10.000Z</time>
      </trkpt>
      <trkpt lat="49.41283" lon="1.17953">
        <ele>186</ele>
        <time>2016-05-01T10:30:14.000Z</time>
      </trkpt>
      <trkpt lat="49.41283" lon="1.17953">
        <ele>186</ele>
        <time>2016-05-01T10:30:16.000Z</time>
      </trkpt>
      <trkpt lat="49.41273" lon="1.17943">
        <ele>186</ele>
        <time>2016-05-01T10:30:18.000Z</time>
      </trkpt>
      <trkpt lat="49.41269" lon="1.17937">
        <ele>186</ele>
        <time>2016-05-01T10:30:20.000Z</time>
      </trkpt>
      <trkpt lat="49.41264" lon="1.17931">
        <ele>187</ele>
        <time>2016-05-01T10:30:22.000Z</time>
      </trkpt>
      <trkpt lat="49.41259" lon="1.17926">
        <ele>187</ele>
        <time>2016-05-01T10:30:24.000Z</time>
      </trkpt>
      <trkpt lat="49.41254" lon="1.1792">
        <ele>187</ele>
        <time>2016-05-01T10:30:26.000Z</time>
      </trkpt>
      <trkpt lat="49.41249" lon="1.17915">
        <ele>187</ele>
        <time>2016-05-01T10:30:28.000Z</time>
      </trkpt>
      <trkpt lat="49.41244" lon="1.17909">
        <ele>188</ele>
        <time>2016-05-01T10:30:30.000Z</time>
      </trkpt>
      <trkpt lat="49.41239" lon="1.17903">
        <ele>188</ele>
        <time>2016-05-01T10:30:32.000Z</time>
      </trkpt>
      <trkpt lat="49.41233" lon="1.17898">
        <ele>188</ele>
        <time>2016-05-01T10:30:34.000Z</time>
      </trkpt>
      <trkpt lat="49.41228" lon="1.17892">
        <ele>188</ele>
        <time>2016-05-01T10:30:36.000Z</time>
      </trkpt>
      <trkpt lat="49.41224" lon="1.17887">
        <ele>188</ele>
        <time>2016-05-01T10:30:38.000Z</time>
      </trkpt>
      <trkpt lat="49.41219" lon="1.17881">
        <ele>188</ele>
        <time>2016-05-01T10:30:40.000Z</time>
      </trkpt>
      <trkpt lat="49.41214" lon="1.17876">
        <ele>188</ele>
        <time>2016-05-01T10:30:42.000Z</time>
      </trkpt>
      <trkpt lat="49.41209" lon="1.1787">
        <ele>188</ele>
        <time>2016-05-01T10:30:44.000Z</time>
      </trkpt>
      <trkpt lat="49.41204" lon="1.17865">
        <ele>188</ele>
        <time>2016-05-01T10:30:46.000Z</time>
      </trkpt>
      <trkpt lat="49.41199" lon="1.17859">
        <ele>188</ele>
        <time>2016-05-01T10:30:48.000Z</time>
      </trkpt>
      <trkpt lat="49.41193" lon="1.17854">
        <ele>188</ele>
        <time>2016-05-01T10:30:50.000Z</time>
      </trkpt>
      <trkpt lat="49.41188" lon="1.17848">
        <ele>188</ele>
        <time>2016-05-01T10:30:52.000Z</time>
      </trkpt>
      <trkpt lat="49.41183" lon="1.17842">
        <ele>189</ele>
        <time>2016-05-01T10:30:54.000Z</time>
      </trkpt>
      <trkpt lat="49.41178" lon="1.17836">
        <ele>189</ele>
        <time>2016-05-01T10:30:56.000Z</time>
      </trkpt>
      <trkpt lat="49.41172" lon="1.1783">
        <ele>189</ele>
        <time>2016-05-01T10:30:58.000Z</time>
      </trkpt>
      <trkpt lat="49.41167" lon="1.17823">
        <ele>189</ele>
        <time>2016-05-01T10:31:00.000Z</time>
      </trkpt>
      <trkpt lat="49.41162" lon="1.17817">
        <ele>189</ele>
        <time>2016-05-01T10:31:02.000Z</time>
      </trkpt>
      <trkpt lat="49.41157" lon="1.1781">
        <ele>189</ele>
        <time>2016-05-01T10:31:04.000Z</time>
      </trkpt>
      <trkpt lat="49.41152" lon="1.17803">
        <ele>190</ele>
        <time>2016-05-01T10:31:06.000Z</time>
      </trkpt>
      <trkpt lat="49.41148" lon="1.17796">
        <ele>190</ele>
        <time>2016-05-01T10:31:08.000Z</time>
      </trkpt>
      <trkpt lat="49.41143" lon="1.17789">
        <ele>190</ele>
        <time>2016-05-01T10:31:10.000Z</time>
      </trkpt>
      <trkpt lat="49.41138" lon="1.17781">
        <ele>190</ele>
        <time>2016-05-01T10:31:12.000Z</time>
      </trkpt>
      <trkpt lat="49.41133" lon="1.17773">
        <ele>190</ele>
        <time>2016-05-01T10:31:14.000Z</time>
      </trkpt>
      <trkpt lat="49.41129" lon="1.17764">
        <ele>191</ele>
        <time>2016-05-01T10:31:16.000Z</time>
      </trkpt>
      <trkpt lat="49.41125" lon="1.17755">
        <ele>191</ele>
        <time>2016-05-01T10:31:18.000Z</time>
      </trkpt>
      <trkpt lat="49.41121" lon="1.17746">
        <ele>191</ele>
        <time>2016-05-01T10:31:20.000Z</time>
      </trkpt>
      <trkpt lat="49.41117" lon="1.17736">
        <ele>191</ele>
        <time>2016-05-01T10:31:22.000Z</time>
      </trkpt>
      <trkpt lat="49.41113" lon="1.17727">
        <ele>191</ele>
        <time>2016-05-01T10:31:24.000Z</time>
      </trkpt>
      <trkpt lat="49.4111" lon="1.17717">
        <ele>191</ele>
        <time>2016-05-01T10:31:26.000Z</time>
      </trkpt>
      <trkpt lat="49.41106" lon="1.17708">
        <ele>191</ele>
        <time>2016-05-01T10:31:28.000Z</time>
      </trkpt>
      <trkpt lat="49.41103" lon="1.17699">
        <ele>192</ele>
        <time>2016-05-01T10:31:30.000Z</time>
      </trkpt>
      <trkpt lat="49.41098" lon="1.17689">
        <ele>192</ele>
        <time>2016-05-01T10:31:32.000Z</time>
      </trkpt>
      <trkpt lat="49.41094" lon="1.1768">
        <ele>191</ele>
        <time>2016-05-01T10:31:34.000Z</time>
      </trkpt>
      <trkpt lat="49.4109" lon="1.17671">
        <ele>191</ele>
        <time>2016-05-01T10:31:36.000Z</time>
      </trkpt>
      <trkpt lat="49.41085" lon="1.17662">
        <ele>191</ele>
        <time>2016-05-01T10:31:38.000Z</time>
      </trkpt>
      <trkpt lat="49.41081" lon="1.17654">
        <ele>192</ele>
        <time>2016-05-01T10:31:40.000Z</time>
      </trkpt>
      <trkpt lat="49.41076" lon="1.17645">
        <ele>192</ele>
        <time>2016-05-01T10:31:42.000Z</time>
      </trkpt>
      <trkpt lat="49.41072" lon="1.17636">
        <ele>192</ele>
        <time>2016-05-01T10:31:44.000Z</time>
      </trkpt>
      <trkpt lat="49.41067" lon="1.17628">
        <ele>192</ele>
        <time>2016-05-01T10:31:46.000Z</time>
      </trkpt>
      <trkpt lat="49.41063" lon="1.1762">
        <ele>192</ele>
        <time>2016-05-01T10:31:48.000Z</time>
      </trkpt>
      <trkpt lat="49.41058" lon="1.17612">
        <ele>193</ele>
        <time>2016-05-01T10:31:50.000Z</time>
      </trkpt>
      <trkpt lat="49.41053" lon="1.17604">
        <ele>193</ele>
        <time>2016-05-01T10:31:52.000Z</time>
      </trkpt>
      <trkpt lat="49.41048" lon="1.17597">
        <ele>193</ele>
        <time>2016-05-01T10:31:54.000Z</time>
      </trkpt>
      <trkpt lat="49.41043" lon="1.17589">
        <ele>192</ele>
        <time>2016-05-01T10:31:56.000Z</time>
      </trkpt>
      <trkpt lat="49.41039" lon="1.17581">
        <ele>193</ele>
        <time>2016-05-01T10:31:58.000Z</time>
      </trkpt>
      <trkpt lat="49.41033" lon="1.17574">
        <ele>193</ele>
        <time>2016-05-01T10:32:00.000Z</time>
      </trkpt>
      <trkpt lat="49.41028" lon="1.17567">
        <ele>193</ele>
        <time>2016-05-01T10:32:02.000Z</time>
      </trkpt>
      <trkpt lat="49.41023" lon="1.1756">
        <ele>193</ele>
        <time>2016-05-01T10:32:04.000Z</time>
      </trkpt>
      <trkpt lat="49.41018" lon="1.17553">
        <ele>194</ele>
        <time>2016-05-01T10:32:06.000Z</time>
      </trkpt>
      <trkpt lat="49.41013" lon="1.17547">
        <ele>194</ele>
        <time>2016-05-01T10:32:08.000Z</time>
      </trkpt>
      <trkpt lat="49.41007" lon="1.17541">
        <ele>194</ele>
        <time>2016-05-01T10:32:10.000Z</time>
      </trkpt>
      <trkpt lat="49.41002" lon="1.17535">
        <ele>195</ele>
        <time>2016-05-01T10:32:12.000Z</time>
      </trkpt>
      <trkpt lat="49.40997" lon="1.17528">
        <ele>195</ele>
        <time>2016-05-01T10:32:14.000Z</time>
      </trkpt>
      <trkpt lat="49.40992" lon="1.17522">
        <ele>195</ele>
        <time>2016-05-01T10:32:16.000Z</time>
      </trkpt>
      <trkpt lat="49.40986" lon="1.17516">
        <ele>196</ele>
        <time>2016-05-01T10:32:18.000Z</time>
      </trkpt>
      <trkpt lat="49.40981" lon="1.1751">
        <ele>196</ele>
        <time>2016-05-01T10:32:20.000Z</time>
      </trkpt>
      <trkpt lat="49.40975" lon="1.17504">
        <ele>196</ele>
        <time>2016-05-01T10:32:22.000Z</time>
      </trkpt>
      <trkpt lat="49.40969" lon="1.17498">
        <ele>196</ele>
        <time>2016-05-01T10:32:24.000Z</time>
      </trkpt>
      <trkpt lat="49.40964" lon="1.17492">
        <ele>196</ele>
        <time>2016-05-01T10:32:26.000Z</time>
      </trkpt>
      <trkpt lat="49.40958" lon="1.17486">
        <ele>197</ele>
        <time>2016-05-01T10:32:28.000Z</time>
      </trkpt>
      <trkpt lat="49.40953" lon="1.1748">
        <ele>197</ele>
        <time>2016-05-01T10:32:30.000Z</time>
      </trkpt>
      <trkpt lat="49.40947" lon="1.17474">
        <ele>198</ele>
        <time>2016-05-01T10:32:32.000Z</time>
      </trkpt>
      <trkpt lat="49.40942" lon="1.17468">
        <ele>198</ele>
        <time>2016-05-01T10:32:34.000Z</time>
      </trkpt>
      <trkpt lat="49.40937" lon="1.17463">
        <ele>198</ele>
        <time>2016-05-01T10:32:36.000Z</time>
      </trkpt>
      <trkpt lat="49.40932" lon="1.17457">
        <ele>199</ele>
        <time>2016-05-01T10:32:38.000Z</time>
      </trkpt>
      <trkpt lat="49.40927" lon="1.17452">
        <ele>199</ele>
        <time>2016-05-01T10:32:40.000Z</time>
      </trkpt>
      <trkpt lat="49.40922" lon="1.17446">
        <ele>199</ele>
        <time>2016-05-01T10:32:42.000Z</time>
      </trkpt>
      <trkpt lat="49.40922" lon="1.17446">
        <ele>199</ele>
        <time>2016-05-01T10:32:44.000Z</time>
      </trkpt>
      <trkpt lat="49.40915" lon="1.17436">
        <ele>200</ele>
        <time>2016-05-01T10:32:46.000Z</time>
      </trkpt>
      <trkpt lat="49.40915" lon="1.17436">
        <ele>200</ele>
        <time>2016-05-01T10:32:48.000Z</time>
      </trkpt>
      <trkpt lat="49.40908" lon="1.17437">
        <ele>201</ele>
        <time>2016-05-01T10:32:50.000Z</time>
      </trkpt>
      <trkpt lat="49.40899" lon="1.17448">
        <ele>202</ele>
        <time>2016-05-01T10:32:54.000Z</time>
      </trkpt>
      <trkpt lat="49.40895" lon="1.17454">
        <ele>202</ele>
        <time>2016-05-01T10:32:56.000Z</time>
      </trkpt>
      <trkpt lat="49.40887" lon="1.17466">
        <ele>203</ele>
        <time>2016-05-01T10:33:00.000Z</time>
      </trkpt>
      <trkpt lat="49.40882" lon="1.17472">
        <ele>203</ele>
        <time>2016-05-01T10:33:02.000Z</time>
      </trkpt>
      <trkpt lat="49.40878" lon="1.17479">
        <ele>203</ele>
        <time>2016-05-01T10:33:04.000Z</time>
      </trkpt>
      <trkpt lat="49.40873" lon="1.17484">
        <ele>203</ele>
        <time>2016-05-01T10:33:06.000Z</time>
      </trkpt>
      <trkpt lat="49.40868" lon="1.1749">
        <ele>203</ele>
        <time>2016-05-01T10:33:08.000Z</time>
      </trkpt>
      <trkpt lat="49.40863" lon="1.17497">
        <ele>204</ele>
        <time>2016-05-01T10:33:10.000Z</time>
      </trkpt>
      <trkpt lat="49.40858" lon="1.17503">
        <ele>204</ele>
        <time>2016-05-01T10:33:12.000Z</time>
      </trkpt>
      <trkpt lat="49.40853" lon="1.1751">
        <ele>203</ele>
        <time>2016-05-01T10:33:14.000Z</time>
      </trkpt>
      <trkpt lat="49.40847" lon="1.17517">
        <ele>204</ele>
        <time>2016-05-01T10:33:16.000Z</time>
      </trkpt>
      <trkpt lat="49.40841" lon="1.17525">
        <ele>203</ele>
        <time>2016-05-01T10:33:18.000Z</time>
      </trkpt>
      <trkpt lat="49.40836" lon="1.17533">
        <ele>203</ele>
        <time>2016-05-01T10:33:20.000Z</time>
      </trkpt>
      <trkpt lat="49.4083" lon="1.17542">
        <ele>203</ele>
        <time>2016-05-01T10:33:22.000Z</time>
      </trkpt>
      <trkpt lat="49.40824" lon="1.1755">
        <ele>203</ele>
        <time>2016-05-01T10:33:24.000Z</time>
      </trkpt>
      <trkpt lat="49.40818" lon="1.17558">
        <ele>203</ele>
        <time>2016-05-01T10:33:26.000Z</time>
      </trkpt>
      <trkpt lat="49.40812" lon="1.17566">
        <ele>203</ele>
        <time>2016-05-01T10:33:28.000Z</time>
      </trkpt>
      <trkpt lat="49.40806" lon="1.17575">
        <ele>203</ele>
        <time>2016-05-01T10:33:30.000Z</time>
      </trkpt>
      <trkpt lat="49.408" lon="1.17583">
        <ele>203</ele>
        <time>2016-05-01T10:33:32.000Z</time>
      </trkpt>
      <trkpt lat="49.40794" lon="1.17592">
        <ele>203</ele>
        <time>2016-05-01T10:33:34.000Z</time>
      </trkpt>
      <trkpt lat="49.40787" lon="1.176">
        <ele>202</ele>
        <time>2016-05-01T10:33:36.000Z</time>
      </trkpt>
      <trkpt lat="49.4078" lon="1.17609">
        <ele>202</ele>
        <time>2016-05-01T10:33:38.000Z</time>
      </trkpt>
      <trkpt lat="49.40774" lon="1.17617">
        <ele>202</ele>
        <time>2016-05-01T10:33:40.000Z</time>
      </trkpt>
      <trkpt lat="49.40767" lon="1.17625">
        <ele>202</ele>
        <time>2016-05-01T10:33:42.000Z</time>
      </trkpt>
      <trkpt lat="49.40761" lon="1.17634">
        <ele>202</ele>
        <time>2016-05-01T10:33:44.000Z</time>
      </trkpt>
      <trkpt lat="49.40755" lon="1.17642">
        <ele>202</ele>
        <time>2016-05-01T10:33:46.000Z</time>
      </trkpt>
      <trkpt lat="49.40747" lon="1.17647">
        <ele>202</ele>
        <time>2016-05-01T10:33:48.000Z</time>
      </trkpt>
      <trkpt lat="49.40738" lon="1.17647">
        <ele>202</ele>
        <time>2016-05-01T10:33:50.000Z</time>
      </trkpt>
      <trkpt lat="49.4073" lon="1.17641">
        <ele>202</ele>
        <time>2016-05-01T10:33:52.000Z</time>
      </trkpt>
      <trkpt lat="49.40722" lon="1.17631">
        <ele>202</ele>
        <time>2016-05-01T10:33:54.000Z</time>
      </trkpt>
      <trkpt lat="49.40714" lon="1.17624">
        <ele>202</ele>
        <time>2016-05-01T10:33:56.000Z</time>
      </trkpt>
      <trkpt lat="49.40706" lon="1.17618">
        <ele>202</ele>
        <time>2016-05-01T10:33:58.000Z</time>
      </trkpt>
      <trkpt lat="49.40699" lon="1.17613">
        <ele>202</ele>
        <time>2016-05-01T10:34:00.000Z</time>
      </trkpt>
      <trkpt lat="49.40692" lon="1.17609">
        <ele>203</ele>
        <time>2016-05-01T10:34:02.000Z</time>
      </trkpt>
      <trkpt lat="49.40686" lon="1.17609">
        <ele>203</ele>
        <time>2016-05-01T10:34:04.000Z</time>
      </trkpt>
      <trkpt lat="49.40686" lon="1.17609">
        <ele>203</ele>
        <time>2016-05-01T10:34:06.000Z</time>
      </trkpt>
      <trkpt lat="49.40678" lon="1.17623">
        <ele>203</ele>
        <time>2016-05-01T10:34:08.000Z</time>
      </trkpt>
      <trkpt lat="49.40675" lon="1.17634">
        <ele>203</ele>
        <time>2016-05-01T10:34:10.000Z</time>
      </trkpt>
      <trkpt lat="49.40672" lon="1.17647">
        <ele>203</ele>
        <time>2016-05-01T10:34:12.000Z</time>
      </trkpt>
      <trkpt lat="49.4067" lon="1.17662">
        <ele>203</ele>
        <time>2016-05-01T10:34:14.000Z</time>
      </trkpt>
      <trkpt lat="49.40667" lon="1.17675">
        <ele>203</ele>
        <time>2016-05-01T10:34:16.000Z</time>
      </trkpt>
      <trkpt lat="49.40664" lon="1.17687">
        <ele>203</ele>
        <time>2016-05-01T10:34:18.000Z</time>
      </trkpt>
      <trkpt lat="49.40661" lon="1.17701">
        <ele>203</ele>
        <time>2016-05-01T10:34:20.000Z</time>
      </trkpt>
      <trkpt lat="49.40658" lon="1.17715">
        <ele>203</ele>
        <time>2016-05-01T10:34:22.000Z</time>
      </trkpt>
      <trkpt lat="49.40655" lon="1.1773">
        <ele>203</ele>
        <time>2016-05-01T10:34:24.000Z</time>
      </trkpt>
      <trkpt lat="49.40651" lon="1.17743">
        <ele>203</ele>
        <time>2016-05-01T10:34:26.000Z</time>
      </trkpt>
      <trkpt lat="49.40648" lon="1.17757">
        <ele>203</ele>
        <time>2016-05-01T10:34:28.000Z</time>
      </trkpt>
      <trkpt lat="49.40646" lon="1.17771">
        <ele>204</ele>
        <time>2016-05-01T10:34:30.000Z</time>
      </trkpt>
      <trkpt lat="49.40643" lon="1.17785">
        <ele>204</ele>
        <time>2016-05-01T10:34:32.000Z</time>
      </trkpt>
      <trkpt lat="49.4064" lon="1.17798">
        <ele>204</ele>
        <time>2016-05-01T10:34:34.000Z</time>
      </trkpt>
      <trkpt lat="49.40637" lon="1.1781">
        <ele>204</ele>
        <time>2016-05-01T10:34:36.000Z</time>
      </trkpt>
      <trkpt lat="49.40634" lon="1.17822">
        <ele>204</ele>
        <time>2016-05-01T10:34:38.000Z</time>
      </trkpt>
      <trkpt lat="49.4063" lon="1.17834">
        <ele>204</ele>
        <time>2016-05-01T10:34:40.000Z</time>
      </trkpt>
      <trkpt lat="49.40626" lon="1.17848">
        <ele>204</ele>
        <time>2016-05-01T10:34:42.000Z</time>
      </trkpt>
      <trkpt lat="49.40622" lon="1.17861">
        <ele>204</ele>
        <time>2016-05-01T10:34:44.000Z</time>
      </trkpt>
      <trkpt lat="49.40617" lon="1.17875">
        <ele>204</ele>
        <time>2016-05-01T10:34:46.000Z</time>
      </trkpt>
      <trkpt lat="49.40612" lon="1.1789">
        <ele>204</ele>
        <time>2016-05-01T10:34:48.000Z</time>
      </trkpt>
      <trkpt lat="49.40608" lon="1.17903">
        <ele>204</ele>
        <time>2016-05-01T10:34:50.000Z</time>
      </trkpt>
      <trkpt lat="49.40604" lon="1.17918">
        <ele>205</ele>
        <time>2016-05-01T10:34:52.000Z</time>
      </trkpt>
      <trkpt lat="49.40599" lon="1.17933">
        <ele>205</ele>
        <time>2016-05-01T10:34:54.000Z</time>
      </trkpt>
      <trkpt lat="49.40594" lon="1.17947">
        <ele>205</ele>
        <time>2016-05-01T10:34:56.000Z</time>
      </trkpt>
      <trkpt lat="49.4059" lon="1.17961">
        <ele>205</ele>
        <time>2016-05-01T10:34:58.000Z</time>
      </trkpt>
      <trkpt lat="49.40585" lon="1.17976">
        <ele>205</ele>
        <time>2016-05-01T10:35:00.000Z</time>
      </trkpt>
      <trkpt lat="49.40581" lon="1.17991">
        <ele>205</ele>
        <time>2016-05-01T10:35:02.000Z</time>
      </trkpt>
      <trkpt lat="49.40577" lon="1.18006">
        <ele>205</ele>
        <time>2016-05-01T10:35:04.000Z</time>
      </trkpt>
      <trkpt lat="49.40572" lon="1.1802">
        <ele>205</ele>
        <time>2016-05-01T10:35:06.000Z</time>
      </trkpt>
      <trkpt lat="49.40567" lon="1.18035">
        <ele>205</ele>
        <time>2016-05-01T10:35:08.000Z</time>
      </trkpt>
      <trkpt lat="49.40561" lon="1.18049">
        <ele>205</ele>
        <time>2016-05-01T10:35:10.000Z</time>
      </trkpt>
      <trkpt lat="49.40556" lon="1.18063">
        <ele>205</ele>
        <time>2016-05-01T10:35:12.000Z</time>
      </trkpt>
      <trkpt lat="49.40551" lon="1.18078">
        <ele>205</ele>
        <time>2016-05-01T10:35:14.000Z</time>
      </trkpt>
      <trkpt lat="49.40546" lon="1.18092">
        <ele>205</ele>
        <time>2016-05-01T10:35:16.000Z</time>
      </trkpt>
      <trkpt lat="49.40542" lon="1.18107">
        <ele>205</ele>
        <time>2016-05-01T10:35:18.000Z</time>
      </trkpt>
      <trkpt lat="49.40538" lon="1.18121">
        <ele>205</ele>
        <time>2016-05-01T10:35:20.000Z</time>
      </trkpt>
      <trkpt lat="49.40533" lon="1.18137">
        <ele>205</ele>
        <time>2016-05-01T10:35:22.000Z</time>
      </trkpt>
      <trkpt lat="49.40528" lon="1.18153">
        <ele>205</ele>
        <time>2016-05-01T10:35:24.000Z</time>
      </trkpt>
      <trkpt lat="49.40525" lon="1.18169">
        <ele>205</ele>
        <time>2016-05-01T10:35:26.000Z</time>
      </trkpt>
      <trkpt lat="49.40521" lon="1.18185">
        <ele>204</ele>
        <time>2016-05-01T10:35:28.000Z</time>
      </trkpt>
      <trkpt lat="49.40517" lon="1.18202">
        <ele>204</ele>
        <time>2016-05-01T10:35:30.000Z</time>
      </trkpt>
      <trkpt lat="49.40514" lon="1.18219">
        <ele>204</ele>
        <time>2016-05-01T10:35:32.000Z</time>
      </trkpt>
      <trkpt lat="49.40511" lon="1.18236">
        <ele>203</ele>
        <time>2016-05-01T10:35:34.000Z</time>
      </trkpt>
      <trkpt lat="49.40508" lon="1.18252">
        <ele>203</ele>
        <time>2016-05-01T10:35:36.000Z</time>
      </trkpt>
      <trkpt lat="49.40506" lon="1.18267">
        <ele>203</ele>
        <time>2016-05-01T10:35:38.000Z</time>
      </trkpt>
      <trkpt lat="49.40503" lon="1.18282">
        <ele>202</ele>
        <time>2016-05-01T10:35:40.000Z</time>
      </trkpt>
      <trkpt lat="49.40501" lon="1.18299">
        <ele>202</ele>
        <time>2016-05-01T10:35:42.000Z</time>
      </trkpt>
      <trkpt lat="49.40499" lon="1.18313">
        <ele>202</ele>
        <time>2016-05-01T10:35:44.000Z</time>
      </trkpt>
      <trkpt lat="49.40494" lon="1.18326">
        <ele>202</ele>
        <time>2016-05-01T10:35:46.000Z</time>
      </trkpt>
      <trkpt lat="49.40485" lon="1.18328">
        <ele>202</ele>
        <time>2016-05-01T10:35:48.000Z</time>
      </trkpt>
      <trkpt lat="49.40475" lon="1.18323">
        <ele>203</ele>
        <time>2016-05-01T10:35:50.000Z</time>
      </trkpt>
      <trkpt lat="49.40466" lon="1.18318">
        <ele>203</ele>
        <time>2016-05-01T10:35:52.000Z</time>
      </trkpt>
      <trkpt lat="49.40456" lon="1.18312">
        <ele>203</ele>
        <time>2016-05-01T10:35:54.000Z</time>
      </trkpt>
      <trkpt lat="49.40446" lon="1.18307">
        <ele>203</ele>
        <time>2016-05-01T10:35:56.000Z</time>
      </trkpt>
      <trkpt lat="49.40436" lon="1.18301">
        <ele>203</ele>
        <time>2016-05-01T10:35:58.000Z</time>
      </trkpt>
      <trkpt lat="49.40425" lon="1.18296">
        <ele>203</ele>
        <time>2016-05-01T10:36:00.000Z</time>
      </trkpt>
      <trkpt lat="49.40414" lon="1.18289">
        <ele>202</ele>
        <time>2016-05-01T10:36:02.000Z</time>
      </trkpt>
      <trkpt lat="49.40403" lon="1.18283">
        <ele>202</ele>
        <time>2016-05-01T10:36:04.000Z</time>
      </trkpt>
      <trkpt lat="49.40393" lon="1.18277">
        <ele>202</ele>
        <time>2016-05-01T10:36:06.000Z</time>
      </trkpt>
      <trkpt lat="49.40382" lon="1.18271">
        <ele>202</ele>
        <time>2016-05-01T10:36:08.000Z</time>
      </trkpt>
      <trkpt lat="49.40372" lon="1.18265">
        <ele>202</ele>
        <time>2016-05-01T10:36:10.000Z</time>
      </trkpt>
      <trkpt lat="49.40361" lon="1.18258">
        <ele>202</ele>
        <time>2016-05-01T10:36:12.000Z</time>
      </trkpt>
      <trkpt lat="49.4035" lon="1.18252">
        <ele>201</ele>
        <time>2016-05-01T10:36:14.000Z</time>
      </trkpt>
      <trkpt lat="49.4034" lon="1.18245">
        <ele>201</ele>
        <time>2016-05-01T10:36:16.000Z</time>
      </trkpt>
      <trkpt lat="49.40331" lon="1.18239">
        <ele>201</ele>
        <time>2016-05-01T10:36:18.000Z</time>
      </trkpt>
      <trkpt lat="49.40321" lon="1.18233">
        <ele>201</ele>
        <time>2016-05-01T10:36:20.000Z</time>
      </trkpt>
      <trkpt lat="49.40311" lon="1.18227">
        <ele>201</ele>
        <time>2016-05-01T10:36:22.000Z</time>
      </trkpt>
      <trkpt lat="49.40302" lon="1.1822">
        <ele>200</ele>
        <time>2016-05-01T10:36:24.000Z</time>
      </trkpt>
      <trkpt lat="49.40293" lon="1.18222">
        <ele>199</ele>
        <time>2016-05-01T10:36:26.000Z</time>
      </trkpt>
      <trkpt lat="49.40289" lon="1.18237">
        <ele>200</ele>
        <time>2016-05-01T10:36:28.000Z</time>
      </trkpt>
      <trkpt lat="49.40285" lon="1.18251">
        <ele>200</ele>
        <time>2016-05-01T10:36:30.000Z</time>
      </trkpt>
      <trkpt lat="49.40282" lon="1.18266">
        <ele>200</ele>
        <time>2016-05-01T10:36:32.000Z</time>
      </trkpt>
      <trkpt lat="49.40277" lon="1.18276">
        <ele>200</ele>
        <time>2016-05-01T10:36:34.000Z</time>
      </trkpt>
      <trkpt lat="49.40277" lon="1.18276">
        <ele>200</ele>
        <time>2016-05-01T10:36:36.000Z</time>
      </trkpt>
      <trkpt lat="49.40271" lon="1.18279">
        <ele>200</ele>
        <time>2016-05-01T10:36:38.000Z</time>
      </trkpt>
      <trkpt lat="49.40271" lon="1.18279">
        <ele>200</ele>
        <time>2016-05-01T10:36:40.000Z</time>
      </trkpt>
      <trkpt lat="49.40265" lon="1.18275">
        <ele>199</ele>
        <time>2016-05-01T10:36:42.000Z</time>
      </trkpt>
      <trkpt lat="49.40253" lon="1.18269">
        <ele>199</ele>
        <time>2016-05-01T10:36:46.000Z</time>
      </trkpt>
      <trkpt lat="49.40247" lon="1.18263">
        <ele>198</ele>
        <time>2016-05-01T10:36:48.000Z</time>
      </trkpt>
      <trkpt lat="49.40239" lon="1.18257">
        <ele>198</ele>
        <time>2016-05-01T10:36:50.000Z</time>
      </trkpt>
      <trkpt lat="49.40231" lon="1.18251">
        <ele>198</ele>
        <time>2016-05-01T10:36:52.000Z</time>
      </trkpt>
      <trkpt lat="49.40221" lon="1.18245">
        <ele>198</ele>
        <time>2016-05-01T10:36:54.000Z</time>
      </trkpt>
      <trkpt lat="49.40212" lon="1.18237">
        <ele>198</ele>
        <time>2016-05-01T10:36:56.000Z</time>
      </trkpt>
      <trkpt lat="49.40202" lon="1.1823">
        <ele>198</ele>
        <time>2016-05-01T10:36:58.000Z</time>
      </trkpt>
      <trkpt lat="49.40194" lon="1.18224">
        <ele>198</ele>
        <time>2016-05-01T10:37:00.000Z</time>
      </trkpt>
      <trkpt lat="49.40185" lon="1.18217">
        <ele>198</ele>
        <time>2016-05-01T10:37:02.000Z</time>
      </trkpt>
      <trkpt lat="49.40178" lon="1.18213">
        <ele>198</ele>
        <time>2016-05-01T10:37:04.000Z</time>
      </trkpt>
      <trkpt lat="49.40178" lon="1.18213">
        <ele>198</ele>
        <time>2016-05-01T10:37:06.000Z</time>
      </trkpt>
      <trkpt lat="49.40169" lon="1.18215">
        <ele>196</ele>
        <time>2016-05-01T10:37:08.000Z</time>
      </trkpt>
      <trkpt lat="49.40165" lon="1.18221">
        <ele>196</ele>
        <time>2016-05-01T10:37:10.000Z</time>
      </trkpt>
      <trkpt lat="49.40162" lon="1.1823">
        <ele>196</ele>
        <time>2016-05-01T10:37:12.000Z</time>
      </trkpt>
      <trkpt lat="49.40155" lon="1.18234">
        <ele>196</ele>
        <time>2016-05-01T10:37:16.000Z</time>
      </trkpt>
      <trkpt lat="49.40155" lon="1.18234">
        <ele>196</ele>
        <time>2016-05-01T10:37:18.000Z</time>
      </trkpt>
      <trkpt lat="49.40149" lon="1.18228">
        <ele>196</ele>
        <time>2016-05-01T10:37:20.000Z</time>
      </trkpt>
      <trkpt lat="49.40141" lon="1.18226">
        <ele>197</ele>
        <time>2016-05-01T10:37:24.000Z</time>
      </trkpt>
      <trkpt lat="49.40136" lon="1.18224">
        <ele>197</ele>
        <time>2016-05-01T10:37:26.000Z</time>
      </trkpt>
      <trkpt lat="49.40129" lon="1.18223">
        <ele>197</ele>
        <time>2016-05-01T10:37:28.000Z</time>
      </trkpt>
      <trkpt lat="49.40123" lon="1.18222">
        <ele>197</ele>
        <time>2016-05-01T10:37:30.000Z</time>
      </trkpt>
      <trkpt lat="49.40116" lon="1.1822">
        <ele>198</ele>
        <time>2016-05-01T10:37:32.000Z</time>
      </trkpt>
      <trkpt lat="49.40108" lon="1.18218">
        <ele>198</ele>
        <time>2016-05-01T10:37:34.000Z</time>
      </trkpt>
      <trkpt lat="49.401" lon="1.18216">
        <ele>199</ele>
        <time>2016-05-01T10:37:36.000Z</time>
      </trkpt>
      <trkpt lat="49.40091" lon="1.18215">
        <ele>199</ele>
        <time>2016-05-01T10:37:38.000Z</time>
      </trkpt>
      <trkpt lat="49.40083" lon="1.18214">
        <ele>199</ele>
        <time>2016-05-01T10:37:40.000Z</time>
      </trkpt>
      <trkpt lat="49.40075" lon="1.18212">
        <ele>200</ele>
        <time>2016-05-01T10:37:42.000Z</time>
      </trkpt>
      <trkpt lat="49.40067" lon="1.18209">
        <ele>199</ele>
        <time>2016-05-01T10:37:44.000Z</time>
      </trkpt>
      <trkpt lat="49.40067" lon="1.18209">
        <ele>199</ele>
        <time>2016-05-01T10:37:46.000Z</time>
      </trkpt>
      <trkpt lat="49.40061" lon="1.18207">
        <ele>200</ele>
        <time>2016-05-01T10:37:48.000Z</time>
      </trkpt>
      <trkpt lat="49.40061" lon="1.18207">
        <ele>200</ele>
        <time>2016-05-01T10:37:50.000Z</time>
      </trkpt>
      <trkpt lat="49.40061" lon="1.18207">
        <ele>200</ele>
        <time>2016-05-01T10:37:52.000Z</time>
      </trkpt>
      <trkpt lat="49.40051" lon="1.18206">
        <ele>203</ele>
        <time>2016-05-01T10:38:08.000Z</time>
      </trkpt>
      <trkpt lat="49.40041" lon="1.18203">
        <ele>202</ele>
        <time>2016-05-01T10:38:11.000Z</time>
      </trkpt>
      <trkpt lat="49.40032" lon="1.18201">
        <ele>201</ele>
        <time>2016-05-01T10:38:13.000Z</time>
      </trkpt>
      <trkpt lat="49.40024" lon="1.18199">
        <ele>202</ele>
        <time>2016-05-01T10:38:15.000Z</time>
      </trkpt>
      <trkpt lat="49.40016" lon="1.18197">
        <ele>202</ele>
        <time>2016-05-01T10:38:17.000Z</time>
      </trkpt>
      <trkpt lat="49.40014" lon="1.18182">
        <ele>202</ele>
        <time>2016-05-01T10:38:19.000Z</time>
      </trkpt>
      <trkpt lat="49.40014" lon="1.18167">
        <ele>202</ele>
        <time>2016-05-01T10:38:21.000Z</time>
      </trkpt>
      <trkpt lat="49.40013" lon="1.1815">
        <ele>203</ele>
        <time>2016-05-01T10:38:23.000Z</time>
      </trkpt>
      <trkpt lat="49.40012" lon="1.18132">
        <ele>202</ele>
        <time>2016-05-01T10:38:25.000Z</time>
      </trkpt>
      <trkpt lat="49.40011" lon="1.18113">
        <ele>202</ele>
        <time>2016-05-01T10:38:27.000Z</time>
      </trkpt>
      <trkpt lat="49.40011" lon="1.18093">
        <ele>202</ele>
        <time>2016-05-01T10:38:29.000Z</time>
      </trkpt>
      <trkpt lat="49.40011" lon="1.18064">
        <ele>200</ele>
        <time>2016-05-01T10:38:32.000Z</time>
      </trkpt>
      <trkpt lat="49.40012" lon="1.18045">
        <ele>200</ele>
        <time>2016-05-01T10:38:34.000Z</time>
      </trkpt>
      <trkpt lat="49.40012" lon="1.18026">
        <ele>200</ele>
        <time>2016-05-01T10:38:36.000Z</time>
      </trkpt>
      <trkpt lat="49.4001" lon="1.18012">
        <ele>199</ele>
        <time>2016-05-01T10:38:39.000Z</time>
      </trkpt>
      <trkpt lat="49.4001" lon="1.18012">
        <ele>199</ele>
        <time>2016-05-01T10:38:41.000Z</time>
      </trkpt>
      <trkpt lat="49.40003" lon="1.18009">
        <ele>198</ele>
        <time>2016-05-01T10:38:43.000Z</time>
      </trkpt>
      <trkpt lat="49.39997" lon="1.18005">
        <ele>198</ele>
        <time>2016-05-01T10:38:45.000Z</time>
      </trkpt>
      <trkpt lat="49.39989" lon="1.18">
        <ele>198</ele>
        <time>2016-05-01T10:38:47.000Z</time>
      </trkpt>
      <trkpt lat="49.39982" lon="1.17996">
        <ele>196</ele>
        <time>2016-05-01T10:38:49.000Z</time>
      </trkpt>
      <trkpt lat="49.39975" lon="1.17992">
        <ele>196</ele>
        <time>2016-05-01T10:38:51.000Z</time>
      </trkpt>
      <trkpt lat="49.39975" lon="1.17992">
        <ele>196</ele>
        <time>2016-05-01T10:38:53.000Z</time>
      </trkpt>
      <trkpt lat="49.39973" lon="1.17977">
        <ele>195</ele>
        <time>2016-05-01T10:38:55.000Z</time>
      </trkpt>
      <trkpt lat="49.39978" lon="1.17967">
        <ele>195</ele>
        <time>2016-05-01T10:38:57.000Z</time>
      </trkpt>
      <trkpt lat="49.39982" lon="1.17957">
        <ele>195</ele>
        <time>2016-05-01T10:38:59.000Z</time>
      </trkpt>
      <trkpt lat="49.39982" lon="1.17957">
        <ele>195</ele>
        <time>2016-05-01T10:39:01.000Z</time>
      </trkpt>
      <trkpt lat="49.39978" lon="1.17944">
        <ele>196</ele>
        <time>2016-05-01T10:39:03.000Z</time>
      </trkpt>
      <trkpt lat="49.39972" lon="1.17941">
        <ele>196</ele>
        <time>2016-05-01T10:39:05.000Z</time>
      </trkpt>
      <trkpt lat="49.39964" lon="1.17935">
        <ele>196</ele>
        <time>2016-05-01T10:39:07.000Z</time>
      </trkpt>
      <trkpt lat="49.39955" lon="1.17927">
        <ele>195</ele>
        <time>2016-05-01T10:39:09.000Z</time>
      </trkpt>
      <trkpt lat="49.39946" lon="1.17917">
        <ele>195</ele>
        <time>2016-05-01T10:39:11.000Z</time>
      </trkpt>
      <trkpt lat="49.39936" lon="1.17908">
        <ele>196</ele>
        <time>2016-05-01T10:39:13.000Z</time>
      </trkpt>
      <trkpt lat="49.39927" lon="1.17897">
        <ele>197</ele>
        <time>2016-05-01T10:39:15.000Z</time>
      </trkpt>
      <trkpt lat="49.39917" lon="1.17887">
        <ele>196</ele>
        <time>2016-05-01T10:39:17.000Z</time>
      </trkpt>
      <trkpt lat="49.39907" lon="1.17876">
        <ele>195</ele>
        <time>2016-05-01T10:39:19.000Z</time>
      </trkpt>
      <trkpt lat="49.39896" lon="1.17866">
        <ele>195</ele>
        <time>2016-05-01T10:39:21.000Z</time>
      </trkpt>
      <trkpt lat="49.39885" lon="1.17854">
        <ele>195</ele>
        <time>2016-05-01T10:39:23.000Z</time>
      </trkpt>
      <trkpt lat="49.39875" lon="1.17842">
        <ele>194</ele>
        <time>2016-05-01T10:39:25.000Z</time>
      </trkpt>
      <trkpt lat="49.39865" lon="1.17831">
        <ele>195</ele>
        <time>2016-05-01T10:39:27.000Z</time>
      </trkpt>
      <trkpt lat="49.39854" lon="1.1782">
        <ele>195</ele>
        <time>2016-05-01T10:39:29.000Z</time>
      </trkpt>
      <trkpt lat="49.39844" lon="1.17809">
        <ele>194</ele>
        <time>2016-05-01T10:39:31.000Z</time>
      </trkpt>
      <trkpt lat="49.39834" lon="1.17797">
        <ele>194</ele>
        <time>2016-05-01T10:39:33.000Z</time>
      </trkpt>
      <trkpt lat="49.39824" lon="1.17787">
        <ele>193</ele>
        <time>2016-05-01T10:39:35.000Z</time>
      </trkpt>
      <trkpt lat="49.39814" lon="1.17777">
        <ele>193</ele>
        <time>2016-05-01T10:39:37.000Z</time>
      </trkpt>
      <trkpt lat="49.39805" lon="1.17769">
        <ele>193</ele>
        <time>2016-05-01T10:39:39.000Z</time>
      </trkpt>
      <trkpt lat="49.39799" lon="1.17763">
        <ele>194</ele>
        <time>2016-05-01T10:39:41.000Z</time>
      </trkpt>
      <trkpt lat="49.39799" lon="1.17763">
        <ele>194</ele>
        <time>2016-05-01T10:39:43.000Z</time>
      </trkpt>
      <trkpt lat="49.39799" lon="1.17763">
        <ele>194</ele>
        <time>2016-05-01T10:39:45.000Z</time>
      </trkpt>
      <trkpt lat="49.39799" lon="1.17763">
        <ele>194</ele>
        <time>2016-05-01T10:39:47.000Z</time>
      </trkpt>
      <trkpt lat="49.39795" lon="1.17758">
        <ele>195</ele>
        <time>2016-05-01T10:39:49.000Z</time>
      </trkpt>
      <trkpt lat="49.39787" lon="1.17749">
        <ele>195</ele>
        <time>2016-05-01T10:39:53.000Z</time>
      </trkpt>
      <trkpt lat="49.3978" lon="1.17742">
        <ele>194</ele>
        <time>2016-05-01T10:39:55.000Z</time>
      </trkpt>
      <trkpt lat="49.39772" lon="1.17735">
        <ele>195</ele>
        <time>2016-05-01T10:39:57.000Z</time>
      </trkpt>
      <trkpt lat="49.39762" lon="1.17728">
        <ele>195</ele>
        <time>2016-05-01T10:39:59.000Z</time>
      </trkpt>
      <trkpt lat="49.39752" lon="1.17719">
        <ele>195</ele>
        <time>2016-05-01T10:40:01.000Z</time>
      </trkpt>
      <trkpt lat="49.39742" lon="1.17712">
        <ele>195</ele>
        <time>2016-05-01T10:40:03.000Z</time>
      </trkpt>
      <trkpt lat="49.39731" lon="1.17703">
        <ele>196</ele>
        <time>2016-05-01T10:40:05.000Z</time>
      </trkpt>
      <trkpt lat="49.3972" lon="1.17693">
        <ele>196</ele>
        <time>2016-05-01T10:40:07.000Z</time>
      </trkpt>
      <trkpt lat="49.39708" lon="1.17684">
        <ele>196</ele>
        <time>2016-05-01T10:40:09.000Z</time>
      </trkpt>
      <trkpt lat="49.39696" lon="1.17674">
        <ele>195</ele>
        <time>2016-05-01T10:40:11.000Z</time>
      </trkpt>
      <trkpt lat="49.39683" lon="1.17665">
        <ele>195</ele>
        <time>2016-05-01T10:40:13.000Z</time>
      </trkpt>
      <trkpt lat="49.39671" lon="1.17655">
        <ele>195</ele>
        <time>2016-05-01T10:40:15.000Z</time>
      </trkpt>
      <trkpt lat="49.39658" lon="1.17645">
        <ele>195</ele>
        <time>2016-05-01T10:40:17.000Z</time>
      </trkpt>
      <trkpt lat="49.39647" lon="1.17635">
        <ele>194</ele>
        <time>2016-05-01T10:40:19.000Z</time>
      </trkpt>
      <trkpt lat="49.39635" lon="1.17626">
        <ele>194</ele>
        <time>2016-05-01T10:40:21.000Z</time>
      </trkpt>
      <trkpt lat="49.39622" lon="1.17617">
        <ele>194</ele>
        <time>2016-05-01T10:40:23.000Z</time>
      </trkpt>
      <trkpt lat="49.39608" lon="1.17613">
        <ele>194</ele>
        <time>2016-05-01T10:40:25.000Z</time>
      </trkpt>
      <trkpt lat="49.39593" lon="1.17618">
        <ele>194</ele>
        <time>2016-05-01T10:40:27.000Z</time>
      </trkpt>
      <trkpt lat="49.39579" lon="1.17628">
        <ele>193</ele>
        <time>2016-05-01T10:40:29.000Z</time>
      </trkpt>
      <trkpt lat="49.39564" lon="1.17638">
        <ele>192</ele>
        <time>2016-05-01T10:40:31.000Z</time>
      </trkpt>
      <trkpt lat="49.3955" lon="1.1765">
        <ele>191</ele>
        <time>2016-05-01T10:40:33.000Z</time>
      </trkpt>
      <trkpt lat="49.39536" lon="1.17665">
        <ele>190</ele>
        <time>2016-05-01T10:40:35.000Z</time>
      </trkpt>
      <trkpt lat="49.39523" lon="1.17682">
        <ele>189</ele>
        <time>2016-05-01T10:40:37.000Z</time>
      </trkpt>
      <trkpt lat="49.3951" lon="1.17697">
        <ele>188</ele>
        <time>2016-05-01T10:40:39.000Z</time>
      </trkpt>
      <trkpt lat="49.39497" lon="1.17702">
        <ele>188</ele>
        <time>2016-05-01T10:40:41.000Z</time>
      </trkpt>
      <trkpt lat="49.39487" lon="1.17689">
        <ele>188</ele>
        <time>2016-05-01T10:40:43.000Z</time>
      </trkpt>
      <trkpt lat="49.3948" lon="1.17669">
        <ele>188</ele>
        <time>2016-05-01T10:40:45.000Z</time>
      </trkpt>
      <trkpt lat="49.39473" lon="1.17648">
        <ele>187</ele>
        <time>2016-05-01T10:40:47.000Z</time>
      </trkpt>
      <trkpt lat="49.39466" lon="1.17627">
        <ele>187</ele>
        <time>2016-05-01T10:40:49.000Z</time>
      </trkpt>
      <trkpt lat="49.39459" lon="1.17608">
        <ele>187</ele>
        <time>2016-05-01T10:40:51.000Z</time>
      </trkpt>
      <trkpt lat="49.39453" lon="1.17586">
        <ele>186</ele>
        <time>2016-05-01T10:40:53.000Z</time>
      </trkpt>
      <trkpt lat="49.39445" lon="1.17566">
        <ele>185</ele>
        <time>2016-05-01T10:40:55.000Z</time>
      </trkpt>
      <trkpt lat="49.39437" lon="1.17545">
        <ele>184</ele>
        <time>2016-05-01T10:40:57.000Z</time>
      </trkpt>
      <trkpt lat="49.39433" lon="1.17524">
        <ele>183</ele>
        <time>2016-05-01T10:40:59.000Z</time>
      </trkpt>
      <trkpt lat="49.39425" lon="1.17504">
        <ele>184</ele>
        <time>2016-05-01T10:41:01.000Z</time>
      </trkpt>
      <trkpt lat="49.39417" lon="1.17482">
        <ele>183</ele>
        <time>2016-05-01T10:41:03.000Z</time>
      </trkpt>
      <trkpt lat="49.39412" lon="1.17459">
        <ele>183</ele>
        <time>2016-05-01T10:41:05.000Z</time>
      </trkpt>
      <trkpt lat="49.3941" lon="1.17436">
        <ele>182</ele>
        <time>2016-05-01T10:41:07.000Z</time>
      </trkpt>
      <trkpt lat="49.39412" lon="1.17412">
        <ele>181</ele>
        <time>2016-05-01T10:41:09.000Z</time>
      </trkpt>
      <trkpt lat="49.39414" lon="1.17387">
        <ele>181</ele>
        <time>2016-05-01T10:41:11.000Z</time>
      </trkpt>
      <trkpt lat="49.39415" lon="1.17358">
        <ele>179</ele>
        <time>2016-05-01T10:41:13.000Z</time>
      </trkpt>
      <trkpt lat="49.39415" lon="1.17327">
        <ele>176</ele>
        <time>2016-05-01T10:41:15.000Z</time>
      </trkpt>
      <trkpt lat="49.39425" lon="1.17305">
        <ele>177</ele>
        <time>2016-05-01T10:41:17.000Z</time>
      </trkpt>
      <trkpt lat="49.39437" lon="1.17289">
        <ele>176</ele>
        <time>2016-05-01T10:41:19.000Z</time>
      </trkpt>
      <trkpt lat="49.39455" lon="1.17284">
        <ele>174</ele>
        <time>2016-05-01T10:41:21.000Z</time>
      </trkpt>
      <trkpt lat="49.39468" lon="1.17278">
        <ele>174</ele>
        <time>2016-05-01T10:41:23.000Z</time>
      </trkpt>
      <trkpt lat="49.39481" lon="1.1728">
        <ele>174</ele>
        <time>2016-05-01T10:41:25.000Z</time>
      </trkpt>
      <trkpt lat="49.39492" lon="1.17287">
        <ele>175</ele>
        <time>2016-05-01T10:41:27.000Z</time>
      </trkpt>
      <trkpt lat="49.39505" lon="1.17294">
        <ele>176</ele>
        <time>2016-05-01T10:41:29.000Z</time>
      </trkpt>
      <trkpt lat="49.39516" lon="1.17298">
        <ele>176</ele>
        <time>2016-05-01T10:41:31.000Z</time>
      </trkpt>
      <trkpt lat="49.39528" lon="1.17298">
        <ele>177</ele>
        <time>2016-05-01T10:41:33.000Z</time>
      </trkpt>
      <trkpt lat="49.39538" lon="1.17297">
        <ele>177</ele>
        <time>2016-05-01T10:41:35.000Z</time>
      </trkpt>
      <trkpt lat="49.39548" lon="1.17294">
        <ele>178</ele>
        <time>2016-05-01T10:41:37.000Z</time>
      </trkpt>
      <trkpt lat="49.39558" lon="1.1729">
        <ele>178</ele>
        <time>2016-05-01T10:41:39.000Z</time>
      </trkpt>
      <trkpt lat="49.39568" lon="1.17286">
        <ele>179</ele>
        <time>2016-05-01T10:41:41.000Z</time>
      </trkpt>
      <trkpt lat="49.39576" lon="1.17282">
        <ele>179</ele>
        <time>2016-05-01T10:41:43.000Z</time>
      </trkpt>
      <trkpt lat="49.39586" lon="1.17278">
        <ele>180</ele>
        <time>2016-05-01T10:41:45.000Z</time>
      </trkpt>
      <trkpt lat="49.39595" lon="1.17273">
        <ele>180</ele>
        <time>2016-05-01T10:41:47.000Z</time>
      </trkpt>
      <trkpt lat="49.39603" lon="1.1727">
        <ele>181</ele>
        <time>2016-05-01T10:41:49.000Z</time>
      </trkpt>
      <trkpt lat="49.39611" lon="1.17265">
        <ele>181</ele>
        <time>2016-05-01T10:41:51.000Z</time>
      </trkpt>
      <trkpt lat="49.39619" lon="1.17262">
        <ele>181</ele>
        <time>2016-05-01T10:41:53.000Z</time>
      </trkpt>
      <trkpt lat="49.39627" lon="1.17258">
        <ele>181</ele>
        <time>2016-05-01T10:41:55.000Z</time>
      </trkpt>
      <trkpt lat="49.39634" lon="1.17254">
        <ele>182</ele>
        <time>2016-05-01T10:41:57.000Z</time>
      </trkpt>
      <trkpt lat="49.39642" lon="1.17251">
        <ele>183</ele>
        <time>2016-05-01T10:41:59.000Z</time>
      </trkpt>
      <trkpt lat="49.3965" lon="1.17247">
        <ele>183</ele>
        <time>2016-05-01T10:42:01.000Z</time>
      </trkpt>
      <trkpt lat="49.39658" lon="1.17244">
        <ele>183</ele>
        <time>2016-05-01T10:42:03.000Z</time>
      </trkpt>
      <trkpt lat="49.39666" lon="1.17241">
        <ele>183</ele>
        <time>2016-05-01T10:42:05.000Z</time>
      </trkpt>
      <trkpt lat="49.39673" lon="1.17237">
        <ele>183</ele>
        <time>2016-05-01T10:42:07.000Z</time>
      </trkpt>
      <trkpt lat="49.3968" lon="1.17234">
        <ele>183</ele>
        <time>2016-05-01T10:42:09.000Z</time>
      </trkpt>
      <trkpt lat="49.39688" lon="1.17231">
        <ele>184</ele>
        <time>2016-05-01T10:42:11.000Z</time>
      </trkpt>
      <trkpt lat="49.39697" lon="1.17229">
        <ele>184</ele>
        <time>2016-05-01T10:42:13.000Z</time>
      </trkpt>
      <trkpt lat="49.39705" lon="1.17227">
        <ele>184</ele>
        <time>2016-05-01T10:42:15.000Z</time>
      </trkpt>
      <trkpt lat="49.39715" lon="1.17226">
        <ele>184</ele>
        <time>2016-05-01T10:42:18.000Z</time>
      </trkpt>
      <trkpt lat="49.39722" lon="1.17229">
        <ele>184</ele>
        <time>2016-05-01T10:42:20.000Z</time>
      </trkpt>
      <trkpt lat="49.3973" lon="1.17238">
        <ele>184</ele>
        <time>2016-05-01T10:42:22.000Z</time>
      </trkpt>
      <trkpt lat="49.3974" lon="1.17238">
        <ele>185</ele>
        <time>2016-05-01T10:42:24.000Z</time>
      </trkpt>
      <trkpt lat="49.39748" lon="1.17231">
        <ele>185</ele>
        <time>2016-05-01T10:42:26.000Z</time>
      </trkpt>
      <trkpt lat="49.39751" lon="1.17218">
        <ele>187</ele>
        <time>2016-05-01T10:42:28.000Z</time>
      </trkpt>
      <trkpt lat="49.39751" lon="1.17203">
        <ele>187</ele>
        <time>2016-05-01T10:42:30.000Z</time>
      </trkpt>
      <trkpt lat="49.39749" lon="1.17188">
        <ele>186</ele>
        <time>2016-05-01T10:42:32.000Z</time>
      </trkpt>
      <trkpt lat="49.3975" lon="1.17173">
        <ele>186</ele>
        <time>2016-05-01T10:42:34.000Z</time>
      </trkpt>
      <trkpt lat="49.39754" lon="1.17159">
        <ele>186</ele>
        <time>2016-05-01T10:42:36.000Z</time>
      </trkpt>
      <trkpt lat="49.39759" lon="1.17148">
        <ele>187</ele>
        <time>2016-05-01T10:42:38.000Z</time>
      </trkpt>
      <trkpt lat="49.39763" lon="1.17136">
        <ele>187</ele>
        <time>2016-05-01T10:42:40.000Z</time>
      </trkpt>
      <trkpt lat="49.39767" lon="1.17123">
        <ele>187</ele>
        <time>2016-05-01T10:42:42.000Z</time>
      </trkpt>
      <trkpt lat="49.39771" lon="1.17111">
        <ele>187</ele>
        <time>2016-05-01T10:42:44.000Z</time>
      </trkpt>
      <trkpt lat="49.39774" lon="1.17099">
        <ele>187</ele>
        <time>2016-05-01T10:42:46.000Z</time>
      </trkpt>
      <trkpt lat="49.39778" lon="1.17086">
        <ele>188</ele>
        <time>2016-05-01T10:42:48.000Z</time>
      </trkpt>
      <trkpt lat="49.39782" lon="1.17075">
        <ele>188</ele>
        <time>2016-05-01T10:42:50.000Z</time>
      </trkpt>
      <trkpt lat="49.39786" lon="1.17062">
        <ele>188</ele>
        <time>2016-05-01T10:42:52.000Z</time>
      </trkpt>
      <trkpt lat="49.39789" lon="1.17049">
        <ele>189</ele>
        <time>2016-05-01T10:42:54.000Z</time>
      </trkpt>
      <trkpt lat="49.39792" lon="1.17036">
        <ele>189</ele>
        <time>2016-05-01T10:42:56.000Z</time>
      </trkpt>
      <trkpt lat="49.39795" lon="1.17023">
        <ele>190</ele>
        <time>2016-05-01T10:42:58.000Z</time>
      </trkpt>
      <trkpt lat="49.39797" lon="1.17009">
        <ele>190</ele>
        <time>2016-05-01T10:43:00.000Z</time>
      </trkpt>
      <trkpt lat="49.39799" lon="1.16994">
        <ele>190</ele>
        <time>2016-05-01T10:43:02.000Z</time>
      </trkpt>
      <trkpt lat="49.39802" lon="1.1698">
        <ele>190</ele>
        <time>2016-05-01T10:43:04.000Z</time>
      </trkpt>
      <trkpt lat="49.39804" lon="1.16966">
        <ele>190</ele>
        <time>2016-05-01T10:43:06.000Z</time>
      </trkpt>
      <trkpt lat="49.39805" lon="1.16952">
        <ele>190</ele>
        <time>2016-05-01T10:43:08.000Z</time>
      </trkpt>
      <trkpt lat="49.39806" lon="1.16938">
        <ele>190</ele>
        <time>2016-05-01T10:43:10.000Z</time>
      </trkpt>
      <trkpt lat="49.39808" lon="1.16924">
        <ele>190</ele>
        <time>2016-05-01T10:43:12.000Z</time>
      </trkpt>
      <trkpt lat="49.39809" lon="1.1691">
        <ele>191</ele>
        <time>2016-05-01T10:43:14.000Z</time>
      </trkpt>
      <trkpt lat="49.39809" lon="1.16896">
        <ele>191</ele>
        <time>2016-05-01T10:43:16.000Z</time>
      </trkpt>
      <trkpt lat="49.39809" lon="1.16882">
        <ele>191</ele>
        <time>2016-05-01T10:43:18.000Z</time>
      </trkpt>
      <trkpt lat="49.3981" lon="1.16867">
        <ele>192</ele>
        <time>2016-05-01T10:43:20.000Z</time>
      </trkpt>
      <trkpt lat="49.3981" lon="1.16852">
        <ele>192</ele>
        <time>2016-05-01T10:43:22.000Z</time>
      </trkpt>
      <trkpt lat="49.39809" lon="1.16838">
        <ele>192</ele>
        <time>2016-05-01T10:43:24.000Z</time>
      </trkpt>
      <trkpt lat="49.39809" lon="1.16824">
        <ele>192</ele>
        <time>2016-05-01T10:43:26.000Z</time>
      </trkpt>
      <trkpt lat="49.39809" lon="1.1681">
        <ele>192</ele>
        <time>2016-05-01T10:43:28.000Z</time>
      </trkpt>
      <trkpt lat="49.39808" lon="1.16797">
        <ele>192</ele>
        <time>2016-05-01T10:43:30.000Z</time>
      </trkpt>
      <trkpt lat="49.39807" lon="1.16782">
        <ele>192</ele>
        <time>2016-05-01T10:43:32.000Z</time>
      </trkpt>
      <trkpt lat="49.39807" lon="1.16768">
        <ele>192</ele>
        <time>2016-05-01T10:43:34.000Z</time>
      </trkpt>
      <trkpt lat="49.39809" lon="1.16754">
        <ele>192</ele>
        <time>2016-05-01T10:43:36.000Z</time>
      </trkpt>
      <trkpt lat="49.39809" lon="1.16737">
        <ele>192</ele>
        <time>2016-05-01T10:43:38.000Z</time>
      </trkpt>
      <trkpt lat="49.39806" lon="1.16722">
        <ele>192</ele>
        <time>2016-05-01T10:43:40.000Z</time>
      </trkpt>
      <trkpt lat="49.39801" lon="1.16709">
        <ele>191</ele>
        <time>2016-05-01T10:43:42.000Z</time>
      </trkpt>
      <trkpt lat="49.398" lon="1.16693">
        <ele>192</ele>
        <time>2016-05-01T10:43:44.000Z</time>
      </trkpt>
      <trkpt lat="49.39798" lon="1.16678">
        <ele>191</ele>
        <time>2016-05-01T10:43:46.000Z</time>
      </trkpt>
      <trkpt lat="49.39797" lon="1.16661">
        <ele>191</ele>
        <time>2016-05-01T10:43:48.000Z</time>
      </trkpt>
      <trkpt lat="49.39796" lon="1.16646">
        <ele>192</ele>
        <time>2016-05-01T10:43:50.000Z</time>
      </trkpt>
      <trkpt lat="49.39795" lon="1.1663">
        <ele>191</ele>
        <time>2016-05-01T10:43:52.000Z</time>
      </trkpt>
      <trkpt lat="49.39793" lon="1.16616">
        <ele>191</ele>
        <time>2016-05-01T10:43:54.000Z</time>
      </trkpt>
      <trkpt lat="49.39792" lon="1.166">
        <ele>192</ele>
        <time>2016-05-01T10:43:56.000Z</time>
      </trkpt>
      <trkpt lat="49.3979" lon="1.16585">
        <ele>192</ele>
        <time>2016-05-01T10:43:58.000Z</time>
      </trkpt>
      <trkpt lat="49.39789" lon="1.16571">
        <ele>192</ele>
        <time>2016-05-01T10:44:00.000Z</time>
      </trkpt>
      <trkpt lat="49.39786" lon="1.16558">
        <ele>191</ele>
        <time>2016-05-01T10:44:02.000Z</time>
      </trkpt>
      <trkpt lat="49.39783" lon="1.16544">
        <ele>191</ele>
        <time>2016-05-01T10:44:04.000Z</time>
      </trkpt>
      <trkpt lat="49.3978" lon="1.16531">
        <ele>192</ele>
        <time>2016-05-01T10:44:06.000Z</time>
      </trkpt>
      <trkpt lat="49.39777" lon="1.16518">
        <ele>192</ele>
        <time>2016-05-01T10:44:08.000Z</time>
      </trkpt>
      <trkpt lat="49.39773" lon="1.16505">
        <ele>191</ele>
        <time>2016-05-01T10:44:10.000Z</time>
      </trkpt>
      <trkpt lat="49.39769" lon="1.16491">
        <ele>192</ele>
        <time>2016-05-01T10:44:12.000Z</time>
      </trkpt>
      <trkpt lat="49.39764" lon="1.16478">
        <ele>192</ele>
        <time>2016-05-01T10:44:14.000Z</time>
      </trkpt>
      <trkpt lat="49.3976" lon="1.16465">
        <ele>192</ele>
        <time>2016-05-01T10:44:16.000Z</time>
      </trkpt>
      <trkpt lat="49.39757" lon="1.16454">
        <ele>192</ele>
        <time>2016-05-01T10:44:18.000Z</time>
      </trkpt>
      <trkpt lat="49.39753" lon="1.16444">
        <ele>192</ele>
        <time>2016-05-01T10:44:20.000Z</time>
      </trkpt>
      <trkpt lat="49.3975" lon="1.16434">
        <ele>192</ele>
        <time>2016-05-01T10:44:22.000Z</time>
      </trkpt>
      <trkpt lat="49.39746" lon="1.16425">
        <ele>193</ele>
        <time>2016-05-01T10:44:24.000Z</time>
      </trkpt>
      <trkpt lat="49.39742" lon="1.16417">
        <ele>193</ele>
        <time>2016-05-01T10:44:26.000Z</time>
      </trkpt>
      <trkpt lat="49.39738" lon="1.16408">
        <ele>194</ele>
        <time>2016-05-01T10:44:28.000Z</time>
      </trkpt>
      <trkpt lat="49.39735" lon="1.164">
        <ele>195</ele>
        <time>2016-05-01T10:44:30.000Z</time>
      </trkpt>
      <trkpt lat="49.39731" lon="1.16392">
        <ele>195</ele>
        <time>2016-05-01T10:44:32.000Z</time>
      </trkpt>
      <trkpt lat="49.39727" lon="1.16384">
        <ele>195</ele>
        <time>2016-05-01T10:44:34.000Z</time>
      </trkpt>
      <trkpt lat="49.39724" lon="1.16377">
        <ele>196</ele>
        <time>2016-05-01T10:44:36.000Z</time>
      </trkpt>
      <trkpt lat="49.3972" lon="1.16369">
        <ele>196</ele>
        <time>2016-05-01T10:44:38.000Z</time>
      </trkpt>
      <trkpt lat="49.39716" lon="1.16362">
        <ele>196</ele>
        <time>2016-05-01T10:44:40.000Z</time>
      </trkpt>
      <trkpt lat="49.39712" lon="1.16354">
        <ele>197</ele>
        <time>2016-05-01T10:44:42.000Z</time>
      </trkpt>
      <trkpt lat="49.39708" lon="1.16346">
        <ele>197</ele>
        <time>2016-05-01T10:44:44.000Z</time>
      </trkpt>
      <trkpt lat="49.39704" lon="1.16339">
        <ele>198</ele>
        <time>2016-05-01T10:44:46.000Z</time>
      </trkpt>
      <trkpt lat="49.397" lon="1.16331">
        <ele>198</ele>
        <time>2016-05-01T10:44:48.000Z</time>
      </trkpt>
      <trkpt lat="49.39696" lon="1.16323">
        <ele>198</ele>
        <time>2016-05-01T10:44:50.000Z</time>
      </trkpt>
      <trkpt lat="49.39692" lon="1.16315">
        <ele>198</ele>
        <time>2016-05-01T10:44:52.000Z</time>
      </trkpt>
      <trkpt lat="49.39688" lon="1.16307">
        <ele>198</ele>
        <time>2016-05-01T10:44:54.000Z</time>
      </trkpt>
      <trkpt lat="49.39684" lon="1.16299">
        <ele>199</ele>
        <time>2016-05-01T10:44:56.000Z</time>
      </trkpt>
      <trkpt lat="49.3968" lon="1.1629">
        <ele>199</ele>
        <time>2016-05-01T10:44:58.000Z</time>
      </trkpt>
      <trkpt lat="49.39676" lon="1.16282">
        <ele>199</ele>
        <time>2016-05-01T10:45:00.000Z</time>
      </trkpt>
      <trkpt lat="49.39671" lon="1.16273">
        <ele>199</ele>
        <time>2016-05-01T10:45:02.000Z</time>
      </trkpt>
      <trkpt lat="49.39667" lon="1.16263">
        <ele>199</ele>
        <time>2016-05-01T10:45:04.000Z</time>
      </trkpt>
      <trkpt lat="49.39662" lon="1.16253">
        <ele>200</ele>
        <time>2016-05-01T10:45:06.000Z</time>
      </trkpt>
      <trkpt lat="49.39658" lon="1.16242">
        <ele>199</ele>
        <time>2016-05-01T10:45:08.000Z</time>
      </trkpt>
      <trkpt lat="49.39656" lon="1.1623">
        <ele>199</ele>
        <time>2016-05-01T10:45:10.000Z</time>
      </trkpt>
      <trkpt lat="49.39662" lon="1.16219">
        <ele>198</ele>
        <time>2016-05-01T10:45:12.000Z</time>
      </trkpt>
      <trkpt lat="49.39663" lon="1.16207">
        <ele>199</ele>
        <time>2016-05-01T10:45:14.000Z</time>
      </trkpt>
      <trkpt lat="49.39653" lon="1.16202">
        <ele>199</ele>
        <time>2016-05-01T10:45:16.000Z</time>
      </trkpt>
      <trkpt lat="49.39643" lon="1.16202">
        <ele>200</ele>
        <time>2016-05-01T10:45:18.000Z</time>
      </trkpt>
      <trkpt lat="49.39636" lon="1.16196">
        <ele>200</ele>
        <time>2016-05-01T10:45:20.000Z</time>
      </trkpt>
      <trkpt lat="49.39631" lon="1.16185">
        <ele>200</ele>
        <time>2016-05-01T10:45:22.000Z</time>
      </trkpt>
      <trkpt lat="49.39625" lon="1.16172">
        <ele>200</ele>
        <time>2016-05-01T10:45:24.000Z</time>
      </trkpt>
      <trkpt lat="49.39619" lon="1.16157">
        <ele>200</ele>
        <time>2016-05-01T10:45:26.000Z</time>
      </trkpt>
      <trkpt lat="49.39614" lon="1.16141">
        <ele>200</ele>
        <time>2016-05-01T10:45:28.000Z</time>
      </trkpt>
      <trkpt lat="49.39609" lon="1.16126">
        <ele>200</ele>
        <time>2016-05-01T10:45:30.000Z</time>
      </trkpt>
      <trkpt lat="49.39603" lon="1.16109">
        <ele>200</ele>
        <time>2016-05-01T10:45:32.000Z</time>
      </trkpt>
      <trkpt lat="49.39597" lon="1.16092">
        <ele>200</ele>
        <time>2016-05-01T10:45:34.000Z</time>
      </trkpt>
      <trkpt lat="49.39594" lon="1.16075">
        <ele>201</ele>
        <time>2016-05-01T10:45:36.000Z</time>
      </trkpt>
      <trkpt lat="49.39587" lon="1.16062">
        <ele>200</ele>
        <time>2016-05-01T10:45:38.000Z</time>
      </trkpt>
      <trkpt lat="49.39581" lon="1.16052">
        <ele>200</ele>
        <time>2016-05-01T10:45:40.000Z</time>
      </trkpt>
      <trkpt lat="49.39575" lon="1.16038">
        <ele>200</ele>
        <time>2016-05-01T10:45:42.000Z</time>
      </trkpt>
      <trkpt lat="49.39569" lon="1.16023">
        <ele>199</ele>
        <time>2016-05-01T10:45:44.000Z</time>
      </trkpt>
      <trkpt lat="49.39564" lon="1.16007">
        <ele>199</ele>
        <time>2016-05-01T10:45:46.000Z</time>
      </trkpt>
      <trkpt lat="49.39558" lon="1.15992">
        <ele>199</ele>
        <time>2016-05-01T10:45:48.000Z</time>
      </trkpt>
      <trkpt lat="49.39552" lon="1.15978">
        <ele>199</ele>
        <time>2016-05-01T10:45:50.000Z</time>
      </trkpt>
      <trkpt lat="49.39547" lon="1.15964">
        <ele>199</ele>
        <time>2016-05-01T10:45:52.000Z</time>
      </trkpt>
      <trkpt lat="49.39542" lon="1.1595">
        <ele>199</ele>
        <time>2016-05-01T10:45:54.000Z</time>
      </trkpt>
      <trkpt lat="49.39537" lon="1.15935">
        <ele>199</ele>
        <time>2016-05-01T10:45:56.000Z</time>
      </trkpt>
      <trkpt lat="49.39532" lon="1.1592">
        <ele>199</ele>
        <time>2016-05-01T10:45:58.000Z</time>
      </trkpt>
      <trkpt lat="49.39527" lon="1.15906">
        <ele>199</ele>
        <time>2016-05-01T10:46:00.000Z</time>
      </trkpt>
      <trkpt lat="49.39523" lon="1.15892">
        <ele>199</ele>
        <time>2016-05-01T10:46:02.000Z</time>
      </trkpt>
      <trkpt lat="49.39519" lon="1.15878">
        <ele>200</ele>
        <time>2016-05-01T10:46:04.000Z</time>
      </trkpt>
      <trkpt lat="49.39516" lon="1.15863">
        <ele>200</ele>
        <time>2016-05-01T10:46:06.000Z</time>
      </trkpt>
      <trkpt lat="49.39513" lon="1.15848">
        <ele>200</ele>
        <time>2016-05-01T10:46:08.000Z</time>
      </trkpt>
      <trkpt lat="49.3951" lon="1.15833">
        <ele>200</ele>
        <time>2016-05-01T10:46:10.000Z</time>
      </trkpt>
      <trkpt lat="49.39509" lon="1.15817">
        <ele>201</ele>
        <time>2016-05-01T10:46:12.000Z</time>
      </trkpt>
      <trkpt lat="49.39507" lon="1.15802">
        <ele>200</ele>
        <time>2016-05-01T10:46:14.000Z</time>
      </trkpt>
      <trkpt lat="49.39505" lon="1.15787">
        <ele>200</ele>
        <time>2016-05-01T10:46:16.000Z</time>
      </trkpt>
      <trkpt lat="49.39502" lon="1.15772">
        <ele>200</ele>
        <time>2016-05-01T10:46:18.000Z</time>
      </trkpt>
      <trkpt lat="49.395" lon="1.15755">
        <ele>201</ele>
        <time>2016-05-01T10:46:20.000Z</time>
      </trkpt>
      <trkpt lat="49.39497" lon="1.15739">
        <ele>201</ele>
        <time>2016-05-01T10:46:22.000Z</time>
      </trkpt>
      <trkpt lat="49.39495" lon="1.15724">
        <ele>201</ele>
        <time>2016-05-01T10:46:24.000Z</time>
      </trkpt>
      <trkpt lat="49.39493" lon="1.15708">
        <ele>201</ele>
        <time>2016-05-01T10:46:26.000Z</time>
      </trkpt>
      <trkpt lat="49.3949" lon="1.15691">
        <ele>201</ele>
        <time>2016-05-01T10:46:28.000Z</time>
      </trkpt>
      <trkpt lat="49.39487" lon="1.15673">
        <ele>201</ele>
        <time>2016-05-01T10:46:30.000Z</time>
      </trkpt>
      <trkpt lat="49.39485" lon="1.15656">
        <ele>201</ele>
        <time>2016-05-01T10:46:32.000Z</time>
      </trkpt>
      <trkpt lat="49.39482" lon="1.15639">
        <ele>201</ele>
        <time>2016-05-01T10:46:34.000Z</time>
      </trkpt>
      <trkpt lat="49.39479" lon="1.15621">
        <ele>201</ele>
        <time>2016-05-01T10:46:36.000Z</time>
      </trkpt>
      <trkpt lat="49.39477" lon="1.15604">
        <ele>201</ele>
        <time>2016-05-01T10:46:38.000Z</time>
      </trkpt>
      <trkpt lat="49.39474" lon="1.15586">
        <ele>201</ele>
        <time>2016-05-01T10:46:40.000Z</time>
      </trkpt>
      <trkpt lat="49.39471" lon="1.15569">
        <ele>200</ele>
        <time>2016-05-01T10:46:42.000Z</time>
      </trkpt>
      <trkpt lat="49.39467" lon="1.15551">
        <ele>200</ele>
        <time>2016-05-01T10:46:44.000Z</time>
      </trkpt>
      <trkpt lat="49.39464" lon="1.15534">
        <ele>200</ele>
        <time>2016-05-01T10:46:46.000Z</time>
      </trkpt>
      <trkpt lat="49.3946" lon="1.15517">
        <ele>201</ele>
        <time>2016-05-01T10:46:48.000Z</time>
      </trkpt>
      <trkpt lat="49.39457" lon="1.15501">
        <ele>201</ele>
        <time>2016-05-01T10:46:50.000Z</time>
      </trkpt>
      <trkpt lat="49.39454" lon="1.15484">
        <ele>200</ele>
        <time>2016-05-01T10:46:52.000Z</time>
      </trkpt>
      <trkpt lat="49.3945" lon="1.15469">
        <ele>200</ele>
        <time>2016-05-01T10:46:54.000Z</time>
      </trkpt>
      <trkpt lat="49.39444" lon="1.15456">
        <ele>200</ele>
        <time>2016-05-01T10:46:56.000Z</time>
      </trkpt>
      <trkpt lat="49.39434" lon="1.15457">
        <ele>199</ele>
        <time>2016-05-01T10:46:58.000Z</time>
      </trkpt>
      <trkpt lat="49.39425" lon="1.15467">
        <ele>199</ele>
        <time>2016-05-01T10:47:00.000Z</time>
      </trkpt>
      <trkpt lat="49.39415" lon="1.15478">
        <ele>199</ele>
        <time>2016-05-01T10:47:02.000Z</time>
      </trkpt>
      <trkpt lat="49.39405" lon="1.1549">
        <ele>198</ele>
        <time>2016-05-01T10:47:04.000Z</time>
      </trkpt>
      <trkpt lat="49.39395" lon="1.15501">
        <ele>198</ele>
        <time>2016-05-01T10:47:06.000Z</time>
      </trkpt>
      <trkpt lat="49.39384" lon="1.15513">
        <ele>198</ele>
        <time>2016-05-01T10:47:08.000Z</time>
      </trkpt>
      <trkpt lat="49.39373" lon="1.15524">
        <ele>198</ele>
        <time>2016-05-01T10:47:10.000Z</time>
      </trkpt>
      <trkpt lat="49.39363" lon="1.15536">
        <ele>198</ele>
        <time>2016-05-01T10:47:12.000Z</time>
      </trkpt>
      <trkpt lat="49.39351" lon="1.15547">
        <ele>198</ele>
        <time>2016-05-01T10:47:14.000Z</time>
      </trkpt>
      <trkpt lat="49.3934" lon="1.1556">
        <ele>198</ele>
        <time>2016-05-01T10:47:16.000Z</time>
      </trkpt>
      <trkpt lat="49.39329" lon="1.15572">
        <ele>198</ele>
        <time>2016-05-01T10:47:18.000Z</time>
      </trkpt>
      <trkpt lat="49.39317" lon="1.15585">
        <ele>198</ele>
        <time>2016-05-01T10:47:20.000Z</time>
      </trkpt>
      <trkpt lat="49.39305" lon="1.15599">
        <ele>198</ele>
        <time>2016-05-01T10:47:22.000Z</time>
      </trkpt>
      <trkpt lat="49.39293" lon="1.15613">
        <ele>197</ele>
        <time>2016-05-01T10:47:24.000Z</time>
      </trkpt>
      <trkpt lat="49.39281" lon="1.15629">
        <ele>196</ele>
        <time>2016-05-01T10:47:26.000Z</time>
      </trkpt>
      <trkpt lat="49.39269" lon="1.15645">
        <ele>196</ele>
        <time>2016-05-01T10:47:28.000Z</time>
      </trkpt>
      <trkpt lat="49.39257" lon="1.15663">
        <ele>195</ele>
        <time>2016-05-01T10:47:30.000Z</time>
      </trkpt>
      <trkpt lat="49.39244" lon="1.1568">
        <ele>194</ele>
        <time>2016-05-01T10:47:32.000Z</time>
      </trkpt>
      <trkpt lat="49.3923" lon="1.15695">
        <ele>193</ele>
        <time>2016-05-01T10:47:34.000Z</time>
      </trkpt>
      <trkpt lat="49.39215" lon="1.15708">
        <ele>193</ele>
        <time>2016-05-01T10:47:36.000Z</time>
      </trkpt>
      <trkpt lat="49.39201" lon="1.15721">
        <ele>192</ele>
        <time>2016-05-01T10:47:38.000Z</time>
      </trkpt>
      <trkpt lat="49.39188" lon="1.15734">
        <ele>191</ele>
        <time>2016-05-01T10:47:40.000Z</time>
      </trkpt>
      <trkpt lat="49.39175" lon="1.15747">
        <ele>190</ele>
        <time>2016-05-01T10:47:42.000Z</time>
      </trkpt>
      <trkpt lat="49.39163" lon="1.15756">
        <ele>190</ele>
        <time>2016-05-01T10:47:44.000Z</time>
      </trkpt>
      <trkpt lat="49.39153" lon="1.15753">
        <ele>190</ele>
        <time>2016-05-01T10:47:46.000Z</time>
      </trkpt>
      <trkpt lat="49.39148" lon="1.1574">
        <ele>190</ele>
        <time>2016-05-01T10:47:48.000Z</time>
      </trkpt>
      <trkpt lat="49.39145" lon="1.15725">
        <ele>190</ele>
        <time>2016-05-01T10:47:50.000Z</time>
      </trkpt>
      <trkpt lat="49.3914" lon="1.15709">
        <ele>191</ele>
        <time>2016-05-01T10:47:52.000Z</time>
      </trkpt>
      <trkpt lat="49.39137" lon="1.1569">
        <ele>191</ele>
        <time>2016-05-01T10:47:54.000Z</time>
      </trkpt>
      <trkpt lat="49.39133" lon="1.15671">
        <ele>191</ele>
        <time>2016-05-01T10:47:56.000Z</time>
      </trkpt>
      <trkpt lat="49.39128" lon="1.15651">
        <ele>191</ele>
        <time>2016-05-01T10:47:58.000Z</time>
      </trkpt>
      <trkpt lat="49.39124" lon="1.15633">
        <ele>191</ele>
        <time>2016-05-01T10:48:00.000Z</time>
      </trkpt>
      <trkpt lat="49.39119" lon="1.15615">
        <ele>191</ele>
        <time>2016-05-01T10:48:02.000Z</time>
      </trkpt>
      <trkpt lat="49.39116" lon="1.15597">
        <ele>191</ele>
        <time>2016-05-01T10:48:04.000Z</time>
      </trkpt>
      <trkpt lat="49.39111" lon="1.1558">
        <ele>191</ele>
        <time>2016-05-01T10:48:06.000Z</time>
      </trkpt>
      <trkpt lat="49.39107" lon="1.15563">
        <ele>191</ele>
        <time>2016-05-01T10:48:08.000Z</time>
      </trkpt>
      <trkpt lat="49.39103" lon="1.15545">
        <ele>192</ele>
        <time>2016-05-01T10:48:10.000Z</time>
      </trkpt>
      <trkpt lat="49.39099" lon="1.15528">
        <ele>191</ele>
        <time>2016-05-01T10:48:12.000Z</time>
      </trkpt>
      <trkpt lat="49.39095" lon="1.1551">
        <ele>191</ele>
        <time>2016-05-01T10:48:14.000Z</time>
      </trkpt>
      <trkpt lat="49.39091" lon="1.15491">
        <ele>192</ele>
        <time>2016-05-01T10:48:16.000Z</time>
      </trkpt>
      <trkpt lat="49.39087" lon="1.15472">
        <ele>191</ele>
        <time>2016-05-01T10:48:18.000Z</time>
      </trkpt>
      <trkpt lat="49.39083" lon="1.15454">
        <ele>191</ele>
        <time>2016-05-01T10:48:20.000Z</time>
      </trkpt>
      <trkpt lat="49.39079" lon="1.15437">
        <ele>191</ele>
        <time>2016-05-01T10:48:22.000Z</time>
      </trkpt>
      <trkpt lat="49.39075" lon="1.15421">
        <ele>191</ele>
        <time>2016-05-01T10:48:24.000Z</time>
      </trkpt>
      <trkpt lat="49.39072" lon="1.15407">
        <ele>191</ele>
        <time>2016-05-01T10:48:26.000Z</time>
      </trkpt>
      <trkpt lat="49.39068" lon="1.1539">
        <ele>191</ele>
        <time>2016-05-01T10:48:28.000Z</time>
      </trkpt>
      <trkpt lat="49.39065" lon="1.15373">
        <ele>190</ele>
        <time>2016-05-01T10:48:30.000Z</time>
      </trkpt>
      <trkpt lat="49.39062" lon="1.15355">
        <ele>190</ele>
        <time>2016-05-01T10:48:32.000Z</time>
      </trkpt>
      <trkpt lat="49.39059" lon="1.15335">
        <ele>190</ele>
        <time>2016-05-01T10:48:34.000Z</time>
      </trkpt>
      <trkpt lat="49.39058" lon="1.15315">
        <ele>190</ele>
        <time>2016-05-01T10:48:36.000Z</time>
      </trkpt>
      <trkpt lat="49.39055" lon="1.15294">
        <ele>189</ele>
        <time>2016-05-01T10:48:38.000Z</time>
      </trkpt>
      <trkpt lat="49.39054" lon="1.15272">
        <ele>188</ele>
        <time>2016-05-01T10:48:40.000Z</time>
      </trkpt>
      <trkpt lat="49.3905" lon="1.15249">
        <ele>187</ele>
        <time>2016-05-01T10:48:42.000Z</time>
      </trkpt>
      <trkpt lat="49.39047" lon="1.15228">
        <ele>187</ele>
        <time>2016-05-01T10:48:44.000Z</time>
      </trkpt>
      <trkpt lat="49.39044" lon="1.15207">
        <ele>187</ele>
        <time>2016-05-01T10:48:46.000Z</time>
      </trkpt>
      <trkpt lat="49.39041" lon="1.15188">
        <ele>187</ele>
        <time>2016-05-01T10:48:48.000Z</time>
      </trkpt>
      <trkpt lat="49.39038" lon="1.15168">
        <ele>187</ele>
        <time>2016-05-01T10:48:50.000Z</time>
      </trkpt>
      <trkpt lat="49.39034" lon="1.15151">
        <ele>188</ele>
        <time>2016-05-01T10:48:52.000Z</time>
      </trkpt>
      <trkpt lat="49.3903" lon="1.15134">
        <ele>188</ele>
        <time>2016-05-01T10:48:54.000Z</time>
      </trkpt>
      <trkpt lat="49.39026" lon="1.15117">
        <ele>188</ele>
        <time>2016-05-01T10:48:56.000Z</time>
      </trkpt>
      <trkpt lat="49.39022" lon="1.151">
        <ele>188</ele>
        <time>2016-05-01T10:48:58.000Z</time>
      </trkpt>
      <trkpt lat="49.39019" lon="1.15084">
        <ele>188</ele>
        <time>2016-05-01T10:49:00.000Z</time>
      </trkpt>
      <trkpt lat="49.39016" lon="1.15068">
        <ele>188</ele>
        <time>2016-05-01T10:49:02.000Z</time>
      </trkpt>
      <trkpt lat="49.39014" lon="1.15052">
        <ele>189</ele>
        <time>2016-05-01T10:49:04.000Z</time>
      </trkpt>
      <trkpt lat="49.39012" lon="1.15037">
        <ele>189</ele>
        <time>2016-05-01T10:49:06.000Z</time>
      </trkpt>
      <trkpt lat="49.39009" lon="1.1502">
        <ele>190</ele>
        <time>2016-05-01T10:49:08.000Z</time>
      </trkpt>
      <trkpt lat="49.39006" lon="1.15003">
        <ele>190</ele>
        <time>2016-05-01T10:49:10.000Z</time>
      </trkpt>
      <trkpt lat="49.39003" lon="1.14987">
        <ele>189</ele>
        <time>2016-05-01T10:49:12.000Z</time>
      </trkpt>
      <trkpt lat="49.39001" lon="1.1497">
        <ele>189</ele>
        <time>2016-05-01T10:49:14.000Z</time>
      </trkpt>
      <trkpt lat="49.38999" lon="1.14954">
        <ele>190</ele>
        <time>2016-05-01T10:49:16.000Z</time>
      </trkpt>
      <trkpt lat="49.38997" lon="1.14938">
        <ele>190</ele>
        <time>2016-05-01T10:49:18.000Z</time>
      </trkpt>
      <trkpt lat="49.38996" lon="1.14922">
        <ele>190</ele>
        <time>2016-05-01T10:49:20.000Z</time>
      </trkpt>
      <trkpt lat="49.38995" lon="1.14906">
        <ele>190</ele>
        <time>2016-05-01T10:49:22.000Z</time>
      </trkpt>
      <trkpt lat="49.38993" lon="1.1489">
        <ele>190</ele>
        <time>2016-05-01T10:49:24.000Z</time>
      </trkpt>
      <trkpt lat="49.38992" lon="1.14874">
        <ele>190</ele>
        <time>2016-05-01T10:49:26.000Z</time>
      </trkpt>
      <trkpt lat="49.3899" lon="1.14858">
        <ele>190</ele>
        <time>2016-05-01T10:49:28.000Z</time>
      </trkpt>
      <trkpt lat="49.38988" lon="1.14842">
        <ele>190</ele>
        <time>2016-05-01T10:49:30.000Z</time>
      </trkpt>
      <trkpt lat="49.38986" lon="1.14826">
        <ele>190</ele>
        <time>2016-05-01T10:49:32.000Z</time>
      </trkpt>
      <trkpt lat="49.38985" lon="1.14809">
        <ele>190</ele>
        <time>2016-05-01T10:49:34.000Z</time>
      </trkpt>
      <trkpt lat="49.38984" lon="1.14793">
        <ele>190</ele>
        <time>2016-05-01T10:49:36.000Z</time>
      </trkpt>
      <trkpt lat="49.38982" lon="1.14776">
        <ele>189</ele>
        <time>2016-05-01T10:49:38.000Z</time>
      </trkpt>
      <trkpt lat="49.38981" lon="1.1476">
        <ele>189</ele>
        <time>2016-05-01T10:49:40.000Z</time>
      </trkpt>
      <trkpt lat="49.38979" lon="1.14743">
        <ele>190</ele>
        <time>2016-05-01T10:49:42.000Z</time>
      </trkpt>
      <trkpt lat="49.38978" lon="1.14727">
        <ele>190</ele>
        <time>2016-05-01T10:49:44.000Z</time>
      </trkpt>
      <trkpt lat="49.38977" lon="1.1471">
        <ele>190</ele>
        <time>2016-05-01T10:49:46.000Z</time>
      </trkpt>
      <trkpt lat="49.38976" lon="1.14693">
        <ele>190</ele>
        <time>2016-05-01T10:49:48.000Z</time>
      </trkpt>
      <trkpt lat="49.38976" lon="1.14675">
        <ele>190</ele>
        <time>2016-05-01T10:49:50.000Z</time>
      </trkpt>
      <trkpt lat="49.38976" lon="1.14658">
        <ele>191</ele>
        <time>2016-05-01T10:49:52.000Z</time>
      </trkpt>
      <trkpt lat="49.38975" lon="1.14641">
        <ele>192</ele>
        <time>2016-05-01T10:49:54.000Z</time>
      </trkpt>
      <trkpt lat="49.38976" lon="1.14624">
        <ele>192</ele>
        <time>2016-05-01T10:49:56.000Z</time>
      </trkpt>
      <trkpt lat="49.38976" lon="1.14607">
        <ele>192</ele>
        <time>2016-05-01T10:49:58.000Z</time>
      </trkpt>
      <trkpt lat="49.38977" lon="1.1459">
        <ele>191</ele>
        <time>2016-05-01T10:50:00.000Z</time>
      </trkpt>
      <trkpt lat="49.38979" lon="1.14573">
        <ele>192</ele>
        <time>2016-05-01T10:50:02.000Z</time>
      </trkpt>
      <trkpt lat="49.3898" lon="1.14556">
        <ele>192</ele>
        <time>2016-05-01T10:50:04.000Z</time>
      </trkpt>
      <trkpt lat="49.38982" lon="1.14541">
        <ele>192</ele>
        <time>2016-05-01T10:50:06.000Z</time>
      </trkpt>
      <trkpt lat="49.38985" lon="1.14526">
        <ele>193</ele>
        <time>2016-05-01T10:50:08.000Z</time>
      </trkpt>
      <trkpt lat="49.3899" lon="1.14513">
        <ele>192</ele>
        <time>2016-05-01T10:50:10.000Z</time>
      </trkpt>
      <trkpt lat="49.38998" lon="1.14503">
        <ele>191</ele>
        <time>2016-05-01T10:50:12.000Z</time>
      </trkpt>
      <trkpt lat="49.39006" lon="1.14495">
        <ele>191</ele>
        <time>2016-05-01T10:50:14.000Z</time>
      </trkpt>
      <trkpt lat="49.39014" lon="1.14488">
        <ele>191</ele>
        <time>2016-05-01T10:50:16.000Z</time>
      </trkpt>
      <trkpt lat="49.39022" lon="1.14479">
        <ele>191</ele>
        <time>2016-05-01T10:50:18.000Z</time>
      </trkpt>
      <trkpt lat="49.39029" lon="1.14472">
        <ele>190</ele>
        <time>2016-05-01T10:50:20.000Z</time>
      </trkpt>
      <trkpt lat="49.39029" lon="1.14472">
        <ele>190</ele>
        <time>2016-05-01T10:50:22.000Z</time>
      </trkpt>
      <trkpt lat="49.39029" lon="1.14472">
        <ele>190</ele>
        <time>2016-05-01T10:50:24.000Z</time>
      </trkpt>
      <trkpt lat="49.39024" lon="1.14463">
        <ele>191</ele>
        <time>2016-05-01T10:50:26.000Z</time>
      </trkpt>
      <trkpt lat="49.39018" lon="1.14456">
        <ele>191</ele>
        <time>2016-05-01T10:50:28.000Z</time>
      </trkpt>
      <trkpt lat="49.3901" lon="1.14447">
        <ele>191</ele>
        <time>2016-05-01T10:50:30.000Z</time>
      </trkpt>
      <trkpt lat="49.39001" lon="1.14437">
        <ele>190</ele>
        <time>2016-05-01T10:50:32.000Z</time>
      </trkpt>
      <trkpt lat="49.38993" lon="1.14427">
        <ele>190</ele>
        <time>2016-05-01T10:50:34.000Z</time>
      </trkpt>
      <trkpt lat="49.38986" lon="1.14416">
        <ele>190</ele>
        <time>2016-05-01T10:50:36.000Z</time>
      </trkpt>
      <trkpt lat="49.38979" lon="1.14403">
        <ele>190</ele>
        <time>2016-05-01T10:50:38.000Z</time>
      </trkpt>
      <trkpt lat="49.38973" lon="1.14389">
        <ele>189</ele>
        <time>2016-05-01T10:50:40.000Z</time>
      </trkpt>
      <trkpt lat="49.38966" lon="1.14375">
        <ele>189</ele>
        <time>2016-05-01T10:50:42.000Z</time>
      </trkpt>
      <trkpt lat="49.38958" lon="1.14361">
        <ele>189</ele>
        <time>2016-05-01T10:50:44.000Z</time>
      </trkpt>
      <trkpt lat="49.38951" lon="1.14346">
        <ele>189</ele>
        <time>2016-05-01T10:50:46.000Z</time>
      </trkpt>
      <trkpt lat="49.38943" lon="1.1433">
        <ele>189</ele>
        <time>2016-05-01T10:50:48.000Z</time>
      </trkpt>
      <trkpt lat="49.38935" lon="1.14313">
        <ele>188</ele>
        <time>2016-05-01T10:50:50.000Z</time>
      </trkpt>
      <trkpt lat="49.38926" lon="1.14296">
        <ele>188</ele>
        <time>2016-05-01T10:50:52.000Z</time>
      </trkpt>
      <trkpt lat="49.38916" lon="1.14278">
        <ele>188</ele>
        <time>2016-05-01T10:50:54.000Z</time>
      </trkpt>
      <trkpt lat="49.38906" lon="1.14259">
        <ele>188</ele>
        <time>2016-05-01T10:50:56.000Z</time>
      </trkpt>
      <trkpt lat="49.38896" lon="1.14242">
        <ele>188</ele>
        <time>2016-05-01T10:50:58.000Z</time>
      </trkpt>
      <trkpt lat="49.38885" lon="1.14223">
        <ele>188</ele>
        <time>2016-05-01T10:51:00.000Z</time>
      </trkpt>
      <trkpt lat="49.38875" lon="1.14205">
        <ele>188</ele>
        <time>2016-05-01T10:51:02.000Z</time>
      </trkpt>
      <trkpt lat="49.38865" lon="1.14186">
        <ele>187</ele>
        <time>2016-05-01T10:51:04.000Z</time>
      </trkpt>
      <trkpt lat="49.38852" lon="1.14171">
        <ele>187</ele>
        <time>2016-05-01T10:51:06.000Z</time>
      </trkpt>
      <trkpt lat="49.38838" lon="1.14169">
        <ele>187</ele>
        <time>2016-05-01T10:51:08.000Z</time>
      </trkpt>
      <trkpt lat="49.38829" lon="1.14162">
        <ele>186</ele>
        <time>2016-05-01T10:51:10.000Z</time>
      </trkpt>
      <trkpt lat="49.38826" lon="1.14148">
        <ele>186</ele>
        <time>2016-05-01T10:51:12.000Z</time>
      </trkpt>
      <trkpt lat="49.38821" lon="1.14136">
        <ele>186</ele>
        <time>2016-05-01T10:51:14.000Z</time>
      </trkpt>
      <trkpt lat="49.38816" lon="1.14123">
        <ele>186</ele>
        <time>2016-05-01T10:51:16.000Z</time>
      </trkpt>
      <trkpt lat="49.3881" lon="1.14111">
        <ele>186</ele>
        <time>2016-05-01T10:51:18.000Z</time>
      </trkpt>
      <trkpt lat="49.38807" lon="1.14097">
        <ele>186</ele>
        <time>2016-05-01T10:51:20.000Z</time>
      </trkpt>
      <trkpt lat="49.38801" lon="1.14085">
        <ele>186</ele>
        <time>2016-05-01T10:51:22.000Z</time>
      </trkpt>
      <trkpt lat="49.38795" lon="1.14073">
        <ele>186</ele>
        <time>2016-05-01T10:51:24.000Z</time>
      </trkpt>
      <trkpt lat="49.38789" lon="1.14063">
        <ele>186</ele>
        <time>2016-05-01T10:51:26.000Z</time>
      </trkpt>
      <trkpt lat="49.38783" lon="1.14052">
        <ele>186</ele>
        <time>2016-05-01T10:51:28.000Z</time>
      </trkpt>
      <trkpt lat="49.38777" lon="1.14042">
        <ele>186</ele>
        <time>2016-05-01T10:51:30.000Z</time>
      </trkpt>
      <trkpt lat="49.38771" lon="1.14032">
        <ele>186</ele>
        <time>2016-05-01T10:51:32.000Z</time>
      </trkpt>
      <trkpt lat="49.38765" lon="1.14023">
        <ele>186</ele>
        <time>2016-05-01T10:51:34.000Z</time>
      </trkpt>
      <trkpt lat="49.38759" lon="1.14013">
        <ele>185</ele>
        <time>2016-05-01T10:51:36.000Z</time>
      </trkpt>
      <trkpt lat="49.38754" lon="1.14003">
        <ele>185</ele>
        <time>2016-05-01T10:51:38.000Z</time>
      </trkpt>
      <trkpt lat="49.38749" lon="1.13994">
        <ele>185</ele>
        <time>2016-05-01T10:51:40.000Z</time>
      </trkpt>
      <trkpt lat="49.38744" lon="1.13987">
        <ele>185</ele>
        <time>2016-05-01T10:51:42.000Z</time>
      </trkpt>
      <trkpt lat="49.38741" lon="1.13979">
        <ele>185</ele>
        <time>2016-05-01T10:51:44.000Z</time>
      </trkpt>
      <trkpt lat="49.38741" lon="1.13968">
        <ele>185</ele>
        <time>2016-05-01T10:51:46.000Z</time>
      </trkpt>
      <trkpt lat="49.38745" lon="1.13959">
        <ele>185</ele>
        <time>2016-05-01T10:51:48.000Z</time>
      </trkpt>
      <trkpt lat="49.38752" lon="1.13952">
        <ele>185</ele>
        <time>2016-05-01T10:51:50.000Z</time>
      </trkpt>
      <trkpt lat="49.3876" lon="1.13944">
        <ele>185</ele>
        <time>2016-05-01T10:51:52.000Z</time>
      </trkpt>
      <trkpt lat="49.3877" lon="1.13936">
        <ele>185</ele>
        <time>2016-05-01T10:51:54.000Z</time>
      </trkpt>
      <trkpt lat="49.38779" lon="1.13927">
        <ele>185</ele>
        <time>2016-05-01T10:51:56.000Z</time>
      </trkpt>
      <trkpt lat="49.38787" lon="1.13917">
        <ele>185</ele>
        <time>2016-05-01T10:51:58.000Z</time>
      </trkpt>
      <trkpt lat="49.38796" lon="1.13908">
        <ele>184</ele>
        <time>2016-05-01T10:52:00.000Z</time>
      </trkpt>
      <trkpt lat="49.38807" lon="1.139">
        <ele>184</ele>
        <time>2016-05-01T10:52:02.000Z</time>
      </trkpt>
      <trkpt lat="49.38816" lon="1.13892">
        <ele>183</ele>
        <time>2016-05-01T10:52:04.000Z</time>
      </trkpt>
      <trkpt lat="49.38825" lon="1.13883">
        <ele>183</ele>
        <time>2016-05-01T10:52:06.000Z</time>
      </trkpt>
      <trkpt lat="49.38835" lon="1.13875">
        <ele>183</ele>
        <time>2016-05-01T10:52:08.000Z</time>
      </trkpt>
      <trkpt lat="49.38844" lon="1.13867">
        <ele>182</ele>
        <time>2016-05-01T10:52:10.000Z</time>
      </trkpt>
      <trkpt lat="49.38852" lon="1.13869">
        <ele>182</ele>
        <time>2016-05-01T10:52:12.000Z</time>
      </trkpt>
      <trkpt lat="49.38856" lon="1.1388">
        <ele>182</ele>
        <time>2016-05-01T10:52:14.000Z</time>
      </trkpt>
      <trkpt lat="49.38859" lon="1.13891">
        <ele>183</ele>
        <time>2016-05-01T10:52:16.000Z</time>
      </trkpt>
      <trkpt lat="49.38862" lon="1.13904">
        <ele>183</ele>
        <time>2016-05-01T10:52:18.000Z</time>
      </trkpt>
      <trkpt lat="49.38866" lon="1.13917">
        <ele>184</ele>
        <time>2016-05-01T10:52:20.000Z</time>
      </trkpt>
      <trkpt lat="49.38871" lon="1.1393">
        <ele>183</ele>
        <time>2016-05-01T10:52:22.000Z</time>
      </trkpt>
      <trkpt lat="49.38875" lon="1.13942">
        <ele>183</ele>
        <time>2016-05-01T10:52:24.000Z</time>
      </trkpt>
      <trkpt lat="49.38879" lon="1.13956">
        <ele>183</ele>
        <time>2016-05-01T10:52:26.000Z</time>
      </trkpt>
      <trkpt lat="49.38882" lon="1.13969">
        <ele>182</ele>
        <time>2016-05-01T10:52:28.000Z</time>
      </trkpt>
      <trkpt lat="49.38885" lon="1.13983">
        <ele>182</ele>
        <time>2016-05-01T10:52:30.000Z</time>
      </trkpt>
      <trkpt lat="49.38889" lon="1.13997">
        <ele>183</ele>
        <time>2016-05-01T10:52:32.000Z</time>
      </trkpt>
      <trkpt lat="49.38893" lon="1.14009">
        <ele>183</ele>
        <time>2016-05-01T10:52:34.000Z</time>
      </trkpt>
      <trkpt lat="49.38895" lon="1.14021">
        <ele>183</ele>
        <time>2016-05-01T10:52:36.000Z</time>
      </trkpt>
      <trkpt lat="49.38894" lon="1.14031">
        <ele>185</ele>
        <time>2016-05-01T10:52:38.000Z</time>
      </trkpt>
      <trkpt lat="49.38887" lon="1.14036">
        <ele>185</ele>
        <time>2016-05-01T10:52:40.000Z</time>
      </trkpt>
      <trkpt lat="49.3888" lon="1.14041">
        <ele>185</ele>
        <time>2016-05-01T10:52:42.000Z</time>
      </trkpt>
      <trkpt lat="49.38874" lon="1.14046">
        <ele>185</ele>
        <time>2016-05-01T10:52:44.000Z</time>
      </trkpt>
      <trkpt lat="49.38868" lon="1.1405">
        <ele>185</ele>
        <time>2016-05-01T10:52:46.000Z</time>
      </trkpt>
      <trkpt lat="49.38863" lon="1.14055">
        <ele>185</ele>
        <time>2016-05-01T10:52:48.000Z</time>
      </trkpt>
      <trkpt lat="49.38858" lon="1.14059">
        <ele>185</ele>
        <time>2016-05-01T10:52:50.000Z</time>
      </trkpt>
      <trkpt lat="49.38858" lon="1.14059">
        <ele>185</ele>
        <time>2016-05-01T10:52:52.000Z</time>
      </trkpt>
      <trkpt lat="49.38853" lon="1.14071">
        <ele>186</ele>
        <time>2016-05-01T10:52:54.000Z</time>
      </trkpt>
      <trkpt lat="49.38853" lon="1.14071">
        <ele>186</ele>
        <time>2016-05-01T10:52:56.000Z</time>
      </trkpt>
      <trkpt lat="49.38857" lon="1.14082">
        <ele>186</ele>
        <time>2016-05-01T10:52:58.000Z</time>
      </trkpt>
      <trkpt lat="49.38857" lon="1.14082">
        <ele>186</ele>
        <time>2016-05-01T10:53:00.000Z</time>
      </trkpt>
      <trkpt lat="49.38857" lon="1.14082">
        <ele>186</ele>
        <time>2016-05-01T10:53:02.000Z</time>
      </trkpt>
      <trkpt lat="49.38853" lon="1.14094">
        <ele>184</ele>
        <time>2016-05-01T10:53:41.000Z</time>
      </trkpt>
      <trkpt lat="49.38853" lon="1.14094">
        <ele>184</ele>
        <time>2016-05-01T10:53:43.000Z</time>
      </trkpt>
      <trkpt lat="49.38853" lon="1.14094">
        <ele>184</ele>
        <time>2016-05-01T10:53:45.000Z</time>
      </trkpt>
      <trkpt lat="49.38853" lon="1.14094">
        <ele>184</ele>
        <time>2016-05-01T10:53:47.000Z</time>
      </trkpt>
      <trkpt lat="49.38853" lon="1.14094">
        <ele>184</ele>
        <time>2016-05-01T10:53:49.000Z</time>
      </trkpt>
      <trkpt lat="49.38855" lon="1.14126">
        <ele>164</ele>
        <time>2016-05-01T10:55:30.000Z</time>
      </trkpt>
      <trkpt lat="49.38855" lon="1.14126">
        <ele>164</ele>
        <time>2016-05-01T10:55:32.000Z</time>
      </trkpt>
      <trkpt lat="49.38855" lon="1.14126">
        <ele>164</ele>
        <time>2016-05-01T10:55:34.000Z</time>
      </trkpt>
      <trkpt lat="49.38855" lon="1.14126">
        <ele>164</ele>
        <time>2016-05-01T10:55:36.000Z</time>
      </trkpt>
      <trkpt lat="49.38856" lon="1.14104">
        <ele>183</ele>
        <time>2016-05-01T10:58:48.000Z</time>
      </trkpt>
      <trkpt lat="49.38856" lon="1.14104">
        <ele>183</ele>
        <time>2016-05-01T10:58:54.000Z</time>
      </trkpt>
      <trkpt lat="49.38856" lon="1.14104">
        <ele>183</ele>
        <time>2016-05-01T10:58:56.000Z</time>
      </trkpt>
    </trkseg>
  </trk>
</gpx>